<?xml version='1.0' encoding='UTF-8'?><gpx version="1.1" creator="JPX - https://github.com/jenetics/jpx" xmlns="http://www.topografix.com/GPX/1/1"><trk><trkseg><trkpt lat="45.60358556141553" lon="12.196154974161038"><ele>10.0</ele><time>2026-03-23T08:29:40.999Z</time></trkpt><trkpt lat="45.6034994139019" lon="12.196135908742793"><ele>10.0</ele><time>2026-03-23T08:29:42.999Z</time></trkpt><trkpt lat="45.60339502732878" lon="12.196137156344259"><ele>10.0</ele><time>2026-03-23T08:29:44.999Z</time></trkpt><trkpt lat="45.603293490035" lon="12.196133742683086"><ele>10.0</ele><time>2026-03-23T08:29:46.999Z</time></trkpt><trkpt lat="45.603730305829735" lon="12.196022568774927"><ele>10.0</ele><time>2026-03-23T08:29:47.999Z</time></trkpt><trkpt lat="45.6031887862922" lon="12.196130275977703"><ele>10.0</ele><time>2026-03-23T08:29:48.999Z</time></trkpt><trkpt lat="45.603076521056856" lon="12.196099211779611"><ele>10.0</ele><time>2026-03-23T08:29:50.999Z</time></trkpt><trkpt lat="45.60296488335019" lon="12.196094070035771"><ele>10.0</ele><time>2026-03-23T08:29:52.999Z</time></trkpt><trkpt lat="45.60284143319936" lon="12.196088384240493"><ele>10.0</ele><time>2026-03-23T08:29:54.999Z</time></trkpt><trkpt lat="45.60272449133618" lon="12.196101987999421"><ele>10.0</ele><time>2026-03-23T08:29:56.999Z</time></trkpt><trkpt lat="45.602614460349464" lon="12.196096201205096"><ele>10.0</ele><time>2026-03-23T08:29:58.999Z</time></trkpt><trkpt lat="45.602500739337714" lon="12.196092269476333"><ele>10.0</ele><time>2026-03-23T08:30:00.999Z</time></trkpt><trkpt lat="45.602388861233145" lon="12.19608545796883"><ele>10.0</ele><time>2026-03-23T08:30:02.999Z</time></trkpt><trkpt lat="45.60227648601762" lon="12.1960798449303"><ele>10.0</ele><time>2026-03-23T08:30:04.999Z</time></trkpt><trkpt lat="45.60216884538782" lon="12.196080680789388"><ele>10.0</ele><time>2026-03-23T08:30:06.999Z</time></trkpt><trkpt lat="45.60205789258603" lon="12.19605229638968"><ele>10.0</ele><time>2026-03-23T08:30:08.999Z</time></trkpt><trkpt lat="45.601968494723366" lon="12.19604817895151"><ele>10.0</ele><time>2026-03-23T08:30:10.999Z</time></trkpt><trkpt lat="45.601890169070714" lon="12.196044571478016"><ele>10.0</ele><time>2026-03-23T08:30:12.999Z</time></trkpt><trkpt lat="45.601809114061716" lon="12.196054138925465"><ele>10.0</ele><time>2026-03-23T08:30:15.999Z</time></trkpt><trkpt lat="45.601750615078096" lon="12.19601441889239"><ele>10.0</ele><time>2026-03-23T08:30:20.998Z</time></trkpt><trkpt lat="45.60178491957238" lon="12.195892832106539"><ele>10.0</ele><time>2026-03-23T08:30:21.998Z</time></trkpt><trkpt lat="45.601780967514195" lon="12.195776121588324"><ele>10.0</ele><time>2026-03-23T08:30:22.998Z</time></trkpt><trkpt lat="45.60179764160169" lon="12.195671375257938"><ele>10.0</ele><time>2026-03-23T08:30:23.998Z</time></trkpt><trkpt lat="45.60180091600225" lon="12.195564020785719"><ele>10.0</ele><time>2026-03-23T08:30:24.998Z</time></trkpt><trkpt lat="45.60180710910817" lon="12.195446751162809"><ele>10.0</ele><time>2026-03-23T08:30:25.998Z</time></trkpt><trkpt lat="45.6018171801796" lon="12.195338904702798"><ele>10.0</ele><time>2026-03-23T08:30:26.998Z</time></trkpt><trkpt lat="45.601829607054015" lon="12.195232258275745"><ele>10.0</ele><time>2026-03-23T08:30:27.998Z</time></trkpt><trkpt lat="45.60183554181714" lon="12.195106666585874"><ele>10.0</ele><time>2026-03-23T08:30:28.998Z</time></trkpt><trkpt lat="45.6018381817222" lon="12.19496203941252"><ele>10.0</ele><time>2026-03-23T08:30:29.998Z</time></trkpt><trkpt lat="45.601843766262235" lon="12.194813553485401"><ele>10.0</ele><time>2026-03-23T08:30:30.998Z</time></trkpt><trkpt lat="45.60185346768679" lon="12.194660976031525"><ele>10.0</ele><time>2026-03-23T08:30:31.998Z</time></trkpt><trkpt lat="45.601862672505106" lon="12.194502609925335"><ele>10.25</ele><time>2026-03-23T08:30:32.999Z</time></trkpt><trkpt lat="45.60187473051768" lon="12.194335147068672"><ele>10.5</ele><time>2026-03-23T08:30:33.999Z</time></trkpt><trkpt lat="45.60189110742718" lon="12.19415631221903"><ele>10.75</ele><time>2026-03-23T08:30:34.999Z</time></trkpt><trkpt lat="45.60190081323406" lon="12.193999408075657"><ele>11.0</ele><time>2026-03-23T08:30:35.999Z</time></trkpt><trkpt lat="45.60191407902916" lon="12.193844700669382"><ele>11.0</ele><time>2026-03-23T08:30:36.999Z</time></trkpt><trkpt lat="45.60192375726714" lon="12.19367201155763"><ele>11.0</ele><time>2026-03-23T08:30:37.999Z</time></trkpt><trkpt lat="45.601933546869894" lon="12.193486731164647"><ele>11.0</ele><time>2026-03-23T08:30:38.999Z</time></trkpt><trkpt lat="45.60194526949379" lon="12.193284850665961"><ele>11.0</ele><time>2026-03-23T08:30:39.999Z</time></trkpt><trkpt lat="45.60195353335472" lon="12.193066592132396"><ele>11.0</ele><time>2026-03-23T08:30:40.999Z</time></trkpt><trkpt lat="45.60196878781408" lon="12.192840373343202"><ele>11.0</ele><time>2026-03-23T08:30:41.999Z</time></trkpt><trkpt lat="45.60198597633484" lon="12.192617431987765"><ele>11.0</ele><time>2026-03-23T08:30:42.999Z</time></trkpt><trkpt lat="45.601996587131836" lon="12.19239685249243"><ele>11.0</ele><time>2026-03-23T08:30:43.999Z</time></trkpt><trkpt lat="45.602009680520055" lon="12.192169614498528"><ele>11.0</ele><time>2026-03-23T08:30:44.999Z</time></trkpt><trkpt lat="45.60202391146994" lon="12.191946735194707"><ele>11.0</ele><time>2026-03-23T08:30:45.999Z</time></trkpt><trkpt lat="45.60204263975859" lon="12.19173985727391"><ele>11.0</ele><time>2026-03-23T08:30:46.999Z</time></trkpt><trkpt lat="45.602057579228486" lon="12.191525671606588"><ele>11.0</ele><time>2026-03-23T08:30:47.999Z</time></trkpt><trkpt lat="45.602065824671314" lon="12.191290454678068"><ele>11.0</ele><time>2026-03-23T08:30:48.999Z</time></trkpt><trkpt lat="45.60208412903744" lon="12.191047832646902"><ele>11.0</ele><time>2026-03-23T08:30:49.999Z</time></trkpt><trkpt lat="45.602100211611265" lon="12.19079657991857"><ele>11.0</ele><time>2026-03-23T08:30:50.999Z</time></trkpt><trkpt lat="45.602118511387566" lon="12.190545481564477"><ele>11.0</ele><time>2026-03-23T08:30:51.999Z</time></trkpt><trkpt lat="45.60213693821853" lon="12.190302654316842"><ele>10.666666666666666</ele><time>2026-03-23T08:30:52.999Z</time></trkpt><trkpt lat="45.602152874592484" lon="12.190068341589173"><ele>10.333333333333334</ele><time>2026-03-23T08:30:53.999Z</time></trkpt><trkpt lat="45.60216527977373" lon="12.189850240346427"><ele>10.0</ele><time>2026-03-23T08:30:54.999Z</time></trkpt><trkpt lat="45.602179891933645" lon="12.189648001797966"><ele>10.0</ele><time>2026-03-23T08:30:55.999Z</time></trkpt><trkpt lat="45.60219384913018" lon="12.189455502780625"><ele>10.0</ele><time>2026-03-23T08:30:56.999Z</time></trkpt><trkpt lat="45.60220417850808" lon="12.189261501606822"><ele>10.0</ele><time>2026-03-23T08:30:57.999Z</time></trkpt><trkpt lat="45.60221855091433" lon="12.189061115688762"><ele>10.0</ele><time>2026-03-23T08:30:58.999Z</time></trkpt><trkpt lat="45.602239000513194" lon="12.188859053493834"><ele>10.0</ele><time>2026-03-23T08:30:59.999Z</time></trkpt><trkpt lat="45.60225768100446" lon="12.188659993590477"><ele>10.0</ele><time>2026-03-23T08:31:00.999Z</time></trkpt><trkpt lat="45.6022617340682" lon="12.18846286521424"><ele>10.0</ele><time>2026-03-23T08:31:01.999Z</time></trkpt><trkpt lat="45.602273096450965" lon="12.188270513032235"><ele>10.0</ele><time>2026-03-23T08:31:02.999Z</time></trkpt><trkpt lat="45.602326060484025" lon="12.188112690807523"><ele>10.0</ele><time>2026-03-23T08:31:03.999Z</time></trkpt><trkpt lat="45.602375019557044" lon="12.187971090877138"><ele>10.0</ele><time>2026-03-23T08:31:04.999Z</time></trkpt><trkpt lat="45.60247218485536" lon="12.187879232852012"><ele>10.0</ele><time>2026-03-23T08:31:05.999Z</time></trkpt><trkpt lat="45.60257329571869" lon="12.187824852855096"><ele>10.0</ele><time>2026-03-23T08:31:06.999Z</time></trkpt><trkpt lat="45.60269559217686" lon="12.187772448269028"><ele>10.0</ele><time>2026-03-23T08:31:07.999Z</time></trkpt><trkpt lat="45.60283760921331" lon="12.187690510582584"><ele>10.0</ele><time>2026-03-23T08:31:08.999Z</time></trkpt><trkpt lat="45.60298867274761" lon="12.187618606862118"><ele>10.0</ele><time>2026-03-23T08:31:09.999Z</time></trkpt><trkpt lat="45.603123175731795" lon="12.187567924787901"><ele>10.0</ele><time>2026-03-23T08:31:10.999Z</time></trkpt><trkpt lat="45.60324092337719" lon="12.187513933568036"><ele>10.0</ele><time>2026-03-23T08:31:11.999Z</time></trkpt><trkpt lat="45.603348729557496" lon="12.18743915468572"><ele>10.0</ele><time>2026-03-23T08:31:12.999Z</time></trkpt><trkpt lat="45.60343582238005" lon="12.187305692874581"><ele>10.0</ele><time>2026-03-23T08:31:13.999Z</time></trkpt><trkpt lat="45.60349564391753" lon="12.18713383680329"><ele>10.0</ele><time>2026-03-23T08:31:14.999Z</time></trkpt><trkpt lat="45.603529630556416" lon="12.186937236980958"><ele>10.0</ele><time>2026-03-23T08:31:15.999Z</time></trkpt><trkpt lat="45.603534886322585" lon="12.186730286358879"><ele>10.0</ele><time>2026-03-23T08:31:16.999Z</time></trkpt><trkpt lat="45.60358543586568" lon="12.186572149100579"><ele>10.0</ele><time>2026-03-23T08:31:17.999Z</time></trkpt><trkpt lat="45.60365276929722" lon="12.186463143303133"><ele>9.75</ele><time>2026-03-23T08:31:18.999Z</time></trkpt><trkpt lat="45.60373964001571" lon="12.186392108019131"><ele>9.5</ele><time>2026-03-23T08:31:19.999Z</time></trkpt><trkpt lat="45.6038508220216" lon="12.18637918911723"><ele>9.25</ele><time>2026-03-23T08:31:20.999Z</time></trkpt><trkpt lat="45.603989441087485" lon="12.18633754491343"><ele>9.0</ele><time>2026-03-23T08:31:21.999Z</time></trkpt><trkpt lat="45.60416535605451" lon="12.186270829086816"><ele>9.0</ele><time>2026-03-23T08:31:22.999Z</time></trkpt><trkpt lat="45.60436536273931" lon="12.186219871315064"><ele>9.0</ele><time>2026-03-23T08:31:23.999Z</time></trkpt><trkpt lat="45.60458990553587" lon="12.186147390799018"><ele>9.0</ele><time>2026-03-23T08:31:24.999Z</time></trkpt><trkpt lat="45.60479449899501" lon="12.186083238344896"><ele>9.0</ele><time>2026-03-23T08:31:25.999Z</time></trkpt><trkpt lat="45.6049978887913" lon="12.18606651888276"><ele>9.0</ele><time>2026-03-23T08:31:26.999Z</time></trkpt><trkpt lat="45.60522193087576" lon="12.18607306947849"><ele>9.0</ele><time>2026-03-23T08:31:27.999Z</time></trkpt><trkpt lat="45.60547337846499" lon="12.186061209371683"><ele>10.5</ele><time>2026-03-23T08:31:28.999Z</time></trkpt><trkpt lat="45.60573038180921" lon="12.186083035552343"><ele>12.0</ele><time>2026-03-23T08:31:29.999Z</time></trkpt><trkpt lat="45.60596637754142" lon="12.186087793271401"><ele>12.0</ele><time>2026-03-23T08:31:30.999Z</time></trkpt><trkpt lat="45.60619392867548" lon="12.186087343113945"><ele>12.0</ele><time>2026-03-23T08:31:31.999Z</time></trkpt><trkpt lat="45.60643497620186" lon="12.186095810748201"><ele>12.0</ele><time>2026-03-23T08:31:32.999Z</time></trkpt><trkpt lat="45.60668950071204" lon="12.186113133473041"><ele>12.0</ele><time>2026-03-23T08:31:33.999Z</time></trkpt><trkpt lat="45.60694841726531" lon="12.18613225013103"><ele>12.0</ele><time>2026-03-23T08:31:34.999Z</time></trkpt><trkpt lat="45.60720971530761" lon="12.186154937046233"><ele>12.0</ele><time>2026-03-23T08:31:35.999Z</time></trkpt><trkpt lat="45.60745979576907" lon="12.186178080501094"><ele>12.0</ele><time>2026-03-23T08:31:36.999Z</time></trkpt><trkpt lat="45.607688402317095" lon="12.18620314387456"><ele>12.0</ele><time>2026-03-23T08:31:37.999Z</time></trkpt><trkpt lat="45.607898447310006" lon="12.186209736559368"><ele>12.0</ele><time>2026-03-23T08:31:38.999Z</time></trkpt><trkpt lat="45.60809740677243" lon="12.186220654539772"><ele>11.666666666666666</ele><time>2026-03-23T08:31:39.999Z</time></trkpt><trkpt lat="45.60828616531126" lon="12.186213142181844"><ele>11.333333333333332</ele><time>2026-03-23T08:31:40.999Z</time></trkpt><trkpt lat="45.60847141726593" lon="12.186203998613054"><ele>11.0</ele><time>2026-03-23T08:31:41.999Z</time></trkpt><trkpt lat="45.60865961802403" lon="12.186198516574425"><ele>11.666666666666666</ele><time>2026-03-23T08:31:42.999Z</time></trkpt><trkpt lat="45.60886519620556" lon="12.186225869460234"><ele>12.333333333333332</ele><time>2026-03-23T08:31:43.999Z</time></trkpt><trkpt lat="45.60909787198144" lon="12.186246696932525"><ele>13.0</ele><time>2026-03-23T08:31:44.999Z</time></trkpt><trkpt lat="45.6093435953822" lon="12.186292361222437"><ele>12.5</ele><time>2026-03-23T08:31:45.999Z</time></trkpt><trkpt lat="45.60959945295036" lon="12.186330382627595"><ele>12.0</ele><time>2026-03-23T08:31:46.999Z</time></trkpt><trkpt lat="45.60983373863098" lon="12.186369208307319"><ele>12.0</ele><time>2026-03-23T08:31:47.999Z</time></trkpt><trkpt lat="45.610046212559276" lon="12.186387928135433"><ele>12.0</ele><time>2026-03-23T08:31:48.999Z</time></trkpt><trkpt lat="45.61025814884073" lon="12.186409715133765"><ele>12.0</ele><time>2026-03-23T08:31:49.999Z</time></trkpt><trkpt lat="45.610463462956666" lon="12.18643453996467"><ele>11.666666666666666</ele><time>2026-03-23T08:31:50.999Z</time></trkpt><trkpt lat="45.6106526645378" lon="12.186454369195275"><ele>11.333333333333332</ele><time>2026-03-23T08:31:51.999Z</time></trkpt><trkpt lat="45.61083140879861" lon="12.186472426062648"><ele>11.0</ele><time>2026-03-23T08:31:52.999Z</time></trkpt><trkpt lat="45.6109986076378" lon="12.18648904083031"><ele>11.333333333333332</ele><time>2026-03-23T08:31:53.999Z</time></trkpt><trkpt lat="45.61116905664915" lon="12.186481580946163"><ele>11.666666666666666</ele><time>2026-03-23T08:31:54.999Z</time></trkpt><trkpt lat="45.61135734788201" lon="12.186419955969626"><ele>12.0</ele><time>2026-03-23T08:31:55.999Z</time></trkpt><trkpt lat="45.611557250917365" lon="12.186316730558135"><ele>12.0</ele><time>2026-03-23T08:31:56.999Z</time></trkpt><trkpt lat="45.6117607194251" lon="12.186252675706308"><ele>12.0</ele><time>2026-03-23T08:31:57.999Z</time></trkpt><trkpt lat="45.61197741564938" lon="12.1862216783316"><ele>12.0</ele><time>2026-03-23T08:31:58.999Z</time></trkpt><trkpt lat="45.61219531167888" lon="12.186208494542361"><ele>11.666666666666666</ele><time>2026-03-23T08:31:59.999Z</time></trkpt><trkpt lat="45.612372788845875" lon="12.18617769559347"><ele>11.333333333333332</ele><time>2026-03-23T08:32:00.999Z</time></trkpt><trkpt lat="45.61252882310641" lon="12.186128427779805"><ele>11.0</ele><time>2026-03-23T08:32:01.999Z</time></trkpt><trkpt lat="45.612679280750875" lon="12.186030767518787"><ele>11.0</ele><time>2026-03-23T08:32:02.999Z</time></trkpt><trkpt lat="45.61281488811672" lon="12.185889220929985"><ele>11.0</ele><time>2026-03-23T08:32:03.999Z</time></trkpt><trkpt lat="45.61294542020823" lon="12.18573441407605"><ele>11.0</ele><time>2026-03-23T08:32:04.999Z</time></trkpt><trkpt lat="45.61307610521042" lon="12.185620462530567"><ele>11.0</ele><time>2026-03-23T08:32:05.999Z</time></trkpt><trkpt lat="45.613206318566036" lon="12.185535876222119"><ele>11.0</ele><time>2026-03-23T08:32:06.999Z</time></trkpt><trkpt lat="45.6133368880133" lon="12.185465439103247"><ele>11.0</ele><time>2026-03-23T08:32:07.999Z</time></trkpt><trkpt lat="45.61350113797587" lon="12.185444649605696"><ele>11.0</ele><time>2026-03-23T08:32:08.999Z</time></trkpt><trkpt lat="45.61366179186508" lon="12.18541299452881"><ele>11.0</ele><time>2026-03-23T08:32:09.999Z</time></trkpt><trkpt lat="45.61379988404139" lon="12.185433821282336"><ele>11.0</ele><time>2026-03-23T08:32:10.999Z</time></trkpt><trkpt lat="45.61391944161774" lon="12.185423025147877"><ele>11.0</ele><time>2026-03-23T08:32:11.999Z</time></trkpt><trkpt lat="45.61401859960532" lon="12.185457065041446"><ele>11.0</ele><time>2026-03-23T08:32:12.999Z</time></trkpt><trkpt lat="45.61411105416867" lon="12.185473115454657"><ele>11.0</ele><time>2026-03-23T08:32:13.999Z</time></trkpt><trkpt lat="45.61417673077041" lon="12.185561402203897"><ele>11.0</ele><time>2026-03-23T08:32:14.999Z</time></trkpt><trkpt lat="45.614208283149615" lon="12.185684835933534"><ele>11.0</ele><time>2026-03-23T08:32:15.999Z</time></trkpt><trkpt lat="45.614219978788476" lon="12.185850439280792"><ele>11.0</ele><time>2026-03-23T08:32:16.999Z</time></trkpt><trkpt lat="45.614214945665715" lon="12.186016239172314"><ele>11.0</ele><time>2026-03-23T08:32:17.999Z</time></trkpt><trkpt lat="45.61424013602684" lon="12.186140245174116"><ele>11.200000000000001</ele><time>2026-03-23T08:32:18.999Z</time></trkpt><trkpt lat="45.614300000244604" lon="12.186234837469557"><ele>11.4</ele><time>2026-03-23T08:32:19.999Z</time></trkpt><trkpt lat="45.6143853408482" lon="12.186293417229114"><ele>11.6</ele><time>2026-03-23T08:32:20.999Z</time></trkpt><trkpt lat="45.61449916617202" lon="12.186316335898397"><ele>11.8</ele><time>2026-03-23T08:32:21.999Z</time></trkpt><trkpt lat="45.61464883019587" lon="12.186319533747065"><ele>12.0</ele><time>2026-03-23T08:32:22.999Z</time></trkpt><trkpt lat="45.614833436118374" lon="12.186336801893697"><ele>12.0</ele><time>2026-03-23T08:32:23.999Z</time></trkpt><trkpt lat="45.61503513951439" lon="12.186371296508003"><ele>12.0</ele><time>2026-03-23T08:32:24.999Z</time></trkpt><trkpt lat="45.61522312973141" lon="12.186393768237874"><ele>12.0</ele><time>2026-03-23T08:32:25.999Z</time></trkpt><trkpt lat="45.615415441875676" lon="12.186457642355688"><ele>12.0</ele><time>2026-03-23T08:32:26.999Z</time></trkpt><trkpt lat="45.615632309293964" lon="12.186528113054457"><ele>12.0</ele><time>2026-03-23T08:32:27.999Z</time></trkpt><trkpt lat="45.615849976583284" lon="12.186631790013871"><ele>12.0</ele><time>2026-03-23T08:32:28.999Z</time></trkpt><trkpt lat="45.61604889461043" lon="12.186715734504144"><ele>12.0</ele><time>2026-03-23T08:32:29.999Z</time></trkpt><trkpt lat="45.61623943834779" lon="12.1867912617207"><ele>12.0</ele><time>2026-03-23T08:32:30.999Z</time></trkpt><trkpt lat="45.61643931390399" lon="12.186836103498342"><ele>12.0</ele><time>2026-03-23T08:32:31.999Z</time></trkpt><trkpt lat="45.61665898099157" lon="12.186838143897239"><ele>12.0</ele><time>2026-03-23T08:32:32.999Z</time></trkpt><trkpt lat="45.616879699817844" lon="12.18684061787693"><ele>12.0</ele><time>2026-03-23T08:32:33.999Z</time></trkpt><trkpt lat="45.617084539240025" lon="12.18687893308224"><ele>12.0</ele><time>2026-03-23T08:32:34.999Z</time></trkpt><trkpt lat="45.617265928930735" lon="12.18692925712454"><ele>12.0</ele><time>2026-03-23T08:32:35.998Z</time></trkpt><trkpt lat="45.617412853424774" lon="12.187014623839625"><ele>12.0</ele><time>2026-03-23T08:32:36.998Z</time></trkpt><trkpt lat="45.617544306966536" lon="12.187118422862078"><ele>12.0</ele><time>2026-03-23T08:32:37.998Z</time></trkpt><trkpt lat="45.61764605262096" lon="12.187292017852515"><ele>12.0</ele><time>2026-03-23T08:32:38.999Z</time></trkpt><trkpt lat="45.617793919706635" lon="12.18750409030108"><ele>12.0</ele><time>2026-03-23T08:32:39.999Z</time></trkpt><trkpt lat="45.617905038028965" lon="12.187666704772193"><ele>12.25</ele><time>2026-03-23T08:32:40.999Z</time></trkpt><trkpt lat="45.61800639514062" lon="12.18779099925317"><ele>12.5</ele><time>2026-03-23T08:32:41.999Z</time></trkpt><trkpt lat="45.61809785806149" lon="12.187891823383543"><ele>12.75</ele><time>2026-03-23T08:32:42.999Z</time></trkpt><trkpt lat="45.618212004375" lon="12.187927458267374"><ele>13.0</ele><time>2026-03-23T08:32:43.999Z</time></trkpt><trkpt lat="45.6183633556672" lon="12.187930271565925"><ele>13.0</ele><time>2026-03-23T08:32:44.999Z</time></trkpt><trkpt lat="45.6184998456834" lon="12.187934878175374"><ele>13.0</ele><time>2026-03-23T08:32:45.999Z</time></trkpt><trkpt lat="45.61878281836215" lon="12.187930884321727"><ele>13.0</ele><time>2026-03-23T08:32:46.999Z</time></trkpt><trkpt lat="45.61903519756476" lon="12.187941226387078"><ele>13.0</ele><time>2026-03-23T08:32:47.999Z</time></trkpt><trkpt lat="45.619300048767705" lon="12.18793048239246"><ele>13.0</ele><time>2026-03-23T08:32:48.999Z</time></trkpt><trkpt lat="45.61955487585808" lon="12.18791656560111"><ele>12.5</ele><time>2026-03-23T08:32:49.999Z</time></trkpt><trkpt lat="45.61979489333363" lon="12.187904064841023"><ele>12.0</ele><time>2026-03-23T08:32:50.999Z</time></trkpt><trkpt lat="45.620052692944405" lon="12.18789441501383"><ele>12.0</ele><time>2026-03-23T08:32:51.999Z</time></trkpt><trkpt lat="45.620285093210484" lon="12.187883863300318"><ele>12.0</ele><time>2026-03-23T08:32:52.999Z</time></trkpt><trkpt lat="45.62046889044029" lon="12.187871673597915"><ele>12.0</ele><time>2026-03-23T08:32:53.999Z</time></trkpt><trkpt lat="45.62061709193285" lon="12.187866945512315"><ele>12.0</ele><time>2026-03-23T08:32:54.999Z</time></trkpt><trkpt lat="45.62076265887915" lon="12.187862784363258"><ele>12.0</ele><time>2026-03-23T08:32:55.999Z</time></trkpt><trkpt lat="45.620902570553696" lon="12.187889858122649"><ele>12.0</ele><time>2026-03-23T08:32:56.999Z</time></trkpt><trkpt lat="45.62103313977246" lon="12.18788764636835"><ele>12.0</ele><time>2026-03-23T08:32:57.999Z</time></trkpt><trkpt lat="45.621150918110246" lon="12.187910316206446"><ele>12.2</ele><time>2026-03-23T08:32:58.999Z</time></trkpt><trkpt lat="45.62125790473999" lon="12.187923639804021"><ele>12.399999999999999</ele><time>2026-03-23T08:32:59.999Z</time></trkpt><trkpt lat="45.62135657359024" lon="12.187931883095372"><ele>12.600000000000001</ele><time>2026-03-23T08:33:00.999Z</time></trkpt><trkpt lat="45.62144063638222" lon="12.187938018666273"><ele>12.8</ele><time>2026-03-23T08:33:01.999Z</time></trkpt><trkpt lat="45.62153585191038" lon="12.187960546480628"><ele>13.0</ele><time>2026-03-23T08:33:02.999Z</time></trkpt><trkpt lat="45.62164365136645" lon="12.187970517303116"><ele>13.0</ele><time>2026-03-23T08:33:03.999Z</time></trkpt><trkpt lat="45.62176475893376" lon="12.18797432103333"><ele>13.0</ele><time>2026-03-23T08:33:04.999Z</time></trkpt><trkpt lat="45.621892236176365" lon="12.188004945483454"><ele>13.0</ele><time>2026-03-23T08:33:05.999Z</time></trkpt><trkpt lat="45.62201582406356" lon="12.188029866687442"><ele>13.0</ele><time>2026-03-23T08:33:06.999Z</time></trkpt><trkpt lat="45.62212751313991" lon="12.188047508169479"><ele>13.0</ele><time>2026-03-23T08:33:07.999Z</time></trkpt><trkpt lat="45.622247568531456" lon="12.18811458083675"><ele>13.0</ele><time>2026-03-23T08:33:08.999Z</time></trkpt><trkpt lat="45.622387900563034" lon="12.1882405230694"><ele>13.0</ele><time>2026-03-23T08:33:09.999Z</time></trkpt><trkpt lat="45.62253276872846" lon="12.188387464294273"><ele>13.333333333333332</ele><time>2026-03-23T08:33:10.999Z</time></trkpt><trkpt lat="45.62266619878008" lon="12.18852534645638"><ele>13.666666666666668</ele><time>2026-03-23T08:33:11.999Z</time></trkpt><trkpt lat="45.62279778250189" lon="12.188583860529338"><ele>14.0</ele><time>2026-03-23T08:33:12.999Z</time></trkpt><trkpt lat="45.62296179736645" lon="12.188626842785315"><ele>14.0</ele><time>2026-03-23T08:33:13.999Z</time></trkpt><trkpt lat="45.623151006479965" lon="12.188635838144418"><ele>14.0</ele><time>2026-03-23T08:33:14.999Z</time></trkpt><trkpt lat="45.62335523514956" lon="12.188614553978958"><ele>14.0</ele><time>2026-03-23T08:33:15.999Z</time></trkpt><trkpt lat="45.623539867432235" lon="12.188600908779705"><ele>13.5</ele><time>2026-03-23T08:33:16.999Z</time></trkpt><trkpt lat="45.6237033887541" lon="12.18860441040805"><ele>13.0</ele><time>2026-03-23T08:33:17.999Z</time></trkpt><trkpt lat="45.62383907065373" lon="12.188604960995486"><ele>12.5</ele><time>2026-03-23T08:33:18.999Z</time></trkpt><trkpt lat="45.62394781593903" lon="12.18860219412683"><ele>12.0</ele><time>2026-03-23T08:33:19.999Z</time></trkpt><trkpt lat="45.6240308027482" lon="12.188597145007655"><ele>12.0</ele><time>2026-03-23T08:33:20.999Z</time></trkpt><trkpt lat="45.62412682054711" lon="12.188604639212944"><ele>12.0</ele><time>2026-03-23T08:33:22.999Z</time></trkpt><trkpt lat="45.62419720517907" lon="12.188666402896844"><ele>12.0</ele><time>2026-03-23T08:33:25.999Z</time></trkpt><trkpt lat="45.624263813412234" lon="12.188824472426973"><ele>12.0</ele><time>2026-03-23T08:33:27.999Z</time></trkpt><trkpt lat="45.6242708107071" lon="12.188917092662223"><ele>12.0</ele><time>2026-03-23T08:33:28.999Z</time></trkpt><trkpt lat="45.6244144307128" lon="12.188920330405654"><ele>12.25</ele><time>2026-03-23T08:33:29.999Z</time></trkpt><trkpt lat="45.62453610700631" lon="12.18888743859343"><ele>12.5</ele><time>2026-03-23T08:33:30.999Z</time></trkpt><trkpt lat="45.624693896297536" lon="12.188892037010925"><ele>12.75</ele><time>2026-03-23T08:33:31.999Z</time></trkpt><trkpt lat="45.62483791743613" lon="12.188862415957859"><ele>13.0</ele><time>2026-03-23T08:33:32.999Z</time></trkpt><trkpt lat="45.624979138100215" lon="12.188846215094392"><ele>13.0</ele><time>2026-03-23T08:33:33.999Z</time></trkpt><trkpt lat="45.62514634855916" lon="12.188806733295463"><ele>13.0</ele><time>2026-03-23T08:33:34.999Z</time></trkpt><trkpt lat="45.625335800882" lon="12.188724978407429"><ele>13.0</ele><time>2026-03-23T08:33:35.999Z</time></trkpt><trkpt lat="45.6255203584181" lon="12.188666072113959"><ele>12.666666666666666</ele><time>2026-03-23T08:33:36.999Z</time></trkpt><trkpt lat="45.62571393040402" lon="12.188646431775854"><ele>12.333333333333332</ele><time>2026-03-23T08:33:37.999Z</time></trkpt><trkpt lat="45.62592582837897" lon="12.188641763511802"><ele>12.0</ele><time>2026-03-23T08:33:38.999Z</time></trkpt><trkpt lat="45.62612704031059" lon="12.188644683186912"><ele>12.0</ele><time>2026-03-23T08:33:39.999Z</time></trkpt><trkpt lat="45.626300187914374" lon="12.188651824576226"><ele>12.0</ele><time>2026-03-23T08:33:40.999Z</time></trkpt><trkpt lat="45.62644232980087" lon="12.188659225037092"><ele>12.0</ele><time>2026-03-23T08:33:41.999Z</time></trkpt><trkpt lat="45.62655360792973" lon="12.188662424670301"><ele>12.0</ele><time>2026-03-23T08:33:42.999Z</time></trkpt><trkpt lat="45.62663247047699" lon="12.188653538486271"><ele>12.0</ele><time>2026-03-23T08:33:43.999Z</time></trkpt><trkpt lat="45.62672930595673" lon="12.188626934692893"><ele>12.0</ele><time>2026-03-23T08:33:45.999Z</time></trkpt><trkpt lat="45.62683919782524" lon="12.188615507456955"><ele>12.0</ele><time>2026-03-23T08:33:47.999Z</time></trkpt><trkpt lat="45.626922812207425" lon="12.188608288972118"><ele>12.0</ele><time>2026-03-23T08:33:49.999Z</time></trkpt><trkpt lat="45.627014163142185" lon="12.188567737292619"><ele>12.0</ele><time>2026-03-23T08:34:56Z</time></trkpt><trkpt lat="45.62707919887452" lon="12.188541048576345"><ele>12.0</ele><time>2026-03-23T08:34:57Z</time></trkpt><trkpt lat="45.62716228067951" lon="12.188512629418407"><ele>12.0</ele><time>2026-03-23T08:34:58Z</time></trkpt><trkpt lat="45.62723715404697" lon="12.188483723545318"><ele>12.0</ele><time>2026-03-23T08:34:59Z</time></trkpt><trkpt lat="45.627322781732204" lon="12.188449526110137"><ele>12.0</ele><time>2026-03-23T08:35:00Z</time></trkpt><trkpt lat="45.62741942682485" lon="12.188402511641396"><ele>12.0</ele><time>2026-03-23T08:35:01Z</time></trkpt><trkpt lat="45.62752855771556" lon="12.188348884000511"><ele>12.0</ele><time>2026-03-23T08:35:02Z</time></trkpt><trkpt lat="45.627638409895404" lon="12.188300066457316"><ele>12.0</ele><time>2026-03-23T08:35:03Z</time></trkpt><trkpt lat="45.627744286587365" lon="12.18825543382195"><ele>12.0</ele><time>2026-03-23T08:35:04Z</time></trkpt><trkpt lat="45.6278478741329" lon="12.188223566783707"><ele>12.0</ele><time>2026-03-23T08:35:05Z</time></trkpt><trkpt lat="45.62795642444522" lon="12.188201300320145"><ele>12.0</ele><time>2026-03-23T08:35:06Z</time></trkpt><trkpt lat="45.62808494663223" lon="12.188192454472619"><ele>11.75</ele><time>2026-03-23T08:35:07Z</time></trkpt><trkpt lat="45.62822532691857" lon="12.188188791167706"><ele>11.5</ele><time>2026-03-23T08:35:08Z</time></trkpt><trkpt lat="45.628354951387976" lon="12.188190747151896"><ele>11.25</ele><time>2026-03-23T08:35:09Z</time></trkpt><trkpt lat="45.62849473062508" lon="12.188200346454611"><ele>11.0</ele><time>2026-03-23T08:35:10Z</time></trkpt><trkpt lat="45.62863984051831" lon="12.188213588274289"><ele>11.333333333333332</ele><time>2026-03-23T08:35:11Z</time></trkpt><trkpt lat="45.6288025193827" lon="12.188219299489592"><ele>11.666666666666666</ele><time>2026-03-23T08:35:12Z</time></trkpt><trkpt lat="45.62897138012105" lon="12.188225440679165"><ele>12.0</ele><time>2026-03-23T08:35:13Z</time></trkpt><trkpt lat="45.62913368246735" lon="12.188234787593945"><ele>12.0</ele><time>2026-03-23T08:35:14Z</time></trkpt><trkpt lat="45.62929852949956" lon="12.188246416763356"><ele>12.0</ele><time>2026-03-23T08:35:15Z</time></trkpt><trkpt lat="45.62946104754798" lon="12.188255274080161"><ele>12.0</ele><time>2026-03-23T08:35:16Z</time></trkpt><trkpt lat="45.62962085159534" lon="12.188264101968905"><ele>12.0</ele><time>2026-03-23T08:35:17Z</time></trkpt><trkpt lat="45.629789405271865" lon="12.188277861941945"><ele>12.0</ele><time>2026-03-23T08:35:18Z</time></trkpt><trkpt lat="45.6299623086416" lon="12.188288729980066"><ele>12.0</ele><time>2026-03-23T08:35:19Z</time></trkpt><trkpt lat="45.63014302539852" lon="12.18829647954277"><ele>12.0</ele><time>2026-03-23T08:35:20Z</time></trkpt><trkpt lat="45.63031319067845" lon="12.188297590448103"><ele>12.0</ele><time>2026-03-23T08:35:21Z</time></trkpt><trkpt lat="45.63049771620935" lon="12.188310421678986"><ele>12.0</ele><time>2026-03-23T08:35:22Z</time></trkpt><trkpt lat="45.63069952729825" lon="12.188320023813311"><ele>12.0</ele><time>2026-03-23T08:35:23Z</time></trkpt><trkpt lat="45.63091109395187" lon="12.18829715693031"><ele>12.0</ele><time>2026-03-23T08:35:24Z</time></trkpt><trkpt lat="45.63110824232923" lon="12.188241984489887"><ele>12.0</ele><time>2026-03-23T08:35:25Z</time></trkpt><trkpt lat="45.631293157448" lon="12.188181988930337"><ele>12.0</ele><time>2026-03-23T08:35:26Z</time></trkpt><trkpt lat="45.63147166485787" lon="12.188123602020644"><ele>12.0</ele><time>2026-03-23T08:35:27Z</time></trkpt><trkpt lat="45.63163984125045" lon="12.188067961232678"><ele>12.0</ele><time>2026-03-23T08:35:28Z</time></trkpt><trkpt lat="45.63179947129589" lon="12.188010784308387"><ele>12.0</ele><time>2026-03-23T08:35:29Z</time></trkpt><trkpt lat="45.63195224160466" lon="12.187959743250032"><ele>12.0</ele><time>2026-03-23T08:35:30Z</time></trkpt><trkpt lat="45.632101944313085" lon="12.187906814842552"><ele>12.0</ele><time>2026-03-23T08:35:30.999Z</time></trkpt><trkpt lat="45.632260845786895" lon="12.187881534530973"><ele>12.333333333333332</ele><time>2026-03-23T08:35:31.999Z</time></trkpt><trkpt lat="45.63244430168884" lon="12.187862695111468"><ele>12.666666666666666</ele><time>2026-03-23T08:35:32.999Z</time></trkpt><trkpt lat="45.632645826383204" lon="12.18784054105738"><ele>13.0</ele><time>2026-03-23T08:35:33.999Z</time></trkpt><trkpt lat="45.63282620223929" lon="12.187827548094322"><ele>13.0</ele><time>2026-03-23T08:35:34.999Z</time></trkpt><trkpt lat="45.63299090461681" lon="12.18782024030712"><ele>13.0</ele><time>2026-03-23T08:35:35.999Z</time></trkpt><trkpt lat="45.6331451706169" lon="12.187812641069012"><ele>13.0</ele><time>2026-03-23T08:35:36.999Z</time></trkpt><trkpt lat="45.63329439153446" lon="12.187806721725275"><ele>13.0</ele><time>2026-03-23T08:35:37.999Z</time></trkpt><trkpt lat="45.633446340447286" lon="12.187792925668825"><ele>13.0</ele><time>2026-03-23T08:35:38.999Z</time></trkpt><trkpt lat="45.63361137315291" lon="12.18777653594009"><ele>13.0</ele><time>2026-03-23T08:35:39.999Z</time></trkpt><trkpt lat="45.63378619507271" lon="12.187725382746175"><ele>13.5</ele><time>2026-03-23T08:35:40.999Z</time></trkpt><trkpt lat="45.63394991355751" lon="12.187687601114371"><ele>14.0</ele><time>2026-03-23T08:35:41.999Z</time></trkpt><trkpt lat="45.63409266819726" lon="12.187665973535688"><ele>14.5</ele><time>2026-03-23T08:35:42.999Z</time></trkpt><trkpt lat="45.63422364883394" lon="12.187638945880055"><ele>15.0</ele><time>2026-03-23T08:35:43.999Z</time></trkpt><trkpt lat="45.63434877141546" lon="12.187615096259274"><ele>15.0</ele><time>2026-03-23T08:35:44.999Z</time></trkpt><trkpt lat="45.6344636851073" lon="12.187591512163195"><ele>15.0</ele><time>2026-03-23T08:35:45.999Z</time></trkpt><trkpt lat="45.63457423957644" lon="12.18756967794099"><ele>15.0</ele><time>2026-03-23T08:35:46.999Z</time></trkpt><trkpt lat="45.63467954418376" lon="12.18754567955498"><ele>15.0</ele><time>2026-03-23T08:35:47.999Z</time></trkpt><trkpt lat="45.63477731195356" lon="12.187512729453754"><ele>15.0</ele><time>2026-03-23T08:35:48.999Z</time></trkpt><trkpt lat="45.634877094604796" lon="12.187476829353221"><ele>14.6</ele><time>2026-03-23T08:35:49.999Z</time></trkpt><trkpt lat="45.634973628629346" lon="12.187441923498112"><ele>14.2</ele><time>2026-03-23T08:35:50.999Z</time></trkpt><trkpt lat="45.635069078367316" lon="12.187417657840067"><ele>13.8</ele><time>2026-03-23T08:35:51.999Z</time></trkpt><trkpt lat="45.63517750726613" lon="12.187402106147466"><ele>13.4</ele><time>2026-03-23T08:35:52.999Z</time></trkpt><trkpt lat="45.635287967023736" lon="12.187388771700371"><ele>13.0</ele><time>2026-03-23T08:35:53.999Z</time></trkpt><trkpt lat="45.63539484877004" lon="12.187380214345119"><ele>13.0</ele><time>2026-03-23T08:35:54.999Z</time></trkpt><trkpt lat="45.63548685137763" lon="12.187369812426722"><ele>13.0</ele><time>2026-03-23T08:35:55.999Z</time></trkpt><trkpt lat="45.63555370419987" lon="12.187362202752263"><ele>13.0</ele><time>2026-03-23T08:35:56.999Z</time></trkpt><trkpt lat="45.63565703068211" lon="12.187351296459344"><ele>13.0</ele><time>2026-03-23T08:35:58.999Z</time></trkpt><trkpt lat="45.635784542644" lon="12.18732947684553"><ele>13.0</ele><time>2026-03-23T08:36:00.999Z</time></trkpt><trkpt lat="45.63588880969377" lon="12.187323889924219"><ele>13.25</ele><time>2026-03-23T08:36:01.999Z</time></trkpt><trkpt lat="45.63601205781078" lon="12.187321509447598"><ele>13.5</ele><time>2026-03-23T08:36:02.999Z</time></trkpt><trkpt lat="45.636131351448185" lon="12.187336991055938"><ele>13.75</ele><time>2026-03-23T08:36:03.999Z</time></trkpt><trkpt lat="45.63625736854874" lon="12.187343204039484"><ele>14.0</ele><time>2026-03-23T08:36:04.999Z</time></trkpt><trkpt lat="45.63637014463382" lon="12.187368753507414"><ele>14.0</ele><time>2026-03-23T08:36:05.999Z</time></trkpt><trkpt lat="45.6364868237435" lon="12.187393985933028"><ele>14.0</ele><time>2026-03-23T08:36:06.999Z</time></trkpt><trkpt lat="45.63661338974882" lon="12.18741625031661"><ele>14.0</ele><time>2026-03-23T08:36:07.999Z</time></trkpt><trkpt lat="45.636758593690516" lon="12.187440346924147"><ele>14.0</ele><time>2026-03-23T08:36:08.999Z</time></trkpt><trkpt lat="45.63692638758359" lon="12.187486954945351"><ele>14.0</ele><time>2026-03-23T08:36:09.999Z</time></trkpt><trkpt lat="45.637101469505666" lon="12.187558332768829"><ele>14.0</ele><time>2026-03-23T08:36:10.999Z</time></trkpt><trkpt lat="45.63726782464759" lon="12.187612220094728"><ele>14.0</ele><time>2026-03-23T08:36:11.999Z</time></trkpt><trkpt lat="45.63742835652408" lon="12.187640375818296"><ele>14.0</ele><time>2026-03-23T08:36:12.999Z</time></trkpt><trkpt lat="45.6376063801442" lon="12.187665076835582"><ele>14.0</ele><time>2026-03-23T08:36:13.999Z</time></trkpt><trkpt lat="45.637807695052445" lon="12.187676991232701"><ele>14.0</ele><time>2026-03-23T08:36:14.999Z</time></trkpt><trkpt lat="45.638020853004356" lon="12.18767623152251"><ele>13.0</ele><time>2026-03-23T08:36:15.999Z</time></trkpt><trkpt lat="45.63821887267297" lon="12.187664004610623"><ele>12.0</ele><time>2026-03-23T08:36:16.999Z</time></trkpt><trkpt lat="45.63839818492294" lon="12.187637325329629"><ele>11.0</ele><time>2026-03-23T08:36:17.999Z</time></trkpt><trkpt lat="45.63857375999002" lon="12.187605923979744"><ele>11.333333333333332</ele><time>2026-03-23T08:36:18.999Z</time></trkpt><trkpt lat="45.63875601986301" lon="12.187578344605477"><ele>11.666666666666666</ele><time>2026-03-23T08:36:19.999Z</time></trkpt><trkpt lat="45.63893839044747" lon="12.187557400503923"><ele>12.0</ele><time>2026-03-23T08:36:20.999Z</time></trkpt><trkpt lat="45.639104292263085" lon="12.18753745397185"><ele>12.0</ele><time>2026-03-23T08:36:21.999Z</time></trkpt><trkpt lat="45.639259958546596" lon="12.187517082034846"><ele>12.0</ele><time>2026-03-23T08:36:22.999Z</time></trkpt><trkpt lat="45.63940062528739" lon="12.187496779711825"><ele>12.0</ele><time>2026-03-23T08:36:23.999Z</time></trkpt><trkpt lat="45.63952582234398" lon="12.187482428037637"><ele>12.0</ele><time>2026-03-23T08:36:24.999Z</time></trkpt><trkpt lat="45.639637570539" lon="12.18746947713669"><ele>12.0</ele><time>2026-03-23T08:36:25.999Z</time></trkpt><trkpt lat="45.63973683850189" lon="12.187453701509396"><ele>12.0</ele><time>2026-03-23T08:36:26.999Z</time></trkpt><trkpt lat="45.63981777079058" lon="12.187440939332289"><ele>12.0</ele><time>2026-03-23T08:36:27.999Z</time></trkpt><trkpt lat="45.639893301557045" lon="12.187433634606084"><ele>12.0</ele><time>2026-03-23T08:36:28.999Z</time></trkpt><trkpt lat="45.63995872357028" lon="12.187428356748162"><ele>12.0</ele><time>2026-03-23T08:36:29.999Z</time></trkpt><trkpt lat="45.640034510061966" lon="12.187422188798275"><ele>12.0</ele><time>2026-03-23T08:36:31.999Z</time></trkpt><trkpt lat="45.64010225096378" lon="12.187451194273962"><ele>12.0</ele><time>2026-03-23T08:36:48.999Z</time></trkpt><trkpt lat="45.64017615569014" lon="12.187444097342189"><ele>12.0</ele><time>2026-03-23T08:36:57Z</time></trkpt><trkpt lat="45.64018947203848" lon="12.187656468973854"><ele>12.0</ele><time>2026-03-23T08:36:58Z</time></trkpt><trkpt lat="45.64017801973495" lon="12.187812823822876"><ele>12.0</ele><time>2026-03-23T08:36:59Z</time></trkpt><trkpt lat="45.64017615683851" lon="12.187939396750822"><ele>12.0</ele><time>2026-03-23T08:37:00Z</time></trkpt><trkpt lat="45.64017989050458" lon="12.188081832509525"><ele>12.25</ele><time>2026-03-23T08:37:01Z</time></trkpt><trkpt lat="45.64019014097892" lon="12.188262454264981"><ele>12.5</ele><time>2026-03-23T08:37:02Z</time></trkpt><trkpt lat="45.640200190371" lon="12.188467941475093"><ele>12.75</ele><time>2026-03-23T08:37:03Z</time></trkpt><trkpt lat="45.64021355968246" lon="12.188655226313221"><ele>13.0</ele><time>2026-03-23T08:37:04Z</time></trkpt><trkpt lat="45.64024283732923" lon="12.188864964520414"><ele>13.666666666666666</ele><time>2026-03-23T08:37:05Z</time></trkpt><trkpt lat="45.64028125460747" lon="12.189089436242256"><ele>14.333333333333332</ele><time>2026-03-23T08:37:06Z</time></trkpt><trkpt lat="45.64032870739317" lon="12.189289625837109"><ele>15.0</ele><time>2026-03-23T08:37:07Z</time></trkpt><trkpt lat="45.640389107350416" lon="12.18948126291777"><ele>15.25</ele><time>2026-03-23T08:37:08Z</time></trkpt><trkpt lat="45.64045202136085" lon="12.189677907561922"><ele>15.5</ele><time>2026-03-23T08:37:09Z</time></trkpt><trkpt lat="45.64052119541414" lon="12.189873248556122"><ele>15.75</ele><time>2026-03-23T08:37:10Z</time></trkpt><trkpt lat="45.64060003836672" lon="12.1900420704544"><ele>16.0</ele><time>2026-03-23T08:37:11Z</time></trkpt><trkpt lat="45.64066945487591" lon="12.190210220607405"><ele>15.600000000000001</ele><time>2026-03-23T08:37:12Z</time></trkpt><trkpt lat="45.64073619063632" lon="12.190375091511346"><ele>15.200000000000001</ele><time>2026-03-23T08:37:13Z</time></trkpt><trkpt lat="45.640804564175326" lon="12.19052295413365"><ele>14.799999999999999</ele><time>2026-03-23T08:37:14Z</time></trkpt><trkpt lat="45.64087035653366" lon="12.190646535105635"><ele>14.399999999999999</ele><time>2026-03-23T08:37:15Z</time></trkpt><trkpt lat="45.640921065463246" lon="12.190732447305592"><ele>14.0</ele><time>2026-03-23T08:37:16Z</time></trkpt><trkpt lat="45.6409639726034" lon="12.190803171718068"><ele>13.799999999999999</ele><time>2026-03-23T08:37:17Z</time></trkpt><trkpt lat="45.6410129106122" lon="12.190879817854118"><ele>13.599999999999998</ele><time>2026-03-23T08:37:18Z</time></trkpt><trkpt lat="45.64107228651" lon="12.190965686410458"><ele>13.4</ele><time>2026-03-23T08:37:19Z</time></trkpt><trkpt lat="45.6411452912292" lon="12.19106552504424"><ele>13.2</ele><time>2026-03-23T08:37:20Z</time></trkpt><trkpt lat="45.641227537038645" lon="12.191171757240744"><ele>13.0</ele><time>2026-03-23T08:37:21Z</time></trkpt><trkpt lat="45.64132083981425" lon="12.19128595739858"><ele>13.0</ele><time>2026-03-23T08:37:22Z</time></trkpt><trkpt lat="45.64141382023446" lon="12.191401472527186"><ele>13.0</ele><time>2026-03-23T08:37:23Z</time></trkpt><trkpt lat="45.64149826849296" lon="12.191511145206173"><ele>13.0</ele><time>2026-03-23T08:37:24Z</time></trkpt><trkpt lat="45.641575935904456" lon="12.191618196739565"><ele>13.0</ele><time>2026-03-23T08:37:25Z</time></trkpt><trkpt lat="45.64164059934208" lon="12.191741136588579"><ele>13.0</ele><time>2026-03-23T08:37:26Z</time></trkpt><trkpt lat="45.64169776274831" lon="12.19186229682125"><ele>13.0</ele><time>2026-03-23T08:37:27Z</time></trkpt><trkpt lat="45.64174558519458" lon="12.19197975041188"><ele>13.0</ele><time>2026-03-23T08:37:28Z</time></trkpt><trkpt lat="45.641785556495414" lon="12.192092939701453"><ele>13.0</ele><time>2026-03-23T08:37:29Z</time></trkpt><trkpt lat="45.641804846598426" lon="12.192222339653105"><ele>13.0</ele><time>2026-03-23T08:37:30Z</time></trkpt><trkpt lat="45.64181250299686" lon="12.192358036285519"><ele>13.0</ele><time>2026-03-23T08:37:31Z</time></trkpt><trkpt lat="45.641821844290476" lon="12.192504717378418"><ele>13.0</ele><time>2026-03-23T08:37:32Z</time></trkpt><trkpt lat="45.6418260247479" lon="12.192660239886772"><ele>13.0</ele><time>2026-03-23T08:37:33Z</time></trkpt><trkpt lat="45.64183655489295" lon="12.192821912182092"><ele>13.0</ele><time>2026-03-23T08:37:34Z</time></trkpt><trkpt lat="45.64185594739974" lon="12.192987752917196"><ele>13.0</ele><time>2026-03-23T08:37:35Z</time></trkpt><trkpt lat="45.64186506080732" lon="12.193157625961273"><ele>13.0</ele><time>2026-03-23T08:37:36Z</time></trkpt><trkpt lat="45.64187252868247" lon="12.193319884637923"><ele>13.0</ele><time>2026-03-23T08:37:37Z</time></trkpt><trkpt lat="45.64188237108486" lon="12.193463153197053"><ele>13.0</ele><time>2026-03-23T08:37:38Z</time></trkpt><trkpt lat="45.64188888538923" lon="12.193596406522946"><ele>13.0</ele><time>2026-03-23T08:37:39Z</time></trkpt><trkpt lat="45.64189485786005" lon="12.193719439711076"><ele>13.0</ele><time>2026-03-23T08:37:40Z</time></trkpt><trkpt lat="45.64190424527492" lon="12.193832336442158"><ele>13.0</ele><time>2026-03-23T08:37:41Z</time></trkpt><trkpt lat="45.64191443578233" lon="12.19393727447361"><ele>13.0</ele><time>2026-03-23T08:37:42Z</time></trkpt><trkpt lat="45.64191845522706" lon="12.194030697511597"><ele>13.0</ele><time>2026-03-23T08:37:43Z</time></trkpt><trkpt lat="45.641918546597545" lon="12.194201347209312"><ele>13.0</ele><time>2026-03-23T08:37:45Z</time></trkpt><trkpt lat="45.64193382796352" lon="12.194359937833921"><ele>13.0</ele><time>2026-03-23T08:37:47Z</time></trkpt><trkpt lat="45.641948466291765" lon="12.194517689716754"><ele>13.0</ele><time>2026-03-23T08:37:49Z</time></trkpt><trkpt lat="45.641955181357474" lon="12.194650416374792"><ele>13.0</ele><time>2026-03-23T08:37:51Z</time></trkpt><trkpt lat="45.641971609469614" lon="12.194840370653447"><ele>13.0</ele><time>2026-03-23T08:37:52.999Z</time></trkpt><trkpt lat="45.6419728765336" lon="12.194985969562847"><ele>13.0</ele><time>2026-03-23T08:37:53.999Z</time></trkpt><trkpt lat="45.64197799960279" lon="12.195136552738534"><ele>13.0</ele><time>2026-03-23T08:37:54.999Z</time></trkpt><trkpt lat="45.64198868992148" lon="12.195289138978614"><ele>12.8</ele><time>2026-03-23T08:37:55.999Z</time></trkpt><trkpt lat="45.64200337000356" lon="12.19543248414151"><ele>12.600000000000001</ele><time>2026-03-23T08:37:56.999Z</time></trkpt><trkpt lat="45.64200784014744" lon="12.195573607966582"><ele>12.399999999999999</ele><time>2026-03-23T08:37:57.999Z</time></trkpt><trkpt lat="45.642015456373414" lon="12.195714973813487"><ele>12.2</ele><time>2026-03-23T08:37:58.999Z</time></trkpt><trkpt lat="45.64202926276408" lon="12.195866535956682"><ele>12.0</ele><time>2026-03-23T08:37:59.999Z</time></trkpt><trkpt lat="45.64203941489614" lon="12.196030110774979"><ele>12.0</ele><time>2026-03-23T08:38:00.999Z</time></trkpt><trkpt lat="45.642046877283406" lon="12.196204162474961"><ele>12.0</ele><time>2026-03-23T08:38:01.999Z</time></trkpt><trkpt lat="45.64205760806504" lon="12.19638325567929"><ele>12.0</ele><time>2026-03-23T08:38:02.999Z</time></trkpt><trkpt lat="45.642066595419784" lon="12.196561178803904"><ele>12.0</ele><time>2026-03-23T08:38:03.999Z</time></trkpt><trkpt lat="45.6420793666177" lon="12.196735856303933"><ele>12.5</ele><time>2026-03-23T08:38:04.999Z</time></trkpt><trkpt lat="45.64208880245237" lon="12.19690330434771"><ele>13.0</ele><time>2026-03-23T08:38:05.999Z</time></trkpt><trkpt lat="45.642094872073706" lon="12.197069088148584"><ele>13.5</ele><time>2026-03-23T08:38:06.999Z</time></trkpt><trkpt lat="45.64210979413171" lon="12.197247940777098"><ele>14.0</ele><time>2026-03-23T08:38:07.999Z</time></trkpt><trkpt lat="45.642125361136365" lon="12.197429182690405"><ele>14.25</ele><time>2026-03-23T08:38:08.999Z</time></trkpt><trkpt lat="45.642129428225005" lon="12.197592163398403"><ele>14.5</ele><time>2026-03-23T08:38:09.999Z</time></trkpt><trkpt lat="45.64213691270225" lon="12.197753846545547"><ele>14.75</ele><time>2026-03-23T08:38:10.999Z</time></trkpt><trkpt lat="45.642148705803386" lon="12.1979228649091"><ele>15.0</ele><time>2026-03-23T08:38:11.999Z</time></trkpt><trkpt lat="45.64215739950203" lon="12.198102374472235"><ele>14.75</ele><time>2026-03-23T08:38:12.999Z</time></trkpt><trkpt lat="45.64216328653775" lon="12.198294029648322"><ele>14.5</ele><time>2026-03-23T08:38:13.999Z</time></trkpt><trkpt lat="45.642186275720995" lon="12.198497615534638"><ele>14.25</ele><time>2026-03-23T08:38:14.999Z</time></trkpt><trkpt lat="45.642206554554036" lon="12.198685702978825"><ele>14.0</ele><time>2026-03-23T08:38:15.999Z</time></trkpt><trkpt lat="45.642237537449844" lon="12.198855807910263"><ele>14.333333333333334</ele><time>2026-03-23T08:38:16.999Z</time></trkpt><trkpt lat="45.64229613079113" lon="12.199047721620785"><ele>14.666666666666668</ele><time>2026-03-23T08:38:17.999Z</time></trkpt><trkpt lat="45.64235309927002" lon="12.1992487863526"><ele>15.0</ele><time>2026-03-23T08:38:18.999Z</time></trkpt><trkpt lat="45.64242837561035" lon="12.199441638137216"><ele>15.0</ele><time>2026-03-23T08:38:19.999Z</time></trkpt><trkpt lat="45.64251597741183" lon="12.199661986672114"><ele>15.0</ele><time>2026-03-23T08:38:20.999Z</time></trkpt><trkpt lat="45.642631546735295" lon="12.199884046423367"><ele>15.0</ele><time>2026-03-23T08:38:21.999Z</time></trkpt><trkpt lat="45.642719881764485" lon="12.200116526535984"><ele>15.333333333333332</ele><time>2026-03-23T08:38:22.999Z</time></trkpt><trkpt lat="45.642817195121985" lon="12.200311479622977"><ele>15.666666666666666</ele><time>2026-03-23T08:38:23.999Z</time></trkpt><trkpt lat="45.64291395573978" lon="12.200515103413624"><ele>16.0</ele><time>2026-03-23T08:38:24.999Z</time></trkpt><trkpt lat="45.6429987727671" lon="12.20071812862626"><ele>16.25</ele><time>2026-03-23T08:38:25.999Z</time></trkpt><trkpt lat="45.6430833352132" lon="12.200893178998221"><ele>16.5</ele><time>2026-03-23T08:38:26.999Z</time></trkpt><trkpt lat="45.64315878584883" lon="12.201046445705892"><ele>16.75</ele><time>2026-03-23T08:38:27.999Z</time></trkpt><trkpt lat="45.643226098064716" lon="12.201192366443422"><ele>17.0</ele><time>2026-03-23T08:38:28.999Z</time></trkpt><trkpt lat="45.64329073148189" lon="12.201330883809803"><ele>17.0</ele><time>2026-03-23T08:38:29.999Z</time></trkpt><trkpt lat="45.64336011128863" lon="12.20147649386787"><ele>17.0</ele><time>2026-03-23T08:38:30.999Z</time></trkpt><trkpt lat="45.64343023440144" lon="12.201630307757535"><ele>17.0</ele><time>2026-03-23T08:38:31.999Z</time></trkpt><trkpt lat="45.64353692897678" lon="12.201846525575327"><ele>17.0</ele><time>2026-03-23T08:38:32.999Z</time></trkpt><trkpt lat="45.643637509408435" lon="12.20207146750691"><ele>16.333333333333336</ele><time>2026-03-23T08:38:33.999Z</time></trkpt><trkpt lat="45.64374605947084" lon="12.202295452424845"><ele>15.666666666666668</ele><time>2026-03-23T08:38:34.999Z</time></trkpt><trkpt lat="45.64385879296442" lon="12.20254332974575"><ele>15.0</ele><time>2026-03-23T08:38:35.999Z</time></trkpt><trkpt lat="45.64399061763872" lon="12.202811012299373"><ele>15.0</ele><time>2026-03-23T08:38:36.999Z</time></trkpt><trkpt lat="45.64409830647691" lon="12.203097889925045"><ele>15.0</ele><time>2026-03-23T08:38:37.999Z</time></trkpt><trkpt lat="45.64420735224107" lon="12.203333828944917"><ele>15.0</ele><time>2026-03-23T08:38:38.999Z</time></trkpt><trkpt lat="45.64432272158848" lon="12.203566351918294"><ele>15.0</ele><time>2026-03-23T08:38:39.999Z</time></trkpt><trkpt lat="45.644445035091906" lon="12.203817427501495"><ele>15.0</ele><time>2026-03-23T08:38:40.999Z</time></trkpt><trkpt lat="45.644567305103806" lon="12.204081465097076"><ele>15.0</ele><time>2026-03-23T08:38:41.999Z</time></trkpt><trkpt lat="45.644689416094295" lon="12.204363348688782"><ele>14.0</ele><time>2026-03-23T08:38:42.999Z</time></trkpt><trkpt lat="45.64481543445069" lon="12.204649308755311"><ele>13.0</ele><time>2026-03-23T08:38:43.999Z</time></trkpt><trkpt lat="45.644948651457" lon="12.204926406538375"><ele>13.0</ele><time>2026-03-23T08:38:44.999Z</time></trkpt><trkpt lat="45.6450926652333" lon="12.205200289189344"><ele>13.0</ele><time>2026-03-23T08:38:45.999Z</time></trkpt><trkpt lat="45.645227451726974" lon="12.205493130700418"><ele>13.5</ele><time>2026-03-23T08:38:46.999Z</time></trkpt><trkpt lat="45.645352111378685" lon="12.205795533390551"><ele>14.0</ele><time>2026-03-23T08:38:47.999Z</time></trkpt><trkpt lat="45.64547476073324" lon="12.206047204326737"><ele>14.0</ele><time>2026-03-23T08:38:48.999Z</time></trkpt><trkpt lat="45.64558921438472" lon="12.206282637733082"><ele>14.0</ele><time>2026-03-23T08:38:49.999Z</time></trkpt><trkpt lat="45.645702225797415" lon="12.206499882198894"><ele>14.0</ele><time>2026-03-23T08:38:50.999Z</time></trkpt><trkpt lat="45.64583950287241" lon="12.206686362719383"><ele>14.0</ele><time>2026-03-23T08:38:51.999Z</time></trkpt><trkpt lat="45.64601968487976" lon="12.206863693821575"><ele>14.0</ele><time>2026-03-23T08:38:52.999Z</time></trkpt><trkpt lat="45.64622244580629" lon="12.207023660917134"><ele>13.5</ele><time>2026-03-23T08:38:53.999Z</time></trkpt><trkpt lat="45.64644902199063" lon="12.207164306629686"><ele>13.0</ele><time>2026-03-23T08:38:54.999Z</time></trkpt><trkpt lat="45.64668079415533" lon="12.207305066900794"><ele>13.0</ele><time>2026-03-23T08:38:55.999Z</time></trkpt><trkpt lat="45.6468762702863" lon="12.207455072391232"><ele>13.0</ele><time>2026-03-23T08:38:57Z</time></trkpt><trkpt lat="45.647063152694386" lon="12.207577787857678"><ele>13.0</ele><time>2026-03-23T08:38:58Z</time></trkpt><trkpt lat="45.64724169053464" lon="12.20768562694367"><ele>13.0</ele><time>2026-03-23T08:38:59Z</time></trkpt><trkpt lat="45.64739864631747" lon="12.207827203276608"><ele>13.0</ele><time>2026-03-23T08:39:00Z</time></trkpt><trkpt lat="45.64756223458493" lon="12.208009101698421"><ele>13.0</ele><time>2026-03-23T08:39:01Z</time></trkpt><trkpt lat="45.64771825715229" lon="12.208206159929569"><ele>13.0</ele><time>2026-03-23T08:39:02Z</time></trkpt><trkpt lat="45.647853688863194" lon="12.20840334587255"><ele>13.0</ele><time>2026-03-23T08:39:03Z</time></trkpt><trkpt lat="45.64796758945324" lon="12.208635573189941"><ele>13.0</ele><time>2026-03-23T08:39:04Z</time></trkpt><trkpt lat="45.64807177260539" lon="12.208889331464626"><ele>13.333333333333332</ele><time>2026-03-23T08:39:05Z</time></trkpt><trkpt lat="45.64818496935473" lon="12.20915479416933"><ele>13.666666666666668</ele><time>2026-03-23T08:39:06Z</time></trkpt><trkpt lat="45.64829352745886" lon="12.209421088508709"><ele>14.0</ele><time>2026-03-23T08:39:07Z</time></trkpt><trkpt lat="45.648395946815945" lon="12.209674163748964"><ele>14.0</ele><time>2026-03-23T08:39:08Z</time></trkpt><trkpt lat="45.64848797359639" lon="12.209904760592641"><ele>14.0</ele><time>2026-03-23T08:39:09Z</time></trkpt><trkpt lat="45.648574613896706" lon="12.210113529972363"><ele>14.0</ele><time>2026-03-23T08:39:10Z</time></trkpt><trkpt lat="45.64866283731978" lon="12.210315782814867"><ele>13.0</ele><time>2026-03-23T08:39:11Z</time></trkpt><trkpt lat="45.64875760228013" lon="12.210530726243848"><ele>12.0</ele><time>2026-03-23T08:39:12Z</time></trkpt><trkpt lat="45.648853453314516" lon="12.210761411486992"><ele>11.0</ele><time>2026-03-23T08:39:13Z</time></trkpt><trkpt lat="45.64895154274306" lon="12.210995152988703"><ele>10.666666666666666</ele><time>2026-03-23T08:39:14Z</time></trkpt><trkpt lat="45.64905522031302" lon="12.211234737364373"><ele>10.333333333333334</ele><time>2026-03-23T08:39:15Z</time></trkpt><trkpt lat="45.64916001445745" lon="12.211485099428328"><ele>10.0</ele><time>2026-03-23T08:39:16Z</time></trkpt><trkpt lat="45.64926147015234" lon="12.21175315459703"><ele>10.666666666666668</ele><time>2026-03-23T08:39:17Z</time></trkpt><trkpt lat="45.649384293991794" lon="12.212012803425482"><ele>11.333333333333334</ele><time>2026-03-23T08:39:18Z</time></trkpt><trkpt lat="45.64951310230715" lon="12.212259656222853"><ele>12.0</ele><time>2026-03-23T08:39:19Z</time></trkpt><trkpt lat="45.64965506251244" lon="12.212468491442552"><ele>12.0</ele><time>2026-03-23T08:39:20Z</time></trkpt><trkpt lat="45.64979390026969" lon="12.212697514715263"><ele>12.0</ele><time>2026-03-23T08:39:21Z</time></trkpt><trkpt lat="45.65000007247682" lon="12.212850332780398"><ele>12.0</ele><time>2026-03-23T08:39:22Z</time></trkpt><trkpt lat="45.65014867062224" lon="12.21304272641449"><ele>12.0</ele><time>2026-03-23T08:39:23Z</time></trkpt><trkpt lat="45.65028311673277" lon="12.213212832888736"><ele>12.0</ele><time>2026-03-23T08:39:24Z</time></trkpt><trkpt lat="45.65040554115547" lon="12.213362243783925"><ele>12.0</ele><time>2026-03-23T08:39:25Z</time></trkpt><trkpt lat="45.650509673457115" lon="12.213515982187275"><ele>12.0</ele><time>2026-03-23T08:39:26Z</time></trkpt><trkpt lat="45.65061640518113" lon="12.213652687969386"><ele>12.0</ele><time>2026-03-23T08:39:27Z</time></trkpt><trkpt lat="45.650730492934585" lon="12.213769702773755"><ele>12.0</ele><time>2026-03-23T08:39:28Z</time></trkpt><trkpt lat="45.650854968225275" lon="12.21391082826386"><ele>12.0</ele><time>2026-03-23T08:39:29Z</time></trkpt><trkpt lat="45.65099127372975" lon="12.214094059615029"><ele>12.333333333333332</ele><time>2026-03-23T08:39:30Z</time></trkpt><trkpt lat="45.65114745875163" lon="12.214293944872615"><ele>12.666666666666666</ele><time>2026-03-23T08:39:31Z</time></trkpt><trkpt lat="45.65130600406473" lon="12.214471717797066"><ele>13.0</ele><time>2026-03-23T08:39:32Z</time></trkpt><trkpt lat="45.65144966296225" lon="12.214642702730949"><ele>13.0</ele><time>2026-03-23T08:39:33Z</time></trkpt><trkpt lat="45.651584254573955" lon="12.214823686230645"><ele>13.0</ele><time>2026-03-23T08:39:34Z</time></trkpt><trkpt lat="45.65171741819665" lon="12.215006907823854"><ele>13.0</ele><time>2026-03-23T08:39:35Z</time></trkpt><trkpt lat="45.65185520361063" lon="12.215173663885674"><ele>12.666666666666666</ele><time>2026-03-23T08:39:36Z</time></trkpt><trkpt lat="45.6519915151149" lon="12.21533150543236"><ele>12.333333333333332</ele><time>2026-03-23T08:39:37Z</time></trkpt><trkpt lat="45.65211820885015" lon="12.21548287893412"><ele>12.0</ele><time>2026-03-23T08:39:38Z</time></trkpt><trkpt lat="45.65224109018871" lon="12.215626482289178"><ele>12.333333333333332</ele><time>2026-03-23T08:39:39Z</time></trkpt><trkpt lat="45.65236871828261" lon="12.215763883217615"><ele>12.666666666666666</ele><time>2026-03-23T08:39:40Z</time></trkpt><trkpt lat="45.652518276758904" lon="12.215892601976275"><ele>13.0</ele><time>2026-03-23T08:39:41Z</time></trkpt><trkpt lat="45.652694738856994" lon="12.216005611787443"><ele>13.333333333333332</ele><time>2026-03-23T08:39:42Z</time></trkpt><trkpt lat="45.65288074841284" lon="12.216124494455377"><ele>13.666666666666668</ele><time>2026-03-23T08:39:43Z</time></trkpt><trkpt lat="45.65307426915732" lon="12.21623799018959"><ele>14.0</ele><time>2026-03-23T08:39:44Z</time></trkpt><trkpt lat="45.65324984642411" lon="12.216347810699249"><ele>14.0</ele><time>2026-03-23T08:39:45Z</time></trkpt><trkpt lat="45.65339391029517" lon="12.216501635611728"><ele>14.0</ele><time>2026-03-23T08:39:46Z</time></trkpt><trkpt lat="45.65350107046008" lon="12.216660938539452"><ele>14.0</ele><time>2026-03-23T08:39:47Z</time></trkpt><trkpt lat="45.65360897872335" lon="12.216863357943257"><ele>14.333333333333334</ele><time>2026-03-23T08:39:48Z</time></trkpt><trkpt lat="45.65374316269315" lon="12.217111161226411"><ele>14.666666666666668</ele><time>2026-03-23T08:39:49Z</time></trkpt><trkpt lat="45.65384334732238" lon="12.217367536824634"><ele>15.0</ele><time>2026-03-23T08:39:50Z</time></trkpt><trkpt lat="45.65393482368597" lon="12.217593111721564"><ele>15.0</ele><time>2026-03-23T08:39:51Z</time></trkpt><trkpt lat="45.654034177500144" lon="12.21779533272213"><ele>15.0</ele><time>2026-03-23T08:39:52Z</time></trkpt><trkpt lat="45.65412959317669" lon="12.218005395652051"><ele>15.0</ele><time>2026-03-23T08:39:53Z</time></trkpt><trkpt lat="45.654230874190326" lon="12.218221856090041"><ele>14.333333333333332</ele><time>2026-03-23T08:39:54Z</time></trkpt><trkpt lat="45.6543493528533" lon="12.218398705385175"><ele>13.666666666666666</ele><time>2026-03-23T08:39:55Z</time></trkpt><trkpt lat="45.65446581075493" lon="12.21856518809557"><ele>13.0</ele><time>2026-03-23T08:39:56Z</time></trkpt><trkpt lat="45.65457289045002" lon="12.218735330780977"><ele>13.0</ele><time>2026-03-23T08:39:57Z</time></trkpt><trkpt lat="45.65468237324736" lon="12.218899591880989"><ele>13.0</ele><time>2026-03-23T08:39:58Z</time></trkpt><trkpt lat="45.65478243174438" lon="12.21904766561298"><ele>13.0</ele><time>2026-03-23T08:39:59Z</time></trkpt><trkpt lat="45.65487705203646" lon="12.21919351435479"><ele>13.0</ele><time>2026-03-23T08:40:00Z</time></trkpt><trkpt lat="45.65498183512595" lon="12.219348796603025"><ele>13.0</ele><time>2026-03-23T08:40:01Z</time></trkpt><trkpt lat="45.655094020392944" lon="12.219507798805772"><ele>13.0</ele><time>2026-03-23T08:40:02Z</time></trkpt><trkpt lat="45.65520330314699" lon="12.219668202976427"><ele>13.0</ele><time>2026-03-23T08:40:03Z</time></trkpt><trkpt lat="45.65530259803432" lon="12.21982369086014"><ele>13.25</ele><time>2026-03-23T08:40:04Z</time></trkpt><trkpt lat="45.655397532200254" lon="12.219981038192639"><ele>13.5</ele><time>2026-03-23T08:40:05Z</time></trkpt><trkpt lat="45.655501440245736" lon="12.220134872697372"><ele>13.75</ele><time>2026-03-23T08:40:06Z</time></trkpt><trkpt lat="45.65559682709509" lon="12.220272520057817"><ele>14.0</ele><time>2026-03-23T08:40:07Z</time></trkpt><trkpt lat="45.65567268251641" lon="12.220382320741813"><ele>14.0</ele><time>2026-03-23T08:40:08Z</time></trkpt><trkpt lat="45.655746595712" lon="12.220492361926784"><ele>14.0</ele><time>2026-03-23T08:40:08.999Z</time></trkpt><trkpt lat="45.65583045146285" lon="12.220615146207178"><ele>14.0</ele><time>2026-03-23T08:40:09.999Z</time></trkpt><trkpt lat="45.655924127703734" lon="12.220754564982151"><ele>14.0</ele><time>2026-03-23T08:40:10.999Z</time></trkpt><trkpt lat="45.65601843740287" lon="12.220914191913048"><ele>14.0</ele><time>2026-03-23T08:40:11.999Z</time></trkpt><trkpt lat="45.65611259557492" lon="12.221065519412583"><ele>14.0</ele><time>2026-03-23T08:40:12.999Z</time></trkpt><trkpt lat="45.65620812391468" lon="12.2212068674192"><ele>14.0</ele><time>2026-03-23T08:40:13.999Z</time></trkpt><trkpt lat="45.65628343660415" lon="12.22137915424322"><ele>14.0</ele><time>2026-03-23T08:40:14.999Z</time></trkpt><trkpt lat="45.65634326630179" lon="12.22158824776623"><ele>14.666666666666668</ele><time>2026-03-23T08:40:15.999Z</time></trkpt><trkpt lat="45.65638620427439" lon="12.22182706153368"><ele>15.333333333333332</ele><time>2026-03-23T08:40:16.999Z</time></trkpt><trkpt lat="45.65642300850268" lon="12.222065913309333"><ele>16.0</ele><time>2026-03-23T08:40:17.999Z</time></trkpt><trkpt lat="45.65646509019372" lon="12.222282760522033"><ele>16.0</ele><time>2026-03-23T08:40:18.999Z</time></trkpt><trkpt lat="45.65650692509041" lon="12.222477179235357"><ele>16.0</ele><time>2026-03-23T08:40:19.999Z</time></trkpt><trkpt lat="45.656546161335406" lon="12.222672368927835"><ele>16.0</ele><time>2026-03-23T08:40:20.999Z</time></trkpt><trkpt lat="45.656576210350956" lon="12.222855793595004"><ele>16.0</ele><time>2026-03-23T08:40:21.999Z</time></trkpt><trkpt lat="45.656603210246466" lon="12.223032267638814"><ele>15.75</ele><time>2026-03-23T08:40:22.999Z</time></trkpt><trkpt lat="45.65663641425745" lon="12.223211580857997"><ele>15.5</ele><time>2026-03-23T08:40:23.999Z</time></trkpt><trkpt lat="45.6566744548457" lon="12.22339326811878"><ele>15.25</ele><time>2026-03-23T08:40:24.999Z</time></trkpt><trkpt lat="45.65670368647956" lon="12.223565375311807"><ele>15.0</ele><time>2026-03-23T08:40:25.999Z</time></trkpt><trkpt lat="45.65672900362164" lon="12.223735870011623"><ele>15.0</ele><time>2026-03-23T08:40:26.999Z</time></trkpt><trkpt lat="45.656761386183774" lon="12.223916464738604"><ele>15.0</ele><time>2026-03-23T08:40:27.999Z</time></trkpt><trkpt lat="45.656794867046074" lon="12.224100125631274"><ele>15.0</ele><time>2026-03-23T08:40:28.999Z</time></trkpt><trkpt lat="45.65682384045277" lon="12.224263824698653"><ele>15.0</ele><time>2026-03-23T08:40:29.999Z</time></trkpt><trkpt lat="45.65685202299353" lon="12.224423830235498"><ele>14.75</ele><time>2026-03-23T08:40:30.999Z</time></trkpt><trkpt lat="45.65688120366517" lon="12.224592580998701"><ele>14.5</ele><time>2026-03-23T08:40:31.999Z</time></trkpt><trkpt lat="45.65691564200393" lon="12.224760050698587"><ele>14.25</ele><time>2026-03-23T08:40:32.999Z</time></trkpt><trkpt lat="45.65695315309905" lon="12.224937886828258"><ele>14.0</ele><time>2026-03-23T08:40:33.999Z</time></trkpt><trkpt lat="45.65698139791671" lon="12.225120875645796"><ele>13.799999999999999</ele><time>2026-03-23T08:40:34.999Z</time></trkpt><trkpt lat="45.657008457591466" lon="12.225286909371276"><ele>13.599999999999998</ele><time>2026-03-23T08:40:35.999Z</time></trkpt><trkpt lat="45.65703974209503" lon="12.225439953920963"><ele>13.4</ele><time>2026-03-23T08:40:36.999Z</time></trkpt><trkpt lat="45.65705756639299" lon="12.225569138868986"><ele>13.2</ele><time>2026-03-23T08:40:37.999Z</time></trkpt><trkpt lat="45.657071130928514" lon="12.225673404582006"><ele>13.0</ele><time>2026-03-23T08:40:38.999Z</time></trkpt><trkpt lat="45.65710215436821" lon="12.225786189183017"><ele>13.0</ele><time>2026-03-23T08:40:40.999Z</time></trkpt><trkpt lat="45.657201052134354" lon="12.225739414406743"><ele>13.0</ele><time>2026-03-23T08:40:41.999Z</time></trkpt><trkpt lat="45.65728178554998" lon="12.225771729070713"><ele>13.0</ele><time>2026-03-23T08:40:42.999Z</time></trkpt><trkpt lat="45.65742189643244" lon="12.225772163843473"><ele>13.0</ele><time>2026-03-23T08:40:43.999Z</time></trkpt><trkpt lat="45.65757579616076" lon="12.225850426852674"><ele>13.0</ele><time>2026-03-23T08:40:44.999Z</time></trkpt><trkpt lat="45.657763598059546" lon="12.225951272167018"><ele>13.0</ele><time>2026-03-23T08:40:45.999Z</time></trkpt><trkpt lat="45.65793867031285" lon="12.226015743613457"><ele>13.0</ele><time>2026-03-23T08:40:46.999Z</time></trkpt><trkpt lat="45.65810320295704" lon="12.226083393014076"><ele>13.333333333333332</ele><time>2026-03-23T08:40:47.999Z</time></trkpt><trkpt lat="45.65828434540773" lon="12.226164717974113"><ele>13.666666666666668</ele><time>2026-03-23T08:40:48.999Z</time></trkpt><trkpt lat="45.65848456426835" lon="12.226243362956811"><ele>14.0</ele><time>2026-03-23T08:40:49.999Z</time></trkpt><trkpt lat="45.65868750078145" lon="12.226326618745944"><ele>14.0</ele><time>2026-03-23T08:40:50.999Z</time></trkpt><trkpt lat="45.65886687042775" lon="12.226407181205593"><ele>14.0</ele><time>2026-03-23T08:40:51.999Z</time></trkpt><trkpt lat="45.65900878362872" lon="12.226465486489445"><ele>14.0</ele><time>2026-03-23T08:40:52.999Z</time></trkpt><trkpt lat="45.659102791041036" lon="12.226503480866288"><ele>14.0</ele><time>2026-03-23T08:40:53.999Z</time></trkpt><trkpt lat="45.6591973216766" lon="12.226535067229982"><ele>13.5</ele><time>2026-03-23T08:40:54.999Z</time></trkpt><trkpt lat="45.65929554876381" lon="12.2265788691203"><ele>13.0</ele><time>2026-03-23T08:40:55.999Z</time></trkpt><trkpt lat="45.6594017073053" lon="12.22663266787661"><ele>12.5</ele><time>2026-03-23T08:40:56.999Z</time></trkpt><trkpt lat="45.659544492161196" lon="12.226690029732273"><ele>12.0</ele><time>2026-03-23T08:40:57.999Z</time></trkpt><trkpt lat="45.659707082316245" lon="12.226758627542925"><ele>12.0</ele><time>2026-03-23T08:40:58.999Z</time></trkpt><trkpt lat="45.65986692401055" lon="12.226825078515125"><ele>12.0</ele><time>2026-03-23T08:40:59.999Z</time></trkpt><trkpt lat="45.66001522660934" lon="12.226886100839996"><ele>12.0</ele><time>2026-03-23T08:41:00.999Z</time></trkpt><trkpt lat="45.66017647965808" lon="12.22695332745182"><ele>12.333333333333332</ele><time>2026-03-23T08:41:01.999Z</time></trkpt><trkpt lat="45.6603543899977" lon="12.227023745482056"><ele>12.666666666666666</ele><time>2026-03-23T08:41:03Z</time></trkpt><trkpt lat="45.660531612419014" lon="12.227103475957927"><ele>13.0</ele><time>2026-03-23T08:41:04Z</time></trkpt><trkpt lat="45.66070355152085" lon="12.227178072924485"><ele>13.0</ele><time>2026-03-23T08:41:05Z</time></trkpt><trkpt lat="45.66086800990514" lon="12.227233314651293"><ele>13.0</ele><time>2026-03-23T08:41:06Z</time></trkpt><trkpt lat="45.6610209046447" lon="12.227294904173215"><ele>13.0</ele><time>2026-03-23T08:41:07Z</time></trkpt><trkpt lat="45.661149810491914" lon="12.227387953506144"><ele>12.75</ele><time>2026-03-23T08:41:08Z</time></trkpt><trkpt lat="45.66126603042268" lon="12.227491452027659"><ele>12.5</ele><time>2026-03-23T08:41:09Z</time></trkpt><trkpt lat="45.661370160285045" lon="12.22757639690809"><ele>12.25</ele><time>2026-03-23T08:41:10Z</time></trkpt><trkpt lat="45.66146254521625" lon="12.227651137664319"><ele>12.0</ele><time>2026-03-23T08:41:11Z</time></trkpt><trkpt lat="45.66155268637783" lon="12.227727680411219"><ele>12.0</ele><time>2026-03-23T08:41:12Z</time></trkpt><trkpt lat="45.66165050443901" lon="12.227795688162667"><ele>12.0</ele><time>2026-03-23T08:41:13Z</time></trkpt><trkpt lat="45.661763586221966" lon="12.227891342635594"><ele>12.0</ele><time>2026-03-23T08:41:14Z</time></trkpt><trkpt lat="45.66190435994179" lon="12.227918540500221"><ele>12.0</ele><time>2026-03-23T08:41:15Z</time></trkpt><trkpt lat="45.66203705544505" lon="12.22794059536554"><ele>12.0</ele><time>2026-03-23T08:41:16Z</time></trkpt><trkpt lat="45.662162933422756" lon="12.227934572323283"><ele>12.0</ele><time>2026-03-23T08:41:17Z</time></trkpt><trkpt lat="45.662272969231196" lon="12.227912145708045"><ele>12.0</ele><time>2026-03-23T08:41:18Z</time></trkpt><trkpt lat="45.66236496689146" lon="12.227891390866667"><ele>12.0</ele><time>2026-03-23T08:41:19Z</time></trkpt><trkpt lat="45.66243732851263" lon="12.227902722447741"><ele>12.0</ele><time>2026-03-23T08:41:20Z</time></trkpt><trkpt lat="45.662519081784076" lon="12.22790354039986"><ele>12.0</ele><time>2026-03-23T08:41:22Z</time></trkpt><trkpt lat="45.66258113096996" lon="12.22788176301939"><ele>12.0</ele><time>2026-03-23T08:41:25Z</time></trkpt><trkpt lat="45.66263245228309" lon="12.227717890535914"><ele>12.0</ele><time>2026-03-23T08:41:28Z</time></trkpt><trkpt lat="45.66260270503766" lon="12.227560584009026"><ele>12.0</ele><time>2026-03-23T08:41:29Z</time></trkpt><trkpt lat="45.66260819667613" lon="12.227428546285887"><ele>12.0</ele><time>2026-03-23T08:41:30Z</time></trkpt><trkpt lat="45.66258593340038" lon="12.22731212349711"><ele>12.25</ele><time>2026-03-23T08:41:31Z</time></trkpt><trkpt lat="45.66258297333807" lon="12.227176955070263"><ele>12.5</ele><time>2026-03-23T08:41:32Z</time></trkpt><trkpt lat="45.66257613815428" lon="12.22699470433064"><ele>12.75</ele><time>2026-03-23T08:41:33Z</time></trkpt><trkpt lat="45.662560178320504" lon="12.226779154000894"><ele>13.0</ele><time>2026-03-23T08:41:34Z</time></trkpt><trkpt lat="45.662542942894305" lon="12.226552760892124"><ele>12.666666666666666</ele><time>2026-03-23T08:41:35Z</time></trkpt><trkpt lat="45.66253556001845" lon="12.226348712331356"><ele>12.333333333333332</ele><time>2026-03-23T08:41:36Z</time></trkpt><trkpt lat="45.662533507161946" lon="12.226125834687014"><ele>12.0</ele><time>2026-03-23T08:41:37Z</time></trkpt><trkpt lat="45.66253511368432" lon="12.225888331031697"><ele>12.0</ele><time>2026-03-23T08:41:38Z</time></trkpt><trkpt lat="45.662529648219845" lon="12.225667886095465"><ele>12.0</ele><time>2026-03-23T08:41:39Z</time></trkpt><trkpt lat="45.6625331822168" lon="12.22546390698094"><ele>12.0</ele><time>2026-03-23T08:41:40Z</time></trkpt><trkpt lat="45.66253068830225" lon="12.22528141016722"><ele>12.0</ele><time>2026-03-23T08:41:41Z</time></trkpt><trkpt lat="45.66254320740532" lon="12.225101940298718"><ele>12.333333333333332</ele><time>2026-03-23T08:41:42Z</time></trkpt><trkpt lat="45.66255527502478" lon="12.224893188471661"><ele>12.666666666666666</ele><time>2026-03-23T08:41:43Z</time></trkpt><trkpt lat="45.66257368381787" lon="12.224641691175654"><ele>13.0</ele><time>2026-03-23T08:41:44Z</time></trkpt><trkpt lat="45.662590636186145" lon="12.224375284002571"><ele>13.75</ele><time>2026-03-23T08:41:45Z</time></trkpt><trkpt lat="45.66262126957093" lon="12.224147793586242"><ele>14.5</ele><time>2026-03-23T08:41:46Z</time></trkpt><trkpt lat="45.662630531470796" lon="12.223931828625906"><ele>15.25</ele><time>2026-03-23T08:41:47Z</time></trkpt><trkpt lat="45.66265346468717" lon="12.223744300828919"><ele>16.0</ele><time>2026-03-23T08:41:48Z</time></trkpt><trkpt lat="45.662682266470476" lon="12.223576371760275"><ele>16.25</ele><time>2026-03-23T08:41:49Z</time></trkpt><trkpt lat="45.66267365434192" lon="12.223426178547927"><ele>16.5</ele><time>2026-03-23T08:41:50Z</time></trkpt><trkpt lat="45.662621882082995" lon="12.223270320933606"><ele>16.75</ele><time>2026-03-23T08:41:51Z</time></trkpt><trkpt lat="45.66253710907606" lon="12.223108621928212"><ele>17.0</ele><time>2026-03-23T08:41:52Z</time></trkpt><trkpt lat="45.662435010687005" lon="12.222926175178"><ele>17.0</ele><time>2026-03-23T08:41:53Z</time></trkpt><trkpt lat="45.662347682579316" lon="12.22271409405709"><ele>17.0</ele><time>2026-03-23T08:41:54Z</time></trkpt><trkpt lat="45.662258829681974" lon="12.222471566063737"><ele>17.0</ele><time>2026-03-23T08:41:55Z</time></trkpt><trkpt lat="45.662166039011446" lon="12.222240095684185"><ele>17.0</ele><time>2026-03-23T08:41:56Z</time></trkpt><trkpt lat="45.662075128833585" lon="12.221983268066646"><ele>17.0</ele><time>2026-03-23T08:41:57Z</time></trkpt><trkpt lat="45.66198971935174" lon="12.221732715760488"><ele>17.0</ele><time>2026-03-23T08:41:58Z</time></trkpt><trkpt lat="45.66188783053269" lon="12.221512252851644"><ele>15.333333333333334</ele><time>2026-03-23T08:41:59Z</time></trkpt><trkpt lat="45.66179681445094" lon="12.221295660650963"><ele>13.666666666666668</ele><time>2026-03-23T08:42:00Z</time></trkpt><trkpt lat="45.66169997666417" lon="12.221102916598767"><ele>12.0</ele><time>2026-03-23T08:42:01Z</time></trkpt><trkpt lat="45.661598568231376" lon="12.220944069168382"><ele>12.0</ele><time>2026-03-23T08:42:02Z</time></trkpt><trkpt lat="45.661512790694175" lon="12.220799141277901"><ele>12.0</ele><time>2026-03-23T08:42:03Z</time></trkpt><trkpt lat="45.66144610616697" lon="12.220659924935461"><ele>12.0</ele><time>2026-03-23T08:42:04Z</time></trkpt><trkpt lat="45.6613925840932" lon="12.220535048408264"><ele>12.0</ele><time>2026-03-23T08:42:05Z</time></trkpt><trkpt lat="45.661351861062606" lon="12.220432382477146"><ele>12.0</ele><time>2026-03-23T08:42:06Z</time></trkpt><trkpt lat="45.66131924516298" lon="12.220352529979976"><ele>12.2</ele><time>2026-03-23T08:42:07Z</time></trkpt><trkpt lat="45.66127638268654" lon="12.220279890771337"><ele>12.399999999999999</ele><time>2026-03-23T08:42:09Z</time></trkpt><trkpt lat="45.661254532212325" lon="12.22019377654522"><ele>12.600000000000001</ele><time>2026-03-23T08:42:12Z</time></trkpt><trkpt lat="45.661366059481274" lon="12.220230408539452"><ele>12.8</ele><time>2026-03-23T08:42:16Z</time></trkpt><trkpt lat="45.661470186301486" lon="12.220384637483194"><ele>13.0</ele><time>2026-03-23T08:42:18Z</time></trkpt><trkpt lat="45.661527948158465" lon="12.220518117491434"><ele>13.0</ele><time>2026-03-23T08:42:19Z</time></trkpt><trkpt lat="45.6616113522402" lon="12.220640947378568"><ele>13.0</ele><time>2026-03-23T08:42:20Z</time></trkpt><trkpt lat="45.661705531218594" lon="12.220780709514093"><ele>13.0</ele><time>2026-03-23T08:42:21Z</time></trkpt><trkpt lat="45.66177952552636" lon="12.22090898860644"><ele>13.0</ele><time>2026-03-23T08:42:22Z</time></trkpt><trkpt lat="45.66183976198497" lon="12.221018996642725"><ele>12.8</ele><time>2026-03-23T08:42:23Z</time></trkpt><trkpt lat="45.661900407900205" lon="12.221115306623386"><ele>12.600000000000001</ele><time>2026-03-23T08:42:24Z</time></trkpt><trkpt lat="45.66196526252209" lon="12.22120352857453"><ele>12.399999999999999</ele><time>2026-03-23T08:42:25Z</time></trkpt><trkpt lat="45.66203994525032" lon="12.221288589420261"><ele>12.2</ele><time>2026-03-23T08:42:26Z</time></trkpt><trkpt lat="45.66213007922055" lon="12.221381840844595"><ele>12.0</ele><time>2026-03-23T08:42:27Z</time></trkpt><trkpt lat="45.662228459899936" lon="12.221484712437901"><ele>13.25</ele><time>2026-03-23T08:42:28Z</time></trkpt><trkpt lat="45.662328360054566" lon="12.22159849526339"><ele>14.5</ele><time>2026-03-23T08:42:28.999Z</time></trkpt><trkpt lat="45.66244341720887" lon="12.221686323762983"><ele>15.75</ele><time>2026-03-23T08:42:29.999Z</time></trkpt><trkpt lat="45.662554544567584" lon="12.221755568126138"><ele>17.0</ele><time>2026-03-23T08:42:30.999Z</time></trkpt><trkpt lat="45.662659003724215" lon="12.221813031691063"><ele>17.0</ele><time>2026-03-23T08:42:31.999Z</time></trkpt><trkpt lat="45.662767490515385" lon="12.221860998203967"><ele>17.0</ele><time>2026-03-23T08:42:32.999Z</time></trkpt><trkpt lat="45.66287775405696" lon="12.221904771303215"><ele>17.0</ele><time>2026-03-23T08:42:33.999Z</time></trkpt><trkpt lat="45.662981430242944" lon="12.221943007616455"><ele>17.0</ele><time>2026-03-23T08:42:34.999Z</time></trkpt><trkpt lat="45.66307222592405" lon="12.221973142853324"><ele>17.0</ele><time>2026-03-23T08:42:35.999Z</time></trkpt><trkpt lat="45.66317463395902" lon="12.222000898681499"><ele>17.0</ele><time>2026-03-23T08:42:36.999Z</time></trkpt><trkpt lat="45.66328142331784" lon="12.222016522487184"><ele>17.0</ele><time>2026-03-23T08:42:37.999Z</time></trkpt><trkpt lat="45.66336804932341" lon="12.222038686601447"><ele>17.0</ele><time>2026-03-23T08:42:38.999Z</time></trkpt><trkpt lat="45.66344916686605" lon="12.22205511352874"><ele>17.0</ele><time>2026-03-23T08:42:39.999Z</time></trkpt><trkpt lat="45.663531720845405" lon="12.222064007027823"><ele>17.0</ele><time>2026-03-23T08:42:40.999Z</time></trkpt><trkpt lat="45.663620885194916" lon="12.222080498409507"><ele>17.0</ele><time>2026-03-23T08:42:41.999Z</time></trkpt><trkpt lat="45.66371713291527" lon="12.222101330166012"><ele>17.0</ele><time>2026-03-23T08:42:42.999Z</time></trkpt><trkpt lat="45.66381870497845" lon="12.22212066607554"><ele>17.0</ele><time>2026-03-23T08:42:43.999Z</time></trkpt><trkpt lat="45.66391852753859" lon="12.222132504815859"><ele>17.0</ele><time>2026-03-23T08:42:44.999Z</time></trkpt><trkpt lat="45.66401438813793" lon="12.222142724743966"><ele>17.0</ele><time>2026-03-23T08:42:45.999Z</time></trkpt><trkpt lat="45.66411172815054" lon="12.222157469136812"><ele>17.0</ele><time>2026-03-23T08:42:46.999Z</time></trkpt><trkpt lat="45.66421440655902" lon="12.222181307918307"><ele>17.0</ele><time>2026-03-23T08:42:47.999Z</time></trkpt><trkpt lat="45.66432245461732" lon="12.222202233998404"><ele>17.0</ele><time>2026-03-23T08:42:48.999Z</time></trkpt><trkpt lat="45.66443897105124" lon="12.222218897681971"><ele>17.0</ele><time>2026-03-23T08:42:49.999Z</time></trkpt><trkpt lat="45.66454993226792" lon="12.222238372566387"><ele>17.0</ele><time>2026-03-23T08:42:50.999Z</time></trkpt><trkpt lat="45.66466202557401" lon="12.222276179819465"><ele>16.75</ele><time>2026-03-23T08:42:51.999Z</time></trkpt><trkpt lat="45.66478172883577" lon="12.22229691952629"><ele>16.5</ele><time>2026-03-23T08:42:52.999Z</time></trkpt><trkpt lat="45.66490096271434" lon="12.222308288318949"><ele>16.25</ele><time>2026-03-23T08:42:53.999Z</time></trkpt><trkpt lat="45.665018818823995" lon="12.222325431222515"><ele>16.0</ele><time>2026-03-23T08:42:54.999Z</time></trkpt><trkpt lat="45.6651398149411" lon="12.222347983483347"><ele>16.0</ele><time>2026-03-23T08:42:55.999Z</time></trkpt><trkpt lat="45.66526351209916" lon="12.222373073373955"><ele>16.0</ele><time>2026-03-23T08:42:56.999Z</time></trkpt><trkpt lat="45.66538630899147" lon="12.222402585139507"><ele>16.0</ele><time>2026-03-23T08:42:57.999Z</time></trkpt><trkpt lat="45.665499580738846" lon="12.222427962870063"><ele>16.0</ele><time>2026-03-23T08:42:58.999Z</time></trkpt><trkpt lat="45.665613535908605" lon="12.222448853689716"><ele>16.0</ele><time>2026-03-23T08:42:59.999Z</time></trkpt><trkpt lat="45.665732432844486" lon="12.222463067096093"><ele>16.0</ele><time>2026-03-23T08:43:00.999Z</time></trkpt><trkpt lat="45.66585011998521" lon="12.222482276378987"><ele>16.0</ele><time>2026-03-23T08:43:01.999Z</time></trkpt><trkpt lat="45.66596408470009" lon="12.222506527139306"><ele>16.0</ele><time>2026-03-23T08:43:02.999Z</time></trkpt><trkpt lat="45.666071321029854" lon="12.222527676045782"><ele>16.0</ele><time>2026-03-23T08:43:03.999Z</time></trkpt><trkpt lat="45.66617680927059" lon="12.222547326339503"><ele>16.0</ele><time>2026-03-23T08:43:04.999Z</time></trkpt><trkpt lat="45.666277082609746" lon="12.222561521148242"><ele>16.0</ele><time>2026-03-23T08:43:05.999Z</time></trkpt><trkpt lat="45.666376903947835" lon="12.222576662573697"><ele>16.0</ele><time>2026-03-23T08:43:06.999Z</time></trkpt><trkpt lat="45.666476820014566" lon="12.222594600662738"><ele>16.0</ele><time>2026-03-23T08:43:08Z</time></trkpt><trkpt lat="45.66657724050607" lon="12.222614860486424"><ele>16.0</ele><time>2026-03-23T08:43:09Z</time></trkpt><trkpt lat="45.6666765314903" lon="12.222637607461648"><ele>16.0</ele><time>2026-03-23T08:43:10Z</time></trkpt><trkpt lat="45.66677062878665" lon="12.222663441942268"><ele>16.0</ele><time>2026-03-23T08:43:11Z</time></trkpt><trkpt lat="45.666857685838046" lon="12.222686296646287"><ele>16.0</ele><time>2026-03-23T08:43:12Z</time></trkpt><trkpt lat="45.66694536274491" lon="12.22270949780954"><ele>16.0</ele><time>2026-03-23T08:43:13Z</time></trkpt><trkpt lat="45.66702479267739" lon="12.222739283333132"><ele>15.666666666666666</ele><time>2026-03-23T08:43:14Z</time></trkpt><trkpt lat="45.667100783002" lon="12.22278293632109"><ele>15.333333333333332</ele><time>2026-03-23T08:43:15Z</time></trkpt><trkpt lat="45.66717267930645" lon="12.222822686671858"><ele>15.0</ele><time>2026-03-23T08:43:16Z</time></trkpt><trkpt lat="45.66724067741725" lon="12.222852043784036"><ele>14.666666666666668</ele><time>2026-03-23T08:43:17Z</time></trkpt><trkpt lat="45.667349468290965" lon="12.222902110850427"><ele>14.333333333333334</ele><time>2026-03-23T08:43:19Z</time></trkpt><trkpt lat="45.66743744766211" lon="12.222949281733634"><ele>14.0</ele><time>2026-03-23T08:43:21Z</time></trkpt><trkpt lat="45.66753284088144" lon="12.222984350769963"><ele>14.000000000000002</ele><time>2026-03-23T08:43:23Z</time></trkpt><trkpt lat="45.667598837772125" lon="12.223032592663891"><ele>14.0</ele><time>2026-03-23T08:43:24Z</time></trkpt><trkpt lat="45.66766376381512" lon="12.22310326035537"><ele>14.0</ele><time>2026-03-23T08:43:25Z</time></trkpt><trkpt lat="45.66772998215993" lon="12.223185649410325"><ele>14.0</ele><time>2026-03-23T08:43:26Z</time></trkpt><trkpt lat="45.66779588892487" lon="12.223261615507214"><ele>14.000000000000002</ele><time>2026-03-23T08:43:27Z</time></trkpt><trkpt lat="45.66787192783866" lon="12.223335974507753"><ele>14.0</ele><time>2026-03-23T08:43:28Z</time></trkpt><trkpt lat="45.66795047881738" lon="12.22342132750275"><ele>14.799999999999999</ele><time>2026-03-23T08:43:29Z</time></trkpt><trkpt lat="45.66802193458475" lon="12.223530455914396"><ele>15.599999999999998</ele><time>2026-03-23T08:43:30Z</time></trkpt><trkpt lat="45.66808960074918" lon="12.223650621213109"><ele>16.4</ele><time>2026-03-23T08:43:31Z</time></trkpt><trkpt lat="45.668154743600184" lon="12.223760687241139"><ele>17.2</ele><time>2026-03-23T08:43:32Z</time></trkpt><trkpt lat="45.668210784169894" lon="12.223859353885466"><ele>18.0</ele><time>2026-03-23T08:43:33Z</time></trkpt><trkpt lat="45.668254225818906" lon="12.22394814876183"><ele>17.4</ele><time>2026-03-23T08:43:34Z</time></trkpt><trkpt lat="45.668291674967726" lon="12.22402585756739"><ele>16.8</ele><time>2026-03-23T08:43:35Z</time></trkpt><trkpt lat="45.668358268661635" lon="12.224156616328315"><ele>16.2</ele><time>2026-03-23T08:43:37Z</time></trkpt><trkpt lat="45.6683976008259" lon="12.224237797189874"><ele>15.6</ele><time>2026-03-23T08:43:39Z</time></trkpt><trkpt lat="45.66842934952566" lon="12.224315959172579"><ele>15.0</ele><time>2026-03-23T08:43:42Z</time></trkpt><trkpt lat="45.66851173082667" lon="12.224485084304932"><ele>15.0</ele><time>2026-03-23T08:43:58Z</time></trkpt><trkpt lat="45.66856578041618" lon="12.224596602449164"><ele>15.0</ele><time>2026-03-23T08:43:59Z</time></trkpt><trkpt lat="45.668631489388865" lon="12.224732820394488"><ele>15.0</ele><time>2026-03-23T08:44:00Z</time></trkpt><trkpt lat="45.668696491977684" lon="12.224869672640205"><ele>15.0</ele><time>2026-03-23T08:44:01Z</time></trkpt><trkpt lat="45.668767200708096" lon="12.225028176701876"><ele>15.0</ele><time>2026-03-23T08:44:02Z</time></trkpt><trkpt lat="45.66885275114273" lon="12.225199579479444"><ele>15.0</ele><time>2026-03-23T08:44:03Z</time></trkpt><trkpt lat="45.668933903828446" lon="12.225368947862782"><ele>15.0</ele><time>2026-03-23T08:44:04Z</time></trkpt><trkpt lat="45.669013900121705" lon="12.225531058541385"><ele>15.0</ele><time>2026-03-23T08:44:05Z</time></trkpt><trkpt lat="45.66908131999604" lon="12.225669413981963"><ele>15.0</ele><time>2026-03-23T08:44:06Z</time></trkpt><trkpt lat="45.66915455380077" lon="12.225815589026176"><ele>15.0</ele><time>2026-03-23T08:44:07Z</time></trkpt><trkpt lat="45.66923568638254" lon="12.225964553662331"><ele>15.0</ele><time>2026-03-23T08:44:08Z</time></trkpt><trkpt lat="45.66930745953414" lon="12.22611995911376"><ele>15.0</ele><time>2026-03-23T08:44:09Z</time></trkpt><trkpt lat="45.66938145214359" lon="12.226278755154942"><ele>14.75</ele><time>2026-03-23T08:44:10Z</time></trkpt><trkpt lat="45.669469718572635" lon="12.226434629008196"><ele>14.5</ele><time>2026-03-23T08:44:11Z</time></trkpt><trkpt lat="45.66954941349872" lon="12.226609767197868"><ele>14.25</ele><time>2026-03-23T08:44:12Z</time></trkpt><trkpt lat="45.669638641424996" lon="12.226761672095243"><ele>14.0</ele><time>2026-03-23T08:44:13Z</time></trkpt><trkpt lat="45.66972524564076" lon="12.226944270353009"><ele>14.0</ele><time>2026-03-23T08:44:14Z</time></trkpt><trkpt lat="45.66980569935087" lon="12.227139690886633"><ele>14.0</ele><time>2026-03-23T08:44:15Z</time></trkpt><trkpt lat="45.66988654068964" lon="12.227315573372115"><ele>14.0</ele><time>2026-03-23T08:44:16Z</time></trkpt><trkpt lat="45.66996993561692" lon="12.227462887005746"><ele>14.0</ele><time>2026-03-23T08:44:17Z</time></trkpt><trkpt lat="45.67004415784431" lon="12.227596740533631"><ele>13.25</ele><time>2026-03-23T08:44:18Z</time></trkpt><trkpt lat="45.67008208174908" lon="12.227752734245076"><ele>12.5</ele><time>2026-03-23T08:44:19Z</time></trkpt><trkpt lat="45.67009994996294" lon="12.227947072713974"><ele>11.75</ele><time>2026-03-23T08:44:20Z</time></trkpt><trkpt lat="45.67008627551264" lon="12.228148422270994"><ele>11.0</ele><time>2026-03-23T08:44:21Z</time></trkpt><trkpt lat="45.670087055759765" lon="12.228324189237751"><ele>10.75</ele><time>2026-03-23T08:44:22Z</time></trkpt><trkpt lat="45.67014594281631" lon="12.228484354459171"><ele>10.5</ele><time>2026-03-23T08:44:23Z</time></trkpt><trkpt lat="45.67026851236947" lon="12.228602247492775"><ele>10.25</ele><time>2026-03-23T08:44:24Z</time></trkpt><trkpt lat="45.67039909064826" lon="12.228669461694041"><ele>10.0</ele><time>2026-03-23T08:44:25Z</time></trkpt><trkpt lat="45.67052361019844" lon="12.228742826792281"><ele>10.5</ele><time>2026-03-23T08:44:26Z</time></trkpt><trkpt lat="45.6706320088257" lon="12.228823546571832"><ele>11.0</ele><time>2026-03-23T08:44:26.999Z</time></trkpt><trkpt lat="45.67073535878913" lon="12.228926772886352"><ele>11.5</ele><time>2026-03-23T08:44:27.999Z</time></trkpt><trkpt lat="45.670835305131234" lon="12.229097396004677"><ele>12.0</ele><time>2026-03-23T08:44:28.999Z</time></trkpt><trkpt lat="45.67094729215229" lon="12.229338081380783"><ele>12.333333333333332</ele><time>2026-03-23T08:44:29.999Z</time></trkpt><trkpt lat="45.67106419205363" lon="12.22956479789055"><ele>12.666666666666666</ele><time>2026-03-23T08:44:30.999Z</time></trkpt><trkpt lat="45.6711656955586" lon="12.229808196283756"><ele>13.0</ele><time>2026-03-23T08:44:31.999Z</time></trkpt><trkpt lat="45.671274893998145" lon="12.23006131280526"><ele>13.666666666666666</ele><time>2026-03-23T08:44:32.999Z</time></trkpt><trkpt lat="45.67138914195431" lon="12.230257436210097"><ele>14.333333333333332</ele><time>2026-03-23T08:44:33.999Z</time></trkpt><trkpt lat="45.67148971272219" lon="12.230462801433603"><ele>15.0</ele><time>2026-03-23T08:44:34.999Z</time></trkpt><trkpt lat="45.671577298600084" lon="12.230649058818369"><ele>15.0</ele><time>2026-03-23T08:44:35.999Z</time></trkpt><trkpt lat="45.671659167580394" lon="12.230817353184815"><ele>15.0</ele><time>2026-03-23T08:44:36.999Z</time></trkpt><trkpt lat="45.67173538650236" lon="12.230977361475905"><ele>15.0</ele><time>2026-03-23T08:44:37.999Z</time></trkpt><trkpt lat="45.67180852071114" lon="12.231130096218955"><ele>15.0</ele><time>2026-03-23T08:44:38.999Z</time></trkpt><trkpt lat="45.671880177385354" lon="12.231271844081832"><ele>14.5</ele><time>2026-03-23T08:44:39.999Z</time></trkpt><trkpt lat="45.671956288125344" lon="12.231412788750061"><ele>14.0</ele><time>2026-03-23T08:44:40.999Z</time></trkpt><trkpt lat="45.672030507855105" lon="12.231559817264502"><ele>13.5</ele><time>2026-03-23T08:44:41.999Z</time></trkpt><trkpt lat="45.672097259767455" lon="12.231698268395311"><ele>13.0</ele><time>2026-03-23T08:44:42.999Z</time></trkpt><trkpt lat="45.67216509216875" lon="12.23182164848304"><ele>13.0</ele><time>2026-03-23T08:44:43.999Z</time></trkpt><trkpt lat="45.67223633981206" lon="12.231937199870682"><ele>13.0</ele><time>2026-03-23T08:44:44.999Z</time></trkpt><trkpt lat="45.67231400850244" lon="12.232060095932253"><ele>13.0</ele><time>2026-03-23T08:44:45.999Z</time></trkpt><trkpt lat="45.67239102539879" lon="12.23218016128654"><ele>13.0</ele><time>2026-03-23T08:44:46.999Z</time></trkpt><trkpt lat="45.67246300872236" lon="12.232287168889718"><ele>13.0</ele><time>2026-03-23T08:44:47.999Z</time></trkpt><trkpt lat="45.67252559511882" lon="12.232386416930586"><ele>13.166666666666666</ele><time>2026-03-23T08:44:48.999Z</time></trkpt><trkpt lat="45.67258383313955" lon="12.232481947352573"><ele>13.333333333333332</ele><time>2026-03-23T08:44:49.999Z</time></trkpt><trkpt lat="45.672633062968174" lon="12.232559181238845"><ele>13.5</ele><time>2026-03-23T08:44:50.999Z</time></trkpt><trkpt lat="45.67268296910035" lon="12.232635214779481"><ele>13.666666666666668</ele><time>2026-03-23T08:44:51.999Z</time></trkpt><trkpt lat="45.6727383199951" lon="12.232709287203095"><ele>13.833333333333334</ele><time>2026-03-23T08:44:52.999Z</time></trkpt><trkpt lat="45.67280084738357" lon="12.232778092696185"><ele>14.0</ele><time>2026-03-23T08:44:53.999Z</time></trkpt><trkpt lat="45.67286149790397" lon="12.2328479862154"><ele>14.0</ele><time>2026-03-23T08:44:54.999Z</time></trkpt><trkpt lat="45.672912876734216" lon="12.232912146210943"><ele>13.999999999999998</ele><time>2026-03-23T08:44:55.999Z</time></trkpt><trkpt lat="45.67297236664474" lon="12.232983790802882"><ele>13.999999999999998</ele><time>2026-03-23T08:44:56.999Z</time></trkpt><trkpt lat="45.67304523110711" lon="12.233052319260878"><ele>14.0</ele><time>2026-03-23T08:44:57.999Z</time></trkpt><trkpt lat="45.67313401568151" lon="12.233120054630238"><ele>14.0</ele><time>2026-03-23T08:44:58.999Z</time></trkpt><trkpt lat="45.67324444983141" lon="12.233199514024506"><ele>14.333333333333334</ele><time>2026-03-23T08:44:59.999Z</time></trkpt><trkpt lat="45.67339042855223" lon="12.233300491857504"><ele>14.666666666666668</ele><time>2026-03-23T08:45:00.999Z</time></trkpt><trkpt lat="45.673552972589476" lon="12.233382461465943"><ele>15.0</ele><time>2026-03-23T08:45:01.999Z</time></trkpt><trkpt lat="45.673725227964624" lon="12.233468795616833"><ele>15.0</ele><time>2026-03-23T08:45:02.999Z</time></trkpt><trkpt lat="45.6738637699536" lon="12.233532960697008"><ele>15.0</ele><time>2026-03-23T08:45:03.999Z</time></trkpt><trkpt lat="45.673944433677036" lon="12.23357268064533"><ele>15.0</ele><time>2026-03-23T08:45:05.999Z</time></trkpt><trkpt lat="45.67401064720186" lon="12.233617382181006"><ele>15.0</ele><time>2026-03-23T08:45:07.999Z</time></trkpt><trkpt lat="45.674163290679296" lon="12.233696403237198"><ele>15.0</ele><time>2026-03-23T08:45:09.999Z</time></trkpt><trkpt lat="45.67425899761375" lon="12.2337538010606"><ele>15.0</ele><time>2026-03-23T08:45:10.999Z</time></trkpt><trkpt lat="45.67437489370575" lon="12.233832316489602"><ele>15.0</ele><time>2026-03-23T08:45:11.999Z</time></trkpt><trkpt lat="45.67450833748499" lon="12.233922327957291"><ele>15.0</ele><time>2026-03-23T08:45:13Z</time></trkpt><trkpt lat="45.674635329176276" lon="12.234022315230062"><ele>15.0</ele><time>2026-03-23T08:45:14Z</time></trkpt><trkpt lat="45.67477003897868" lon="12.234139508765502"><ele>15.0</ele><time>2026-03-23T08:45:15Z</time></trkpt><trkpt lat="45.674911019933226" lon="12.23426938688967"><ele>15.0</ele><time>2026-03-23T08:45:16Z</time></trkpt><trkpt lat="45.67505546112957" lon="12.234417784828905"><ele>15.0</ele><time>2026-03-23T08:45:17Z</time></trkpt><trkpt lat="45.67518351996001" lon="12.234569121589045"><ele>15.0</ele><time>2026-03-23T08:45:18Z</time></trkpt><trkpt lat="45.67531026296514" lon="12.234722355850232"><ele>15.0</ele><time>2026-03-23T08:45:19Z</time></trkpt><trkpt lat="45.67542893366058" lon="12.234876412774565"><ele>15.0</ele><time>2026-03-23T08:45:20Z</time></trkpt><trkpt lat="45.675529489407594" lon="12.23502723375198"><ele>15.0</ele><time>2026-03-23T08:45:21Z</time></trkpt><trkpt lat="45.675618631086905" lon="12.235172627724994"><ele>15.0</ele><time>2026-03-23T08:45:22Z</time></trkpt><trkpt lat="45.67569727240057" lon="12.235307900479176"><ele>15.0</ele><time>2026-03-23T08:45:23Z</time></trkpt><trkpt lat="45.6757642525033" lon="12.235425982451336"><ele>15.0</ele><time>2026-03-23T08:45:24Z</time></trkpt><trkpt lat="45.67582101145557" lon="12.235517801885479"><ele>15.0</ele><time>2026-03-23T08:45:25Z</time></trkpt><trkpt lat="45.67587387185553" lon="12.23560762357183"><ele>15.0</ele><time>2026-03-23T08:45:26Z</time></trkpt><trkpt lat="45.675921604588304" lon="12.235702213514092"><ele>15.0</ele><time>2026-03-23T08:45:27Z</time></trkpt><trkpt lat="45.67597974652682" lon="12.235812153699152"><ele>15.0</ele><time>2026-03-23T08:45:28Z</time></trkpt><trkpt lat="45.676050768421476" lon="12.235946820231353"><ele>14.75</ele><time>2026-03-23T08:45:29Z</time></trkpt><trkpt lat="45.67612359572221" lon="12.236095587994686"><ele>14.5</ele><time>2026-03-23T08:45:30Z</time></trkpt><trkpt lat="45.6762058595928" lon="12.236224999324085"><ele>14.25</ele><time>2026-03-23T08:45:31Z</time></trkpt><trkpt lat="45.67628721203583" lon="12.236350053052295"><ele>14.0</ele><time>2026-03-23T08:45:32Z</time></trkpt><trkpt lat="45.67636589657627" lon="12.23647862381002"><ele>14.0</ele><time>2026-03-23T08:45:33Z</time></trkpt><trkpt lat="45.67644638188292" lon="12.236605550195186"><ele>13.999999999999998</ele><time>2026-03-23T08:45:34Z</time></trkpt><trkpt lat="45.67652616632955" lon="12.236711744625502"><ele>13.999999999999998</ele><time>2026-03-23T08:45:35Z</time></trkpt><trkpt lat="45.67660256770917" lon="12.236799731899373"><ele>14.0</ele><time>2026-03-23T08:45:36Z</time></trkpt><trkpt lat="45.67667517210294" lon="12.236881332807258"><ele>14.0</ele><time>2026-03-23T08:45:37Z</time></trkpt><trkpt lat="45.6767412150465" lon="12.23695231310821"><ele>14.0</ele><time>2026-03-23T08:45:38Z</time></trkpt><trkpt lat="45.67681021007697" lon="12.237027664788226"><ele>13.999999999999998</ele><time>2026-03-23T08:45:39Z</time></trkpt><trkpt lat="45.6768784769071" lon="12.237110712542757"><ele>13.999999999999998</ele><time>2026-03-23T08:45:40Z</time></trkpt><trkpt lat="45.67695522173055" lon="12.237190493733301"><ele>14.0</ele><time>2026-03-23T08:45:41Z</time></trkpt><trkpt lat="45.67704757509853" lon="12.237280541147069"><ele>14.0</ele><time>2026-03-23T08:45:42Z</time></trkpt><trkpt lat="45.67715172089508" lon="12.237380913994691"><ele>14.75</ele><time>2026-03-23T08:45:43Z</time></trkpt><trkpt lat="45.67726031140807" lon="12.237481032367485"><ele>15.5</ele><time>2026-03-23T08:45:44Z</time></trkpt><trkpt lat="45.677369382132746" lon="12.237588375657658"><ele>16.25</ele><time>2026-03-23T08:45:45Z</time></trkpt><trkpt lat="45.677472049368866" lon="12.237703884752765"><ele>17.0</ele><time>2026-03-23T08:45:46Z</time></trkpt><trkpt lat="45.67756698996775" lon="12.237808045584746"><ele>17.0</ele><time>2026-03-23T08:45:47Z</time></trkpt><trkpt lat="45.67766077953741" lon="12.237900491811043"><ele>17.0</ele><time>2026-03-23T08:45:48Z</time></trkpt><trkpt lat="45.67775016540043" lon="12.237994571700334"><ele>17.0</ele><time>2026-03-23T08:45:49Z</time></trkpt><trkpt lat="45.67784442273373" lon="12.238090750982218"><ele>17.0</ele><time>2026-03-23T08:45:50Z</time></trkpt><trkpt lat="45.677940905996685" lon="12.238185946948501"><ele>17.25</ele><time>2026-03-23T08:45:51Z</time></trkpt><trkpt lat="45.67803933397458" lon="12.238281121091118"><ele>17.5</ele><time>2026-03-23T08:45:52Z</time></trkpt><trkpt lat="45.67814086018883" lon="12.238384662424465"><ele>17.75</ele><time>2026-03-23T08:45:53Z</time></trkpt><trkpt lat="45.67823613186471" lon="12.238485368492638"><ele>18.0</ele><time>2026-03-23T08:45:54Z</time></trkpt><trkpt lat="45.67831795937914" lon="12.238577953248278"><ele>18.0</ele><time>2026-03-23T08:45:55Z</time></trkpt><trkpt lat="45.67839557658628" lon="12.238663639660455"><ele>18.0</ele><time>2026-03-23T08:45:56Z</time></trkpt><trkpt lat="45.67847591131127" lon="12.2387461342196"><ele>18.0</ele><time>2026-03-23T08:45:57Z</time></trkpt><trkpt lat="45.67855322780802" lon="12.238831833050181"><ele>18.0</ele><time>2026-03-23T08:45:58Z</time></trkpt><trkpt lat="45.678633394514975" lon="12.238913598702464"><ele>18.0</ele><time>2026-03-23T08:45:59Z</time></trkpt><trkpt lat="45.67872445531866" lon="12.23899508202142"><ele>17.0</ele><time>2026-03-23T08:46:00Z</time></trkpt><trkpt lat="45.67881850022613" lon="12.23908339498352"><ele>16.0</ele><time>2026-03-23T08:46:01Z</time></trkpt><trkpt lat="45.67891826001743" lon="12.23918398446747"><ele>15.0</ele><time>2026-03-23T08:46:02Z</time></trkpt><trkpt lat="45.67902440675774" lon="12.239292000417471"><ele>14.0</ele><time>2026-03-23T08:46:03Z</time></trkpt><trkpt lat="45.679127195081534" lon="12.239397647627133"><ele>14.0</ele><time>2026-03-23T08:46:04Z</time></trkpt><trkpt lat="45.67922800740146" lon="12.239504047580617"><ele>14.0</ele><time>2026-03-23T08:46:05Z</time></trkpt><trkpt lat="45.679343938272474" lon="12.239618869588218"><ele>14.0</ele><time>2026-03-23T08:46:06Z</time></trkpt><trkpt lat="45.679461180388046" lon="12.239731641903466"><ele>14.0</ele><time>2026-03-23T08:46:07Z</time></trkpt><trkpt lat="45.67957690022939" lon="12.239864245491049"><ele>14.399999999999999</ele><time>2026-03-23T08:46:08Z</time></trkpt><trkpt lat="45.67967470202763" lon="12.239979173522903"><ele>14.799999999999999</ele><time>2026-03-23T08:46:09Z</time></trkpt><trkpt lat="45.67976757825141" lon="12.24007307311013"><ele>15.200000000000001</ele><time>2026-03-23T08:46:10Z</time></trkpt><trkpt lat="45.679863206935735" lon="12.240181158024876"><ele>15.600000000000001</ele><time>2026-03-23T08:46:11Z</time></trkpt><trkpt lat="45.679928932628656" lon="12.240245887417183"><ele>16.0</ele><time>2026-03-23T08:46:12Z</time></trkpt><trkpt lat="45.67999885098397" lon="12.240320146871776"><ele>15.999999999999998</ele><time>2026-03-23T08:46:13Z</time></trkpt><trkpt lat="45.680065050856214" lon="12.240392412846067"><ele>16.0</ele><time>2026-03-23T08:46:14Z</time></trkpt><trkpt lat="45.68012402092086" lon="12.240460886483133"><ele>16.0</ele><time>2026-03-23T08:46:15Z</time></trkpt><trkpt lat="45.680189645650756" lon="12.24052867862993"><ele>16.0</ele><time>2026-03-23T08:46:16Z</time></trkpt><trkpt lat="45.68026293099919" lon="12.240602020008508"><ele>15.999999999999998</ele><time>2026-03-23T08:46:17Z</time></trkpt><trkpt lat="45.68034727370217" lon="12.240685205574408"><ele>16.0</ele><time>2026-03-23T08:46:18Z</time></trkpt><trkpt lat="45.68044559194985" lon="12.24078000386311"><ele>16.25</ele><time>2026-03-23T08:46:19Z</time></trkpt><trkpt lat="45.68057552208441" lon="12.24089347516357"><ele>16.5</ele><time>2026-03-23T08:46:20Z</time></trkpt><trkpt lat="45.68069378451089" lon="12.241023827903708"><ele>16.75</ele><time>2026-03-23T08:46:21Z</time></trkpt><trkpt lat="45.68079312397213" lon="12.24113389576605"><ele>17.0</ele><time>2026-03-23T08:46:22Z</time></trkpt><trkpt lat="45.68088013989768" lon="12.241222882971025"><ele>17.0</ele><time>2026-03-23T08:46:23Z</time></trkpt><trkpt lat="45.680965196917775" lon="12.241306461259384"><ele>17.0</ele><time>2026-03-23T08:46:24Z</time></trkpt><trkpt lat="45.68104114162174" lon="12.241390424614282"><ele>17.0</ele><time>2026-03-23T08:46:25Z</time></trkpt><trkpt lat="45.68111396391298" lon="12.241466616530323"><ele>17.0</ele><time>2026-03-23T08:46:26Z</time></trkpt><trkpt lat="45.681181741486874" lon="12.24153564384272"><ele>17.0</ele><time>2026-03-23T08:46:27Z</time></trkpt><trkpt lat="45.68124800713227" lon="12.241602496606902"><ele>16.8</ele><time>2026-03-23T08:46:27.999Z</time></trkpt><trkpt lat="45.68131684328918" lon="12.241675487596867"><ele>16.6</ele><time>2026-03-23T08:46:28.999Z</time></trkpt><trkpt lat="45.681390390479116" lon="12.24174957050171"><ele>16.400000000000002</ele><time>2026-03-23T08:46:29.999Z</time></trkpt><trkpt lat="45.68146741887133" lon="12.24182759173125"><ele>16.2</ele><time>2026-03-23T08:46:30.999Z</time></trkpt><trkpt lat="45.68154282563675" lon="12.24190407672597"><ele>16.0</ele><time>2026-03-23T08:46:31.999Z</time></trkpt><trkpt lat="45.68161865045254" lon="12.241968425143206"><ele>15.999999999999998</ele><time>2026-03-23T08:46:32.999Z</time></trkpt><trkpt lat="45.681688425543" lon="12.242027488025792"><ele>16.0</ele><time>2026-03-23T08:46:33.999Z</time></trkpt><trkpt lat="45.681747690614074" lon="12.242085308425063"><ele>16.0</ele><time>2026-03-23T08:46:34.999Z</time></trkpt><trkpt lat="45.681806467771715" lon="12.242137706231476"><ele>16.0</ele><time>2026-03-23T08:46:35.999Z</time></trkpt><trkpt lat="45.681893862580765" lon="12.242217513029091"><ele>15.999999999999998</ele><time>2026-03-23T08:46:37.999Z</time></trkpt><trkpt lat="45.68195641097096" lon="12.242268016276753"><ele>16.0</ele><time>2026-03-23T08:47:14.999Z</time></trkpt><trkpt lat="45.68200265917799" lon="12.242336774340911"><ele>15.8</ele><time>2026-03-23T08:47:16.999Z</time></trkpt><trkpt lat="45.68212133115716" lon="12.242275228627623"><ele>15.600000000000001</ele><time>2026-03-23T08:47:19Z</time></trkpt><trkpt lat="45.68221575642786" lon="12.24216894267421"><ele>15.4</ele><time>2026-03-23T08:47:21Z</time></trkpt><trkpt lat="45.68228627777319" lon="12.242123622889775"><ele>15.2</ele><time>2026-03-23T08:47:22Z</time></trkpt><trkpt lat="45.682361245732" lon="12.242073581795704"><ele>15.0</ele><time>2026-03-23T08:47:23Z</time></trkpt><trkpt lat="45.682422265150905" lon="12.242006225094608"><ele>15.0</ele><time>2026-03-23T08:47:24Z</time></trkpt><trkpt lat="45.682472552182425" lon="12.241935345276957"><ele>15.0</ele><time>2026-03-23T08:47:25Z</time></trkpt><trkpt lat="45.68251924917844" lon="12.24184752888314"><ele>15.0</ele><time>2026-03-23T08:47:26Z</time></trkpt><trkpt lat="45.682564239802275" lon="12.241751793560839"><ele>15.0</ele><time>2026-03-23T08:47:27Z</time></trkpt><trkpt lat="45.68260509503776" lon="12.24165386563106"><ele>15.0</ele><time>2026-03-23T08:47:28Z</time></trkpt><trkpt lat="45.68263247805953" lon="12.241556725260612"><ele>15.0</ele><time>2026-03-23T08:47:29Z</time></trkpt><trkpt lat="45.68266088958008" lon="12.241476048289941"><ele>15.0</ele><time>2026-03-23T08:47:30Z</time></trkpt><trkpt lat="45.682700611547475" lon="12.24135009392498"><ele>14.6</ele><time>2026-03-23T08:47:32Z</time></trkpt><trkpt lat="45.682732672841944" lon="12.241265498817867"><ele>14.2</ele><time>2026-03-23T08:47:33Z</time></trkpt><trkpt lat="45.68276732090352" lon="12.241158564361095"><ele>13.8</ele><time>2026-03-23T08:47:34Z</time></trkpt><trkpt lat="45.68281364443679" lon="12.241047322776254"><ele>13.4</ele><time>2026-03-23T08:47:35Z</time></trkpt><trkpt lat="45.682882644507" lon="12.240913850896249"><ele>13.0</ele><time>2026-03-23T08:47:36Z</time></trkpt><trkpt lat="45.682956848646256" lon="12.240758964687238"><ele>14.0</ele><time>2026-03-23T08:47:37Z</time></trkpt><trkpt lat="45.683055620968936" lon="12.240594203310682"><ele>15.0</ele><time>2026-03-23T08:47:38Z</time></trkpt><trkpt lat="45.68316753778384" lon="12.240429013097238"><ele>16.0</ele><time>2026-03-23T08:47:39Z</time></trkpt><trkpt lat="45.683268158495174" lon="12.24028813017717"><ele>16.0</ele><time>2026-03-23T08:47:40Z</time></trkpt><trkpt lat="45.683375920986286" lon="12.240141453276124"><ele>16.0</ele><time>2026-03-23T08:47:41Z</time></trkpt><trkpt lat="45.683492189421486" lon="12.239986604719178"><ele>16.0</ele><time>2026-03-23T08:47:42Z</time></trkpt><trkpt lat="45.68362201095274" lon="12.239833607010036"><ele>16.0</ele><time>2026-03-23T08:47:43Z</time></trkpt><trkpt lat="45.683739178161694" lon="12.23967820241173"><ele>16.0</ele><time>2026-03-23T08:47:44Z</time></trkpt><trkpt lat="45.6838588518789" lon="12.239528969770292"><ele>16.0</ele><time>2026-03-23T08:47:45Z</time></trkpt><trkpt lat="45.684029073273976" lon="12.239317075061381"><ele>16.0</ele><time>2026-03-23T08:47:46Z</time></trkpt><trkpt lat="45.684182269294155" lon="12.239145001916997"><ele>16.0</ele><time>2026-03-23T08:47:47Z</time></trkpt><trkpt lat="45.68432549097437" lon="12.238952406469489"><ele>16.0</ele><time>2026-03-23T08:47:48Z</time></trkpt><trkpt lat="45.68446342121361" lon="12.23876115315527"><ele>15.333333333333332</ele><time>2026-03-23T08:47:49Z</time></trkpt><trkpt lat="45.684621265481965" lon="12.23855089487971"><ele>14.666666666666668</ele><time>2026-03-23T08:47:50Z</time></trkpt><trkpt lat="45.684794071855165" lon="12.238342820277648"><ele>14.0</ele><time>2026-03-23T08:47:51Z</time></trkpt><trkpt lat="45.684982277543035" lon="12.23816565502285"><ele>15.0</ele><time>2026-03-23T08:47:52Z</time></trkpt><trkpt lat="45.68514742602787" lon="12.237994531988711"><ele>16.0</ele><time>2026-03-23T08:47:53Z</time></trkpt><trkpt lat="45.68530467407703" lon="12.237838380256184"><ele>17.0</ele><time>2026-03-23T08:47:54Z</time></trkpt><trkpt lat="45.68546614572858" lon="12.237662909747758"><ele>17.0</ele><time>2026-03-23T08:47:55Z</time></trkpt><trkpt lat="45.6856384751208" lon="12.237505957639733"><ele>17.0</ele><time>2026-03-23T08:47:56Z</time></trkpt><trkpt lat="45.6858202508942" lon="12.237355736342534"><ele>17.0</ele><time>2026-03-23T08:47:57Z</time></trkpt><trkpt lat="45.68601257470101" lon="12.23722670325469"><ele>16.5</ele><time>2026-03-23T08:47:58Z</time></trkpt><trkpt lat="45.686211028796635" lon="12.237077597240534"><ele>16.0</ele><time>2026-03-23T08:47:59Z</time></trkpt><trkpt lat="45.68642658723767" lon="12.236957700638348"><ele>16.0</ele><time>2026-03-23T08:48:00Z</time></trkpt><trkpt lat="45.68662603149426" lon="12.236848664309841"><ele>16.0</ele><time>2026-03-23T08:48:01Z</time></trkpt><trkpt lat="45.68683786429522" lon="12.236740501772807"><ele>16.0</ele><time>2026-03-23T08:48:02Z</time></trkpt><trkpt lat="45.68704770430133" lon="12.236631302684035"><ele>16.0</ele><time>2026-03-23T08:48:03Z</time></trkpt><trkpt lat="45.68723899530063" lon="12.23653395477388"><ele>16.0</ele><time>2026-03-23T08:48:04Z</time></trkpt><trkpt lat="45.68742450535315" lon="12.236441043458933"><ele>16.0</ele><time>2026-03-23T08:48:05Z</time></trkpt><trkpt lat="45.68760536373836" lon="12.236361876993847"><ele>16.666666666666664</ele><time>2026-03-23T08:48:06Z</time></trkpt><trkpt lat="45.68778420606148" lon="12.236268464363496"><ele>17.333333333333332</ele><time>2026-03-23T08:48:07Z</time></trkpt><trkpt lat="45.687972907776576" lon="12.236162336667475"><ele>18.0</ele><time>2026-03-23T08:48:08Z</time></trkpt><trkpt lat="45.6881613981717" lon="12.236065914252105"><ele>18.0</ele><time>2026-03-23T08:48:09Z</time></trkpt><trkpt lat="45.68834665650924" lon="12.235972042416826"><ele>18.0</ele><time>2026-03-23T08:48:10Z</time></trkpt><trkpt lat="45.68852495354511" lon="12.235880128494719"><ele>18.0</ele><time>2026-03-23T08:48:11Z</time></trkpt><trkpt lat="45.688693803859216" lon="12.235799830970405"><ele>18.0</ele><time>2026-03-23T08:48:12Z</time></trkpt><trkpt lat="45.68885374015396" lon="12.235724934042121"><ele>18.0</ele><time>2026-03-23T08:48:13Z</time></trkpt><trkpt lat="45.689025433257015" lon="12.235629978031456"><ele>18.0</ele><time>2026-03-23T08:48:14Z</time></trkpt><trkpt lat="45.68919257022339" lon="12.235513480548155"><ele>18.0</ele><time>2026-03-23T08:48:15Z</time></trkpt><trkpt lat="45.68936177968147" lon="12.235392560553993"><ele>18.0</ele><time>2026-03-23T08:48:16Z</time></trkpt><trkpt lat="45.68953179785315" lon="12.235271665390341"><ele>18.0</ele><time>2026-03-23T08:48:17Z</time></trkpt><trkpt lat="45.68969986718711" lon="12.235157531367188"><ele>19.333333333333332</ele><time>2026-03-23T08:48:18Z</time></trkpt><trkpt lat="45.68987375702346" lon="12.23504136695405"><ele>20.666666666666664</ele><time>2026-03-23T08:48:19Z</time></trkpt><trkpt lat="45.690026913800466" lon="12.23493063266744"><ele>22.0</ele><time>2026-03-23T08:48:20Z</time></trkpt><trkpt lat="45.6901679049673" lon="12.234813213714707"><ele>21.666666666666664</ele><time>2026-03-23T08:48:21Z</time></trkpt><trkpt lat="45.69030438458331" lon="12.234665238239721"><ele>21.333333333333332</ele><time>2026-03-23T08:48:22Z</time></trkpt><trkpt lat="45.69044409047913" lon="12.234494826173659"><ele>21.0</ele><time>2026-03-23T08:48:23Z</time></trkpt><trkpt lat="45.690580959503386" lon="12.234296857324416"><ele>21.0</ele><time>2026-03-23T08:48:24Z</time></trkpt><trkpt lat="45.69072474042674" lon="12.234081216427292"><ele>21.0</ele><time>2026-03-23T08:48:25Z</time></trkpt><trkpt lat="45.6909026799568" lon="12.233902643793334"><ele>21.0</ele><time>2026-03-23T08:48:26Z</time></trkpt><trkpt lat="45.69109120412699" lon="12.233704505684669"><ele>20.666666666666668</ele><time>2026-03-23T08:48:27Z</time></trkpt><trkpt lat="45.69128132260691" lon="12.23354718962677"><ele>20.333333333333336</ele><time>2026-03-23T08:48:28Z</time></trkpt><trkpt lat="45.691433108459734" lon="12.23340949620739"><ele>20.0</ele><time>2026-03-23T08:48:29Z</time></trkpt><trkpt lat="45.691554582635064" lon="12.233293728902414"><ele>20.0</ele><time>2026-03-23T08:48:30Z</time></trkpt><trkpt lat="45.691672985120164" lon="12.233181428908534"><ele>20.0</ele><time>2026-03-23T08:48:31Z</time></trkpt><trkpt lat="45.69179284119511" lon="12.233077950141894"><ele>20.0</ele><time>2026-03-23T08:48:31.999Z</time></trkpt><trkpt lat="45.6919155796571" lon="12.232969984597068"><ele>20.0</ele><time>2026-03-23T08:48:32.999Z</time></trkpt><trkpt lat="45.69206510723676" lon="12.232848682897071"><ele>20.333333333333336</ele><time>2026-03-23T08:48:33.999Z</time></trkpt><trkpt lat="45.69222126923268" lon="12.232716493502043"><ele>20.666666666666668</ele><time>2026-03-23T08:48:34.999Z</time></trkpt><trkpt lat="45.69237180019501" lon="12.23258129290967"><ele>21.0</ele><time>2026-03-23T08:48:35.999Z</time></trkpt><trkpt lat="45.692514886475806" lon="12.232458862401641"><ele>21.0</ele><time>2026-03-23T08:48:36.999Z</time></trkpt><trkpt lat="45.692646394743605" lon="12.232351971608855"><ele>21.0</ele><time>2026-03-23T08:48:37.999Z</time></trkpt><trkpt lat="45.69277754611153" lon="12.232240263835882"><ele>21.0</ele><time>2026-03-23T08:48:38.999Z</time></trkpt><trkpt lat="45.692912019586565" lon="12.232117904900539"><ele>21.0</ele><time>2026-03-23T08:48:39.999Z</time></trkpt><trkpt lat="45.693063349305255" lon="12.231983204080313"><ele>21.0</ele><time>2026-03-23T08:48:40.999Z</time></trkpt><trkpt lat="45.69322870813853" lon="12.231845010234066"><ele>21.0</ele><time>2026-03-23T08:48:41.999Z</time></trkpt><trkpt lat="45.69339392000846" lon="12.23169629642414"><ele>21.0</ele><time>2026-03-23T08:48:42.999Z</time></trkpt><trkpt lat="45.69355056330913" lon="12.231589692187281"><ele>21.0</ele><time>2026-03-23T08:48:43.999Z</time></trkpt><trkpt lat="45.69368116490733" lon="12.231452007461876"><ele>21.0</ele><time>2026-03-23T08:48:44.999Z</time></trkpt><trkpt lat="45.693805510880644" lon="12.231350831981638"><ele>21.25</ele><time>2026-03-23T08:48:45.999Z</time></trkpt><trkpt lat="45.69391808952868" lon="12.231257968556612"><ele>21.5</ele><time>2026-03-23T08:48:46.999Z</time></trkpt><trkpt lat="45.69402594753533" lon="12.231169587009331"><ele>21.75</ele><time>2026-03-23T08:48:47.999Z</time></trkpt><trkpt lat="45.69413081631207" lon="12.231072828357235"><ele>22.0</ele><time>2026-03-23T08:48:48.999Z</time></trkpt><trkpt lat="45.69425624015351" lon="12.230967057173274"><ele>22.0</ele><time>2026-03-23T08:48:49.999Z</time></trkpt><trkpt lat="45.69439858178831" lon="12.230851485747483"><ele>22.0</ele><time>2026-03-23T08:48:50.999Z</time></trkpt><trkpt lat="45.694538477751394" lon="12.230714083493904"><ele>22.0</ele><time>2026-03-23T08:48:51.999Z</time></trkpt><trkpt lat="45.69467747762057" lon="12.230570375167396"><ele>22.0</ele><time>2026-03-23T08:48:52.999Z</time></trkpt><trkpt lat="45.69479440185568" lon="12.230410697136591"><ele>22.0</ele><time>2026-03-23T08:48:53.999Z</time></trkpt><trkpt lat="45.69489317150294" lon="12.230237498073084"><ele>22.0</ele><time>2026-03-23T08:48:54.999Z</time></trkpt><trkpt lat="45.69497723081615" lon="12.230051189957464"><ele>22.0</ele><time>2026-03-23T08:48:55.999Z</time></trkpt><trkpt lat="45.69504350047622" lon="12.22984825339004"><ele>22.0</ele><time>2026-03-23T08:48:56.999Z</time></trkpt><trkpt lat="45.69509490526246" lon="12.2296446832014"><ele>22.0</ele><time>2026-03-23T08:48:57.999Z</time></trkpt><trkpt lat="45.69514465966101" lon="12.22945652957884"><ele>22.0</ele><time>2026-03-23T08:48:58.999Z</time></trkpt><trkpt lat="45.69519546844251" lon="12.229286507863296"><ele>22.0</ele><time>2026-03-23T08:48:59.999Z</time></trkpt><trkpt lat="45.695239959990005" lon="12.229125618519246"><ele>22.0</ele><time>2026-03-23T08:49:00.999Z</time></trkpt><trkpt lat="45.695281243656865" lon="12.228969558415699"><ele>22.0</ele><time>2026-03-23T08:49:01.999Z</time></trkpt><trkpt lat="45.69532258317547" lon="12.2288238049257"><ele>22.0</ele><time>2026-03-23T08:49:02.999Z</time></trkpt><trkpt lat="45.69536215588632" lon="12.22868489946325"><ele>22.0</ele><time>2026-03-23T08:49:03.999Z</time></trkpt><trkpt lat="45.69539744277798" lon="12.228547126050143"><ele>22.0</ele><time>2026-03-23T08:49:04.999Z</time></trkpt><trkpt lat="45.69543488270771" lon="12.228401376804047"><ele>22.0</ele><time>2026-03-23T08:49:05.999Z</time></trkpt><trkpt lat="45.69548216015162" lon="12.228242394641669"><ele>22.0</ele><time>2026-03-23T08:49:06.999Z</time></trkpt><trkpt lat="45.69553008424085" lon="12.228077876482283"><ele>22.0</ele><time>2026-03-23T08:49:07.999Z</time></trkpt><trkpt lat="45.69557184735106" lon="12.22793001044835"><ele>22.0</ele><time>2026-03-23T08:49:08.999Z</time></trkpt><trkpt lat="45.69561090801188" lon="12.227785379037549"><ele>22.0</ele><time>2026-03-23T08:49:09.999Z</time></trkpt><trkpt lat="45.69565495133626" lon="12.227627110395307"><ele>22.0</ele><time>2026-03-23T08:49:10.999Z</time></trkpt><trkpt lat="45.6957238631565" lon="12.227460026898461"><ele>22.25</ele><time>2026-03-23T08:49:11.999Z</time></trkpt><trkpt lat="45.695812846267124" lon="12.227291580737154"><ele>22.5</ele><time>2026-03-23T08:49:12.999Z</time></trkpt><trkpt lat="45.69591337324412" lon="12.227141881751196"><ele>22.75</ele><time>2026-03-23T08:49:13.999Z</time></trkpt><trkpt lat="45.69602739754265" lon="12.227009566755214"><ele>23.0</ele><time>2026-03-23T08:49:14.999Z</time></trkpt><trkpt lat="45.69613431817797" lon="12.226897259193176"><ele>23.0</ele><time>2026-03-23T08:49:15.999Z</time></trkpt><trkpt lat="45.69622755520099" lon="12.226816068704355"><ele>23.0</ele><time>2026-03-23T08:49:16.999Z</time></trkpt><trkpt lat="45.696301985234776" lon="12.226763786228672"><ele>23.0</ele><time>2026-03-23T08:49:17.999Z</time></trkpt><trkpt lat="45.69637729294448" lon="12.226703439761485"><ele>23.0</ele><time>2026-03-23T08:49:19.999Z</time></trkpt><trkpt lat="45.69648079921059" lon="12.226584224212836"><ele>23.0</ele><time>2026-03-23T08:49:55Z</time></trkpt><trkpt lat="45.6965559540845" lon="12.226492461042985"><ele>23.2</ele><time>2026-03-23T08:49:56Z</time></trkpt><trkpt lat="45.69662622672088" lon="12.226415407743023"><ele>23.4</ele><time>2026-03-23T08:49:57Z</time></trkpt><trkpt lat="45.69670144488405" lon="12.226334273039742"><ele>23.599999999999998</ele><time>2026-03-23T08:49:58Z</time></trkpt><trkpt lat="45.69679492688887" lon="12.226243885436647"><ele>23.799999999999997</ele><time>2026-03-23T08:49:59Z</time></trkpt><trkpt lat="45.69689333139342" lon="12.226145254598629"><ele>24.0</ele><time>2026-03-23T08:50:00Z</time></trkpt><trkpt lat="45.696989713302706" lon="12.226055584627732"><ele>23.5</ele><time>2026-03-23T08:50:01Z</time></trkpt><trkpt lat="45.69709341735155" lon="12.225953625632265"><ele>23.0</ele><time>2026-03-23T08:50:02Z</time></trkpt><trkpt lat="45.697181489288575" lon="12.225853187860201"><ele>22.5</ele><time>2026-03-23T08:50:03Z</time></trkpt><trkpt lat="45.69727184891455" lon="12.225752060538898"><ele>22.0</ele><time>2026-03-23T08:50:04Z</time></trkpt><trkpt lat="45.6973792375098" lon="12.225654507480513"><ele>22.5</ele><time>2026-03-23T08:50:05Z</time></trkpt><trkpt lat="45.69749341749038" lon="12.225549501758733"><ele>23.0</ele><time>2026-03-23T08:50:06Z</time></trkpt><trkpt lat="45.69759893769814" lon="12.225439293910766"><ele>23.5</ele><time>2026-03-23T08:50:07Z</time></trkpt><trkpt lat="45.6977068031836" lon="12.225329812853216"><ele>24.0</ele><time>2026-03-23T08:50:08Z</time></trkpt><trkpt lat="45.697821369242156" lon="12.225212832964111"><ele>24.5</ele><time>2026-03-23T08:50:09Z</time></trkpt><trkpt lat="45.69794129569429" lon="12.225092782862419"><ele>25.0</ele><time>2026-03-23T08:50:10Z</time></trkpt><trkpt lat="45.69806276052108" lon="12.224978976350664"><ele>25.5</ele><time>2026-03-23T08:50:11Z</time></trkpt><trkpt lat="45.69818786137408" lon="12.224856705596201"><ele>26.0</ele><time>2026-03-23T08:50:12Z</time></trkpt><trkpt lat="45.698313755204055" lon="12.224733979785196"><ele>26.0</ele><time>2026-03-23T08:50:13Z</time></trkpt><trkpt lat="45.698440929384184" lon="12.224607882086266"><ele>26.0</ele><time>2026-03-23T08:50:14Z</time></trkpt><trkpt lat="45.69857019265659" lon="12.224487469745435"><ele>26.0</ele><time>2026-03-23T08:50:15Z</time></trkpt><trkpt lat="45.69869927457618" lon="12.224362419958627"><ele>25.5</ele><time>2026-03-23T08:50:16Z</time></trkpt><trkpt lat="45.69881554064295" lon="12.224244948647486"><ele>25.0</ele><time>2026-03-23T08:50:17Z</time></trkpt><trkpt lat="45.698933444208734" lon="12.224132759313871"><ele>24.5</ele><time>2026-03-23T08:50:18Z</time></trkpt><trkpt lat="45.69905944237014" lon="12.224006807070488"><ele>24.0</ele><time>2026-03-23T08:50:19Z</time></trkpt><trkpt lat="45.69918665842332" lon="12.223886462215606"><ele>24.0</ele><time>2026-03-23T08:50:20Z</time></trkpt><trkpt lat="45.69931862617729" lon="12.223764113727118"><ele>24.0</ele><time>2026-03-23T08:50:21Z</time></trkpt><trkpt lat="45.69945254817303" lon="12.223638075780617"><ele>24.0</ele><time>2026-03-23T08:50:22Z</time></trkpt><trkpt lat="45.6995876794892" lon="12.223487272570086"><ele>24.0</ele><time>2026-03-23T08:50:23Z</time></trkpt><trkpt lat="45.69974792679728" lon="12.2233405168163"><ele>24.0</ele><time>2026-03-23T08:50:24Z</time></trkpt><trkpt lat="45.6999122978779" lon="12.223184412128221"><ele>24.0</ele><time>2026-03-23T08:50:25Z</time></trkpt><trkpt lat="45.70008046488865" lon="12.223013495601904"><ele>24.0</ele><time>2026-03-23T08:50:26Z</time></trkpt><trkpt lat="45.700236857733934" lon="12.22285319434858"><ele>24.0</ele><time>2026-03-23T08:50:27Z</time></trkpt><trkpt lat="45.70039656437038" lon="12.222698066214294"><ele>24.0</ele><time>2026-03-23T08:50:28Z</time></trkpt><trkpt lat="45.700565351004" lon="12.222546528097316"><ele>24.0</ele><time>2026-03-23T08:50:29Z</time></trkpt><trkpt lat="45.70074495470522" lon="12.222392875869541"><ele>24.0</ele><time>2026-03-23T08:50:30Z</time></trkpt><trkpt lat="45.700920966665755" lon="12.222256009771312"><ele>24.0</ele><time>2026-03-23T08:50:30.999Z</time></trkpt><trkpt lat="45.701093337989434" lon="12.22214200521568"><ele>24.333333333333336</ele><time>2026-03-23T08:50:31.999Z</time></trkpt><trkpt lat="45.70127006694955" lon="12.222061000386232"><ele>24.666666666666668</ele><time>2026-03-23T08:50:32.999Z</time></trkpt><trkpt lat="45.70142533725634" lon="12.221963878663862"><ele>25.0</ele><time>2026-03-23T08:50:33.999Z</time></trkpt><trkpt lat="45.701580426670226" lon="12.221869576007824"><ele>25.0</ele><time>2026-03-23T08:50:34.999Z</time></trkpt><trkpt lat="45.70173305496858" lon="12.221773603629886"><ele>25.0</ele><time>2026-03-23T08:50:35.999Z</time></trkpt><trkpt lat="45.70188684550927" lon="12.221687054166832"><ele>25.0</ele><time>2026-03-23T08:50:36.999Z</time></trkpt><trkpt lat="45.702032978964574" lon="12.221603054609652"><ele>24.75</ele><time>2026-03-23T08:50:37.999Z</time></trkpt><trkpt lat="45.702165837943305" lon="12.221520185759399"><ele>24.5</ele><time>2026-03-23T08:50:38.999Z</time></trkpt><trkpt lat="45.70229347776872" lon="12.2214446716716"><ele>24.25</ele><time>2026-03-23T08:50:39.999Z</time></trkpt><trkpt lat="45.70241775534675" lon="12.221371720652712"><ele>24.0</ele><time>2026-03-23T08:50:40.999Z</time></trkpt><trkpt lat="45.70253437456285" lon="12.221305062532634"><ele>24.0</ele><time>2026-03-23T08:50:41.999Z</time></trkpt><trkpt lat="45.70263110870239" lon="12.221244056176436"><ele>24.0</ele><time>2026-03-23T08:50:42.999Z</time></trkpt><trkpt lat="45.70272537024328" lon="12.221185497552108"><ele>24.0</ele><time>2026-03-23T08:50:43.999Z</time></trkpt><trkpt lat="45.702810829897885" lon="12.221135367116403"><ele>24.0</ele><time>2026-03-23T08:50:44.999Z</time></trkpt><trkpt lat="45.70289148693295" lon="12.221086580106299"><ele>24.0</ele><time>2026-03-23T08:50:45.999Z</time></trkpt><trkpt lat="45.70296908217182" lon="12.22103457929749"><ele>23.6</ele><time>2026-03-23T08:50:46.999Z</time></trkpt><trkpt lat="45.70303835349645" lon="12.220999819719562"><ele>23.2</ele><time>2026-03-23T08:50:47.999Z</time></trkpt><trkpt lat="45.703141259972845" lon="12.220935704390692"><ele>22.8</ele><time>2026-03-23T08:50:49.999Z</time></trkpt><trkpt lat="45.7032383971089" lon="12.220896506504245"><ele>22.400000000000002</ele><time>2026-03-23T08:50:51.999Z</time></trkpt><trkpt lat="45.70336849761995" lon="12.220816219394804"><ele>22.0</ele><time>2026-03-23T08:50:53.999Z</time></trkpt><trkpt lat="45.70346161611788" lon="12.22080470995746"><ele>22.0</ele><time>2026-03-23T08:50:54.999Z</time></trkpt><trkpt lat="45.703553253538864" lon="12.220828859797356"><ele>22.0</ele><time>2026-03-23T08:50:55.999Z</time></trkpt><trkpt lat="45.70362162102929" lon="12.220812351229212"><ele>22.0</ele><time>2026-03-23T08:50:56.999Z</time></trkpt><trkpt lat="45.70367882544333" lon="12.220747027407398"><ele>22.0</ele><time>2026-03-23T08:50:57.999Z</time></trkpt><trkpt lat="45.703733162496825" lon="12.220647319120578"><ele>22.0</ele><time>2026-03-23T08:50:58.999Z</time></trkpt><trkpt lat="45.703819072650106" lon="12.22053070294428"><ele>22.0</ele><time>2026-03-23T08:50:59.999Z</time></trkpt><trkpt lat="45.703938646010926" lon="12.22044847761044"><ele>23.666666666666664</ele><time>2026-03-23T08:51:00.999Z</time></trkpt><trkpt lat="45.70406683267654" lon="12.220353945675745"><ele>25.333333333333332</ele><time>2026-03-23T08:51:01.999Z</time></trkpt><trkpt lat="45.704218953649665" lon="12.220275282093661"><ele>27.0</ele><time>2026-03-23T08:51:02.999Z</time></trkpt><trkpt lat="45.704383118519466" lon="12.22012758428993"><ele>27.0</ele><time>2026-03-23T08:51:03.999Z</time></trkpt><trkpt lat="45.704563387911804" lon="12.220007247667743"><ele>27.0</ele><time>2026-03-23T08:51:04.999Z</time></trkpt><trkpt lat="45.70475130686875" lon="12.219880672792176"><ele>27.0</ele><time>2026-03-23T08:51:05.999Z</time></trkpt><trkpt lat="45.70495435300317" lon="12.219747029452925"><ele>27.5</ele><time>2026-03-23T08:51:06.999Z</time></trkpt><trkpt lat="45.705168423903025" lon="12.219606928113404"><ele>28.0</ele><time>2026-03-23T08:51:07.999Z</time></trkpt><trkpt lat="45.70539646773398" lon="12.21945683630589"><ele>27.0</ele><time>2026-03-23T08:51:08.999Z</time></trkpt><trkpt lat="45.70565205796165" lon="12.219329416607916"><ele>26.0</ele><time>2026-03-23T08:51:09.999Z</time></trkpt><trkpt lat="45.705906046452576" lon="12.21916165904278"><ele>26.0</ele><time>2026-03-23T08:51:10.999Z</time></trkpt><trkpt lat="45.70613450826807" lon="12.219009293694235"><ele>26.0</ele><time>2026-03-23T08:51:11.999Z</time></trkpt><trkpt lat="45.706360154478034" lon="12.218857980775399"><ele>25.666666666666664</ele><time>2026-03-23T08:51:12.999Z</time></trkpt><trkpt lat="45.706567658638775" lon="12.218717680086773"><ele>25.333333333333336</ele><time>2026-03-23T08:51:13.999Z</time></trkpt><trkpt lat="45.70675842294024" lon="12.218590051050443"><ele>25.0</ele><time>2026-03-23T08:51:14.999Z</time></trkpt><trkpt lat="45.70693788459786" lon="12.218469965933554"><ele>25.333333333333336</ele><time>2026-03-23T08:51:15.999Z</time></trkpt><trkpt lat="45.70710866772777" lon="12.218349522869254"><ele>25.666666666666664</ele><time>2026-03-23T08:51:16.999Z</time></trkpt><trkpt lat="45.70727481540517" lon="12.218234572335625"><ele>26.0</ele><time>2026-03-23T08:51:17.999Z</time></trkpt><trkpt lat="45.7074392981544" lon="12.218125251686601"><ele>26.0</ele><time>2026-03-23T08:51:18.999Z</time></trkpt><trkpt lat="45.707595365180005" lon="12.218028785734784"><ele>26.0</ele><time>2026-03-23T08:51:19.999Z</time></trkpt><trkpt lat="45.70775580551586" lon="12.217920840942176"><ele>26.0</ele><time>2026-03-23T08:51:20.999Z</time></trkpt><trkpt lat="45.707930722805756" lon="12.217766803041586"><ele>27.0</ele><time>2026-03-23T08:51:21.999Z</time></trkpt><trkpt lat="45.708104478763936" lon="12.21757849488738"><ele>28.0</ele><time>2026-03-23T08:51:22.999Z</time></trkpt><trkpt lat="45.70828999792746" lon="12.21736217093204"><ele>28.5</ele><time>2026-03-23T08:51:23.999Z</time></trkpt><trkpt lat="45.7084844050615" lon="12.217154984331552"><ele>29.0</ele><time>2026-03-23T08:51:24.999Z</time></trkpt><trkpt lat="45.70867093377141" lon="12.216965022361158"><ele>29.333333333333332</ele><time>2026-03-23T08:51:25.999Z</time></trkpt><trkpt lat="45.70883790818522" lon="12.216792539884262"><ele>29.666666666666664</ele><time>2026-03-23T08:51:26.999Z</time></trkpt><trkpt lat="45.70899506586119" lon="12.21662946054196"><ele>30.0</ele><time>2026-03-23T08:51:27.999Z</time></trkpt><trkpt lat="45.70913993368222" lon="12.216473121338632"><ele>30.333333333333336</ele><time>2026-03-23T08:51:29Z</time></trkpt><trkpt lat="45.709276170576636" lon="12.21632977814725"><ele>30.666666666666668</ele><time>2026-03-23T08:51:30Z</time></trkpt><trkpt lat="45.70940474801391" lon="12.216193330244469"><ele>31.0</ele><time>2026-03-23T08:51:31Z</time></trkpt><trkpt lat="45.70952943751703" lon="12.216067690088925"><ele>31.25</ele><time>2026-03-23T08:51:32Z</time></trkpt><trkpt lat="45.7096427492618" lon="12.21594831924534"><ele>31.5</ele><time>2026-03-23T08:51:33Z</time></trkpt><trkpt lat="45.70974927894118" lon="12.215835326957821"><ele>31.75</ele><time>2026-03-23T08:51:34Z</time></trkpt><trkpt lat="45.7098494520709" lon="12.215727956481524"><ele>32.0</ele><time>2026-03-23T08:51:35Z</time></trkpt><trkpt lat="45.709944485124204" lon="12.215629626206635"><ele>32.0</ele><time>2026-03-23T08:51:36Z</time></trkpt><trkpt lat="45.71003336114234" lon="12.215535627114761"><ele>32.0</ele><time>2026-03-23T08:51:37Z</time></trkpt><trkpt lat="45.710125041760314" lon="12.215441353389176"><ele>32.0</ele><time>2026-03-23T08:51:38Z</time></trkpt><trkpt lat="45.710228037693504" lon="12.215318618633518"><ele>32.0</ele><time>2026-03-23T08:51:39Z</time></trkpt><trkpt lat="45.710347116971676" lon="12.215175654751233"><ele>32.0</ele><time>2026-03-23T08:51:40Z</time></trkpt><trkpt lat="45.71047103442565" lon="12.215033713973797"><ele>32.0</ele><time>2026-03-23T08:51:41Z</time></trkpt><trkpt lat="45.710591673634354" lon="12.21488921366775"><ele>32.0</ele><time>2026-03-23T08:51:42Z</time></trkpt><trkpt lat="45.7107079030886" lon="12.214745904643449"><ele>32.0</ele><time>2026-03-23T08:51:43Z</time></trkpt><trkpt lat="45.71082586463855" lon="12.214604305247322"><ele>32.0</ele><time>2026-03-23T08:51:44Z</time></trkpt><trkpt lat="45.71095648029677" lon="12.214470915785128"><ele>32.0</ele><time>2026-03-23T08:51:45Z</time></trkpt><trkpt lat="45.71110072940032" lon="12.214327214764166"><ele>32.0</ele><time>2026-03-23T08:51:46Z</time></trkpt><trkpt lat="45.71123571144218" lon="12.214180693763707"><ele>32.0</ele><time>2026-03-23T08:51:47Z</time></trkpt><trkpt lat="45.71137054383361" lon="12.21403726287222"><ele>32.0</ele><time>2026-03-23T08:51:48Z</time></trkpt><trkpt lat="45.711517418928345" lon="12.213891769700528"><ele>32.0</ele><time>2026-03-23T08:51:49Z</time></trkpt><trkpt lat="45.711682251277" lon="12.21374001812564"><ele>32.0</ele><time>2026-03-23T08:51:50Z</time></trkpt><trkpt lat="45.71186376080065" lon="12.213591888932193"><ele>32.0</ele><time>2026-03-23T08:51:51Z</time></trkpt><trkpt lat="45.71203264920024" lon="12.213443682224716"><ele>31.666666666666664</ele><time>2026-03-23T08:51:52Z</time></trkpt><trkpt lat="45.712182443438074" lon="12.213300834368075"><ele>31.333333333333336</ele><time>2026-03-23T08:51:53Z</time></trkpt><trkpt lat="45.712316649083576" lon="12.213176597526497"><ele>31.0</ele><time>2026-03-23T08:51:54Z</time></trkpt><trkpt lat="45.712443796500125" lon="12.213067736368806"><ele>31.5</ele><time>2026-03-23T08:51:55Z</time></trkpt><trkpt lat="45.712561494905174" lon="12.212969039572553"><ele>32.0</ele><time>2026-03-23T08:51:56Z</time></trkpt><trkpt lat="45.71267102090014" lon="12.21286910831242"><ele>32.5</ele><time>2026-03-23T08:51:57Z</time></trkpt><trkpt lat="45.71278013913799" lon="12.21276957523212"><ele>33.0</ele><time>2026-03-23T08:51:58Z</time></trkpt><trkpt lat="45.71289137546192" lon="12.212672685324522"><ele>33.0</ele><time>2026-03-23T08:51:59Z</time></trkpt><trkpt lat="45.71300197879627" lon="12.212575581455614"><ele>33.0</ele><time>2026-03-23T08:52:00Z</time></trkpt><trkpt lat="45.71310392634246" lon="12.21248269272763"><ele>33.0</ele><time>2026-03-23T08:52:01Z</time></trkpt><trkpt lat="45.71320157405238" lon="12.21239346349705"><ele>33.0</ele><time>2026-03-23T08:52:02Z</time></trkpt><trkpt lat="45.713301600687906" lon="12.212294234672413"><ele>33.0</ele><time>2026-03-23T08:52:03Z</time></trkpt><trkpt lat="45.71341344668372" lon="12.212195596983761"><ele>33.0</ele><time>2026-03-23T08:52:04Z</time></trkpt><trkpt lat="45.71353260861803" lon="12.212100006448187"><ele>33.0</ele><time>2026-03-23T08:52:05Z</time></trkpt><trkpt lat="45.71363992787322" lon="12.211997003679734"><ele>33.0</ele><time>2026-03-23T08:52:06Z</time></trkpt><trkpt lat="45.71374192049642" lon="12.21190387002611"><ele>33.0</ele><time>2026-03-23T08:52:07Z</time></trkpt><trkpt lat="45.71384825115486" lon="12.211813580319651"><ele>33.0</ele><time>2026-03-23T08:52:08Z</time></trkpt><trkpt lat="45.713962919678984" lon="12.211712951828561"><ele>33.0</ele><time>2026-03-23T08:52:09Z</time></trkpt><trkpt lat="45.71408880904582" lon="12.211596103706189"><ele>33.0</ele><time>2026-03-23T08:52:10Z</time></trkpt><trkpt lat="45.71422769923126" lon="12.211481858489627"><ele>32.333333333333336</ele><time>2026-03-23T08:52:11Z</time></trkpt><trkpt lat="45.71436409902569" lon="12.211347994404969"><ele>31.666666666666668</ele><time>2026-03-23T08:52:12Z</time></trkpt><trkpt lat="45.71449068493489" lon="12.211181354007827"><ele>31.0</ele><time>2026-03-23T08:52:13Z</time></trkpt><trkpt lat="45.71461338154573" lon="12.211024647276083"><ele>31.0</ele><time>2026-03-23T08:52:14Z</time></trkpt><trkpt lat="45.71471529896007" lon="12.210894448054553"><ele>31.0</ele><time>2026-03-23T08:52:15Z</time></trkpt><trkpt lat="45.714807897823036" lon="12.210765602520434"><ele>31.0</ele><time>2026-03-23T08:52:16Z</time></trkpt><trkpt lat="45.71489500238749" lon="12.21064393310514"><ele>31.0</ele><time>2026-03-23T08:52:17Z</time></trkpt><trkpt lat="45.71498173091978" lon="12.210533726923783"><ele>31.200000000000003</ele><time>2026-03-23T08:52:18Z</time></trkpt><trkpt lat="45.7150622707021" lon="12.21043363515555"><ele>31.400000000000002</ele><time>2026-03-23T08:52:19Z</time></trkpt><trkpt lat="45.715136828257776" lon="12.210332531487042"><ele>31.6</ele><time>2026-03-23T08:52:20Z</time></trkpt><trkpt lat="45.71520542586085" lon="12.210236695065573"><ele>31.8</ele><time>2026-03-23T08:52:21Z</time></trkpt><trkpt lat="45.715272105548934" lon="12.210154988557925"><ele>32.0</ele><time>2026-03-23T08:52:22Z</time></trkpt><trkpt lat="45.71534151618474" lon="12.210075366654367"><ele>32.0</ele><time>2026-03-23T08:52:23Z</time></trkpt><trkpt lat="45.71541294774411" lon="12.209983955372348"><ele>32.0</ele><time>2026-03-23T08:52:24Z</time></trkpt><trkpt lat="45.71549437714686" lon="12.209891210349376"><ele>32.0</ele><time>2026-03-23T08:52:25Z</time></trkpt><trkpt lat="45.71558075702954" lon="12.209788530138802"><ele>32.0</ele><time>2026-03-23T08:52:26Z</time></trkpt><trkpt lat="45.71566842400832" lon="12.20967522374095"><ele>32.0</ele><time>2026-03-23T08:52:27Z</time></trkpt><trkpt lat="45.71575565215841" lon="12.209566105630971"><ele>32.33333333333333</ele><time>2026-03-23T08:52:28Z</time></trkpt><trkpt lat="45.71583191079144" lon="12.209467786556953"><ele>32.666666666666664</ele><time>2026-03-23T08:52:29Z</time></trkpt><trkpt lat="45.71589499734666" lon="12.209383803718207"><ele>33.0</ele><time>2026-03-23T08:52:30Z</time></trkpt><trkpt lat="45.715953866522746" lon="12.20932363074224"><ele>33.333333333333336</ele><time>2026-03-23T08:52:31Z</time></trkpt><trkpt lat="45.716006537255396" lon="12.20927295338384"><ele>33.66666666666667</ele><time>2026-03-23T08:52:32Z</time></trkpt><trkpt lat="45.71609940986896" lon="12.209165963105981"><ele>34.0</ele><time>2026-03-23T08:52:34Z</time></trkpt><trkpt lat="45.71615412292722" lon="12.209103367720845"><ele>34.16666666666667</ele><time>2026-03-23T08:52:35Z</time></trkpt><trkpt lat="45.71621856557461" lon="12.209024633734284"><ele>34.333333333333336</ele><time>2026-03-23T08:52:36Z</time></trkpt><trkpt lat="45.71628908613173" lon="12.208948528995489"><ele>34.5</ele><time>2026-03-23T08:52:36.999Z</time></trkpt><trkpt lat="45.7163655822925" lon="12.208885321794895"><ele>34.666666666666664</ele><time>2026-03-23T08:52:37.999Z</time></trkpt><trkpt lat="45.71644318886441" lon="12.208828515297386"><ele>34.83333333333333</ele><time>2026-03-23T08:52:38.999Z</time></trkpt><trkpt lat="45.7165073762612" lon="12.208784853115544"><ele>35.0</ele><time>2026-03-23T08:52:39.999Z</time></trkpt><trkpt lat="45.71657106600448" lon="12.208751512478688"><ele>35.25</ele><time>2026-03-23T08:52:40.999Z</time></trkpt><trkpt lat="45.71665317017359" lon="12.208744641027984"><ele>35.5</ele><time>2026-03-23T08:52:41.999Z</time></trkpt><trkpt lat="45.71676206277533" lon="12.208707332726616"><ele>35.75</ele><time>2026-03-23T08:52:42.999Z</time></trkpt><trkpt lat="45.71689157917696" lon="12.208651770126393"><ele>36.0</ele><time>2026-03-23T08:52:43.999Z</time></trkpt><trkpt lat="45.717029661424746" lon="12.208618382785493"><ele>36.25</ele><time>2026-03-23T08:52:44.999Z</time></trkpt><trkpt lat="45.717168091092226" lon="12.208585239214788"><ele>36.5</ele><time>2026-03-23T08:52:45.999Z</time></trkpt><trkpt lat="45.71729759059841" lon="12.20853713890267"><ele>36.75</ele><time>2026-03-23T08:52:46.999Z</time></trkpt><trkpt lat="45.71742172086424" lon="12.208492393279046"><ele>37.0</ele><time>2026-03-23T08:52:47.999Z</time></trkpt><trkpt lat="45.717546620428074" lon="12.208459064666476"><ele>37.0</ele><time>2026-03-23T08:52:48.999Z</time></trkpt><trkpt lat="45.717684072377" lon="12.208439942645674"><ele>37.0</ele><time>2026-03-23T08:52:49.999Z</time></trkpt><trkpt lat="45.71782479256299" lon="12.20842853243152"><ele>37.0</ele><time>2026-03-23T08:52:50.999Z</time></trkpt><trkpt lat="45.71797202166531" lon="12.20841220878014"><ele>37.0</ele><time>2026-03-23T08:52:51.999Z</time></trkpt><trkpt lat="45.7181127682964" lon="12.208397161641129"><ele>37.25</ele><time>2026-03-23T08:52:52.999Z</time></trkpt><trkpt lat="45.718241311499455" lon="12.208384907982735"><ele>37.5</ele><time>2026-03-23T08:52:53.999Z</time></trkpt><trkpt lat="45.7183647965461" lon="12.208362415215777"><ele>37.75</ele><time>2026-03-23T08:52:54.999Z</time></trkpt><trkpt lat="45.71848873904255" lon="12.20831745827264"><ele>38.0</ele><time>2026-03-23T08:52:55.999Z</time></trkpt><trkpt lat="45.718619887453904" lon="12.208265464783688"><ele>38.0</ele><time>2026-03-23T08:52:56.999Z</time></trkpt><trkpt lat="45.718756468370735" lon="12.208227514976818"><ele>38.0</ele><time>2026-03-23T08:52:57.999Z</time></trkpt><trkpt lat="45.718895211632955" lon="12.208179853138057"><ele>38.0</ele><time>2026-03-23T08:52:58.999Z</time></trkpt><trkpt lat="45.71902802662261" lon="12.208121557219975"><ele>38.0</ele><time>2026-03-23T08:52:59.999Z</time></trkpt><trkpt lat="45.71914401180815" lon="12.208070171662198"><ele>37.75</ele><time>2026-03-23T08:53:00.999Z</time></trkpt><trkpt lat="45.71925371160422" lon="12.207986033943378"><ele>37.5</ele><time>2026-03-23T08:53:01.999Z</time></trkpt><trkpt lat="45.71936743468017" lon="12.207859599220543"><ele>37.25</ele><time>2026-03-23T08:53:02.999Z</time></trkpt><trkpt lat="45.71946836507583" lon="12.207738090038015"><ele>37.0</ele><time>2026-03-23T08:53:03.999Z</time></trkpt><trkpt lat="45.719555648691134" lon="12.207615148898626"><ele>37.0</ele><time>2026-03-23T08:53:04.999Z</time></trkpt><trkpt lat="45.719627086351245" lon="12.207491930617417"><ele>37.0</ele><time>2026-03-23T08:53:05.999Z</time></trkpt><trkpt lat="45.71969364313018" lon="12.207379282526208"><ele>37.0</ele><time>2026-03-23T08:53:06.999Z</time></trkpt><trkpt lat="45.71975716302246" lon="12.20727354062713"><ele>37.0</ele><time>2026-03-23T08:53:07.999Z</time></trkpt><trkpt lat="45.71981505257962" lon="12.207174288221653"><ele>37.0</ele><time>2026-03-23T08:53:08.999Z</time></trkpt><trkpt lat="45.71987559559851" lon="12.207083074028814"><ele>36.833333333333336</ele><time>2026-03-23T08:53:09.999Z</time></trkpt><trkpt lat="45.71993101377935" lon="12.20699317360641"><ele>36.66666666666667</ele><time>2026-03-23T08:53:10.999Z</time></trkpt><trkpt lat="45.71998281439352" lon="12.20689613592234"><ele>36.5</ele><time>2026-03-23T08:53:11.999Z</time></trkpt><trkpt lat="45.72003523648817" lon="12.206807468268766"><ele>36.333333333333336</ele><time>2026-03-23T08:53:12.999Z</time></trkpt><trkpt lat="45.72008262194438" lon="12.206729064824325"><ele>36.166666666666664</ele><time>2026-03-23T08:53:13.999Z</time></trkpt><trkpt lat="45.720123722705225" lon="12.206654920813824"><ele>36.0</ele><time>2026-03-23T08:53:14.999Z</time></trkpt><trkpt lat="45.72019528154306" lon="12.206523567288572"><ele>36.0</ele><time>2026-03-23T08:53:16.999Z</time></trkpt><trkpt lat="45.72025284634405" lon="12.206411669138904"><ele>36.0</ele><time>2026-03-23T08:53:18.999Z</time></trkpt><trkpt lat="45.720330457451944" lon="12.206273056588724"><ele>36.0</ele><time>2026-03-23T08:53:20.999Z</time></trkpt><trkpt lat="45.72040565919143" lon="12.206180326366606"><ele>36.0</ele><time>2026-03-23T08:53:21.999Z</time></trkpt><trkpt lat="45.72050281079142" lon="12.206075464623348"><ele>36.0</ele><time>2026-03-23T08:53:22.999Z</time></trkpt><trkpt lat="45.720606254343515" lon="12.205933288972426"><ele>36.0</ele><time>2026-03-23T08:53:23.999Z</time></trkpt><trkpt lat="45.72068800928957" lon="12.205789084120434"><ele>36.0</ele><time>2026-03-23T08:53:24.999Z</time></trkpt><trkpt lat="45.720783935576186" lon="12.20565332252785"><ele>36.0</ele><time>2026-03-23T08:53:25.999Z</time></trkpt><trkpt lat="45.7209719111771" lon="12.20538011493526"><ele>36.666666666666664</ele><time>2026-03-23T08:53:26.999Z</time></trkpt><trkpt lat="45.72110898307311" lon="12.205176034404214"><ele>37.33333333333333</ele><time>2026-03-23T08:53:27.999Z</time></trkpt><trkpt lat="45.72125282933776" lon="12.204976604604493"><ele>38.0</ele><time>2026-03-23T08:53:28.999Z</time></trkpt><trkpt lat="45.72137873501953" lon="12.204769463447898"><ele>38.33333333333333</ele><time>2026-03-23T08:53:29.999Z</time></trkpt><trkpt lat="45.72149062480491" lon="12.204604585764844"><ele>38.666666666666664</ele><time>2026-03-23T08:53:30.999Z</time></trkpt><trkpt lat="45.72159953986482" lon="12.204460821709752"><ele>39.0</ele><time>2026-03-23T08:53:31.999Z</time></trkpt><trkpt lat="45.721710810732496" lon="12.204298410687448"><ele>39.0</ele><time>2026-03-23T08:53:32.999Z</time></trkpt><trkpt lat="45.721815250096626" lon="12.204142503647008"><ele>39.0</ele><time>2026-03-23T08:53:34Z</time></trkpt><trkpt lat="45.721909980824286" lon="12.20400845213796"><ele>39.0</ele><time>2026-03-23T08:53:35Z</time></trkpt><trkpt lat="45.72199721227946" lon="12.203870014357202"><ele>39.0</ele><time>2026-03-23T08:53:36Z</time></trkpt><trkpt lat="45.72208512558266" lon="12.203742089945235"><ele>38.5</ele><time>2026-03-23T08:53:37Z</time></trkpt><trkpt lat="45.7221698147718" lon="12.20362736178545"><ele>38.0</ele><time>2026-03-23T08:53:38Z</time></trkpt><trkpt lat="45.72225643149836" lon="12.203503187160688"><ele>37.5</ele><time>2026-03-23T08:53:39Z</time></trkpt><trkpt lat="45.72234219520755" lon="12.20338011815761"><ele>37.0</ele><time>2026-03-23T08:53:40Z</time></trkpt><trkpt lat="45.7224290502232" lon="12.20325285621735"><ele>37.25</ele><time>2026-03-23T08:53:41Z</time></trkpt><trkpt lat="45.72251471599735" lon="12.203129797996723"><ele>37.5</ele><time>2026-03-23T08:53:42Z</time></trkpt><trkpt lat="45.72261507432887" lon="12.202991011947095"><ele>37.75</ele><time>2026-03-23T08:53:43Z</time></trkpt><trkpt lat="45.722711565593286" lon="12.202846015937077"><ele>38.0</ele><time>2026-03-23T08:53:44Z</time></trkpt><trkpt lat="45.722799173803516" lon="12.202713000831642"><ele>37.75</ele><time>2026-03-23T08:53:45Z</time></trkpt><trkpt lat="45.72288727310009" lon="12.20259188320654"><ele>37.5</ele><time>2026-03-23T08:53:46Z</time></trkpt><trkpt lat="45.72298418493837" lon="12.202460604523457"><ele>37.25</ele><time>2026-03-23T08:53:47Z</time></trkpt><trkpt lat="45.72308106638936" lon="12.20231200728445"><ele>37.0</ele><time>2026-03-23T08:53:48Z</time></trkpt><trkpt lat="45.72317944619009" lon="12.202160283533152"><ele>37.0</ele><time>2026-03-23T08:53:49Z</time></trkpt><trkpt lat="45.72327828570074" lon="12.202010314669433"><ele>37.0</ele><time>2026-03-23T08:53:50Z</time></trkpt><trkpt lat="45.723382460483315" lon="12.201866494394501"><ele>37.0</ele><time>2026-03-23T08:53:51Z</time></trkpt><trkpt lat="45.723487478447275" lon="12.201706353341324"><ele>37.0</ele><time>2026-03-23T08:53:52Z</time></trkpt><trkpt lat="45.7235908497038" lon="12.201554100506252"><ele>37.66666666666667</ele><time>2026-03-23T08:53:53Z</time></trkpt><trkpt lat="45.72369886348903" lon="12.201391852025733"><ele>38.333333333333336</ele><time>2026-03-23T08:53:54Z</time></trkpt><trkpt lat="45.7238092213686" lon="12.201229053826852"><ele>39.0</ele><time>2026-03-23T08:53:55Z</time></trkpt><trkpt lat="45.7239195535352" lon="12.201072530067417"><ele>39.0</ele><time>2026-03-23T08:53:56Z</time></trkpt><trkpt lat="45.72401778404723" lon="12.200931985632202"><ele>39.0</ele><time>2026-03-23T08:53:57Z</time></trkpt><trkpt lat="45.72411117603404" lon="12.200796886375644"><ele>39.0</ele><time>2026-03-23T08:53:58Z</time></trkpt><trkpt lat="45.72419894526994" lon="12.200668052237367"><ele>39.0</ele><time>2026-03-23T08:53:59Z</time></trkpt><trkpt lat="45.724290318574056" lon="12.200528553194674"><ele>39.0</ele><time>2026-03-23T08:54:00Z</time></trkpt><trkpt lat="45.724390512580534" lon="12.200374536573351"><ele>39.0</ele><time>2026-03-23T08:54:01Z</time></trkpt><trkpt lat="45.724499566212835" lon="12.200209242167121"><ele>39.0</ele><time>2026-03-23T08:54:02Z</time></trkpt><trkpt lat="45.72461143365274" lon="12.200043865282494"><ele>39.25</ele><time>2026-03-23T08:54:03Z</time></trkpt><trkpt lat="45.72471567010449" lon="12.199898994644903"><ele>39.5</ele><time>2026-03-23T08:54:04Z</time></trkpt><trkpt lat="45.724807608746914" lon="12.199767644788968"><ele>39.75</ele><time>2026-03-23T08:54:05Z</time></trkpt><trkpt lat="45.72489293074051" lon="12.19964183098094"><ele>40.0</ele><time>2026-03-23T08:54:06Z</time></trkpt><trkpt lat="45.724978287250266" lon="12.199514882695711"><ele>40.0</ele><time>2026-03-23T08:54:07Z</time></trkpt><trkpt lat="45.72506663787575" lon="12.199394465642417"><ele>40.0</ele><time>2026-03-23T08:54:08Z</time></trkpt><trkpt lat="45.72515194696434" lon="12.199276766257581"><ele>40.0</ele><time>2026-03-23T08:54:09Z</time></trkpt><trkpt lat="45.72522702244437" lon="12.19916415996521"><ele>40.0</ele><time>2026-03-23T08:54:10Z</time></trkpt><trkpt lat="45.72529750820411" lon="12.199062143226767"><ele>40.0</ele><time>2026-03-23T08:54:11Z</time></trkpt><trkpt lat="45.72536818048806" lon="12.198962802254597"><ele>40.0</ele><time>2026-03-23T08:54:12Z</time></trkpt><trkpt lat="45.72543911278778" lon="12.198860113696828"><ele>40.0</ele><time>2026-03-23T08:54:13Z</time></trkpt><trkpt lat="45.725517061657484" lon="12.198745017766969"><ele>40.0</ele><time>2026-03-23T08:54:14Z</time></trkpt><trkpt lat="45.725600797716304" lon="12.198624214542987"><ele>40.0</ele><time>2026-03-23T08:54:15Z</time></trkpt><trkpt lat="45.725683724497" lon="12.198496116619614"><ele>40.0</ele><time>2026-03-23T08:54:16Z</time></trkpt><trkpt lat="45.725760444341844" lon="12.198372251535279"><ele>40.0</ele><time>2026-03-23T08:54:17Z</time></trkpt><trkpt lat="45.725837911216836" lon="12.198260054634487"><ele>40.0</ele><time>2026-03-23T08:54:18Z</time></trkpt><trkpt lat="45.72591087464413" lon="12.198158265278183"><ele>40.0</ele><time>2026-03-23T08:54:19Z</time></trkpt><trkpt lat="45.7259808578728" lon="12.198048837552571"><ele>40.0</ele><time>2026-03-23T08:54:20Z</time></trkpt><trkpt lat="45.72605396629198" lon="12.197940760565595"><ele>40.4</ele><time>2026-03-23T08:54:21Z</time></trkpt><trkpt lat="45.72613393409351" lon="12.197833175119893"><ele>40.8</ele><time>2026-03-23T08:54:22Z</time></trkpt><trkpt lat="45.72620325105888" lon="12.197731451913613"><ele>41.2</ele><time>2026-03-23T08:54:23Z</time></trkpt><trkpt lat="45.7262633015372" lon="12.197625188619659"><ele>41.6</ele><time>2026-03-23T08:54:24Z</time></trkpt><trkpt lat="45.726288179998384" lon="12.197504404237351"><ele>42.0</ele><time>2026-03-23T08:54:25Z</time></trkpt><trkpt lat="45.72629967167302" lon="12.197409308298498"><ele>41.833333333333336</ele><time>2026-03-23T08:54:26Z</time></trkpt><trkpt lat="45.72631162553428" lon="12.197289478984866"><ele>41.666666666666664</ele><time>2026-03-23T08:54:28Z</time></trkpt><trkpt lat="45.72633374164535" lon="12.19718213787629"><ele>41.5</ele><time>2026-03-23T08:54:33Z</time></trkpt><trkpt lat="45.72635789533808" lon="12.197077523525559"><ele>41.33333333333333</ele><time>2026-03-23T08:54:36.999Z</time></trkpt><trkpt lat="45.72642461509905" lon="12.197005481561693"><ele>41.166666666666664</ele><time>2026-03-23T08:54:41.999Z</time></trkpt><trkpt lat="45.72649012854175" lon="12.19698422611104"><ele>41.0</ele><time>2026-03-23T08:54:43.999Z</time></trkpt><trkpt lat="45.72663730935318" lon="12.197036277743036"><ele>41.0</ele><time>2026-03-23T08:54:45.999Z</time></trkpt><trkpt lat="45.726722003444024" lon="12.197050720639067"><ele>41.0</ele><time>2026-03-23T08:54:46.999Z</time></trkpt><trkpt lat="45.726796750947436" lon="12.197018281126013"><ele>41.0</ele><time>2026-03-23T08:54:47.999Z</time></trkpt><trkpt lat="45.726871962618624" lon="12.196958742886565"><ele>41.0</ele><time>2026-03-23T08:54:48.999Z</time></trkpt><trkpt lat="45.72696580701229" lon="12.196890033115862"><ele>41.0</ele><time>2026-03-23T08:54:49.999Z</time></trkpt><trkpt lat="45.72705076900917" lon="12.196847702384362"><ele>41.0</ele><time>2026-03-23T08:54:50.999Z</time></trkpt><trkpt lat="45.727136064256975" lon="12.196813340664372"><ele>41.4</ele><time>2026-03-23T08:54:51.999Z</time></trkpt><trkpt lat="45.72721822112381" lon="12.196777274560594"><ele>41.8</ele><time>2026-03-23T08:54:52.999Z</time></trkpt><trkpt lat="45.727316459256585" lon="12.19677432407691"><ele>42.199999999999996</ele><time>2026-03-23T08:54:53.999Z</time></trkpt><trkpt lat="45.72740835212823" lon="12.196729900008725"><ele>42.599999999999994</ele><time>2026-03-23T08:54:54.999Z</time></trkpt><trkpt lat="45.72750102544053" lon="12.196676553042645"><ele>43.0</ele><time>2026-03-23T08:54:55.999Z</time></trkpt><trkpt lat="45.7275918993377" lon="12.19661024524933"><ele>43.0</ele><time>2026-03-23T08:54:56.999Z</time></trkpt><trkpt lat="45.727690939926475" lon="12.19655777636708"><ele>43.0</ele><time>2026-03-23T08:54:57.999Z</time></trkpt><trkpt lat="45.72779214752957" lon="12.196498598413093"><ele>43.0</ele><time>2026-03-23T08:54:58.999Z</time></trkpt><trkpt lat="45.727885622262576" lon="12.196443019592829"><ele>43.0</ele><time>2026-03-23T08:54:59.999Z</time></trkpt><trkpt lat="45.72796928148937" lon="12.196398853729752"><ele>43.0</ele><time>2026-03-23T08:55:00.999Z</time></trkpt><trkpt lat="45.72805665060731" lon="12.1963509540745"><ele>43.0</ele><time>2026-03-23T08:55:01.999Z</time></trkpt><trkpt lat="45.728160783307814" lon="12.196286131304566"><ele>43.0</ele><time>2026-03-23T08:55:02.999Z</time></trkpt><trkpt lat="45.728284513618185" lon="12.196205205470324"><ele>43.0</ele><time>2026-03-23T08:55:03.999Z</time></trkpt><trkpt lat="45.7284275719743" lon="12.196118946928147"><ele>43.0</ele><time>2026-03-23T08:55:04.999Z</time></trkpt><trkpt lat="45.72857021119796" lon="12.196028361607166"><ele>43.0</ele><time>2026-03-23T08:55:05.999Z</time></trkpt><trkpt lat="45.72871704970709" lon="12.195954459272802"><ele>43.0</ele><time>2026-03-23T08:55:06.999Z</time></trkpt><trkpt lat="45.72888476946592" lon="12.195867006982036"><ele>43.0</ele><time>2026-03-23T08:55:07.999Z</time></trkpt><trkpt lat="45.72906005324982" lon="12.195752735767792"><ele>43.333333333333336</ele><time>2026-03-23T08:55:08.999Z</time></trkpt><trkpt lat="45.72922150483437" lon="12.195639872041646"><ele>43.666666666666664</ele><time>2026-03-23T08:55:09.999Z</time></trkpt><trkpt lat="45.72939087613963" lon="12.195540375286885"><ele>44.0</ele><time>2026-03-23T08:55:10.999Z</time></trkpt><trkpt lat="45.72957016549608" lon="12.195438558513132"><ele>44.0</ele><time>2026-03-23T08:55:11.999Z</time></trkpt><trkpt lat="45.72977580142445" lon="12.195339408717686"><ele>44.0</ele><time>2026-03-23T08:55:12.999Z</time></trkpt><trkpt lat="45.72998465950983" lon="12.195216976785229"><ele>44.0</ele><time>2026-03-23T08:55:13.999Z</time></trkpt><trkpt lat="45.730195143983785" lon="12.195093349227154"><ele>44.0</ele><time>2026-03-23T08:55:14.999Z</time></trkpt><trkpt lat="45.730383598263636" lon="12.194990657565992"><ele>44.0</ele><time>2026-03-23T08:55:15.999Z</time></trkpt><trkpt lat="45.73057223979303" lon="12.194870512285416"><ele>44.0</ele><time>2026-03-23T08:55:16.999Z</time></trkpt><trkpt lat="45.73077852884504" lon="12.194745378301338"><ele>43.5</ele><time>2026-03-23T08:55:17.999Z</time></trkpt><trkpt lat="45.730992015212465" lon="12.194618469808718"><ele>43.0</ele><time>2026-03-23T08:55:18.999Z</time></trkpt><trkpt lat="45.73120443631527" lon="12.194468085549044"><ele>44.0</ele><time>2026-03-23T08:55:19.999Z</time></trkpt><trkpt lat="45.73140514441412" lon="12.194288636600332"><ele>45.0</ele><time>2026-03-23T08:55:20.999Z</time></trkpt><trkpt lat="45.73158390310191" lon="12.194084179476283"><ele>45.0</ele><time>2026-03-23T08:55:21.999Z</time></trkpt><trkpt lat="45.73175220803901" lon="12.193850541656817"><ele>45.0</ele><time>2026-03-23T08:55:22.999Z</time></trkpt><trkpt lat="45.731904335577944" lon="12.19358361170006"><ele>46.0</ele><time>2026-03-23T08:55:23.999Z</time></trkpt><trkpt lat="45.732043655477455" lon="12.193279431479096"><ele>47.0</ele><time>2026-03-23T08:55:24.999Z</time></trkpt><trkpt lat="45.732172835419476" lon="12.192926001249209"><ele>47.0</ele><time>2026-03-23T08:55:25.999Z</time></trkpt><trkpt lat="45.73229791403149" lon="12.192543276447031"><ele>47.0</ele><time>2026-03-23T08:55:26.999Z</time></trkpt><trkpt lat="45.73242028759511" lon="12.19216793770145"><ele>47.0</ele><time>2026-03-23T08:55:27.999Z</time></trkpt><trkpt lat="45.732544011990996" lon="12.191830322406092"><ele>47.0</ele><time>2026-03-23T08:55:28.999Z</time></trkpt><trkpt lat="45.73265657370575" lon="12.19151442639717"><ele>47.0</ele><time>2026-03-23T08:55:29.999Z</time></trkpt><trkpt lat="45.732765537907774" lon="12.191192373152703"><ele>47.0</ele><time>2026-03-23T08:55:30.999Z</time></trkpt><trkpt lat="45.73287503100254" lon="12.19086947544243"><ele>46.666666666666664</ele><time>2026-03-23T08:55:31.999Z</time></trkpt><trkpt lat="45.73297843988524" lon="12.190575368601413"><ele>46.333333333333336</ele><time>2026-03-23T08:55:32.999Z</time></trkpt><trkpt lat="45.733079895599445" lon="12.190315591829414"><ele>46.0</ele><time>2026-03-23T08:55:33.999Z</time></trkpt><trkpt lat="45.73316364011762" lon="12.190065928044316"><ele>46.0</ele><time>2026-03-23T08:55:34.999Z</time></trkpt><trkpt lat="45.7332376488726" lon="12.189842019067498"><ele>46.0</ele><time>2026-03-23T08:55:35.999Z</time></trkpt><trkpt lat="45.73331917734258" lon="12.189631834133253"><ele>46.0</ele><time>2026-03-23T08:55:36.999Z</time></trkpt><trkpt lat="45.733384546900886" lon="12.18942710750147"><ele>46.5</ele><time>2026-03-23T08:55:37.999Z</time></trkpt><trkpt lat="45.73345549820031" lon="12.189238521239414"><ele>47.0</ele><time>2026-03-23T08:55:38.999Z</time></trkpt><trkpt lat="45.7335211835499" lon="12.189055899898856"><ele>47.5</ele><time>2026-03-23T08:55:40Z</time></trkpt><trkpt lat="45.73357899792318" lon="12.188874504564302"><ele>48.0</ele><time>2026-03-23T08:55:41Z</time></trkpt><trkpt lat="45.733637524571556" lon="12.188708170415564"><ele>48.25</ele><time>2026-03-23T08:55:42Z</time></trkpt><trkpt lat="45.73370033455503" lon="12.188545480307859"><ele>48.5</ele><time>2026-03-23T08:55:43Z</time></trkpt><trkpt lat="45.73376224488667" lon="12.18836968058865"><ele>48.75</ele><time>2026-03-23T08:55:44Z</time></trkpt><trkpt lat="45.733826552858474" lon="12.188171899859697"><ele>49.0</ele><time>2026-03-23T08:55:45Z</time></trkpt><trkpt lat="45.73390211835609" lon="12.187963830957312"><ele>49.33333333333333</ele><time>2026-03-23T08:55:46Z</time></trkpt><trkpt lat="45.733982667834894" lon="12.187757962394642"><ele>49.66666666666667</ele><time>2026-03-23T08:55:47Z</time></trkpt><trkpt lat="45.73405850439633" lon="12.187560914313796"><ele>50.0</ele><time>2026-03-23T08:55:48Z</time></trkpt><trkpt lat="45.73413394948578" lon="12.187385041824617"><ele>49.5</ele><time>2026-03-23T08:55:49Z</time></trkpt><trkpt lat="45.734213857505466" lon="12.18722118763179"><ele>49.0</ele><time>2026-03-23T08:55:50Z</time></trkpt><trkpt lat="45.734291456712036" lon="12.187071850579349"><ele>48.5</ele><time>2026-03-23T08:55:51Z</time></trkpt><trkpt lat="45.73437427745602" lon="12.186921416694393"><ele>48.0</ele><time>2026-03-23T08:55:52Z</time></trkpt><trkpt lat="45.73446303918386" lon="12.186756890393914"><ele>48.0</ele><time>2026-03-23T08:55:53Z</time></trkpt><trkpt lat="45.73456505895323" lon="12.186588694862508"><ele>48.0</ele><time>2026-03-23T08:55:54Z</time></trkpt><trkpt lat="45.73467202852239" lon="12.186420977169263"><ele>48.0</ele><time>2026-03-23T08:55:55Z</time></trkpt><trkpt lat="45.734784766872586" lon="12.186252274039413"><ele>48.0</ele><time>2026-03-23T08:55:56Z</time></trkpt><trkpt lat="45.734903332069386" lon="12.18609505286583"><ele>48.0</ele><time>2026-03-23T08:55:57Z</time></trkpt><trkpt lat="45.73501590399995" lon="12.185938158998315"><ele>48.0</ele><time>2026-03-23T08:55:58Z</time></trkpt><trkpt lat="45.735125551082035" lon="12.18578539537256"><ele>48.33333333333333</ele><time>2026-03-23T08:55:59Z</time></trkpt><trkpt lat="45.73523662691426" lon="12.185618833213445"><ele>48.666666666666664</ele><time>2026-03-23T08:56:00Z</time></trkpt><trkpt lat="45.73537816612559" lon="12.185438690171678"><ele>49.0</ele><time>2026-03-23T08:56:01Z</time></trkpt><trkpt lat="45.735533985336154" lon="12.185218030384476"><ele>49.0</ele><time>2026-03-23T08:56:02Z</time></trkpt><trkpt lat="45.73569064281612" lon="12.18496601025272"><ele>49.0</ele><time>2026-03-23T08:56:03Z</time></trkpt><trkpt lat="45.73588659402285" lon="12.184727655562796"><ele>50.0</ele><time>2026-03-23T08:56:04Z</time></trkpt><trkpt lat="45.73606805664712" lon="12.184464764175305"><ele>51.0</ele><time>2026-03-23T08:56:05Z</time></trkpt><trkpt lat="45.7362339311813" lon="12.184223887379842"><ele>51.0</ele><time>2026-03-23T08:56:06Z</time></trkpt><trkpt lat="45.73638666665742" lon="12.18400699441356"><ele>51.0</ele><time>2026-03-23T08:56:07Z</time></trkpt><trkpt lat="45.736550575873046" lon="12.183779955048362"><ele>51.0</ele><time>2026-03-23T08:56:08Z</time></trkpt><trkpt lat="45.73672386993714" lon="12.183537827539165"><ele>52.0</ele><time>2026-03-23T08:56:09Z</time></trkpt><trkpt lat="45.73689519643073" lon="12.183298566937248"><ele>53.0</ele><time>2026-03-23T08:56:10Z</time></trkpt><trkpt lat="45.7370719386309" lon="12.183046664012043"><ele>53.5</ele><time>2026-03-23T08:56:11Z</time></trkpt><trkpt lat="45.73725067042601" lon="12.18278880056744"><ele>54.0</ele><time>2026-03-23T08:56:12Z</time></trkpt><trkpt lat="45.73741413522311" lon="12.182549508901978"><ele>53.33333333333333</ele><time>2026-03-23T08:56:13Z</time></trkpt><trkpt lat="45.737569728167756" lon="12.182333625518245"><ele>52.666666666666664</ele><time>2026-03-23T08:56:14Z</time></trkpt><trkpt lat="45.737721753643235" lon="12.182121015631633"><ele>52.0</ele><time>2026-03-23T08:56:15Z</time></trkpt><trkpt lat="45.73787211909307" lon="12.18191298150433"><ele>52.0</ele><time>2026-03-23T08:56:16Z</time></trkpt><trkpt lat="45.73801864578595" lon="12.181718555255763"><ele>52.0</ele><time>2026-03-23T08:56:17Z</time></trkpt><trkpt lat="45.73818068653253" lon="12.181538020712471"><ele>52.0</ele><time>2026-03-23T08:56:18Z</time></trkpt><trkpt lat="45.73837474879922" lon="12.181356220384282"><ele>51.0</ele><time>2026-03-23T08:56:19Z</time></trkpt><trkpt lat="45.7385699736486" lon="12.181180749559024"><ele>50.0</ele><time>2026-03-23T08:56:20Z</time></trkpt><trkpt lat="45.7388244086371" lon="12.18091954571798"><ele>50.0</ele><time>2026-03-23T08:56:21Z</time></trkpt><trkpt lat="45.73903345563159" lon="12.180714314158557"><ele>50.0</ele><time>2026-03-23T08:56:22Z</time></trkpt><trkpt lat="45.73924144230136" lon="12.180535055588436"><ele>50.0</ele><time>2026-03-23T08:56:23Z</time></trkpt><trkpt lat="45.73943710360648" lon="12.180324018634776"><ele>50.0</ele><time>2026-03-23T08:56:24Z</time></trkpt><trkpt lat="45.73962787831549" lon="12.180066432598894"><ele>50.5</ele><time>2026-03-23T08:56:25Z</time></trkpt><trkpt lat="45.73981581276978" lon="12.179793561259993"><ele>51.0</ele><time>2026-03-23T08:56:26Z</time></trkpt><trkpt lat="45.739998343578634" lon="12.179497308893314"><ele>51.0</ele><time>2026-03-23T08:56:27Z</time></trkpt><trkpt lat="45.740175236936466" lon="12.179188859725885"><ele>51.0</ele><time>2026-03-23T08:56:28Z</time></trkpt><trkpt lat="45.74035767906332" lon="12.178887284845421"><ele>51.5</ele><time>2026-03-23T08:56:29Z</time></trkpt><trkpt lat="45.74054745927976" lon="12.178576013542932"><ele>52.0</ele><time>2026-03-23T08:56:30Z</time></trkpt><trkpt lat="45.740737735943064" lon="12.178260756639984"><ele>52.0</ele><time>2026-03-23T08:56:31Z</time></trkpt><trkpt lat="45.74090813485676" lon="12.177981076293017"><ele>52.0</ele><time>2026-03-23T08:56:32Z</time></trkpt><trkpt lat="45.74106464412812" lon="12.177725041127589"><ele>52.33333333333333</ele><time>2026-03-23T08:56:33Z</time></trkpt><trkpt lat="45.741204743005966" lon="12.177486246667629"><ele>52.66666666666667</ele><time>2026-03-23T08:56:34Z</time></trkpt><trkpt lat="45.74134626113216" lon="12.177261747143723"><ele>53.0</ele><time>2026-03-23T08:56:34.999Z</time></trkpt><trkpt lat="45.741507613477935" lon="12.177036521424743"><ele>53.0</ele><time>2026-03-23T08:56:35.999Z</time></trkpt><trkpt lat="45.7416868481985" lon="12.176833270559893"><ele>53.0</ele><time>2026-03-23T08:56:36.999Z</time></trkpt><trkpt lat="45.74189602917362" lon="12.17663660556197"><ele>52.5</ele><time>2026-03-23T08:56:37.999Z</time></trkpt><trkpt lat="45.74211973270612" lon="12.1764347834653"><ele>52.0</ele><time>2026-03-23T08:56:38.999Z</time></trkpt><trkpt lat="45.742362167176445" lon="12.176258927462419"><ele>52.0</ele><time>2026-03-23T08:56:39.999Z</time></trkpt><trkpt lat="45.74263019411972" lon="12.176101254260915"><ele>52.0</ele><time>2026-03-23T08:56:40.999Z</time></trkpt><trkpt lat="45.742875881786695" lon="12.175959135666622"><ele>51.5</ele><time>2026-03-23T08:56:41.999Z</time></trkpt><trkpt lat="45.743102256384134" lon="12.175845331867267"><ele>51.0</ele><time>2026-03-23T08:56:42.999Z</time></trkpt><trkpt lat="45.743298444605195" lon="12.175725798573168"><ele>51.66666666666667</ele><time>2026-03-23T08:56:43.999Z</time></trkpt><trkpt lat="45.743488790135004" lon="12.17560714483359"><ele>52.333333333333336</ele><time>2026-03-23T08:56:44.999Z</time></trkpt><trkpt lat="45.74366954309999" lon="12.175491235988972"><ele>53.0</ele><time>2026-03-23T08:56:45.999Z</time></trkpt><trkpt lat="45.74384064778658" lon="12.175391959546952"><ele>53.66666666666667</ele><time>2026-03-23T08:56:46.999Z</time></trkpt><trkpt lat="45.74400852601299" lon="12.175302840781837"><ele>54.33333333333333</ele><time>2026-03-23T08:56:47.999Z</time></trkpt><trkpt lat="45.74417237538084" lon="12.175207375517509"><ele>55.0</ele><time>2026-03-23T08:56:48.999Z</time></trkpt><trkpt lat="45.74432417966103" lon="12.17510941048179"><ele>55.0</ele><time>2026-03-23T08:56:49.999Z</time></trkpt><trkpt lat="45.7444823168855" lon="12.175009877124348"><ele>55.0</ele><time>2026-03-23T08:56:50.999Z</time></trkpt><trkpt lat="45.74465107986621" lon="12.174904177998574"><ele>55.0</ele><time>2026-03-23T08:56:51.999Z</time></trkpt><trkpt lat="45.7448205809388" lon="12.174793385432189"><ele>54.666666666666664</ele><time>2026-03-23T08:56:52.999Z</time></trkpt><trkpt lat="45.74499021668834" lon="12.17468675011499"><ele>54.33333333333333</ele><time>2026-03-23T08:56:53.999Z</time></trkpt><trkpt lat="45.7451641918306" lon="12.17458526660106"><ele>54.0</ele><time>2026-03-23T08:56:54.999Z</time></trkpt><trkpt lat="45.7453319342867" lon="12.174482909393662"><ele>54.66666666666667</ele><time>2026-03-23T08:56:55.999Z</time></trkpt><trkpt lat="45.745494212762885" lon="12.17436849817337"><ele>55.333333333333336</ele><time>2026-03-23T08:56:56.999Z</time></trkpt><trkpt lat="45.74567207705443" lon="12.174238772916423"><ele>56.0</ele><time>2026-03-23T08:56:57.999Z</time></trkpt><trkpt lat="45.74586843216821" lon="12.174089247581993"><ele>55.66666666666667</ele><time>2026-03-23T08:56:58.999Z</time></trkpt><trkpt lat="45.746069306475846" lon="12.173934694766428"><ele>55.33333333333333</ele><time>2026-03-23T08:56:59.999Z</time></trkpt><trkpt lat="45.746256222075" lon="12.173797365132597"><ele>55.0</ele><time>2026-03-23T08:57:00.999Z</time></trkpt><trkpt lat="45.746420206651635" lon="12.173653209160925"><ele>55.0</ele><time>2026-03-23T08:57:01.999Z</time></trkpt><trkpt lat="45.74655862788269" lon="12.173519870409"><ele>55.0</ele><time>2026-03-23T08:57:02.999Z</time></trkpt><trkpt lat="45.74667962408928" lon="12.173409813630652"><ele>55.0</ele><time>2026-03-23T08:57:03.999Z</time></trkpt><trkpt lat="45.746788924792774" lon="12.17330798712646"><ele>55.0</ele><time>2026-03-23T08:57:04.999Z</time></trkpt><trkpt lat="45.7468832804079" lon="12.173218583143136"><ele>55.4</ele><time>2026-03-23T08:57:05.999Z</time></trkpt><trkpt lat="45.74697314264825" lon="12.173131672731959"><ele>55.8</ele><time>2026-03-23T08:57:06.999Z</time></trkpt><trkpt lat="45.74705397380715" lon="12.173058074914604"><ele>56.2</ele><time>2026-03-23T08:57:07.999Z</time></trkpt><trkpt lat="45.747135163711995" lon="12.172980683872478"><ele>56.6</ele><time>2026-03-23T08:57:08.999Z</time></trkpt><trkpt lat="45.74722740801037" lon="12.172884246608385"><ele>57.0</ele><time>2026-03-23T08:57:09.999Z</time></trkpt><trkpt lat="45.747357678669545" lon="12.172778393513534"><ele>57.0</ele><time>2026-03-23T08:57:10.999Z</time></trkpt><trkpt lat="45.747508371421844" lon="12.172614253560159"><ele>57.0</ele><time>2026-03-23T08:57:11.999Z</time></trkpt><trkpt lat="45.74769966147541" lon="12.172466004050861"><ele>57.0</ele><time>2026-03-23T08:57:12.999Z</time></trkpt><trkpt lat="45.747873138515715" lon="12.172309358207574"><ele>57.0</ele><time>2026-03-23T08:57:13.999Z</time></trkpt><trkpt lat="45.748044915760026" lon="12.172137044228698"><ele>57.0</ele><time>2026-03-23T08:57:14.999Z</time></trkpt><trkpt lat="45.748208744185135" lon="12.171979435324747"><ele>57.0</ele><time>2026-03-23T08:57:15.999Z</time></trkpt><trkpt lat="45.74837461059746" lon="12.171828136064377"><ele>57.33333333333333</ele><time>2026-03-23T08:57:16.999Z</time></trkpt><trkpt lat="45.74854386772993" lon="12.171677505161547"><ele>57.666666666666664</ele><time>2026-03-23T08:57:17.999Z</time></trkpt><trkpt lat="45.748719202455376" lon="12.171534704239562"><ele>58.0</ele><time>2026-03-23T08:57:18.999Z</time></trkpt><trkpt lat="45.748899363199506" lon="12.171405735470135"><ele>58.0</ele><time>2026-03-23T08:57:19.999Z</time></trkpt><trkpt lat="45.74908482373741" lon="12.171295252702864"><ele>58.0</ele><time>2026-03-23T08:57:20.999Z</time></trkpt><trkpt lat="45.749262419756064" lon="12.171194687199955"><ele>58.0</ele><time>2026-03-23T08:57:21.999Z</time></trkpt><trkpt lat="45.74942684813409" lon="12.171097704247904"><ele>58.0</ele><time>2026-03-23T08:57:22.999Z</time></trkpt><trkpt lat="45.74958761092313" lon="12.171028628391285"><ele>58.0</ele><time>2026-03-23T08:57:23.999Z</time></trkpt><trkpt lat="45.749747007693074" lon="12.170974322244698"><ele>58.0</ele><time>2026-03-23T08:57:24.999Z</time></trkpt><trkpt lat="45.74990380455671" lon="12.170909073436095"><ele>58.0</ele><time>2026-03-23T08:57:25.999Z</time></trkpt><trkpt lat="45.75005139863722" lon="12.170838815037476"><ele>58.0</ele><time>2026-03-23T08:57:26.999Z</time></trkpt><trkpt lat="45.75020003121882" lon="12.170774414677915"><ele>58.0</ele><time>2026-03-23T08:57:27.999Z</time></trkpt><trkpt lat="45.75036419001252" lon="12.170708897047922"><ele>59.0</ele><time>2026-03-23T08:57:28.999Z</time></trkpt><trkpt lat="45.75053781128788" lon="12.170647722738938"><ele>60.0</ele><time>2026-03-23T08:57:29.999Z</time></trkpt><trkpt lat="45.75071577554832" lon="12.17060024779815"><ele>61.0</ele><time>2026-03-23T08:57:30.999Z</time></trkpt><trkpt lat="45.750879135804716" lon="12.17053872803232"><ele>61.0</ele><time>2026-03-23T08:57:31.999Z</time></trkpt><trkpt lat="45.75102613761329" lon="12.170477923286178"><ele>61.0</ele><time>2026-03-23T08:57:32.999Z</time></trkpt><trkpt lat="45.75116223451456" lon="12.170420252593576"><ele>61.0</ele><time>2026-03-23T08:57:33.999Z</time></trkpt><trkpt lat="45.75129530970021" lon="12.170368421190842"><ele>61.0</ele><time>2026-03-23T08:57:34.999Z</time></trkpt><trkpt lat="45.75142381752071" lon="12.170315756251242"><ele>61.0</ele><time>2026-03-23T08:57:35.999Z</time></trkpt><trkpt lat="45.75155422172733" lon="12.170267483200542"><ele>61.0</ele><time>2026-03-23T08:57:36.999Z</time></trkpt><trkpt lat="45.7516885964277" lon="12.170215278918237"><ele>61.0</ele><time>2026-03-23T08:57:37.999Z</time></trkpt><trkpt lat="45.75182098128344" lon="12.170159217835957"><ele>61.0</ele><time>2026-03-23T08:57:38.999Z</time></trkpt><trkpt lat="45.75195446871362" lon="12.170102344908"><ele>61.5</ele><time>2026-03-23T08:57:39.999Z</time></trkpt><trkpt lat="45.752087788361976" lon="12.17004395376631"><ele>62.0</ele><time>2026-03-23T08:57:40.999Z</time></trkpt><trkpt lat="45.75222262319643" lon="12.169994538113336"><ele>62.5</ele><time>2026-03-23T08:57:41.999Z</time></trkpt><trkpt lat="45.752353268830106" lon="12.169948929682286"><ele>63.0</ele><time>2026-03-23T08:57:42.999Z</time></trkpt><trkpt lat="45.752473192009134" lon="12.169895287612661"><ele>63.0</ele><time>2026-03-23T08:57:43.999Z</time></trkpt><trkpt lat="45.7525992036665" lon="12.169846186045271"><ele>63.0</ele><time>2026-03-23T08:57:44.999Z</time></trkpt><trkpt lat="45.752733299247325" lon="12.169806363028396"><ele>63.0</ele><time>2026-03-23T08:57:46Z</time></trkpt><trkpt lat="45.75286977489905" lon="12.169780620281777"><ele>63.0</ele><time>2026-03-23T08:57:47Z</time></trkpt><trkpt lat="45.752990329775166" lon="12.169755569160031"><ele>63.0</ele><time>2026-03-23T08:57:48Z</time></trkpt><trkpt lat="45.75310171505633" lon="12.169734447821652"><ele>63.0</ele><time>2026-03-23T08:57:49Z</time></trkpt><trkpt lat="45.753205378046545" lon="12.16972760623988"><ele>63.0</ele><time>2026-03-23T08:57:50Z</time></trkpt><trkpt lat="45.75330033220478" lon="12.16972153917454"><ele>63.0</ele><time>2026-03-23T08:57:51Z</time></trkpt><trkpt lat="45.75338533842308" lon="12.169710737572998"><ele>63.0</ele><time>2026-03-23T08:57:52Z</time></trkpt><trkpt lat="45.75347250035273" lon="12.16970502595953"><ele>63.0</ele><time>2026-03-23T08:57:53Z</time></trkpt><trkpt lat="45.75356481984928" lon="12.169703148368226"><ele>63.0</ele><time>2026-03-23T08:57:54Z</time></trkpt><trkpt lat="45.7536804962192" lon="12.169689732821885"><ele>63.0</ele><time>2026-03-23T08:57:55Z</time></trkpt><trkpt lat="45.75382366052277" lon="12.169659813941161"><ele>63.0</ele><time>2026-03-23T08:57:56Z</time></trkpt><trkpt lat="45.75398891045157" lon="12.16962887983471"><ele>63.0</ele><time>2026-03-23T08:57:57Z</time></trkpt><trkpt lat="45.754164986435704" lon="12.169555018687136"><ele>63.0</ele><time>2026-03-23T08:57:58Z</time></trkpt><trkpt lat="45.75434644099306" lon="12.169423238338126"><ele>63.0</ele><time>2026-03-23T08:57:59Z</time></trkpt><trkpt lat="45.75453345181104" lon="12.169254702688727"><ele>63.33333333333333</ele><time>2026-03-23T08:58:00Z</time></trkpt><trkpt lat="45.75470120813209" lon="12.169056946647682"><ele>63.666666666666664</ele><time>2026-03-23T08:58:01Z</time></trkpt><trkpt lat="45.75484724263737" lon="12.168877323285798"><ele>64.0</ele><time>2026-03-23T08:58:02Z</time></trkpt><trkpt lat="45.75498602201076" lon="12.16869758987129"><ele>64.33333333333333</ele><time>2026-03-23T08:58:03Z</time></trkpt><trkpt lat="45.75513230071498" lon="12.168500237417858"><ele>64.66666666666667</ele><time>2026-03-23T08:58:04Z</time></trkpt><trkpt lat="45.75528207323611" lon="12.168293003939139"><ele>65.0</ele><time>2026-03-23T08:58:05Z</time></trkpt><trkpt lat="45.755434335982756" lon="12.168078356401589"><ele>65.0</ele><time>2026-03-23T08:58:06Z</time></trkpt><trkpt lat="45.755572337099444" lon="12.167879776533148"><ele>65.0</ele><time>2026-03-23T08:58:07Z</time></trkpt><trkpt lat="45.75570175222144" lon="12.167698409992186"><ele>65.0</ele><time>2026-03-23T08:58:08Z</time></trkpt><trkpt lat="45.755823769334434" lon="12.16752773259848"><ele>65.0</ele><time>2026-03-23T08:58:09Z</time></trkpt><trkpt lat="45.75593681887764" lon="12.167366323820703"><ele>65.0</ele><time>2026-03-23T08:58:10Z</time></trkpt><trkpt lat="45.75604372512702" lon="12.167215273630799"><ele>65.0</ele><time>2026-03-23T08:58:11Z</time></trkpt><trkpt lat="45.75614389645781" lon="12.167073018090898"><ele>65.25</ele><time>2026-03-23T08:58:12Z</time></trkpt><trkpt lat="45.75624013136432" lon="12.166946470874995"><ele>65.5</ele><time>2026-03-23T08:58:13Z</time></trkpt><trkpt lat="45.75632954473376" lon="12.166831192073888"><ele>65.75</ele><time>2026-03-23T08:58:14Z</time></trkpt><trkpt lat="45.756412663174075" lon="12.1667198116443"><ele>66.0</ele><time>2026-03-23T08:58:15Z</time></trkpt><trkpt lat="45.756489365946294" lon="12.166612039660249"><ele>65.75</ele><time>2026-03-23T08:58:16Z</time></trkpt><trkpt lat="45.756574955359014" lon="12.166489328261184"><ele>65.5</ele><time>2026-03-23T08:58:17Z</time></trkpt><trkpt lat="45.7566775669246" lon="12.166349035153942"><ele>65.25</ele><time>2026-03-23T08:58:18Z</time></trkpt><trkpt lat="45.75679342085456" lon="12.166183699021216"><ele>65.0</ele><time>2026-03-23T08:58:19Z</time></trkpt><trkpt lat="45.75691927288969" lon="12.166000698120337"><ele>65.33333333333334</ele><time>2026-03-23T08:58:20Z</time></trkpt><trkpt lat="45.757064531070796" lon="12.165806300142266"><ele>65.66666666666667</ele><time>2026-03-23T08:58:21Z</time></trkpt><trkpt lat="45.757220178402534" lon="12.16559426759656"><ele>66.0</ele><time>2026-03-23T08:58:22Z</time></trkpt><trkpt lat="45.75738393264261" lon="12.165360934972941"><ele>66.0</ele><time>2026-03-23T08:58:23Z</time></trkpt><trkpt lat="45.757556685600754" lon="12.165109191104229"><ele>66.0</ele><time>2026-03-23T08:58:24Z</time></trkpt><trkpt lat="45.75773857029971" lon="12.164851977709302"><ele>66.5</ele><time>2026-03-23T08:58:25Z</time></trkpt><trkpt lat="45.757932302050676" lon="12.16458553802289"><ele>67.0</ele><time>2026-03-23T08:58:26Z</time></trkpt><trkpt lat="45.75813116470349" lon="12.164307015595869"><ele>67.0</ele><time>2026-03-23T08:58:27Z</time></trkpt><trkpt lat="45.7583144913061" lon="12.16404852526779"><ele>67.0</ele><time>2026-03-23T08:58:28Z</time></trkpt><trkpt lat="45.75847645954112" lon="12.163815824241773"><ele>67.0</ele><time>2026-03-23T08:58:29Z</time></trkpt><trkpt lat="45.758636416690194" lon="12.163589446083295"><ele>67.0</ele><time>2026-03-23T08:58:30Z</time></trkpt><trkpt lat="45.758798129111504" lon="12.16336313150401"><ele>67.66666666666666</ele><time>2026-03-23T08:58:31Z</time></trkpt><trkpt lat="45.75895298682356" lon="12.163138472999151"><ele>68.33333333333333</ele><time>2026-03-23T08:58:32Z</time></trkpt><trkpt lat="45.75910530538484" lon="12.162908136333593"><ele>69.0</ele><time>2026-03-23T08:58:33Z</time></trkpt><trkpt lat="45.75925661617666" lon="12.162651104960421"><ele>69.0</ele><time>2026-03-23T08:58:34Z</time></trkpt><trkpt lat="45.75940186645453" lon="12.162365020036669"><ele>69.0</ele><time>2026-03-23T08:58:35Z</time></trkpt><trkpt lat="45.75954421228619" lon="12.162059734730764"><ele>69.0</ele><time>2026-03-23T08:58:36Z</time></trkpt><trkpt lat="45.75968940837827" lon="12.16174418456178"><ele>69.0</ele><time>2026-03-23T08:58:37Z</time></trkpt><trkpt lat="45.759836410000474" lon="12.161447299931536"><ele>69.5</ele><time>2026-03-23T08:58:38Z</time></trkpt><trkpt lat="45.75997586948338" lon="12.161171155355404"><ele>70.0</ele><time>2026-03-23T08:58:39Z</time></trkpt><trkpt lat="45.760099552888846" lon="12.160917710545164"><ele>70.33333333333333</ele><time>2026-03-23T08:58:40Z</time></trkpt><trkpt lat="45.76021223948621" lon="12.160673347334177"><ele>70.66666666666667</ele><time>2026-03-23T08:58:41Z</time></trkpt><trkpt lat="45.7603220140782" lon="12.160440025633273"><ele>71.0</ele><time>2026-03-23T08:58:42Z</time></trkpt><trkpt lat="45.76042760603532" lon="12.160224017192423"><ele>71.0</ele><time>2026-03-23T08:58:43Z</time></trkpt><trkpt lat="45.76052963775658" lon="12.160028927917516"><ele>71.0</ele><time>2026-03-23T08:58:43.999Z</time></trkpt><trkpt lat="45.760632924596536" lon="12.159843474453014"><ele>71.0</ele><time>2026-03-23T08:58:44.999Z</time></trkpt><trkpt lat="45.760737764421776" lon="12.159673063579827"><ele>71.0</ele><time>2026-03-23T08:58:45.999Z</time></trkpt><trkpt lat="45.760848925763156" lon="12.159499380895292"><ele>71.0</ele><time>2026-03-23T08:58:46.999Z</time></trkpt><trkpt lat="45.760964734196584" lon="12.159324213639108"><ele>71.0</ele><time>2026-03-23T08:58:47.999Z</time></trkpt><trkpt lat="45.761082885750454" lon="12.159148070145829"><ele>70.33333333333334</ele><time>2026-03-23T08:58:48.999Z</time></trkpt><trkpt lat="45.76120621545615" lon="12.158961409492276"><ele>69.66666666666667</ele><time>2026-03-23T08:58:49.999Z</time></trkpt><trkpt lat="45.761337133897534" lon="12.15877274761005"><ele>69.0</ele><time>2026-03-23T08:58:50.999Z</time></trkpt><trkpt lat="45.7614757451458" lon="12.158574703899507"><ele>69.0</ele><time>2026-03-23T08:58:51.999Z</time></trkpt><trkpt lat="45.76162003133043" lon="12.158361815036647"><ele>69.0</ele><time>2026-03-23T08:58:52.999Z</time></trkpt><trkpt lat="45.76176526430567" lon="12.158146492921315"><ele>69.0</ele><time>2026-03-23T08:58:53.999Z</time></trkpt><trkpt lat="45.76190801571862" lon="12.157933329064965"><ele>69.33333333333333</ele><time>2026-03-23T08:58:54.999Z</time></trkpt><trkpt lat="45.76204393320624" lon="12.157726394357566"><ele>69.66666666666666</ele><time>2026-03-23T08:58:55.999Z</time></trkpt><trkpt lat="45.76217152606899" lon="12.157537076185305"><ele>70.0</ele><time>2026-03-23T08:58:56.999Z</time></trkpt><trkpt lat="45.762290571121596" lon="12.157358379349441"><ele>70.0</ele><time>2026-03-23T08:58:57.999Z</time></trkpt><trkpt lat="45.762399427640766" lon="12.157199026596798"><ele>70.0</ele><time>2026-03-23T08:58:58.999Z</time></trkpt><trkpt lat="45.762511480695764" lon="12.157058894634734"><ele>70.0</ele><time>2026-03-23T08:58:59.999Z</time></trkpt><trkpt lat="45.76263072019909" lon="12.15696109298776"><ele>70.0</ele><time>2026-03-23T08:59:00.999Z</time></trkpt><trkpt lat="45.76274659450571" lon="12.15688068313645"><ele>70.6</ele><time>2026-03-23T08:59:01.999Z</time></trkpt><trkpt lat="45.76286737474701" lon="12.156836417714777"><ele>71.2</ele><time>2026-03-23T08:59:02.999Z</time></trkpt><trkpt lat="45.76297369063132" lon="12.156813663976397"><ele>71.8</ele><time>2026-03-23T08:59:03.999Z</time></trkpt><trkpt lat="45.763061412297986" lon="12.156767842418464"><ele>72.4</ele><time>2026-03-23T08:59:04.999Z</time></trkpt><trkpt lat="45.76311959874332" lon="12.156689108891229"><ele>73.0</ele><time>2026-03-23T08:59:05.999Z</time></trkpt><trkpt lat="45.763147038974054" lon="12.156593797449977"><ele>73.2</ele><time>2026-03-23T08:59:06.999Z</time></trkpt><trkpt lat="45.76315895354693" lon="12.156491333189493"><ele>73.4</ele><time>2026-03-23T08:59:07.999Z</time></trkpt><trkpt lat="45.763155493991434" lon="12.156387996187117"><ele>73.60000000000001</ele><time>2026-03-23T08:59:08.999Z</time></trkpt><trkpt lat="45.763073409650474" lon="12.156287665355581"><ele>73.8</ele><time>2026-03-23T08:59:09.999Z</time></trkpt><trkpt lat="45.7630421715386" lon="12.156138487782306"><ele>74.0</ele><time>2026-03-23T08:59:10.999Z</time></trkpt><trkpt lat="45.76305204198589" lon="12.156004082527712"><ele>74.0</ele><time>2026-03-23T08:59:11.999Z</time></trkpt><trkpt lat="45.76313541253941" lon="12.155929509986693"><ele>74.0</ele><time>2026-03-23T08:59:12.999Z</time></trkpt><trkpt lat="45.763228147779934" lon="12.155780690980395"><ele>74.0</ele><time>2026-03-23T08:59:13.999Z</time></trkpt><trkpt lat="45.76334417136691" lon="12.155581145440033"><ele>74.0</ele><time>2026-03-23T08:59:14.999Z</time></trkpt><trkpt lat="45.76348432055546" lon="12.155377007161517"><ele>73.66666666666667</ele><time>2026-03-23T08:59:15.999Z</time></trkpt><trkpt lat="45.76361243942981" lon="12.155206984953583"><ele>73.33333333333333</ele><time>2026-03-23T08:59:16.999Z</time></trkpt><trkpt lat="45.76373960659087" lon="12.1550431544412"><ele>73.0</ele><time>2026-03-23T08:59:17.999Z</time></trkpt><trkpt lat="45.763889198748736" lon="12.154866638906459"><ele>73.0</ele><time>2026-03-23T08:59:18.999Z</time></trkpt><trkpt lat="45.76406348285077" lon="12.15467583640573"><ele>73.0</ele><time>2026-03-23T08:59:19.999Z</time></trkpt><trkpt lat="45.764246157351266" lon="12.154459591067123"><ele>72.66666666666666</ele><time>2026-03-23T08:59:20.999Z</time></trkpt><trkpt lat="45.76442993725933" lon="12.154254859186645"><ele>72.33333333333333</ele><time>2026-03-23T08:59:21.999Z</time></trkpt><trkpt lat="45.76457610651687" lon="12.154094489483613"><ele>72.0</ele><time>2026-03-23T08:59:22.999Z</time></trkpt><trkpt lat="45.76467622975415" lon="12.153984933033108"><ele>72.0</ele><time>2026-03-23T08:59:23.999Z</time></trkpt><trkpt lat="45.76474230044939" lon="12.153908229636441"><ele>72.0</ele><time>2026-03-23T08:59:24.999Z</time></trkpt><trkpt lat="45.76482998236479" lon="12.153807126689491"><ele>72.0</ele><time>2026-03-23T08:59:26.999Z</time></trkpt><trkpt lat="45.76488207063044" lon="12.153745547549953"><ele>72.0</ele><time>2026-03-23T08:59:27.999Z</time></trkpt><trkpt lat="45.764964196894404" lon="12.153646345372408"><ele>72.0</ele><time>2026-03-23T08:59:28.999Z</time></trkpt><trkpt lat="45.765073489252536" lon="12.15350453602089"><ele>73.0</ele><time>2026-03-23T08:59:29.999Z</time></trkpt><trkpt lat="45.76523133477892" lon="12.153337339482587"><ele>74.0</ele><time>2026-03-23T08:59:30.999Z</time></trkpt><trkpt lat="45.76536391222715" lon="12.15317709694562"><ele>75.0</ele><time>2026-03-23T08:59:31.999Z</time></trkpt><trkpt lat="45.765498148665785" lon="12.15301749904736"><ele>75.33333333333333</ele><time>2026-03-23T08:59:32.999Z</time></trkpt><trkpt lat="45.76564927792146" lon="12.15283910657485"><ele>75.66666666666666</ele><time>2026-03-23T08:59:33.999Z</time></trkpt><trkpt lat="45.76582216587421" lon="12.152633580714419"><ele>76.0</ele><time>2026-03-23T08:59:34.999Z</time></trkpt><trkpt lat="45.7659835824554" lon="12.152417166140296"><ele>75.66666666666666</ele><time>2026-03-23T08:59:35.999Z</time></trkpt><trkpt lat="45.7661366973224" lon="12.152189881557021"><ele>75.33333333333333</ele><time>2026-03-23T08:59:36.999Z</time></trkpt><trkpt lat="45.76629482584271" lon="12.151955399712902"><ele>75.0</ele><time>2026-03-23T08:59:37.999Z</time></trkpt><trkpt lat="45.76645880454883" lon="12.151720517984177"><ele>74.5</ele><time>2026-03-23T08:59:38.999Z</time></trkpt><trkpt lat="45.76662613244229" lon="12.151488393722975"><ele>74.0</ele><time>2026-03-23T08:59:39.999Z</time></trkpt><trkpt lat="45.76679527669693" lon="12.151257536067792"><ele>74.5</ele><time>2026-03-23T08:59:40.999Z</time></trkpt><trkpt lat="45.76697870861763" lon="12.1510354324012"><ele>75.0</ele><time>2026-03-23T08:59:41.999Z</time></trkpt><trkpt lat="45.76717919855508" lon="12.150826319435167"><ele>75.0</ele><time>2026-03-23T08:59:42.999Z</time></trkpt><trkpt lat="45.7673813186636" lon="12.150626461432424"><ele>75.0</ele><time>2026-03-23T08:59:43.999Z</time></trkpt><trkpt lat="45.767565829880134" lon="12.150453120630731"><ele>74.66666666666667</ele><time>2026-03-23T08:59:44.999Z</time></trkpt><trkpt lat="45.767743068589155" lon="12.15028868209358"><ele>74.33333333333334</ele><time>2026-03-23T08:59:45.999Z</time></trkpt><trkpt lat="45.76792958136679" lon="12.150103876186598"><ele>74.0</ele><time>2026-03-23T08:59:46.999Z</time></trkpt><trkpt lat="45.76812545194025" lon="12.14990434846175"><ele>74.5</ele><time>2026-03-23T08:59:47.999Z</time></trkpt><trkpt lat="45.76832780104169" lon="12.149708569746542"><ele>75.0</ele><time>2026-03-23T08:59:48.999Z</time></trkpt><trkpt lat="45.76851834564656" lon="12.149517692595506"><ele>74.5</ele><time>2026-03-23T08:59:49.999Z</time></trkpt><trkpt lat="45.76871044339946" lon="12.149305052052444"><ele>74.0</ele><time>2026-03-23T08:59:50.999Z</time></trkpt><trkpt lat="45.768908537250844" lon="12.149064650013239"><ele>75.0</ele><time>2026-03-23T08:59:52Z</time></trkpt><trkpt lat="45.76910997477913" lon="12.148809852558944"><ele>76.0</ele><time>2026-03-23T08:59:53Z</time></trkpt><trkpt lat="45.76931123491528" lon="12.148543257929123"><ele>76.5</ele><time>2026-03-23T08:59:54Z</time></trkpt><trkpt lat="45.76950032300661" lon="12.148282875171978"><ele>77.0</ele><time>2026-03-23T08:59:55Z</time></trkpt><trkpt lat="45.76967820679726" lon="12.148042353426053"><ele>77.0</ele><time>2026-03-23T08:59:56Z</time></trkpt><trkpt lat="45.769866566513464" lon="12.147805600705926"><ele>77.0</ele><time>2026-03-23T08:59:57Z</time></trkpt><trkpt lat="45.770054379062465" lon="12.147531566670484"><ele>77.5</ele><time>2026-03-23T08:59:58Z</time></trkpt><trkpt lat="45.77023983255161" lon="12.14722080764264"><ele>78.0</ele><time>2026-03-23T08:59:59Z</time></trkpt><trkpt lat="45.770430255368474" lon="12.14686600418166"><ele>77.5</ele><time>2026-03-23T09:00:00Z</time></trkpt><trkpt lat="45.77063094550228" lon="12.146488302708091"><ele>77.0</ele><time>2026-03-23T09:00:01Z</time></trkpt><trkpt lat="45.770835567099994" lon="12.146125570193808"><ele>77.0</ele><time>2026-03-23T09:00:02Z</time></trkpt><trkpt lat="45.77101594595071" lon="12.145802474976316"><ele>77.0</ele><time>2026-03-23T09:00:03Z</time></trkpt><trkpt lat="45.771193194881825" lon="12.14549458837446"><ele>77.0</ele><time>2026-03-23T09:00:04Z</time></trkpt><trkpt lat="45.77138435753404" lon="12.145190304218223"><ele>77.0</ele><time>2026-03-23T09:00:05Z</time></trkpt><trkpt lat="45.77158035324664" lon="12.144892678038191"><ele>77.5</ele><time>2026-03-23T09:00:06Z</time></trkpt><trkpt lat="45.77176162652345" lon="12.144613466183245"><ele>78.0</ele><time>2026-03-23T09:00:07Z</time></trkpt><trkpt lat="45.77192347124766" lon="12.144351097392438"><ele>78.0</ele><time>2026-03-23T09:00:08Z</time></trkpt><trkpt lat="45.77207317617934" lon="12.144108457933262"><ele>78.0</ele><time>2026-03-23T09:00:09Z</time></trkpt><trkpt lat="45.772217949223894" lon="12.143875498062817"><ele>78.0</ele><time>2026-03-23T09:00:10Z</time></trkpt><trkpt lat="45.772363477724426" lon="12.14364344947915"><ele>78.0</ele><time>2026-03-23T09:00:11Z</time></trkpt><trkpt lat="45.77251406192929" lon="12.143402097041072"><ele>78.0</ele><time>2026-03-23T09:00:12Z</time></trkpt><trkpt lat="45.77267043997802" lon="12.143144284719579"><ele>78.0</ele><time>2026-03-23T09:00:13Z</time></trkpt><trkpt lat="45.772841661646886" lon="12.142870431820263"><ele>78.0</ele><time>2026-03-23T09:00:14Z</time></trkpt><trkpt lat="45.77303061098857" lon="12.14260175909633"><ele>78.0</ele><time>2026-03-23T09:00:15Z</time></trkpt><trkpt lat="45.77323390883079" lon="12.14235992114153"><ele>78.0</ele><time>2026-03-23T09:00:16Z</time></trkpt><trkpt lat="45.77344797822817" lon="12.142129302386442"><ele>77.5</ele><time>2026-03-23T09:00:17Z</time></trkpt><trkpt lat="45.77366448941417" lon="12.141896006158968"><ele>77.0</ele><time>2026-03-23T09:00:18Z</time></trkpt><trkpt lat="45.77387195530264" lon="12.141688927509335"><ele>77.0</ele><time>2026-03-23T09:00:19Z</time></trkpt><trkpt lat="45.77406482294912" lon="12.141506848782907"><ele>77.0</ele><time>2026-03-23T09:00:20Z</time></trkpt><trkpt lat="45.774244676487214" lon="12.141341455471371"><ele>77.0</ele><time>2026-03-23T09:00:21Z</time></trkpt><trkpt lat="45.77442110728071" lon="12.141172493144618"><ele>77.0</ele><time>2026-03-23T09:00:22Z</time></trkpt><trkpt lat="45.77460062115521" lon="12.140986041409121"><ele>77.0</ele><time>2026-03-23T09:00:23Z</time></trkpt><trkpt lat="45.774787143508576" lon="12.140787643360435"><ele>78.5</ele><time>2026-03-23T09:00:24Z</time></trkpt><trkpt lat="45.77498993461425" lon="12.140573286182013"><ele>80.0</ele><time>2026-03-23T09:00:25Z</time></trkpt><trkpt lat="45.77520706157146" lon="12.140364240423121"><ele>80.5</ele><time>2026-03-23T09:00:26Z</time></trkpt><trkpt lat="45.77541848244782" lon="12.140178902556533"><ele>81.0</ele><time>2026-03-23T09:00:27Z</time></trkpt><trkpt lat="45.775600883416416" lon="12.140002897329158"><ele>81.33333333333333</ele><time>2026-03-23T09:00:28Z</time></trkpt><trkpt lat="45.77576577195421" lon="12.139828807851025"><ele>81.66666666666666</ele><time>2026-03-23T09:00:29Z</time></trkpt><trkpt lat="45.7759261465681" lon="12.139672305897717"><ele>82.0</ele><time>2026-03-23T09:00:30Z</time></trkpt><trkpt lat="45.776081695698196" lon="12.13952419343582"><ele>82.0</ele><time>2026-03-23T09:00:31Z</time></trkpt><trkpt lat="45.77621975969528" lon="12.139386637372994"><ele>82.0</ele><time>2026-03-23T09:00:32Z</time></trkpt><trkpt lat="45.77634742417194" lon="12.139255399707755"><ele>82.0</ele><time>2026-03-23T09:00:33Z</time></trkpt><trkpt lat="45.776476243411224" lon="12.139131062558771"><ele>83.0</ele><time>2026-03-23T09:00:34Z</time></trkpt><trkpt lat="45.77660713157029" lon="12.139007506705356"><ele>84.0</ele><time>2026-03-23T09:00:35Z</time></trkpt><trkpt lat="45.77673562005659" lon="12.138891573849032"><ele>85.0</ele><time>2026-03-23T09:00:36Z</time></trkpt><trkpt lat="45.77686326227801" lon="12.138786119905424"><ele>85.33333333333333</ele><time>2026-03-23T09:00:37Z</time></trkpt><trkpt lat="45.77701025782374" lon="12.138678859498727"><ele>85.66666666666667</ele><time>2026-03-23T09:00:38Z</time></trkpt><trkpt lat="45.77718487294328" lon="12.138543523767101"><ele>86.0</ele><time>2026-03-23T09:00:39Z</time></trkpt><trkpt lat="45.77737945312692" lon="12.138378243923544"><ele>86.0</ele><time>2026-03-23T09:00:39.999Z</time></trkpt><trkpt lat="45.77759320570398" lon="12.138228931668163"><ele>86.0</ele><time>2026-03-23T09:00:40.999Z</time></trkpt><trkpt lat="45.77780955196017" lon="12.138102727290015"><ele>86.0</ele><time>2026-03-23T09:00:41.999Z</time></trkpt><trkpt lat="45.778002653036914" lon="12.137962148843174"><ele>86.0</ele><time>2026-03-23T09:00:42.999Z</time></trkpt><trkpt lat="45.77817616904679" lon="12.137825820828896"><ele>86.0</ele><time>2026-03-23T09:00:43.999Z</time></trkpt><trkpt lat="45.77837692604402" lon="12.137728717340357"><ele>86.0</ele><time>2026-03-23T09:00:44.999Z</time></trkpt><trkpt lat="45.778586330985945" lon="12.137665048216123"><ele>86.0</ele><time>2026-03-23T09:00:45.999Z</time></trkpt><trkpt lat="45.77880030568251" lon="12.137621373066962"><ele>86.0</ele><time>2026-03-23T09:00:46.999Z</time></trkpt><trkpt lat="45.77902115270505" lon="12.137606785259308"><ele>86.0</ele><time>2026-03-23T09:00:47.999Z</time></trkpt><trkpt lat="45.779260392722236" lon="12.13763814889996"><ele>86.0</ele><time>2026-03-23T09:00:48.999Z</time></trkpt><trkpt lat="45.77949809750814" lon="12.137685599456558"><ele>85.33333333333334</ele><time>2026-03-23T09:00:49.999Z</time></trkpt><trkpt lat="45.77971050382716" lon="12.137742607455916"><ele>84.66666666666667</ele><time>2026-03-23T09:00:50.999Z</time></trkpt><trkpt lat="45.77990323626324" lon="12.137812251618707"><ele>84.0</ele><time>2026-03-23T09:00:51.999Z</time></trkpt><trkpt lat="45.78008975117152" lon="12.137871055797238"><ele>84.33333333333333</ele><time>2026-03-23T09:00:52.999Z</time></trkpt><trkpt lat="45.780286908992764" lon="12.137902547820776"><ele>84.66666666666666</ele><time>2026-03-23T09:00:53.999Z</time></trkpt><trkpt lat="45.780494844709395" lon="12.137930265480966"><ele>85.0</ele><time>2026-03-23T09:00:54.999Z</time></trkpt><trkpt lat="45.780717890150356" lon="12.137920704953286"><ele>85.0</ele><time>2026-03-23T09:00:55.999Z</time></trkpt><trkpt lat="45.78094959997738" lon="12.137843862324585"><ele>85.0</ele><time>2026-03-23T09:00:56.999Z</time></trkpt><trkpt lat="45.781186549236416" lon="12.1377153890966"><ele>85.5</ele><time>2026-03-23T09:00:57.999Z</time></trkpt><trkpt lat="45.78143693907064" lon="12.137550810886488"><ele>86.0</ele><time>2026-03-23T09:00:58.999Z</time></trkpt><trkpt lat="45.78169260819352" lon="12.137384109264163"><ele>87.5</ele><time>2026-03-23T09:00:59.999Z</time></trkpt><trkpt lat="45.78194522033281" lon="12.137261547107117"><ele>89.0</ele><time>2026-03-23T09:01:00.999Z</time></trkpt><trkpt lat="45.78217465646626" lon="12.13718547716518"><ele>89.0</ele><time>2026-03-23T09:01:01.999Z</time></trkpt><trkpt lat="45.78238271399364" lon="12.137105156350454"><ele>89.0</ele><time>2026-03-23T09:01:02.999Z</time></trkpt><trkpt lat="45.78257701585801" lon="12.13703666994751"><ele>89.0</ele><time>2026-03-23T09:01:03.999Z</time></trkpt><trkpt lat="45.78275484790355" lon="12.136972310638024"><ele>89.0</ele><time>2026-03-23T09:01:04.999Z</time></trkpt><trkpt lat="45.782917980486445" lon="12.136891722361794"><ele>89.0</ele><time>2026-03-23T09:01:05.999Z</time></trkpt><trkpt lat="45.78306699490208" lon="12.136834265296319"><ele>89.0</ele><time>2026-03-23T09:01:06.999Z</time></trkpt><trkpt lat="45.78319620638368" lon="12.136795550246246"><ele>89.0</ele><time>2026-03-23T09:01:07.999Z</time></trkpt><trkpt lat="45.78329938658834" lon="12.136761653432076"><ele>89.0</ele><time>2026-03-23T09:01:08.999Z</time></trkpt><trkpt lat="45.78338041646429" lon="12.136740237124046"><ele>89.0</ele><time>2026-03-23T09:01:09.999Z</time></trkpt><trkpt lat="45.783443627317354" lon="12.136742751130782"><ele>89.0</ele><time>2026-03-23T09:01:11.999Z</time></trkpt><trkpt lat="45.78353082195019" lon="12.136779646781276"><ele>89.0</ele><time>2026-03-23T09:01:14.999Z</time></trkpt><trkpt lat="45.7836041703098" lon="12.136776908780835"><ele>89.0</ele><time>2026-03-23T09:01:15.999Z</time></trkpt><trkpt lat="45.78366336762776" lon="12.136728322489072"><ele>89.4</ele><time>2026-03-23T09:01:16.999Z</time></trkpt><trkpt lat="45.783682149111776" lon="12.13657338913333"><ele>89.80000000000001</ele><time>2026-03-23T09:01:18.999Z</time></trkpt><trkpt lat="45.78365298957911" lon="12.1364854406741"><ele>90.19999999999999</ele><time>2026-03-23T09:01:19.999Z</time></trkpt><trkpt lat="45.783594511507225" lon="12.13639097046594"><ele>90.6</ele><time>2026-03-23T09:01:20.999Z</time></trkpt><trkpt lat="45.78350523344837" lon="12.136274447568107"><ele>91.0</ele><time>2026-03-23T09:01:21.999Z</time></trkpt><trkpt lat="45.783409300740736" lon="12.136105070606263"><ele>91.0</ele><time>2026-03-23T09:01:22.999Z</time></trkpt><trkpt lat="45.78333896602565" lon="12.135915805880803"><ele>91.0</ele><time>2026-03-23T09:01:23.999Z</time></trkpt><trkpt lat="45.783266082297" lon="12.135733726796927"><ele>91.0</ele><time>2026-03-23T09:01:24.999Z</time></trkpt><trkpt lat="45.78315829528708" lon="12.135519099194052"><ele>91.33333333333333</ele><time>2026-03-23T09:01:25.999Z</time></trkpt><trkpt lat="45.783041449284234" lon="12.13529548503712"><ele>91.66666666666667</ele><time>2026-03-23T09:01:26.999Z</time></trkpt><trkpt lat="45.78293302947129" lon="12.135093081693542"><ele>92.0</ele><time>2026-03-23T09:01:27.999Z</time></trkpt><trkpt lat="45.78281596147795" lon="12.134894867248596"><ele>91.0</ele><time>2026-03-23T09:01:28.999Z</time></trkpt><trkpt lat="45.78267772270797" lon="12.134664599913505"><ele>90.0</ele><time>2026-03-23T09:01:29.999Z</time></trkpt><trkpt lat="45.78252866494724" lon="12.134414842016943"><ele>89.0</ele><time>2026-03-23T09:01:30.999Z</time></trkpt><trkpt lat="45.782369831670216" lon="12.134149779828736"><ele>89.5</ele><time>2026-03-23T09:01:31.999Z</time></trkpt><trkpt lat="45.78220112237658" lon="12.133871195686615"><ele>90.0</ele><time>2026-03-23T09:01:32.999Z</time></trkpt><trkpt lat="45.78202248215786" lon="12.133578781830467"><ele>90.5</ele><time>2026-03-23T09:01:33.999Z</time></trkpt><trkpt lat="45.78183897070179" lon="12.133273692654654"><ele>91.0</ele><time>2026-03-23T09:01:34.999Z</time></trkpt><trkpt lat="45.78165017346687" lon="12.132959974322615"><ele>89.5</ele><time>2026-03-23T09:01:35.999Z</time></trkpt><trkpt lat="45.7814506290473" lon="12.132641299749826"><ele>88.0</ele><time>2026-03-23T09:01:36.999Z</time></trkpt><trkpt lat="45.78124336031836" lon="12.13231153931157"><ele>88.5</ele><time>2026-03-23T09:01:37.999Z</time></trkpt><trkpt lat="45.78104464255226" lon="12.131984401050525"><ele>89.0</ele><time>2026-03-23T09:01:38.999Z</time></trkpt><trkpt lat="45.78085938225656" lon="12.131686634776063"><ele>88.5</ele><time>2026-03-23T09:01:39.999Z</time></trkpt><trkpt lat="45.78067561055607" lon="12.131380760464404"><ele>88.0</ele><time>2026-03-23T09:01:40.999Z</time></trkpt><trkpt lat="45.78048248673981" lon="12.131059507454472"><ele>88.0</ele><time>2026-03-23T09:01:41.999Z</time></trkpt><trkpt lat="45.78028604563351" lon="12.13073036658041"><ele>88.0</ele><time>2026-03-23T09:01:42.999Z</time></trkpt><trkpt lat="45.780081876260205" lon="12.13040133804434"><ele>89.0</ele><time>2026-03-23T09:01:43.999Z</time></trkpt><trkpt lat="45.779871752052216" lon="12.130056929352584"><ele>90.0</ele><time>2026-03-23T09:01:44.999Z</time></trkpt><trkpt lat="45.77966010607028" lon="12.129703064388044"><ele>90.0</ele><time>2026-03-23T09:01:45.999Z</time></trkpt><trkpt lat="45.77945868921888" lon="12.129365178590659"><ele>90.0</ele><time>2026-03-23T09:01:46.999Z</time></trkpt><trkpt lat="45.77927740692724" lon="12.129061643280995"><ele>90.0</ele><time>2026-03-23T09:01:47.999Z</time></trkpt><trkpt lat="45.77910598771877" lon="12.128782965024582"><ele>90.0</ele><time>2026-03-23T09:01:48.999Z</time></trkpt><trkpt lat="45.778949080970136" lon="12.128525917576932"><ele>90.0</ele><time>2026-03-23T09:01:49.999Z</time></trkpt><trkpt lat="45.77879887016553" lon="12.128261809277008"><ele>90.0</ele><time>2026-03-23T09:01:50.999Z</time></trkpt><trkpt lat="45.77866145919457" lon="12.128031207458196"><ele>90.0</ele><time>2026-03-23T09:01:51.999Z</time></trkpt><trkpt lat="45.77852885874324" lon="12.127813973211092"><ele>90.0</ele><time>2026-03-23T09:01:52.998Z</time></trkpt><trkpt lat="45.77839451823835" lon="12.12759961122063"><ele>90.0</ele><time>2026-03-23T09:01:53.998Z</time></trkpt><trkpt lat="45.77827101693881" lon="12.127402820240423"><ele>90.0</ele><time>2026-03-23T09:01:54.998Z</time></trkpt><trkpt lat="45.77816603122908" lon="12.127215621376408"><ele>90.0</ele><time>2026-03-23T09:01:55.998Z</time></trkpt><trkpt lat="45.778074495927065" lon="12.127059464965292"><ele>90.0</ele><time>2026-03-23T09:01:56.998Z</time></trkpt><trkpt lat="45.77799729660401" lon="12.126914733316257"><ele>90.0</ele><time>2026-03-23T09:01:58Z</time></trkpt><trkpt lat="45.77792852237996" lon="12.126776435934092"><ele>90.0</ele><time>2026-03-23T09:01:59Z</time></trkpt><trkpt lat="45.77788429808954" lon="12.126658702713133"><ele>90.0</ele><time>2026-03-23T09:02:00Z</time></trkpt><trkpt lat="45.77771472109519" lon="12.126349919458686"><ele>90.0</ele><time>2026-03-23T09:02:01Z</time></trkpt><trkpt lat="45.777664489523" lon="12.12613068170892"><ele>90.0</ele><time>2026-03-23T09:02:02Z</time></trkpt><trkpt lat="45.777620628244215" lon="12.125888244428332"><ele>90.0</ele><time>2026-03-23T09:02:03Z</time></trkpt><trkpt lat="45.777571369943864" lon="12.125635929040266"><ele>90.0</ele><time>2026-03-23T09:02:04Z</time></trkpt><trkpt lat="45.777543473987215" lon="12.125367353977055"><ele>90.0</ele><time>2026-03-23T09:02:05Z</time></trkpt><trkpt lat="45.77753471408672" lon="12.125097272554301"><ele>90.33333333333333</ele><time>2026-03-23T09:02:06Z</time></trkpt><trkpt lat="45.77754041016787" lon="12.124824338497227"><ele>90.66666666666666</ele><time>2026-03-23T09:02:07Z</time></trkpt><trkpt lat="45.7775618049211" lon="12.124568061898593"><ele>91.0</ele><time>2026-03-23T09:02:08Z</time></trkpt><trkpt lat="45.77759482986322" lon="12.124327606984581"><ele>91.0</ele><time>2026-03-23T09:02:09Z</time></trkpt><trkpt lat="45.77766844355111" lon="12.124125826215804"><ele>91.0</ele><time>2026-03-23T09:02:10Z</time></trkpt><trkpt lat="45.777739463609464" lon="12.123946791359346"><ele>91.0</ele><time>2026-03-23T09:02:11Z</time></trkpt><trkpt lat="45.77780220970154" lon="12.123766686881243"><ele>91.0</ele><time>2026-03-23T09:02:12Z</time></trkpt><trkpt lat="45.77790127788764" lon="12.123604448038076"><ele>91.33333333333333</ele><time>2026-03-23T09:02:13Z</time></trkpt><trkpt lat="45.778017580530374" lon="12.123434257631077"><ele>91.66666666666667</ele><time>2026-03-23T09:02:14Z</time></trkpt><trkpt lat="45.77813596046837" lon="12.123262388222086"><ele>92.0</ele><time>2026-03-23T09:02:15Z</time></trkpt><trkpt lat="45.77824767055875" lon="12.12311142987116"><ele>92.0</ele><time>2026-03-23T09:02:16Z</time></trkpt><trkpt lat="45.77834905291697" lon="12.122973284973023"><ele>92.0</ele><time>2026-03-23T09:02:17Z</time></trkpt><trkpt lat="45.77843160328041" lon="12.122833949914067"><ele>92.0</ele><time>2026-03-23T09:02:18Z</time></trkpt><trkpt lat="45.77848558528609" lon="12.122675110229803"><ele>92.0</ele><time>2026-03-23T09:02:19Z</time></trkpt><trkpt lat="45.77855139515132" lon="12.122541333745742"><ele>92.0</ele><time>2026-03-23T09:02:20Z</time></trkpt><trkpt lat="45.77858189093533" lon="12.122412173333647"><ele>92.0</ele><time>2026-03-23T09:02:21Z</time></trkpt><trkpt lat="45.77863637806556" lon="12.12232382089389"><ele>92.0</ele><time>2026-03-23T09:02:22Z</time></trkpt><trkpt lat="45.77870278067206" lon="12.122252327640668"><ele>92.0</ele><time>2026-03-23T09:02:23Z</time></trkpt><trkpt lat="45.7787728617205" lon="12.122170804839339"><ele>92.0</ele><time>2026-03-23T09:02:24Z</time></trkpt><trkpt lat="45.77886475085942" lon="12.122063081401514"><ele>93.0</ele><time>2026-03-23T09:02:25Z</time></trkpt><trkpt lat="45.77899303696649" lon="12.121950689687866"><ele>94.0</ele><time>2026-03-23T09:02:26Z</time></trkpt><trkpt lat="45.77911073790889" lon="12.121824310759598"><ele>95.0</ele><time>2026-03-23T09:02:27Z</time></trkpt><trkpt lat="45.779216093763885" lon="12.121684488439886"><ele>96.0</ele><time>2026-03-23T09:02:28Z</time></trkpt><trkpt lat="45.779328707760314" lon="12.121528411552704"><ele>96.0</ele><time>2026-03-23T09:02:29Z</time></trkpt><trkpt lat="45.779464260914956" lon="12.121413314458783"><ele>96.0</ele><time>2026-03-23T09:02:30Z</time></trkpt><trkpt lat="45.77958496505821" lon="12.121319074285925"><ele>96.0</ele><time>2026-03-23T09:02:31Z</time></trkpt><trkpt lat="45.77968902948844" lon="12.121239921751977"><ele>96.0</ele><time>2026-03-23T09:02:32Z</time></trkpt><trkpt lat="45.77978883776832" lon="12.121198797732962"><ele>96.0</ele><time>2026-03-23T09:02:33Z</time></trkpt><trkpt lat="45.77988249836127" lon="12.121215542603139"><ele>96.0</ele><time>2026-03-23T09:02:34Z</time></trkpt><trkpt lat="45.780005935009946" lon="12.121242844766636"><ele>96.0</ele><time>2026-03-23T09:02:35Z</time></trkpt><trkpt lat="45.78012584314732" lon="12.121314949403045"><ele>96.0</ele><time>2026-03-23T09:02:36Z</time></trkpt><trkpt lat="45.78022423768618" lon="12.121408233632526"><ele>96.0</ele><time>2026-03-23T09:02:37Z</time></trkpt><trkpt lat="45.78032230058407" lon="12.12154488610642"><ele>96.0</ele><time>2026-03-23T09:02:38Z</time></trkpt><trkpt lat="45.78043180930631" lon="12.121701900787668"><ele>96.0</ele><time>2026-03-23T09:02:39Z</time></trkpt><trkpt lat="45.780539873515" lon="12.121827655299917"><ele>96.0</ele><time>2026-03-23T09:02:40Z</time></trkpt><trkpt lat="45.78064379025742" lon="12.121972368631884"><ele>96.0</ele><time>2026-03-23T09:02:41Z</time></trkpt><trkpt lat="45.78075851538826" lon="12.122120612558476"><ele>96.0</ele><time>2026-03-23T09:02:42Z</time></trkpt><trkpt lat="45.78090454097224" lon="12.122241865901595"><ele>96.0</ele><time>2026-03-23T09:02:43Z</time></trkpt><trkpt lat="45.78104662301457" lon="12.122330291468723"><ele>96.5</ele><time>2026-03-23T09:02:44Z</time></trkpt><trkpt lat="45.781187760716925" lon="12.122358162452873"><ele>97.0</ele><time>2026-03-23T09:02:45Z</time></trkpt><trkpt lat="45.781335685456405" lon="12.122365944461189"><ele>97.5</ele><time>2026-03-23T09:02:46Z</time></trkpt><trkpt lat="45.78147793210595" lon="12.122367057992374"><ele>98.0</ele><time>2026-03-23T09:02:47Z</time></trkpt><trkpt lat="45.78161753291507" lon="12.122348707256617"><ele>98.0</ele><time>2026-03-23T09:02:48Z</time></trkpt><trkpt lat="45.781777887884104" lon="12.122313388975234"><ele>98.0</ele><time>2026-03-23T09:02:49Z</time></trkpt><trkpt lat="45.78194272582939" lon="12.12232279836483"><ele>98.0</ele><time>2026-03-23T09:02:50Z</time></trkpt><trkpt lat="45.78210132640328" lon="12.12232653821125"><ele>98.33333333333333</ele><time>2026-03-23T09:02:51Z</time></trkpt><trkpt lat="45.78225367894539" lon="12.122375832166886"><ele>98.66666666666666</ele><time>2026-03-23T09:02:52Z</time></trkpt><trkpt lat="45.7824024411137" lon="12.122430289237037"><ele>99.0</ele><time>2026-03-23T09:02:52.999Z</time></trkpt><trkpt lat="45.782554196894104" lon="12.122474468065809"><ele>99.66666666666666</ele><time>2026-03-23T09:02:53.999Z</time></trkpt><trkpt lat="45.782706850080274" lon="12.122564481491954"><ele>100.33333333333333</ele><time>2026-03-23T09:02:54.999Z</time></trkpt><trkpt lat="45.782848189291556" lon="12.122651986978262"><ele>101.0</ele><time>2026-03-23T09:02:55.999Z</time></trkpt><trkpt lat="45.78296724058539" lon="12.122752712496945"><ele>101.0</ele><time>2026-03-23T09:02:56.999Z</time></trkpt><trkpt lat="45.783077680287676" lon="12.122835577056305"><ele>101.0</ele><time>2026-03-23T09:02:57.999Z</time></trkpt><trkpt lat="45.78319855216203" lon="12.122878725282762"><ele>101.0</ele><time>2026-03-23T09:02:58.999Z</time></trkpt><trkpt lat="45.78335035564981" lon="12.12286911124703"><ele>101.0</ele><time>2026-03-23T09:02:59.999Z</time></trkpt><trkpt lat="45.78352058209485" lon="12.1228489247071"><ele>101.5</ele><time>2026-03-23T09:03:00.999Z</time></trkpt><trkpt lat="45.783674008708246" lon="12.122873098891088"><ele>102.0</ele><time>2026-03-23T09:03:01.999Z</time></trkpt><trkpt lat="45.78380802994308" lon="12.122892103332202"><ele>102.5</ele><time>2026-03-23T09:03:02.999Z</time></trkpt><trkpt lat="45.783931701673545" lon="12.122878050856505"><ele>103.0</ele><time>2026-03-23T09:03:03.999Z</time></trkpt><trkpt lat="45.78404624997872" lon="12.122860591764194"><ele>103.0</ele><time>2026-03-23T09:03:04.999Z</time></trkpt><trkpt lat="45.78417415685803" lon="12.122823522767213"><ele>103.0</ele><time>2026-03-23T09:03:05.999Z</time></trkpt><trkpt lat="45.784315422447655" lon="12.122798820671361"><ele>103.0</ele><time>2026-03-23T09:03:06.999Z</time></trkpt><trkpt lat="45.784471979373016" lon="12.122785261716581"><ele>103.0</ele><time>2026-03-23T09:03:07.999Z</time></trkpt><trkpt lat="45.78461243720142" lon="12.122751177749345"><ele>104.2</ele><time>2026-03-23T09:03:08.999Z</time></trkpt><trkpt lat="45.784734289435306" lon="12.122727889878774"><ele>105.4</ele><time>2026-03-23T09:03:09.999Z</time></trkpt><trkpt lat="45.784832998933446" lon="12.122736495914298"><ele>106.60000000000001</ele><time>2026-03-23T09:03:10.999Z</time></trkpt><trkpt lat="45.78489951575867" lon="12.122752547946465"><ele>107.80000000000001</ele><time>2026-03-23T09:03:11.999Z</time></trkpt><trkpt lat="45.78499061399426" lon="12.122749607450443"><ele>109.0</ele><time>2026-03-23T09:03:12.999Z</time></trkpt><trkpt lat="45.78510020667753" lon="12.122733843807978"><ele>111.75</ele><time>2026-03-23T09:03:13.999Z</time></trkpt><trkpt lat="45.78521297730504" lon="12.122773654863991"><ele>114.5</ele><time>2026-03-23T09:03:14.999Z</time></trkpt><trkpt lat="45.78534834662751" lon="12.12289184909422"><ele>117.25</ele><time>2026-03-23T09:03:15.999Z</time></trkpt><trkpt lat="45.785446349639116" lon="12.123003108772158"><ele>120.0</ele><time>2026-03-23T09:03:16.999Z</time></trkpt><trkpt lat="45.785530346737545" lon="12.123058650952766"><ele>120.0</ele><time>2026-03-23T09:03:17.999Z</time></trkpt><trkpt lat="45.78561300924361" lon="12.123068703300913"><ele>120.0</ele><time>2026-03-23T09:03:18.999Z</time></trkpt><trkpt lat="45.78570300287217" lon="12.123043696253102"><ele>120.0</ele><time>2026-03-23T09:03:19.999Z</time></trkpt><trkpt lat="45.78578739027756" lon="12.122967674247644"><ele>120.0</ele><time>2026-03-23T09:03:20.999Z</time></trkpt><trkpt lat="45.78586582034854" lon="12.12283619667801"><ele>120.0</ele><time>2026-03-23T09:03:21.999Z</time></trkpt><trkpt lat="45.78594504236299" lon="12.122657317890837"><ele>124.33333333333334</ele><time>2026-03-23T09:03:22.999Z</time></trkpt><trkpt lat="45.78605425075488" lon="12.122479643831195"><ele>128.66666666666669</ele><time>2026-03-23T09:03:23.999Z</time></trkpt><trkpt lat="45.786190957756865" lon="12.122310755053313"><ele>133.0</ele><time>2026-03-23T09:03:24.999Z</time></trkpt><trkpt lat="45.78634514393657" lon="12.122180276753967"><ele>133.0</ele><time>2026-03-23T09:03:25.999Z</time></trkpt><trkpt lat="45.78648375447003" lon="12.122073055710118"><ele>133.0</ele><time>2026-03-23T09:03:26.999Z</time></trkpt><trkpt lat="45.78661688630882" lon="12.122047689712858"><ele>133.0</ele><time>2026-03-23T09:03:27.999Z</time></trkpt><trkpt lat="45.78673703961546" lon="12.122074181860576"><ele>133.0</ele><time>2026-03-23T09:03:28.999Z</time></trkpt><trkpt lat="45.78684876334192" lon="12.122149897946171"><ele>137.66666666666669</ele><time>2026-03-23T09:03:29.999Z</time></trkpt><trkpt lat="45.78695893684492" lon="12.122286160665382"><ele>142.33333333333334</ele><time>2026-03-23T09:03:30.999Z</time></trkpt><trkpt lat="45.78707674498796" lon="12.122476822099019"><ele>147.0</ele><time>2026-03-23T09:03:31.999Z</time></trkpt><trkpt lat="45.78720713625046" lon="12.12270042220833"><ele>147.5</ele><time>2026-03-23T09:03:32.999Z</time></trkpt><trkpt lat="45.78736049781254" lon="12.122923885278503"><ele>148.0</ele><time>2026-03-23T09:03:33.999Z</time></trkpt><trkpt lat="45.787538715830244" lon="12.123151653962584"><ele>154.0</ele><time>2026-03-23T09:03:34.999Z</time></trkpt><trkpt lat="45.78769922137167" lon="12.123365858379703"><ele>160.0</ele><time>2026-03-23T09:03:35.999Z</time></trkpt><trkpt lat="45.78786612514037" lon="12.123563828821013"><ele>166.0</ele><time>2026-03-23T09:03:36.999Z</time></trkpt><trkpt lat="45.78803843967968" lon="12.12374870812797"><ele>166.0</ele><time>2026-03-23T09:03:37.999Z</time></trkpt><trkpt lat="45.78817628063069" lon="12.123917721503549"><ele>166.0</ele><time>2026-03-23T09:03:38.999Z</time></trkpt><trkpt lat="45.78830040398154" lon="12.124068940325666"><ele>166.0</ele><time>2026-03-23T09:03:39.999Z</time></trkpt><trkpt lat="45.788415350911656" lon="12.124174918669446"><ele>170.66666666666669</ele><time>2026-03-23T09:03:40.999Z</time></trkpt><trkpt lat="45.78855106092158" lon="12.124231185838338"><ele>175.33333333333334</ele><time>2026-03-23T09:03:41.999Z</time></trkpt><trkpt lat="45.788717070360235" lon="12.12424465396652"><ele>180.0</ele><time>2026-03-23T09:03:42.999Z</time></trkpt><trkpt lat="45.7888999869297" lon="12.124210965647753"><ele>180.0</ele><time>2026-03-23T09:03:43.999Z</time></trkpt><trkpt lat="45.78910859003728" lon="12.124157106283329"><ele>180.0</ele><time>2026-03-23T09:03:44.999Z</time></trkpt><trkpt lat="45.78933726916628" lon="12.12412179083817"><ele>180.0</ele><time>2026-03-23T09:03:45.999Z</time></trkpt><trkpt lat="45.78954469677973" lon="12.124087792438457"><ele>184.33333333333331</ele><time>2026-03-23T09:03:46.999Z</time></trkpt><trkpt lat="45.789718335287574" lon="12.1240550463126"><ele>188.66666666666666</ele><time>2026-03-23T09:03:47.999Z</time></trkpt><trkpt lat="45.7898955481278" lon="12.123981773144644"><ele>193.0</ele><time>2026-03-23T09:03:48.999Z</time></trkpt><trkpt lat="45.79008686327829" lon="12.123834359449903"><ele>194.0</ele><time>2026-03-23T09:03:49.999Z</time></trkpt><trkpt lat="45.79029295634109" lon="12.123659145928174"><ele>195.0</ele><time>2026-03-23T09:03:50.999Z</time></trkpt><trkpt lat="45.79050323224064" lon="12.123495140874908"><ele>195.0</ele><time>2026-03-23T09:03:51.999Z</time></trkpt><trkpt lat="45.79070895271589" lon="12.123331012877202"><ele>195.0</ele><time>2026-03-23T09:03:52.999Z</time></trkpt><trkpt lat="45.79091262868954" lon="12.12315409521493"><ele>200.0</ele><time>2026-03-23T09:03:53.999Z</time></trkpt><trkpt lat="45.791126538726395" lon="12.12298073233895"><ele>205.0</ele><time>2026-03-23T09:03:54.999Z</time></trkpt><trkpt lat="45.791344530441435" lon="12.1228261213891"><ele>205.0</ele><time>2026-03-23T09:03:55.999Z</time></trkpt><trkpt lat="45.79158524007648" lon="12.122726535914895"><ele>205.0</ele><time>2026-03-23T09:03:56.999Z</time></trkpt><trkpt lat="45.79183842465373" lon="12.122596283332587"><ele>209.0</ele><time>2026-03-23T09:03:57.999Z</time></trkpt><trkpt lat="45.79207378267532" lon="12.1225000777574"><ele>213.0</ele><time>2026-03-23T09:03:58.999Z</time></trkpt><trkpt lat="45.79227486673528" lon="12.122404718243146"><ele>214.33333333333331</ele><time>2026-03-23T09:03:59.999Z</time></trkpt><trkpt lat="45.792456625924245" lon="12.122323774962414"><ele>215.66666666666666</ele><time>2026-03-23T09:04:00.999Z</time></trkpt><trkpt lat="45.792636703663845" lon="12.12221410470543"><ele>217.0</ele><time>2026-03-23T09:04:01.999Z</time></trkpt><trkpt lat="45.79279639264402" lon="12.122038408255296"><ele>220.66666666666666</ele><time>2026-03-23T09:04:02.999Z</time></trkpt><trkpt lat="45.792941853384484" lon="12.121832988492747"><ele>224.33333333333331</ele><time>2026-03-23T09:04:04Z</time></trkpt><trkpt lat="45.793085665182446" lon="12.121664312675149"><ele>228.0</ele><time>2026-03-23T09:04:05Z</time></trkpt><trkpt lat="45.79323332673327" lon="12.121589016135921"><ele>228.0</ele><time>2026-03-23T09:04:06Z</time></trkpt><trkpt lat="45.79339861588248" lon="12.121618851490323"><ele>228.0</ele><time>2026-03-23T09:04:07Z</time></trkpt><trkpt lat="45.79360571039509" lon="12.121653274294674"><ele>228.0</ele><time>2026-03-23T09:04:08Z</time></trkpt><trkpt lat="45.79382467391772" lon="12.121700308251548"><ele>232.5</ele><time>2026-03-23T09:04:09Z</time></trkpt><trkpt lat="45.794096763804305" lon="12.1217365427036"><ele>237.0</ele><time>2026-03-23T09:04:10Z</time></trkpt><trkpt lat="45.79437056510468" lon="12.12175103260674"><ele>241.0</ele><time>2026-03-23T09:04:11Z</time></trkpt><trkpt lat="45.79463238291403" lon="12.121846558508924"><ele>245.0</ele><time>2026-03-23T09:04:12Z</time></trkpt><trkpt lat="45.79485907799261" lon="12.121911956453271"><ele>245.0</ele><time>2026-03-23T09:04:13Z</time></trkpt><trkpt lat="45.79505681316273" lon="12.121980548597607"><ele>245.0</ele><time>2026-03-23T09:04:14Z</time></trkpt><trkpt lat="45.795245979243106" lon="12.122028041364313"><ele>245.0</ele><time>2026-03-23T09:04:15Z</time></trkpt><trkpt lat="45.79545531565472" lon="12.12205279584945"><ele>246.66666666666669</ele><time>2026-03-23T09:04:16Z</time></trkpt><trkpt lat="45.79567671709235" lon="12.122032866080575"><ele>248.33333333333331</ele><time>2026-03-23T09:04:17Z</time></trkpt><trkpt lat="45.79587319989487" lon="12.12198191091981"><ele>250.0</ele><time>2026-03-23T09:04:18Z</time></trkpt><trkpt lat="45.79604138523976" lon="12.121936832365545"><ele>250.5</ele><time>2026-03-23T09:04:19Z</time></trkpt><trkpt lat="45.7961808705593" lon="12.121918893261544"><ele>251.0</ele><time>2026-03-23T09:04:20Z</time></trkpt><trkpt lat="45.79629010192938" lon="12.121882741544892"><ele>251.5</ele><time>2026-03-23T09:04:21Z</time></trkpt><trkpt lat="45.79638723816241" lon="12.121790607369341"><ele>252.0</ele><time>2026-03-23T09:04:22Z</time></trkpt><trkpt lat="45.79645848421479" lon="12.121631782248006"><ele>254.33333333333331</ele><time>2026-03-23T09:04:23Z</time></trkpt><trkpt lat="45.79651230106163" lon="12.121414226469682"><ele>256.66666666666663</ele><time>2026-03-23T09:04:24Z</time></trkpt><trkpt lat="45.79655174473901" lon="12.121161626887513"><ele>259.0</ele><time>2026-03-23T09:04:25Z</time></trkpt><trkpt lat="45.796610520604155" lon="12.120937227524653"><ele>259.0</ele><time>2026-03-23T09:04:26Z</time></trkpt><trkpt lat="45.796718102413635" lon="12.120759872658377"><ele>259.0</ele><time>2026-03-23T09:04:27Z</time></trkpt><trkpt lat="45.796863901998684" lon="12.120614385088267"><ele>259.0</ele><time>2026-03-23T09:04:28Z</time></trkpt><trkpt lat="45.797034880729484" lon="12.120477630417634"><ele>264.5</ele><time>2026-03-23T09:04:29Z</time></trkpt><trkpt lat="45.79723324357229" lon="12.12032656443161"><ele>270.0</ele><time>2026-03-23T09:04:30Z</time></trkpt><trkpt lat="45.79743073034872" lon="12.120149211565742"><ele>270.0</ele><time>2026-03-23T09:04:31Z</time></trkpt><trkpt lat="45.7976162785217" lon="12.119983534384087"><ele>270.0</ele><time>2026-03-23T09:04:32Z</time></trkpt><trkpt lat="45.79777928597721" lon="12.119857862127432"><ele>270.0</ele><time>2026-03-23T09:04:33Z</time></trkpt><trkpt lat="45.797935797514484" lon="12.119737565356061"><ele>273.3333333333333</ele><time>2026-03-23T09:04:34Z</time></trkpt><trkpt lat="45.798099956444354" lon="12.119639464032229"><ele>276.66666666666663</ele><time>2026-03-23T09:04:35Z</time></trkpt><trkpt lat="45.79828426241319" lon="12.119548677856546"><ele>280.0</ele><time>2026-03-23T09:04:36Z</time></trkpt><trkpt lat="45.798480920403186" lon="12.11945349495432"><ele>279.3333333333333</ele><time>2026-03-23T09:04:37Z</time></trkpt><trkpt lat="45.798684443783664" lon="12.119343980791683"><ele>278.6666666666667</ele><time>2026-03-23T09:04:38Z</time></trkpt><trkpt lat="45.79889654682034" lon="12.119240930514799"><ele>278.0</ele><time>2026-03-23T09:04:39Z</time></trkpt><trkpt lat="45.79910288435721" lon="12.11914877073028"><ele>280.0</ele><time>2026-03-23T09:04:40Z</time></trkpt><trkpt lat="45.79932265243177" lon="12.119045834737802"><ele>282.0</ele><time>2026-03-23T09:04:41Z</time></trkpt><trkpt lat="45.79953218955136" lon="12.118934233004074"><ele>284.6666666666667</ele><time>2026-03-23T09:04:42Z</time></trkpt><trkpt lat="45.79971981158727" lon="12.118837517119927"><ele>287.33333333333337</ele><time>2026-03-23T09:04:43Z</time></trkpt><trkpt lat="45.799900147306325" lon="12.118754083378086"><ele>290.0</ele><time>2026-03-23T09:04:43.999Z</time></trkpt><trkpt lat="45.800095581532375" lon="12.118658002404826"><ele>291.0</ele><time>2026-03-23T09:04:44.999Z</time></trkpt><trkpt lat="45.80029343369077" lon="12.11852391067914"><ele>292.0</ele><time>2026-03-23T09:04:45.999Z</time></trkpt><trkpt lat="45.80047167099087" lon="12.118384002397073"><ele>293.0</ele><time>2026-03-23T09:04:46.999Z</time></trkpt><trkpt lat="45.80062662677982" lon="12.118256021070913"><ele>294.0</ele><time>2026-03-23T09:04:47.999Z</time></trkpt><trkpt lat="45.80077573061617" lon="12.118132049768114"><ele>295.0</ele><time>2026-03-23T09:04:48.999Z</time></trkpt><trkpt lat="45.800925984731734" lon="12.11796292896997"><ele>296.0</ele><time>2026-03-23T09:04:49.999Z</time></trkpt><trkpt lat="45.8010844255204" lon="12.117735816634942"><ele>296.0</ele><time>2026-03-23T09:04:50.999Z</time></trkpt><trkpt lat="45.801229197060316" lon="12.117457451221833"><ele>296.0</ele><time>2026-03-23T09:04:51.999Z</time></trkpt><trkpt lat="45.80137219001001" lon="12.117172998389984"><ele>291.33333333333337</ele><time>2026-03-23T09:04:52.999Z</time></trkpt><trkpt lat="45.801496153648586" lon="12.116912803534296"><ele>286.6666666666667</ele><time>2026-03-23T09:04:53.999Z</time></trkpt><trkpt lat="45.80160288532432" lon="12.116657582462647"><ele>282.0</ele><time>2026-03-23T09:04:54.999Z</time></trkpt><trkpt lat="45.80173361877657" lon="12.116406624651985"><ele>284.0</ele><time>2026-03-23T09:04:55.999Z</time></trkpt><trkpt lat="45.80191935982114" lon="12.116164926848159"><ele>286.0</ele><time>2026-03-23T09:04:56.999Z</time></trkpt><trkpt lat="45.80213996000431" lon="12.115922112460826"><ele>284.5</ele><time>2026-03-23T09:04:57.999Z</time></trkpt><trkpt lat="45.80235654109171" lon="12.11567751498219"><ele>283.0</ele><time>2026-03-23T09:04:58.999Z</time></trkpt><trkpt lat="45.802553083598866" lon="12.115439309302971"><ele>284.0</ele><time>2026-03-23T09:04:59.999Z</time></trkpt><trkpt lat="45.8027605839841" lon="12.115222494922838"><ele>285.0</ele><time>2026-03-23T09:05:00.999Z</time></trkpt><trkpt lat="45.80296411844855" lon="12.115056270149"><ele>285.0</ele><time>2026-03-23T09:05:01.999Z</time></trkpt><trkpt lat="45.80317034758779" lon="12.114908202822445"><ele>285.0</ele><time>2026-03-23T09:05:02.999Z</time></trkpt><trkpt lat="45.803394116897294" lon="12.114762153487348"><ele>285.5</ele><time>2026-03-23T09:05:03.999Z</time></trkpt><trkpt lat="45.803654277770576" lon="12.114635324970456"><ele>286.0</ele><time>2026-03-23T09:05:04.999Z</time></trkpt><trkpt lat="45.803946953836515" lon="12.114528189959573"><ele>286.0</ele><time>2026-03-23T09:05:05.999Z</time></trkpt><trkpt lat="45.80426486332243" lon="12.11442206500256"><ele>286.0</ele><time>2026-03-23T09:05:06.999Z</time></trkpt><trkpt lat="45.80458879999019" lon="12.114283900342045"><ele>290.5</ele><time>2026-03-23T09:05:07.999Z</time></trkpt><trkpt lat="45.804881983215296" lon="12.114159731650169"><ele>295.0</ele><time>2026-03-23T09:05:08.999Z</time></trkpt><trkpt lat="45.80514386125685" lon="12.114092196973157"><ele>296.0</ele><time>2026-03-23T09:05:09.999Z</time></trkpt><trkpt lat="45.805368207321045" lon="12.114048379320566"><ele>297.0</ele><time>2026-03-23T09:05:10.999Z</time></trkpt><trkpt lat="45.80557262816138" lon="12.114017410219299"><ele>298.0</ele><time>2026-03-23T09:05:11.999Z</time></trkpt><trkpt lat="45.80578158565126" lon="12.113925640814154"><ele>298.5</ele><time>2026-03-23T09:05:12.999Z</time></trkpt><trkpt lat="45.80599803617292" lon="12.1138140769887"><ele>299.0</ele><time>2026-03-23T09:05:13.999Z</time></trkpt><trkpt lat="45.80620970269402" lon="12.113684837676152"><ele>299.0</ele><time>2026-03-23T09:05:14.999Z</time></trkpt><trkpt lat="45.806414865286854" lon="12.11359522813624"><ele>299.0</ele><time>2026-03-23T09:05:15.999Z</time></trkpt><trkpt lat="45.80660037070671" lon="12.113542283158543"><ele>299.0</ele><time>2026-03-23T09:05:16.999Z</time></trkpt><trkpt lat="45.8068059169969" lon="12.113523481606233"><ele>298.6666666666667</ele><time>2026-03-23T09:05:17.999Z</time></trkpt><trkpt lat="45.80698587429828" lon="12.11352490639648"><ele>298.3333333333333</ele><time>2026-03-23T09:05:18.999Z</time></trkpt><trkpt lat="45.80714464161224" lon="12.11356589770108"><ele>298.0</ele><time>2026-03-23T09:05:19.999Z</time></trkpt><trkpt lat="45.807288863395854" lon="12.11365242361204"><ele>298.0</ele><time>2026-03-23T09:05:20.999Z</time></trkpt><trkpt lat="45.807400842277424" lon="12.113761834747484"><ele>298.0</ele><time>2026-03-23T09:05:21.999Z</time></trkpt><trkpt lat="45.807490735244976" lon="12.11385328847391"><ele>298.0</ele><time>2026-03-23T09:05:22.999Z</time></trkpt><trkpt lat="45.80759315163228" lon="12.113882152143626"><ele>298.0</ele><time>2026-03-23T09:05:23.999Z</time></trkpt><trkpt lat="45.80768866316118" lon="12.113874810434861"><ele>298.0</ele><time>2026-03-23T09:05:24.999Z</time></trkpt><trkpt lat="45.80777046802312" lon="12.113820453385054"><ele>301.0</ele><time>2026-03-23T09:05:25.999Z</time></trkpt><trkpt lat="45.80784253397357" lon="12.113710955631332"><ele>304.0</ele><time>2026-03-23T09:05:26.999Z</time></trkpt><trkpt lat="45.80786855188698" lon="12.113547581928897"><ele>307.0</ele><time>2026-03-23T09:05:27.999Z</time></trkpt><trkpt lat="45.80787228919351" lon="12.113382018187455"><ele>310.0</ele><time>2026-03-23T09:05:28.999Z</time></trkpt><trkpt lat="45.8079170673253" lon="12.113186046120457"><ele>310.5</ele><time>2026-03-23T09:05:29.999Z</time></trkpt><trkpt lat="45.807929787822864" lon="12.113010291198137"><ele>311.0</ele><time>2026-03-23T09:05:30.999Z</time></trkpt><trkpt lat="45.80799563020584" lon="12.112891344799635"><ele>311.5</ele><time>2026-03-23T09:05:31.999Z</time></trkpt><trkpt lat="45.80808370127112" lon="12.112757750977178"><ele>312.0</ele><time>2026-03-23T09:05:32.999Z</time></trkpt><trkpt lat="45.808220803300415" lon="12.112642184772525"><ele>312.0</ele><time>2026-03-23T09:05:33.999Z</time></trkpt><trkpt lat="45.80837640923243" lon="12.112515749860304"><ele>312.0</ele><time>2026-03-23T09:05:34.999Z</time></trkpt><trkpt lat="45.80850589689203" lon="12.112391045367307"><ele>312.0</ele><time>2026-03-23T09:05:35.999Z</time></trkpt><trkpt lat="45.808610191505" lon="12.112282260938978"><ele>314.0</ele><time>2026-03-23T09:05:36.999Z</time></trkpt><trkpt lat="45.80870227959757" lon="12.112209362354028"><ele>316.0</ele><time>2026-03-23T09:05:37.999Z</time></trkpt><trkpt lat="45.80877796606041" lon="12.112137239224456"><ele>318.0</ele><time>2026-03-23T09:05:38.999Z</time></trkpt><trkpt lat="45.80884352654449" lon="12.112077488529122"><ele>320.0</ele><time>2026-03-23T09:05:39.999Z</time></trkpt><trkpt lat="45.808911551692056" lon="12.112014257124013"><ele>322.0</ele><time>2026-03-23T09:05:41.999Z</time></trkpt><trkpt lat="45.80892170969375" lon="12.11186895713167"><ele>322.0</ele><time>2026-03-23T09:05:44.999Z</time></trkpt><trkpt lat="45.808882218604985" lon="12.111750955772658"><ele>322.0</ele><time>2026-03-23T09:05:45.999Z</time></trkpt><trkpt lat="45.8088078644556" lon="12.11159809727854"><ele>322.0</ele><time>2026-03-23T09:05:46.999Z</time></trkpt><trkpt lat="45.80871624868326" lon="12.111477446328063"><ele>322.0</ele><time>2026-03-23T09:05:47.999Z</time></trkpt><trkpt lat="45.80860924341363" lon="12.111301903447545"><ele>320.3333333333333</ele><time>2026-03-23T09:05:48.999Z</time></trkpt><trkpt lat="45.80850379278742" lon="12.111121781571045"><ele>318.6666666666667</ele><time>2026-03-23T09:05:49.999Z</time></trkpt><trkpt lat="45.80837274401678" lon="12.110948811068582"><ele>317.0</ele><time>2026-03-23T09:05:50.999Z</time></trkpt><trkpt lat="45.808230387882325" lon="12.110806998945437"><ele>315.6666666666667</ele><time>2026-03-23T09:05:51.999Z</time></trkpt><trkpt lat="45.80809582137048" lon="12.110681292014872"><ele>314.3333333333333</ele><time>2026-03-23T09:05:52.999Z</time></trkpt><trkpt lat="45.807968404914064" lon="12.11056587377265"><ele>313.0</ele><time>2026-03-23T09:05:53.998Z</time></trkpt><trkpt lat="45.80782932604344" lon="12.110515563632747"><ele>313.0</ele><time>2026-03-23T09:05:54.998Z</time></trkpt><trkpt lat="45.80769489063135" lon="12.110533852737994"><ele>313.0</ele><time>2026-03-23T09:05:55.998Z</time></trkpt><trkpt lat="45.807541497139475" lon="12.110600675694226"><ele>313.0</ele><time>2026-03-23T09:05:56.998Z</time></trkpt><trkpt lat="45.807382683157314" lon="12.11069138722899"><ele>316.66666666666663</ele><time>2026-03-23T09:05:57.998Z</time></trkpt><trkpt lat="45.80720553268578" lon="12.110699893901407"><ele>320.3333333333333</ele><time>2026-03-23T09:05:58.998Z</time></trkpt><trkpt lat="45.80705267494606" lon="12.110674271776046"><ele>324.0</ele><time>2026-03-23T09:05:59.998Z</time></trkpt><trkpt lat="45.806912694516015" lon="12.110632760682027"><ele>324.0</ele><time>2026-03-23T09:06:00.998Z</time></trkpt><trkpt lat="45.80677802423641" lon="12.11053218580017"><ele>324.0</ele><time>2026-03-23T09:06:01.998Z</time></trkpt><trkpt lat="45.806636809292975" lon="12.110356712612576"><ele>324.0</ele><time>2026-03-23T09:06:02.998Z</time></trkpt><trkpt lat="45.80649132473139" lon="12.110140727603559"><ele>324.0</ele><time>2026-03-23T09:06:03.998Z</time></trkpt><trkpt lat="45.80631028615958" lon="12.1099874022651"><ele>324.0</ele><time>2026-03-23T09:06:04.998Z</time></trkpt><trkpt lat="45.80610576948458" lon="12.109887351920722"><ele>324.0</ele><time>2026-03-23T09:06:05.998Z</time></trkpt><trkpt lat="45.8059326615788" lon="12.109790320489292"><ele>324.0</ele><time>2026-03-23T09:06:06.998Z</time></trkpt><trkpt lat="45.80578599237323" lon="12.109667043913268"><ele>324.0</ele><time>2026-03-23T09:06:07.998Z</time></trkpt><trkpt lat="45.80565630621528" lon="12.109530758731417"><ele>324.0</ele><time>2026-03-23T09:06:08.998Z</time></trkpt><trkpt lat="45.80551490387631" lon="12.109353176501575"><ele>324.0</ele><time>2026-03-23T09:06:10Z</time></trkpt><trkpt lat="45.80542628401435" lon="12.109137453211277"><ele>324.0</ele><time>2026-03-23T09:06:11Z</time></trkpt><trkpt lat="45.805375586737036" lon="12.108917098171187"><ele>324.0</ele><time>2026-03-23T09:06:12Z</time></trkpt><trkpt lat="45.80535803158137" lon="12.108657096602753"><ele>327.6666666666667</ele><time>2026-03-23T09:06:13Z</time></trkpt><trkpt lat="45.805377725707636" lon="12.108371232147151"><ele>331.33333333333337</ele><time>2026-03-23T09:06:14Z</time></trkpt><trkpt lat="45.80540441812" lon="12.10807946112888"><ele>335.0</ele><time>2026-03-23T09:06:15Z</time></trkpt><trkpt lat="45.80540741546626" lon="12.107820822895164"><ele>337.33333333333337</ele><time>2026-03-23T09:06:16Z</time></trkpt><trkpt lat="45.80538752185154" lon="12.10759864464325"><ele>339.6666666666667</ele><time>2026-03-23T09:06:17Z</time></trkpt><trkpt lat="45.805318232303186" lon="12.107387737587384"><ele>342.0</ele><time>2026-03-23T09:06:18Z</time></trkpt><trkpt lat="45.80520978949576" lon="12.107175506499388"><ele>342.75</ele><time>2026-03-23T09:06:19Z</time></trkpt><trkpt lat="45.80510861505669" lon="12.107001226838449"><ele>343.5</ele><time>2026-03-23T09:06:20Z</time></trkpt><trkpt lat="45.80505934159848" lon="12.106842919485597"><ele>344.25</ele><time>2026-03-23T09:06:21Z</time></trkpt><trkpt lat="45.80500184971833" lon="12.106687461743126"><ele>345.0</ele><time>2026-03-23T09:06:22Z</time></trkpt><trkpt lat="45.80487417059561" lon="12.106590806827063"><ele>347.6666666666667</ele><time>2026-03-23T09:06:23Z</time></trkpt><trkpt lat="45.804705845809096" lon="12.106535135520987"><ele>350.33333333333337</ele><time>2026-03-23T09:06:24Z</time></trkpt><trkpt lat="45.80451850602083" lon="12.106498042351522"><ele>353.0</ele><time>2026-03-23T09:06:25Z</time></trkpt><trkpt lat="45.80433069078335" lon="12.106416932555437"><ele>351.6666666666667</ele><time>2026-03-23T09:06:26Z</time></trkpt><trkpt lat="45.80417201660285" lon="12.106312838811437"><ele>350.3333333333333</ele><time>2026-03-23T09:06:27Z</time></trkpt><trkpt lat="45.80402168648418" lon="12.106254319723911"><ele>349.0</ele><time>2026-03-23T09:06:28Z</time></trkpt><trkpt lat="45.80390453818892" lon="12.1061692665749"><ele>349.0</ele><time>2026-03-23T09:06:29Z</time></trkpt><trkpt lat="45.8038072823612" lon="12.10603799894451"><ele>349.0</ele><time>2026-03-23T09:06:30Z</time></trkpt><trkpt lat="45.80370562563481" lon="12.10586957568224"><ele>349.0</ele><time>2026-03-23T09:06:31Z</time></trkpt><trkpt lat="45.80361970878703" lon="12.105688874686116"><ele>349.0</ele><time>2026-03-23T09:06:32Z</time></trkpt><trkpt lat="45.803553410540516" lon="12.105448868346702"><ele>349.0</ele><time>2026-03-23T09:06:33Z</time></trkpt><trkpt lat="45.80354123615377" lon="12.105183148610003"><ele>349.0</ele><time>2026-03-23T09:06:34Z</time></trkpt><trkpt lat="45.803541127186385" lon="12.104907726381077"><ele>349.0</ele><time>2026-03-23T09:06:35Z</time></trkpt><trkpt lat="45.80354361664694" lon="12.104675570503973"><ele>348.0</ele><time>2026-03-23T09:06:36Z</time></trkpt><trkpt lat="45.80353736291595" lon="12.104470165643543"><ele>347.0</ele><time>2026-03-23T09:06:37Z</time></trkpt><trkpt lat="45.80349239460567" lon="12.104275568029625"><ele>346.0</ele><time>2026-03-23T09:06:38Z</time></trkpt><trkpt lat="45.80340772811155" lon="12.104101916032338"><ele>345.0</ele><time>2026-03-23T09:06:39Z</time></trkpt><trkpt lat="45.8032872915488" lon="12.103972328824057"><ele>344.25</ele><time>2026-03-23T09:06:40Z</time></trkpt><trkpt lat="45.803137108828025" lon="12.103883533096669"><ele>343.5</ele><time>2026-03-23T09:06:41Z</time></trkpt><trkpt lat="45.80300160445034" lon="12.103813256291732"><ele>342.75</ele><time>2026-03-23T09:06:42Z</time></trkpt><trkpt lat="45.802903550560124" lon="12.103675121652534"><ele>342.0</ele><time>2026-03-23T09:06:43Z</time></trkpt><trkpt lat="45.80285423147532" lon="12.10346471583786"><ele>344.0</ele><time>2026-03-23T09:06:44Z</time></trkpt><trkpt lat="45.80284219283304" lon="12.103231636413659"><ele>346.0</ele><time>2026-03-23T09:06:45Z</time></trkpt><trkpt lat="45.80286632694187" lon="12.103009599489562"><ele>348.0</ele><time>2026-03-23T09:06:46Z</time></trkpt><trkpt lat="45.80293202062009" lon="12.102816787979513"><ele>348.0</ele><time>2026-03-23T09:06:47Z</time></trkpt><trkpt lat="45.803026500124545" lon="12.10266457552025"><ele>348.0</ele><time>2026-03-23T09:06:48Z</time></trkpt><trkpt lat="45.8031560240846" lon="12.102557906035594"><ele>348.0</ele><time>2026-03-23T09:06:49Z</time></trkpt><trkpt lat="45.8033145978903" lon="12.102492305239286"><ele>348.0</ele><time>2026-03-23T09:06:50Z</time></trkpt><trkpt lat="45.80348568780737" lon="12.102446521790752"><ele>348.0</ele><time>2026-03-23T09:06:51Z</time></trkpt><trkpt lat="45.80365422440552" lon="12.10237085212035"><ele>348.0</ele><time>2026-03-23T09:06:52Z</time></trkpt><trkpt lat="45.803809687974834" lon="12.102247592314786"><ele>349.0</ele><time>2026-03-23T09:06:53Z</time></trkpt><trkpt lat="45.80397500046799" lon="12.102089040293809"><ele>350.0</ele><time>2026-03-23T09:06:54Z</time></trkpt><trkpt lat="45.80412923153478" lon="12.10189574361685"><ele>351.0</ele><time>2026-03-23T09:06:55Z</time></trkpt><trkpt lat="45.804274882201824" lon="12.101706716393002"><ele>353.6666666666667</ele><time>2026-03-23T09:06:56Z</time></trkpt><trkpt lat="45.80441730334568" lon="12.101553387136045"><ele>356.33333333333337</ele><time>2026-03-23T09:06:57Z</time></trkpt><trkpt lat="45.80454416734974" lon="12.101413937027148"><ele>359.0</ele><time>2026-03-23T09:06:58Z</time></trkpt><trkpt lat="45.80466063678349" lon="12.101264335077985"><ele>359.0</ele><time>2026-03-23T09:06:59Z</time></trkpt><trkpt lat="45.80478806722226" lon="12.10111361187346"><ele>359.0</ele><time>2026-03-23T09:07:00Z</time></trkpt><trkpt lat="45.80492420003438" lon="12.100996400340735"><ele>359.0</ele><time>2026-03-23T09:07:01Z</time></trkpt><trkpt lat="45.80505609359872" lon="12.100896958785137"><ele>359.0</ele><time>2026-03-23T09:07:01.999Z</time></trkpt><trkpt lat="45.805177915027926" lon="12.100802391169795"><ele>359.0</ele><time>2026-03-23T09:07:02.999Z</time></trkpt><trkpt lat="45.80528299573598" lon="12.10069563160894"><ele>359.0</ele><time>2026-03-23T09:07:03.999Z</time></trkpt><trkpt lat="45.80537402469541" lon="12.100538265246882"><ele>359.0</ele><time>2026-03-23T09:07:04.999Z</time></trkpt><trkpt lat="45.80544186133622" lon="12.100311955773067"><ele>358.33333333333337</ele><time>2026-03-23T09:07:05.999Z</time></trkpt><trkpt lat="45.80547005564177" lon="12.100043071147889"><ele>357.6666666666667</ele><time>2026-03-23T09:07:06.999Z</time></trkpt><trkpt lat="45.80547978447133" lon="12.099766856705996"><ele>357.0</ele><time>2026-03-23T09:07:07.999Z</time></trkpt><trkpt lat="45.805516519277546" lon="12.099534310683502"><ele>356.25</ele><time>2026-03-23T09:07:08.999Z</time></trkpt><trkpt lat="45.80554667197493" lon="12.099324937136997"><ele>355.5</ele><time>2026-03-23T09:07:09.999Z</time></trkpt><trkpt lat="45.805561963252" lon="12.099136741970526"><ele>354.75</ele><time>2026-03-23T09:07:10.999Z</time></trkpt><trkpt lat="45.80561309852791" lon="12.098974313578292"><ele>354.0</ele><time>2026-03-23T09:07:11.999Z</time></trkpt><trkpt lat="45.8057092063012" lon="12.098835092702444"><ele>353.3333333333333</ele><time>2026-03-23T09:07:12.999Z</time></trkpt><trkpt lat="45.80583374877136" lon="12.098717863420841"><ele>352.66666666666663</ele><time>2026-03-23T09:07:13.999Z</time></trkpt><trkpt lat="45.805992426404934" lon="12.098631212328149"><ele>352.0</ele><time>2026-03-23T09:07:14.999Z</time></trkpt><trkpt lat="45.806177307240524" lon="12.098546919271664"><ele>352.0</ele><time>2026-03-23T09:07:15.999Z</time></trkpt><trkpt lat="45.80637165933005" lon="12.098448132070052"><ele>352.0</ele><time>2026-03-23T09:07:16.999Z</time></trkpt><trkpt lat="45.806561431982665" lon="12.098311056806548"><ele>352.0</ele><time>2026-03-23T09:07:17.999Z</time></trkpt><trkpt lat="45.80672370805429" lon="12.098157226060886"><ele>355.66666666666663</ele><time>2026-03-23T09:07:18.999Z</time></trkpt><trkpt lat="45.80687008899909" lon="12.098021921320337"><ele>359.3333333333333</ele><time>2026-03-23T09:07:19.999Z</time></trkpt><trkpt lat="45.80699918970987" lon="12.097914165691309"><ele>363.0</ele><time>2026-03-23T09:07:20.999Z</time></trkpt><trkpt lat="45.80710960135061" lon="12.097815735133823"><ele>363.0</ele><time>2026-03-23T09:07:21.999Z</time></trkpt><trkpt lat="45.80721573781308" lon="12.097729735300804"><ele>363.0</ele><time>2026-03-23T09:07:22.999Z</time></trkpt><trkpt lat="45.80730521450843" lon="12.097642650484401"><ele>363.0</ele><time>2026-03-23T09:07:23.999Z</time></trkpt><trkpt lat="45.80737931402975" lon="12.097524661258507"><ele>363.0</ele><time>2026-03-23T09:07:24.999Z</time></trkpt><trkpt lat="45.80743530249357" lon="12.097371044149394"><ele>362.0</ele><time>2026-03-23T09:07:25.999Z</time></trkpt><trkpt lat="45.80747035619964" lon="12.097170318640211"><ele>361.0</ele><time>2026-03-23T09:07:26.999Z</time></trkpt><trkpt lat="45.80747373784525" lon="12.096926433329147"><ele>360.0</ele><time>2026-03-23T09:07:27.999Z</time></trkpt><trkpt lat="45.80746101518639" lon="12.096650438752874"><ele>359.3333333333333</ele><time>2026-03-23T09:07:28.999Z</time></trkpt><trkpt lat="45.807472979851475" lon="12.096375152930598"><ele>358.66666666666663</ele><time>2026-03-23T09:07:29.999Z</time></trkpt><trkpt lat="45.80747794017524" lon="12.096122915025386"><ele>358.0</ele><time>2026-03-23T09:07:30.999Z</time></trkpt><trkpt lat="45.807467759896014" lon="12.095877290436198"><ele>356.66666666666663</ele><time>2026-03-23T09:07:31.999Z</time></trkpt><trkpt lat="45.80746070941496" lon="12.095618418904502"><ele>355.3333333333333</ele><time>2026-03-23T09:07:32.999Z</time></trkpt><trkpt lat="45.80744723086919" lon="12.095349179443474"><ele>354.0</ele><time>2026-03-23T09:07:33.999Z</time></trkpt><trkpt lat="45.80741702479918" lon="12.095059222092193"><ele>354.0</ele><time>2026-03-23T09:07:34.999Z</time></trkpt><trkpt lat="45.80737930547082" lon="12.094770986049173"><ele>354.0</ele><time>2026-03-23T09:07:35.999Z</time></trkpt><trkpt lat="45.80736238049656" lon="12.094505335556486"><ele>354.0</ele><time>2026-03-23T09:07:36.999Z</time></trkpt><trkpt lat="45.80733141508708" lon="12.094282807932858"><ele>354.0</ele><time>2026-03-23T09:07:37.999Z</time></trkpt><trkpt lat="45.807303723427324" lon="12.094064522864409"><ele>354.0</ele><time>2026-03-23T09:07:38.999Z</time></trkpt><trkpt lat="45.80731803120742" lon="12.09387355492259"><ele>354.0</ele><time>2026-03-23T09:07:39.999Z</time></trkpt><trkpt lat="45.807365269072285" lon="12.093668192663642"><ele>354.0</ele><time>2026-03-23T09:07:40.999Z</time></trkpt><trkpt lat="45.80745820502121" lon="12.093454319032436"><ele>353.0</ele><time>2026-03-23T09:07:41.999Z</time></trkpt><trkpt lat="45.80758339586643" lon="12.093249230169647"><ele>352.0</ele><time>2026-03-23T09:07:42.999Z</time></trkpt><trkpt lat="45.80773019624817" lon="12.093071831306752"><ele>351.0</ele><time>2026-03-23T09:07:43.999Z</time></trkpt><trkpt lat="45.807870808370495" lon="12.092940441080524"><ele>351.0</ele><time>2026-03-23T09:07:44.999Z</time></trkpt><trkpt lat="45.80798087583792" lon="12.092817831247276"><ele>351.0</ele><time>2026-03-23T09:07:45.999Z</time></trkpt><trkpt lat="45.80806145627608" lon="12.092681808148605"><ele>351.0</ele><time>2026-03-23T09:07:46.999Z</time></trkpt><trkpt lat="45.80811906225621" lon="12.092525119337184"><ele>351.0</ele><time>2026-03-23T09:07:47.999Z</time></trkpt><trkpt lat="45.80814782838884" lon="12.092339260717774"><ele>351.0</ele><time>2026-03-23T09:07:48.999Z</time></trkpt><trkpt lat="45.80813305588016" lon="12.092129701008929"><ele>351.0</ele><time>2026-03-23T09:07:49.999Z</time></trkpt><trkpt lat="45.808070918046745" lon="12.091900324896498"><ele>351.0</ele><time>2026-03-23T09:07:50.999Z</time></trkpt><trkpt lat="45.80800929938836" lon="12.09170065216764"><ele>350.6666666666667</ele><time>2026-03-23T09:07:51.999Z</time></trkpt><trkpt lat="45.80799383393093" lon="12.091475339624715"><ele>350.33333333333337</ele><time>2026-03-23T09:07:52.999Z</time></trkpt><trkpt lat="45.80801799489788" lon="12.091207922404537"><ele>350.0</ele><time>2026-03-23T09:07:53.999Z</time></trkpt><trkpt lat="45.808077934336914" lon="12.090942170038547"><ele>349.33333333333337</ele><time>2026-03-23T09:07:54.999Z</time></trkpt><trkpt lat="45.80815672571646" lon="12.090717336847995"><ele>348.6666666666667</ele><time>2026-03-23T09:07:55.999Z</time></trkpt><trkpt lat="45.80820331142011" lon="12.090506368999382"><ele>348.0</ele><time>2026-03-23T09:07:56.999Z</time></trkpt><trkpt lat="45.80820222321522" lon="12.09029815576237"><ele>348.0</ele><time>2026-03-23T09:07:57.999Z</time></trkpt><trkpt lat="45.80816658491643" lon="12.090105108080728"><ele>348.0</ele><time>2026-03-23T09:07:58.999Z</time></trkpt><trkpt lat="45.80808253220631" lon="12.089923597433518"><ele>348.0</ele><time>2026-03-23T09:07:59.999Z</time></trkpt><trkpt lat="45.807954919329994" lon="12.089736052259397"><ele>347.6666666666667</ele><time>2026-03-23T09:08:00.999Z</time></trkpt><trkpt lat="45.80780063769849" lon="12.089558192182938"><ele>347.33333333333337</ele><time>2026-03-23T09:08:01.999Z</time></trkpt><trkpt lat="45.807639699876844" lon="12.08939520822244"><ele>347.0</ele><time>2026-03-23T09:08:02.999Z</time></trkpt><trkpt lat="45.80750803948007" lon="12.0892185175868"><ele>346.6666666666667</ele><time>2026-03-23T09:08:03.999Z</time></trkpt><trkpt lat="45.80738059284574" lon="12.089060616795823"><ele>346.3333333333333</ele><time>2026-03-23T09:08:04.999Z</time></trkpt><trkpt lat="45.80727558343973" lon="12.088893585728515"><ele>346.0</ele><time>2026-03-23T09:08:05.999Z</time></trkpt><trkpt lat="45.807226880407306" lon="12.088697286941967"><ele>346.0</ele><time>2026-03-23T09:08:06.999Z</time></trkpt><trkpt lat="45.807205328165445" lon="12.088447217431472"><ele>346.0</ele><time>2026-03-23T09:08:07.999Z</time></trkpt><trkpt lat="45.80724926151677" lon="12.088175033599386"><ele>346.0</ele><time>2026-03-23T09:08:08.999Z</time></trkpt><trkpt lat="45.80730251808024" lon="12.087897369993772"><ele>345.66666666666663</ele><time>2026-03-23T09:08:09.999Z</time></trkpt><trkpt lat="45.80732489574534" lon="12.08764852808549"><ele>345.3333333333333</ele><time>2026-03-23T09:08:10.999Z</time></trkpt><trkpt lat="45.80734805127285" lon="12.087407284175326"><ele>345.0</ele><time>2026-03-23T09:08:11.999Z</time></trkpt><trkpt lat="45.807358450878205" lon="12.087181080799164"><ele>344.0</ele><time>2026-03-23T09:08:12.998Z</time></trkpt><trkpt lat="45.807324888369926" lon="12.08691231106567"><ele>343.0</ele><time>2026-03-23T09:08:13.998Z</time></trkpt><trkpt lat="45.80725713812086" lon="12.08662828078741"><ele>342.0</ele><time>2026-03-23T09:08:14.998Z</time></trkpt><trkpt lat="45.80719238074705" lon="12.08638647754961"><ele>341.3333333333333</ele><time>2026-03-23T09:08:16Z</time></trkpt><trkpt lat="45.80713328208442" lon="12.086135546080166"><ele>340.66666666666663</ele><time>2026-03-23T09:08:17Z</time></trkpt><trkpt lat="45.80709019400769" lon="12.085914708576057"><ele>340.0</ele><time>2026-03-23T09:08:18Z</time></trkpt><trkpt lat="45.80708184025741" lon="12.085669614954297"><ele>340.0</ele><time>2026-03-23T09:08:19Z</time></trkpt><trkpt lat="45.807115635921875" lon="12.085392707683498"><ele>340.0</ele><time>2026-03-23T09:08:20Z</time></trkpt><trkpt lat="45.807164842884575" lon="12.08512685574014"><ele>340.0</ele><time>2026-03-23T09:08:21Z</time></trkpt><trkpt lat="45.807198723476" lon="12.084885520204198"><ele>339.66666666666663</ele><time>2026-03-23T09:08:22Z</time></trkpt><trkpt lat="45.80722537107309" lon="12.084647376970905"><ele>339.3333333333333</ele><time>2026-03-23T09:08:23Z</time></trkpt><trkpt lat="45.807247715756915" lon="12.084381980373665"><ele>339.0</ele><time>2026-03-23T09:08:24Z</time></trkpt><trkpt lat="45.80726632577887" lon="12.084082152190437"><ele>338.3333333333333</ele><time>2026-03-23T09:08:25Z</time></trkpt><trkpt lat="45.807268748064644" lon="12.083762811120916"><ele>337.66666666666663</ele><time>2026-03-23T09:08:26Z</time></trkpt><trkpt lat="45.80726455703918" lon="12.083441923497658"><ele>337.0</ele><time>2026-03-23T09:08:27Z</time></trkpt><trkpt lat="45.80727174636608" lon="12.083153545901862"><ele>336.66666666666663</ele><time>2026-03-23T09:08:28Z</time></trkpt><trkpt lat="45.80727899547522" lon="12.082882789759989"><ele>336.3333333333333</ele><time>2026-03-23T09:08:29Z</time></trkpt><trkpt lat="45.80727381604924" lon="12.082627758639212"><ele>336.0</ele><time>2026-03-23T09:08:30Z</time></trkpt><trkpt lat="45.80726398333397" lon="12.082382456389952"><ele>335.3333333333333</ele><time>2026-03-23T09:08:31Z</time></trkpt><trkpt lat="45.8072806156021" lon="12.082118427796882"><ele>334.66666666666663</ele><time>2026-03-23T09:08:32Z</time></trkpt><trkpt lat="45.80732069357216" lon="12.08183445865091"><ele>334.0</ele><time>2026-03-23T09:08:33Z</time></trkpt><trkpt lat="45.807375079562114" lon="12.081537287736474"><ele>334.0</ele><time>2026-03-23T09:08:34Z</time></trkpt><trkpt lat="45.80743485689399" lon="12.081261404219388"><ele>334.0</ele><time>2026-03-23T09:08:35Z</time></trkpt><trkpt lat="45.80749021629777" lon="12.080994555118204"><ele>334.0</ele><time>2026-03-23T09:08:36Z</time></trkpt><trkpt lat="45.80754062271592" lon="12.08073214821493"><ele>334.3333333333333</ele><time>2026-03-23T09:08:37Z</time></trkpt><trkpt lat="45.807581296655535" lon="12.08048219279423"><ele>334.6666666666667</ele><time>2026-03-23T09:08:38Z</time></trkpt><trkpt lat="45.80758041634015" lon="12.080207875298578"><ele>335.0</ele><time>2026-03-23T09:08:39Z</time></trkpt><trkpt lat="45.80754432332102" lon="12.079916787081398"><ele>334.33333333333337</ele><time>2026-03-23T09:08:40Z</time></trkpt><trkpt lat="45.807514899861886" lon="12.079661008885902"><ele>333.6666666666667</ele><time>2026-03-23T09:08:41Z</time></trkpt><trkpt lat="45.807491790170936" lon="12.079428882721537"><ele>333.0</ele><time>2026-03-23T09:08:42Z</time></trkpt><trkpt lat="45.8074624177072" lon="12.079222457887711"><ele>332.0</ele><time>2026-03-23T09:08:43Z</time></trkpt><trkpt lat="45.80741968695791" lon="12.079016154948402"><ele>331.0</ele><time>2026-03-23T09:08:44Z</time></trkpt><trkpt lat="45.80734816941551" lon="12.078824138376484"><ele>330.0</ele><time>2026-03-23T09:08:45Z</time></trkpt><trkpt lat="45.807227095005395" lon="12.07865787066412"><ele>330.0</ele><time>2026-03-23T09:08:46Z</time></trkpt><trkpt lat="45.80707235189826" lon="12.07851945787104"><ele>330.0</ele><time>2026-03-23T09:08:47Z</time></trkpt><trkpt lat="45.80693589756086" lon="12.078392666710304"><ele>330.0</ele><time>2026-03-23T09:08:48Z</time></trkpt><trkpt lat="45.80682761590093" lon="12.078218837488013"><ele>329.0</ele><time>2026-03-23T09:08:49Z</time></trkpt><trkpt lat="45.80675140909881" lon="12.07796658814451"><ele>328.0</ele><time>2026-03-23T09:08:50Z</time></trkpt><trkpt lat="45.806689722907244" lon="12.077661050251304"><ele>327.0</ele><time>2026-03-23T09:08:51Z</time></trkpt><trkpt lat="45.80665131217842" lon="12.077428078106824"><ele>326.75</ele><time>2026-03-23T09:08:52Z</time></trkpt><trkpt lat="45.80659704722182" lon="12.077212936584756"><ele>326.5</ele><time>2026-03-23T09:08:53Z</time></trkpt><trkpt lat="45.80655541998979" lon="12.077006444502896"><ele>326.25</ele><time>2026-03-23T09:08:54Z</time></trkpt><trkpt lat="45.80648106315561" lon="12.076844648287897"><ele>326.0</ele><time>2026-03-23T09:08:55Z</time></trkpt><trkpt lat="45.806368764800354" lon="12.076720589895125"><ele>326.0</ele><time>2026-03-23T09:08:56Z</time></trkpt><trkpt lat="45.80623147587408" lon="12.076623677375244"><ele>326.0</ele><time>2026-03-23T09:08:57Z</time></trkpt><trkpt lat="45.8060855181382" lon="12.076525878708692"><ele>326.0</ele><time>2026-03-23T09:08:58Z</time></trkpt><trkpt lat="45.80599588514835" lon="12.076383981674239"><ele>326.0</ele><time>2026-03-23T09:08:59Z</time></trkpt><trkpt lat="45.8059457858836" lon="12.076236842028427"><ele>323.25</ele><time>2026-03-23T09:09:00Z</time></trkpt><trkpt lat="45.80592713350093" lon="12.076083011551637"><ele>320.5</ele><time>2026-03-23T09:09:01Z</time></trkpt><trkpt lat="45.80595874106676" lon="12.07590741393331"><ele>317.75</ele><time>2026-03-23T09:09:02Z</time></trkpt><trkpt lat="45.806042719666216" lon="12.075729228916476"><ele>315.0</ele><time>2026-03-23T09:09:03Z</time></trkpt><trkpt lat="45.806169714187355" lon="12.075560422740587"><ele>314.0</ele><time>2026-03-23T09:09:04Z</time></trkpt><trkpt lat="45.80632801690527" lon="12.07540853266918"><ele>313.0</ele><time>2026-03-23T09:09:05Z</time></trkpt><trkpt lat="45.8064806317434" lon="12.075284806859447"><ele>312.0</ele><time>2026-03-23T09:09:06Z</time></trkpt><trkpt lat="45.806597043727315" lon="12.075142799534921"><ele>312.0</ele><time>2026-03-23T09:09:07Z</time></trkpt><trkpt lat="45.8067149282589" lon="12.075012749903282"><ele>312.0</ele><time>2026-03-23T09:09:08Z</time></trkpt><trkpt lat="45.80682319229482" lon="12.074914865607855"><ele>312.0</ele><time>2026-03-23T09:09:09Z</time></trkpt><trkpt lat="45.806900944514354" lon="12.074822591267836"><ele>312.0</ele><time>2026-03-23T09:09:10Z</time></trkpt><trkpt lat="45.80694491205395" lon="12.074701646231626"><ele>311.4</ele><time>2026-03-23T09:09:11Z</time></trkpt><trkpt lat="45.80693829396845" lon="12.074568958735684"><ele>310.79999999999995</ele><time>2026-03-23T09:09:12Z</time></trkpt><trkpt lat="45.80688479211225" lon="12.074453693109684"><ele>310.2</ele><time>2026-03-23T09:09:13Z</time></trkpt><trkpt lat="45.806805261208055" lon="12.074392177635465"><ele>309.59999999999997</ele><time>2026-03-23T09:09:14Z</time></trkpt><trkpt lat="45.80669873787397" lon="12.07436194007989"><ele>309.0</ele><time>2026-03-23T09:09:15Z</time></trkpt><trkpt lat="45.80656273115642" lon="12.074363625532175"><ele>307.5</ele><time>2026-03-23T09:09:16Z</time></trkpt><trkpt lat="45.80644856763114" lon="12.07431378909854"><ele>306.0</ele><time>2026-03-23T09:09:17Z</time></trkpt><trkpt lat="45.80635631402822" lon="12.074201298085013"><ele>304.5</ele><time>2026-03-23T09:09:18Z</time></trkpt><trkpt lat="45.8063015558493" lon="12.07403547836137"><ele>303.0</ele><time>2026-03-23T09:09:19Z</time></trkpt><trkpt lat="45.80628511720278" lon="12.073808141270698"><ele>299.0</ele><time>2026-03-23T09:09:20Z</time></trkpt><trkpt lat="45.806294284109214" lon="12.073505412859426"><ele>295.0</ele><time>2026-03-23T09:09:21Z</time></trkpt><trkpt lat="45.806318898133576" lon="12.073172460113112"><ele>291.0</ele><time>2026-03-23T09:09:22Z</time></trkpt><trkpt lat="45.806326847499" lon="12.072859339218374"><ele>291.0</ele><time>2026-03-23T09:09:22.999Z</time></trkpt><trkpt lat="45.80632288560783" lon="12.072555577930762"><ele>291.0</ele><time>2026-03-23T09:09:23.999Z</time></trkpt><trkpt lat="45.80631867441093" lon="12.072283259576148"><ele>291.0</ele><time>2026-03-23T09:09:24.999Z</time></trkpt><trkpt lat="45.80629647529326" lon="12.072012779856184"><ele>291.3333333333333</ele><time>2026-03-23T09:09:25.999Z</time></trkpt><trkpt lat="45.806267151446235" lon="12.071756485788342"><ele>291.66666666666663</ele><time>2026-03-23T09:09:26.999Z</time></trkpt><trkpt lat="45.80625604575238" lon="12.071498959266133"><ele>292.0</ele><time>2026-03-23T09:09:27.999Z</time></trkpt><trkpt lat="45.8062235514586" lon="12.071253232789825"><ele>289.3333333333333</ele><time>2026-03-23T09:09:28.999Z</time></trkpt><trkpt lat="45.8061475789349" lon="12.070996690114724"><ele>286.6666666666667</ele><time>2026-03-23T09:09:29.999Z</time></trkpt><trkpt lat="45.80602432131346" lon="12.070726311449043"><ele>284.0</ele><time>2026-03-23T09:09:30.999Z</time></trkpt><trkpt lat="45.805878161819955" lon="12.07043539434874"><ele>283.0</ele><time>2026-03-23T09:09:31.999Z</time></trkpt><trkpt lat="45.80575024871378" lon="12.07012797611159"><ele>282.0</ele><time>2026-03-23T09:09:32.999Z</time></trkpt><trkpt lat="45.80563741127096" lon="12.069827905278915"><ele>280.5</ele><time>2026-03-23T09:09:33.999Z</time></trkpt><trkpt lat="45.80551260966407" lon="12.06951983529819"><ele>279.0</ele><time>2026-03-23T09:09:34.999Z</time></trkpt><trkpt lat="45.805377397449824" lon="12.069207071219278"><ele>278.6666666666667</ele><time>2026-03-23T09:09:35.999Z</time></trkpt><trkpt lat="45.80526210734721" lon="12.068913380891766"><ele>278.33333333333337</ele><time>2026-03-23T09:09:36.999Z</time></trkpt><trkpt lat="45.805165349663284" lon="12.068655717104601"><ele>278.0</ele><time>2026-03-23T09:09:37.999Z</time></trkpt><trkpt lat="45.805074940036356" lon="12.068412928693784"><ele>278.6666666666667</ele><time>2026-03-23T09:09:38.999Z</time></trkpt><trkpt lat="45.80500223808797" lon="12.068181488930678"><ele>279.3333333333333</ele><time>2026-03-23T09:09:39.999Z</time></trkpt><trkpt lat="45.80493594650304" lon="12.067961717815546"><ele>280.0</ele><time>2026-03-23T09:09:40.999Z</time></trkpt><trkpt lat="45.8048638355316" lon="12.067774211456946"><ele>280.0</ele><time>2026-03-23T09:09:41.999Z</time></trkpt><trkpt lat="45.8048189508046" lon="12.067611054586314"><ele>280.0</ele><time>2026-03-23T09:09:42.999Z</time></trkpt><trkpt lat="45.80480985038058" lon="12.067413936113754"><ele>280.0</ele><time>2026-03-23T09:09:43.999Z</time></trkpt><trkpt lat="45.80484308882223" lon="12.067156586213587"><ele>280.0</ele><time>2026-03-23T09:09:44.999Z</time></trkpt><trkpt lat="45.804891992336486" lon="12.06690033697371"><ele>280.0</ele><time>2026-03-23T09:09:45.999Z</time></trkpt><trkpt lat="45.80493109845286" lon="12.06667670886033"><ele>280.0</ele><time>2026-03-23T09:09:46.999Z</time></trkpt><trkpt lat="45.804939360763605" lon="12.066485871063904"><ele>280.0</ele><time>2026-03-23T09:09:47.999Z</time></trkpt><trkpt lat="45.80491550105168" lon="12.066299128820555"><ele>280.0</ele><time>2026-03-23T09:09:48.999Z</time></trkpt><trkpt lat="45.80485660589207" lon="12.066125132060758"><ele>280.0</ele><time>2026-03-23T09:09:49.999Z</time></trkpt><trkpt lat="45.80474603623421" lon="12.06596772926678"><ele>280.0</ele><time>2026-03-23T09:09:50.999Z</time></trkpt><trkpt lat="45.80459104220766" lon="12.065829971818259"><ele>280.0</ele><time>2026-03-23T09:09:51.999Z</time></trkpt><trkpt lat="45.80440825959926" lon="12.065701427028605"><ele>280.3333333333333</ele><time>2026-03-23T09:09:52.999Z</time></trkpt><trkpt lat="45.804228518859475" lon="12.06554461109565"><ele>280.6666666666667</ele><time>2026-03-23T09:09:53.999Z</time></trkpt><trkpt lat="45.80404614701408" lon="12.065347675395092"><ele>281.0</ele><time>2026-03-23T09:09:54.999Z</time></trkpt><trkpt lat="45.803850646834064" lon="12.065173926981169"><ele>281.0</ele><time>2026-03-23T09:09:55.999Z</time></trkpt><trkpt lat="45.80366823617463" lon="12.065021600732246"><ele>281.0</ele><time>2026-03-23T09:09:56.999Z</time></trkpt><trkpt lat="45.80350826927799" lon="12.064868285287067"><ele>281.0</ele><time>2026-03-23T09:09:57.999Z</time></trkpt><trkpt lat="45.80335877707041" lon="12.064721351946515"><ele>280.6666666666667</ele><time>2026-03-23T09:09:58.999Z</time></trkpt><trkpt lat="45.80321461738866" lon="12.064596879378778"><ele>280.3333333333333</ele><time>2026-03-23T09:09:59.999Z</time></trkpt><trkpt lat="45.803073683526854" lon="12.064494499848394"><ele>280.0</ele><time>2026-03-23T09:10:00.999Z</time></trkpt><trkpt lat="45.802964963288346" lon="12.064369871533483"><ele>280.0</ele><time>2026-03-23T09:10:01.999Z</time></trkpt><trkpt lat="45.802875862572925" lon="12.064215194039724"><ele>280.0</ele><time>2026-03-23T09:10:02.999Z</time></trkpt><trkpt lat="45.80280958353411" lon="12.06402770072127"><ele>280.0</ele><time>2026-03-23T09:10:03.999Z</time></trkpt><trkpt lat="45.80276851789651" lon="12.06379899678085"><ele>279.5</ele><time>2026-03-23T09:10:04.999Z</time></trkpt><trkpt lat="45.80273279555486" lon="12.063571454673728"><ele>279.0</ele><time>2026-03-23T09:10:05.999Z</time></trkpt><trkpt lat="45.80270035745086" lon="12.063371821257864"><ele>278.5</ele><time>2026-03-23T09:10:06.999Z</time></trkpt><trkpt lat="45.80267620047924" lon="12.063188098032148"><ele>278.0</ele><time>2026-03-23T09:10:07.999Z</time></trkpt><trkpt lat="45.80268638694431" lon="12.062984435390451"><ele>278.0</ele><time>2026-03-23T09:10:08.999Z</time></trkpt><trkpt lat="45.80273712568265" lon="12.062750502143693"><ele>278.0</ele><time>2026-03-23T09:10:09.999Z</time></trkpt><trkpt lat="45.802822251245516" lon="12.062520593901672"><ele>278.0</ele><time>2026-03-23T09:10:10.999Z</time></trkpt><trkpt lat="45.802898449188824" lon="12.062316492906728"><ele>277.33333333333337</ele><time>2026-03-23T09:10:11.999Z</time></trkpt><trkpt lat="45.80293026682579" lon="12.062086730408286"><ele>276.6666666666667</ele><time>2026-03-23T09:10:12.999Z</time></trkpt><trkpt lat="45.802939293841064" lon="12.061804285767343"><ele>276.0</ele><time>2026-03-23T09:10:13.999Z</time></trkpt><trkpt lat="45.802938501814104" lon="12.061491239760647"><ele>276.0</ele><time>2026-03-23T09:10:14.999Z</time></trkpt><trkpt lat="45.80293669801895" lon="12.061169390455952"><ele>276.0</ele><time>2026-03-23T09:10:15.999Z</time></trkpt><trkpt lat="45.80294000104227" lon="12.060867694823767"><ele>276.0</ele><time>2026-03-23T09:10:16.999Z</time></trkpt><trkpt lat="45.80294193895109" lon="12.060568440754189"><ele>275.6666666666667</ele><time>2026-03-23T09:10:17.999Z</time></trkpt><trkpt lat="45.802956839052776" lon="12.060248657721111"><ele>275.33333333333337</ele><time>2026-03-23T09:10:18.999Z</time></trkpt><trkpt lat="45.80297588087078" lon="12.059956168159962"><ele>275.0</ele><time>2026-03-23T09:10:19.999Z</time></trkpt><trkpt lat="45.80299319747719" lon="12.059693792185772"><ele>275.0</ele><time>2026-03-23T09:10:20.999Z</time></trkpt><trkpt lat="45.803007943670885" lon="12.059446433579502"><ele>275.0</ele><time>2026-03-23T09:10:22Z</time></trkpt><trkpt lat="45.80300058970158" lon="12.059221501327475"><ele>275.0</ele><time>2026-03-23T09:10:23Z</time></trkpt><trkpt lat="45.80297604874878" lon="12.058995891413181"><ele>274.6666666666667</ele><time>2026-03-23T09:10:24Z</time></trkpt><trkpt lat="45.80296319996321" lon="12.058786610076744"><ele>274.3333333333333</ele><time>2026-03-23T09:10:25Z</time></trkpt><trkpt lat="45.802962469050506" lon="12.0585762656722"><ele>274.0</ele><time>2026-03-23T09:10:26Z</time></trkpt><trkpt lat="45.80297387536754" lon="12.05834971552745"><ele>273.3333333333333</ele><time>2026-03-23T09:10:27Z</time></trkpt><trkpt lat="45.80301824891554" lon="12.058088562902205"><ele>272.6666666666667</ele><time>2026-03-23T09:10:28Z</time></trkpt><trkpt lat="45.803077437398265" lon="12.057831944213415"><ele>272.0</ele><time>2026-03-23T09:10:29Z</time></trkpt><trkpt lat="45.80312283476017" lon="12.057604004622585"><ele>268.33333333333337</ele><time>2026-03-23T09:10:30Z</time></trkpt><trkpt lat="45.80317805553757" lon="12.057405935818506"><ele>264.6666666666667</ele><time>2026-03-23T09:10:31Z</time></trkpt><trkpt lat="45.80327187837021" lon="12.057227415432694"><ele>261.0</ele><time>2026-03-23T09:10:32Z</time></trkpt><trkpt lat="45.80340277036528" lon="12.05707457318576"><ele>261.25</ele><time>2026-03-23T09:10:33Z</time></trkpt><trkpt lat="45.803547232912855" lon="12.056951191803298"><ele>261.5</ele><time>2026-03-23T09:10:34Z</time></trkpt><trkpt lat="45.80366202481178" lon="12.056865769548592"><ele>261.75</ele><time>2026-03-23T09:10:35Z</time></trkpt><trkpt lat="45.8037575650513" lon="12.056776154019245"><ele>262.0</ele><time>2026-03-23T09:10:36Z</time></trkpt><trkpt lat="45.80383181209062" lon="12.056630256653118"><ele>260.3333333333333</ele><time>2026-03-23T09:10:37Z</time></trkpt><trkpt lat="45.80388093042845" lon="12.056409456266035"><ele>258.6666666666667</ele><time>2026-03-23T09:10:38Z</time></trkpt><trkpt lat="45.80390771240427" lon="12.056163223250984"><ele>257.0</ele><time>2026-03-23T09:10:39Z</time></trkpt><trkpt lat="45.80392865975167" lon="12.055957339291364"><ele>257.0</ele><time>2026-03-23T09:10:40Z</time></trkpt><trkpt lat="45.80398393386516" lon="12.055788561099494"><ele>257.0</ele><time>2026-03-23T09:10:41Z</time></trkpt><trkpt lat="45.804072203602594" lon="12.055648394654101"><ele>257.0</ele><time>2026-03-23T09:10:42Z</time></trkpt><trkpt lat="45.80417644581838" lon="12.055541311058363"><ele>257.0</ele><time>2026-03-23T09:10:43Z</time></trkpt><trkpt lat="45.804272290754575" lon="12.055471298563848"><ele>256.2</ele><time>2026-03-23T09:10:44Z</time></trkpt><trkpt lat="45.80435295783679" lon="12.055392394736746"><ele>255.39999999999998</ele><time>2026-03-23T09:10:45Z</time></trkpt><trkpt lat="45.80439916427019" lon="12.055261980303236"><ele>254.60000000000002</ele><time>2026-03-23T09:10:46Z</time></trkpt><trkpt lat="45.804391673404695" lon="12.055102320317143"><ele>253.8</ele><time>2026-03-23T09:10:47Z</time></trkpt><trkpt lat="45.80433459545997" lon="12.054965703588028"><ele>253.0</ele><time>2026-03-23T09:10:48Z</time></trkpt><trkpt lat="45.8042382771015" lon="12.054881457788886"><ele>248.66666666666666</ele><time>2026-03-23T09:10:49Z</time></trkpt><trkpt lat="45.80411640191776" lon="12.05484960803462"><ele>244.33333333333331</ele><time>2026-03-23T09:10:50Z</time></trkpt><trkpt lat="45.80395865646358" lon="12.054846686430265"><ele>240.0</ele><time>2026-03-23T09:10:51Z</time></trkpt><trkpt lat="45.80376213080574" lon="12.054845904707289"><ele>240.0</ele><time>2026-03-23T09:10:52Z</time></trkpt><trkpt lat="45.80356146416019" lon="12.054818153417418"><ele>240.0</ele><time>2026-03-23T09:10:53Z</time></trkpt><trkpt lat="45.80336580967849" lon="12.054784338154432"><ele>240.0</ele><time>2026-03-23T09:10:54Z</time></trkpt><trkpt lat="45.803202006946364" lon="12.05478127842766"><ele>238.33333333333331</ele><time>2026-03-23T09:10:55Z</time></trkpt><trkpt lat="45.80305426855707" lon="12.054790107305635"><ele>236.66666666666666</ele><time>2026-03-23T09:10:56Z</time></trkpt><trkpt lat="45.80290319593461" lon="12.054785023207874"><ele>235.0</ele><time>2026-03-23T09:10:57Z</time></trkpt><trkpt lat="45.80274657926057" lon="12.054779832705979"><ele>233.0</ele><time>2026-03-23T09:10:58Z</time></trkpt><trkpt lat="45.80258439114627" lon="12.054801633803839"><ele>231.0</ele><time>2026-03-23T09:10:59Z</time></trkpt><trkpt lat="45.80242257150223" lon="12.054878316459693"><ele>229.0</ele><time>2026-03-23T09:11:00Z</time></trkpt><trkpt lat="45.80228774911663" lon="12.054959672923193"><ele>228.99999999999997</ele><time>2026-03-23T09:11:01Z</time></trkpt><trkpt lat="45.802181500202295" lon="12.054989704209294"><ele>229.0</ele><time>2026-03-23T09:11:02Z</time></trkpt><trkpt lat="45.80209524649051" lon="12.054977589119538"><ele>229.0</ele><time>2026-03-23T09:11:03Z</time></trkpt><trkpt lat="45.80203141821169" lon="12.054921180522154"><ele>229.0</ele><time>2026-03-23T09:11:04Z</time></trkpt><trkpt lat="45.801995130603565" lon="12.054821707606669"><ele>228.99999999999997</ele><time>2026-03-23T09:11:05Z</time></trkpt><trkpt lat="45.801995078861225" lon="12.054688407977919"><ele>229.0</ele><time>2026-03-23T09:11:06Z</time></trkpt><trkpt lat="45.80203886082804" lon="12.05455900819434"><ele>229.0</ele><time>2026-03-23T09:11:07Z</time></trkpt><trkpt lat="45.80212267271293" lon="12.054470978639447"><ele>229.0</ele><time>2026-03-23T09:11:08Z</time></trkpt><trkpt lat="45.80224232345433" lon="12.054423485152881"><ele>229.0</ele><time>2026-03-23T09:11:09Z</time></trkpt><trkpt lat="45.802406261282066" lon="12.054397091206797"><ele>229.0</ele><time>2026-03-23T09:11:10Z</time></trkpt><trkpt lat="45.802564220147005" lon="12.054383886109289"><ele>227.75</ele><time>2026-03-23T09:11:11Z</time></trkpt><trkpt lat="45.80268430442189" lon="12.054323564183088"><ele>226.5</ele><time>2026-03-23T09:11:12Z</time></trkpt><trkpt lat="45.80278163533243" lon="12.054208427895132"><ele>225.25</ele><time>2026-03-23T09:11:13Z</time></trkpt><trkpt lat="45.80285491600704" lon="12.054051162828468"><ele>224.0</ele><time>2026-03-23T09:11:14Z</time></trkpt><trkpt lat="45.802889568299236" lon="12.05385981388241"><ele>224.0</ele><time>2026-03-23T09:11:15Z</time></trkpt><trkpt lat="45.80289184610101" lon="12.053637284539374"><ele>224.0</ele><time>2026-03-23T09:11:16Z</time></trkpt><trkpt lat="45.80288867696596" lon="12.053411378986207"><ele>224.0</ele><time>2026-03-23T09:11:17Z</time></trkpt><trkpt lat="45.80295162817946" lon="12.053195355982924"><ele>224.0</ele><time>2026-03-23T09:11:18Z</time></trkpt><trkpt lat="45.80306941254281" lon="12.052964096625173"><ele>224.0</ele><time>2026-03-23T09:11:19Z</time></trkpt><trkpt lat="45.80316373401769" lon="12.05277977552237"><ele>224.0</ele><time>2026-03-23T09:11:20Z</time></trkpt><trkpt lat="45.803223018122075" lon="12.052628070935226"><ele>224.0</ele><time>2026-03-23T09:11:20.999Z</time></trkpt><trkpt lat="45.803252657387574" lon="12.052459907377992"><ele>224.0</ele><time>2026-03-23T09:11:21.999Z</time></trkpt><trkpt lat="45.80323906353081" lon="12.052283931102686"><ele>224.0</ele><time>2026-03-23T09:11:22.999Z</time></trkpt><trkpt lat="45.80319180915154" lon="12.05211172288279"><ele>224.0</ele><time>2026-03-23T09:11:23.999Z</time></trkpt><trkpt lat="45.80311385037419" lon="12.051946338787506"><ele>223.75</ele><time>2026-03-23T09:11:24.999Z</time></trkpt><trkpt lat="45.80301070001542" lon="12.051799087684973"><ele>223.5</ele><time>2026-03-23T09:11:25.999Z</time></trkpt><trkpt lat="45.8029062033852" lon="12.051686216844063"><ele>223.25</ele><time>2026-03-23T09:11:26.999Z</time></trkpt><trkpt lat="45.80279341124111" lon="12.05162456275727"><ele>223.0</ele><time>2026-03-23T09:11:27.999Z</time></trkpt><trkpt lat="45.8026611131572" lon="12.051608973052115"><ele>215.66666666666666</ele><time>2026-03-23T09:11:28.999Z</time></trkpt><trkpt lat="45.80250241699539" lon="12.051607129484042"><ele>208.33333333333331</ele><time>2026-03-23T09:11:29.999Z</time></trkpt><trkpt lat="45.80233694812482" lon="12.05161217861847"><ele>201.0</ele><time>2026-03-23T09:11:30.999Z</time></trkpt><trkpt lat="45.80216368737596" lon="12.051613557253056"><ele>201.0</ele><time>2026-03-23T09:11:31.999Z</time></trkpt><trkpt lat="45.8019799333484" lon="12.051568225397318"><ele>201.0</ele><time>2026-03-23T09:11:32.999Z</time></trkpt><trkpt lat="45.80180315356095" lon="12.05148186271904"><ele>201.0</ele><time>2026-03-23T09:11:33.999Z</time></trkpt><trkpt lat="45.801633976330464" lon="12.051409794406432"><ele>199.33333333333331</ele><time>2026-03-23T09:11:34.999Z</time></trkpt><trkpt lat="45.80146684308941" lon="12.051392976343609"><ele>197.66666666666666</ele><time>2026-03-23T09:11:35.999Z</time></trkpt><trkpt lat="45.80131067674381" lon="12.051359337043666"><ele>196.0</ele><time>2026-03-23T09:11:36.999Z</time></trkpt><trkpt lat="45.80117378712671" lon="12.05133570198316"><ele>196.0</ele><time>2026-03-23T09:11:37.999Z</time></trkpt><trkpt lat="45.80104408098514" lon="12.051300301318971"><ele>196.0</ele><time>2026-03-23T09:11:38.999Z</time></trkpt><trkpt lat="45.800967028327584" lon="12.051173892849347"><ele>196.0</ele><time>2026-03-23T09:11:39.999Z</time></trkpt><trkpt lat="45.80094597165651" lon="12.050993115655862"><ele>196.0</ele><time>2026-03-23T09:11:40.999Z</time></trkpt><trkpt lat="45.800937230970824" lon="12.050781279262106"><ele>195.33333333333331</ele><time>2026-03-23T09:11:41.999Z</time></trkpt><trkpt lat="45.80092700216639" lon="12.050515360798041"><ele>194.66666666666669</ele><time>2026-03-23T09:11:42.999Z</time></trkpt><trkpt lat="45.80096807002274" lon="12.05023220849155"><ele>194.0</ele><time>2026-03-23T09:11:43.999Z</time></trkpt><trkpt lat="45.800953079633835" lon="12.049924227409734"><ele>193.5</ele><time>2026-03-23T09:11:44.999Z</time></trkpt><trkpt lat="45.80097522964906" lon="12.049563717391832"><ele>193.0</ele><time>2026-03-23T09:11:45.999Z</time></trkpt><trkpt lat="45.80099530298494" lon="12.049241868268286"><ele>193.0</ele><time>2026-03-23T09:11:46.999Z</time></trkpt><trkpt lat="45.80100143328078" lon="12.048958484285542"><ele>193.0</ele><time>2026-03-23T09:11:47.999Z</time></trkpt><trkpt lat="45.801024602858185" lon="12.04869955305599"><ele>193.0</ele><time>2026-03-23T09:11:48.999Z</time></trkpt><trkpt lat="45.801033960390384" lon="12.04843721545664"><ele>192.0</ele><time>2026-03-23T09:11:49.999Z</time></trkpt><trkpt lat="45.8010415797048" lon="12.048157424642525"><ele>191.0</ele><time>2026-03-23T09:11:50.999Z</time></trkpt><trkpt lat="45.801044480185226" lon="12.047872748485185"><ele>190.0</ele><time>2026-03-23T09:11:51.999Z</time></trkpt><trkpt lat="45.8010412511805" lon="12.047608618465773"><ele>189.33333333333334</ele><time>2026-03-23T09:11:52.999Z</time></trkpt><trkpt lat="45.80104163674223" lon="12.047363262892896"><ele>188.66666666666666</ele><time>2026-03-23T09:11:53.999Z</time></trkpt><trkpt lat="45.80104360392045" lon="12.047131124026315"><ele>188.0</ele><time>2026-03-23T09:11:54.999Z</time></trkpt><trkpt lat="45.80104866475272" lon="12.046905584090958"><ele>188.0</ele><time>2026-03-23T09:11:55.999Z</time></trkpt><trkpt lat="45.8010506640067" lon="12.046658240248462"><ele>188.0</ele><time>2026-03-23T09:11:56.999Z</time></trkpt><trkpt lat="45.801059146746915" lon="12.046410225582935"><ele>188.0</ele><time>2026-03-23T09:11:57.999Z</time></trkpt><trkpt lat="45.80106093530003" lon="12.046172640983672"><ele>187.2</ele><time>2026-03-23T09:11:58.999Z</time></trkpt><trkpt lat="45.801060703435546" lon="12.045974604913885"><ele>186.4</ele><time>2026-03-23T09:11:59.999Z</time></trkpt><trkpt lat="45.80106228792436" lon="12.045813436607592"><ele>185.6</ele><time>2026-03-23T09:12:00.999Z</time></trkpt><trkpt lat="45.80106054286057" lon="12.045666704987825"><ele>184.79999999999998</ele><time>2026-03-23T09:12:01.999Z</time></trkpt><trkpt lat="45.80106685831137" lon="12.045550830312504"><ele>184.0</ele><time>2026-03-23T09:12:02.999Z</time></trkpt><trkpt lat="45.801066922479706" lon="12.045420356335644"><ele>183.39999999999998</ele><time>2026-03-23T09:12:04.999Z</time></trkpt><trkpt lat="45.801134016990616" lon="12.045359580386293"><ele>182.8</ele><time>2026-03-23T09:12:06.999Z</time></trkpt><trkpt lat="45.80119645692317" lon="12.045325430328967"><ele>182.2</ele><time>2026-03-23T09:12:07.999Z</time></trkpt><trkpt lat="45.801301170886624" lon="12.045314909179561"><ele>181.60000000000002</ele><time>2026-03-23T09:12:08.999Z</time></trkpt><trkpt lat="45.80145051212452" lon="12.045304954675053"><ele>181.0</ele><time>2026-03-23T09:12:09.999Z</time></trkpt><trkpt lat="45.80157444898733" lon="12.045285622911717"><ele>181.0</ele><time>2026-03-23T09:12:10.999Z</time></trkpt><trkpt lat="45.80170632487574" lon="12.045325664837781"><ele>181.0</ele><time>2026-03-23T09:12:11.999Z</time></trkpt><trkpt lat="45.801882793864" lon="12.045352902630002"><ele>181.0</ele><time>2026-03-23T09:12:12.999Z</time></trkpt><trkpt lat="45.80206308556378" lon="12.045419714078053"><ele>182.66666666666669</ele><time>2026-03-23T09:12:13.999Z</time></trkpt><trkpt lat="45.80223051360884" lon="12.045454600367716"><ele>184.33333333333334</ele><time>2026-03-23T09:12:14.999Z</time></trkpt><trkpt lat="45.80241510563523" lon="12.045496537335495"><ele>186.0</ele><time>2026-03-23T09:12:15.999Z</time></trkpt><trkpt lat="45.80257524871049" lon="12.045543438877674"><ele>186.60000000000002</ele><time>2026-03-23T09:12:16.999Z</time></trkpt><trkpt lat="45.8027133928773" lon="12.045574617231308"><ele>187.2</ele><time>2026-03-23T09:12:17.999Z</time></trkpt><trkpt lat="45.80281339491153" lon="12.045587664491183"><ele>187.8</ele><time>2026-03-23T09:12:18.999Z</time></trkpt><trkpt lat="45.80289647858094" lon="12.045565144212334"><ele>188.39999999999998</ele><time>2026-03-23T09:12:19.999Z</time></trkpt><trkpt lat="45.80299082340592" lon="12.045494318868476"><ele>189.0</ele><time>2026-03-23T09:12:20.999Z</time></trkpt><trkpt lat="45.80310100333939" lon="12.045368054001427"><ele>189.0</ele><time>2026-03-23T09:12:21.999Z</time></trkpt><trkpt lat="45.803217512255415" lon="12.045244032155392"><ele>189.0</ele><time>2026-03-23T09:12:22.999Z</time></trkpt><trkpt lat="45.80331435175256" lon="12.045153859713183"><ele>189.0</ele><time>2026-03-23T09:12:23.999Z</time></trkpt><trkpt lat="45.80339337598481" lon="12.045086466120566"><ele>189.0</ele><time>2026-03-23T09:12:24.999Z</time></trkpt><trkpt lat="45.80348703909051" lon="12.045065861198138"><ele>189.0</ele><time>2026-03-23T09:12:25.999Z</time></trkpt><trkpt lat="45.80359978193631" lon="12.045085340113124"><ele>189.0</ele><time>2026-03-23T09:12:26.999Z</time></trkpt><trkpt lat="45.80373171811809" lon="12.045142022953293"><ele>189.0</ele><time>2026-03-23T09:12:28Z</time></trkpt><trkpt lat="45.8038972716887" lon="12.04520864457467"><ele>189.0</ele><time>2026-03-23T09:12:29Z</time></trkpt><trkpt lat="45.804092822984266" lon="12.045257292780779"><ele>189.0</ele><time>2026-03-23T09:12:30Z</time></trkpt><trkpt lat="45.80429696870374" lon="12.045312673178392"><ele>189.0</ele><time>2026-03-23T09:12:31Z</time></trkpt><trkpt lat="45.80448515202077" lon="12.0453732172404"><ele>189.0</ele><time>2026-03-23T09:12:32Z</time></trkpt><trkpt lat="45.80469746210216" lon="12.045440800846155"><ele>189.5</ele><time>2026-03-23T09:12:33Z</time></trkpt><trkpt lat="45.804924286759736" lon="12.0455107376519"><ele>190.0</ele><time>2026-03-23T09:12:34Z</time></trkpt><trkpt lat="45.80515186175255" lon="12.045583311162293"><ele>189.33333333333334</ele><time>2026-03-23T09:12:35Z</time></trkpt><trkpt lat="45.805371081937324" lon="12.045634322560211"><ele>188.66666666666666</ele><time>2026-03-23T09:12:36Z</time></trkpt><trkpt lat="45.80559166875586" lon="12.045641591126577"><ele>188.0</ele><time>2026-03-23T09:12:37Z</time></trkpt><trkpt lat="45.8058339352628" lon="12.045608358945879"><ele>188.5</ele><time>2026-03-23T09:12:38Z</time></trkpt><trkpt lat="45.8060767969018" lon="12.045560454778988"><ele>189.0</ele><time>2026-03-23T09:12:39Z</time></trkpt><trkpt lat="45.80631253763235" lon="12.045530621824946"><ele>189.0</ele><time>2026-03-23T09:12:40Z</time></trkpt><trkpt lat="45.80652915658648" lon="12.045511335945154"><ele>189.0</ele><time>2026-03-23T09:12:41Z</time></trkpt><trkpt lat="45.80672907831677" lon="12.045490185714362"><ele>189.0</ele><time>2026-03-23T09:12:42Z</time></trkpt><trkpt lat="45.80692449414043" lon="12.04547105903485"><ele>189.0</ele><time>2026-03-23T09:12:43Z</time></trkpt><trkpt lat="45.80711579773298" lon="12.045460494292053"><ele>189.0</ele><time>2026-03-23T09:12:44Z</time></trkpt><trkpt lat="45.80729269143966" lon="12.045445963431785"><ele>189.0</ele><time>2026-03-23T09:12:45Z</time></trkpt><trkpt lat="45.80746112184396" lon="12.045420832072239"><ele>189.0</ele><time>2026-03-23T09:12:46Z</time></trkpt><trkpt lat="45.80762867233029" lon="12.045408910218939"><ele>189.0</ele><time>2026-03-23T09:12:47Z</time></trkpt><trkpt lat="45.80779913202519" lon="12.045429676973775"><ele>189.0</ele><time>2026-03-23T09:12:48Z</time></trkpt><trkpt lat="45.80798610250004" lon="12.04549526625088"><ele>188.66666666666666</ele><time>2026-03-23T09:12:49Z</time></trkpt><trkpt lat="45.808180510156994" lon="12.045637433399758"><ele>188.33333333333331</ele><time>2026-03-23T09:12:50Z</time></trkpt><trkpt lat="45.80839359428501" lon="12.04576098806004"><ele>188.0</ele><time>2026-03-23T09:12:51Z</time></trkpt><trkpt lat="45.80858835962015" lon="12.045901193068518"><ele>188.0</ele><time>2026-03-23T09:12:52Z</time></trkpt><trkpt lat="45.80879264436343" lon="12.046010534511279"><ele>188.0</ele><time>2026-03-23T09:12:53Z</time></trkpt><trkpt lat="45.80899578429925" lon="12.046067908963495"><ele>188.0</ele><time>2026-03-23T09:12:54Z</time></trkpt><trkpt lat="45.80917706476205" lon="12.046085211767686"><ele>187.0</ele><time>2026-03-23T09:12:55Z</time></trkpt><trkpt lat="45.80933903154599" lon="12.04609295866915"><ele>186.0</ele><time>2026-03-23T09:12:56Z</time></trkpt><trkpt lat="45.80949364625568" lon="12.046123174867942"><ele>185.0</ele><time>2026-03-23T09:12:57Z</time></trkpt><trkpt lat="45.80965777486688" lon="12.046210786205698"><ele>185.0</ele><time>2026-03-23T09:12:58Z</time></trkpt><trkpt lat="45.809799293566634" lon="12.04636097025002"><ele>185.0</ele><time>2026-03-23T09:12:59Z</time></trkpt><trkpt lat="45.809936451953895" lon="12.046470538550373"><ele>185.0</ele><time>2026-03-23T09:13:00Z</time></trkpt><trkpt lat="45.81004711107808" lon="12.04655656021503"><ele>185.33333333333331</ele><time>2026-03-23T09:13:01Z</time></trkpt><trkpt lat="45.810184277832874" lon="12.046601460783014"><ele>185.66666666666666</ele><time>2026-03-23T09:13:02Z</time></trkpt><trkpt lat="45.81036446572329" lon="12.046609058954322"><ele>186.0</ele><time>2026-03-23T09:13:03Z</time></trkpt><trkpt lat="45.81057395097319" lon="12.046593493846906"><ele>186.0</ele><time>2026-03-23T09:13:04Z</time></trkpt><trkpt lat="45.810799547359835" lon="12.046583690111007"><ele>186.0</ele><time>2026-03-23T09:13:05Z</time></trkpt><trkpt lat="45.81101839376999" lon="12.046592464337461"><ele>186.0</ele><time>2026-03-23T09:13:06Z</time></trkpt><trkpt lat="45.81123457339287" lon="12.046589139243455"><ele>182.5</ele><time>2026-03-23T09:13:07Z</time></trkpt><trkpt lat="45.81147349946531" lon="12.046591127760578"><ele>179.0</ele><time>2026-03-23T09:13:08Z</time></trkpt><trkpt lat="45.811707618893486" lon="12.04660190290353"><ele>173.66666666666666</ele><time>2026-03-23T09:13:09Z</time></trkpt><trkpt lat="45.81191441618195" lon="12.04659577353537"><ele>168.33333333333334</ele><time>2026-03-23T09:13:10Z</time></trkpt><trkpt lat="45.81209725157374" lon="12.04658628250526"><ele>163.0</ele><time>2026-03-23T09:13:11Z</time></trkpt><trkpt lat="45.81224499250382" lon="12.046589985183"><ele>163.0</ele><time>2026-03-23T09:13:12Z</time></trkpt><trkpt lat="45.812371075788676" lon="12.046592164050766"><ele>163.0</ele><time>2026-03-23T09:13:13Z</time></trkpt><trkpt lat="45.81249273962494" lon="12.046675472119286"><ele>163.0</ele><time>2026-03-23T09:13:14Z</time></trkpt><trkpt lat="45.81263754564426" lon="12.046794496185337"><ele>163.0</ele><time>2026-03-23T09:13:15Z</time></trkpt><trkpt lat="45.81281916266876" lon="12.04693328390935"><ele>164.33333333333334</ele><time>2026-03-23T09:13:16Z</time></trkpt><trkpt lat="45.81299988989665" lon="12.04709655992588"><ele>165.66666666666666</ele><time>2026-03-23T09:13:17Z</time></trkpt><trkpt lat="45.81317699857061" lon="12.047236902240597"><ele>167.0</ele><time>2026-03-23T09:13:18Z</time></trkpt><trkpt lat="45.81333244343717" lon="12.047374053072426"><ele>166.75</ele><time>2026-03-23T09:13:19Z</time></trkpt><trkpt lat="45.8134462427931" lon="12.047552290097821"><ele>166.5</ele><time>2026-03-23T09:13:20Z</time></trkpt><trkpt lat="45.81353651500447" lon="12.047691006909194"><ele>166.25</ele><time>2026-03-23T09:13:21Z</time></trkpt><trkpt lat="45.81358431291709" lon="12.047847470222111"><ele>166.0</ele><time>2026-03-23T09:13:22Z</time></trkpt><trkpt lat="45.81358689209228" lon="12.048026247348833"><ele>166.0</ele><time>2026-03-23T09:13:23Z</time></trkpt><trkpt lat="45.813593152516205" lon="12.048264189426805"><ele>166.0</ele><time>2026-03-23T09:13:24Z</time></trkpt><trkpt lat="45.813597180194996" lon="12.048549610369275"><ele>166.0</ele><time>2026-03-23T09:13:25Z</time></trkpt><trkpt lat="45.81361632822523" lon="12.048844053828208"><ele>168.0</ele><time>2026-03-23T09:13:26Z</time></trkpt><trkpt lat="45.813606363761416" lon="12.049109196312115"><ele>170.0</ele><time>2026-03-23T09:13:27Z</time></trkpt><trkpt lat="45.813619967220866" lon="12.049300069251192"><ele>172.0</ele><time>2026-03-23T09:13:28Z</time></trkpt><trkpt lat="45.81362641822591" lon="12.049425715193825"><ele>174.0</ele><time>2026-03-23T09:13:29Z</time></trkpt><trkpt lat="45.81364005225099" lon="12.049543565441693"><ele>174.39999999999998</ele><time>2026-03-23T09:13:30Z</time></trkpt><trkpt lat="45.813684764988764" lon="12.049626346091543"><ele>174.8</ele><time>2026-03-23T09:13:31Z</time></trkpt><trkpt lat="45.813760056811915" lon="12.04965874684762"><ele>175.2</ele><time>2026-03-23T09:13:31.999Z</time></trkpt><trkpt lat="45.813853195999606" lon="12.04966614039458"><ele>175.60000000000002</ele><time>2026-03-23T09:13:32.999Z</time></trkpt><trkpt lat="45.81397047772279" lon="12.049641234160118"><ele>176.0</ele><time>2026-03-23T09:13:33.999Z</time></trkpt><trkpt lat="45.814117348741775" lon="12.049616181399315"><ele>176.0</ele><time>2026-03-23T09:13:34.999Z</time></trkpt><trkpt lat="45.81427626528615" lon="12.049700017365609"><ele>176.0</ele><time>2026-03-23T09:13:35.999Z</time></trkpt><trkpt lat="45.81447689170383" lon="12.049774054198963"><ele>176.0</ele><time>2026-03-23T09:13:36.999Z</time></trkpt><trkpt lat="45.81466322448254" lon="12.049884627696535"><ele>175.0</ele><time>2026-03-23T09:13:37.999Z</time></trkpt><trkpt lat="45.81485923386951" lon="12.04998732658384"><ele>174.0</ele><time>2026-03-23T09:13:38.999Z</time></trkpt><trkpt lat="45.815054538967374" lon="12.05008679944179"><ele>173.0</ele><time>2026-03-23T09:13:39.999Z</time></trkpt><trkpt lat="45.81524465660139" lon="12.050189755880403"><ele>171.0</ele><time>2026-03-23T09:13:40.999Z</time></trkpt><trkpt lat="45.81544325976705" lon="12.050296221702869"><ele>169.0</ele><time>2026-03-23T09:13:41.999Z</time></trkpt><trkpt lat="45.81565041742086" lon="12.050402178432186"><ele>167.0</ele><time>2026-03-23T09:13:42.999Z</time></trkpt><trkpt lat="45.81584718638095" lon="12.050497350266536"><ele>165.66666666666666</ele><time>2026-03-23T09:13:43.999Z</time></trkpt><trkpt lat="45.81602906213494" lon="12.050587388329413"><ele>164.33333333333334</ele><time>2026-03-23T09:13:44.999Z</time></trkpt><trkpt lat="45.816198123646565" lon="12.050674936318485"><ele>163.0</ele><time>2026-03-23T09:13:45.999Z</time></trkpt><trkpt lat="45.81634567975919" lon="12.050752659171613"><ele>163.75</ele><time>2026-03-23T09:13:46.999Z</time></trkpt><trkpt lat="45.81647921254866" lon="12.05080867621919"><ele>164.5</ele><time>2026-03-23T09:13:47.999Z</time></trkpt><trkpt lat="45.81659479772466" lon="12.050871588479593"><ele>165.25</ele><time>2026-03-23T09:13:48.999Z</time></trkpt><trkpt lat="45.816702515078525" lon="12.050981328629337"><ele>166.0</ele><time>2026-03-23T09:13:49.999Z</time></trkpt><trkpt lat="45.81681276122583" lon="12.051132000318162"><ele>164.75</ele><time>2026-03-23T09:13:50.999Z</time></trkpt><trkpt lat="45.816912340080066" lon="12.0513110029448"><ele>163.5</ele><time>2026-03-23T09:13:51.999Z</time></trkpt><trkpt lat="45.81699342943984" lon="12.051472730176606"><ele>162.25</ele><time>2026-03-23T09:13:52.999Z</time></trkpt><trkpt lat="45.817088405999385" lon="12.05159359262414"><ele>161.0</ele><time>2026-03-23T09:13:53.999Z</time></trkpt><trkpt lat="45.81722423206677" lon="12.051689750831933"><ele>160.66666666666666</ele><time>2026-03-23T09:13:54.999Z</time></trkpt><trkpt lat="45.81740292622555" lon="12.051782498581238"><ele>160.33333333333334</ele><time>2026-03-23T09:13:55.999Z</time></trkpt><trkpt lat="45.81760995436624" lon="12.051875253922693"><ele>160.0</ele><time>2026-03-23T09:13:56.999Z</time></trkpt><trkpt lat="45.81782522546304" lon="12.051968042742608"><ele>158.66666666666669</ele><time>2026-03-23T09:13:57.999Z</time></trkpt><trkpt lat="45.81801675256304" lon="12.0520629273584"><ele>157.33333333333334</ele><time>2026-03-23T09:13:58.999Z</time></trkpt><trkpt lat="45.818176787353345" lon="12.052148236879303"><ele>156.0</ele><time>2026-03-23T09:13:59.999Z</time></trkpt><trkpt lat="45.81830971174066" lon="12.052223292790782"><ele>156.0</ele><time>2026-03-23T09:14:00.999Z</time></trkpt><trkpt lat="45.818431460210114" lon="12.052272241764568"><ele>156.0</ele><time>2026-03-23T09:14:01.999Z</time></trkpt><trkpt lat="45.818553070142585" lon="12.052275651044804"><ele>156.0</ele><time>2026-03-23T09:14:02.999Z</time></trkpt><trkpt lat="45.81869108106339" lon="12.052232387720451"><ele>156.0</ele><time>2026-03-23T09:14:03.999Z</time></trkpt><trkpt lat="45.818833420951705" lon="12.052165617404711"><ele>153.66666666666666</ele><time>2026-03-23T09:14:04.999Z</time></trkpt><trkpt lat="45.81897140109201" lon="12.052176647435346"><ele>151.33333333333331</ele><time>2026-03-23T09:14:05.999Z</time></trkpt><trkpt lat="45.819125091578464" lon="12.052241978048931"><ele>149.0</ele><time>2026-03-23T09:14:06.999Z</time></trkpt><trkpt lat="45.819292156109974" lon="12.05231364626331"><ele>147.75</ele><time>2026-03-23T09:14:07.999Z</time></trkpt><trkpt lat="45.81941736831839" lon="12.052385659227172"><ele>146.5</ele><time>2026-03-23T09:14:08.999Z</time></trkpt><trkpt lat="45.81952782674801" lon="12.052408316342571"><ele>145.25</ele><time>2026-03-23T09:14:09.999Z</time></trkpt><trkpt lat="45.81964524837282" lon="12.05238708684209"><ele>144.0</ele><time>2026-03-23T09:14:10.999Z</time></trkpt><trkpt lat="45.81979046567405" lon="12.052317235398728"><ele>144.0</ele><time>2026-03-23T09:14:11.999Z</time></trkpt><trkpt lat="45.819953497259846" lon="12.052205819933674"><ele>144.0</ele><time>2026-03-23T09:14:12.999Z</time></trkpt><trkpt lat="45.82011074904446" lon="12.05210441663741"><ele>144.0</ele><time>2026-03-23T09:14:13.999Z</time></trkpt><trkpt lat="45.82027547346788" lon="12.052054056625325"><ele>143.75</ele><time>2026-03-23T09:14:14.999Z</time></trkpt><trkpt lat="45.82044195527256" lon="12.052019240480153"><ele>143.5</ele><time>2026-03-23T09:14:15.999Z</time></trkpt><trkpt lat="45.82059236827954" lon="12.051991019957683"><ele>143.25</ele><time>2026-03-23T09:14:16.999Z</time></trkpt><trkpt lat="45.82071221453497" lon="12.051964754102377"><ele>143.0</ele><time>2026-03-23T09:14:17.999Z</time></trkpt><trkpt lat="45.820806226060135" lon="12.051960682749115"><ele>143.0</ele><time>2026-03-23T09:14:18.999Z</time></trkpt><trkpt lat="45.82088238482616" lon="12.051953065068547"><ele>143.0</ele><time>2026-03-23T09:14:19.999Z</time></trkpt><trkpt lat="45.820961119557616" lon="12.051931205804104"><ele>143.0</ele><time>2026-03-23T09:14:20.999Z</time></trkpt><trkpt lat="45.821067129761865" lon="12.051891631135975"><ele>143.0</ele><time>2026-03-23T09:14:21.999Z</time></trkpt><trkpt lat="45.82121092786212" lon="12.051868926256063"><ele>143.0</ele><time>2026-03-23T09:14:22.999Z</time></trkpt><trkpt lat="45.821386743802975" lon="12.05185764730771"><ele>142.66666666666666</ele><time>2026-03-23T09:14:23.999Z</time></trkpt><trkpt lat="45.82155919134869" lon="12.051814467806047"><ele>142.33333333333334</ele><time>2026-03-23T09:14:24.999Z</time></trkpt><trkpt lat="45.82171597240235" lon="12.051780267754824"><ele>142.0</ele><time>2026-03-23T09:14:25.999Z</time></trkpt><trkpt lat="45.821852819395055" lon="12.051755055982365"><ele>142.0</ele><time>2026-03-23T09:14:26.999Z</time></trkpt><trkpt lat="45.82197479732027" lon="12.051724442464026"><ele>142.0</ele><time>2026-03-23T09:14:27.999Z</time></trkpt><trkpt lat="45.82208789058579" lon="12.051707880146932"><ele>142.0</ele><time>2026-03-23T09:14:28.999Z</time></trkpt><trkpt lat="45.82219374573846" lon="12.051692570933417"><ele>142.0</ele><time>2026-03-23T09:14:29.999Z</time></trkpt><trkpt lat="45.82228926043094" lon="12.051666327211198"><ele>142.0</ele><time>2026-03-23T09:14:30.999Z</time></trkpt><trkpt lat="45.82237002291412" lon="12.051648279908688"><ele>142.0</ele><time>2026-03-23T09:14:31.999Z</time></trkpt><trkpt lat="45.8224335335038" lon="12.05163623073995"><ele>142.0</ele><time>2026-03-23T09:14:32.999Z</time></trkpt><trkpt lat="45.82251336322271" lon="12.051640237200447"><ele>142.0</ele><time>2026-03-23T09:14:35Z</time></trkpt><trkpt lat="45.82258309122235" lon="12.051632944301893"><ele>142.0</ele><time>2026-03-23T09:14:38Z</time></trkpt><trkpt lat="45.82262515214075" lon="12.051722601671615"><ele>142.0</ele><time>2026-03-23T09:14:39Z</time></trkpt><trkpt lat="45.82266334459254" lon="12.051829554043316"><ele>142.0</ele><time>2026-03-23T09:14:40Z</time></trkpt><trkpt lat="45.82270747419928" lon="12.051895078679342"><ele>142.0</ele><time>2026-03-23T09:14:41Z</time></trkpt><trkpt lat="45.82281255580819" lon="12.051952436560322"><ele>142.0</ele><time>2026-03-23T09:14:43Z</time></trkpt><trkpt lat="45.82292547525002" lon="12.052023906978231"><ele>142.0</ele><time>2026-03-23T09:14:45Z</time></trkpt><trkpt lat="45.8229795380663" lon="12.052114083342119"><ele>142.0</ele><time>2026-03-23T09:14:46Z</time></trkpt><trkpt lat="45.82302616111218" lon="12.05223721282189"><ele>142.0</ele><time>2026-03-23T09:14:47Z</time></trkpt><trkpt lat="45.82308178999462" lon="12.052385844835696"><ele>142.0</ele><time>2026-03-23T09:14:48Z</time></trkpt><trkpt lat="45.823120722740356" lon="12.05251569815838"><ele>142.0</ele><time>2026-03-23T09:14:49Z</time></trkpt><trkpt lat="45.82316570932104" lon="12.05264004016101"><ele>142.0</ele><time>2026-03-23T09:14:50Z</time></trkpt><trkpt lat="45.82320997799513" lon="12.052766694638358"><ele>142.0</ele><time>2026-03-23T09:14:51Z</time></trkpt><trkpt lat="45.82328013327815" lon="12.05288421910574"><ele>142.0</ele><time>2026-03-23T09:14:52Z</time></trkpt><trkpt lat="45.823380199436926" lon="12.052989352913558"><ele>142.0</ele><time>2026-03-23T09:14:53Z</time></trkpt><trkpt lat="45.82349934789149" lon="12.053068643169825"><ele>142.16666666666669</ele><time>2026-03-23T09:14:54Z</time></trkpt><trkpt lat="45.823606977227634" lon="12.053121382470993"><ele>142.33333333333334</ele><time>2026-03-23T09:14:55Z</time></trkpt><trkpt lat="45.82368463301068" lon="12.053181035470665"><ele>142.5</ele><time>2026-03-23T09:14:56Z</time></trkpt><trkpt lat="45.82374024147983" lon="12.053255625689342"><ele>142.66666666666666</ele><time>2026-03-23T09:14:57Z</time></trkpt><trkpt lat="45.82377606702046" lon="12.05335802399617"><ele>142.83333333333331</ele><time>2026-03-23T09:14:58Z</time></trkpt><trkpt lat="45.823797181458886" lon="12.053484371928727"><ele>143.0</ele><time>2026-03-23T09:14:59Z</time></trkpt><trkpt lat="45.82381927818272" lon="12.053643345704279"><ele>142.66666666666666</ele><time>2026-03-23T09:15:00Z</time></trkpt><trkpt lat="45.823850795028754" lon="12.05382854911272"><ele>142.33333333333334</ele><time>2026-03-23T09:15:01Z</time></trkpt><trkpt lat="45.82388621909352" lon="12.054040747343445"><ele>142.0</ele><time>2026-03-23T09:15:02Z</time></trkpt><trkpt lat="45.823939259528466" lon="12.054269605743599"><ele>142.0</ele><time>2026-03-23T09:15:03Z</time></trkpt><trkpt lat="45.82398666743825" lon="12.054469116389301"><ele>142.0</ele><time>2026-03-23T09:15:04Z</time></trkpt><trkpt lat="45.82401319735072" lon="12.054651023294033"><ele>142.0</ele><time>2026-03-23T09:15:05Z</time></trkpt><trkpt lat="45.82405817623874" lon="12.054806676824052"><ele>142.0</ele><time>2026-03-23T09:15:06Z</time></trkpt><trkpt lat="45.824111745451" lon="12.054956351657793"><ele>142.0</ele><time>2026-03-23T09:15:07Z</time></trkpt><trkpt lat="45.82415855616794" lon="12.055087764313722"><ele>142.0</ele><time>2026-03-23T09:15:08Z</time></trkpt><trkpt lat="45.8242573339732" lon="12.055341815488182"><ele>142.0</ele><time>2026-03-23T09:15:09Z</time></trkpt><trkpt lat="45.82429189492331" lon="12.05546682549194"><ele>142.0</ele><time>2026-03-23T09:15:10Z</time></trkpt><trkpt lat="45.82433332505107" lon="12.055574098796754"><ele>142.2</ele><time>2026-03-23T09:15:11Z</time></trkpt><trkpt lat="45.82441278730793" lon="12.055664735802175"><ele>142.39999999999998</ele><time>2026-03-23T09:15:12Z</time></trkpt><trkpt lat="45.82450890178687" lon="12.055747166475003"><ele>142.60000000000002</ele><time>2026-03-23T09:15:13Z</time></trkpt><trkpt lat="45.8245909950944" lon="12.055794752288266"><ele>142.8</ele><time>2026-03-23T09:15:14Z</time></trkpt><trkpt lat="45.82467091004058" lon="12.055765042591878"><ele>143.0</ele><time>2026-03-23T09:15:15Z</time></trkpt><trkpt lat="45.82477166349662" lon="12.055764784126769"><ele>143.25</ele><time>2026-03-23T09:15:16Z</time></trkpt><trkpt lat="45.82488856413707" lon="12.055726579789356"><ele>143.5</ele><time>2026-03-23T09:15:17Z</time></trkpt><trkpt lat="45.825014414441426" lon="12.055705769474086"><ele>143.75</ele><time>2026-03-23T09:15:18Z</time></trkpt><trkpt lat="45.82514127084242" lon="12.05568705469809"><ele>144.0</ele><time>2026-03-23T09:15:19Z</time></trkpt><trkpt lat="45.82525217289001" lon="12.055693909971966"><ele>142.66666666666666</ele><time>2026-03-23T09:15:21Z</time></trkpt><trkpt lat="45.825325040501056" lon="12.055706851453124"><ele>141.33333333333334</ele><time>2026-03-23T09:15:55.999Z</time></trkpt><trkpt lat="45.825345240769636" lon="12.055835459103603"><ele>140.0</ele><time>2026-03-23T09:15:56.999Z</time></trkpt><trkpt lat="45.82535142348237" lon="12.055960372480452"><ele>138.66666666666669</ele><time>2026-03-23T09:15:57.999Z</time></trkpt><trkpt lat="45.825384365540714" lon="12.056077750625942"><ele>137.33333333333334</ele><time>2026-03-23T09:15:58.999Z</time></trkpt><trkpt lat="45.82541412807077" lon="12.056217333862067"><ele>136.0</ele><time>2026-03-23T09:15:59.999Z</time></trkpt><trkpt lat="45.82546635426366" lon="12.056366232146699"><ele>136.0</ele><time>2026-03-23T09:16:00.999Z</time></trkpt><trkpt lat="45.82553209382553" lon="12.056542463133955"><ele>136.0</ele><time>2026-03-23T09:16:01.999Z</time></trkpt><trkpt lat="45.825595512318756" lon="12.056684724554298"><ele>136.0</ele><time>2026-03-23T09:16:02.999Z</time></trkpt><trkpt lat="45.82560873202772" lon="12.056858847612002"><ele>136.0</ele><time>2026-03-23T09:16:03.999Z</time></trkpt><trkpt lat="45.82561286987609" lon="12.057076020952751"><ele>136.0</ele><time>2026-03-23T09:16:04.999Z</time></trkpt><trkpt lat="45.82561720407494" lon="12.057309603241361"><ele>136.0</ele><time>2026-03-23T09:16:05.999Z</time></trkpt><trkpt lat="45.825620948356054" lon="12.057511393266005"><ele>136.0</ele><time>2026-03-23T09:16:06.999Z</time></trkpt><trkpt lat="45.82563953927944" lon="12.057691526221115"><ele>136.0</ele><time>2026-03-23T09:16:07.999Z</time></trkpt><trkpt lat="45.825640052745285" lon="12.057876799546728"><ele>136.0</ele><time>2026-03-23T09:16:08.999Z</time></trkpt><trkpt lat="45.82564519928871" lon="12.058071105049354"><ele>136.0</ele><time>2026-03-23T09:16:09.999Z</time></trkpt><trkpt lat="45.825658405627514" lon="12.058276820232988"><ele>136.0</ele><time>2026-03-23T09:16:10.999Z</time></trkpt><trkpt lat="45.82569132369564" lon="12.058508909668104"><ele>136.0</ele><time>2026-03-23T09:16:11.999Z</time></trkpt><trkpt lat="45.82572925890911" lon="12.058776158291588"><ele>135.33333333333334</ele><time>2026-03-23T09:16:12.999Z</time></trkpt><trkpt lat="45.825752056830346" lon="12.059047831183522"><ele>134.66666666666666</ele><time>2026-03-23T09:16:13.999Z</time></trkpt><trkpt lat="45.82578285105029" lon="12.059296951074337"><ele>134.0</ele><time>2026-03-23T09:16:14.999Z</time></trkpt><trkpt lat="45.82581029159249" lon="12.059542465564999"><ele>135.0</ele><time>2026-03-23T09:16:15.999Z</time></trkpt><trkpt lat="45.82586502088769" lon="12.060039850200026"><ele>136.0</ele><time>2026-03-23T09:16:17.999Z</time></trkpt><trkpt lat="45.8258909826477" lon="12.06024843861385"><ele>136.0</ele><time>2026-03-23T09:16:18.999Z</time></trkpt><trkpt lat="45.82591558532241" lon="12.060440333523749"><ele>136.0</ele><time>2026-03-23T09:16:19.999Z</time></trkpt><trkpt lat="45.82593614429887" lon="12.060615755927962"><ele>136.0</ele><time>2026-03-23T09:16:20.999Z</time></trkpt><trkpt lat="45.825955499560195" lon="12.060782935276213"><ele>136.0</ele><time>2026-03-23T09:16:21.999Z</time></trkpt><trkpt lat="45.82597313997884" lon="12.060943877148183"><ele>133.75</ele><time>2026-03-23T09:16:22.999Z</time></trkpt><trkpt lat="45.82598991467141" lon="12.061108413240255"><ele>131.5</ele><time>2026-03-23T09:16:23.999Z</time></trkpt><trkpt lat="45.82600413271505" lon="12.06127914901505"><ele>129.25</ele><time>2026-03-23T09:16:24.999Z</time></trkpt><trkpt lat="45.82601997915022" lon="12.061455815908703"><ele>127.0</ele><time>2026-03-23T09:16:25.999Z</time></trkpt><trkpt lat="45.82603219304887" lon="12.061631450693772"><ele>127.0</ele><time>2026-03-23T09:16:26.999Z</time></trkpt><trkpt lat="45.826042389267144" lon="12.061804816437425"><ele>127.0</ele><time>2026-03-23T09:16:27.999Z</time></trkpt><trkpt lat="45.82605010708364" lon="12.061979198545579"><ele>127.0</ele><time>2026-03-23T09:16:28.999Z</time></trkpt><trkpt lat="45.82606018952826" lon="12.06215327327346"><ele>127.0</ele><time>2026-03-23T09:16:29.999Z</time></trkpt><trkpt lat="45.82607413146157" lon="12.062321967018745"><ele>127.25</ele><time>2026-03-23T09:16:30.999Z</time></trkpt><trkpt lat="45.82608705779769" lon="12.062488879198401"><ele>127.5</ele><time>2026-03-23T09:16:31.999Z</time></trkpt><trkpt lat="45.82608829804301" lon="12.062649834023851"><ele>127.75</ele><time>2026-03-23T09:16:32.998Z</time></trkpt><trkpt lat="45.82609664464383" lon="12.062808735818452"><ele>128.0</ele><time>2026-03-23T09:16:33.998Z</time></trkpt><trkpt lat="45.826112390378185" lon="12.062981487675877"><ele>128.0</ele><time>2026-03-23T09:16:34.998Z</time></trkpt><trkpt lat="45.826129953089264" lon="12.063167742215379"><ele>128.0</ele><time>2026-03-23T09:16:35.998Z</time></trkpt><trkpt lat="45.826150289227705" lon="12.06335588652561"><ele>128.0</ele><time>2026-03-23T09:16:36.998Z</time></trkpt><trkpt lat="45.826170968622705" lon="12.063545696346559"><ele>128.0</ele><time>2026-03-23T09:16:37.998Z</time></trkpt><trkpt lat="45.82620137832953" lon="12.063737389675888"><ele>128.75</ele><time>2026-03-23T09:16:38.998Z</time></trkpt><trkpt lat="45.82623154015374" lon="12.06392714191803"><ele>129.5</ele><time>2026-03-23T09:16:40Z</time></trkpt><trkpt lat="45.82626420847209" lon="12.064097587724838"><ele>130.25</ele><time>2026-03-23T09:16:41Z</time></trkpt><trkpt lat="45.826293381836834" lon="12.064251351145545"><ele>131.0</ele><time>2026-03-23T09:16:42Z</time></trkpt><trkpt lat="45.826279083983586" lon="12.064405052648711"><ele>131.5</ele><time>2026-03-23T09:16:43Z</time></trkpt><trkpt lat="45.826271876436174" lon="12.06458808415293"><ele>132.0</ele><time>2026-03-23T09:16:44Z</time></trkpt><trkpt lat="45.826239196186755" lon="12.064791098223461"><ele>132.5</ele><time>2026-03-23T09:16:45Z</time></trkpt><trkpt lat="45.8262276094463" lon="12.065007807559287"><ele>133.0</ele><time>2026-03-23T09:16:46Z</time></trkpt><trkpt lat="45.82620677358493" lon="12.065222908843477"><ele>133.25</ele><time>2026-03-23T09:16:47Z</time></trkpt><trkpt lat="45.82616607902849" lon="12.065440893416262"><ele>133.5</ele><time>2026-03-23T09:16:48Z</time></trkpt><trkpt lat="45.826156635682146" lon="12.065654049793977"><ele>133.75</ele><time>2026-03-23T09:16:49Z</time></trkpt><trkpt lat="45.826133578470696" lon="12.065845176319742"><ele>134.0</ele><time>2026-03-23T09:16:50Z</time></trkpt><trkpt lat="45.826118318087424" lon="12.066023727973281"><ele>134.6</ele><time>2026-03-23T09:16:51Z</time></trkpt><trkpt lat="45.82610357115638" lon="12.066189296277605"><ele>135.2</ele><time>2026-03-23T09:16:52Z</time></trkpt><trkpt lat="45.8260924198288" lon="12.066328383836787"><ele>135.79999999999998</ele><time>2026-03-23T09:16:53Z</time></trkpt><trkpt lat="45.82607070461508" lon="12.066444350820548"><ele>136.4</ele><time>2026-03-23T09:16:54Z</time></trkpt><trkpt lat="45.82600985033202" lon="12.066539728545292"><ele>137.0</ele><time>2026-03-23T09:16:55Z</time></trkpt><trkpt lat="45.826014397069436" lon="12.066689971781301"><ele>137.0</ele><time>2026-03-23T09:16:56Z</time></trkpt><trkpt lat="45.82603957507391" lon="12.066863106114841"><ele>137.0</ele><time>2026-03-23T09:16:57Z</time></trkpt><trkpt lat="45.82607497923907" lon="12.06708127769617"><ele>137.0</ele><time>2026-03-23T09:16:58Z</time></trkpt><trkpt lat="45.82609960355333" lon="12.06733143783186"><ele>136.66666666666666</ele><time>2026-03-23T09:16:59Z</time></trkpt><trkpt lat="45.826128971217265" lon="12.06757706274119"><ele>136.33333333333334</ele><time>2026-03-23T09:17:00Z</time></trkpt><trkpt lat="45.82617822643421" lon="12.067796347386532"><ele>136.0</ele><time>2026-03-23T09:17:01Z</time></trkpt><trkpt lat="45.8262275928392" lon="12.068034517017713"><ele>136.33333333333334</ele><time>2026-03-23T09:17:02Z</time></trkpt><trkpt lat="45.82627069080629" lon="12.068290461056401"><ele>136.66666666666666</ele><time>2026-03-23T09:17:03Z</time></trkpt><trkpt lat="45.8263130019365" lon="12.06854569143369"><ele>137.0</ele><time>2026-03-23T09:17:04Z</time></trkpt><trkpt lat="45.826355599428105" lon="12.068775632987947"><ele>137.0</ele><time>2026-03-23T09:17:05Z</time></trkpt><trkpt lat="45.82639871851117" lon="12.06899120816144"><ele>137.0</ele><time>2026-03-23T09:17:06Z</time></trkpt><trkpt lat="45.826453177639635" lon="12.069214437502584"><ele>137.0</ele><time>2026-03-23T09:17:07Z</time></trkpt><trkpt lat="45.82653935359676" lon="12.069457854084092"><ele>136.66666666666666</ele><time>2026-03-23T09:17:08Z</time></trkpt><trkpt lat="45.826651192577074" lon="12.069723280289832"><ele>136.33333333333334</ele><time>2026-03-23T09:17:09Z</time></trkpt><trkpt lat="45.82676154524217" lon="12.070003384230382"><ele>136.0</ele><time>2026-03-23T09:17:10Z</time></trkpt><trkpt lat="45.82685845441478" lon="12.070261049205456"><ele>135.66666666666669</ele><time>2026-03-23T09:17:11Z</time></trkpt><trkpt lat="45.826947009656536" lon="12.0704896493336"><ele>135.33333333333334</ele><time>2026-03-23T09:17:12Z</time></trkpt><trkpt lat="45.82703120889507" lon="12.070700980542707"><ele>135.0</ele><time>2026-03-23T09:17:13Z</time></trkpt><trkpt lat="45.82710889131998" lon="12.070904956914788"><ele>135.0</ele><time>2026-03-23T09:17:14Z</time></trkpt><trkpt lat="45.827184709030064" lon="12.07110390999896"><ele>135.0</ele><time>2026-03-23T09:17:15Z</time></trkpt><trkpt lat="45.827261386152024" lon="12.07132467845637"><ele>135.0</ele><time>2026-03-23T09:17:16Z</time></trkpt><trkpt lat="45.827334604392256" lon="12.07157433296101"><ele>135.0</ele><time>2026-03-23T09:17:17Z</time></trkpt><trkpt lat="45.82740617380395" lon="12.071857543743526"><ele>135.0</ele><time>2026-03-23T09:17:18Z</time></trkpt><trkpt lat="45.82747704593555" lon="12.07215041890763"><ele>135.0</ele><time>2026-03-23T09:17:19Z</time></trkpt><trkpt lat="45.82755477593753" lon="12.072446306280549"><ele>135.0</ele><time>2026-03-23T09:17:20Z</time></trkpt><trkpt lat="45.82762915736965" lon="12.072731464451076"><ele>135.0</ele><time>2026-03-23T09:17:20.999Z</time></trkpt><trkpt lat="45.82769902039397" lon="12.073000719291516"><ele>135.0</ele><time>2026-03-23T09:17:21.999Z</time></trkpt><trkpt lat="45.82776866579609" lon="12.073271122663856"><ele>134.0</ele><time>2026-03-23T09:17:22.999Z</time></trkpt><trkpt lat="45.82783711248421" lon="12.073533185659837"><ele>133.0</ele><time>2026-03-23T09:17:23.999Z</time></trkpt><trkpt lat="45.8279004394784" lon="12.073791815645635"><ele>132.0</ele><time>2026-03-23T09:17:24.999Z</time></trkpt><trkpt lat="45.827964666030404" lon="12.074039486177508"><ele>132.0</ele><time>2026-03-23T09:17:25.999Z</time></trkpt><trkpt lat="45.82803215630682" lon="12.074280490022115"><ele>132.0</ele><time>2026-03-23T09:17:26.999Z</time></trkpt><trkpt lat="45.82809964500192" lon="12.074529659908409"><ele>132.0</ele><time>2026-03-23T09:17:27.999Z</time></trkpt><trkpt lat="45.82816364969296" lon="12.074806927905458"><ele>132.0</ele><time>2026-03-23T09:17:28.999Z</time></trkpt><trkpt lat="45.82822373447727" lon="12.075122258860874"><ele>132.0</ele><time>2026-03-23T09:17:29.999Z</time></trkpt><trkpt lat="45.82827707008566" lon="12.075465600319896"><ele>132.0</ele><time>2026-03-23T09:17:30.999Z</time></trkpt><trkpt lat="45.82834307699736" lon="12.075823178588289"><ele>132.0</ele><time>2026-03-23T09:17:31.999Z</time></trkpt><trkpt lat="45.828415616653025" lon="12.076193405682996"><ele>129.5</ele><time>2026-03-23T09:17:32.999Z</time></trkpt><trkpt lat="45.8284783773075" lon="12.0765599896798"><ele>127.0</ele><time>2026-03-23T09:17:33.999Z</time></trkpt><trkpt lat="45.828542865576814" lon="12.076918561272274"><ele>127.0</ele><time>2026-03-23T09:17:34.999Z</time></trkpt><trkpt lat="45.82861860041029" lon="12.077280532294722"><ele>127.0</ele><time>2026-03-23T09:17:35.999Z</time></trkpt><trkpt lat="45.82869782950169" lon="12.077653204366579"><ele>127.0</ele><time>2026-03-23T09:17:36.999Z</time></trkpt><trkpt lat="45.82877659470148" lon="12.07803790742117"><ele>127.0</ele><time>2026-03-23T09:17:37.999Z</time></trkpt><trkpt lat="45.8288599484647" lon="12.078427428663112"><ele>127.0</ele><time>2026-03-23T09:17:38.999Z</time></trkpt><trkpt lat="45.82893870918069" lon="12.078774319304346"><ele>127.0</ele><time>2026-03-23T09:17:39.999Z</time></trkpt><trkpt lat="45.82900867623499" lon="12.079080572504134"><ele>127.66666666666667</ele><time>2026-03-23T09:17:40.999Z</time></trkpt><trkpt lat="45.82907128388805" lon="12.07937491780221"><ele>128.33333333333334</ele><time>2026-03-23T09:17:41.999Z</time></trkpt><trkpt lat="45.829133254577876" lon="12.079642242304072"><ele>129.0</ele><time>2026-03-23T09:17:42.999Z</time></trkpt><trkpt lat="45.82919533824936" lon="12.079901951516373"><ele>129.0</ele><time>2026-03-23T09:17:43.999Z</time></trkpt><trkpt lat="45.8292315647231" lon="12.080178612684174"><ele>129.0</ele><time>2026-03-23T09:17:44.999Z</time></trkpt><trkpt lat="45.829258881983534" lon="12.080548423651216"><ele>128.66666666666666</ele><time>2026-03-23T09:17:45.999Z</time></trkpt><trkpt lat="45.82926292455926" lon="12.080953224250097"><ele>128.33333333333331</ele><time>2026-03-23T09:17:46.999Z</time></trkpt><trkpt lat="45.8292659786169" lon="12.081112842855116"><ele>128.0</ele><time>2026-03-23T09:17:47.999Z</time></trkpt><trkpt lat="45.829273857041265" lon="12.081479865523253"><ele>129.0</ele><time>2026-03-23T09:17:48.999Z</time></trkpt><trkpt lat="45.82928175538994" lon="12.08184781634038"><ele>130.0</ele><time>2026-03-23T09:17:49.999Z</time></trkpt><trkpt lat="45.8292880803341" lon="12.082217653725394"><ele>128.0</ele><time>2026-03-23T09:17:50.999Z</time></trkpt><trkpt lat="45.829309475811215" lon="12.082576796972592"><ele>126.0</ele><time>2026-03-23T09:17:51.999Z</time></trkpt><trkpt lat="45.829315356237046" lon="12.082908115377961"><ele>126.0</ele><time>2026-03-23T09:17:52.999Z</time></trkpt><trkpt lat="45.82932377279437" lon="12.083210787538055"><ele>126.0</ele><time>2026-03-23T09:17:53.999Z</time></trkpt><trkpt lat="45.829326636774155" lon="12.083497284339021"><ele>126.0</ele><time>2026-03-23T09:17:54.999Z</time></trkpt><trkpt lat="45.82933175465821" lon="12.083752803901595"><ele>126.0</ele><time>2026-03-23T09:17:55.999Z</time></trkpt><trkpt lat="45.82932997461604" lon="12.083997187462979"><ele>126.0</ele><time>2026-03-23T09:17:56.999Z</time></trkpt><trkpt lat="45.829336504984056" lon="12.084242520920835"><ele>126.0</ele><time>2026-03-23T09:17:57.999Z</time></trkpt><trkpt lat="45.82933261068483" lon="12.084521869922371"><ele>126.0</ele><time>2026-03-23T09:17:58.999Z</time></trkpt><trkpt lat="45.82934175686706" lon="12.084825389669717"><ele>126.0</ele><time>2026-03-23T09:17:59.999Z</time></trkpt><trkpt lat="45.829424584713166" lon="12.08514608346318"><ele>126.5</ele><time>2026-03-23T09:18:00.999Z</time></trkpt><trkpt lat="45.829479475592855" lon="12.0854741892577"><ele>127.0</ele><time>2026-03-23T09:18:01.999Z</time></trkpt><trkpt lat="45.829531673935556" lon="12.085819631419222"><ele>128.0</ele><time>2026-03-23T09:18:02.999Z</time></trkpt><trkpt lat="45.82958445034399" lon="12.086189084906305"><ele>129.0</ele><time>2026-03-23T09:18:03.999Z</time></trkpt><trkpt lat="45.82964031622107" lon="12.086567874423846"><ele>129.0</ele><time>2026-03-23T09:18:04.999Z</time></trkpt><trkpt lat="45.82969391779413" lon="12.08695526173513"><ele>129.0</ele><time>2026-03-23T09:18:05.999Z</time></trkpt><trkpt lat="45.82975243786717" lon="12.087345918621933"><ele>130.5</ele><time>2026-03-23T09:18:06.999Z</time></trkpt><trkpt lat="45.829821120500014" lon="12.087740423442911"><ele>132.0</ele><time>2026-03-23T09:18:07.999Z</time></trkpt><trkpt lat="45.82989394091698" lon="12.088107070575818"><ele>132.33333333333334</ele><time>2026-03-23T09:18:08.999Z</time></trkpt><trkpt lat="45.82995613130189" lon="12.088414459281905"><ele>132.66666666666669</ele><time>2026-03-23T09:18:09.999Z</time></trkpt><trkpt lat="45.83001616169858" lon="12.08870555861181"><ele>133.0</ele><time>2026-03-23T09:18:10.999Z</time></trkpt><trkpt lat="45.83006803319958" lon="12.088965398149591"><ele>134.0</ele><time>2026-03-23T09:18:11.999Z</time></trkpt><trkpt lat="45.83010928324558" lon="12.0892065404858"><ele>135.0</ele><time>2026-03-23T09:18:12.999Z</time></trkpt><trkpt lat="45.830134895483646" lon="12.089447719059908"><ele>136.0</ele><time>2026-03-23T09:18:13.999Z</time></trkpt><trkpt lat="45.830151129176215" lon="12.089707566001016"><ele>133.33333333333334</ele><time>2026-03-23T09:18:14.999Z</time></trkpt><trkpt lat="45.830165530151355" lon="12.089996107213231"><ele>130.66666666666666</ele><time>2026-03-23T09:18:15.999Z</time></trkpt><trkpt lat="45.83016680074599" lon="12.090306183311494"><ele>128.0</ele><time>2026-03-23T09:18:16.999Z</time></trkpt><trkpt lat="45.8301910512167" lon="12.09060608226283"><ele>128.0</ele><time>2026-03-23T09:18:17.999Z</time></trkpt><trkpt lat="45.83022248496493" lon="12.090919669192548"><ele>128.0</ele><time>2026-03-23T09:18:18.999Z</time></trkpt><trkpt lat="45.83027298335056" lon="12.091236033283474"><ele>128.0</ele><time>2026-03-23T09:18:19.999Z</time></trkpt><trkpt lat="45.83033877542113" lon="12.091558755794818"><ele>129.5</ele><time>2026-03-23T09:18:20.999Z</time></trkpt><trkpt lat="45.83042182966965" lon="12.09188053312598"><ele>131.0</ele><time>2026-03-23T09:18:21.999Z</time></trkpt><trkpt lat="45.830501680990196" lon="12.09217060393177"><ele>132.0</ele><time>2026-03-23T09:18:22.999Z</time></trkpt><trkpt lat="45.83057344819418" lon="12.092433133028317"><ele>133.0</ele><time>2026-03-23T09:18:23.999Z</time></trkpt><trkpt lat="45.83063482369938" lon="12.092685515926172"><ele>134.0</ele><time>2026-03-23T09:18:24.999Z</time></trkpt><trkpt lat="45.830684420004424" lon="12.092931851084813"><ele>134.0</ele><time>2026-03-23T09:18:25.999Z</time></trkpt><trkpt lat="45.830719536395854" lon="12.0931665939417"><ele>134.0</ele><time>2026-03-23T09:18:26.999Z</time></trkpt><trkpt lat="45.83074874430276" lon="12.09344782827587"><ele>134.0</ele><time>2026-03-23T09:18:27.999Z</time></trkpt><trkpt lat="45.83077440656364" lon="12.093684723801296"><ele>134.66666666666666</ele><time>2026-03-23T09:18:28.999Z</time></trkpt><trkpt lat="45.83079963932544" lon="12.093936481261638"><ele>135.33333333333334</ele><time>2026-03-23T09:18:29.999Z</time></trkpt><trkpt lat="45.83082922547654" lon="12.094209884107403"><ele>136.0</ele><time>2026-03-23T09:18:30.999Z</time></trkpt><trkpt lat="45.83085983284707" lon="12.094510598784817"><ele>138.33333333333334</ele><time>2026-03-23T09:18:31.999Z</time></trkpt><trkpt lat="45.83088862981547" lon="12.094824790150067"><ele>140.66666666666666</ele><time>2026-03-23T09:18:32.998Z</time></trkpt><trkpt lat="45.83092005333874" lon="12.095132066015154"><ele>143.0</ele><time>2026-03-23T09:18:33.998Z</time></trkpt><trkpt lat="45.830952777316675" lon="12.095425984082544"><ele>138.0</ele><time>2026-03-23T09:18:34.998Z</time></trkpt><trkpt lat="45.83098392430809" lon="12.095708006056197"><ele>133.0</ele><time>2026-03-23T09:18:35.998Z</time></trkpt><trkpt lat="45.83100903554327" lon="12.095986191343792"><ele>128.0</ele><time>2026-03-23T09:18:36.998Z</time></trkpt><trkpt lat="45.83103493895156" lon="12.096256243355837"><ele>128.0</ele><time>2026-03-23T09:18:37.998Z</time></trkpt><trkpt lat="45.831065271086686" lon="12.096519560616558"><ele>128.0</ele><time>2026-03-23T09:18:38.998Z</time></trkpt><trkpt lat="45.83109201786913" lon="12.096782590204734"><ele>128.0</ele><time>2026-03-23T09:18:39.998Z</time></trkpt><trkpt lat="45.83112157608087" lon="12.097064001995134"><ele>129.66666666666666</ele><time>2026-03-23T09:18:40.998Z</time></trkpt><trkpt lat="45.83116666877008" lon="12.09735920138555"><ele>131.33333333333334</ele><time>2026-03-23T09:18:41.998Z</time></trkpt><trkpt lat="45.83122723034383" lon="12.097657049354009"><ele>133.0</ele><time>2026-03-23T09:18:42.998Z</time></trkpt><trkpt lat="45.83129343510181" lon="12.097944720433444"><ele>135.33333333333334</ele><time>2026-03-23T09:18:43.998Z</time></trkpt><trkpt lat="45.83135932549827" lon="12.098200077133772"><ele>137.66666666666666</ele><time>2026-03-23T09:18:44.998Z</time></trkpt><trkpt lat="45.83141803163902" lon="12.09843284538238"><ele>140.0</ele><time>2026-03-23T09:18:45.999Z</time></trkpt><trkpt lat="45.8314619640206" lon="12.098669822006535"><ele>143.0</ele><time>2026-03-23T09:18:46.999Z</time></trkpt><trkpt lat="45.8314898358379" lon="12.09892526801261"><ele>146.0</ele><time>2026-03-23T09:18:47.999Z</time></trkpt><trkpt lat="45.831501108581044" lon="12.09919844298322"><ele>149.0</ele><time>2026-03-23T09:18:48.999Z</time></trkpt><trkpt lat="45.831483488200284" lon="12.09946614252765"><ele>150.0</ele><time>2026-03-23T09:18:49.999Z</time></trkpt><trkpt lat="45.83145216747816" lon="12.099702874355012"><ele>151.0</ele><time>2026-03-23T09:18:50.999Z</time></trkpt><trkpt lat="45.831433370398784" lon="12.099923564258694"><ele>152.0</ele><time>2026-03-23T09:18:52Z</time></trkpt><trkpt lat="45.831441383367974" lon="12.100145223219798"><ele>152.0</ele><time>2026-03-23T09:18:53Z</time></trkpt><trkpt lat="45.831478231214405" lon="12.100411333139784"><ele>152.0</ele><time>2026-03-23T09:18:54Z</time></trkpt><trkpt lat="45.83153291885226" lon="12.100709784561325"><ele>152.0</ele><time>2026-03-23T09:18:55Z</time></trkpt><trkpt lat="45.831607837137746" lon="12.101048490666459"><ele>152.5</ele><time>2026-03-23T09:18:56Z</time></trkpt><trkpt lat="45.831699427518714" lon="12.101423138379166"><ele>153.0</ele><time>2026-03-23T09:18:57Z</time></trkpt><trkpt lat="45.831795775526544" lon="12.101826767534376"><ele>148.0</ele><time>2026-03-23T09:18:58Z</time></trkpt><trkpt lat="45.83189251514528" lon="12.102244666661916"><ele>143.0</ele><time>2026-03-23T09:18:59Z</time></trkpt><trkpt lat="45.8319874897523" lon="12.102635810703257"><ele>142.5</ele><time>2026-03-23T09:19:00Z</time></trkpt><trkpt lat="45.832079238949746" lon="12.103037090234936"><ele>142.0</ele><time>2026-03-23T09:19:01Z</time></trkpt><trkpt lat="45.832169258612424" lon="12.103467414278507"><ele>142.0</ele><time>2026-03-23T09:19:02Z</time></trkpt><trkpt lat="45.83226411714554" lon="12.103900939607733"><ele>142.0</ele><time>2026-03-23T09:19:03Z</time></trkpt><trkpt lat="45.832351475251485" lon="12.10429289257145"><ele>142.0</ele><time>2026-03-23T09:19:04Z</time></trkpt><trkpt lat="45.832431697043766" lon="12.104648022879093"><ele>142.0</ele><time>2026-03-23T09:19:05Z</time></trkpt><trkpt lat="45.83250526816722" lon="12.104966338840626"><ele>142.0</ele><time>2026-03-23T09:19:06Z</time></trkpt><trkpt lat="45.832578836868876" lon="12.105264745192407"><ele>142.0</ele><time>2026-03-23T09:19:07Z</time></trkpt><trkpt lat="45.8326334693233" lon="12.105557701987728"><ele>142.0</ele><time>2026-03-23T09:19:08Z</time></trkpt><trkpt lat="45.832683008544734" lon="12.105852344771385"><ele>140.0</ele><time>2026-03-23T09:19:09Z</time></trkpt><trkpt lat="45.83272467548773" lon="12.10619272735799"><ele>138.0</ele><time>2026-03-23T09:19:10Z</time></trkpt><trkpt lat="45.83277949841838" lon="12.106577065088453"><ele>138.5</ele><time>2026-03-23T09:19:11Z</time></trkpt><trkpt lat="45.8328228694749" lon="12.106996097838167"><ele>139.0</ele><time>2026-03-23T09:19:12Z</time></trkpt><trkpt lat="45.83287929896492" lon="12.107447012504515"><ele>138.0</ele><time>2026-03-23T09:19:13Z</time></trkpt><trkpt lat="45.83291670530844" lon="12.107916396400688"><ele>137.0</ele><time>2026-03-23T09:19:13.999Z</time></trkpt><trkpt lat="45.83298320127662" lon="12.10836990191652"><ele>137.0</ele><time>2026-03-23T09:19:14.999Z</time></trkpt><trkpt lat="45.833027576701475" lon="12.108788067181747"><ele>137.0</ele><time>2026-03-23T09:19:15.999Z</time></trkpt><trkpt lat="45.833072433441544" lon="12.109162659169257"><ele>137.0</ele><time>2026-03-23T09:19:16.999Z</time></trkpt><trkpt lat="45.83311223169393" lon="12.109512932228942"><ele>137.0</ele><time>2026-03-23T09:19:17.999Z</time></trkpt><trkpt lat="45.83314872704879" lon="12.109842571753315"><ele>136.66666666666666</ele><time>2026-03-23T09:19:18.999Z</time></trkpt><trkpt lat="45.833184466849744" lon="12.110155235100859"><ele>136.33333333333334</ele><time>2026-03-23T09:19:19.999Z</time></trkpt><trkpt lat="45.8332187114041" lon="12.110450687140283"><ele>136.0</ele><time>2026-03-23T09:19:20.999Z</time></trkpt><trkpt lat="45.83324376837116" lon="12.11072778164989"><ele>136.33333333333334</ele><time>2026-03-23T09:19:21.999Z</time></trkpt><trkpt lat="45.83329547846337" lon="12.111009590379204"><ele>136.66666666666666</ele><time>2026-03-23T09:19:22.999Z</time></trkpt><trkpt lat="45.83337448559864" lon="12.111312595715216"><ele>137.0</ele><time>2026-03-23T09:19:23.999Z</time></trkpt><trkpt lat="45.83346228446836" lon="12.111625546338354"><ele>134.5</ele><time>2026-03-23T09:19:24.999Z</time></trkpt><trkpt lat="45.83355354666139" lon="12.111942255146591"><ele>132.0</ele><time>2026-03-23T09:19:25.999Z</time></trkpt><trkpt lat="45.833649875551785" lon="12.112261085745443"><ele>132.5</ele><time>2026-03-23T09:19:26.999Z</time></trkpt><trkpt lat="45.83374647145486" lon="12.112593990980573"><ele>133.0</ele><time>2026-03-23T09:19:27.999Z</time></trkpt><trkpt lat="45.83384278752275" lon="12.11295163892635"><ele>133.5</ele><time>2026-03-23T09:19:28.999Z</time></trkpt><trkpt lat="45.83394176953205" lon="12.113325828050398"><ele>134.0</ele><time>2026-03-23T09:19:29.999Z</time></trkpt><trkpt lat="45.83404573810909" lon="12.113705435533216"><ele>134.5</ele><time>2026-03-23T09:19:30.999Z</time></trkpt><trkpt lat="45.83415143739388" lon="12.114089798696883"><ele>135.0</ele><time>2026-03-23T09:19:31.999Z</time></trkpt><trkpt lat="45.83425948133912" lon="12.114481136094916"><ele>134.5</ele><time>2026-03-23T09:19:32.999Z</time></trkpt><trkpt lat="45.83436767229609" lon="12.114868247336254"><ele>134.0</ele><time>2026-03-23T09:19:33.999Z</time></trkpt><trkpt lat="45.834472090495204" lon="12.115249826749821"><ele>134.0</ele><time>2026-03-23T09:19:34.999Z</time></trkpt><trkpt lat="45.83457278322182" lon="12.115618789523634"><ele>134.0</ele><time>2026-03-23T09:19:35.999Z</time></trkpt><trkpt lat="45.83466665720609" lon="12.115982501793322"><ele>135.0</ele><time>2026-03-23T09:19:36.999Z</time></trkpt><trkpt lat="45.834770133207634" lon="12.116351569185376"><ele>136.0</ele><time>2026-03-23T09:19:37.999Z</time></trkpt><trkpt lat="45.83487835205421" lon="12.11673149485084"><ele>136.0</ele><time>2026-03-23T09:19:38.999Z</time></trkpt><trkpt lat="45.83498504444549" lon="12.117122581054156"><ele>136.0</ele><time>2026-03-23T09:19:39.999Z</time></trkpt><trkpt lat="45.83508021633003" lon="12.117474341785396"><ele>135.0</ele><time>2026-03-23T09:19:40.999Z</time></trkpt><trkpt lat="45.83516463698944" lon="12.117789255570797"><ele>134.0</ele><time>2026-03-23T09:19:41.999Z</time></trkpt><trkpt lat="45.835241028774256" lon="12.118077563985127"><ele>134.0</ele><time>2026-03-23T09:19:42.999Z</time></trkpt><trkpt lat="45.83531408790336" lon="12.118359208585288"><ele>134.0</ele><time>2026-03-23T09:19:43.999Z</time></trkpt><trkpt lat="45.83535703113331" lon="12.118682216415953"><ele>134.0</ele><time>2026-03-23T09:19:44.999Z</time></trkpt><trkpt lat="45.835418253111946" lon="12.119021001039124"><ele>133.66666666666666</ele><time>2026-03-23T09:19:45.999Z</time></trkpt><trkpt lat="45.83545679486855" lon="12.11935332250752"><ele>133.33333333333334</ele><time>2026-03-23T09:19:46.999Z</time></trkpt><trkpt lat="45.83549616166821" lon="12.119641732879142"><ele>133.0</ele><time>2026-03-23T09:19:47.999Z</time></trkpt><trkpt lat="45.83555035664845" lon="12.119887147049246"><ele>133.33333333333334</ele><time>2026-03-23T09:19:48.999Z</time></trkpt><trkpt lat="45.83563914507158" lon="12.12012530913365"><ele>133.66666666666666</ele><time>2026-03-23T09:19:49.999Z</time></trkpt><trkpt lat="45.83576137100587" lon="12.1203848274276"><ele>134.0</ele><time>2026-03-23T09:19:50.999Z</time></trkpt><trkpt lat="45.835909527669976" lon="12.120670399540192"><ele>132.5</ele><time>2026-03-23T09:19:51.999Z</time></trkpt><trkpt lat="45.836064529105904" lon="12.120961913625647"><ele>131.0</ele><time>2026-03-23T09:19:52.999Z</time></trkpt><trkpt lat="45.83619351986423" lon="12.121237466457044"><ele>131.0</ele><time>2026-03-23T09:19:53.999Z</time></trkpt><trkpt lat="45.83630948677833" lon="12.12149032948279"><ele>131.0</ele><time>2026-03-23T09:19:54.999Z</time></trkpt><trkpt lat="45.83642502243895" lon="12.121717365722061"><ele>131.0</ele><time>2026-03-23T09:19:55.999Z</time></trkpt><trkpt lat="45.836534937390525" lon="12.121950995055487"><ele>132.0</ele><time>2026-03-23T09:19:56.999Z</time></trkpt><trkpt lat="45.836636906182854" lon="12.122239209516023"><ele>133.0</ele><time>2026-03-23T09:19:57.999Z</time></trkpt><trkpt lat="45.8367385051584" lon="12.122568097147079"><ele>131.0</ele><time>2026-03-23T09:19:58.999Z</time></trkpt><trkpt lat="45.83685120706976" lon="12.122918544462983"><ele>129.0</ele><time>2026-03-23T09:19:59.999Z</time></trkpt><trkpt lat="45.83696589016178" lon="12.123271287127466"><ele>129.0</ele><time>2026-03-23T09:20:00.999Z</time></trkpt><trkpt lat="45.83708114041634" lon="12.12362782969165"><ele>129.0</ele><time>2026-03-23T09:20:01.999Z</time></trkpt><trkpt lat="45.83720497143144" lon="12.123995335190589"><ele>131.5</ele><time>2026-03-23T09:20:02.999Z</time></trkpt><trkpt lat="45.83733015213798" lon="12.124373736525145"><ele>134.0</ele><time>2026-03-23T09:20:03.999Z</time></trkpt><trkpt lat="45.837454428902504" lon="12.124745647399651"><ele>137.0</ele><time>2026-03-23T09:20:04.999Z</time></trkpt><trkpt lat="45.83758601068835" lon="12.125098263883705"><ele>140.0</ele><time>2026-03-23T09:20:05.999Z</time></trkpt><trkpt lat="45.83773599143389" lon="12.125448641457364"><ele>135.0</ele><time>2026-03-23T09:20:06.999Z</time></trkpt><trkpt lat="45.83790832614692" lon="12.125803266196232"><ele>130.0</ele><time>2026-03-23T09:20:07.999Z</time></trkpt><trkpt lat="45.83808305861887" lon="12.126160348083872"><ele>130.0</ele><time>2026-03-23T09:20:08.999Z</time></trkpt><trkpt lat="45.83824347361401" lon="12.126507793148477"><ele>130.0</ele><time>2026-03-23T09:20:09.999Z</time></trkpt><trkpt lat="45.83839160416847" lon="12.126825934864629"><ele>129.0</ele><time>2026-03-23T09:20:10.999Z</time></trkpt><trkpt lat="45.838532195797754" lon="12.127123364634691"><ele>128.0</ele><time>2026-03-23T09:20:11.999Z</time></trkpt><trkpt lat="45.83866806517899" lon="12.127437783617333"><ele>128.0</ele><time>2026-03-23T09:20:12.999Z</time></trkpt><trkpt lat="45.83879838290473" lon="12.127777218256371"><ele>128.0</ele><time>2026-03-23T09:20:13.999Z</time></trkpt><trkpt lat="45.83892819871606" lon="12.128141102354943"><ele>128.0</ele><time>2026-03-23T09:20:14.999Z</time></trkpt><trkpt lat="45.83904895942798" lon="12.128524063467548"><ele>128.0</ele><time>2026-03-23T09:20:15.999Z</time></trkpt><trkpt lat="45.83917399406199" lon="12.128920511980741"><ele>122.0</ele><time>2026-03-23T09:20:16.999Z</time></trkpt><trkpt lat="45.83930363714388" lon="12.129299702443674"><ele>116.0</ele><time>2026-03-23T09:20:17.999Z</time></trkpt><trkpt lat="45.839420783543325" lon="12.12964042388617"><ele>120.0</ele><time>2026-03-23T09:20:18.999Z</time></trkpt><trkpt lat="45.83952254582345" lon="12.129949515320984"><ele>124.0</ele><time>2026-03-23T09:20:19.999Z</time></trkpt><trkpt lat="45.839618279397605" lon="12.130240140161234"><ele>124.0</ele><time>2026-03-23T09:20:20.999Z</time></trkpt><trkpt lat="45.83970358962221" lon="12.130502342568267"><ele>124.0</ele><time>2026-03-23T09:20:21.999Z</time></trkpt><trkpt lat="45.83978262274255" lon="12.130748481285952"><ele>124.0</ele><time>2026-03-23T09:20:22.999Z</time></trkpt><trkpt lat="45.83986624138861" lon="12.130975236141621"><ele>126.0</ele><time>2026-03-23T09:20:23.999Z</time></trkpt><trkpt lat="45.83993993479634" lon="12.131208338620793"><ele>128.0</ele><time>2026-03-23T09:20:24.999Z</time></trkpt><trkpt lat="45.84000209096354" lon="12.131469984298787"><ele>130.0</ele><time>2026-03-23T09:20:25.999Z</time></trkpt><trkpt lat="45.84006844950013" lon="12.131785934217342"><ele>132.0</ele><time>2026-03-23T09:20:26.999Z</time></trkpt><trkpt lat="45.8401318893785" lon="12.132144353370983"><ele>134.0</ele><time>2026-03-23T09:20:27.999Z</time></trkpt><trkpt lat="45.84020001910183" lon="12.132505836692816"><ele>131.0</ele><time>2026-03-23T09:20:28.999Z</time></trkpt><trkpt lat="45.84026553667233" lon="12.132877821135578"><ele>128.0</ele><time>2026-03-23T09:20:29.999Z</time></trkpt><trkpt lat="45.84022827785251" lon="12.132976469289016"><ele>125.0</ele><time>2026-03-23T09:20:30.999Z</time></trkpt><trkpt lat="45.84027080669595" lon="12.13322435502388"><ele>125.0</ele><time>2026-03-23T09:20:31.999Z</time></trkpt><trkpt lat="45.840317855107955" lon="12.133453024778104"><ele>125.0</ele><time>2026-03-23T09:20:32.999Z</time></trkpt><trkpt lat="45.84037779128152" lon="12.133698831407752"><ele>125.0</ele><time>2026-03-23T09:20:33.999Z</time></trkpt><trkpt lat="45.840463866199485" lon="12.133955129280176"><ele>127.0</ele><time>2026-03-23T09:20:34.998Z</time></trkpt><trkpt lat="45.84055917084847" lon="12.134200725946705"><ele>129.0</ele><time>2026-03-23T09:20:35.998Z</time></trkpt><trkpt lat="45.840658375558775" lon="12.134423212951226"><ele>131.0</ele><time>2026-03-23T09:20:36.998Z</time></trkpt><trkpt lat="45.84075134312803" lon="12.134624887522222"><ele>131.0</ele><time>2026-03-23T09:20:37.998Z</time></trkpt><trkpt lat="45.84083900965262" lon="12.13481456113076"><ele>131.0</ele><time>2026-03-23T09:20:38.998Z</time></trkpt><trkpt lat="45.840929906230066" lon="12.135006146110305"><ele>131.0</ele><time>2026-03-23T09:20:39.998Z</time></trkpt><trkpt lat="45.84103210435785" lon="12.135194520471998"><ele>132.33333333333331</ele><time>2026-03-23T09:20:40.998Z</time></trkpt><trkpt lat="45.84115098004798" lon="12.135387678370472"><ele>133.66666666666666</ele><time>2026-03-23T09:20:41.998Z</time></trkpt><trkpt lat="45.84128380871909" lon="12.135585145684177"><ele>135.0</ele><time>2026-03-23T09:20:42.998Z</time></trkpt><trkpt lat="45.84144263974598" lon="12.135782781601465"><ele>135.0</ele><time>2026-03-23T09:20:43.998Z</time></trkpt><trkpt lat="45.84160153507656" lon="12.135978436031596"><ele>135.0</ele><time>2026-03-23T09:20:44.998Z</time></trkpt><trkpt lat="45.84175061986358" lon="12.136154279174052"><ele>135.0</ele><time>2026-03-23T09:20:45.998Z</time></trkpt><trkpt lat="45.841892744662296" lon="12.136314731377723"><ele>132.33333333333334</ele><time>2026-03-23T09:20:46.998Z</time></trkpt><trkpt lat="45.842017614287464" lon="12.136477908541695"><ele>129.66666666666669</ele><time>2026-03-23T09:20:47.998Z</time></trkpt><trkpt lat="45.842126088515535" lon="12.136658011609764"><ele>127.0</ele><time>2026-03-23T09:20:48.998Z</time></trkpt><trkpt lat="45.84222823851976" lon="12.136856835246135"><ele>127.0</ele><time>2026-03-23T09:20:49.998Z</time></trkpt><trkpt lat="45.84232678186433" lon="12.137104400728767"><ele>127.0</ele><time>2026-03-23T09:20:50.998Z</time></trkpt><trkpt lat="45.842406983131276" lon="12.137338263694824"><ele>127.0</ele><time>2026-03-23T09:20:51.999Z</time></trkpt><trkpt lat="45.8424715385408" lon="12.137545100638933"><ele>128.0</ele><time>2026-03-23T09:20:52.999Z</time></trkpt><trkpt lat="45.84254082737841" lon="12.137727331492401"><ele>129.0</ele><time>2026-03-23T09:20:53.999Z</time></trkpt><trkpt lat="45.84259952381483" lon="12.13790205580166"><ele>130.0</ele><time>2026-03-23T09:20:54.999Z</time></trkpt><trkpt lat="45.84265047685799" lon="12.138066420813091"><ele>131.0</ele><time>2026-03-23T09:20:55.999Z</time></trkpt><trkpt lat="45.842706882419726" lon="12.138207516757678"><ele>131.2</ele><time>2026-03-23T09:20:56.999Z</time></trkpt><trkpt lat="45.842749003301215" lon="12.138316153720025"><ele>131.39999999999998</ele><time>2026-03-23T09:20:57.999Z</time></trkpt><trkpt lat="45.84277363663057" lon="12.13848416144627"><ele>131.6</ele><time>2026-03-23T09:20:59.999Z</time></trkpt><trkpt lat="45.84274503895612" lon="12.138570597219513"><ele>131.79999999999998</ele><time>2026-03-23T09:21:00.999Z</time></trkpt><trkpt lat="45.842685850029135" lon="12.138654604158353"><ele>132.0</ele><time>2026-03-23T09:21:02Z</time></trkpt><trkpt lat="45.84259188365909" lon="12.138731599338898"><ele>132.0</ele><time>2026-03-23T09:21:02.999Z</time></trkpt><trkpt lat="45.84246896835756" lon="12.138788855036715"><ele>132.0</ele><time>2026-03-23T09:21:04Z</time></trkpt><trkpt lat="45.84232455103893" lon="12.138832755337813"><ele>132.0</ele><time>2026-03-23T09:21:05Z</time></trkpt><trkpt lat="45.84215555923161" lon="12.138883005919016"><ele>132.0</ele><time>2026-03-23T09:21:06Z</time></trkpt><trkpt lat="45.84198497530541" lon="12.138955716910584"><ele>132.0</ele><time>2026-03-23T09:21:07Z</time></trkpt><trkpt lat="45.841836994198914" lon="12.139035167822524"><ele>132.0</ele><time>2026-03-23T09:21:08Z</time></trkpt><trkpt lat="45.841707610250694" lon="12.139066184217947"><ele>132.0</ele><time>2026-03-23T09:21:09Z</time></trkpt><trkpt lat="45.84157751842063" lon="12.139069632590964"><ele>132.0</ele><time>2026-03-23T09:21:10Z</time></trkpt><trkpt lat="45.84143503783867" lon="12.139070300597051"><ele>133.66666666666666</ele><time>2026-03-23T09:21:11Z</time></trkpt><trkpt lat="45.841264500618024" lon="12.139060807525851"><ele>135.33333333333331</ele><time>2026-03-23T09:21:12Z</time></trkpt><trkpt lat="45.84106181362263" lon="12.139056263619956"><ele>137.0</ele><time>2026-03-23T09:21:13Z</time></trkpt><trkpt lat="45.840851548080394" lon="12.139032323278965"><ele>137.66666666666666</ele><time>2026-03-23T09:21:14Z</time></trkpt><trkpt lat="45.84065469242749" lon="12.13900079179677"><ele>138.33333333333334</ele><time>2026-03-23T09:21:14.999Z</time></trkpt><trkpt lat="45.84045811599557" lon="12.138986863485957"><ele>139.0</ele><time>2026-03-23T09:21:15.999Z</time></trkpt><trkpt lat="45.840266397672664" lon="12.138971445276582"><ele>139.0</ele><time>2026-03-23T09:21:16.999Z</time></trkpt><trkpt lat="45.84009250283845" lon="12.13896657781162"><ele>139.0</ele><time>2026-03-23T09:21:17.999Z</time></trkpt><trkpt lat="45.83993265888251" lon="12.139002628819059"><ele>139.0</ele><time>2026-03-23T09:21:18.999Z</time></trkpt><trkpt lat="45.83976824788525" lon="12.13909761224116"><ele>139.0</ele><time>2026-03-23T09:21:19.999Z</time></trkpt><trkpt lat="45.839597067422694" lon="12.139254857737901"><ele>139.0</ele><time>2026-03-23T09:21:20.999Z</time></trkpt><trkpt lat="45.839437003035634" lon="12.13946079843592"><ele>139.0</ele><time>2026-03-23T09:21:21.999Z</time></trkpt><trkpt lat="45.839270541545766" lon="12.13968662064375"><ele>142.0</ele><time>2026-03-23T09:21:22.999Z</time></trkpt><trkpt lat="45.83911879741706" lon="12.139857211390847"><ele>145.0</ele><time>2026-03-23T09:21:23.999Z</time></trkpt><trkpt lat="45.83895182314467" lon="12.139933023867703"><ele>148.0</ele><time>2026-03-23T09:21:24.999Z</time></trkpt><trkpt lat="45.83880687247573" lon="12.14000559137413"><ele>148.0</ele><time>2026-03-23T09:21:25.999Z</time></trkpt><trkpt lat="45.83864017061456" lon="12.140052406332826"><ele>148.0</ele><time>2026-03-23T09:21:26.999Z</time></trkpt><trkpt lat="45.83843792326324" lon="12.14006266299827"><ele>148.0</ele><time>2026-03-23T09:21:27.999Z</time></trkpt><trkpt lat="45.83821040001324" lon="12.140058765082085"><ele>152.5</ele><time>2026-03-23T09:21:28.999Z</time></trkpt><trkpt lat="45.837962529616554" lon="12.140074015550141"><ele>157.0</ele><time>2026-03-23T09:21:29.999Z</time></trkpt><trkpt lat="45.83771401738767" lon="12.140079420799342"><ele>161.5</ele><time>2026-03-23T09:21:30.999Z</time></trkpt><trkpt lat="45.83747815767798" lon="12.140110057837278"><ele>166.0</ele><time>2026-03-23T09:21:31.999Z</time></trkpt><trkpt lat="45.837227590768656" lon="12.140169314950793"><ele>166.0</ele><time>2026-03-23T09:21:32.999Z</time></trkpt><trkpt lat="45.83695723737536" lon="12.14022330319963"><ele>166.0</ele><time>2026-03-23T09:21:33.999Z</time></trkpt><trkpt lat="45.83672375944808" lon="12.140314269022742"><ele>167.66666666666669</ele><time>2026-03-23T09:21:34.999Z</time></trkpt><trkpt lat="45.83650777244832" lon="12.140370372526412"><ele>169.33333333333334</ele><time>2026-03-23T09:21:35.999Z</time></trkpt><trkpt lat="45.83628516449546" lon="12.140433015957093"><ele>171.0</ele><time>2026-03-23T09:21:36.999Z</time></trkpt><trkpt lat="45.836056942903454" lon="12.140503527993221"><ele>169.0</ele><time>2026-03-23T09:21:37.999Z</time></trkpt><trkpt lat="45.83587111080168" lon="12.14055307818703"><ele>167.0</ele><time>2026-03-23T09:21:38.999Z</time></trkpt><trkpt lat="45.83573405639256" lon="12.140551128915199"><ele>165.0</ele><time>2026-03-23T09:21:39.999Z</time></trkpt><trkpt lat="45.8355903988716" lon="12.140539040726106"><ele>165.0</ele><time>2026-03-23T09:21:40.999Z</time></trkpt><trkpt lat="45.835404508139455" lon="12.140485764115159"><ele>165.0</ele><time>2026-03-23T09:21:41.999Z</time></trkpt><trkpt lat="45.83520188906268" lon="12.140394696005687"><ele>165.0</ele><time>2026-03-23T09:21:42.999Z</time></trkpt><trkpt lat="45.83500614613075" lon="12.140308003698253"><ele>165.33333333333334</ele><time>2026-03-23T09:21:43.999Z</time></trkpt><trkpt lat="45.8348263469733" lon="12.140249987512133"><ele>165.66666666666669</ele><time>2026-03-23T09:21:44.999Z</time></trkpt><trkpt lat="45.834669165325465" lon="12.140169126076763"><ele>166.0</ele><time>2026-03-23T09:21:45.999Z</time></trkpt><trkpt lat="45.83451682225352" lon="12.140118846071095"><ele>166.0</ele><time>2026-03-23T09:21:46.999Z</time></trkpt><trkpt lat="45.83435457442281" lon="12.14010406162449"><ele>166.0</ele><time>2026-03-23T09:21:47.999Z</time></trkpt><trkpt lat="45.83419243902117" lon="12.1401181939934"><ele>166.0</ele><time>2026-03-23T09:21:48.999Z</time></trkpt><trkpt lat="45.83403441161311" lon="12.140186842298515"><ele>167.33333333333334</ele><time>2026-03-23T09:21:49.999Z</time></trkpt><trkpt lat="45.833850197288925" lon="12.14027182865712"><ele>168.66666666666666</ele><time>2026-03-23T09:21:50.999Z</time></trkpt><trkpt lat="45.833648233067976" lon="12.140357933517082"><ele>170.0</ele><time>2026-03-23T09:21:51.999Z</time></trkpt><trkpt lat="45.83345052252733" lon="12.140452156818338"><ele>173.0</ele><time>2026-03-23T09:21:52.999Z</time></trkpt><trkpt lat="45.833270717411004" lon="12.140535980768446"><ele>176.0</ele><time>2026-03-23T09:21:53.999Z</time></trkpt><trkpt lat="45.83311021764809" lon="12.140592747976706"><ele>179.0</ele><time>2026-03-23T09:21:54.999Z</time></trkpt><trkpt lat="45.83296977812626" lon="12.140675944421723"><ele>179.5</ele><time>2026-03-23T09:21:55.999Z</time></trkpt><trkpt lat="45.83283828751579" lon="12.140728977862594"><ele>180.0</ele><time>2026-03-23T09:21:56.999Z</time></trkpt><trkpt lat="45.83272298896766" lon="12.140782452554586"><ele>180.5</ele><time>2026-03-23T09:21:57.999Z</time></trkpt><trkpt lat="45.83261979365964" lon="12.140821362994917"><ele>181.0</ele><time>2026-03-23T09:21:58.999Z</time></trkpt><trkpt lat="45.832530200991826" lon="12.140824976737408"><ele>181.0</ele><time>2026-03-23T09:21:59.999Z</time></trkpt><trkpt lat="45.83245326254233" lon="12.14082022645068"><ele>181.0</ele><time>2026-03-23T09:22:00.999Z</time></trkpt><trkpt lat="45.8323830960352" lon="12.140793466501004"><ele>181.0</ele><time>2026-03-23T09:22:01.999Z</time></trkpt><trkpt lat="45.8323353933398" lon="12.140667135555079"><ele>181.0</ele><time>2026-03-23T09:22:02.999Z</time></trkpt><trkpt lat="45.832260223928365" lon="12.140595569717355"><ele>181.0</ele><time>2026-03-23T09:22:03.999Z</time></trkpt><trkpt lat="45.83218375132353" lon="12.140525418433917"><ele>181.0</ele><time>2026-03-23T09:22:04.999Z</time></trkpt><trkpt lat="45.832077442249016" lon="12.140510330564473"><ele>181.5</ele><time>2026-03-23T09:22:05.999Z</time></trkpt><trkpt lat="45.83195159433121" lon="12.140525422992633"><ele>182.0</ele><time>2026-03-23T09:22:06.999Z</time></trkpt><trkpt lat="45.83181248867584" lon="12.140517258547574"><ele>182.5</ele><time>2026-03-23T09:22:07.999Z</time></trkpt><trkpt lat="45.83169507594066" lon="12.14043773021312"><ele>183.0</ele><time>2026-03-23T09:22:08.999Z</time></trkpt><trkpt lat="45.83158240511244" lon="12.140354362387809"><ele>184.0</ele><time>2026-03-23T09:22:09.999Z</time></trkpt><trkpt lat="45.83146630263434" lon="12.140262235304519"><ele>185.0</ele><time>2026-03-23T09:22:10.999Z</time></trkpt><trkpt lat="45.83134544428379" lon="12.140191342507375"><ele>186.0</ele><time>2026-03-23T09:22:11.999Z</time></trkpt><trkpt lat="45.83124042587829" lon="12.140101773121568"><ele>187.0</ele><time>2026-03-23T09:22:12.999Z</time></trkpt><trkpt lat="45.83111776626503" lon="12.14003999802558"><ele>187.0</ele><time>2026-03-23T09:22:13.999Z</time></trkpt><trkpt lat="45.83097920563642" lon="12.140020070280249"><ele>187.0</ele><time>2026-03-23T09:22:14.999Z</time></trkpt><trkpt lat="45.83085179655017" lon="12.14001095016091"><ele>187.0</ele><time>2026-03-23T09:22:15.999Z</time></trkpt><trkpt lat="45.830743905243054" lon="12.139989545264793"><ele>187.0</ele><time>2026-03-23T09:22:16.999Z</time></trkpt><trkpt lat="45.83064884426132" lon="12.13997028118396"><ele>187.0</ele><time>2026-03-23T09:22:17.999Z</time></trkpt><trkpt lat="45.83054698826115" lon="12.139954052139373"><ele>187.0</ele><time>2026-03-23T09:22:18.999Z</time></trkpt><trkpt lat="45.83042768929945" lon="12.1399300064484"><ele>187.0</ele><time>2026-03-23T09:22:19.999Z</time></trkpt><trkpt lat="45.83029109672658" lon="12.139897716187148"><ele>187.0</ele><time>2026-03-23T09:22:20.999Z</time></trkpt><trkpt lat="45.83015326519696" lon="12.139873045976897"><ele>188.25</ele><time>2026-03-23T09:22:21.999Z</time></trkpt><trkpt lat="45.830031446577614" lon="12.139784469192"><ele>189.5</ele><time>2026-03-23T09:22:22.999Z</time></trkpt><trkpt lat="45.82990937340172" lon="12.1397224785377"><ele>190.75</ele><time>2026-03-23T09:22:23.999Z</time></trkpt><trkpt lat="45.829800521729595" lon="12.139650553380784"><ele>192.0</ele><time>2026-03-23T09:22:24.999Z</time></trkpt><trkpt lat="45.82972104966976" lon="12.139539673629208"><ele>192.0</ele><time>2026-03-23T09:22:25.999Z</time></trkpt><trkpt lat="45.82964202793288" lon="12.139441227075444"><ele>192.0</ele><time>2026-03-23T09:22:26.999Z</time></trkpt><trkpt lat="45.82955815382298" lon="12.139351101923415"><ele>192.0</ele><time>2026-03-23T09:22:27.999Z</time></trkpt><trkpt lat="45.82948898287945" lon="12.139245801578065"><ele>192.0</ele><time>2026-03-23T09:22:28.999Z</time></trkpt><trkpt lat="45.829394157225835" lon="12.139190379580842"><ele>192.0</ele><time>2026-03-23T09:22:29.999Z</time></trkpt><trkpt lat="45.82928960130728" lon="12.139189787398196"><ele>192.0</ele><time>2026-03-23T09:22:30.999Z</time></trkpt><trkpt lat="45.829186294870894" lon="12.139228289736215"><ele>192.0</ele><time>2026-03-23T09:22:31.999Z</time></trkpt><trkpt lat="45.82909116508111" lon="12.139303277488542"><ele>192.0</ele><time>2026-03-23T09:22:32.999Z</time></trkpt><trkpt lat="45.829009626326965" lon="12.139411100577638"><ele>192.0</ele><time>2026-03-23T09:22:33.999Z</time></trkpt><trkpt lat="45.828938196303554" lon="12.139545146872011"><ele>192.0</ele><time>2026-03-23T09:22:34.999Z</time></trkpt><trkpt lat="45.82888034038138" lon="12.13968400834254"><ele>192.0</ele><time>2026-03-23T09:22:35.999Z</time></trkpt><trkpt lat="45.82880734100114" lon="12.139797186808005"><ele>192.0</ele><time>2026-03-23T09:22:36.999Z</time></trkpt><trkpt lat="45.82871906976666" lon="12.139881743049301"><ele>192.0</ele><time>2026-03-23T09:22:37.999Z</time></trkpt><trkpt lat="45.82860238855386" lon="12.139944009453616"><ele>192.0</ele><time>2026-03-23T09:22:38.999Z</time></trkpt><trkpt lat="45.828485782008606" lon="12.140002990260124"><ele>194.0</ele><time>2026-03-23T09:22:39.999Z</time></trkpt><trkpt lat="45.82837651853574" lon="12.140075511819118"><ele>196.0</ele><time>2026-03-23T09:22:40.999Z</time></trkpt><trkpt lat="45.82826257281942" lon="12.140141663781199"><ele>198.0</ele><time>2026-03-23T09:22:41.999Z</time></trkpt><trkpt lat="45.8281563403724" lon="12.140192910707857"><ele>200.0</ele><time>2026-03-23T09:22:42.998Z</time></trkpt><trkpt lat="45.828058192741054" lon="12.14023280111519"><ele>200.0</ele><time>2026-03-23T09:22:43.998Z</time></trkpt><trkpt lat="45.82794982116754" lon="12.14028186901233"><ele>200.0</ele><time>2026-03-23T09:22:44.998Z</time></trkpt><trkpt lat="45.82781977773233" lon="12.140295901282906"><ele>200.0</ele><time>2026-03-23T09:22:45.998Z</time></trkpt><trkpt lat="45.827667685500806" lon="12.14033388956854"><ele>200.0</ele><time>2026-03-23T09:22:46.998Z</time></trkpt><trkpt lat="45.82750218301035" lon="12.140310148959065"><ele>200.33333333333334</ele><time>2026-03-23T09:22:47.998Z</time></trkpt><trkpt lat="45.82731015711664" lon="12.140314796963898"><ele>200.66666666666669</ele><time>2026-03-23T09:22:48.998Z</time></trkpt><trkpt lat="45.82707642607114" lon="12.14032527439909"><ele>201.0</ele><time>2026-03-23T09:22:49.998Z</time></trkpt><trkpt lat="45.826821371310785" lon="12.140336570404635"><ele>201.66666666666669</ele><time>2026-03-23T09:22:50.998Z</time></trkpt><trkpt lat="45.826593254397224" lon="12.140348968828649"><ele>202.33333333333334</ele><time>2026-03-23T09:22:51.998Z</time></trkpt><trkpt lat="45.82637955410694" lon="12.14037736789784"><ele>203.0</ele><time>2026-03-23T09:22:52.998Z</time></trkpt><trkpt lat="45.82618401510504" lon="12.140371648292037"><ele>203.0</ele><time>2026-03-23T09:22:53.998Z</time></trkpt><trkpt lat="45.82598776443081" lon="12.140401995403549"><ele>203.0</ele><time>2026-03-23T09:22:54.998Z</time></trkpt><trkpt lat="45.82579373234577" lon="12.140485195850662"><ele>203.0</ele><time>2026-03-23T09:22:55.998Z</time></trkpt><trkpt lat="45.82561687535843" lon="12.140578647642164"><ele>203.33333333333334</ele><time>2026-03-23T09:22:56.999Z</time></trkpt><trkpt lat="45.825461182580874" lon="12.140665311965453"><ele>203.66666666666669</ele><time>2026-03-23T09:22:57.999Z</time></trkpt><trkpt lat="45.825309029357335" lon="12.14070108125007"><ele>204.0</ele><time>2026-03-23T09:22:58.999Z</time></trkpt><trkpt lat="45.825115418378815" lon="12.140687541401197"><ele>206.0</ele><time>2026-03-23T09:22:59.999Z</time></trkpt><trkpt lat="45.824882327268064" lon="12.140678326864176"><ele>208.0</ele><time>2026-03-23T09:23:00.999Z</time></trkpt><trkpt lat="45.824635504478614" lon="12.140652449481781"><ele>208.0</ele><time>2026-03-23T09:23:01.999Z</time></trkpt><trkpt lat="45.82443229608129" lon="12.140623557059454"><ele>208.0</ele><time>2026-03-23T09:23:02.999Z</time></trkpt><trkpt lat="45.82424825155569" lon="12.140619486922512"><ele>208.0</ele><time>2026-03-23T09:23:03.999Z</time></trkpt><trkpt lat="45.82407012818197" lon="12.140615369459011"><ele>209.0</ele><time>2026-03-23T09:23:04.999Z</time></trkpt><trkpt lat="45.82391954636596" lon="12.140580312601514"><ele>210.0</ele><time>2026-03-23T09:23:05.999Z</time></trkpt><trkpt lat="45.823772324565866" lon="12.140550969224304"><ele>211.0</ele><time>2026-03-23T09:23:07Z</time></trkpt><trkpt lat="45.82362346305579" lon="12.14049439233535"><ele>211.0</ele><time>2026-03-23T09:23:08Z</time></trkpt><trkpt lat="45.823494012272135" lon="12.140324220068567"><ele>211.0</ele><time>2026-03-23T09:23:09Z</time></trkpt><trkpt lat="45.82337625431941" lon="12.140146694686898"><ele>211.0</ele><time>2026-03-23T09:23:10Z</time></trkpt><trkpt lat="45.823275018420325" lon="12.13998110572784"><ele>212.66666666666666</ele><time>2026-03-23T09:23:11Z</time></trkpt><trkpt lat="45.82315063107925" lon="12.139812361517873"><ele>214.33333333333331</ele><time>2026-03-23T09:23:12Z</time></trkpt><trkpt lat="45.82293978765361" lon="12.139666764597669"><ele>216.0</ele><time>2026-03-23T09:23:13Z</time></trkpt><trkpt lat="45.82270208706845" lon="12.139547392386977"><ele>217.66666666666669</ele><time>2026-03-23T09:23:14Z</time></trkpt><trkpt lat="45.822505362961564" lon="12.139445857463334"><ele>219.33333333333334</ele><time>2026-03-23T09:23:15Z</time></trkpt><trkpt lat="45.82230920116001" lon="12.139347119906263"><ele>221.0</ele><time>2026-03-23T09:23:16Z</time></trkpt><trkpt lat="45.822175820699684" lon="12.13927646980104"><ele>221.0</ele><time>2026-03-23T09:23:17Z</time></trkpt><trkpt lat="45.82200442124977" lon="12.139245094373123"><ele>221.0</ele><time>2026-03-23T09:23:18Z</time></trkpt><trkpt lat="45.82178910048688" lon="12.139250335910654"><ele>221.0</ele><time>2026-03-23T09:23:19Z</time></trkpt><trkpt lat="45.82159314524981" lon="12.139273329279083"><ele>222.0</ele><time>2026-03-23T09:23:20Z</time></trkpt><trkpt lat="45.821393430464504" lon="12.139328820914583"><ele>223.0</ele><time>2026-03-23T09:23:21Z</time></trkpt><trkpt lat="45.821194301298014" lon="12.139413539578337"><ele>224.0</ele><time>2026-03-23T09:23:22Z</time></trkpt><trkpt lat="45.821021429905414" lon="12.139479134255414"><ele>223.66666666666669</ele><time>2026-03-23T09:23:23Z</time></trkpt><trkpt lat="45.82085649892788" lon="12.13950572123936"><ele>223.33333333333331</ele><time>2026-03-23T09:23:24Z</time></trkpt><trkpt lat="45.82067930109087" lon="12.139547844853912"><ele>223.0</ele><time>2026-03-23T09:23:25Z</time></trkpt><trkpt lat="45.82054541819825" lon="12.139604147812467"><ele>223.0</ele><time>2026-03-23T09:23:26Z</time></trkpt><trkpt lat="45.8204055760975" lon="12.139573032870205"><ele>223.0</ele><time>2026-03-23T09:23:27Z</time></trkpt><trkpt lat="45.82026606686406" lon="12.139473927727568"><ele>223.0</ele><time>2026-03-23T09:23:27.999Z</time></trkpt><trkpt lat="45.8200848968373" lon="12.139331524712777"><ele>226.66666666666666</ele><time>2026-03-23T09:23:28.999Z</time></trkpt><trkpt lat="45.819879758684955" lon="12.139168181411417"><ele>230.33333333333331</ele><time>2026-03-23T09:23:29.999Z</time></trkpt><trkpt lat="45.819693740670125" lon="12.139020062702015"><ele>234.0</ele><time>2026-03-23T09:23:30.999Z</time></trkpt><trkpt lat="45.8195363921803" lon="12.138900444705579"><ele>234.0</ele><time>2026-03-23T09:23:31.999Z</time></trkpt><trkpt lat="45.81939018149238" lon="12.138810462725953"><ele>234.0</ele><time>2026-03-23T09:23:32.999Z</time></trkpt><trkpt lat="45.819248261059414" lon="12.138710830958845"><ele>234.0</ele><time>2026-03-23T09:23:33.999Z</time></trkpt><trkpt lat="45.819109220276964" lon="12.13860070979111"><ele>235.25</ele><time>2026-03-23T09:23:34.999Z</time></trkpt><trkpt lat="45.81896796439719" lon="12.138536737300605"><ele>236.5</ele><time>2026-03-23T09:23:35.999Z</time></trkpt><trkpt lat="45.8188395380254" lon="12.13847816622631"><ele>237.75</ele><time>2026-03-23T09:23:36.999Z</time></trkpt><trkpt lat="45.81870857290538" lon="12.138442132365775"><ele>239.0</ele><time>2026-03-23T09:23:37.999Z</time></trkpt><trkpt lat="45.8185726628792" lon="12.138414456139229"><ele>239.2</ele><time>2026-03-23T09:23:38.999Z</time></trkpt><trkpt lat="45.81844899869979" lon="12.138402484958533"><ele>239.39999999999998</ele><time>2026-03-23T09:23:39.999Z</time></trkpt><trkpt lat="45.81833793516899" lon="12.138440020154253"><ele>239.6</ele><time>2026-03-23T09:23:40.999Z</time></trkpt><trkpt lat="45.81824131399244" lon="12.138503363593019"><ele>239.8</ele><time>2026-03-23T09:23:41.999Z</time></trkpt><trkpt lat="45.818157171279765" lon="12.13855587769006"><ele>240.0</ele><time>2026-03-23T09:23:42.999Z</time></trkpt><trkpt lat="45.8180882405728" lon="12.138577654548179"><ele>240.0</ele><time>2026-03-23T09:23:43.999Z</time></trkpt><trkpt lat="45.81798930947996" lon="12.138418642110414"><ele>240.0</ele><time>2026-03-23T09:23:46.999Z</time></trkpt><trkpt lat="45.81795506853176" lon="12.138278524278348"><ele>240.0</ele><time>2026-03-23T09:23:47.999Z</time></trkpt><trkpt lat="45.81789996670538" lon="12.138073779852371"><ele>240.0</ele><time>2026-03-23T09:23:48.999Z</time></trkpt><trkpt lat="45.8178324146556" lon="12.13785202821382"><ele>242.0</ele><time>2026-03-23T09:23:49.999Z</time></trkpt><trkpt lat="45.81780009471413" lon="12.137621476294031"><ele>244.0</ele><time>2026-03-23T09:23:50.999Z</time></trkpt><trkpt lat="45.81777749547455" lon="12.137357407738218"><ele>246.0</ele><time>2026-03-23T09:23:51.999Z</time></trkpt><trkpt lat="45.81778555369819" lon="12.137068923515633"><ele>247.33333333333331</ele><time>2026-03-23T09:23:52.999Z</time></trkpt><trkpt lat="45.81781389412538" lon="12.136809462749566"><ele>248.66666666666666</ele><time>2026-03-23T09:23:53.999Z</time></trkpt><trkpt lat="45.81783516979206" lon="12.136604512753374"><ele>250.0</ele><time>2026-03-23T09:23:54.999Z</time></trkpt><trkpt lat="45.81785025359073" lon="12.136408326130258"><ele>250.0</ele><time>2026-03-23T09:23:55.999Z</time></trkpt><trkpt lat="45.817800856980284" lon="12.136172082900572"><ele>250.0</ele><time>2026-03-23T09:23:56.999Z</time></trkpt><trkpt lat="45.81770737910627" lon="12.135882663465349"><ele>250.0</ele><time>2026-03-23T09:23:57.999Z</time></trkpt><trkpt lat="45.8176073678352" lon="12.135565715846234"><ele>257.0</ele><time>2026-03-23T09:23:58.999Z</time></trkpt><trkpt lat="45.817504751167135" lon="12.13524844381699"><ele>264.0</ele><time>2026-03-23T09:23:59.999Z</time></trkpt><trkpt lat="45.817396639561174" lon="12.134947677426725"><ele>263.0</ele><time>2026-03-23T09:24:00.999Z</time></trkpt><trkpt lat="45.817279696184954" lon="12.134677283920562"><ele>262.0</ele><time>2026-03-23T09:24:01.999Z</time></trkpt><trkpt lat="45.81721084128041" lon="12.134393170470553"><ele>261.0</ele><time>2026-03-23T09:24:02.999Z</time></trkpt><trkpt lat="45.81713063819825" lon="12.134069931574006"><ele>261.0</ele><time>2026-03-23T09:24:03.999Z</time></trkpt><trkpt lat="45.81704691205373" lon="12.133736633956822"><ele>261.0</ele><time>2026-03-23T09:24:04.999Z</time></trkpt><trkpt lat="45.816970187585525" lon="12.133472566728734"><ele>261.0</ele><time>2026-03-23T09:24:05.999Z</time></trkpt><trkpt lat="45.81687545074317" lon="12.133234773572092"><ele>263.0</ele><time>2026-03-23T09:24:06.999Z</time></trkpt><trkpt lat="45.81674594179601" lon="12.133026171736672"><ele>265.0</ele><time>2026-03-23T09:24:07.999Z</time></trkpt><trkpt lat="45.81656860850376" lon="12.132836383994203"><ele>267.0</ele><time>2026-03-23T09:24:08.999Z</time></trkpt><trkpt lat="45.816369240374804" lon="12.132629521845486"><ele>267.0</ele><time>2026-03-23T09:24:09.999Z</time></trkpt><trkpt lat="45.81614337630497" lon="12.132405388779054"><ele>267.0</ele><time>2026-03-23T09:24:10.999Z</time></trkpt><trkpt lat="45.81590696038548" lon="12.132173881947375"><ele>266.0</ele><time>2026-03-23T09:24:11.999Z</time></trkpt><trkpt lat="45.81569456526971" lon="12.131992457179567"><ele>265.0</ele><time>2026-03-23T09:24:12.999Z</time></trkpt><trkpt lat="45.81552028696995" lon="12.131813568538284"><ele>265.0</ele><time>2026-03-23T09:24:13.999Z</time></trkpt><trkpt lat="45.81535347102212" lon="12.131628488066536"><ele>265.0</ele><time>2026-03-23T09:24:14.999Z</time></trkpt><trkpt lat="45.8151455023612" lon="12.131455981180702"><ele>269.0</ele><time>2026-03-23T09:24:15.999Z</time></trkpt><trkpt lat="45.81496743740253" lon="12.131236002966636"><ele>273.0</ele><time>2026-03-23T09:24:16.999Z</time></trkpt><trkpt lat="45.814790717978646" lon="12.131016147229337"><ele>273.0</ele><time>2026-03-23T09:24:17.999Z</time></trkpt><trkpt lat="45.81461742566945" lon="12.130730289785966"><ele>273.0</ele><time>2026-03-23T09:24:18.999Z</time></trkpt><trkpt lat="45.81445404433798" lon="12.13045872624741"><ele>278.6666666666667</ele><time>2026-03-23T09:24:19.999Z</time></trkpt><trkpt lat="45.8142920757825" lon="12.130231051999145"><ele>284.33333333333337</ele><time>2026-03-23T09:24:20.999Z</time></trkpt><trkpt lat="45.814134097602945" lon="12.130026004234178"><ele>290.0</ele><time>2026-03-23T09:24:21.999Z</time></trkpt><trkpt lat="45.81397566529221" lon="12.129871566717696"><ele>290.5</ele><time>2026-03-23T09:24:22.999Z</time></trkpt><trkpt lat="45.81387302320584" lon="12.129712604412893"><ele>291.0</ele><time>2026-03-23T09:24:23.999Z</time></trkpt><trkpt lat="45.81380656762255" lon="12.129568515879015"><ele>291.5</ele><time>2026-03-23T09:24:24.999Z</time></trkpt><trkpt lat="45.81376855518185" lon="12.129364001645794"><ele>292.0</ele><time>2026-03-23T09:24:25.999Z</time></trkpt><trkpt lat="45.81378375322958" lon="12.129128664281296"><ele>292.0</ele><time>2026-03-23T09:24:26.999Z</time></trkpt><trkpt lat="45.81377690602569" lon="12.128844254877945"><ele>292.0</ele><time>2026-03-23T09:24:27.999Z</time></trkpt><trkpt lat="45.8137972598417" lon="12.128524765094898"><ele>292.0</ele><time>2026-03-23T09:24:28.999Z</time></trkpt><trkpt lat="45.81381048748511" lon="12.128221619776706"><ele>292.0</ele><time>2026-03-23T09:24:29.999Z</time></trkpt><trkpt lat="45.813823798970056" lon="12.127960036159903"><ele>292.0</ele><time>2026-03-23T09:24:30.999Z</time></trkpt><trkpt lat="45.8138069479536" lon="12.127722676065604"><ele>292.0</ele><time>2026-03-23T09:24:31.999Z</time></trkpt><trkpt lat="45.8137255951837" lon="12.127494593841458"><ele>293.3333333333333</ele><time>2026-03-23T09:24:32.999Z</time></trkpt><trkpt lat="45.8136152831853" lon="12.127283811640512"><ele>294.6666666666667</ele><time>2026-03-23T09:24:33.999Z</time></trkpt><trkpt lat="45.813472496554525" lon="12.127048657313429"><ele>296.0</ele><time>2026-03-23T09:24:34.999Z</time></trkpt><trkpt lat="45.813318137524185" lon="12.126785076857159"><ele>300.0</ele><time>2026-03-23T09:24:35.999Z</time></trkpt><trkpt lat="45.81321303245729" lon="12.126520869623372"><ele>304.0</ele><time>2026-03-23T09:24:36.999Z</time></trkpt><trkpt lat="45.8131058824862" lon="12.126312016489022"><ele>308.0</ele><time>2026-03-23T09:24:37.999Z</time></trkpt><trkpt lat="45.81302159411262" lon="12.12610210632651"><ele>308.0</ele><time>2026-03-23T09:24:38.999Z</time></trkpt><trkpt lat="45.813017154002345" lon="12.125863628830189"><ele>308.0</ele><time>2026-03-23T09:24:39.999Z</time></trkpt><trkpt lat="45.81303041618385" lon="12.125619093500967"><ele>308.0</ele><time>2026-03-23T09:24:40.999Z</time></trkpt><trkpt lat="45.813073368598396" lon="12.125379277063235"><ele>308.0</ele><time>2026-03-23T09:24:41.999Z</time></trkpt><trkpt lat="45.81318361678923" lon="12.125138464383275"><ele>308.0</ele><time>2026-03-23T09:24:42.999Z</time></trkpt><trkpt lat="45.813347186622856" lon="12.124905424252292"><ele>308.0</ele><time>2026-03-23T09:24:43.999Z</time></trkpt><trkpt lat="45.81350870728775" lon="12.124648766453923"><ele>309.33333333333337</ele><time>2026-03-23T09:24:44.999Z</time></trkpt><trkpt lat="45.81366890225797" lon="12.124441899888588"><ele>310.6666666666667</ele><time>2026-03-23T09:24:45.999Z</time></trkpt><trkpt lat="45.81379713102294" lon="12.124233622147703"><ele>312.0</ele><time>2026-03-23T09:24:46.999Z</time></trkpt><trkpt lat="45.81390732398477" lon="12.1240031674771"><ele>312.0</ele><time>2026-03-23T09:24:47.999Z</time></trkpt><trkpt lat="45.814007296862684" lon="12.123778826110476"><ele>312.0</ele><time>2026-03-23T09:24:48.999Z</time></trkpt><trkpt lat="45.8140853625856" lon="12.123597929747705"><ele>312.0</ele><time>2026-03-23T09:24:49.999Z</time></trkpt><trkpt lat="45.81412535458931" lon="12.123441453697646"><ele>312.0</ele><time>2026-03-23T09:24:50.999Z</time></trkpt><trkpt lat="45.814116927680786" lon="12.12326165465202"><ele>312.0</ele><time>2026-03-23T09:24:51.999Z</time></trkpt><trkpt lat="45.81405973079684" lon="12.12310836801473"><ele>312.0</ele><time>2026-03-23T09:24:52.999Z</time></trkpt><trkpt lat="45.81396005820668" lon="12.12298618504023"><ele>312.0</ele><time>2026-03-23T09:24:53.999Z</time></trkpt><trkpt lat="45.813818404120305" lon="12.122878944334383"><ele>313.3333333333333</ele><time>2026-03-23T09:24:54.999Z</time></trkpt><trkpt lat="45.813640621458504" lon="12.122790864120892"><ele>314.66666666666663</ele><time>2026-03-23T09:24:55.999Z</time></trkpt><trkpt lat="45.81346172842037" lon="12.122628925932402"><ele>316.0</ele><time>2026-03-23T09:24:56.999Z</time></trkpt><trkpt lat="45.813260350141285" lon="12.122451542720238"><ele>317.0</ele><time>2026-03-23T09:24:57.999Z</time></trkpt><trkpt lat="45.81306134330274" lon="12.122293567582501"><ele>318.0</ele><time>2026-03-23T09:24:58.999Z</time></trkpt><trkpt lat="45.8129031624842" lon="12.122134452353974"><ele>319.0</ele><time>2026-03-23T09:24:59.999Z</time></trkpt><trkpt lat="45.812758352993235" lon="12.121999603569623"><ele>320.66666666666663</ele><time>2026-03-23T09:25:00.998Z</time></trkpt><trkpt lat="45.81261591190952" lon="12.121830190412728"><ele>322.3333333333333</ele><time>2026-03-23T09:25:01.998Z</time></trkpt><trkpt lat="45.812479232928546" lon="12.121601963377271"><ele>324.0</ele><time>2026-03-23T09:25:03Z</time></trkpt><trkpt lat="45.81238073039626" lon="12.121347346262974"><ele>325.3333333333333</ele><time>2026-03-23T09:25:04Z</time></trkpt><trkpt lat="45.812314134238896" lon="12.121090067629394"><ele>326.66666666666663</ele><time>2026-03-23T09:25:05Z</time></trkpt><trkpt lat="45.81228018288344" lon="12.120794669868685"><ele>328.0</ele><time>2026-03-23T09:25:06Z</time></trkpt><trkpt lat="45.812266689521245" lon="12.120463636978316"><ele>329.3333333333333</ele><time>2026-03-23T09:25:07Z</time></trkpt><trkpt lat="45.812248524572816" lon="12.120163969324242"><ele>330.6666666666667</ele><time>2026-03-23T09:25:08Z</time></trkpt><trkpt lat="45.812238279647495" lon="12.119906118809082"><ele>332.0</ele><time>2026-03-23T09:25:09Z</time></trkpt><trkpt lat="45.81222960439589" lon="12.119655501417798"><ele>332.33333333333337</ele><time>2026-03-23T09:25:10Z</time></trkpt><trkpt lat="45.8122246504937" lon="12.119388962216144"><ele>332.6666666666667</ele><time>2026-03-23T09:25:11Z</time></trkpt><trkpt lat="45.81221401329442" lon="12.119125266461078"><ele>333.0</ele><time>2026-03-23T09:25:12Z</time></trkpt><trkpt lat="45.812204608376625" lon="12.1188716397331"><ele>333.0</ele><time>2026-03-23T09:25:13Z</time></trkpt><trkpt lat="45.812235974522096" lon="12.118640972696983"><ele>333.0</ele><time>2026-03-23T09:25:14Z</time></trkpt><trkpt lat="45.81231387721248" lon="12.11844273489743"><ele>333.0</ele><time>2026-03-23T09:25:15Z</time></trkpt><trkpt lat="45.81246135706069" lon="12.118308527300911"><ele>332.6666666666667</ele><time>2026-03-23T09:25:16Z</time></trkpt><trkpt lat="45.812595984615456" lon="12.11811238900903"><ele>332.33333333333337</ele><time>2026-03-23T09:25:17Z</time></trkpt><trkpt lat="45.812745479619075" lon="12.117942049582846"><ele>332.0</ele><time>2026-03-23T09:25:18Z</time></trkpt><trkpt lat="45.81287455267006" lon="12.117714691259742"><ele>332.0</ele><time>2026-03-23T09:25:19Z</time></trkpt><trkpt lat="45.81298908421998" lon="12.117469697831314"><ele>332.0</ele><time>2026-03-23T09:25:20Z</time></trkpt><trkpt lat="45.81307116524652" lon="12.117264483402879"><ele>332.0</ele><time>2026-03-23T09:25:21Z</time></trkpt><trkpt lat="45.813128503846144" lon="12.117050521026275"><ele>332.6666666666667</ele><time>2026-03-23T09:25:22Z</time></trkpt><trkpt lat="45.81314186687637" lon="12.116804461173082"><ele>333.3333333333333</ele><time>2026-03-23T09:25:23Z</time></trkpt><trkpt lat="45.813113227757455" lon="12.11652153279759"><ele>334.0</ele><time>2026-03-23T09:25:24Z</time></trkpt><trkpt lat="45.81303860085081" lon="12.116274532352094"><ele>334.0</ele><time>2026-03-23T09:25:25Z</time></trkpt><trkpt lat="45.81299041336403" lon="12.116024119243425"><ele>334.0</ele><time>2026-03-23T09:25:26Z</time></trkpt><trkpt lat="45.812943940574655" lon="12.115832951497383"><ele>334.0</ele><time>2026-03-23T09:25:27Z</time></trkpt><trkpt lat="45.81287820477385" lon="12.115644416511506"><ele>333.0</ele><time>2026-03-23T09:25:28Z</time></trkpt><trkpt lat="45.81279766386737" lon="12.115423284776819"><ele>332.0</ele><time>2026-03-23T09:25:29Z</time></trkpt><trkpt lat="45.812736480711585" lon="12.115215628590715"><ele>331.0</ele><time>2026-03-23T09:25:30Z</time></trkpt><trkpt lat="45.81261551254186" lon="12.115142340036028"><ele>331.0</ele><time>2026-03-23T09:25:31Z</time></trkpt><trkpt lat="45.81249907243531" lon="12.115052412921163"><ele>331.0</ele><time>2026-03-23T09:25:32Z</time></trkpt><trkpt lat="45.812363049682624" lon="12.1150353477572"><ele>331.0</ele><time>2026-03-23T09:25:33Z</time></trkpt><trkpt lat="45.81223842790162" lon="12.115120515092983"><ele>331.0</ele><time>2026-03-23T09:25:34Z</time></trkpt><trkpt lat="45.81210971337327" lon="12.115179139760555"><ele>331.0</ele><time>2026-03-23T09:25:35Z</time></trkpt><trkpt lat="45.811990564919924" lon="12.115221729625441"><ele>331.0</ele><time>2026-03-23T09:25:36Z</time></trkpt><trkpt lat="45.81187919609931" lon="12.115195802994524"><ele>331.0</ele><time>2026-03-23T09:25:37Z</time></trkpt><trkpt lat="45.8117713941201" lon="12.115093814459494"><ele>331.0</ele><time>2026-03-23T09:25:38Z</time></trkpt><trkpt lat="45.81163560355411" lon="12.11494910886344"><ele>326.0</ele><time>2026-03-23T09:25:39Z</time></trkpt><trkpt lat="45.811474076565574" lon="12.114823512173833"><ele>321.0</ele><time>2026-03-23T09:25:40Z</time></trkpt><trkpt lat="45.81135284152247" lon="12.114682043370859"><ele>316.0</ele><time>2026-03-23T09:25:41Z</time></trkpt><trkpt lat="45.81125615489619" lon="12.114510652201318"><ele>316.0</ele><time>2026-03-23T09:25:42Z</time></trkpt><trkpt lat="45.81118735546927" lon="12.114291893355361"><ele>316.0</ele><time>2026-03-23T09:25:43Z</time></trkpt><trkpt lat="45.81109413758816" lon="12.114110931860266"><ele>316.0</ele><time>2026-03-23T09:25:44Z</time></trkpt><trkpt lat="45.81101324327676" lon="12.113978564213642"><ele>316.0</ele><time>2026-03-23T09:25:45Z</time></trkpt><trkpt lat="45.81089241168284" lon="12.113885135984928"><ele>316.66666666666663</ele><time>2026-03-23T09:25:46Z</time></trkpt><trkpt lat="45.810727440162545" lon="12.11381478079289"><ele>317.3333333333333</ele><time>2026-03-23T09:25:47Z</time></trkpt><trkpt lat="45.810541979859686" lon="12.113777016013897"><ele>318.0</ele><time>2026-03-23T09:25:48Z</time></trkpt><trkpt lat="45.81038303367889" lon="12.113692999801383"><ele>318.0</ele><time>2026-03-23T09:25:49Z</time></trkpt><trkpt lat="45.81028120686392" lon="12.113521451719123"><ele>318.0</ele><time>2026-03-23T09:25:50Z</time></trkpt><trkpt lat="45.810191936416416" lon="12.113318861193896"><ele>318.0</ele><time>2026-03-23T09:25:50.999Z</time></trkpt><trkpt lat="45.81007930349665" lon="12.113126916912103"><ele>320.0</ele><time>2026-03-23T09:25:51.999Z</time></trkpt><trkpt lat="45.809972868739095" lon="12.112949544968862"><ele>322.0</ele><time>2026-03-23T09:25:52.999Z</time></trkpt><trkpt lat="45.80982502925056" lon="12.112816474387664"><ele>324.0</ele><time>2026-03-23T09:25:53.999Z</time></trkpt><trkpt lat="45.8096794438832" lon="12.11270522066921"><ele>324.0</ele><time>2026-03-23T09:25:54.999Z</time></trkpt><trkpt lat="45.809563118342886" lon="12.112620343938351"><ele>324.0</ele><time>2026-03-23T09:25:55.999Z</time></trkpt><trkpt lat="45.80947661939677" lon="12.112554635122851"><ele>324.0</ele><time>2026-03-23T09:25:56.999Z</time></trkpt><trkpt lat="45.80939004284832" lon="12.112489250351842"><ele>324.0</ele><time>2026-03-23T09:25:57.999Z</time></trkpt><trkpt lat="45.809299251913956" lon="12.112426801993571"><ele>324.0</ele><time>2026-03-23T09:25:58.999Z</time></trkpt><trkpt lat="45.80922681463398" lon="12.11233221137882"><ele>323.6666666666667</ele><time>2026-03-23T09:25:59.999Z</time></trkpt><trkpt lat="45.80915176757185" lon="12.112261622796586"><ele>323.3333333333333</ele><time>2026-03-23T09:26:00.999Z</time></trkpt><trkpt lat="45.80909943237605" lon="12.112172847183965"><ele>323.0</ele><time>2026-03-23T09:26:01.999Z</time></trkpt><trkpt lat="45.80905600311378" lon="12.112096606854285"><ele>322.66666666666663</ele><time>2026-03-23T09:26:02.999Z</time></trkpt><trkpt lat="45.80904087983234" lon="12.111962628776999"><ele>322.3333333333333</ele><time>2026-03-23T09:26:04.999Z</time></trkpt><trkpt lat="45.80912381155884" lon="12.111901117312849"><ele>322.0</ele><time>2026-03-23T09:26:06.999Z</time></trkpt><trkpt lat="45.809180098897315" lon="12.111942578871805"><ele>322.0</ele><time>2026-03-23T09:26:07.999Z</time></trkpt><trkpt lat="45.80927174173038" lon="12.111950844714928"><ele>322.0</ele><time>2026-03-23T09:26:08.999Z</time></trkpt><trkpt lat="45.809379959893434" lon="12.111995953134052"><ele>322.0</ele><time>2026-03-23T09:26:09.999Z</time></trkpt><trkpt lat="45.809475028948825" lon="12.11200854164949"><ele>322.0</ele><time>2026-03-23T09:26:10.999Z</time></trkpt><trkpt lat="45.80954982811512" lon="12.111987270731717"><ele>322.0</ele><time>2026-03-23T09:26:11.999Z</time></trkpt><trkpt lat="45.80962190820602" lon="12.111935634063151"><ele>324.0</ele><time>2026-03-23T09:26:12.999Z</time></trkpt><trkpt lat="45.80970959089029" lon="12.111844533457345"><ele>326.0</ele><time>2026-03-23T09:26:13.999Z</time></trkpt><trkpt lat="45.80980444313306" lon="12.111734944023533"><ele>328.0</ele><time>2026-03-23T09:26:14.999Z</time></trkpt><trkpt lat="45.80990248429511" lon="12.111650718615575"><ele>330.0</ele><time>2026-03-23T09:26:15.999Z</time></trkpt><trkpt lat="45.810012384649625" lon="12.1115916019738"><ele>330.5</ele><time>2026-03-23T09:26:16.999Z</time></trkpt><trkpt lat="45.810144666952" lon="12.111551929227057"><ele>331.0</ele><time>2026-03-23T09:26:17.999Z</time></trkpt><trkpt lat="45.81028232204688" lon="12.111521277793525"><ele>331.5</ele><time>2026-03-23T09:26:18.999Z</time></trkpt><trkpt lat="45.810422704531426" lon="12.111494029449686"><ele>332.0</ele><time>2026-03-23T09:26:19.999Z</time></trkpt><trkpt lat="45.81055122197044" lon="12.111455115295426"><ele>332.0</ele><time>2026-03-23T09:26:20.999Z</time></trkpt><trkpt lat="45.81066844707029" lon="12.111398291571534"><ele>332.0</ele><time>2026-03-23T09:26:21.999Z</time></trkpt><trkpt lat="45.81077771129667" lon="12.111353255638521"><ele>332.0</ele><time>2026-03-23T09:26:22.999Z</time></trkpt><trkpt lat="45.81087709444893" lon="12.111300120131403"><ele>332.0</ele><time>2026-03-23T09:26:23.999Z</time></trkpt><trkpt lat="45.81097273165158" lon="12.111250879621016"><ele>332.0</ele><time>2026-03-23T09:26:24.999Z</time></trkpt><trkpt lat="45.81109372362772" lon="12.111196801062372"><ele>333.0</ele><time>2026-03-23T09:26:25.999Z</time></trkpt><trkpt lat="45.811222604734915" lon="12.111125775334001"><ele>334.0</ele><time>2026-03-23T09:26:26.999Z</time></trkpt><trkpt lat="45.81133690119323" lon="12.11103916667863"><ele>335.0</ele><time>2026-03-23T09:26:27.999Z</time></trkpt><trkpt lat="45.81143697234341" lon="12.110945729767952"><ele>336.0</ele><time>2026-03-23T09:26:28.999Z</time></trkpt><trkpt lat="45.8115227136577" lon="12.110861482895071"><ele>336.0</ele><time>2026-03-23T09:26:29.999Z</time></trkpt><trkpt lat="45.8116076536741" lon="12.110816282664038"><ele>336.0</ele><time>2026-03-23T09:26:30.999Z</time></trkpt><trkpt lat="45.81167080605091" lon="12.110815233894064"><ele>336.0</ele><time>2026-03-23T09:26:31.999Z</time></trkpt><trkpt lat="45.811741327890864" lon="12.110861579532182"><ele>336.0</ele><time>2026-03-23T09:26:32.999Z</time></trkpt><trkpt lat="45.811829393623896" lon="12.11093330608843"><ele>336.0</ele><time>2026-03-23T09:26:33.999Z</time></trkpt><trkpt lat="45.8119164018357" lon="12.111016854310003"><ele>336.0</ele><time>2026-03-23T09:26:34.999Z</time></trkpt><trkpt lat="45.81198675235147" lon="12.111084596250349"><ele>335.5</ele><time>2026-03-23T09:26:35.999Z</time></trkpt><trkpt lat="45.812093545932086" lon="12.111086393308009"><ele>335.0</ele><time>2026-03-23T09:26:36.999Z</time></trkpt><trkpt lat="45.812227355420674" lon="12.111036832550509"><ele>334.5</ele><time>2026-03-23T09:26:37.999Z</time></trkpt><trkpt lat="45.81239072076842" lon="12.110944621703638"><ele>334.0</ele><time>2026-03-23T09:26:38.999Z</time></trkpt><trkpt lat="45.81257658604199" lon="12.110823894737827"><ele>331.3333333333333</ele><time>2026-03-23T09:26:39.999Z</time></trkpt><trkpt lat="45.812781058081015" lon="12.110723022843318"><ele>328.6666666666667</ele><time>2026-03-23T09:26:40.999Z</time></trkpt><trkpt lat="45.81296709026876" lon="12.110634210342589"><ele>326.0</ele><time>2026-03-23T09:26:41.999Z</time></trkpt><trkpt lat="45.81315788477085" lon="12.1105323004558"><ele>326.0</ele><time>2026-03-23T09:26:42.999Z</time></trkpt><trkpt lat="45.81337424036151" lon="12.11042386326025"><ele>326.0</ele><time>2026-03-23T09:26:43.999Z</time></trkpt><trkpt lat="45.81358379997204" lon="12.11032838902374"><ele>326.0</ele><time>2026-03-23T09:26:44.999Z</time></trkpt><trkpt lat="45.81376400768967" lon="12.11023592257659"><ele>326.0</ele><time>2026-03-23T09:26:45.999Z</time></trkpt><trkpt lat="45.813905488875996" lon="12.1101642274204"><ele>326.0</ele><time>2026-03-23T09:26:46.999Z</time></trkpt><trkpt lat="45.81402439292807" lon="12.110108657043668"><ele>326.0</ele><time>2026-03-23T09:26:47.999Z</time></trkpt><trkpt lat="45.81411879951013" lon="12.11005619835338"><ele>326.0</ele><time>2026-03-23T09:26:48.999Z</time></trkpt><trkpt lat="45.81421876988771" lon="12.110023526972483"><ele>325.75</ele><time>2026-03-23T09:26:49.999Z</time></trkpt><trkpt lat="45.81435105045742" lon="12.11004256661351"><ele>325.5</ele><time>2026-03-23T09:26:50.999Z</time></trkpt><trkpt lat="45.814502012065965" lon="12.110108854439364"><ele>325.25</ele><time>2026-03-23T09:26:51.999Z</time></trkpt><trkpt lat="45.81462282807099" lon="12.110140903350672"><ele>325.0</ele><time>2026-03-23T09:26:52.999Z</time></trkpt><trkpt lat="45.81473462478162" lon="12.110118998186854"><ele>325.0</ele><time>2026-03-23T09:26:53.999Z</time></trkpt><trkpt lat="45.814841358039494" lon="12.110143735074821"><ele>325.0</ele><time>2026-03-23T09:26:54.999Z</time></trkpt><trkpt lat="45.81494241065919" lon="12.110272139823246"><ele>325.0</ele><time>2026-03-23T09:26:55.999Z</time></trkpt><trkpt lat="45.81509271446826" lon="12.110397023418226"><ele>325.0</ele><time>2026-03-23T09:26:56.999Z</time></trkpt><trkpt lat="45.81522629383824" lon="12.110483263870409"><ele>325.2</ele><time>2026-03-23T09:26:57.999Z</time></trkpt><trkpt lat="45.81535762958211" lon="12.11052025932749"><ele>325.4</ele><time>2026-03-23T09:26:58.999Z</time></trkpt><trkpt lat="45.81545306917041" lon="12.11060201415836"><ele>325.6</ele><time>2026-03-23T09:26:59.999Z</time></trkpt><trkpt lat="45.81554707922491" lon="12.110662477883702"><ele>325.8</ele><time>2026-03-23T09:27:00.999Z</time></trkpt><trkpt lat="45.815615938730495" lon="12.11069422239005"><ele>326.0</ele><time>2026-03-23T09:27:01.999Z</time></trkpt><trkpt lat="45.815696693180435" lon="12.110660713442936"><ele>326.0</ele><time>2026-03-23T09:27:02.999Z</time></trkpt><trkpt lat="45.81579412314622" lon="12.110576744769862"><ele>326.0</ele><time>2026-03-23T09:27:03.999Z</time></trkpt><trkpt lat="45.81591716404176" lon="12.110493992543743"><ele>326.0</ele><time>2026-03-23T09:27:04.999Z</time></trkpt><trkpt lat="45.81602020541523" lon="12.110439165888772"><ele>326.0</ele><time>2026-03-23T09:27:05.999Z</time></trkpt><trkpt lat="45.816100732590044" lon="12.110403451623522"><ele>326.0</ele><time>2026-03-23T09:27:06.999Z</time></trkpt><trkpt lat="45.81618657983438" lon="12.110436319257925"><ele>325.4</ele><time>2026-03-23T09:27:07.999Z</time></trkpt><trkpt lat="45.81627619958249" lon="12.11050860487461"><ele>324.8</ele><time>2026-03-23T09:27:09Z</time></trkpt><trkpt lat="45.816365274079075" lon="12.110610144536192"><ele>324.2</ele><time>2026-03-23T09:27:10Z</time></trkpt><trkpt lat="45.81643901748186" lon="12.110707390341776"><ele>323.59999999999997</ele><time>2026-03-23T09:27:11Z</time></trkpt><trkpt lat="45.81651398056231" lon="12.11077757819232"><ele>323.0</ele><time>2026-03-23T09:27:12Z</time></trkpt><trkpt lat="45.81660309088385" lon="12.110817195108112"><ele>322.2</ele><time>2026-03-23T09:27:13Z</time></trkpt><trkpt lat="45.81669700813133" lon="12.110846342961779"><ele>321.4</ele><time>2026-03-23T09:27:14Z</time></trkpt><trkpt lat="45.816797982185946" lon="12.110865563836189"><ele>320.59999999999997</ele><time>2026-03-23T09:27:15Z</time></trkpt><trkpt lat="45.816904119411504" lon="12.11085339831212"><ele>319.79999999999995</ele><time>2026-03-23T09:27:16Z</time></trkpt><trkpt lat="45.81700587657432" lon="12.110784333093056"><ele>319.0</ele><time>2026-03-23T09:27:17Z</time></trkpt><trkpt lat="45.81709621773777" lon="12.110739183558566"><ele>319.0</ele><time>2026-03-23T09:27:18Z</time></trkpt><trkpt lat="45.81717936160825" lon="12.110730111609088"><ele>319.0</ele><time>2026-03-23T09:27:19Z</time></trkpt><trkpt lat="45.81725665071147" lon="12.110793995017334"><ele>319.0</ele><time>2026-03-23T09:27:20Z</time></trkpt><trkpt lat="45.81730810188159" lon="12.110898912692198"><ele>319.0</ele><time>2026-03-23T09:27:21Z</time></trkpt><trkpt lat="45.817330881091124" lon="12.111031880286122"><ele>319.0</ele><time>2026-03-23T09:27:22Z</time></trkpt><trkpt lat="45.81734659994131" lon="12.11117073368099"><ele>318.8333333333333</ele><time>2026-03-23T09:27:23Z</time></trkpt><trkpt lat="45.81738320257227" lon="12.11127393344134"><ele>318.66666666666663</ele><time>2026-03-23T09:27:24Z</time></trkpt><trkpt lat="45.81745636390153" lon="12.11131443871866"><ele>318.5</ele><time>2026-03-23T09:27:25Z</time></trkpt><trkpt lat="45.817547029754394" lon="12.111326632040264"><ele>318.3333333333333</ele><time>2026-03-23T09:27:26Z</time></trkpt><trkpt lat="45.81763956825792" lon="12.111294655652442"><ele>318.1666666666667</ele><time>2026-03-23T09:27:27Z</time></trkpt><trkpt lat="45.81772007146328" lon="12.111255474746931"><ele>318.0</ele><time>2026-03-23T09:27:28Z</time></trkpt><trkpt lat="45.8178003977056" lon="12.111264100558422"><ele>317.4</ele><time>2026-03-23T09:27:29Z</time></trkpt><trkpt lat="45.81786869591714" lon="12.11131957092878"><ele>316.8</ele><time>2026-03-23T09:27:30Z</time></trkpt><trkpt lat="45.81792781696334" lon="12.111426120016024"><ele>316.2</ele><time>2026-03-23T09:27:31Z</time></trkpt><trkpt lat="45.81793783481975" lon="12.111590076509794"><ele>315.6</ele><time>2026-03-23T09:27:32Z</time></trkpt><trkpt lat="45.81794356094073" lon="12.111745538436612"><ele>315.0</ele><time>2026-03-23T09:27:33Z</time></trkpt><trkpt lat="45.81796339694763" lon="12.111879847889874"><ele>314.2</ele><time>2026-03-23T09:27:34Z</time></trkpt><trkpt lat="45.817990515187994" lon="12.111987378095652"><ele>313.4</ele><time>2026-03-23T09:27:35Z</time></trkpt><trkpt lat="45.81804668263219" lon="12.112056493111323"><ele>312.6</ele><time>2026-03-23T09:27:36Z</time></trkpt><trkpt lat="45.818113564268316" lon="12.112095475079"><ele>311.8</ele><time>2026-03-23T09:27:37Z</time></trkpt><trkpt lat="45.818216455768415" lon="12.112115942872462"><ele>311.0</ele><time>2026-03-23T09:27:38Z</time></trkpt><trkpt lat="45.818336209080066" lon="12.112110356468119"><ele>311.0</ele><time>2026-03-23T09:27:39Z</time></trkpt><trkpt lat="45.81842483669482" lon="12.112172220771997"><ele>311.0</ele><time>2026-03-23T09:27:40Z</time></trkpt><trkpt lat="45.81851139473851" lon="12.112221143192498"><ele>311.0</ele><time>2026-03-23T09:27:41Z</time></trkpt><trkpt lat="45.81857245732122" lon="12.112269881108794"><ele>311.0</ele><time>2026-03-23T09:27:42Z</time></trkpt><trkpt lat="45.81864679226361" lon="12.11225539880609"><ele>311.0</ele><time>2026-03-23T09:27:43Z</time></trkpt><trkpt lat="45.818725949310874" lon="12.112174297381134"><ele>311.0</ele><time>2026-03-23T09:27:44Z</time></trkpt><trkpt lat="45.81882510177691" lon="12.112080269458742"><ele>310.0</ele><time>2026-03-23T09:27:45Z</time></trkpt><trkpt lat="45.81892996921657" lon="12.112009769046457"><ele>309.0</ele><time>2026-03-23T09:27:46Z</time></trkpt><trkpt lat="45.81902921134511" lon="12.111985026615308"><ele>308.0</ele><time>2026-03-23T09:27:47Z</time></trkpt><trkpt lat="45.81913222126571" lon="12.112087243011944"><ele>307.0</ele><time>2026-03-23T09:27:48Z</time></trkpt><trkpt lat="45.819254910736944" lon="12.112170103507541"><ele>305.75</ele><time>2026-03-23T09:27:49Z</time></trkpt><trkpt lat="45.81937863068883" lon="12.11229787529419"><ele>304.5</ele><time>2026-03-23T09:27:50Z</time></trkpt><trkpt lat="45.81949298116742" lon="12.112427438815576"><ele>303.25</ele><time>2026-03-23T09:27:51Z</time></trkpt><trkpt lat="45.81960536125333" lon="12.112547160825262"><ele>302.0</ele><time>2026-03-23T09:27:52Z</time></trkpt><trkpt lat="45.81970613874387" lon="12.112667620437534"><ele>301.75</ele><time>2026-03-23T09:27:53Z</time></trkpt><trkpt lat="45.81979512842359" lon="12.112775819688206"><ele>301.5</ele><time>2026-03-23T09:27:54Z</time></trkpt><trkpt lat="45.819879528564904" lon="12.112876187010684"><ele>301.25</ele><time>2026-03-23T09:27:55Z</time></trkpt><trkpt lat="45.81997874679372" lon="12.112959039525979"><ele>301.0</ele><time>2026-03-23T09:27:56Z</time></trkpt><trkpt lat="45.820092572334275" lon="12.113019092557343"><ele>298.75</ele><time>2026-03-23T09:27:57Z</time></trkpt><trkpt lat="45.82021766141873" lon="12.113057340930634"><ele>296.5</ele><time>2026-03-23T09:27:58Z</time></trkpt><trkpt lat="45.82034733762227" lon="12.113085264885878"><ele>294.25</ele><time>2026-03-23T09:27:59Z</time></trkpt><trkpt lat="45.82047120586712" lon="12.113083999930883"><ele>292.0</ele><time>2026-03-23T09:28:00Z</time></trkpt><trkpt lat="45.820580592269174" lon="12.113043523209718"><ele>292.0</ele><time>2026-03-23T09:28:01Z</time></trkpt><trkpt lat="45.82068023107025" lon="12.113028583961931"><ele>292.0</ele><time>2026-03-23T09:28:02Z</time></trkpt><trkpt lat="45.82078561019217" lon="12.113042768178106"><ele>292.0</ele><time>2026-03-23T09:28:03Z</time></trkpt><trkpt lat="45.820883483907465" lon="12.11311763102966"><ele>292.0</ele><time>2026-03-23T09:28:03.999Z</time></trkpt><trkpt lat="45.82097010413228" lon="12.1131854630611"><ele>292.0</ele><time>2026-03-23T09:28:04.999Z</time></trkpt><trkpt lat="45.82104734167065" lon="12.113223275655487"><ele>290.0</ele><time>2026-03-23T09:28:05.999Z</time></trkpt><trkpt lat="45.82113025769073" lon="12.113207034952168"><ele>288.0</ele><time>2026-03-23T09:28:06.999Z</time></trkpt><trkpt lat="45.82120999569192" lon="12.11314317131647"><ele>286.0</ele><time>2026-03-23T09:28:07.999Z</time></trkpt><trkpt lat="45.82128283894886" lon="12.113027164638066"><ele>284.0</ele><time>2026-03-23T09:28:08.999Z</time></trkpt><trkpt lat="45.82134917800368" lon="12.112903442571813"><ele>282.0</ele><time>2026-03-23T09:28:09.999Z</time></trkpt><trkpt lat="45.82144197094506" lon="12.112811715206789"><ele>282.0</ele><time>2026-03-23T09:28:10.999Z</time></trkpt><trkpt lat="45.82157227233005" lon="12.112756511507364"><ele>282.0</ele><time>2026-03-23T09:28:11.999Z</time></trkpt><trkpt lat="45.82170678384924" lon="12.112687938201605"><ele>282.0</ele><time>2026-03-23T09:28:12.999Z</time></trkpt><trkpt lat="45.82182775177962" lon="12.112615814003112"><ele>282.0</ele><time>2026-03-23T09:28:13.999Z</time></trkpt><trkpt lat="45.821942362277" lon="12.112558429404375"><ele>280.6666666666667</ele><time>2026-03-23T09:28:14.999Z</time></trkpt><trkpt lat="45.822053146241856" lon="12.11243190611246"><ele>279.33333333333337</ele><time>2026-03-23T09:28:15.999Z</time></trkpt><trkpt lat="45.8221858288801" lon="12.112294695846614"><ele>278.0</ele><time>2026-03-23T09:28:16.999Z</time></trkpt><trkpt lat="45.82231345800605" lon="12.112163903726328"><ele>278.0</ele><time>2026-03-23T09:28:17.999Z</time></trkpt><trkpt lat="45.82242989065934" lon="12.112015566155563"><ele>278.0</ele><time>2026-03-23T09:28:18.999Z</time></trkpt><trkpt lat="45.82254831794738" lon="12.111873579359186"><ele>278.0</ele><time>2026-03-23T09:28:19.999Z</time></trkpt><trkpt lat="45.82262177591927" lon="12.111690352367182"><ele>276.25</ele><time>2026-03-23T09:28:20.999Z</time></trkpt><trkpt lat="45.82269603736719" lon="12.111549845332885"><ele>274.5</ele><time>2026-03-23T09:28:21.999Z</time></trkpt><trkpt lat="45.82279632105597" lon="12.111441110047446"><ele>272.75</ele><time>2026-03-23T09:28:22.999Z</time></trkpt><trkpt lat="45.82291087736021" lon="12.111353826451442"><ele>271.0</ele><time>2026-03-23T09:28:23.999Z</time></trkpt><trkpt lat="45.82302223345975" lon="12.11127089149732"><ele>271.0</ele><time>2026-03-23T09:28:24.999Z</time></trkpt><trkpt lat="45.82311707345641" lon="12.111168958493181"><ele>271.0</ele><time>2026-03-23T09:28:25.999Z</time></trkpt><trkpt lat="45.82321080969321" lon="12.11109390189224"><ele>271.0</ele><time>2026-03-23T09:28:26.999Z</time></trkpt><trkpt lat="45.823320822632205" lon="12.11105715912126"><ele>271.0</ele><time>2026-03-23T09:28:27.999Z</time></trkpt><trkpt lat="45.8234452762173" lon="12.111046915440625"><ele>268.75</ele><time>2026-03-23T09:28:28.999Z</time></trkpt><trkpt lat="45.823571878256836" lon="12.111052323171194"><ele>266.5</ele><time>2026-03-23T09:28:29.999Z</time></trkpt><trkpt lat="45.82369997726189" lon="12.111087590977606"><ele>264.25</ele><time>2026-03-23T09:28:30.999Z</time></trkpt><trkpt lat="45.82383383641869" lon="12.111088930909064"><ele>262.0</ele><time>2026-03-23T09:28:31.999Z</time></trkpt><trkpt lat="45.823960296741724" lon="12.111057140096994"><ele>262.0</ele><time>2026-03-23T09:28:32.999Z</time></trkpt><trkpt lat="45.8240830579688" lon="12.111042339311632"><ele>262.0</ele><time>2026-03-23T09:28:33.999Z</time></trkpt><trkpt lat="45.82420580822778" lon="12.11109229714212"><ele>262.0</ele><time>2026-03-23T09:28:34.999Z</time></trkpt><trkpt lat="45.82432746947667" lon="12.111173603840527"><ele>262.0</ele><time>2026-03-23T09:28:35.999Z</time></trkpt><trkpt lat="45.82442748852721" lon="12.111263674639895"><ele>259.25</ele><time>2026-03-23T09:28:36.999Z</time></trkpt><trkpt lat="45.82455491634713" lon="12.111311782920419"><ele>256.5</ele><time>2026-03-23T09:28:37.999Z</time></trkpt><trkpt lat="45.82471013485518" lon="12.111328270628725"><ele>253.75</ele><time>2026-03-23T09:28:38.999Z</time></trkpt><trkpt lat="45.82485675603779" lon="12.111354586588252"><ele>251.0</ele><time>2026-03-23T09:28:39.999Z</time></trkpt><trkpt lat="45.82498737351657" lon="12.111399107658789"><ele>251.0</ele><time>2026-03-23T09:28:40.999Z</time></trkpt><trkpt lat="45.82508090980651" lon="12.111447533878122"><ele>251.00000000000003</ele><time>2026-03-23T09:28:41.999Z</time></trkpt><trkpt lat="45.82517314062047" lon="12.111487482169267"><ele>251.00000000000003</ele><time>2026-03-23T09:28:42.999Z</time></trkpt><trkpt lat="45.825277546274144" lon="12.111496354008981"><ele>251.0</ele><time>2026-03-23T09:28:43.999Z</time></trkpt><trkpt lat="45.82540909480466" lon="12.111414211748551"><ele>251.0</ele><time>2026-03-23T09:28:44.999Z</time></trkpt><trkpt lat="45.825557631645324" lon="12.11134717518326"><ele>248.8</ele><time>2026-03-23T09:28:45.999Z</time></trkpt><trkpt lat="45.82567996969782" lon="12.111256517956887"><ele>246.60000000000002</ele><time>2026-03-23T09:28:46.999Z</time></trkpt><trkpt lat="45.82577368704603" lon="12.11123000420417"><ele>244.4</ele><time>2026-03-23T09:28:47.999Z</time></trkpt><trkpt lat="45.82584571194869" lon="12.111180042914937"><ele>242.2</ele><time>2026-03-23T09:28:48.999Z</time></trkpt><trkpt lat="45.825938205925716" lon="12.111201671369622"><ele>240.0</ele><time>2026-03-23T09:28:49.999Z</time></trkpt><trkpt lat="45.82602915716125" lon="12.111249499039527"><ele>236.5</ele><time>2026-03-23T09:28:50.999Z</time></trkpt><trkpt lat="45.82614738961786" lon="12.11133164347193"><ele>233.0</ele><time>2026-03-23T09:28:51.999Z</time></trkpt><trkpt lat="45.826248645697916" lon="12.111437457318319"><ele>229.5</ele><time>2026-03-23T09:28:52.999Z</time></trkpt><trkpt lat="45.82641519306456" lon="12.111540773900284"><ele>226.0</ele><time>2026-03-23T09:28:53.999Z</time></trkpt><trkpt lat="45.82654314566611" lon="12.111675132316321"><ele>226.0</ele><time>2026-03-23T09:28:54.999Z</time></trkpt><trkpt lat="45.82663578615239" lon="12.111842760942974"><ele>226.0</ele><time>2026-03-23T09:28:55.999Z</time></trkpt><trkpt lat="45.826684943593825" lon="12.112025255601212"><ele>226.0</ele><time>2026-03-23T09:28:56.999Z</time></trkpt><trkpt lat="45.82673027640041" lon="12.11218354851532"><ele>226.0</ele><time>2026-03-23T09:28:57.999Z</time></trkpt><trkpt lat="45.82679326842758" lon="12.112292015013706"><ele>223.60000000000002</ele><time>2026-03-23T09:28:58.999Z</time></trkpt><trkpt lat="45.826861660292224" lon="12.112391325554173"><ele>221.20000000000002</ele><time>2026-03-23T09:28:59.999Z</time></trkpt><trkpt lat="45.8269556440713" lon="12.112464080465491"><ele>218.79999999999998</ele><time>2026-03-23T09:29:00.999Z</time></trkpt><trkpt lat="45.82706519827302" lon="12.11248716483556"><ele>216.39999999999998</ele><time>2026-03-23T09:29:01.999Z</time></trkpt><trkpt lat="45.82719040448326" lon="12.11248590223068"><ele>214.0</ele><time>2026-03-23T09:29:02.999Z</time></trkpt><trkpt lat="45.82731559420261" lon="12.112560868912983"><ele>213.2</ele><time>2026-03-23T09:29:03.999Z</time></trkpt><trkpt lat="45.827425420956075" lon="12.112657212950914"><ele>212.39999999999998</ele><time>2026-03-23T09:29:04.999Z</time></trkpt><trkpt lat="45.82750002493503" lon="12.112693120871521"><ele>211.6</ele><time>2026-03-23T09:29:05.999Z</time></trkpt><trkpt lat="45.82756587474897" lon="12.112737618223028"><ele>210.8</ele><time>2026-03-23T09:29:06.999Z</time></trkpt><trkpt lat="45.82765306360569" lon="12.112708991936945"><ele>210.0</ele><time>2026-03-23T09:29:07.999Z</time></trkpt><trkpt lat="45.82774396202917" lon="12.112611354196808"><ele>208.0</ele><time>2026-03-23T09:29:08.999Z</time></trkpt><trkpt lat="45.82784347008124" lon="12.112529212974582"><ele>206.0</ele><time>2026-03-23T09:29:09.999Z</time></trkpt><trkpt lat="45.82795244605828" lon="12.11246526415856"><ele>204.0</ele><time>2026-03-23T09:29:10.999Z</time></trkpt><trkpt lat="45.828109076710376" lon="12.11246168825886"><ele>202.0</ele><time>2026-03-23T09:29:11.999Z</time></trkpt><trkpt lat="45.82827255298938" lon="12.112454501927683"><ele>202.0</ele><time>2026-03-23T09:29:12.999Z</time></trkpt><trkpt lat="45.828429931873956" lon="12.112446585476398"><ele>202.0</ele><time>2026-03-23T09:29:13.999Z</time></trkpt><trkpt lat="45.82857694620096" lon="12.1124729492104"><ele>202.0</ele><time>2026-03-23T09:29:15Z</time></trkpt><trkpt lat="45.82867850444642" lon="12.11244151444311"><ele>202.0</ele><time>2026-03-23T09:29:16Z</time></trkpt><trkpt lat="45.82877352382339" lon="12.112402077638773"><ele>200.0</ele><time>2026-03-23T09:29:17Z</time></trkpt><trkpt lat="45.82886810885965" lon="12.11231766072243"><ele>198.0</ele><time>2026-03-23T09:29:18Z</time></trkpt><trkpt lat="45.828969387849845" lon="12.11223615000371"><ele>196.0</ele><time>2026-03-23T09:29:19Z</time></trkpt><trkpt lat="45.82908997928615" lon="12.112217318939646"><ele>194.0</ele><time>2026-03-23T09:29:20Z</time></trkpt><trkpt lat="45.82922940643556" lon="12.112269267828156"><ele>192.33333333333334</ele><time>2026-03-23T09:29:21Z</time></trkpt><trkpt lat="45.829401851203485" lon="12.112289297941812"><ele>190.66666666666669</ele><time>2026-03-23T09:29:22Z</time></trkpt><trkpt lat="45.82956013517165" lon="12.112299156669348"><ele>189.0</ele><time>2026-03-23T09:29:23Z</time></trkpt><trkpt lat="45.8297132870344" lon="12.112251004756052"><ele>189.0</ele><time>2026-03-23T09:29:24Z</time></trkpt><trkpt lat="45.82985997236286" lon="12.11223804312209"><ele>189.0</ele><time>2026-03-23T09:29:25Z</time></trkpt><trkpt lat="45.82999941897187" lon="12.11225442462997"><ele>189.0</ele><time>2026-03-23T09:29:26Z</time></trkpt><trkpt lat="45.8301411736626" lon="12.112235958104502"><ele>189.0</ele><time>2026-03-23T09:29:27Z</time></trkpt><trkpt lat="45.83028469597217" lon="12.11219481389779"><ele>184.5</ele><time>2026-03-23T09:29:28Z</time></trkpt><trkpt lat="45.83042211365126" lon="12.112119391098638"><ele>180.0</ele><time>2026-03-23T09:29:29Z</time></trkpt><trkpt lat="45.83055409262803" lon="12.112067693727804"><ele>175.5</ele><time>2026-03-23T09:29:30Z</time></trkpt><trkpt lat="45.830688882698546" lon="12.112067697545388"><ele>171.0</ele><time>2026-03-23T09:29:31Z</time></trkpt><trkpt lat="45.83082962985073" lon="12.112097453475057"><ele>168.66666666666666</ele><time>2026-03-23T09:29:32Z</time></trkpt><trkpt lat="45.83097588708855" lon="12.11216878178459"><ele>166.33333333333331</ele><time>2026-03-23T09:29:33Z</time></trkpt><trkpt lat="45.8311329204643" lon="12.112220640702708"><ele>164.0</ele><time>2026-03-23T09:29:34Z</time></trkpt><trkpt lat="45.83126497552284" lon="12.112306993809819"><ele>164.0</ele><time>2026-03-23T09:29:35Z</time></trkpt><trkpt lat="45.83137072038508" lon="12.11238907685933"><ele>164.0</ele><time>2026-03-23T09:29:36Z</time></trkpt><trkpt lat="45.83144480153514" lon="12.112479549130743"><ele>164.0</ele><time>2026-03-23T09:29:37Z</time></trkpt><trkpt lat="45.831512700343055" lon="12.11252988538512"><ele>164.0</ele><time>2026-03-23T09:29:38Z</time></trkpt><trkpt lat="45.83160358277285" lon="12.112541587221862"><ele>164.0</ele><time>2026-03-23T09:29:39Z</time></trkpt><trkpt lat="45.831714580533585" lon="12.11248845205166"><ele>163.25</ele><time>2026-03-23T09:29:40Z</time></trkpt><trkpt lat="45.83182608374718" lon="12.112417336425164"><ele>162.5</ele><time>2026-03-23T09:29:41Z</time></trkpt><trkpt lat="45.83193308675423" lon="12.11237650543931"><ele>161.75</ele><time>2026-03-23T09:29:42Z</time></trkpt><trkpt lat="45.83204478010763" lon="12.112411498992016"><ele>161.0</ele><time>2026-03-23T09:29:43Z</time></trkpt><trkpt lat="45.83216945896154" lon="12.112459609876382"><ele>161.0</ele><time>2026-03-23T09:29:44Z</time></trkpt><trkpt lat="45.832275540264774" lon="12.112496950080946"><ele>161.0</ele><time>2026-03-23T09:29:45Z</time></trkpt><trkpt lat="45.83237343305491" lon="12.112496103590829"><ele>161.0</ele><time>2026-03-23T09:29:46Z</time></trkpt><trkpt lat="45.832472094213244" lon="12.112437859737247"><ele>161.0</ele><time>2026-03-23T09:29:47Z</time></trkpt><trkpt lat="45.83256702576074" lon="12.112327538820113"><ele>161.0</ele><time>2026-03-23T09:29:48Z</time></trkpt><trkpt lat="45.83265518317534" lon="12.112212350463203"><ele>156.60000000000002</ele><time>2026-03-23T09:29:49Z</time></trkpt><trkpt lat="45.83272687703477" lon="12.112114616747592"><ele>152.20000000000002</ele><time>2026-03-23T09:29:50Z</time></trkpt><trkpt lat="45.83280762983366" lon="12.112064788859538"><ele>147.8</ele><time>2026-03-23T09:29:51Z</time></trkpt><trkpt lat="45.83289975789646" lon="12.112048115072163"><ele>143.4</ele><time>2026-03-23T09:29:52Z</time></trkpt><trkpt lat="45.8329733205892" lon="12.112114995976507"><ele>139.0</ele><time>2026-03-23T09:29:53Z</time></trkpt><trkpt lat="45.833043000783256" lon="12.112181661525971"><ele>139.0</ele><time>2026-03-23T09:29:54Z</time></trkpt><trkpt lat="45.833085011259115" lon="12.112327283511044"><ele>139.0</ele><time>2026-03-23T09:29:55Z</time></trkpt><trkpt lat="45.833163132043744" lon="12.112486830929143"><ele>139.0</ele><time>2026-03-23T09:29:56Z</time></trkpt><trkpt lat="45.83323371853489" lon="12.11263881053958"><ele>139.0</ele><time>2026-03-23T09:29:57Z</time></trkpt><trkpt lat="45.83330302018431" lon="12.112773837178025"><ele>139.6</ele><time>2026-03-23T09:29:58Z</time></trkpt><trkpt lat="45.833370341356506" lon="12.112897715745925"><ele>140.2</ele><time>2026-03-23T09:29:59Z</time></trkpt><trkpt lat="45.83344293106684" lon="12.112990594320761"><ele>140.79999999999998</ele><time>2026-03-23T09:30:00Z</time></trkpt><trkpt lat="45.83351542412243" lon="12.11306764234352"><ele>141.4</ele><time>2026-03-23T09:30:01Z</time></trkpt><trkpt lat="45.83358344866066" lon="12.113134569890065"><ele>142.0</ele><time>2026-03-23T09:30:02Z</time></trkpt><trkpt lat="45.833657588219815" lon="12.113183511426625"><ele>140.4</ele><time>2026-03-23T09:30:03Z</time></trkpt><trkpt lat="45.83373396063044" lon="12.113210016119016"><ele>138.79999999999998</ele><time>2026-03-23T09:30:04Z</time></trkpt><trkpt lat="45.83382339080127" lon="12.11321771342555"><ele>137.2</ele><time>2026-03-23T09:30:06Z</time></trkpt><trkpt lat="45.83391413045892" lon="12.113240834498308"><ele>135.6</ele><time>2026-03-23T09:30:10Z</time></trkpt><trkpt lat="45.83396845968323" lon="12.11337610716524"><ele>134.0</ele><time>2026-03-23T09:30:12Z</time></trkpt><trkpt lat="45.834011268944884" lon="12.113572580010969"><ele>134.0</ele><time>2026-03-23T09:30:14Z</time></trkpt><trkpt lat="45.83405810292524" lon="12.113726945151704"><ele>134.0</ele><time>2026-03-23T09:30:14.999Z</time></trkpt><trkpt lat="45.83411477440253" lon="12.113925917837621"><ele>134.0</ele><time>2026-03-23T09:30:15.999Z</time></trkpt><trkpt lat="45.8341610078131" lon="12.114102038056965"><ele>134.0</ele><time>2026-03-23T09:30:16.999Z</time></trkpt><trkpt lat="45.834203005054725" lon="12.114268764572085"><ele>134.33333333333331</ele><time>2026-03-23T09:30:17.999Z</time></trkpt><trkpt lat="45.834251805853384" lon="12.114454073828961"><ele>134.66666666666666</ele><time>2026-03-23T09:30:18.999Z</time></trkpt><trkpt lat="45.834314442202775" lon="12.114661264002029"><ele>135.0</ele><time>2026-03-23T09:30:19.999Z</time></trkpt><trkpt lat="45.83437716605716" lon="12.114890028456946"><ele>134.66666666666666</ele><time>2026-03-23T09:30:20.999Z</time></trkpt><trkpt lat="45.834439269881535" lon="12.11512796130534"><ele>134.33333333333331</ele><time>2026-03-23T09:30:21.999Z</time></trkpt><trkpt lat="45.83450360380812" lon="12.115376278005165"><ele>134.0</ele><time>2026-03-23T09:30:22.999Z</time></trkpt><trkpt lat="45.83456729268994" lon="12.115603078351256"><ele>135.0</ele><time>2026-03-23T09:30:23.999Z</time></trkpt><trkpt lat="45.83462752510744" lon="12.11582421914055"><ele>136.0</ele><time>2026-03-23T09:30:24.999Z</time></trkpt><trkpt lat="45.83468553881641" lon="12.116046204141218"><ele>137.0</ele><time>2026-03-23T09:30:25.999Z</time></trkpt><trkpt lat="45.8347441376065" lon="12.116264337669586"><ele>137.0</ele><time>2026-03-23T09:30:26.999Z</time></trkpt><trkpt lat="45.834804531916404" lon="12.116483460709393"><ele>137.0</ele><time>2026-03-23T09:30:27.999Z</time></trkpt><trkpt lat="45.83486204351587" lon="12.11669736216912"><ele>137.0</ele><time>2026-03-23T09:30:28.999Z</time></trkpt><trkpt lat="45.83492567073564" lon="12.116915950619203"><ele>136.66666666666666</ele><time>2026-03-23T09:30:29.999Z</time></trkpt><trkpt lat="45.83498698882833" lon="12.117132269323347"><ele>136.33333333333334</ele><time>2026-03-23T09:30:30.999Z</time></trkpt><trkpt lat="45.83504538918478" lon="12.117346791712961"><ele>136.0</ele><time>2026-03-23T09:30:31.999Z</time></trkpt><trkpt lat="45.83510179094645" lon="12.117553577349682"><ele>135.5</ele><time>2026-03-23T09:30:32.999Z</time></trkpt><trkpt lat="45.83515706738039" lon="12.117755703243843"><ele>135.0</ele><time>2026-03-23T09:30:33.999Z</time></trkpt><trkpt lat="45.83520967354817" lon="12.117947262080373"><ele>134.5</ele><time>2026-03-23T09:30:34.999Z</time></trkpt><trkpt lat="45.835258867767415" lon="12.118146532418171"><ele>134.0</ele><time>2026-03-23T09:30:35.999Z</time></trkpt><trkpt lat="45.83530524362494" lon="12.118343972098707"><ele>134.0</ele><time>2026-03-23T09:30:36.999Z</time></trkpt><trkpt lat="45.83534631325283" lon="12.11855482148903"><ele>134.0</ele><time>2026-03-23T09:30:37.999Z</time></trkpt><trkpt lat="45.83537525361434" lon="12.118791419390522"><ele>134.0</ele><time>2026-03-23T09:30:38.999Z</time></trkpt><trkpt lat="45.8354058357189" lon="12.119039418640746"><ele>133.66666666666666</ele><time>2026-03-23T09:30:39.999Z</time></trkpt><trkpt lat="45.835443081574795" lon="12.119313929176633"><ele>133.33333333333334</ele><time>2026-03-23T09:30:40.999Z</time></trkpt><trkpt lat="45.835483208680735" lon="12.119582320392977"><ele>133.0</ele><time>2026-03-23T09:30:41.999Z</time></trkpt><trkpt lat="45.835545611431705" lon="12.11984535850369"><ele>133.33333333333334</ele><time>2026-03-23T09:30:42.999Z</time></trkpt><trkpt lat="45.83564011276393" lon="12.120105034306569"><ele>133.66666666666666</ele><time>2026-03-23T09:30:43.999Z</time></trkpt><trkpt lat="45.83577151714135" lon="12.12036046076895"><ele>134.0</ele><time>2026-03-23T09:30:44.999Z</time></trkpt><trkpt lat="45.83588880295527" lon="12.120626340752018"><ele>133.0</ele><time>2026-03-23T09:30:45.999Z</time></trkpt><trkpt lat="45.83600263312168" lon="12.120860093038496"><ele>132.0</ele><time>2026-03-23T09:30:46.999Z</time></trkpt><trkpt lat="45.83612140142508" lon="12.121083243516523"><ele>131.0</ele><time>2026-03-23T09:30:47.999Z</time></trkpt><trkpt lat="45.83624223799181" lon="12.121329778708393"><ele>131.0</ele><time>2026-03-23T09:30:48.999Z</time></trkpt><trkpt lat="45.83636630380747" lon="12.121561013586652"><ele>131.0</ele><time>2026-03-23T09:30:49.999Z</time></trkpt><trkpt lat="45.836453470288866" lon="12.121798548235672"><ele>131.0</ele><time>2026-03-23T09:30:50.999Z</time></trkpt><trkpt lat="45.83656336957443" lon="12.122030155505556"><ele>131.66666666666666</ele><time>2026-03-23T09:30:51.999Z</time></trkpt><trkpt lat="45.83665964921463" lon="12.122296846565199"><ele>132.33333333333334</ele><time>2026-03-23T09:30:52.999Z</time></trkpt><trkpt lat="45.83675349281526" lon="12.122589641311853"><ele>133.0</ele><time>2026-03-23T09:30:53.999Z</time></trkpt><trkpt lat="45.83685301668172" lon="12.122905756350665"><ele>131.66666666666669</ele><time>2026-03-23T09:30:54.999Z</time></trkpt><trkpt lat="45.83695454860901" lon="12.123208038934427"><ele>130.33333333333334</ele><time>2026-03-23T09:30:55.999Z</time></trkpt><trkpt lat="45.837033165858024" lon="12.123491596377296"><ele>129.0</ele><time>2026-03-23T09:30:56.999Z</time></trkpt><trkpt lat="45.83711692948981" lon="12.123749190490187"><ele>129.0</ele><time>2026-03-23T09:30:57.999Z</time></trkpt><trkpt lat="45.837221915981154" lon="12.12402390830345"><ele>129.0</ele><time>2026-03-23T09:30:58.999Z</time></trkpt><trkpt lat="45.8373092718687" lon="12.124332032637307"><ele>131.5</ele><time>2026-03-23T09:30:59.999Z</time></trkpt><trkpt lat="45.83742044491144" lon="12.124645910296268"><ele>134.0</ele><time>2026-03-23T09:31:00.999Z</time></trkpt><trkpt lat="45.83754321896602" lon="12.124960628813012"><ele>128.0</ele><time>2026-03-23T09:31:01.999Z</time></trkpt><trkpt lat="45.83768106076911" lon="12.125284036395048"><ele>122.0</ele><time>2026-03-23T09:31:02.999Z</time></trkpt><trkpt lat="45.837827386283344" lon="12.125612455380416"><ele>126.0</ele><time>2026-03-23T09:31:03.999Z</time></trkpt><trkpt lat="45.8379880117039" lon="12.125945249199365"><ele>130.0</ele><time>2026-03-23T09:31:04.999Z</time></trkpt><trkpt lat="45.83814700437418" lon="12.126276576814428"><ele>131.5</ele><time>2026-03-23T09:31:05.999Z</time></trkpt><trkpt lat="45.83829370772093" lon="12.126584637574277"><ele>133.0</ele><time>2026-03-23T09:31:06.999Z</time></trkpt><trkpt lat="45.83843641312622" lon="12.126883272694347"><ele>130.5</ele><time>2026-03-23T09:31:07.999Z</time></trkpt><trkpt lat="45.838571850143595" lon="12.127193490095298"><ele>128.0</ele><time>2026-03-23T09:31:08.999Z</time></trkpt><trkpt lat="45.838707935779404" lon="12.127527925549623"><ele>128.0</ele><time>2026-03-23T09:31:09.999Z</time></trkpt><trkpt lat="45.838846135615206" lon="12.127886023484221"><ele>128.0</ele><time>2026-03-23T09:31:10.999Z</time></trkpt><trkpt lat="45.83897423085361" lon="12.128273454310348"><ele>128.0</ele><time>2026-03-23T09:31:11.999Z</time></trkpt><trkpt lat="45.83910033220918" lon="12.128684375724628"><ele>128.0</ele><time>2026-03-23T09:31:12.999Z</time></trkpt><trkpt lat="45.839236442081656" lon="12.129085882833737"><ele>122.0</ele><time>2026-03-23T09:31:13.999Z</time></trkpt><trkpt lat="45.839362133345276" lon="12.129444661504511"><ele>116.0</ele><time>2026-03-23T09:31:14.999Z</time></trkpt><trkpt lat="45.83947106009405" lon="12.129770832594765"><ele>120.0</ele><time>2026-03-23T09:31:15.999Z</time></trkpt><trkpt lat="45.8395737941481" lon="12.130082118437395"><ele>124.0</ele><time>2026-03-23T09:31:16.999Z</time></trkpt><trkpt lat="45.839664709325135" lon="12.130361696910063"><ele>124.0</ele><time>2026-03-23T09:31:17.999Z</time></trkpt><trkpt lat="45.83974916721708" lon="12.130620269825869"><ele>124.0</ele><time>2026-03-23T09:31:18.999Z</time></trkpt><trkpt lat="45.839827407757475" lon="12.130853204027916"><ele>124.0</ele><time>2026-03-23T09:31:19.999Z</time></trkpt><trkpt lat="45.83991541573857" lon="12.131095227359616"><ele>127.0</ele><time>2026-03-23T09:31:21Z</time></trkpt><trkpt lat="45.83998094218559" lon="12.131391393820936"><ele>130.0</ele><time>2026-03-23T09:31:22Z</time></trkpt><trkpt lat="45.84004039633261" lon="12.13172148746792"><ele>132.0</ele><time>2026-03-23T09:31:23Z</time></trkpt><trkpt lat="45.84009228490386" lon="12.132086226258261"><ele>134.0</ele><time>2026-03-23T09:31:24Z</time></trkpt><trkpt lat="45.840151032159056" lon="12.132412659682153"><ele>131.0</ele><time>2026-03-23T09:31:25Z</time></trkpt><trkpt lat="45.84019291921859" lon="12.132722581399287"><ele>128.0</ele><time>2026-03-23T09:31:26Z</time></trkpt><trkpt lat="45.840241613650356" lon="12.133041457900736"><ele>125.0</ele><time>2026-03-23T09:31:27Z</time></trkpt><trkpt lat="45.84029689193785" lon="12.133339414603835"><ele>125.0</ele><time>2026-03-23T09:31:28Z</time></trkpt><trkpt lat="45.84038003845191" lon="12.133640355649948"><ele>125.0</ele><time>2026-03-23T09:31:29Z</time></trkpt><trkpt lat="45.840483042745966" lon="12.133944389067894"><ele>128.0</ele><time>2026-03-23T09:31:30Z</time></trkpt><trkpt lat="45.840603565889324" lon="12.134237132258471"><ele>131.0</ele><time>2026-03-23T09:31:31Z</time></trkpt><trkpt lat="45.840716210694225" lon="12.134509436405096"><ele>131.0</ele><time>2026-03-23T09:31:32Z</time></trkpt><trkpt lat="45.84082375827402" lon="12.134755646175744"><ele>131.0</ele><time>2026-03-23T09:31:33Z</time></trkpt><trkpt lat="45.840930808971535" lon="12.134984145610865"><ele>131.0</ele><time>2026-03-23T09:31:34Z</time></trkpt><trkpt lat="45.84105468077942" lon="12.135203211760368"><ele>132.33333333333331</ele><time>2026-03-23T09:31:35Z</time></trkpt><trkpt lat="45.84120272190162" lon="12.135421949761346"><ele>133.66666666666666</ele><time>2026-03-23T09:31:36Z</time></trkpt><trkpt lat="45.841359596965205" lon="12.135646334508769"><ele>135.0</ele><time>2026-03-23T09:31:37Z</time></trkpt><trkpt lat="45.84151650482379" lon="12.135841447013613"><ele>135.0</ele><time>2026-03-23T09:31:38Z</time></trkpt><trkpt lat="45.84166300126043" lon="12.136022591228238"><ele>135.0</ele><time>2026-03-23T09:31:39Z</time></trkpt><trkpt lat="45.841797279870875" lon="12.13619535083823"><ele>135.0</ele><time>2026-03-23T09:31:40Z</time></trkpt><trkpt lat="45.841930826912076" lon="12.13635491442775"><ele>132.33333333333334</ele><time>2026-03-23T09:31:41Z</time></trkpt><trkpt lat="45.84205690827432" lon="12.136555369947722"><ele>129.66666666666669</ele><time>2026-03-23T09:31:42Z</time></trkpt><trkpt lat="45.842173062325315" lon="12.136798960962297"><ele>127.0</ele><time>2026-03-23T09:31:43Z</time></trkpt><trkpt lat="45.84228332244566" lon="12.137089084344048"><ele>129.0</ele><time>2026-03-23T09:31:44Z</time></trkpt><trkpt lat="45.84240055498922" lon="12.137398956124168"><ele>131.0</ele><time>2026-03-23T09:31:45Z</time></trkpt><trkpt lat="45.8425059620214" lon="12.137681817803859"><ele>126.5</ele><time>2026-03-23T09:31:46Z</time></trkpt><trkpt lat="45.84264260726909" lon="12.13804850890495"><ele>122.0</ele><time>2026-03-23T09:31:47Z</time></trkpt><trkpt lat="45.842784214810784" lon="12.138428521992072"><ele>122.0</ele><time>2026-03-23T09:31:48Z</time></trkpt><trkpt lat="45.84292001218462" lon="12.138789895043724"><ele>122.0</ele><time>2026-03-23T09:31:49Z</time></trkpt><trkpt lat="45.84306437474289" lon="12.139123902743423"><ele>124.0</ele><time>2026-03-23T09:31:50Z</time></trkpt><trkpt lat="45.84318510015762" lon="12.139442813074254"><ele>126.0</ele><time>2026-03-23T09:31:51Z</time></trkpt><trkpt lat="45.843297056207575" lon="12.139721172612717"><ele>128.33333333333334</ele><time>2026-03-23T09:31:52Z</time></trkpt><trkpt lat="45.843397054247255" lon="12.139991441760133"><ele>130.66666666666669</ele><time>2026-03-23T09:31:53Z</time></trkpt><trkpt lat="45.843498006619406" lon="12.140250781836352"><ele>133.0</ele><time>2026-03-23T09:31:54Z</time></trkpt><trkpt lat="45.843589792840845" lon="12.140514888710861"><ele>129.33333333333334</ele><time>2026-03-23T09:31:55Z</time></trkpt><trkpt lat="45.84367648073358" lon="12.140758106697097"><ele>125.66666666666666</ele><time>2026-03-23T09:31:56Z</time></trkpt><trkpt lat="45.843757570356104" lon="12.140991951208765"><ele>122.0</ele><time>2026-03-23T09:31:57Z</time></trkpt><trkpt lat="45.84382985065672" lon="12.141228878095605"><ele>122.0</ele><time>2026-03-23T09:31:58Z</time></trkpt><trkpt lat="45.84392717458319" lon="12.141477542532755"><ele>122.0</ele><time>2026-03-23T09:31:59Z</time></trkpt><trkpt lat="45.84403551928699" lon="12.141736468572972"><ele>122.0</ele><time>2026-03-23T09:32:00Z</time></trkpt><trkpt lat="45.84416362046961" lon="12.141988768133317"><ele>120.0</ele><time>2026-03-23T09:32:01Z</time></trkpt><trkpt lat="45.84431431351499" lon="12.142240437598117"><ele>118.0</ele><time>2026-03-23T09:32:02Z</time></trkpt><trkpt lat="45.84448965037011" lon="12.142511658841821"><ele>118.0</ele><time>2026-03-23T09:32:03Z</time></trkpt><trkpt lat="45.844687307791624" lon="12.142794743273784"><ele>118.0</ele><time>2026-03-23T09:32:04Z</time></trkpt><trkpt lat="45.84488946074559" lon="12.143076156549395"><ele>121.0</ele><time>2026-03-23T09:32:05Z</time></trkpt><trkpt lat="45.84505928850529" lon="12.143321223764303"><ele>124.0</ele><time>2026-03-23T09:32:06Z</time></trkpt><trkpt lat="45.8451965379388" lon="12.14350839592229"><ele>127.0</ele><time>2026-03-23T09:32:07Z</time></trkpt><trkpt lat="45.84530485266632" lon="12.143672595765617"><ele>122.33333333333334</ele><time>2026-03-23T09:32:08Z</time></trkpt><trkpt lat="45.84538906078132" lon="12.143855899053534"><ele>117.66666666666666</ele><time>2026-03-23T09:32:09Z</time></trkpt><trkpt lat="45.84543981600013" lon="12.144061861945564"><ele>113.0</ele><time>2026-03-23T09:32:10Z</time></trkpt><trkpt lat="45.84546690209638" lon="12.144281373343492"><ele>113.0</ele><time>2026-03-23T09:32:11Z</time></trkpt><trkpt lat="45.845471119061266" lon="12.144539930542695"><ele>113.0</ele><time>2026-03-23T09:32:12Z</time></trkpt><trkpt lat="45.845441942827094" lon="12.144801494699466"><ele>113.0</ele><time>2026-03-23T09:32:12.999Z</time></trkpt><trkpt lat="45.845373438113285" lon="12.145092560056831"><ele>114.0</ele><time>2026-03-23T09:32:13.999Z</time></trkpt><trkpt lat="45.84529190674627" lon="12.14538482273856"><ele>115.0</ele><time>2026-03-23T09:32:14.999Z</time></trkpt><trkpt lat="45.84523516249297" lon="12.145647491108086"><ele>116.0</ele><time>2026-03-23T09:32:15.999Z</time></trkpt><trkpt lat="45.84520564694063" lon="12.145916501223827"><ele>116.66666666666666</ele><time>2026-03-23T09:32:16.999Z</time></trkpt><trkpt lat="45.84520078236709" lon="12.146183666993299"><ele>117.33333333333334</ele><time>2026-03-23T09:32:17.999Z</time></trkpt><trkpt lat="45.84523807322962" lon="12.146456369381132"><ele>118.0</ele><time>2026-03-23T09:32:18.999Z</time></trkpt><trkpt lat="45.845305104012944" lon="12.146728372072852"><ele>118.0</ele><time>2026-03-23T09:32:19.999Z</time></trkpt><trkpt lat="45.84540004404802" lon="12.14700646703416"><ele>118.0</ele><time>2026-03-23T09:32:20.999Z</time></trkpt><trkpt lat="45.84549546653074" lon="12.147287028470956"><ele>118.0</ele><time>2026-03-23T09:32:21.999Z</time></trkpt><trkpt lat="45.845567555598144" lon="12.14755511496956"><ele>120.33333333333334</ele><time>2026-03-23T09:32:22.999Z</time></trkpt><trkpt lat="45.84564251658005" lon="12.147807127815664"><ele>122.66666666666666</ele><time>2026-03-23T09:32:23.999Z</time></trkpt><trkpt lat="45.84572623234639" lon="12.148081046780655"><ele>125.0</ele><time>2026-03-23T09:32:24.999Z</time></trkpt><trkpt lat="45.84582155882736" lon="12.148358809005265"><ele>124.0</ele><time>2026-03-23T09:32:25.999Z</time></trkpt><trkpt lat="45.84595877538149" lon="12.148612226534496"><ele>123.0</ele><time>2026-03-23T09:32:26.999Z</time></trkpt><trkpt lat="45.84608830281598" lon="12.148826649904459"><ele>122.0</ele><time>2026-03-23T09:32:27.999Z</time></trkpt><trkpt lat="45.84619246666201" lon="12.149024000422964"><ele>123.5</ele><time>2026-03-23T09:32:28.999Z</time></trkpt><trkpt lat="45.846294325527694" lon="12.149153756772115"><ele>125.0</ele><time>2026-03-23T09:32:29.999Z</time></trkpt><trkpt lat="45.846367478433116" lon="12.14928201104411"><ele>126.5</ele><time>2026-03-23T09:32:30.999Z</time></trkpt><trkpt lat="45.846391138465364" lon="12.149443417684534"><ele>128.0</ele><time>2026-03-23T09:32:31.999Z</time></trkpt><trkpt lat="45.84638043544347" lon="12.149657879137365"><ele>128.0</ele><time>2026-03-23T09:32:32.999Z</time></trkpt><trkpt lat="45.84632598811131" lon="12.149880227703244"><ele>128.0</ele><time>2026-03-23T09:32:33.999Z</time></trkpt><trkpt lat="45.84624633511813" lon="12.150057273999543"><ele>128.0</ele><time>2026-03-23T09:32:34.999Z</time></trkpt><trkpt lat="45.84617143701551" lon="12.150239033986551"><ele>128.0</ele><time>2026-03-23T09:32:35.999Z</time></trkpt><trkpt lat="45.846156077105675" lon="12.150457239398305"><ele>128.0</ele><time>2026-03-23T09:32:36.999Z</time></trkpt><trkpt lat="45.84617916703584" lon="12.150732970265533"><ele>128.0</ele><time>2026-03-23T09:32:37.999Z</time></trkpt><trkpt lat="45.84621736629506" lon="12.151034231322882"><ele>128.33333333333331</ele><time>2026-03-23T09:32:38.999Z</time></trkpt><trkpt lat="45.84626644289801" lon="12.151326062548515"><ele>128.66666666666666</ele><time>2026-03-23T09:32:39.999Z</time></trkpt><trkpt lat="45.84631359688584" lon="12.151595902252623"><ele>129.0</ele><time>2026-03-23T09:32:40.999Z</time></trkpt><trkpt lat="45.84636019646231" lon="12.151837470361034"><ele>131.0</ele><time>2026-03-23T09:32:41.999Z</time></trkpt><trkpt lat="45.8463841972011" lon="12.152098244955809"><ele>133.0</ele><time>2026-03-23T09:32:42.999Z</time></trkpt><trkpt lat="45.846364598365504" lon="12.15240492086184"><ele>135.0</ele><time>2026-03-23T09:32:43.999Z</time></trkpt><trkpt lat="45.84632746604325" lon="12.1526874638912"><ele>136.66666666666666</ele><time>2026-03-23T09:32:44.999Z</time></trkpt><trkpt lat="45.846299642725256" lon="12.152934931031727"><ele>138.33333333333331</ele><time>2026-03-23T09:32:45.999Z</time></trkpt><trkpt lat="45.84630342917293" lon="12.15316396089829"><ele>140.0</ele><time>2026-03-23T09:32:46.999Z</time></trkpt><trkpt lat="45.84634004633924" lon="12.153386712442508"><ele>140.66666666666666</ele><time>2026-03-23T09:32:47.999Z</time></trkpt><trkpt lat="45.84641507051774" lon="12.153595836749991"><ele>141.33333333333334</ele><time>2026-03-23T09:32:48.999Z</time></trkpt><trkpt lat="45.84654464445965" lon="12.153806917565944"><ele>142.0</ele><time>2026-03-23T09:32:49.999Z</time></trkpt><trkpt lat="45.84671214195221" lon="12.154040114702841"><ele>142.5</ele><time>2026-03-23T09:32:50.999Z</time></trkpt><trkpt lat="45.846907347015005" lon="12.154253048925197"><ele>143.0</ele><time>2026-03-23T09:32:51.999Z</time></trkpt><trkpt lat="45.84706101212699" lon="12.154460897421007"><ele>143.0</ele><time>2026-03-23T09:32:52.999Z</time></trkpt><trkpt lat="45.84719338671205" lon="12.154655332039574"><ele>143.0</ele><time>2026-03-23T09:32:53.999Z</time></trkpt><trkpt lat="45.84733444293486" lon="12.154817543042512"><ele>143.0</ele><time>2026-03-23T09:32:54.999Z</time></trkpt><trkpt lat="45.84742804157725" lon="12.155011658817804"><ele>144.66666666666666</ele><time>2026-03-23T09:32:55.999Z</time></trkpt><trkpt lat="45.847494310871504" lon="12.155207574282667"><ele>146.33333333333334</ele><time>2026-03-23T09:32:56.999Z</time></trkpt><trkpt lat="45.84752787340865" lon="12.155414168648901"><ele>148.0</ele><time>2026-03-23T09:32:57.999Z</time></trkpt><trkpt lat="45.84752369147074" lon="12.15566408681078"><ele>147.0</ele><time>2026-03-23T09:32:58.999Z</time></trkpt><trkpt lat="45.84748043847623" lon="12.155909300678015"><ele>146.0</ele><time>2026-03-23T09:32:59.999Z</time></trkpt><trkpt lat="45.84739394829073" lon="12.156139440709552"><ele>145.0</ele><time>2026-03-23T09:33:00.999Z</time></trkpt><trkpt lat="45.84728181687521" lon="12.156381732150436"><ele>143.0</ele><time>2026-03-23T09:33:01.999Z</time></trkpt><trkpt lat="45.84718894042057" lon="12.156642811804604"><ele>141.0</ele><time>2026-03-23T09:33:02.999Z</time></trkpt><trkpt lat="45.847128935121695" lon="12.15693289540882"><ele>139.0</ele><time>2026-03-23T09:33:03.999Z</time></trkpt><trkpt lat="45.84711443279186" lon="12.157277433437859"><ele>138.0</ele><time>2026-03-23T09:33:04.999Z</time></trkpt><trkpt lat="45.84713191720042" lon="12.157667195637753"><ele>137.0</ele><time>2026-03-23T09:33:05.999Z</time></trkpt><trkpt lat="45.847148119678685" lon="12.15809756135755"><ele>136.0</ele><time>2026-03-23T09:33:06.999Z</time></trkpt><trkpt lat="45.84714551015734" lon="12.158557590591233"><ele>135.0</ele><time>2026-03-23T09:33:07.999Z</time></trkpt><trkpt lat="45.84713717587277" lon="12.159015983744542"><ele>136.0</ele><time>2026-03-23T09:33:08.999Z</time></trkpt><trkpt lat="45.84714052985993" lon="12.159437753334293"><ele>137.0</ele><time>2026-03-23T09:33:09.999Z</time></trkpt><trkpt lat="45.84714260637715" lon="12.159806224444365"><ele>138.33333333333331</ele><time>2026-03-23T09:33:10.999Z</time></trkpt><trkpt lat="45.84713772765941" lon="12.160132615677998"><ele>139.66666666666666</ele><time>2026-03-23T09:33:11.999Z</time></trkpt><trkpt lat="45.8471377164706" lon="12.16042892018597"><ele>141.0</ele><time>2026-03-23T09:33:12.999Z</time></trkpt><trkpt lat="45.84710749491028" lon="12.16069426086311"><ele>141.0</ele><time>2026-03-23T09:33:13.999Z</time></trkpt><trkpt lat="45.84705692230211" lon="12.16096073140337"><ele>141.0</ele><time>2026-03-23T09:33:14.999Z</time></trkpt><trkpt lat="45.846982603609085" lon="12.1612652047029"><ele>141.0</ele><time>2026-03-23T09:33:15.999Z</time></trkpt><trkpt lat="45.84685599074734" lon="12.161545258439965"><ele>144.5</ele><time>2026-03-23T09:33:16.999Z</time></trkpt><trkpt lat="45.846716659220746" lon="12.161829780879465"><ele>148.0</ele><time>2026-03-23T09:33:17.999Z</time></trkpt><trkpt lat="45.84655857787353" lon="12.162144633896695"><ele>148.0</ele><time>2026-03-23T09:33:18.999Z</time></trkpt><trkpt lat="45.846399292806964" lon="12.162481147361849"><ele>148.0</ele><time>2026-03-23T09:33:19.999Z</time></trkpt><trkpt lat="45.84624361894248" lon="12.162761503647252"><ele>148.0</ele><time>2026-03-23T09:33:20.999Z</time></trkpt><trkpt lat="45.84613341379167" lon="12.163010538287418"><ele>148.0</ele><time>2026-03-23T09:33:21.999Z</time></trkpt><trkpt lat="45.84602778233627" lon="12.163206101760917"><ele>148.0</ele><time>2026-03-23T09:33:22.999Z</time></trkpt><trkpt lat="45.84594190338797" lon="12.163401303582406"><ele>149.0</ele><time>2026-03-23T09:33:23.999Z</time></trkpt><trkpt lat="45.84587652451324" lon="12.163623273223331"><ele>150.0</ele><time>2026-03-23T09:33:24.999Z</time></trkpt><trkpt lat="45.845849771314725" lon="12.16389008102307"><ele>151.0</ele><time>2026-03-23T09:33:25.999Z</time></trkpt><trkpt lat="45.84585426799969" lon="12.164150649196694"><ele>151.0</ele><time>2026-03-23T09:33:26.999Z</time></trkpt><trkpt lat="45.84588073390731" lon="12.164367053540463"><ele>151.0</ele><time>2026-03-23T09:33:27.999Z</time></trkpt><trkpt lat="45.84594709219244" lon="12.164576489135063"><ele>151.0</ele><time>2026-03-23T09:33:28.999Z</time></trkpt><trkpt lat="45.84603936128166" lon="12.164796412121397"><ele>149.33333333333334</ele><time>2026-03-23T09:33:29.999Z</time></trkpt><trkpt lat="45.846151664269165" lon="12.164979254731286"><ele>147.66666666666666</ele><time>2026-03-23T09:33:30.999Z</time></trkpt><trkpt lat="45.84628501693339" lon="12.165134860848696"><ele>146.0</ele><time>2026-03-23T09:33:31.999Z</time></trkpt><trkpt lat="45.846441088077704" lon="12.165289073454204"><ele>146.0</ele><time>2026-03-23T09:33:33Z</time></trkpt><trkpt lat="45.84661364862479" lon="12.165452921983722"><ele>146.0</ele><time>2026-03-23T09:33:34Z</time></trkpt><trkpt lat="45.84677432348154" lon="12.165609344028768"><ele>146.0</ele><time>2026-03-23T09:33:35Z</time></trkpt><trkpt lat="45.846911023425584" lon="12.165756997902186"><ele>145.33333333333331</ele><time>2026-03-23T09:33:36Z</time></trkpt><trkpt lat="45.84704458570054" lon="12.165893427350339"><ele>144.66666666666666</ele><time>2026-03-23T09:33:37Z</time></trkpt><trkpt lat="45.847167961232095" lon="12.166011977706276"><ele>144.0</ele><time>2026-03-23T09:33:38Z</time></trkpt><trkpt lat="45.8472792791657" lon="12.166133060650347"><ele>144.0</ele><time>2026-03-23T09:33:39Z</time></trkpt><trkpt lat="45.84739120373794" lon="12.166256739566741"><ele>144.0</ele><time>2026-03-23T09:33:40Z</time></trkpt><trkpt lat="45.84750156814262" lon="12.1663812280701"><ele>144.0</ele><time>2026-03-23T09:33:41Z</time></trkpt><trkpt lat="45.847606522949384" lon="12.166524218552462"><ele>144.0</ele><time>2026-03-23T09:33:42Z</time></trkpt><trkpt lat="45.84770206867327" lon="12.166694800636227"><ele>144.0</ele><time>2026-03-23T09:33:43Z</time></trkpt><trkpt lat="45.84779171851635" lon="12.166880304092148"><ele>144.0</ele><time>2026-03-23T09:33:44Z</time></trkpt><trkpt lat="45.84786019045509" lon="12.167079532514853"><ele>144.0</ele><time>2026-03-23T09:33:45Z</time></trkpt><trkpt lat="45.84790792673709" lon="12.167283612137986"><ele>145.0</ele><time>2026-03-23T09:33:46Z</time></trkpt><trkpt lat="45.84795203660087" lon="12.167490097029296"><ele>146.0</ele><time>2026-03-23T09:33:47Z</time></trkpt><trkpt lat="45.84799801153457" lon="12.167685136056871"><ele>147.0</ele><time>2026-03-23T09:33:48Z</time></trkpt><trkpt lat="45.84804039000227" lon="12.167873254611072"><ele>148.0</ele><time>2026-03-23T09:33:49Z</time></trkpt><trkpt lat="45.8480794529957" lon="12.168057305920478"><ele>148.0</ele><time>2026-03-23T09:33:50Z</time></trkpt><trkpt lat="45.84812468709131" lon="12.168233382887749"><ele>148.0</ele><time>2026-03-23T09:33:51Z</time></trkpt><trkpt lat="45.84817460303537" lon="12.168418243346718"><ele>148.0</ele><time>2026-03-23T09:33:52Z</time></trkpt><trkpt lat="45.84822717390206" lon="12.168606031037264"><ele>148.0</ele><time>2026-03-23T09:33:53Z</time></trkpt><trkpt lat="45.848293082703684" lon="12.168799840139492"><ele>148.0</ele><time>2026-03-23T09:33:54Z</time></trkpt><trkpt lat="45.8483785851058" lon="12.168991629357606"><ele>148.0</ele><time>2026-03-23T09:33:55Z</time></trkpt><trkpt lat="45.84847431698093" lon="12.169185970355093"><ele>148.0</ele><time>2026-03-23T09:33:56Z</time></trkpt><trkpt lat="45.84857815835895" lon="12.169374711494495"><ele>147.33333333333334</ele><time>2026-03-23T09:33:57Z</time></trkpt><trkpt lat="45.84868893663435" lon="12.169555430220653"><ele>146.66666666666666</ele><time>2026-03-23T09:33:58Z</time></trkpt><trkpt lat="45.84878415168628" lon="12.169732763160928"><ele>146.0</ele><time>2026-03-23T09:33:59Z</time></trkpt><trkpt lat="45.848851630887225" lon="12.169918459562433"><ele>146.0</ele><time>2026-03-23T09:34:00Z</time></trkpt><trkpt lat="45.84888641236773" lon="12.170120112844424"><ele>146.0</ele><time>2026-03-23T09:34:01Z</time></trkpt><trkpt lat="45.84890784393089" lon="12.170339445438954"><ele>146.0</ele><time>2026-03-23T09:34:02Z</time></trkpt><trkpt lat="45.84892482941449" lon="12.17057016912953"><ele>146.33333333333331</ele><time>2026-03-23T09:34:03Z</time></trkpt><trkpt lat="45.84893912238075" lon="12.170811342980064"><ele>146.66666666666666</ele><time>2026-03-23T09:34:04Z</time></trkpt><trkpt lat="45.84895746175255" lon="12.171055775937564"><ele>147.0</ele><time>2026-03-23T09:34:05Z</time></trkpt><trkpt lat="45.8489743869572" lon="12.171293698317136"><ele>147.0</ele><time>2026-03-23T09:34:06Z</time></trkpt><trkpt lat="45.848990889128466" lon="12.171525294529681"><ele>147.0</ele><time>2026-03-23T09:34:07Z</time></trkpt><trkpt lat="45.84900771156643" lon="12.17174320152897"><ele>147.0</ele><time>2026-03-23T09:34:08Z</time></trkpt><trkpt lat="45.849011305699925" lon="12.171963172909324"><ele>147.0</ele><time>2026-03-23T09:34:09Z</time></trkpt><trkpt lat="45.84899474796673" lon="12.172178475127453"><ele>147.0</ele><time>2026-03-23T09:34:10Z</time></trkpt><trkpt lat="45.84892022190661" lon="12.172390805534842"><ele>147.0</ele><time>2026-03-23T09:34:11Z</time></trkpt><trkpt lat="45.848818847816055" lon="12.172606173353714"><ele>147.0</ele><time>2026-03-23T09:34:12Z</time></trkpt><trkpt lat="45.848695874202605" lon="12.172822271035162"><ele>147.0</ele><time>2026-03-23T09:34:13Z</time></trkpt><trkpt lat="45.84856920857286" lon="12.173038893118463"><ele>147.0</ele><time>2026-03-23T09:34:14Z</time></trkpt><trkpt lat="45.848441444788776" lon="12.173274859594777"><ele>149.0</ele><time>2026-03-23T09:34:15Z</time></trkpt><trkpt lat="45.84834814835323" lon="12.173578248260892"><ele>151.0</ele><time>2026-03-23T09:34:16Z</time></trkpt><trkpt lat="45.84829006690786" lon="12.173931693204404"><ele>149.0</ele><time>2026-03-23T09:34:17Z</time></trkpt><trkpt lat="45.84822908798609" lon="12.174296445989038"><ele>147.0</ele><time>2026-03-23T09:34:18Z</time></trkpt><trkpt lat="45.84819076994048" lon="12.17461995895513"><ele>146.33333333333334</ele><time>2026-03-23T09:34:19Z</time></trkpt><trkpt lat="45.84813728356697" lon="12.174898554899213"><ele>145.66666666666669</ele><time>2026-03-23T09:34:20Z</time></trkpt><trkpt lat="45.848108936485225" lon="12.175133574698961"><ele>145.0</ele><time>2026-03-23T09:34:21Z</time></trkpt><trkpt lat="45.848111199153664" lon="12.175411732412732"><ele>145.66666666666669</ele><time>2026-03-23T09:34:22Z</time></trkpt><trkpt lat="45.84814282275397" lon="12.17571546533322"><ele>146.33333333333334</ele><time>2026-03-23T09:34:23Z</time></trkpt><trkpt lat="45.84817130371757" lon="12.175993149803935"><ele>147.0</ele><time>2026-03-23T09:34:24Z</time></trkpt><trkpt lat="45.84818684358749" lon="12.176220875206846"><ele>147.0</ele><time>2026-03-23T09:34:24.999Z</time></trkpt><trkpt lat="45.848170836872995" lon="12.176447144030321"><ele>147.0</ele><time>2026-03-23T09:34:25.999Z</time></trkpt><trkpt lat="45.84812297559366" lon="12.17667719840157"><ele>147.0</ele><time>2026-03-23T09:34:26.999Z</time></trkpt><trkpt lat="45.84801860282243" lon="12.176917701475867"><ele>147.5</ele><time>2026-03-23T09:34:27.999Z</time></trkpt><trkpt lat="45.8478833722668" lon="12.177171815142993"><ele>148.0</ele><time>2026-03-23T09:34:28.999Z</time></trkpt><trkpt lat="45.847710313661004" lon="12.177433776187586"><ele>147.5</ele><time>2026-03-23T09:34:29.999Z</time></trkpt><trkpt lat="45.84750750183306" lon="12.17771399865746"><ele>147.0</ele><time>2026-03-23T09:34:30.999Z</time></trkpt><trkpt lat="45.84730822841107" lon="12.178006206058692"><ele>146.5</ele><time>2026-03-23T09:34:31.999Z</time></trkpt><trkpt lat="45.8471326055828" lon="12.178263147591569"><ele>146.0</ele><time>2026-03-23T09:34:32.999Z</time></trkpt><trkpt lat="45.84696466952456" lon="12.178474635955267"><ele>146.0</ele><time>2026-03-23T09:34:33.999Z</time></trkpt><trkpt lat="45.84682368942656" lon="12.178698367311037"><ele>146.0</ele><time>2026-03-23T09:34:34.999Z</time></trkpt><trkpt lat="45.84668160343048" lon="12.17888385671071"><ele>146.0</ele><time>2026-03-23T09:34:35.999Z</time></trkpt><trkpt lat="45.84655042497995" lon="12.179067093310874"><ele>148.33333333333331</ele><time>2026-03-23T09:34:36.999Z</time></trkpt><trkpt lat="45.84642360321959" lon="12.179244155431858"><ele>150.66666666666666</ele><time>2026-03-23T09:34:37.999Z</time></trkpt><trkpt lat="45.84629631773091" lon="12.179411314178124"><ele>153.0</ele><time>2026-03-23T09:34:38.999Z</time></trkpt><trkpt lat="45.84616880717004" lon="12.179593866449325"><ele>153.0</ele><time>2026-03-23T09:34:39.999Z</time></trkpt><trkpt lat="45.846034487545836" lon="12.179794406846865"><ele>153.0</ele><time>2026-03-23T09:34:40.999Z</time></trkpt><trkpt lat="45.84588502883264" lon="12.179989908820883"><ele>153.0</ele><time>2026-03-23T09:34:41.999Z</time></trkpt><trkpt lat="45.845739066490395" lon="12.18018970866712"><ele>152.66666666666666</ele><time>2026-03-23T09:34:43Z</time></trkpt><trkpt lat="45.845605147736514" lon="12.18038551324116"><ele>152.33333333333331</ele><time>2026-03-23T09:34:43.999Z</time></trkpt><trkpt lat="45.845486397670975" lon="12.180570852468962"><ele>152.0</ele><time>2026-03-23T09:34:44.999Z</time></trkpt><trkpt lat="45.84537101717235" lon="12.1807261850515"><ele>152.0</ele><time>2026-03-23T09:34:45.999Z</time></trkpt><trkpt lat="45.84524279912112" lon="12.180854317648118"><ele>152.0</ele><time>2026-03-23T09:34:46.999Z</time></trkpt><trkpt lat="45.84509869404512" lon="12.180925207676285"><ele>152.0</ele><time>2026-03-23T09:34:47.999Z</time></trkpt><trkpt lat="45.844938163875156" lon="12.18101710964228"><ele>154.33333333333331</ele><time>2026-03-23T09:34:48.999Z</time></trkpt><trkpt lat="45.84474546026483" lon="12.181051184945105"><ele>156.66666666666666</ele><time>2026-03-23T09:34:49.999Z</time></trkpt><trkpt lat="45.84451454551957" lon="12.181052948097333"><ele>159.0</ele><time>2026-03-23T09:34:50.999Z</time></trkpt><trkpt lat="45.844254947830954" lon="12.181041806077861"><ele>159.0</ele><time>2026-03-23T09:34:51.999Z</time></trkpt><trkpt lat="45.84400503580969" lon="12.181056881512006"><ele>159.0</ele><time>2026-03-23T09:34:52.999Z</time></trkpt><trkpt lat="45.84377050632307" lon="12.1810785077754"><ele>159.0</ele><time>2026-03-23T09:34:53.999Z</time></trkpt><trkpt lat="45.843529668935815" lon="12.181091331547522"><ele>159.0</ele><time>2026-03-23T09:34:54.999Z</time></trkpt><trkpt lat="45.84328294340284" lon="12.181110113513766"><ele>160.5</ele><time>2026-03-23T09:34:55.999Z</time></trkpt><trkpt lat="45.84302593629367" lon="12.181178373566171"><ele>162.0</ele><time>2026-03-23T09:34:56.999Z</time></trkpt><trkpt lat="45.8427766573377" lon="12.181263329139048"><ele>163.66666666666666</ele><time>2026-03-23T09:34:57.999Z</time></trkpt><trkpt lat="45.84254539893368" lon="12.181336900633388"><ele>165.33333333333331</ele><time>2026-03-23T09:34:58.999Z</time></trkpt><trkpt lat="45.84234188044054" lon="12.181410822339867"><ele>167.0</ele><time>2026-03-23T09:34:59.999Z</time></trkpt><trkpt lat="45.842148335308536" lon="12.181479656268008"><ele>167.33333333333331</ele><time>2026-03-23T09:35:00.999Z</time></trkpt><trkpt lat="45.84194168763573" lon="12.181559022501572"><ele>167.66666666666666</ele><time>2026-03-23T09:35:01.999Z</time></trkpt><trkpt lat="45.841730116417565" lon="12.181680551888316"><ele>168.0</ele><time>2026-03-23T09:35:02.999Z</time></trkpt><trkpt lat="45.841507006065456" lon="12.18185421846446"><ele>168.0</ele><time>2026-03-23T09:35:03.999Z</time></trkpt><trkpt lat="45.84127845383349" lon="12.18204427120095"><ele>168.0</ele><time>2026-03-23T09:35:04.999Z</time></trkpt><trkpt lat="45.841046014685304" lon="12.182256202146215"><ele>170.0</ele><time>2026-03-23T09:35:05.999Z</time></trkpt><trkpt lat="45.840817211732784" lon="12.182484237907602"><ele>172.0</ele><time>2026-03-23T09:35:06.999Z</time></trkpt><trkpt lat="45.84061784477111" lon="12.182683113454951"><ele>172.0</ele><time>2026-03-23T09:35:07.999Z</time></trkpt><trkpt lat="45.84042647978168" lon="12.182852108217643"><ele>172.0</ele><time>2026-03-23T09:35:08.999Z</time></trkpt><trkpt lat="45.84023790594283" lon="12.183042965612273"><ele>173.0</ele><time>2026-03-23T09:35:09.999Z</time></trkpt><trkpt lat="45.8400664393634" lon="12.183209774144927"><ele>174.0</ele><time>2026-03-23T09:35:10.999Z</time></trkpt><trkpt lat="45.83990472457306" lon="12.183356096501951"><ele>175.0</ele><time>2026-03-23T09:35:11.999Z</time></trkpt><trkpt lat="45.83975498355616" lon="12.183498501313727"><ele>175.0</ele><time>2026-03-23T09:35:12.999Z</time></trkpt><trkpt lat="45.839617832325324" lon="12.183642753461019"><ele>175.0</ele><time>2026-03-23T09:35:13.999Z</time></trkpt><trkpt lat="45.83949879224906" lon="12.183818219804087"><ele>175.0</ele><time>2026-03-23T09:35:14.999Z</time></trkpt><trkpt lat="45.83938562343113" lon="12.184066429884538"><ele>176.0</ele><time>2026-03-23T09:35:15.999Z</time></trkpt><trkpt lat="45.839284627637724" lon="12.184339757395781"><ele>177.0</ele><time>2026-03-23T09:35:16.999Z</time></trkpt><trkpt lat="45.839251453470254" lon="12.18453924563329"><ele>178.0</ele><time>2026-03-23T09:35:17.999Z</time></trkpt><trkpt lat="45.83923659896435" lon="12.184828342340841"><ele>177.5</ele><time>2026-03-23T09:35:18.999Z</time></trkpt><trkpt lat="45.83920639124277" lon="12.185152559247612"><ele>177.0</ele><time>2026-03-23T09:35:19.999Z</time></trkpt><trkpt lat="45.83914010236753" lon="12.185475489571425"><ele>174.0</ele><time>2026-03-23T09:35:20.999Z</time></trkpt><trkpt lat="45.83904943185632" lon="12.185810235590703"><ele>171.0</ele><time>2026-03-23T09:35:21.999Z</time></trkpt><trkpt lat="45.83895265908565" lon="12.186104720544556"><ele>171.0</ele><time>2026-03-23T09:35:22.999Z</time></trkpt><trkpt lat="45.838862589805" lon="12.186349008268497"><ele>171.0</ele><time>2026-03-23T09:35:23.999Z</time></trkpt><trkpt lat="45.83879394649795" lon="12.186572077450203"><ele>171.0</ele><time>2026-03-23T09:35:24.999Z</time></trkpt><trkpt lat="45.838704117513636" lon="12.18677410524883"><ele>172.33333333333334</ele><time>2026-03-23T09:35:25.999Z</time></trkpt><trkpt lat="45.838557233070894" lon="12.186968288216256"><ele>173.66666666666669</ele><time>2026-03-23T09:35:26.999Z</time></trkpt><trkpt lat="45.83839365449687" lon="12.187150355140664"><ele>175.0</ele><time>2026-03-23T09:35:27.999Z</time></trkpt><trkpt lat="45.83819161248386" lon="12.187290444004049"><ele>173.0</ele><time>2026-03-23T09:35:28.999Z</time></trkpt><trkpt lat="45.83796774278657" lon="12.187446213878554"><ele>171.0</ele><time>2026-03-23T09:35:29.999Z</time></trkpt><trkpt lat="45.837741805617426" lon="12.187616120948539"><ele>169.0</ele><time>2026-03-23T09:35:30.999Z</time></trkpt><trkpt lat="45.83753639691834" lon="12.187787523038912"><ele>167.0</ele><time>2026-03-23T09:35:32Z</time></trkpt><trkpt lat="45.83733718899119" lon="12.187900027879627"><ele>167.0</ele><time>2026-03-23T09:35:33Z</time></trkpt><trkpt lat="45.83714924380057" lon="12.188035589199638"><ele>167.0</ele><time>2026-03-23T09:35:34Z</time></trkpt><trkpt lat="45.836970784939936" lon="12.188171966280263"><ele>167.0</ele><time>2026-03-23T09:35:35Z</time></trkpt><trkpt lat="45.83680910448308" lon="12.1883248823189"><ele>164.66666666666666</ele><time>2026-03-23T09:35:36Z</time></trkpt><trkpt lat="45.83665450508918" lon="12.188486997730084"><ele>162.33333333333334</ele><time>2026-03-23T09:35:37Z</time></trkpt><trkpt lat="45.83651213069357" lon="12.188667834227768"><ele>160.0</ele><time>2026-03-23T09:35:38Z</time></trkpt><trkpt lat="45.83640298754326" lon="12.188900787482757"><ele>160.0</ele><time>2026-03-23T09:35:39Z</time></trkpt><trkpt lat="45.836309301824805" lon="12.189191311496614"><ele>160.0</ele><time>2026-03-23T09:35:40Z</time></trkpt><trkpt lat="45.83621297616992" lon="12.189565907629477"><ele>156.5</ele><time>2026-03-23T09:35:41Z</time></trkpt><trkpt lat="45.83612360059949" lon="12.189945275642485"><ele>153.0</ele><time>2026-03-23T09:35:42Z</time></trkpt><trkpt lat="45.836043126994234" lon="12.190291581531524"><ele>153.66666666666666</ele><time>2026-03-23T09:35:43Z</time></trkpt><trkpt lat="45.83596671164996" lon="12.190596095960736"><ele>154.33333333333331</ele><time>2026-03-23T09:35:44Z</time></trkpt><trkpt lat="45.83588415352422" lon="12.190863047575409"><ele>155.0</ele><time>2026-03-23T09:35:45Z</time></trkpt><trkpt lat="45.83579141400253" lon="12.191115312592807"><ele>155.0</ele><time>2026-03-23T09:35:46Z</time></trkpt><trkpt lat="45.83569759574999" lon="12.191366975502845"><ele>155.0</ele><time>2026-03-23T09:35:47Z</time></trkpt><trkpt lat="45.8355973225092" lon="12.191589219934503"><ele>155.0</ele><time>2026-03-23T09:35:48Z</time></trkpt><trkpt lat="45.83548504170234" lon="12.191774690939521"><ele>155.5</ele><time>2026-03-23T09:35:49Z</time></trkpt><trkpt lat="45.83539376874732" lon="12.191949489766374"><ele>156.0</ele><time>2026-03-23T09:35:50Z</time></trkpt><trkpt lat="45.83533573214133" lon="12.192119731240432"><ele>156.5</ele><time>2026-03-23T09:35:51Z</time></trkpt><trkpt lat="45.83531855061223" lon="12.192345622623257"><ele>157.0</ele><time>2026-03-23T09:35:52Z</time></trkpt><trkpt lat="45.83533453885126" lon="12.192589352683937"><ele>158.0</ele><time>2026-03-23T09:35:53Z</time></trkpt><trkpt lat="45.83530550789009" lon="12.192796028104649"><ele>159.0</ele><time>2026-03-23T09:35:54Z</time></trkpt><trkpt lat="45.83522845253951" lon="12.193005666204092"><ele>160.0</ele><time>2026-03-23T09:35:55Z</time></trkpt><trkpt lat="45.83509954790197" lon="12.193208203212274"><ele>157.66666666666669</ele><time>2026-03-23T09:35:56Z</time></trkpt><trkpt lat="45.83495054590441" lon="12.193421089341896"><ele>155.33333333333334</ele><time>2026-03-23T09:35:57Z</time></trkpt><trkpt lat="45.834831184261866" lon="12.193612061933157"><ele>153.0</ele><time>2026-03-23T09:35:58Z</time></trkpt><trkpt lat="45.834765253165244" lon="12.193806750652291"><ele>153.0</ele><time>2026-03-23T09:35:59Z</time></trkpt><trkpt lat="45.834719107806386" lon="12.194029261784692"><ele>153.0</ele><time>2026-03-23T09:36:00Z</time></trkpt><trkpt lat="45.834699625855215" lon="12.194271205479687"><ele>153.0</ele><time>2026-03-23T09:36:01Z</time></trkpt><trkpt lat="45.83474004019251" lon="12.194531987183257"><ele>153.0</ele><time>2026-03-23T09:36:02Z</time></trkpt><trkpt lat="45.834827003091334" lon="12.194808272825968"><ele>153.0</ele><time>2026-03-23T09:36:03Z</time></trkpt><trkpt lat="45.83487357574782" lon="12.195056721987799"><ele>153.0</ele><time>2026-03-23T09:36:04Z</time></trkpt><trkpt lat="45.834878655922324" lon="12.195292833318302"><ele>150.5</ele><time>2026-03-23T09:36:05Z</time></trkpt><trkpt lat="45.83483343880118" lon="12.195640520663643"><ele>148.0</ele><time>2026-03-23T09:36:06Z</time></trkpt><trkpt lat="45.834747000156305" lon="12.195965860839118"><ele>146.0</ele><time>2026-03-23T09:36:07Z</time></trkpt><trkpt lat="45.834637746823674" lon="12.19631633902116"><ele>144.0</ele><time>2026-03-23T09:36:08Z</time></trkpt><trkpt lat="45.83454331795854" lon="12.196670772444614"><ele>141.5</ele><time>2026-03-23T09:36:09Z</time></trkpt><trkpt lat="45.83444454342237" lon="12.19698010215711"><ele>139.0</ele><time>2026-03-23T09:36:10Z</time></trkpt><trkpt lat="45.834357051200975" lon="12.197261865917152"><ele>140.33333333333334</ele><time>2026-03-23T09:36:11Z</time></trkpt><trkpt lat="45.83426910080377" lon="12.197513204389326"><ele>141.66666666666666</ele><time>2026-03-23T09:36:12Z</time></trkpt><trkpt lat="45.834187546442514" lon="12.197742843007699"><ele>143.0</ele><time>2026-03-23T09:36:13Z</time></trkpt><trkpt lat="45.83410411554946" lon="12.19796061324641"><ele>141.0</ele><time>2026-03-23T09:36:14Z</time></trkpt><trkpt lat="45.83398921834693" lon="12.198169988143228"><ele>139.0</ele><time>2026-03-23T09:36:15Z</time></trkpt><trkpt lat="45.83383154234923" lon="12.198378029620127"><ele>137.0</ele><time>2026-03-23T09:36:16Z</time></trkpt><trkpt lat="45.83363456530565" lon="12.198548869960451"><ele>137.5</ele><time>2026-03-23T09:36:17Z</time></trkpt><trkpt lat="45.833419921386216" lon="12.198702084636249"><ele>138.0</ele><time>2026-03-23T09:36:18Z</time></trkpt><trkpt lat="45.8332271332076" lon="12.198833233620412"><ele>138.0</ele><time>2026-03-23T09:36:19Z</time></trkpt><trkpt lat="45.83308103321231" lon="12.198967082565943"><ele>138.0</ele><time>2026-03-23T09:36:20Z</time></trkpt><trkpt lat="45.83295003022601" lon="12.199028128966246"><ele>138.0</ele><time>2026-03-23T09:36:21Z</time></trkpt><trkpt lat="45.83279891881712" lon="12.19908363591212"><ele>137.33333333333334</ele><time>2026-03-23T09:36:22Z</time></trkpt><trkpt lat="45.832611695754835" lon="12.199078558215724"><ele>136.66666666666669</ele><time>2026-03-23T09:36:23Z</time></trkpt><trkpt lat="45.83242602631824" lon="12.199086167278026"><ele>136.0</ele><time>2026-03-23T09:36:24Z</time></trkpt><trkpt lat="45.83226086705438" lon="12.199101836356027"><ele>136.0</ele><time>2026-03-23T09:36:25Z</time></trkpt><trkpt lat="45.832088992768476" lon="12.199187822243909"><ele>136.0</ele><time>2026-03-23T09:36:26Z</time></trkpt><trkpt lat="45.83192247139372" lon="12.199322886776915"><ele>136.0</ele><time>2026-03-23T09:36:27Z</time></trkpt><trkpt lat="45.83179657235645" lon="12.199494729277568"><ele>136.0</ele><time>2026-03-23T09:36:28Z</time></trkpt><trkpt lat="45.83169954237923" lon="12.199691815222046"><ele>136.0</ele><time>2026-03-23T09:36:29Z</time></trkpt><trkpt lat="45.83163243705822" lon="12.199912123422358"><ele>136.0</ele><time>2026-03-23T09:36:30Z</time></trkpt><trkpt lat="45.831591369178255" lon="12.200149610682944"><ele>136.0</ele><time>2026-03-23T09:36:31Z</time></trkpt><trkpt lat="45.831559768576916" lon="12.200416957156781"><ele>136.0</ele><time>2026-03-23T09:36:32Z</time></trkpt><trkpt lat="45.83154337864527" lon="12.200711831638559"><ele>136.0</ele><time>2026-03-23T09:36:33Z</time></trkpt><trkpt lat="45.83151029144331" lon="12.200978212173506"><ele>135.66666666666669</ele><time>2026-03-23T09:36:34Z</time></trkpt><trkpt lat="45.831471442536404" lon="12.201215835294935"><ele>135.33333333333334</ele><time>2026-03-23T09:36:35Z</time></trkpt><trkpt lat="45.831411473076756" lon="12.201443246265974"><ele>135.0</ele><time>2026-03-23T09:36:36Z</time></trkpt><trkpt lat="45.83130480779819" lon="12.20168305100544"><ele>134.5</ele><time>2026-03-23T09:36:37Z</time></trkpt><trkpt lat="45.83114966146769" lon="12.201897887497688"><ele>134.0</ele><time>2026-03-23T09:36:38Z</time></trkpt><trkpt lat="45.830956682977074" lon="12.20210236753615"><ele>134.0</ele><time>2026-03-23T09:36:39Z</time></trkpt><trkpt lat="45.830752440592164" lon="12.202306558417096"><ele>134.0</ele><time>2026-03-23T09:36:40Z</time></trkpt><trkpt lat="45.830575022519064" lon="12.202495308808826"><ele>132.66666666666666</ele><time>2026-03-23T09:36:41Z</time></trkpt><trkpt lat="45.830406893825135" lon="12.20264599228979"><ele>131.33333333333334</ele><time>2026-03-23T09:36:42Z</time></trkpt><trkpt lat="45.83022161320701" lon="12.20278080662179"><ele>130.0</ele><time>2026-03-23T09:36:43Z</time></trkpt><trkpt lat="45.83003132845147" lon="12.202899081474772"><ele>130.0</ele><time>2026-03-23T09:36:44Z</time></trkpt><trkpt lat="45.82984414423974" lon="12.202967004763186"><ele>130.0</ele><time>2026-03-23T09:36:45Z</time></trkpt><trkpt lat="45.829678116888125" lon="12.203061937892114"><ele>130.0</ele><time>2026-03-23T09:36:46Z</time></trkpt><trkpt lat="45.829527852581926" lon="12.203135693635915"><ele>128.8</ele><time>2026-03-23T09:36:47Z</time></trkpt><trkpt lat="45.829414086549725" lon="12.203191492886729"><ele>127.6</ele><time>2026-03-23T09:36:48Z</time></trkpt><trkpt lat="45.82931677528542" lon="12.203228677138167"><ele>126.4</ele><time>2026-03-23T09:36:49Z</time></trkpt><trkpt lat="45.82923110729048" lon="12.203226117261101"><ele>125.2</ele><time>2026-03-23T09:36:50Z</time></trkpt><trkpt lat="45.82914762538863" lon="12.203182593689723"><ele>124.0</ele><time>2026-03-23T09:36:50.999Z</time></trkpt><trkpt lat="45.82909826706238" lon="12.203079723740075"><ele>123.0</ele><time>2026-03-23T09:36:51.999Z</time></trkpt><trkpt lat="45.82909055956031" lon="12.202958362063882"><ele>122.0</ele><time>2026-03-23T09:36:52.999Z</time></trkpt><trkpt lat="45.829123261122945" lon="12.202823681986871"><ele>121.0</ele><time>2026-03-23T09:36:53.999Z</time></trkpt><trkpt lat="45.82922498671727" lon="12.20265214539041"><ele>120.0</ele><time>2026-03-23T09:36:54.999Z</time></trkpt><trkpt lat="45.82932377396833" lon="12.202433086845048"><ele>122.66666666666666</ele><time>2026-03-23T09:36:55.999Z</time></trkpt><trkpt lat="45.829442535131726" lon="12.202236379672115"><ele>125.33333333333333</ele><time>2026-03-23T09:36:56.999Z</time></trkpt><trkpt lat="45.829523011489556" lon="12.202037843847574"><ele>128.0</ele><time>2026-03-23T09:36:57.999Z</time></trkpt><trkpt lat="45.8295968887216" lon="12.201884404735432"><ele>128.0</ele><time>2026-03-23T09:36:58.999Z</time></trkpt><trkpt lat="45.82965660884157" lon="12.201762611560056"><ele>128.0</ele><time>2026-03-23T09:36:59.999Z</time></trkpt><trkpt lat="45.82967152094827" lon="12.20163126531857"><ele>128.0</ele><time>2026-03-23T09:37:00.999Z</time></trkpt><trkpt lat="45.82966870091612" lon="12.201492081912752"><ele>128.0</ele><time>2026-03-23T09:37:01.999Z</time></trkpt><trkpt lat="45.82956311708116" lon="12.201363300799235"><ele>128.0</ele><time>2026-03-23T09:37:02.999Z</time></trkpt><trkpt lat="45.82945748331543" lon="12.201291833118335"><ele>128.33333333333331</ele><time>2026-03-23T09:37:03.999Z</time></trkpt><trkpt lat="45.829326501806946" lon="12.201267030812826"><ele>128.66666666666666</ele><time>2026-03-23T09:37:04.999Z</time></trkpt><trkpt lat="45.82915271671387" lon="12.201289285690438"><ele>129.0</ele><time>2026-03-23T09:37:05.999Z</time></trkpt><trkpt lat="45.82895298615516" lon="12.201315945054086"><ele>131.0</ele><time>2026-03-23T09:37:06.999Z</time></trkpt><trkpt lat="45.82872435202859" lon="12.201311383459593"><ele>133.0</ele><time>2026-03-23T09:37:07.999Z</time></trkpt><trkpt lat="45.82849314970445" lon="12.201305780236124"><ele>128.0</ele><time>2026-03-23T09:37:08.999Z</time></trkpt><trkpt lat="45.82824900498133" lon="12.201313730872329"><ele>123.0</ele><time>2026-03-23T09:37:09.999Z</time></trkpt><trkpt lat="45.82801562560153" lon="12.201292190735057"><ele>123.0</ele><time>2026-03-23T09:37:10.999Z</time></trkpt><trkpt lat="45.82778910875347" lon="12.2013123943829"><ele>123.0</ele><time>2026-03-23T09:37:11.999Z</time></trkpt><trkpt lat="45.82758071629699" lon="12.201309318145617"><ele>123.0</ele><time>2026-03-23T09:37:12.999Z</time></trkpt><trkpt lat="45.82738209660071" lon="12.201309725520877"><ele>119.33333333333334</ele><time>2026-03-23T09:37:13.999Z</time></trkpt><trkpt lat="45.82719069602229" lon="12.201306134233855"><ele>115.66666666666667</ele><time>2026-03-23T09:37:14.999Z</time></trkpt><trkpt lat="45.82701612708973" lon="12.201302464436997"><ele>112.0</ele><time>2026-03-23T09:37:15.999Z</time></trkpt><trkpt lat="45.826857524412084" lon="12.20131450073572"><ele>112.0</ele><time>2026-03-23T09:37:16.999Z</time></trkpt><trkpt lat="45.826696556005416" lon="12.201348255450954"><ele>112.0</ele><time>2026-03-23T09:37:17.999Z</time></trkpt><trkpt lat="45.82652937749319" lon="12.201412507350154"><ele>112.0</ele><time>2026-03-23T09:37:18.999Z</time></trkpt><trkpt lat="45.82634097644282" lon="12.201536790819118"><ele>109.0</ele><time>2026-03-23T09:37:19.999Z</time></trkpt><trkpt lat="45.82615429053477" lon="12.201673807634343"><ele>106.0</ele><time>2026-03-23T09:37:20.999Z</time></trkpt><trkpt lat="45.82597891572538" lon="12.201792417132493"><ele>103.0</ele><time>2026-03-23T09:37:21.999Z</time></trkpt><trkpt lat="45.825813666026924" lon="12.201901082871915"><ele>102.0</ele><time>2026-03-23T09:37:22.999Z</time></trkpt><trkpt lat="45.82565860315822" lon="12.202001129980655"><ele>101.0</ele><time>2026-03-23T09:37:23.999Z</time></trkpt><trkpt lat="45.825522778526576" lon="12.20208868025634"><ele>100.0</ele><time>2026-03-23T09:37:24.999Z</time></trkpt><trkpt lat="45.825408115168614" lon="12.202165864398268"><ele>99.0</ele><time>2026-03-23T09:37:25.999Z</time></trkpt><trkpt lat="45.82529671580061" lon="12.20224181321186"><ele>99.0</ele><time>2026-03-23T09:37:26.999Z</time></trkpt><trkpt lat="45.82519098479334" lon="12.20232938582154"><ele>99.0</ele><time>2026-03-23T09:37:27.999Z</time></trkpt><trkpt lat="45.825096782059006" lon="12.202440876817453"><ele>99.0</ele><time>2026-03-23T09:37:28.999Z</time></trkpt><trkpt lat="45.82501056145882" lon="12.202557260064705"><ele>99.0</ele><time>2026-03-23T09:37:29.999Z</time></trkpt><trkpt lat="45.82493626786224" lon="12.202680881837527"><ele>98.0</ele><time>2026-03-23T09:37:30.999Z</time></trkpt><trkpt lat="45.82487587446886" lon="12.202815818800131"><ele>97.0</ele><time>2026-03-23T09:37:31.999Z</time></trkpt><trkpt lat="45.824829527570735" lon="12.202959719843738"><ele>96.0</ele><time>2026-03-23T09:37:32.999Z</time></trkpt><trkpt lat="45.82480871604936" lon="12.20314018849475"><ele>95.0</ele><time>2026-03-23T09:37:33.999Z</time></trkpt><trkpt lat="45.82478765691196" lon="12.20333525630643"><ele>94.0</ele><time>2026-03-23T09:37:34.999Z</time></trkpt><trkpt lat="45.82476803887344" lon="12.203538045388912"><ele>93.0</ele><time>2026-03-23T09:37:35.999Z</time></trkpt><trkpt lat="45.82476247481704" lon="12.203724921834926"><ele>92.0</ele><time>2026-03-23T09:37:37Z</time></trkpt><trkpt lat="45.82476167384202" lon="12.203879403048418"><ele>91.0</ele><time>2026-03-23T09:37:38Z</time></trkpt><trkpt lat="45.824751117548246" lon="12.2040106379979"><ele>91.0</ele><time>2026-03-23T09:37:39Z</time></trkpt><trkpt lat="45.824740885007174" lon="12.204140260921925"><ele>91.0</ele><time>2026-03-23T09:37:40Z</time></trkpt><trkpt lat="45.824723447615" lon="12.204255734251761"><ele>91.0</ele><time>2026-03-23T09:37:41Z</time></trkpt><trkpt lat="45.82470473203131" lon="12.204365356119071"><ele>91.0</ele><time>2026-03-23T09:37:42Z</time></trkpt><trkpt lat="45.824662014923604" lon="12.204485169713704"><ele>91.0</ele><time>2026-03-23T09:37:44Z</time></trkpt><trkpt lat="45.82465095747442" lon="12.20460291133137"><ele>91.0</ele><time>2026-03-23T09:37:47Z</time></trkpt><trkpt lat="45.82470085853048" lon="12.204791420979735"><ele>91.0</ele><time>2026-03-23T09:37:49Z</time></trkpt><trkpt lat="45.82475074176148" lon="12.204910460945763"><ele>91.0</ele><time>2026-03-23T09:37:50Z</time></trkpt><trkpt lat="45.82480041716972" lon="12.205062550713187"><ele>91.0</ele><time>2026-03-23T09:37:51Z</time></trkpt><trkpt lat="45.824836539107245" lon="12.205233213289567"><ele>91.0</ele><time>2026-03-23T09:37:52Z</time></trkpt><trkpt lat="45.82486192408057" lon="12.205400233377269"><ele>91.0</ele><time>2026-03-23T09:37:53Z</time></trkpt><trkpt lat="45.82488533845975" lon="12.205551536674646"><ele>91.0</ele><time>2026-03-23T09:37:54Z</time></trkpt><trkpt lat="45.82491068048863" lon="12.205706159567516"><ele>91.0</ele><time>2026-03-23T09:37:55Z</time></trkpt><trkpt lat="45.82493490838235" lon="12.205872656358252"><ele>91.0</ele><time>2026-03-23T09:37:56Z</time></trkpt><trkpt lat="45.824957586767944" lon="12.206050785185534"><ele>90.5</ele><time>2026-03-23T09:37:57Z</time></trkpt><trkpt lat="45.82498459836626" lon="12.206236345593675"><ele>90.0</ele><time>2026-03-23T09:37:58Z</time></trkpt><trkpt lat="45.825015487279366" lon="12.206423034310658"><ele>89.5</ele><time>2026-03-23T09:37:59Z</time></trkpt><trkpt lat="45.82504620882261" lon="12.206618136136163"><ele>89.0</ele><time>2026-03-23T09:38:00Z</time></trkpt><trkpt lat="45.825070198968604" lon="12.206812614905399"><ele>88.75</ele><time>2026-03-23T09:38:01Z</time></trkpt><trkpt lat="45.82510249524023" lon="12.207007051700764"><ele>88.5</ele><time>2026-03-23T09:38:02Z</time></trkpt><trkpt lat="45.82513356881738" lon="12.207200995153174"><ele>88.25</ele><time>2026-03-23T09:38:03Z</time></trkpt><trkpt lat="45.82515744888359" lon="12.207385685493072"><ele>88.0</ele><time>2026-03-23T09:38:04Z</time></trkpt><trkpt lat="45.82517898356278" lon="12.207561466872962"><ele>88.5</ele><time>2026-03-23T09:38:05Z</time></trkpt><trkpt lat="45.82520308651245" lon="12.207731081773417"><ele>89.0</ele><time>2026-03-23T09:38:06Z</time></trkpt><trkpt lat="45.82523109399444" lon="12.207896633940038"><ele>89.5</ele><time>2026-03-23T09:38:07Z</time></trkpt><trkpt lat="45.82525824442713" lon="12.208067535618067"><ele>90.0</ele><time>2026-03-23T09:38:08Z</time></trkpt><trkpt lat="45.82528490868379" lon="12.208240551097264"><ele>90.0</ele><time>2026-03-23T09:38:09Z</time></trkpt><trkpt lat="45.82531527272385" lon="12.208430807118395"><ele>90.0</ele><time>2026-03-23T09:38:10Z</time></trkpt><trkpt lat="45.82534494481623" lon="12.20862509476777"><ele>90.0</ele><time>2026-03-23T09:38:11Z</time></trkpt><trkpt lat="45.82537504023803" lon="12.208807477536972"><ele>90.0</ele><time>2026-03-23T09:38:12Z</time></trkpt><trkpt lat="45.82540640381416" lon="12.208968034752294"><ele>89.0</ele><time>2026-03-23T09:38:13Z</time></trkpt><trkpt lat="45.825438647050724" lon="12.20912826496821"><ele>88.0</ele><time>2026-03-23T09:38:14Z</time></trkpt><trkpt lat="45.82545613153825" lon="12.209268496764711"><ele>87.0</ele><time>2026-03-23T09:38:15Z</time></trkpt><trkpt lat="45.82547447533996" lon="12.209394379759596"><ele>86.0</ele><time>2026-03-23T09:38:16Z</time></trkpt><trkpt lat="45.825491281918715" lon="12.209489538598033"><ele>85.0</ele><time>2026-03-23T09:38:17Z</time></trkpt><trkpt lat="45.825506587138236" lon="12.209577384150505"><ele>84.0</ele><time>2026-03-23T09:38:18Z</time></trkpt><trkpt lat="45.825525726538515" lon="12.209714142322493"><ele>84.0</ele><time>2026-03-23T09:38:20Z</time></trkpt><trkpt lat="45.8255339492519" lon="12.209806228440678"><ele>84.0</ele><time>2026-03-23T09:38:22Z</time></trkpt><trkpt lat="45.82556216213908" lon="12.20992473052633"><ele>84.0</ele><time>2026-03-23T09:38:49Z</time></trkpt><trkpt lat="45.825577582000214" lon="12.210015316555884"><ele>84.0</ele><time>2026-03-23T09:38:50Z</time></trkpt><trkpt lat="45.82559344833363" lon="12.210113620736598"><ele>84.0</ele><time>2026-03-23T09:38:51Z</time></trkpt><trkpt lat="45.825604231516685" lon="12.210207598200233"><ele>84.0</ele><time>2026-03-23T09:38:52Z</time></trkpt><trkpt lat="45.825617176072676" lon="12.21031882751534"><ele>84.0</ele><time>2026-03-23T09:38:53Z</time></trkpt><trkpt lat="45.82564396409431" lon="12.210451657571806"><ele>83.4</ele><time>2026-03-23T09:38:54Z</time></trkpt><trkpt lat="45.825667903379816" lon="12.210595747680175"><ele>82.80000000000001</ele><time>2026-03-23T09:38:55Z</time></trkpt><trkpt lat="45.825683693400364" lon="12.210733325039463"><ele>82.19999999999999</ele><time>2026-03-23T09:38:56Z</time></trkpt><trkpt lat="45.82569608983552" lon="12.210887305214305"><ele>81.6</ele><time>2026-03-23T09:38:57Z</time></trkpt><trkpt lat="45.82569800599345" lon="12.21106354503195"><ele>81.0</ele><time>2026-03-23T09:38:58Z</time></trkpt><trkpt lat="45.82568896382561" lon="12.211257341255907"><ele>80.5</ele><time>2026-03-23T09:38:59Z</time></trkpt><trkpt lat="45.82566806741092" lon="12.211445199526606"><ele>80.0</ele><time>2026-03-23T09:39:00Z</time></trkpt><trkpt lat="45.82563134741576" lon="12.211621506673913"><ele>79.5</ele><time>2026-03-23T09:39:01Z</time></trkpt><trkpt lat="45.82557639390861" lon="12.211812691744145"><ele>79.0</ele><time>2026-03-23T09:39:02Z</time></trkpt><trkpt lat="45.82550556223276" lon="12.212014660155065"><ele>78.66666666666666</ele><time>2026-03-23T09:39:03Z</time></trkpt><trkpt lat="45.82541436547715" lon="12.212229778420792"><ele>78.33333333333333</ele><time>2026-03-23T09:39:04Z</time></trkpt><trkpt lat="45.82530607961205" lon="12.212452948241816"><ele>78.0</ele><time>2026-03-23T09:39:05Z</time></trkpt><trkpt lat="45.82520955776242" lon="12.212662631947914"><ele>78.0</ele><time>2026-03-23T09:39:06Z</time></trkpt><trkpt lat="45.82510473241566" lon="12.212898221138104"><ele>78.0</ele><time>2026-03-23T09:39:07Z</time></trkpt><trkpt lat="45.82499007928048" lon="12.21314369734865"><ele>78.0</ele><time>2026-03-23T09:39:08Z</time></trkpt><trkpt lat="45.82488808030167" lon="12.213379932084017"><ele>78.0</ele><time>2026-03-23T09:39:08.999Z</time></trkpt><trkpt lat="45.824803676381954" lon="12.213638884062759"><ele>78.0</ele><time>2026-03-23T09:39:09.999Z</time></trkpt><trkpt lat="45.82471983141015" lon="12.213915382727496"><ele>78.0</ele><time>2026-03-23T09:39:10.999Z</time></trkpt><trkpt lat="45.82463361717329" lon="12.214179315240147"><ele>77.33333333333333</ele><time>2026-03-23T09:39:11.999Z</time></trkpt><trkpt lat="45.82455086372844" lon="12.214423096226772"><ele>76.66666666666666</ele><time>2026-03-23T09:39:12.999Z</time></trkpt><trkpt lat="45.82446778580753" lon="12.214673476686563"><ele>76.0</ele><time>2026-03-23T09:39:13.999Z</time></trkpt><trkpt lat="45.82438143897445" lon="12.214934521640815"><ele>75.66666666666666</ele><time>2026-03-23T09:39:14.999Z</time></trkpt><trkpt lat="45.824305827079954" lon="12.215152527712238"><ele>75.33333333333333</ele><time>2026-03-23T09:39:15.999Z</time></trkpt><trkpt lat="45.824223444310924" lon="12.215403438925973"><ele>75.0</ele><time>2026-03-23T09:39:16.999Z</time></trkpt><trkpt lat="45.824143480469836" lon="12.215660758450646"><ele>75.0</ele><time>2026-03-23T09:39:17.999Z</time></trkpt><trkpt lat="45.82407175126927" lon="12.215933458782082"><ele>75.0</ele><time>2026-03-23T09:39:18.999Z</time></trkpt><trkpt lat="45.8240095084779" lon="12.216228880817521"><ele>75.0</ele><time>2026-03-23T09:39:19.999Z</time></trkpt><trkpt lat="45.82394131083252" lon="12.216524826693606"><ele>74.33333333333333</ele><time>2026-03-23T09:39:20.999Z</time></trkpt><trkpt lat="45.82386850124319" lon="12.216828260453706"><ele>73.66666666666666</ele><time>2026-03-23T09:39:21.999Z</time></trkpt><trkpt lat="45.82379900694227" lon="12.217133747832214"><ele>73.0</ele><time>2026-03-23T09:39:22.999Z</time></trkpt><trkpt lat="45.82373319962753" lon="12.217430281912506"><ele>73.0</ele><time>2026-03-23T09:39:23.999Z</time></trkpt><trkpt lat="45.823676354187754" lon="12.217693641427365"><ele>73.0</ele><time>2026-03-23T09:39:24.999Z</time></trkpt><trkpt lat="45.82361751010342" lon="12.21793774841976"><ele>73.0</ele><time>2026-03-23T09:39:25.999Z</time></trkpt><trkpt lat="45.8235670311056" lon="12.218168147355222"><ele>72.33333333333333</ele><time>2026-03-23T09:39:26.999Z</time></trkpt><trkpt lat="45.823514829035545" lon="12.218398485301739"><ele>71.66666666666667</ele><time>2026-03-23T09:39:27.999Z</time></trkpt><trkpt lat="45.823441105950224" lon="12.218646706558248"><ele>71.0</ele><time>2026-03-23T09:39:28.999Z</time></trkpt><trkpt lat="45.82337645852992" lon="12.218923830249047"><ele>74.0</ele><time>2026-03-23T09:39:29.999Z</time></trkpt><trkpt lat="45.82330603972618" lon="12.219225694205448"><ele>77.0</ele><time>2026-03-23T09:39:30.999Z</time></trkpt><trkpt lat="45.82323211113172" lon="12.219541031476732"><ele>76.33333333333334</ele><time>2026-03-23T09:39:31.999Z</time></trkpt><trkpt lat="45.823157032092794" lon="12.219845109179554"><ele>75.66666666666667</ele><time>2026-03-23T09:39:32.999Z</time></trkpt><trkpt lat="45.823081344336615" lon="12.220120612650886"><ele>75.0</ele><time>2026-03-23T09:39:33.999Z</time></trkpt><trkpt lat="45.823015215285736" lon="12.220378353498624"><ele>75.0</ele><time>2026-03-23T09:39:34.999Z</time></trkpt><trkpt lat="45.82291022415811" lon="12.220618231930894"><ele>75.0</ele><time>2026-03-23T09:39:35.999Z</time></trkpt><trkpt lat="45.822812484460734" lon="12.220871937243082"><ele>75.0</ele><time>2026-03-23T09:39:36.999Z</time></trkpt><trkpt lat="45.82268651860991" lon="12.22112179325064"><ele>75.33333333333333</ele><time>2026-03-23T09:39:37.999Z</time></trkpt><trkpt lat="45.82256295162171" lon="12.221370949748632"><ele>75.66666666666666</ele><time>2026-03-23T09:39:38.999Z</time></trkpt><trkpt lat="45.82244649068387" lon="12.221612775559656"><ele>76.0</ele><time>2026-03-23T09:39:39.999Z</time></trkpt><trkpt lat="45.822341315307796" lon="12.221844658512111"><ele>76.33333333333333</ele><time>2026-03-23T09:39:40.999Z</time></trkpt><trkpt lat="45.82224044336985" lon="12.222054287632663"><ele>76.66666666666667</ele><time>2026-03-23T09:39:41.999Z</time></trkpt><trkpt lat="45.822141318755754" lon="12.222249473708704"><ele>77.0</ele><time>2026-03-23T09:39:43Z</time></trkpt><trkpt lat="45.82204823058634" lon="12.222445493928006"><ele>77.0</ele><time>2026-03-23T09:39:44Z</time></trkpt><trkpt lat="45.821946897408935" lon="12.2226106124744"><ele>77.0</ele><time>2026-03-23T09:39:45Z</time></trkpt><trkpt lat="45.82181559732185" lon="12.222734041857134"><ele>77.0</ele><time>2026-03-23T09:39:46Z</time></trkpt><trkpt lat="45.82165171105574" lon="12.222816970710669"><ele>76.33333333333334</ele><time>2026-03-23T09:39:47Z</time></trkpt><trkpt lat="45.82146450409244" lon="12.222887102758111"><ele>75.66666666666667</ele><time>2026-03-23T09:39:48Z</time></trkpt><trkpt lat="45.82125989436271" lon="12.22298741436321"><ele>75.0</ele><time>2026-03-23T09:39:49Z</time></trkpt><trkpt lat="45.821043494652606" lon="12.223076246767159"><ele>76.0</ele><time>2026-03-23T09:39:50Z</time></trkpt><trkpt lat="45.820816901934435" lon="12.223171037208825"><ele>77.0</ele><time>2026-03-23T09:39:51Z</time></trkpt><trkpt lat="45.82058076820684" lon="12.223270835836763"><ele>77.0</ele><time>2026-03-23T09:39:52Z</time></trkpt><trkpt lat="45.82033683386172" lon="12.223373534024184"><ele>77.0</ele><time>2026-03-23T09:39:53Z</time></trkpt><trkpt lat="45.82008829225595" lon="12.223482981259213"><ele>75.0</ele><time>2026-03-23T09:39:54Z</time></trkpt><trkpt lat="45.819839723537065" lon="12.223591825817966"><ele>73.0</ele><time>2026-03-23T09:39:55Z</time></trkpt><trkpt lat="45.819588051843795" lon="12.223695746512359"><ele>73.0</ele><time>2026-03-23T09:39:56Z</time></trkpt><trkpt lat="45.81933643341892" lon="12.223801015813368"><ele>73.0</ele><time>2026-03-23T09:39:57Z</time></trkpt><trkpt lat="45.81908490107601" lon="12.223902938128271"><ele>74.0</ele><time>2026-03-23T09:39:58Z</time></trkpt><trkpt lat="45.818829712690835" lon="12.224009332117525"><ele>75.0</ele><time>2026-03-23T09:39:59Z</time></trkpt><trkpt lat="45.81858994107587" lon="12.224114387074021"><ele>74.66666666666667</ele><time>2026-03-23T09:40:00Z</time></trkpt><trkpt lat="45.81837130072312" lon="12.224210648461376"><ele>74.33333333333334</ele><time>2026-03-23T09:40:01Z</time></trkpt><trkpt lat="45.81817114177093" lon="12.224293978806735"><ele>74.0</ele><time>2026-03-23T09:40:02Z</time></trkpt><trkpt lat="45.81798854430109" lon="12.22436818467122"><ele>74.0</ele><time>2026-03-23T09:40:03Z</time></trkpt><trkpt lat="45.817826343188045" lon="12.224450979224478"><ele>74.0</ele><time>2026-03-23T09:40:04Z</time></trkpt><trkpt lat="45.8176632256438" lon="12.22457075796046"><ele>74.0</ele><time>2026-03-23T09:40:05Z</time></trkpt><trkpt lat="45.81750895570887" lon="12.224753328349717"><ele>73.66666666666667</ele><time>2026-03-23T09:40:06Z</time></trkpt><trkpt lat="45.81736699454797" lon="12.224977629325954"><ele>73.33333333333333</ele><time>2026-03-23T09:40:07Z</time></trkpt><trkpt lat="45.81722452588465" lon="12.225239123415495"><ele>73.0</ele><time>2026-03-23T09:40:08Z</time></trkpt><trkpt lat="45.8170687630652" lon="12.22552789864825"><ele>72.5</ele><time>2026-03-23T09:40:09Z</time></trkpt><trkpt lat="45.81689794739047" lon="12.225816720801543"><ele>72.0</ele><time>2026-03-23T09:40:10Z</time></trkpt><trkpt lat="45.816715238308134" lon="12.226126842173326"><ele>72.0</ele><time>2026-03-23T09:40:11Z</time></trkpt><trkpt lat="45.81652966269464" lon="12.226446227634717"><ele>72.0</ele><time>2026-03-23T09:40:12Z</time></trkpt><trkpt lat="45.81634227725018" lon="12.226777658404835"><ele>71.5</ele><time>2026-03-23T09:40:13Z</time></trkpt><trkpt lat="45.81615405041186" lon="12.227108572221626"><ele>71.0</ele><time>2026-03-23T09:40:14Z</time></trkpt><trkpt lat="45.815967882933265" lon="12.227440299735791"><ele>71.0</ele><time>2026-03-23T09:40:15Z</time></trkpt><trkpt lat="45.815781544522146" lon="12.227767749520762"><ele>71.0</ele><time>2026-03-23T09:40:16Z</time></trkpt><trkpt lat="45.81558884496595" lon="12.228092272455136"><ele>71.0</ele><time>2026-03-23T09:40:17Z</time></trkpt><trkpt lat="45.8153992428448" lon="12.228415614415297"><ele>71.0</ele><time>2026-03-23T09:40:18Z</time></trkpt><trkpt lat="45.81521735714751" lon="12.228735388268216"><ele>70.5</ele><time>2026-03-23T09:40:19Z</time></trkpt><trkpt lat="45.8150444532322" lon="12.229047711661341"><ele>70.0</ele><time>2026-03-23T09:40:20Z</time></trkpt><trkpt lat="45.814880703510624" lon="12.2293356901592"><ele>70.0</ele><time>2026-03-23T09:40:21Z</time></trkpt><trkpt lat="45.81472831455924" lon="12.229594309227416"><ele>70.0</ele><time>2026-03-23T09:40:22Z</time></trkpt><trkpt lat="45.81457763561626" lon="12.2298482797442"><ele>70.0</ele><time>2026-03-23T09:40:23Z</time></trkpt><trkpt lat="45.81442449992497" lon="12.230109058528067"><ele>70.0</ele><time>2026-03-23T09:40:24Z</time></trkpt><trkpt lat="45.81427737508783" lon="12.230379464930508"><ele>69.0</ele><time>2026-03-23T09:40:25Z</time></trkpt><trkpt lat="45.81413631577398" lon="12.230649095555139"><ele>68.0</ele><time>2026-03-23T09:40:26Z</time></trkpt><trkpt lat="45.81398809898862" lon="12.230909360956797"><ele>68.0</ele><time>2026-03-23T09:40:27Z</time></trkpt><trkpt lat="45.813838623267536" lon="12.231177381456616"><ele>68.0</ele><time>2026-03-23T09:40:28Z</time></trkpt><trkpt lat="45.81369227064918" lon="12.231458732015124"><ele>68.5</ele><time>2026-03-23T09:40:29Z</time></trkpt><trkpt lat="45.81353142523208" lon="12.23174232428071"><ele>69.0</ele><time>2026-03-23T09:40:30Z</time></trkpt><trkpt lat="45.81336021554061" lon="12.23202272498555"><ele>69.0</ele><time>2026-03-23T09:40:31Z</time></trkpt><trkpt lat="45.81318665968512" lon="12.232291152484386"><ele>69.0</ele><time>2026-03-23T09:40:32Z</time></trkpt><trkpt lat="45.81303284501323" lon="12.232527599183763"><ele>69.33333333333333</ele><time>2026-03-23T09:40:33Z</time></trkpt><trkpt lat="45.81289741725393" lon="12.232763821677791"><ele>69.66666666666666</ele><time>2026-03-23T09:40:34Z</time></trkpt><trkpt lat="45.812761691753145" lon="12.232995412892608"><ele>70.0</ele><time>2026-03-23T09:40:35Z</time></trkpt><trkpt lat="45.81262622416108" lon="12.233230527892065"><ele>70.33333333333333</ele><time>2026-03-23T09:40:36Z</time></trkpt><trkpt lat="45.81250246292211" lon="12.233457644199657"><ele>70.66666666666667</ele><time>2026-03-23T09:40:37Z</time></trkpt><trkpt lat="45.81238629783499" lon="12.233671273246046"><ele>71.0</ele><time>2026-03-23T09:40:38Z</time></trkpt><trkpt lat="45.81225861670286" lon="12.233887861603511"><ele>70.33333333333334</ele><time>2026-03-23T09:40:39Z</time></trkpt><trkpt lat="45.81212263235117" lon="12.234114311925126"><ele>69.66666666666667</ele><time>2026-03-23T09:40:40Z</time></trkpt><trkpt lat="45.81199166593848" lon="12.23433315701223"><ele>69.0</ele><time>2026-03-23T09:40:41Z</time></trkpt><trkpt lat="45.81187392620628" lon="12.234535664160596"><ele>69.0</ele><time>2026-03-23T09:40:42Z</time></trkpt><trkpt lat="45.81176891137703" lon="12.234720436465965"><ele>69.0</ele><time>2026-03-23T09:40:43Z</time></trkpt><trkpt lat="45.811671737101896" lon="12.23489126693184"><ele>69.0</ele><time>2026-03-23T09:40:44Z</time></trkpt><trkpt lat="45.81158378200987" lon="12.235048137186842"><ele>69.0</ele><time>2026-03-23T09:40:45Z</time></trkpt><trkpt lat="45.81149663939031" lon="12.23519975130721"><ele>69.0</ele><time>2026-03-23T09:40:46Z</time></trkpt><trkpt lat="45.811415981743586" lon="12.23534129685227"><ele>69.0</ele><time>2026-03-23T09:40:47Z</time></trkpt><trkpt lat="45.81133532794191" lon="12.23546543257282"><ele>69.0</ele><time>2026-03-23T09:40:48Z</time></trkpt><trkpt lat="45.811266103729935" lon="12.235567511247536"><ele>69.0</ele><time>2026-03-23T09:40:49Z</time></trkpt><trkpt lat="45.81121117042809" lon="12.235643497649875"><ele>69.0</ele><time>2026-03-23T09:40:50Z</time></trkpt><trkpt lat="45.81115827488188" lon="12.235710226280705"><ele>69.0</ele><time>2026-03-23T09:40:52Z</time></trkpt><trkpt lat="45.811160996868985" lon="12.2355981096757"><ele>69.0</ele><time>2026-03-23T09:41:03Z</time></trkpt><trkpt lat="45.811226914249076" lon="12.235532328151958"><ele>69.0</ele><time>2026-03-23T09:41:05Z</time></trkpt><trkpt lat="45.8112568547182" lon="12.23543204821452"><ele>69.0</ele><time>2026-03-23T09:41:08Z</time></trkpt><trkpt lat="45.81130219954953" lon="12.23536675238458"><ele>69.0</ele><time>2026-03-23T09:41:10Z</time></trkpt><trkpt lat="45.81134273064438" lon="12.235296912563385"><ele>69.0</ele><time>2026-03-23T09:41:13Z</time></trkpt><trkpt lat="45.81138054990193" lon="12.23521421487415"><ele>69.0</ele><time>2026-03-23T09:41:15.999Z</time></trkpt><trkpt lat="45.81136501886773" lon="12.235116269140981"><ele>69.0</ele><time>2026-03-23T09:41:18.999Z</time></trkpt><trkpt lat="45.811415013674996" lon="12.235048875060881"><ele>69.0</ele><time>2026-03-23T09:41:31.999Z</time></trkpt><trkpt lat="45.811448045656675" lon="12.235133874958862"><ele>69.0</ele><time>2026-03-23T09:41:33.999Z</time></trkpt><trkpt lat="45.811431776302534" lon="12.235233820864178"><ele>69.0</ele><time>2026-03-23T09:41:36.999Z</time></trkpt><trkpt lat="45.81138670203086" lon="12.235387978939087"><ele>69.0</ele><time>2026-03-23T09:41:38.999Z</time></trkpt><trkpt lat="45.811314509699585" lon="12.235520720739201"><ele>69.0</ele><time>2026-03-23T09:41:39.999Z</time></trkpt><trkpt lat="45.81122655067676" lon="12.235657392060041"><ele>69.0</ele><time>2026-03-23T09:41:40.999Z</time></trkpt><trkpt lat="45.811158289393845" lon="12.2357820933877"><ele>69.0</ele><time>2026-03-23T09:41:41.999Z</time></trkpt><trkpt lat="45.81110369077926" lon="12.235901385319716"><ele>69.0</ele><time>2026-03-23T09:41:42.999Z</time></trkpt><trkpt lat="45.81104445618273" lon="12.236051580323712"><ele>69.0</ele><time>2026-03-23T09:41:43.999Z</time></trkpt><trkpt lat="45.810983428453085" lon="12.236221376047396"><ele>69.0</ele><time>2026-03-23T09:41:44.999Z</time></trkpt><trkpt lat="45.81093265862842" lon="12.236384775108355"><ele>69.0</ele><time>2026-03-23T09:41:45.999Z</time></trkpt><trkpt lat="45.81089183609307" lon="12.236533724533997"><ele>69.0</ele><time>2026-03-23T09:41:46.999Z</time></trkpt><trkpt lat="45.81085704293719" lon="12.236684385996675"><ele>69.0</ele><time>2026-03-23T09:41:47.999Z</time></trkpt><trkpt lat="45.81082450479322" lon="12.236844580785764"><ele>69.0</ele><time>2026-03-23T09:41:49Z</time></trkpt><trkpt lat="45.81079829505832" lon="12.237009432683703"><ele>69.0</ele><time>2026-03-23T09:41:50Z</time></trkpt><trkpt lat="45.81077984715779" lon="12.237165967993377"><ele>68.60000000000001</ele><time>2026-03-23T09:41:51Z</time></trkpt><trkpt lat="45.81076231450923" lon="12.237309180765173"><ele>68.2</ele><time>2026-03-23T09:41:52Z</time></trkpt><trkpt lat="45.81074569664375" lon="12.237443726797748"><ele>67.80000000000001</ele><time>2026-03-23T09:41:53Z</time></trkpt><trkpt lat="45.810732559044986" lon="12.237574038513031"><ele>67.4</ele><time>2026-03-23T09:41:54Z</time></trkpt><trkpt lat="45.810719653258" lon="12.237698867473606"><ele>67.0</ele><time>2026-03-23T09:41:55Z</time></trkpt><trkpt lat="45.810708271577155" lon="12.23781872316021"><ele>67.0</ele><time>2026-03-23T09:41:56Z</time></trkpt><trkpt lat="45.810687978460884" lon="12.237933019131981"><ele>67.0</ele><time>2026-03-23T09:41:57Z</time></trkpt><trkpt lat="45.81065256428091" lon="12.238031819772864"><ele>67.0</ele><time>2026-03-23T09:41:58Z</time></trkpt><trkpt lat="45.81060288364835" lon="12.238131990719939"><ele>67.0</ele><time>2026-03-23T09:41:59Z</time></trkpt><trkpt lat="45.810549516076996" lon="12.238244569562713"><ele>67.0</ele><time>2026-03-23T09:42:00Z</time></trkpt><trkpt lat="45.81048404002012" lon="12.238357542513478"><ele>67.0</ele><time>2026-03-23T09:42:01Z</time></trkpt><trkpt lat="45.810397356646604" lon="12.23846600687229"><ele>67.0</ele><time>2026-03-23T09:42:02Z</time></trkpt><trkpt lat="45.810285256311204" lon="12.238574297725636"><ele>67.0</ele><time>2026-03-23T09:42:03Z</time></trkpt><trkpt lat="45.81017836455589" lon="12.238722567724837"><ele>67.0</ele><time>2026-03-23T09:42:04Z</time></trkpt><trkpt lat="45.81007271350399" lon="12.238912947342085"><ele>66.66666666666666</ele><time>2026-03-23T09:42:05Z</time></trkpt><trkpt lat="45.80995793917195" lon="12.239111846811664"><ele>66.33333333333333</ele><time>2026-03-23T09:42:06Z</time></trkpt><trkpt lat="45.809837946314346" lon="12.239301523965029"><ele>66.0</ele><time>2026-03-23T09:42:07Z</time></trkpt><trkpt lat="45.80972345599666" lon="12.239493915710545"><ele>66.0</ele><time>2026-03-23T09:42:08Z</time></trkpt><trkpt lat="45.80962327878702" lon="12.23967125934855"><ele>66.0</ele><time>2026-03-23T09:42:09Z</time></trkpt><trkpt lat="45.80953072774726" lon="12.239838995253939"><ele>66.0</ele><time>2026-03-23T09:42:10Z</time></trkpt><trkpt lat="45.80943214232654" lon="12.240006241343567"><ele>66.0</ele><time>2026-03-23T09:42:11Z</time></trkpt><trkpt lat="45.80933337932611" lon="12.240183297152694"><ele>66.0</ele><time>2026-03-23T09:42:12Z</time></trkpt><trkpt lat="45.80922811213524" lon="12.240360408644968"><ele>66.0</ele><time>2026-03-23T09:42:13Z</time></trkpt><trkpt lat="45.80912133431865" lon="12.240537715662086"><ele>65.66666666666667</ele><time>2026-03-23T09:42:14Z</time></trkpt><trkpt lat="45.80901394387257" lon="12.24072567755747"><ele>65.33333333333334</ele><time>2026-03-23T09:42:15Z</time></trkpt><trkpt lat="45.808907175483284" lon="12.240914335011103"><ele>65.0</ele><time>2026-03-23T09:42:16Z</time></trkpt><trkpt lat="45.808792983570186" lon="12.241103974414912"><ele>65.0</ele><time>2026-03-23T09:42:17Z</time></trkpt><trkpt lat="45.8086709820709" lon="12.241310273899277"><ele>65.0</ele><time>2026-03-23T09:42:18Z</time></trkpt><trkpt lat="45.80854194242525" lon="12.241529179446397"><ele>65.0</ele><time>2026-03-23T09:42:19Z</time></trkpt><trkpt lat="45.80840682760649" lon="12.241754076948332"><ele>64.66666666666667</ele><time>2026-03-23T09:42:20Z</time></trkpt><trkpt lat="45.80827014694533" lon="12.241991320193998"><ele>64.33333333333333</ele><time>2026-03-23T09:42:21Z</time></trkpt><trkpt lat="45.80813512007211" lon="12.242226958255587"><ele>64.0</ele><time>2026-03-23T09:42:22Z</time></trkpt><trkpt lat="45.80800404151784" lon="12.242456046439694"><ele>64.0</ele><time>2026-03-23T09:42:23Z</time></trkpt><trkpt lat="45.80788363727922" lon="12.242668535619133"><ele>64.0</ele><time>2026-03-23T09:42:24Z</time></trkpt><trkpt lat="45.80776783002085" lon="12.242862485048486"><ele>64.0</ele><time>2026-03-23T09:42:25Z</time></trkpt><trkpt lat="45.807653116149574" lon="12.24306317712688"><ele>63.666666666666664</ele><time>2026-03-23T09:42:26Z</time></trkpt><trkpt lat="45.80754117133107" lon="12.243255172204668"><ele>63.33333333333333</ele><time>2026-03-23T09:42:27Z</time></trkpt><trkpt lat="45.80743560597115" lon="12.243441062597915"><ele>63.0</ele><time>2026-03-23T09:42:28Z</time></trkpt><trkpt lat="45.80732939439311" lon="12.243620645316721"><ele>63.0</ele><time>2026-03-23T09:42:29Z</time></trkpt><trkpt lat="45.8072103240154" lon="12.243823350398822"><ele>63.0</ele><time>2026-03-23T09:42:30Z</time></trkpt><trkpt lat="45.80707463689676" lon="12.244051941672474"><ele>63.0</ele><time>2026-03-23T09:42:31Z</time></trkpt><trkpt lat="45.80693612712348" lon="12.244290858996322"><ele>63.5</ele><time>2026-03-23T09:42:32Z</time></trkpt><trkpt lat="45.80679216113176" lon="12.244548846750192"><ele>64.0</ele><time>2026-03-23T09:42:33Z</time></trkpt><trkpt lat="45.80664801615036" lon="12.244804929997509"><ele>65.0</ele><time>2026-03-23T09:42:34Z</time></trkpt><trkpt lat="45.80649915692677" lon="12.245065093545279"><ele>66.0</ele><time>2026-03-23T09:42:35Z</time></trkpt><trkpt lat="45.806353065423984" lon="12.245315183936418"><ele>66.0</ele><time>2026-03-23T09:42:36Z</time></trkpt><trkpt lat="45.80622033846105" lon="12.245547054328751"><ele>66.0</ele><time>2026-03-23T09:42:37Z</time></trkpt><trkpt lat="45.80609887777787" lon="12.245763697471745"><ele>66.0</ele><time>2026-03-23T09:42:38Z</time></trkpt><trkpt lat="45.805984941603086" lon="12.2459646747885"><ele>66.0</ele><time>2026-03-23T09:42:39Z</time></trkpt><trkpt lat="45.805875577977226" lon="12.246159524700785"><ele>66.0</ele><time>2026-03-23T09:42:40Z</time></trkpt><trkpt lat="45.80576903597638" lon="12.246346595421995"><ele>66.0</ele><time>2026-03-23T09:42:41Z</time></trkpt><trkpt lat="45.805655006587386" lon="12.24654237989592"><ele>66.0</ele><time>2026-03-23T09:42:42Z</time></trkpt><trkpt lat="45.80553272560078" lon="12.246752628822303"><ele>66.0</ele><time>2026-03-23T09:42:43Z</time></trkpt><trkpt lat="45.805407027125725" lon="12.246967010496201"><ele>66.0</ele><time>2026-03-23T09:42:44Z</time></trkpt><trkpt lat="45.80527940651612" lon="12.247187987996405"><ele>65.0</ele><time>2026-03-23T09:42:45Z</time></trkpt><trkpt lat="45.80515103339602" lon="12.247412504493063"><ele>64.0</ele><time>2026-03-23T09:42:46Z</time></trkpt><trkpt lat="45.80502964528604" lon="12.24762550120344"><ele>63.0</ele><time>2026-03-23T09:42:47Z</time></trkpt><trkpt lat="45.80491524220281" lon="12.247824787005325"><ele>63.0</ele><time>2026-03-23T09:42:48Z</time></trkpt><trkpt lat="45.80479895757272" lon="12.248029967782985"><ele>63.0</ele><time>2026-03-23T09:42:49Z</time></trkpt><trkpt lat="45.804677507075446" lon="12.24824668474933"><ele>63.0</ele><time>2026-03-23T09:42:50Z</time></trkpt><trkpt lat="45.8045517334314" lon="12.24846974217601"><ele>63.0</ele><time>2026-03-23T09:42:51Z</time></trkpt><trkpt lat="45.80442420809786" lon="12.248693528560988"><ele>63.0</ele><time>2026-03-23T09:42:52Z</time></trkpt><trkpt lat="45.80429618123938" lon="12.24891908371757"><ele>63.0</ele><time>2026-03-23T09:42:53Z</time></trkpt><trkpt lat="45.804166407559926" lon="12.24914135420596"><ele>63.0</ele><time>2026-03-23T09:42:54Z</time></trkpt><trkpt lat="45.80404151766663" lon="12.24935455833847"><ele>63.0</ele><time>2026-03-23T09:42:55Z</time></trkpt><trkpt lat="45.80392753130198" lon="12.249555019550211"><ele>63.0</ele><time>2026-03-23T09:42:56Z</time></trkpt><trkpt lat="45.80382356997444" lon="12.249739359207739"><ele>63.25</ele><time>2026-03-23T09:42:57Z</time></trkpt><trkpt lat="45.80372364410135" lon="12.249911477364256"><ele>63.5</ele><time>2026-03-23T09:42:58Z</time></trkpt><trkpt lat="45.8036318385245" lon="12.25007558611947"><ele>63.75</ele><time>2026-03-23T09:42:59Z</time></trkpt><trkpt lat="45.803539951683945" lon="12.250237097844929"><ele>64.0</ele><time>2026-03-23T09:43:00Z</time></trkpt><trkpt lat="45.80344354714246" lon="12.250404452493484"><ele>64.0</ele><time>2026-03-23T09:43:01Z</time></trkpt><trkpt lat="45.80334200375527" lon="12.250585091132072"><ele>64.0</ele><time>2026-03-23T09:43:02Z</time></trkpt><trkpt lat="45.8032377042756" lon="12.250768132468723"><ele>64.0</ele><time>2026-03-23T09:43:03Z</time></trkpt><trkpt lat="45.80313907069917" lon="12.25093667472981"><ele>63.5</ele><time>2026-03-23T09:43:04Z</time></trkpt><trkpt lat="45.80304523585206" lon="12.251090391509676"><ele>63.0</ele><time>2026-03-23T09:43:05Z</time></trkpt><trkpt lat="45.80295834219213" lon="12.251230502858286"><ele>62.5</ele><time>2026-03-23T09:43:06Z</time></trkpt><trkpt lat="45.802877183486274" lon="12.251366216065328"><ele>62.0</ele><time>2026-03-23T09:43:07Z</time></trkpt><trkpt lat="45.80280231986562" lon="12.251485306627274"><ele>62.00000000000001</ele><time>2026-03-23T09:43:08Z</time></trkpt><trkpt lat="45.8027340822943" lon="12.251591938200473"><ele>62.0</ele><time>2026-03-23T09:43:09Z</time></trkpt><trkpt lat="45.802678801059024" lon="12.251687963826582"><ele>62.0</ele><time>2026-03-23T09:43:09.999Z</time></trkpt><trkpt lat="45.80263253639976" lon="12.251776909540416"><ele>62.0</ele><time>2026-03-23T09:43:10.999Z</time></trkpt><trkpt lat="45.80258961293556" lon="12.251862302910428"><ele>62.00000000000001</ele><time>2026-03-23T09:43:11.999Z</time></trkpt><trkpt lat="45.80254670580805" lon="12.25193941045394"><ele>62.0</ele><time>2026-03-23T09:43:12.999Z</time></trkpt><trkpt lat="45.802472822572966" lon="12.25203200610625"><ele>62.25</ele><time>2026-03-23T09:43:14.999Z</time></trkpt><trkpt lat="45.80235434832636" lon="12.252109957649983"><ele>62.5</ele><time>2026-03-23T09:43:16.999Z</time></trkpt><trkpt lat="45.802269529228745" lon="12.252175736526732"><ele>62.75</ele><time>2026-03-23T09:43:17.999Z</time></trkpt><trkpt lat="45.802152416099446" lon="12.252202516977587"><ele>63.0</ele><time>2026-03-23T09:43:18.999Z</time></trkpt><trkpt lat="45.80203262305485" lon="12.25225783035462"><ele>63.25</ele><time>2026-03-23T09:43:19.999Z</time></trkpt><trkpt lat="45.80191776895272" lon="12.252299516277988"><ele>63.5</ele><time>2026-03-23T09:43:20.999Z</time></trkpt><trkpt lat="45.80180543011181" lon="12.252344528073841"><ele>63.75</ele><time>2026-03-23T09:43:21.999Z</time></trkpt><trkpt lat="45.80169004055494" lon="12.252386378177315"><ele>64.0</ele><time>2026-03-23T09:43:22.999Z</time></trkpt><trkpt lat="45.80156140376148" lon="12.252428994575647"><ele>63.5</ele><time>2026-03-23T09:43:23.999Z</time></trkpt><trkpt lat="45.80143369302451" lon="12.252472574472066"><ele>63.0</ele><time>2026-03-23T09:43:24.999Z</time></trkpt><trkpt lat="45.80131024527377" lon="12.25251745195669"><ele>62.5</ele><time>2026-03-23T09:43:25.999Z</time></trkpt><trkpt lat="45.8011764582415" lon="12.25256778886609"><ele>62.0</ele><time>2026-03-23T09:43:26.999Z</time></trkpt><trkpt lat="45.801019541385685" lon="12.252623997248646"><ele>61.66666666666667</ele><time>2026-03-23T09:43:27.999Z</time></trkpt><trkpt lat="45.80085414506304" lon="12.252674336733401"><ele>61.33333333333333</ele><time>2026-03-23T09:43:28.999Z</time></trkpt><trkpt lat="45.80066340394045" lon="12.252728819115202"><ele>61.0</ele><time>2026-03-23T09:43:29.999Z</time></trkpt><trkpt lat="45.80048736349425" lon="12.252783940150863"><ele>61.0</ele><time>2026-03-23T09:43:30.999Z</time></trkpt><trkpt lat="45.80032410236124" lon="12.252838199063698"><ele>61.0</ele><time>2026-03-23T09:43:31.999Z</time></trkpt><trkpt lat="45.800152940343466" lon="12.25289074010307"><ele>61.0</ele><time>2026-03-23T09:43:32.999Z</time></trkpt><trkpt lat="45.79997156334837" lon="12.252952827283284"><ele>60.666666666666664</ele><time>2026-03-23T09:43:33.999Z</time></trkpt><trkpt lat="45.79979312839075" lon="12.253014164256571"><ele>60.33333333333333</ele><time>2026-03-23T09:43:34.999Z</time></trkpt><trkpt lat="45.79960056211083" lon="12.253071850585359"><ele>60.0</ele><time>2026-03-23T09:43:35.999Z</time></trkpt><trkpt lat="45.799399124734634" lon="12.253132306827204"><ele>60.0</ele><time>2026-03-23T09:43:36.999Z</time></trkpt><trkpt lat="45.799198553560664" lon="12.253199886333618"><ele>60.0</ele><time>2026-03-23T09:43:37.999Z</time></trkpt><trkpt lat="45.79901336399596" lon="12.253259995712972"><ele>60.0</ele><time>2026-03-23T09:43:38.999Z</time></trkpt><trkpt lat="45.79883168978845" lon="12.253322763216799"><ele>60.0</ele><time>2026-03-23T09:43:39.999Z</time></trkpt><trkpt lat="45.798644988723595" lon="12.253386783194886"><ele>60.0</ele><time>2026-03-23T09:43:40.999Z</time></trkpt><trkpt lat="45.7984447407868" lon="12.253452696513166"><ele>60.0</ele><time>2026-03-23T09:43:41.999Z</time></trkpt><trkpt lat="45.798249679822554" lon="12.253515439279058"><ele>59.66666666666667</ele><time>2026-03-23T09:43:42.999Z</time></trkpt><trkpt lat="45.79806349759918" lon="12.253577464272395"><ele>59.333333333333336</ele><time>2026-03-23T09:43:43.999Z</time></trkpt><trkpt lat="45.797884213580375" lon="12.253634060167998"><ele>59.0</ele><time>2026-03-23T09:43:44.999Z</time></trkpt><trkpt lat="45.79770191143815" lon="12.2536959022786"><ele>58.0</ele><time>2026-03-23T09:43:45.999Z</time></trkpt><trkpt lat="45.7975236554877" lon="12.253755814118374"><ele>57.0</ele><time>2026-03-23T09:43:46.999Z</time></trkpt><trkpt lat="45.79734341819526" lon="12.25381465666107"><ele>56.0</ele><time>2026-03-23T09:43:47.999Z</time></trkpt><trkpt lat="45.79716251259422" lon="12.25387491612102"><ele>56.0</ele><time>2026-03-23T09:43:48.999Z</time></trkpt><trkpt lat="45.796979521351005" lon="12.253935391494696"><ele>56.0</ele><time>2026-03-23T09:43:49.999Z</time></trkpt><trkpt lat="45.7967958163007" lon="12.25399326274911"><ele>56.0</ele><time>2026-03-23T09:43:50.999Z</time></trkpt><trkpt lat="45.79661267461655" lon="12.254054105248574"><ele>56.333333333333336</ele><time>2026-03-23T09:43:51.999Z</time></trkpt><trkpt lat="45.796433039393875" lon="12.25411407664392"><ele>56.66666666666667</ele><time>2026-03-23T09:43:52.999Z</time></trkpt><trkpt lat="45.79626438645852" lon="12.25417310645915"><ele>57.0</ele><time>2026-03-23T09:43:53.999Z</time></trkpt><trkpt lat="45.79609439707153" lon="12.254204528212444"><ele>57.33333333333333</ele><time>2026-03-23T09:43:55Z</time></trkpt><trkpt lat="45.79592782718424" lon="12.25425893451219"><ele>57.666666666666664</ele><time>2026-03-23T09:43:56Z</time></trkpt><trkpt lat="45.79575840368764" lon="12.2543146760144"><ele>58.0</ele><time>2026-03-23T09:43:57Z</time></trkpt><trkpt lat="45.79558566801206" lon="12.254371810547601"><ele>58.0</ele><time>2026-03-23T09:43:58Z</time></trkpt><trkpt lat="45.79541907851334" lon="12.254426426855613"><ele>58.0</ele><time>2026-03-23T09:43:59Z</time></trkpt><trkpt lat="45.79526225092064" lon="12.254477842734811"><ele>58.0</ele><time>2026-03-23T09:44:00Z</time></trkpt><trkpt lat="45.795105588948196" lon="12.254529184758995"><ele>58.33333333333333</ele><time>2026-03-23T09:44:01Z</time></trkpt><trkpt lat="45.79493424183466" lon="12.25458533883339"><ele>58.66666666666667</ele><time>2026-03-23T09:44:02Z</time></trkpt><trkpt lat="45.79474340623324" lon="12.254648685364371"><ele>59.0</ele><time>2026-03-23T09:44:03Z</time></trkpt><trkpt lat="45.7945408753232" lon="12.254715781676438"><ele>58.333333333333336</ele><time>2026-03-23T09:44:04Z</time></trkpt><trkpt lat="45.794336719432145" lon="12.254783485510677"><ele>57.66666666666667</ele><time>2026-03-23T09:44:05Z</time></trkpt><trkpt lat="45.794136434630126" lon="12.2548503758571"><ele>57.0</ele><time>2026-03-23T09:44:06Z</time></trkpt><trkpt lat="45.793946889702774" lon="12.254913679359927"><ele>57.0</ele><time>2026-03-23T09:44:07Z</time></trkpt><trkpt lat="45.79375257418926" lon="12.254977704016977"><ele>57.0</ele><time>2026-03-23T09:44:08Z</time></trkpt><trkpt lat="45.793539535735604" lon="12.255047084114025"><ele>57.0</ele><time>2026-03-23T09:44:09Z</time></trkpt><trkpt lat="45.7933184751461" lon="12.255119076808471"><ele>57.0</ele><time>2026-03-23T09:44:10Z</time></trkpt><trkpt lat="45.79309638684247" lon="12.25519140417996"><ele>57.0</ele><time>2026-03-23T09:44:11Z</time></trkpt><trkpt lat="45.79286964430143" lon="12.255265247293115"><ele>56.66666666666667</ele><time>2026-03-23T09:44:12Z</time></trkpt><trkpt lat="45.79264773024072" lon="12.255338041778076"><ele>56.333333333333336</ele><time>2026-03-23T09:44:13Z</time></trkpt><trkpt lat="45.79243528586815" lon="12.255408105744886"><ele>56.0</ele><time>2026-03-23T09:44:14Z</time></trkpt><trkpt lat="45.79223711311053" lon="12.255473462873605"><ele>56.0</ele><time>2026-03-23T09:44:15Z</time></trkpt><trkpt lat="45.792052027828525" lon="12.255557118758764"><ele>56.0</ele><time>2026-03-23T09:44:16Z</time></trkpt><trkpt lat="45.79187204572925" lon="12.255612261855715"><ele>56.0</ele><time>2026-03-23T09:44:17Z</time></trkpt><trkpt lat="45.79170464033758" lon="12.255667377002046"><ele>56.333333333333336</ele><time>2026-03-23T09:44:18Z</time></trkpt><trkpt lat="45.79153933142053" lon="12.255721349895436"><ele>56.66666666666667</ele><time>2026-03-23T09:44:19Z</time></trkpt><trkpt lat="45.79138227587882" lon="12.255773752229917"><ele>57.0</ele><time>2026-03-23T09:44:20Z</time></trkpt><trkpt lat="45.79123034998878" lon="12.255823263001965"><ele>57.0</ele><time>2026-03-23T09:44:21Z</time></trkpt><trkpt lat="45.7910845673515" lon="12.255871582278415"><ele>57.0</ele><time>2026-03-23T09:44:22Z</time></trkpt><trkpt lat="45.79093721098501" lon="12.255919108459839"><ele>57.0</ele><time>2026-03-23T09:44:23Z</time></trkpt><trkpt lat="45.79078648581309" lon="12.255972350448758"><ele>57.66666666666667</ele><time>2026-03-23T09:44:24Z</time></trkpt><trkpt lat="45.79062658580693" lon="12.25600307013892"><ele>58.333333333333336</ele><time>2026-03-23T09:44:25Z</time></trkpt><trkpt lat="45.790468540347135" lon="12.256055488049846"><ele>59.0</ele><time>2026-03-23T09:44:26Z</time></trkpt><trkpt lat="45.790312595741696" lon="12.256128227890692"><ele>57.66666666666667</ele><time>2026-03-23T09:44:27Z</time></trkpt><trkpt lat="45.79015740838755" lon="12.256156861497775"><ele>56.33333333333333</ele><time>2026-03-23T09:44:28Z</time></trkpt><trkpt lat="45.79001322318756" lon="12.256226292591101"><ele>55.0</ele><time>2026-03-23T09:44:29Z</time></trkpt><trkpt lat="45.78986106116163" lon="12.256272158773609"><ele>55.0</ele><time>2026-03-23T09:44:30Z</time></trkpt><trkpt lat="45.7897076628979" lon="12.256322003418044"><ele>55.0</ele><time>2026-03-23T09:44:31Z</time></trkpt><trkpt lat="45.78955271280899" lon="12.256373856493237"><ele>55.0</ele><time>2026-03-23T09:44:32Z</time></trkpt><trkpt lat="45.789392809935755" lon="12.256427206155818"><ele>55.33333333333333</ele><time>2026-03-23T09:44:33Z</time></trkpt><trkpt lat="45.78923320727808" lon="12.256477703627322"><ele>55.66666666666667</ele><time>2026-03-23T09:44:34Z</time></trkpt><trkpt lat="45.78907119568359" lon="12.256531812607044"><ele>56.0</ele><time>2026-03-23T09:44:35Z</time></trkpt><trkpt lat="45.78890560050277" lon="12.2565645883366"><ele>56.0</ele><time>2026-03-23T09:44:36Z</time></trkpt><trkpt lat="45.788738551040446" lon="12.256618950972339"><ele>56.0</ele><time>2026-03-23T09:44:37Z</time></trkpt><trkpt lat="45.78857184949992" lon="12.25667320037954"><ele>56.0</ele><time>2026-03-23T09:44:38Z</time></trkpt><trkpt lat="45.78840841632724" lon="12.256726386190445"><ele>56.0</ele><time>2026-03-23T09:44:39Z</time></trkpt><trkpt lat="45.788249551776126" lon="12.256778508896469"><ele>56.0</ele><time>2026-03-23T09:44:40Z</time></trkpt><trkpt lat="45.78809796693282" lon="12.256850579889331"><ele>56.0</ele><time>2026-03-23T09:44:41Z</time></trkpt><trkpt lat="45.78793417643137" lon="12.25690563863723"><ele>56.0</ele><time>2026-03-23T09:44:42Z</time></trkpt><trkpt lat="45.78776654500083" lon="12.256937119724984"><ele>56.0</ele><time>2026-03-23T09:44:43Z</time></trkpt><trkpt lat="45.78760704255685" lon="12.256989513217986"><ele>56.0</ele><time>2026-03-23T09:44:44Z</time></trkpt><trkpt lat="45.78745151112527" lon="12.25704065048295"><ele>56.333333333333336</ele><time>2026-03-23T09:44:45Z</time></trkpt><trkpt lat="45.787301601845" lon="12.25711342418046"><ele>56.66666666666667</ele><time>2026-03-23T09:44:46Z</time></trkpt><trkpt lat="45.787145206826565" lon="12.257165380281949"><ele>57.0</ele><time>2026-03-23T09:44:47Z</time></trkpt><trkpt lat="45.78698819213221" lon="12.257217320760423"><ele>57.0</ele><time>2026-03-23T09:44:48Z</time></trkpt><trkpt lat="45.78682987568321" lon="12.25724503814836"><ele>57.0</ele><time>2026-03-23T09:44:49Z</time></trkpt><trkpt lat="45.786680436051675" lon="12.257294153607024"><ele>57.0</ele><time>2026-03-23T09:44:50Z</time></trkpt><trkpt lat="45.78652684869227" lon="12.257344497218325"><ele>57.0</ele><time>2026-03-23T09:44:51Z</time></trkpt><trkpt lat="45.78637426436131" lon="12.257417953233002"><ele>57.0</ele><time>2026-03-23T09:44:52Z</time></trkpt><trkpt lat="45.786213976289886" lon="12.257447052033404"><ele>57.0</ele><time>2026-03-23T09:44:53Z</time></trkpt><trkpt lat="45.7860640241974" lon="12.2575204417123"><ele>57.0</ele><time>2026-03-23T09:44:54Z</time></trkpt><trkpt lat="45.78589996660723" lon="12.257549979751813"><ele>57.0</ele><time>2026-03-23T09:44:55Z</time></trkpt><trkpt lat="45.78572951723332" lon="12.257605850995438"><ele>57.0</ele><time>2026-03-23T09:44:56Z</time></trkpt><trkpt lat="45.785543279166056" lon="12.25766750544165"><ele>57.0</ele><time>2026-03-23T09:44:57Z</time></trkpt><trkpt lat="45.785343417650225" lon="12.257769334603642"><ele>57.0</ele><time>2026-03-23T09:44:58Z</time></trkpt><trkpt lat="45.78513230658452" lon="12.257842941407613"><ele>57.0</ele><time>2026-03-23T09:44:59Z</time></trkpt><trkpt lat="45.784916695025025" lon="12.25790563050781"><ele>57.0</ele><time>2026-03-23T09:45:00Z</time></trkpt><trkpt lat="45.78471424984817" lon="12.257959528517764"><ele>57.0</ele><time>2026-03-23T09:45:01Z</time></trkpt><trkpt lat="45.78452607992257" lon="12.258014960519414"><ele>57.0</ele><time>2026-03-23T09:45:02Z</time></trkpt><trkpt lat="45.78435012688429" lon="12.258072157562383"><ele>56.33333333333333</ele><time>2026-03-23T09:45:03Z</time></trkpt><trkpt lat="45.78418747437987" lon="12.258127599846985"><ele>55.666666666666664</ele><time>2026-03-23T09:45:04Z</time></trkpt><trkpt lat="45.78403239019766" lon="12.258180919663442"><ele>55.0</ele><time>2026-03-23T09:45:05Z</time></trkpt><trkpt lat="45.783891146986434" lon="12.25822631110249"><ele>55.0</ele><time>2026-03-23T09:45:06Z</time></trkpt><trkpt lat="45.78376125051349" lon="12.258265391282546"><ele>55.0</ele><time>2026-03-23T09:45:07Z</time></trkpt><trkpt lat="45.783640627655956" lon="12.258304247537312"><ele>55.0</ele><time>2026-03-23T09:45:08Z</time></trkpt><trkpt lat="45.783524797969264" lon="12.258342516665826"><ele>55.0</ele><time>2026-03-23T09:45:09Z</time></trkpt><trkpt lat="45.78341504804248" lon="12.258381528090437"><ele>55.0</ele><time>2026-03-23T09:45:10Z</time></trkpt><trkpt lat="45.78330415657001" lon="12.258417832985632"><ele>55.0</ele><time>2026-03-23T09:45:10.999Z</time></trkpt><trkpt lat="45.78318996359868" lon="12.258450824485264"><ele>55.0</ele><time>2026-03-23T09:45:11.999Z</time></trkpt><trkpt lat="45.78306635926125" lon="12.258487013126594"><ele>55.0</ele><time>2026-03-23T09:45:12.999Z</time></trkpt><trkpt lat="45.782935500557535" lon="12.258532081661503"><ele>55.0</ele><time>2026-03-23T09:45:13.999Z</time></trkpt><trkpt lat="45.78279920478238" lon="12.25858010096019"><ele>55.0</ele><time>2026-03-23T09:45:14.999Z</time></trkpt><trkpt lat="45.782660338335056" lon="12.25862395970866"><ele>55.0</ele><time>2026-03-23T09:45:15.999Z</time></trkpt><trkpt lat="45.78252042895119" lon="12.258667884942115"><ele>55.0</ele><time>2026-03-23T09:45:16.999Z</time></trkpt><trkpt lat="45.782382739274006" lon="12.258717769158372"><ele>55.25</ele><time>2026-03-23T09:45:17.999Z</time></trkpt><trkpt lat="45.78224916731474" lon="12.258764115519249"><ele>55.5</ele><time>2026-03-23T09:45:18.999Z</time></trkpt><trkpt lat="45.78212207860888" lon="12.258808969979148"><ele>55.75</ele><time>2026-03-23T09:45:19.999Z</time></trkpt><trkpt lat="45.78199972054166" lon="12.258850716776145"><ele>56.0</ele><time>2026-03-23T09:45:20.999Z</time></trkpt><trkpt lat="45.78187757903208" lon="12.258895871893815"><ele>55.75</ele><time>2026-03-23T09:45:21.999Z</time></trkpt><trkpt lat="45.78175520435925" lon="12.258938681911967"><ele>55.5</ele><time>2026-03-23T09:45:22.999Z</time></trkpt><trkpt lat="45.781633254167104" lon="12.25897825724094"><ele>55.25</ele><time>2026-03-23T09:45:23.999Z</time></trkpt><trkpt lat="45.781512329696795" lon="12.25902103820595"><ele>55.0</ele><time>2026-03-23T09:45:24.999Z</time></trkpt><trkpt lat="45.78138860962415" lon="12.259060027853215"><ele>55.25</ele><time>2026-03-23T09:45:25.999Z</time></trkpt><trkpt lat="45.78126470537486" lon="12.259098705010475"><ele>55.5</ele><time>2026-03-23T09:45:26.999Z</time></trkpt><trkpt lat="45.78114214835076" lon="12.259140016828555"><ele>55.75</ele><time>2026-03-23T09:45:27.999Z</time></trkpt><trkpt lat="45.78102927662134" lon="12.259177040226337"><ele>56.0</ele><time>2026-03-23T09:45:28.999Z</time></trkpt><trkpt lat="45.78092216560106" lon="12.259214735998388"><ele>56.0</ele><time>2026-03-23T09:45:29.999Z</time></trkpt><trkpt lat="45.7808159448382" lon="12.259247869617884"><ele>55.99999999999999</ele><time>2026-03-23T09:45:30.999Z</time></trkpt><trkpt lat="45.78070394458581" lon="12.259280109412163"><ele>55.99999999999999</ele><time>2026-03-23T09:45:31.999Z</time></trkpt><trkpt lat="45.78059209302051" lon="12.259312372282519"><ele>56.0</ele><time>2026-03-23T09:45:32.999Z</time></trkpt><trkpt lat="45.78048424469329" lon="12.259343693693243"><ele>56.0</ele><time>2026-03-23T09:45:33.999Z</time></trkpt><trkpt lat="45.780379497235764" lon="12.259379801417143"><ele>56.0</ele><time>2026-03-23T09:45:34.999Z</time></trkpt><trkpt lat="45.780274223387906" lon="12.259412509958882"><ele>55.99999999999999</ele><time>2026-03-23T09:45:35.999Z</time></trkpt><trkpt lat="45.78017199696614" lon="12.25944421859313"><ele>55.99999999999999</ele><time>2026-03-23T09:45:36.999Z</time></trkpt><trkpt lat="45.78007341914702" lon="12.25947885957415"><ele>56.0</ele><time>2026-03-23T09:45:37.999Z</time></trkpt><trkpt lat="45.779977109917596" lon="12.259511839354936"><ele>56.0</ele><time>2026-03-23T09:45:38.999Z</time></trkpt><trkpt lat="45.779883403981174" lon="12.259542294720813"><ele>56.0</ele><time>2026-03-23T09:45:39.999Z</time></trkpt><trkpt lat="45.77978369100557" lon="12.259576160637334"><ele>55.99999999999999</ele><time>2026-03-23T09:45:40.999Z</time></trkpt><trkpt lat="45.77967884921574" lon="12.25960639073272"><ele>55.99999999999999</ele><time>2026-03-23T09:45:41.999Z</time></trkpt><trkpt lat="45.77957060149399" lon="12.259635507375226"><ele>56.0</ele><time>2026-03-23T09:45:42.999Z</time></trkpt><trkpt lat="45.77946282091715" lon="12.259659439124238"><ele>56.0</ele><time>2026-03-23T09:45:43.999Z</time></trkpt><trkpt lat="45.77935271043017" lon="12.259676766844269"><ele>55.5</ele><time>2026-03-23T09:45:44.999Z</time></trkpt><trkpt lat="45.77924229562168" lon="12.259694540285293"><ele>55.0</ele><time>2026-03-23T09:45:45.999Z</time></trkpt><trkpt lat="45.77912888104733" lon="12.25971084894971"><ele>54.5</ele><time>2026-03-23T09:45:46.999Z</time></trkpt><trkpt lat="45.77901521941764" lon="12.259718015214949"><ele>54.0</ele><time>2026-03-23T09:45:47.999Z</time></trkpt><trkpt lat="45.77889894630214" lon="12.25971954249958"><ele>54.0</ele><time>2026-03-23T09:45:48.999Z</time></trkpt><trkpt lat="45.77878297316741" lon="12.25971868589432"><ele>54.0</ele><time>2026-03-23T09:45:49.999Z</time></trkpt><trkpt lat="45.77866663281889" lon="12.259707552478213"><ele>54.0</ele><time>2026-03-23T09:45:50.999Z</time></trkpt><trkpt lat="45.77854941990966" lon="12.259689823524868"><ele>54.0</ele><time>2026-03-23T09:45:51.999Z</time></trkpt><trkpt lat="45.778432491717844" lon="12.259668484601034"><ele>54.5</ele><time>2026-03-23T09:45:52.999Z</time></trkpt><trkpt lat="45.77831528811663" lon="12.259638805842485"><ele>55.0</ele><time>2026-03-23T09:45:53.999Z</time></trkpt><trkpt lat="45.77819744157976" lon="12.259602283818777"><ele>55.5</ele><time>2026-03-23T09:45:54.999Z</time></trkpt><trkpt lat="45.77807765777453" lon="12.259563591882939"><ele>56.0</ele><time>2026-03-23T09:45:55.999Z</time></trkpt><trkpt lat="45.77795427945016" lon="12.259515078834765"><ele>56.0</ele><time>2026-03-23T09:45:56.999Z</time></trkpt><trkpt lat="45.77783186102144" lon="12.259459997356634"><ele>56.0</ele><time>2026-03-23T09:45:57.999Z</time></trkpt><trkpt lat="45.77770792240303" lon="12.259404912424765"><ele>56.0</ele><time>2026-03-23T09:45:58.999Z</time></trkpt><trkpt lat="45.77758092118814" lon="12.259349202563172"><ele>56.0</ele><time>2026-03-23T09:45:59.999Z</time></trkpt><trkpt lat="45.77745251151081" lon="12.259285973057565"><ele>55.5</ele><time>2026-03-23T09:46:01Z</time></trkpt><trkpt lat="45.777320043949864" lon="12.259215122396434"><ele>55.0</ele><time>2026-03-23T09:46:02Z</time></trkpt><trkpt lat="45.77718683466655" lon="12.25913681544701"><ele>54.5</ele><time>2026-03-23T09:46:03Z</time></trkpt><trkpt lat="45.77705318238388" lon="12.259051326240895"><ele>54.0</ele><time>2026-03-23T09:46:04Z</time></trkpt><trkpt lat="45.77692305477277" lon="12.258948913370974"><ele>54.0</ele><time>2026-03-23T09:46:05Z</time></trkpt><trkpt lat="45.77679689588758" lon="12.258838604326781"><ele>54.0</ele><time>2026-03-23T09:46:06Z</time></trkpt><trkpt lat="45.77667331004" lon="12.258729749025818"><ele>54.0</ele><time>2026-03-23T09:46:07Z</time></trkpt><trkpt lat="45.77655762993161" lon="12.258623504896919"><ele>54.0</ele><time>2026-03-23T09:46:08Z</time></trkpt><trkpt lat="45.776452142848406" lon="12.258516876954548"><ele>54.0</ele><time>2026-03-23T09:46:09Z</time></trkpt><trkpt lat="45.77634902943272" lon="12.258406578761809"><ele>54.0</ele><time>2026-03-23T09:46:10Z</time></trkpt><trkpt lat="45.776244682498074" lon="12.258285961873172"><ele>54.0</ele><time>2026-03-23T09:46:11Z</time></trkpt><trkpt lat="45.77614278763952" lon="12.258160235912325"><ele>54.0</ele><time>2026-03-23T09:46:12Z</time></trkpt><trkpt lat="45.77604520251066" lon="12.25804117534537"><ele>53.75</ele><time>2026-03-23T09:46:13Z</time></trkpt><trkpt lat="45.7759535839509" lon="12.25791664541496"><ele>53.5</ele><time>2026-03-23T09:46:14Z</time></trkpt><trkpt lat="45.77586153993745" lon="12.257769147069812"><ele>53.25</ele><time>2026-03-23T09:46:15Z</time></trkpt><trkpt lat="45.775753409350955" lon="12.257624083185643"><ele>53.0</ele><time>2026-03-23T09:46:16Z</time></trkpt><trkpt lat="45.77564554880953" lon="12.257488732181054"><ele>53.0</ele><time>2026-03-23T09:46:17Z</time></trkpt><trkpt lat="45.775540725179724" lon="12.257349318905518"><ele>53.0</ele><time>2026-03-23T09:46:18Z</time></trkpt><trkpt lat="45.775456653818765" lon="12.25723703968616"><ele>53.0</ele><time>2026-03-23T09:46:19Z</time></trkpt><trkpt lat="45.77536700514703" lon="12.25710965563286"><ele>53.0</ele><time>2026-03-23T09:46:20Z</time></trkpt><trkpt lat="45.77527393281121" lon="12.256983730337764"><ele>53.0</ele><time>2026-03-23T09:46:21Z</time></trkpt><trkpt lat="45.775176333183325" lon="12.25684369653223"><ele>53.0</ele><time>2026-03-23T09:46:22Z</time></trkpt><trkpt lat="45.77507086098076" lon="12.256707938257373"><ele>53.0</ele><time>2026-03-23T09:46:23Z</time></trkpt><trkpt lat="45.77495573218783" lon="12.256567419218019"><ele>53.0</ele><time>2026-03-23T09:46:24Z</time></trkpt><trkpt lat="45.77482553249377" lon="12.256437082581078"><ele>52.66666666666667</ele><time>2026-03-23T09:46:25Z</time></trkpt><trkpt lat="45.774682794145086" lon="12.256321892309314"><ele>52.33333333333333</ele><time>2026-03-23T09:46:26Z</time></trkpt><trkpt lat="45.774541162240105" lon="12.256235143314965"><ele>52.0</ele><time>2026-03-23T09:46:27Z</time></trkpt><trkpt lat="45.77441138814554" lon="12.256143371945422"><ele>51.75</ele><time>2026-03-23T09:46:28Z</time></trkpt><trkpt lat="45.774288473603995" lon="12.25604268795686"><ele>51.5</ele><time>2026-03-23T09:46:29Z</time></trkpt><trkpt lat="45.77416978923695" lon="12.255951793912208"><ele>51.25</ele><time>2026-03-23T09:46:30Z</time></trkpt><trkpt lat="45.77405485731825" lon="12.255867304700315"><ele>51.0</ele><time>2026-03-23T09:46:31Z</time></trkpt><trkpt lat="45.77394464898619" lon="12.255782311585103"><ele>51.0</ele><time>2026-03-23T09:46:32Z</time></trkpt><trkpt lat="45.77383434778834" lon="12.25569058207249"><ele>51.0</ele><time>2026-03-23T09:46:33Z</time></trkpt><trkpt lat="45.7737149275909" lon="12.25559682420238"><ele>51.0</ele><time>2026-03-23T09:46:34Z</time></trkpt><trkpt lat="45.773590072333945" lon="12.255506716047051"><ele>51.0</ele><time>2026-03-23T09:46:35Z</time></trkpt><trkpt lat="45.77346894827819" lon="12.25542113468343"><ele>51.5</ele><time>2026-03-23T09:46:36Z</time></trkpt><trkpt lat="45.773348056723556" lon="12.255333021716917"><ele>52.0</ele><time>2026-03-23T09:46:37Z</time></trkpt><trkpt lat="45.77322776256165" lon="12.255243537677975"><ele>52.5</ele><time>2026-03-23T09:46:38Z</time></trkpt><trkpt lat="45.773107814931514" lon="12.2551634067433"><ele>53.0</ele><time>2026-03-23T09:46:39Z</time></trkpt><trkpt lat="45.77298963965655" lon="12.255083931455705"><ele>53.0</ele><time>2026-03-23T09:46:40Z</time></trkpt><trkpt lat="45.772870807053486" lon="12.255015873037276"><ele>53.0</ele><time>2026-03-23T09:46:41Z</time></trkpt><trkpt lat="45.77275017339522" lon="12.254933946488984"><ele>53.0</ele><time>2026-03-23T09:46:42Z</time></trkpt><trkpt lat="45.772626891581965" lon="12.254847183612574"><ele>53.0</ele><time>2026-03-23T09:46:43Z</time></trkpt><trkpt lat="45.77250138338651" lon="12.254767990167279"><ele>53.25</ele><time>2026-03-23T09:46:44Z</time></trkpt><trkpt lat="45.77236774418769" lon="12.254682746780095"><ele>53.5</ele><time>2026-03-23T09:46:45Z</time></trkpt><trkpt lat="45.772231426862554" lon="12.254593011992327"><ele>53.75</ele><time>2026-03-23T09:46:46Z</time></trkpt><trkpt lat="45.77209359127822" lon="12.254509361402263"><ele>54.0</ele><time>2026-03-23T09:46:47Z</time></trkpt><trkpt lat="45.77196546529685" lon="12.254430461396856"><ele>53.5</ele><time>2026-03-23T09:46:48Z</time></trkpt><trkpt lat="45.77184481119428" lon="12.254346490218197"><ele>53.0</ele><time>2026-03-23T09:46:49Z</time></trkpt><trkpt lat="45.77172523305765" lon="12.254266219188567"><ele>52.5</ele><time>2026-03-23T09:46:50Z</time></trkpt><trkpt lat="45.77160615991016" lon="12.25418081645403"><ele>52.0</ele><time>2026-03-23T09:46:51Z</time></trkpt><trkpt lat="45.77148385872376" lon="12.254098844707457"><ele>52.0</ele><time>2026-03-23T09:46:52Z</time></trkpt><trkpt lat="45.77136271726572" lon="12.254020867319362"><ele>52.0</ele><time>2026-03-23T09:46:53Z</time></trkpt><trkpt lat="45.771247002827316" lon="12.253944026510762"><ele>52.0</ele><time>2026-03-23T09:46:54Z</time></trkpt><trkpt lat="45.771133370551425" lon="12.253861161566435"><ele>52.0</ele><time>2026-03-23T09:46:55Z</time></trkpt><trkpt lat="45.77101844497475" lon="12.253778751635783"><ele>51.8</ele><time>2026-03-23T09:46:56Z</time></trkpt><trkpt lat="45.77090123417626" lon="12.2536990110524"><ele>51.6</ele><time>2026-03-23T09:46:57Z</time></trkpt><trkpt lat="45.77079433502782" lon="12.253633679781435"><ele>51.4</ele><time>2026-03-23T09:46:58Z</time></trkpt><trkpt lat="45.77071280886097" lon="12.253581625366875"><ele>51.199999999999996</ele><time>2026-03-23T09:46:59Z</time></trkpt><trkpt lat="45.770645921691795" lon="12.253536895569457"><ele>51.0</ele><time>2026-03-23T09:47:00Z</time></trkpt><trkpt lat="45.77057331707766" lon="12.25345999986296"><ele>51.0</ele><time>2026-03-23T09:47:02Z</time></trkpt><trkpt lat="45.77050486111113" lon="12.253436465145692"><ele>51.0</ele><time>2026-03-23T09:47:04Z</time></trkpt><trkpt lat="45.770444413846626" lon="12.25339189053743"><ele>51.0</ele><time>2026-03-23T09:47:06Z</time></trkpt><trkpt lat="45.770375780944995" lon="12.25333094020339"><ele>51.0</ele><time>2026-03-23T09:47:08Z</time></trkpt><trkpt lat="45.770306533055006" lon="12.253258376629471"><ele>51.0</ele><time>2026-03-23T09:47:10Z</time></trkpt><trkpt lat="45.770241396047375" lon="12.253149226971118"><ele>51.0</ele><time>2026-03-23T09:47:12Z</time></trkpt><trkpt lat="45.77021010866538" lon="12.253063522079016"><ele>50.42857142857143</ele><time>2026-03-23T09:47:13Z</time></trkpt><trkpt lat="45.77017122605834" lon="12.252974244676183"><ele>49.85714285714286</ele><time>2026-03-23T09:47:14Z</time></trkpt><trkpt lat="45.77012000120739" lon="12.252904492078983"><ele>49.285714285714285</ele><time>2026-03-23T09:47:15Z</time></trkpt><trkpt lat="45.77005122793705" lon="12.252897867348759"><ele>48.714285714285715</ele><time>2026-03-23T09:47:16Z</time></trkpt><trkpt lat="45.76998292059833" lon="12.252912988305447"><ele>48.14285714285714</ele><time>2026-03-23T09:47:16.999Z</time></trkpt><trkpt lat="45.769906074927505" lon="12.25293906419618"><ele>47.57142857142857</ele><time>2026-03-23T09:47:17.999Z</time></trkpt><trkpt lat="45.769820657910785" lon="12.252935185564583"><ele>47.0</ele><time>2026-03-23T09:47:18.999Z</time></trkpt><trkpt lat="45.769726686815986" lon="12.25288614119107"><ele>47.0</ele><time>2026-03-23T09:47:19.999Z</time></trkpt><trkpt lat="45.76964619856016" lon="12.252799632141778"><ele>47.0</ele><time>2026-03-23T09:47:20.999Z</time></trkpt><trkpt lat="45.76956517370027" lon="12.252745856108797"><ele>47.0</ele><time>2026-03-23T09:47:21.999Z</time></trkpt><trkpt lat="45.76949435833916" lon="12.252698856070957"><ele>47.0</ele><time>2026-03-23T09:47:22.999Z</time></trkpt><trkpt lat="45.76940951050862" lon="12.252666391859956"><ele>47.0</ele><time>2026-03-23T09:47:23.999Z</time></trkpt><trkpt lat="45.76932196464711" lon="12.252603423691152"><ele>47.5</ele><time>2026-03-23T09:47:24.999Z</time></trkpt><trkpt lat="45.769217267893396" lon="12.25252947456213"><ele>48.0</ele><time>2026-03-23T09:47:25.999Z</time></trkpt><trkpt lat="45.769098041455294" lon="12.252444164679364"><ele>48.5</ele><time>2026-03-23T09:47:26.999Z</time></trkpt><trkpt lat="45.768973270089475" lon="12.252351646164259"><ele>49.0</ele><time>2026-03-23T09:47:27.999Z</time></trkpt><trkpt lat="45.76885800638049" lon="12.252263925855276"><ele>49.5</ele><time>2026-03-23T09:47:28.999Z</time></trkpt><trkpt lat="45.768730675971604" lon="12.252176220940735"><ele>50.0</ele><time>2026-03-23T09:47:29.999Z</time></trkpt><trkpt lat="45.76858950407741" lon="12.252080240674895"><ele>50.5</ele><time>2026-03-23T09:47:30.999Z</time></trkpt><trkpt lat="45.768455871120004" lon="12.25198707837614"><ele>51.0</ele><time>2026-03-23T09:47:31.999Z</time></trkpt><trkpt lat="45.76832015762227" lon="12.251898375571932"><ele>51.33333333333333</ele><time>2026-03-23T09:47:32.999Z</time></trkpt><trkpt lat="45.768174970970435" lon="12.251803360844255"><ele>51.666666666666664</ele><time>2026-03-23T09:47:33.999Z</time></trkpt><trkpt lat="45.768027857968214" lon="12.25171430380828"><ele>52.0</ele><time>2026-03-23T09:47:34.999Z</time></trkpt><trkpt lat="45.76787390258457" lon="12.251647433609389"><ele>52.0</ele><time>2026-03-23T09:47:35.999Z</time></trkpt><trkpt lat="45.767699602235616" lon="12.25159454418586"><ele>52.0</ele><time>2026-03-23T09:47:36.999Z</time></trkpt><trkpt lat="45.767500203059846" lon="12.251503724954173"><ele>52.0</ele><time>2026-03-23T09:47:37.999Z</time></trkpt><trkpt lat="45.76727864544262" lon="12.251440245570702"><ele>51.0</ele><time>2026-03-23T09:47:38.999Z</time></trkpt><trkpt lat="45.7670693060776" lon="12.251333185653866"><ele>50.0</ele><time>2026-03-23T09:47:39.999Z</time></trkpt><trkpt lat="45.76687255055292" lon="12.2512520319815"><ele>49.0</ele><time>2026-03-23T09:47:40.999Z</time></trkpt><trkpt lat="45.766662507373894" lon="12.251182478762646"><ele>48.666666666666664</ele><time>2026-03-23T09:47:41.999Z</time></trkpt><trkpt lat="45.76644749945634" lon="12.251105067400545"><ele>48.33333333333333</ele><time>2026-03-23T09:47:42.999Z</time></trkpt><trkpt lat="45.76625321717044" lon="12.251026828086365"><ele>48.0</ele><time>2026-03-23T09:47:43.999Z</time></trkpt><trkpt lat="45.76605894745409" lon="12.250959452133007"><ele>48.0</ele><time>2026-03-23T09:47:44.999Z</time></trkpt><trkpt lat="45.765848133942725" lon="12.250911897720426"><ele>48.0</ele><time>2026-03-23T09:47:45.999Z</time></trkpt><trkpt lat="45.76561467573753" lon="12.250889545493525"><ele>48.0</ele><time>2026-03-23T09:47:46.999Z</time></trkpt><trkpt lat="45.765368520016644" lon="12.250890313539303"><ele>48.0</ele><time>2026-03-23T09:47:47.999Z</time></trkpt><trkpt lat="45.765108517254674" lon="12.250910109982948"><ele>48.0</ele><time>2026-03-23T09:47:48.999Z</time></trkpt><trkpt lat="45.76484429928249" lon="12.250919367523581"><ele>48.0</ele><time>2026-03-23T09:47:49.999Z</time></trkpt><trkpt lat="45.76458367546049" lon="12.250924063425046"><ele>48.0</ele><time>2026-03-23T09:47:50.999Z</time></trkpt><trkpt lat="45.76434298105591" lon="12.250928719263571"><ele>48.33333333333333</ele><time>2026-03-23T09:47:51.999Z</time></trkpt><trkpt lat="45.76412412099806" lon="12.250939827673527"><ele>48.666666666666664</ele><time>2026-03-23T09:47:52.999Z</time></trkpt><trkpt lat="45.76391460651666" lon="12.250945985173306"><ele>49.0</ele><time>2026-03-23T09:47:53.999Z</time></trkpt><trkpt lat="45.763716505824405" lon="12.250948103946257"><ele>49.0</ele><time>2026-03-23T09:47:54.999Z</time></trkpt><trkpt lat="45.76353549004032" lon="12.250953968600749"><ele>49.0</ele><time>2026-03-23T09:47:55.999Z</time></trkpt><trkpt lat="45.76335796507962" lon="12.250959612210634"><ele>49.0</ele><time>2026-03-23T09:47:56.999Z</time></trkpt><trkpt lat="45.76318932857935" lon="12.250968911539257"><ele>48.666666666666664</ele><time>2026-03-23T09:47:57.999Z</time></trkpt><trkpt lat="45.76302972088754" lon="12.250980601699785"><ele>48.33333333333333</ele><time>2026-03-23T09:47:58.999Z</time></trkpt><trkpt lat="45.762880246784505" lon="12.250984803662268"><ele>48.0</ele><time>2026-03-23T09:47:59.999Z</time></trkpt><trkpt lat="45.76273770235224" lon="12.250982557407452"><ele>47.75</ele><time>2026-03-23T09:48:00.999Z</time></trkpt><trkpt lat="45.7625962798378" lon="12.250983375780113"><ele>47.5</ele><time>2026-03-23T09:48:01.999Z</time></trkpt><trkpt lat="45.76246333792323" lon="12.2509894447057"><ele>47.25</ele><time>2026-03-23T09:48:02.999Z</time></trkpt><trkpt lat="45.76233764113622" lon="12.250994547903842"><ele>47.0</ele><time>2026-03-23T09:48:03.999Z</time></trkpt><trkpt lat="45.762219487619994" lon="12.251003211198933"><ele>47.0</ele><time>2026-03-23T09:48:04.999Z</time></trkpt><trkpt lat="45.76210545596273" lon="12.250998981391351"><ele>47.0</ele><time>2026-03-23T09:48:05.999Z</time></trkpt><trkpt lat="45.76199887579661" lon="12.250993021791407"><ele>47.0</ele><time>2026-03-23T09:48:07Z</time></trkpt><trkpt lat="45.761897615689946" lon="12.25100236885706"><ele>47.0</ele><time>2026-03-23T09:48:08Z</time></trkpt><trkpt lat="45.76180103520198" lon="12.251021665408356"><ele>47.0</ele><time>2026-03-23T09:48:09Z</time></trkpt><trkpt lat="45.76170428891041" lon="12.251042427713404"><ele>47.75</ele><time>2026-03-23T09:48:10Z</time></trkpt><trkpt lat="45.76159338861059" lon="12.251056976246355"><ele>48.5</ele><time>2026-03-23T09:48:11Z</time></trkpt><trkpt lat="45.761465076023164" lon="12.251071518528745"><ele>49.25</ele><time>2026-03-23T09:48:12Z</time></trkpt><trkpt lat="45.76132328628783" lon="12.251076676833874"><ele>50.0</ele><time>2026-03-23T09:48:13Z</time></trkpt><trkpt lat="45.76116501508182" lon="12.251085593424488"><ele>51.66666666666667</ele><time>2026-03-23T09:48:14Z</time></trkpt><trkpt lat="45.76100457970713" lon="12.251101615743858"><ele>53.33333333333333</ele><time>2026-03-23T09:48:15Z</time></trkpt><trkpt lat="45.7608520704304" lon="12.251117509270102"><ele>55.0</ele><time>2026-03-23T09:48:16Z</time></trkpt><trkpt lat="45.76069696832117" lon="12.251139064127674"><ele>55.0</ele><time>2026-03-23T09:48:17Z</time></trkpt><trkpt lat="45.7605423648778" lon="12.25115739465043"><ele>55.0</ele><time>2026-03-23T09:48:18Z</time></trkpt><trkpt lat="45.76039724508161" lon="12.251171467919683"><ele>55.0</ele><time>2026-03-23T09:48:19Z</time></trkpt><trkpt lat="45.76024959607805" lon="12.251188857896102"><ele>55.0</ele><time>2026-03-23T09:48:20Z</time></trkpt><trkpt lat="45.76010052905265" lon="12.251207103389772"><ele>52.666666666666664</ele><time>2026-03-23T09:48:21Z</time></trkpt><trkpt lat="45.759942758918015" lon="12.251224982808067"><ele>50.33333333333333</ele><time>2026-03-23T09:48:22Z</time></trkpt><trkpt lat="45.759783872206604" lon="12.251243008841433"><ele>48.0</ele><time>2026-03-23T09:48:23Z</time></trkpt><trkpt lat="45.75963443755144" lon="12.25125993823906"><ele>48.0</ele><time>2026-03-23T09:48:24Z</time></trkpt><trkpt lat="45.75949476221534" lon="12.251275385102552"><ele>48.0</ele><time>2026-03-23T09:48:25Z</time></trkpt><trkpt lat="45.75936486603013" lon="12.25129080130441"><ele>48.0</ele><time>2026-03-23T09:48:26Z</time></trkpt><trkpt lat="45.75923977147565" lon="12.251306934484756"><ele>48.0</ele><time>2026-03-23T09:48:27Z</time></trkpt><trkpt lat="45.75912810831262" lon="12.251320433188956"><ele>47.599999999999994</ele><time>2026-03-23T09:48:28Z</time></trkpt><trkpt lat="45.759033170574035" lon="12.25132980906408"><ele>47.199999999999996</ele><time>2026-03-23T09:48:29Z</time></trkpt><trkpt lat="45.7589492189978" lon="12.251339914109142"><ele>46.8</ele><time>2026-03-23T09:48:30Z</time></trkpt><trkpt lat="45.75886915280477" lon="12.25135354412893"><ele>46.4</ele><time>2026-03-23T09:48:31Z</time></trkpt><trkpt lat="45.75879761854361" lon="12.251364637089946"><ele>46.0</ele><time>2026-03-23T09:48:32Z</time></trkpt><trkpt lat="45.75867383665159" lon="12.251381663475867"><ele>46.0</ele><time>2026-03-23T09:48:34Z</time></trkpt><trkpt lat="45.75854292209317" lon="12.251399087400644"><ele>46.0</ele><time>2026-03-23T09:48:36Z</time></trkpt><trkpt lat="45.758458635904844" lon="12.251405397354539"><ele>46.0</ele><time>2026-03-23T09:48:37Z</time></trkpt><trkpt lat="45.75835952381968" lon="12.251411543510445"><ele>46.0</ele><time>2026-03-23T09:48:38Z</time></trkpt><trkpt lat="45.75825978167905" lon="12.251422802866761"><ele>46.0</ele><time>2026-03-23T09:48:39Z</time></trkpt><trkpt lat="45.75815804979463" lon="12.251432916046474"><ele>46.0</ele><time>2026-03-23T09:48:40Z</time></trkpt><trkpt lat="45.758057995192004" lon="12.251426851196"><ele>46.0</ele><time>2026-03-23T09:48:41Z</time></trkpt><trkpt lat="45.75795535023296" lon="12.251399963438807"><ele>46.0</ele><time>2026-03-23T09:48:42Z</time></trkpt><trkpt lat="45.757849434126875" lon="12.251394220887144"><ele>46.0</ele><time>2026-03-23T09:48:43Z</time></trkpt><trkpt lat="45.75774708166204" lon="12.25139519028889"><ele>46.0</ele><time>2026-03-23T09:48:44Z</time></trkpt><trkpt lat="45.75764683347294" lon="12.251394835748997"><ele>46.0</ele><time>2026-03-23T09:48:45Z</time></trkpt><trkpt lat="45.757541300937454" lon="12.251401600329269"><ele>46.0</ele><time>2026-03-23T09:48:46Z</time></trkpt><trkpt lat="45.7574208001219" lon="12.251394272752565"><ele>46.0</ele><time>2026-03-23T09:48:47Z</time></trkpt><trkpt lat="45.757291625343456" lon="12.25139236220993"><ele>46.0</ele><time>2026-03-23T09:48:48Z</time></trkpt><trkpt lat="45.75715887781317" lon="12.251382084573322"><ele>46.0</ele><time>2026-03-23T09:48:49Z</time></trkpt><trkpt lat="45.75701664248678" lon="12.251354284780781"><ele>46.0</ele><time>2026-03-23T09:48:50Z</time></trkpt><trkpt lat="45.75687786436975" lon="12.251337483357773"><ele>46.0</ele><time>2026-03-23T09:48:51Z</time></trkpt><trkpt lat="45.75674534564815" lon="12.251335740925885"><ele>46.0</ele><time>2026-03-23T09:48:52Z</time></trkpt><trkpt lat="45.756602770794075" lon="12.251323101367992"><ele>46.66666666666667</ele><time>2026-03-23T09:48:53Z</time></trkpt><trkpt lat="45.75645157474051" lon="12.251294921489208"><ele>47.333333333333336</ele><time>2026-03-23T09:48:54Z</time></trkpt><trkpt lat="45.75629361547022" lon="12.251266640861852"><ele>48.0</ele><time>2026-03-23T09:48:55Z</time></trkpt><trkpt lat="45.75614900891545" lon="12.251241439156521"><ele>48.0</ele><time>2026-03-23T09:48:56Z</time></trkpt><trkpt lat="45.75601234324488" lon="12.251210457973698"><ele>48.0</ele><time>2026-03-23T09:48:57Z</time></trkpt><trkpt lat="45.75587642098121" lon="12.251186565731349"><ele>48.0</ele><time>2026-03-23T09:48:58Z</time></trkpt><trkpt lat="45.755733600304616" lon="12.251170712836831"><ele>48.0</ele><time>2026-03-23T09:48:59Z</time></trkpt><trkpt lat="45.75558105107737" lon="12.251154062707574"><ele>48.0</ele><time>2026-03-23T09:49:00Z</time></trkpt><trkpt lat="45.755416180822166" lon="12.251134689196082"><ele>48.0</ele><time>2026-03-23T09:49:01Z</time></trkpt><trkpt lat="45.755241082496376" lon="12.251113727746082"><ele>48.0</ele><time>2026-03-23T09:49:02Z</time></trkpt><trkpt lat="45.755049208042735" lon="12.251080674901829"><ele>46.666666666666664</ele><time>2026-03-23T09:49:03Z</time></trkpt><trkpt lat="45.754860179493306" lon="12.251047991041219"><ele>45.33333333333333</ele><time>2026-03-23T09:49:04Z</time></trkpt><trkpt lat="45.7546871916911" lon="12.25101909008829"><ele>44.0</ele><time>2026-03-23T09:49:05Z</time></trkpt><trkpt lat="45.75448076588504" lon="12.25100865953059"><ele>43.5</ele><time>2026-03-23T09:49:06Z</time></trkpt><trkpt lat="45.754267517547696" lon="12.250944948538008"><ele>43.0</ele><time>2026-03-23T09:49:07Z</time></trkpt><trkpt lat="45.75403185919127" lon="12.250908480249786"><ele>43.0</ele><time>2026-03-23T09:49:08Z</time></trkpt><trkpt lat="45.75377941438037" lon="12.250869267893496"><ele>43.0</ele><time>2026-03-23T09:49:09Z</time></trkpt><trkpt lat="45.75351846883692" lon="12.25083099810388"><ele>43.5</ele><time>2026-03-23T09:49:10Z</time></trkpt><trkpt lat="45.753264037551574" lon="12.250793293233523"><ele>44.0</ele><time>2026-03-23T09:49:11Z</time></trkpt><trkpt lat="45.75302649767636" lon="12.250768001090016"><ele>44.0</ele><time>2026-03-23T09:49:12Z</time></trkpt><trkpt lat="45.7527964433201" lon="12.250729123924744"><ele>44.0</ele><time>2026-03-23T09:49:12.999Z</time></trkpt><trkpt lat="45.752566042197145" lon="12.250681935284454"><ele>43.5</ele><time>2026-03-23T09:49:13.999Z</time></trkpt><trkpt lat="45.75233602477424" lon="12.250643250141934"><ele>43.0</ele><time>2026-03-23T09:49:14.999Z</time></trkpt><trkpt lat="45.752113017550116" lon="12.250609323811192"><ele>42.66666666666667</ele><time>2026-03-23T09:49:15.999Z</time></trkpt><trkpt lat="45.75189011292701" lon="12.250574863358038"><ele>42.333333333333336</ele><time>2026-03-23T09:49:16.999Z</time></trkpt><trkpt lat="45.751669847675295" lon="12.250543295300547"><ele>42.0</ele><time>2026-03-23T09:49:17.999Z</time></trkpt><trkpt lat="45.751444005974534" lon="12.250511031821127"><ele>42.0</ele><time>2026-03-23T09:49:18.999Z</time></trkpt><trkpt lat="45.751215231385615" lon="12.250478579351336"><ele>42.0</ele><time>2026-03-23T09:49:19.999Z</time></trkpt><trkpt lat="45.75098056583375" lon="12.250442059239376"><ele>41.0</ele><time>2026-03-23T09:49:20.999Z</time></trkpt><trkpt lat="45.750742592183585" lon="12.250411053409463"><ele>40.0</ele><time>2026-03-23T09:49:21.999Z</time></trkpt><trkpt lat="45.75050455265901" lon="12.25037098794163"><ele>40.0</ele><time>2026-03-23T09:49:22.999Z</time></trkpt><trkpt lat="45.75027423351073" lon="12.250334984408164"><ele>40.0</ele><time>2026-03-23T09:49:23.999Z</time></trkpt><trkpt lat="45.75006050258928" lon="12.250299051932734"><ele>40.0</ele><time>2026-03-23T09:49:24.999Z</time></trkpt><trkpt lat="45.74986008834403" lon="12.250276516152024"><ele>40.66666666666667</ele><time>2026-03-23T09:49:25.999Z</time></trkpt><trkpt lat="45.74966534167852" lon="12.25024530513965"><ele>41.333333333333336</ele><time>2026-03-23T09:49:26.999Z</time></trkpt><trkpt lat="45.74947740154136" lon="12.250213590480781"><ele>42.0</ele><time>2026-03-23T09:49:27.999Z</time></trkpt><trkpt lat="45.74928732200104" lon="12.250182245997252"><ele>42.0</ele><time>2026-03-23T09:49:28.999Z</time></trkpt><trkpt lat="45.7490929539883" lon="12.250161238763116"><ele>42.0</ele><time>2026-03-23T09:49:29.999Z</time></trkpt><trkpt lat="45.74889782361132" lon="12.25013217854859"><ele>42.0</ele><time>2026-03-23T09:49:30.999Z</time></trkpt><trkpt lat="45.74870675341983" lon="12.250100960948052"><ele>41.333333333333336</ele><time>2026-03-23T09:49:31.999Z</time></trkpt><trkpt lat="45.74852986931162" lon="12.25007275544547"><ele>40.66666666666667</ele><time>2026-03-23T09:49:32.999Z</time></trkpt><trkpt lat="45.74835610977186" lon="12.250040171850642"><ele>40.0</ele><time>2026-03-23T09:49:33.999Z</time></trkpt><trkpt lat="45.74817866819596" lon="12.250014139727696"><ele>40.0</ele><time>2026-03-23T09:49:34.999Z</time></trkpt><trkpt lat="45.74801167778118" lon="12.249997600910561"><ele>40.0</ele><time>2026-03-23T09:49:35.999Z</time></trkpt><trkpt lat="45.74785374406808" lon="12.249977391396989"><ele>40.0</ele><time>2026-03-23T09:49:36.999Z</time></trkpt><trkpt lat="45.74770405982976" lon="12.249954414934269"><ele>40.5</ele><time>2026-03-23T09:49:37.999Z</time></trkpt><trkpt lat="45.74756679715793" lon="12.249933743090152"><ele>41.0</ele><time>2026-03-23T09:49:38.999Z</time></trkpt><trkpt lat="45.74743143420621" lon="12.249909691915832"><ele>41.5</ele><time>2026-03-23T09:49:39.999Z</time></trkpt><trkpt lat="45.74729344524178" lon="12.249885363283548"><ele>42.0</ele><time>2026-03-23T09:49:40.999Z</time></trkpt><trkpt lat="45.74715697575287" lon="12.249860631188952"><ele>42.0</ele><time>2026-03-23T09:49:41.999Z</time></trkpt><trkpt lat="45.74702621975274" lon="12.249837783873696"><ele>42.0</ele><time>2026-03-23T09:49:42.999Z</time></trkpt><trkpt lat="45.746900781368005" lon="12.249819593381496"><ele>42.0</ele><time>2026-03-23T09:49:43.999Z</time></trkpt><trkpt lat="45.74676616624862" lon="12.249803905749424"><ele>42.0</ele><time>2026-03-23T09:49:44.999Z</time></trkpt><trkpt lat="45.74661781408699" lon="12.249782974330875"><ele>40.666666666666664</ele><time>2026-03-23T09:49:45.999Z</time></trkpt><trkpt lat="45.74644680210576" lon="12.249754942555676"><ele>39.33333333333333</ele><time>2026-03-23T09:49:46.999Z</time></trkpt><trkpt lat="45.746263206506285" lon="12.249727763086383"><ele>38.0</ele><time>2026-03-23T09:49:47.999Z</time></trkpt><trkpt lat="45.74607341259444" lon="12.249703330804875"><ele>38.0</ele><time>2026-03-23T09:49:48.999Z</time></trkpt><trkpt lat="45.74587122311237" lon="12.249671581921888"><ele>38.0</ele><time>2026-03-23T09:49:49.999Z</time></trkpt><trkpt lat="45.74567124262445" lon="12.249637473499927"><ele>38.0</ele><time>2026-03-23T09:49:50.999Z</time></trkpt><trkpt lat="45.745464224033796" lon="12.249604827990174"><ele>38.0</ele><time>2026-03-23T09:49:51.999Z</time></trkpt><trkpt lat="45.74526712398277" lon="12.249574682669408"><ele>38.0</ele><time>2026-03-23T09:49:52.999Z</time></trkpt><trkpt lat="45.74508689548191" lon="12.24954885248967"><ele>38.0</ele><time>2026-03-23T09:49:53.999Z</time></trkpt><trkpt lat="45.744910135028" lon="12.249518447606613"><ele>38.33333333333333</ele><time>2026-03-23T09:49:54.999Z</time></trkpt><trkpt lat="45.74474331940539" lon="12.249493581410002"><ele>38.666666666666664</ele><time>2026-03-23T09:49:55.999Z</time></trkpt><trkpt lat="45.74457586434903" lon="12.249469836880207"><ele>39.0</ele><time>2026-03-23T09:49:56.999Z</time></trkpt><trkpt lat="45.74439881467118" lon="12.249440238812463"><ele>38.666666666666664</ele><time>2026-03-23T09:49:57.999Z</time></trkpt><trkpt lat="45.744205750907106" lon="12.24940301598475"><ele>38.33333333333333</ele><time>2026-03-23T09:49:58.999Z</time></trkpt><trkpt lat="45.74399972270285" lon="12.249366422105412"><ele>38.0</ele><time>2026-03-23T09:49:59.999Z</time></trkpt><trkpt lat="45.74377454778696" lon="12.24933468719868"><ele>38.0</ele><time>2026-03-23T09:50:00.999Z</time></trkpt><trkpt lat="45.743546134620004" lon="12.249301041511218"><ele>38.0</ele><time>2026-03-23T09:50:01.999Z</time></trkpt><trkpt lat="45.74330470156361" lon="12.249266399057188"><ele>38.0</ele><time>2026-03-23T09:50:02.999Z</time></trkpt><trkpt lat="45.74305038399622" lon="12.249228206722158"><ele>38.0</ele><time>2026-03-23T09:50:03.999Z</time></trkpt><trkpt lat="45.74280968358629" lon="12.249191350213932"><ele>38.666666666666664</ele><time>2026-03-23T09:50:04.999Z</time></trkpt><trkpt lat="45.7425871127423" lon="12.249160415765907"><ele>39.333333333333336</ele><time>2026-03-23T09:50:05.999Z</time></trkpt><trkpt lat="45.74238005736489" lon="12.249132635672042"><ele>40.0</ele><time>2026-03-23T09:50:06.999Z</time></trkpt><trkpt lat="45.742185344765865" lon="12.249105534034774"><ele>40.0</ele><time>2026-03-23T09:50:07.999Z</time></trkpt><trkpt lat="45.74200334798529" lon="12.249081456131105"><ele>40.0</ele><time>2026-03-23T09:50:08.999Z</time></trkpt><trkpt lat="45.74182966904998" lon="12.249034205999195"><ele>40.0</ele><time>2026-03-23T09:50:09.999Z</time></trkpt><trkpt lat="45.74166012403584" lon="12.249008772444057"><ele>39.0</ele><time>2026-03-23T09:50:10.999Z</time></trkpt><trkpt lat="45.7414909181492" lon="12.248983390300433"><ele>38.0</ele><time>2026-03-23T09:50:12Z</time></trkpt><trkpt lat="45.74131326825077" lon="12.248979922594472"><ele>37.0</ele><time>2026-03-23T09:50:13Z</time></trkpt><trkpt lat="45.74113043145192" lon="12.248953071359495"><ele>36.66666666666667</ele><time>2026-03-23T09:50:14Z</time></trkpt><trkpt lat="45.740944014749715" lon="12.248921262250155"><ele>36.333333333333336</ele><time>2026-03-23T09:50:15Z</time></trkpt><trkpt lat="45.74075019554077" lon="12.248895761042101"><ele>36.0</ele><time>2026-03-23T09:50:16Z</time></trkpt><trkpt lat="45.740553964170694" lon="12.248885635669136"><ele>36.0</ele><time>2026-03-23T09:50:17Z</time></trkpt><trkpt lat="45.740366582350816" lon="12.248895091753404"><ele>36.0</ele><time>2026-03-23T09:50:18Z</time></trkpt><trkpt lat="45.74019371834241" lon="12.248906660127597"><ele>36.0</ele><time>2026-03-23T09:50:19Z</time></trkpt><trkpt lat="45.740019799494085" lon="12.248918599162794"><ele>36.0</ele><time>2026-03-23T09:50:20Z</time></trkpt><trkpt lat="45.73984202369139" lon="12.248931906586533"><ele>36.0</ele><time>2026-03-23T09:50:21Z</time></trkpt><trkpt lat="45.73966280036367" lon="12.248954446333615"><ele>36.0</ele><time>2026-03-23T09:50:22Z</time></trkpt><trkpt lat="45.73948244366456" lon="12.248987215169462"><ele>35.666666666666664</ele><time>2026-03-23T09:50:23Z</time></trkpt><trkpt lat="45.73930688648635" lon="12.249025001075701"><ele>35.33333333333333</ele><time>2026-03-23T09:50:24Z</time></trkpt><trkpt lat="45.73912834357079" lon="12.249065844590607"><ele>35.0</ele><time>2026-03-23T09:50:25Z</time></trkpt><trkpt lat="45.73894303821033" lon="12.249108603520703"><ele>35.0</ele><time>2026-03-23T09:50:26Z</time></trkpt><trkpt lat="45.73875635289597" lon="12.249154740142469"><ele>35.0</ele><time>2026-03-23T09:50:27Z</time></trkpt><trkpt lat="45.738570723220334" lon="12.249216948261795"><ele>35.0</ele><time>2026-03-23T09:50:28Z</time></trkpt><trkpt lat="45.7383921652644" lon="12.249283691330087"><ele>35.33333333333333</ele><time>2026-03-23T09:50:29Z</time></trkpt><trkpt lat="45.73822071942455" lon="12.24934692609653"><ele>35.666666666666664</ele><time>2026-03-23T09:50:30Z</time></trkpt><trkpt lat="45.738051999476895" lon="12.2494075778876"><ele>36.0</ele><time>2026-03-23T09:50:31Z</time></trkpt><trkpt lat="45.737887398461325" lon="12.249463514919293"><ele>36.0</ele><time>2026-03-23T09:50:32Z</time></trkpt><trkpt lat="45.73772051908865" lon="12.249520414557788"><ele>36.0</ele><time>2026-03-23T09:50:33Z</time></trkpt><trkpt lat="45.73755459996845" lon="12.2495771615031"><ele>36.0</ele><time>2026-03-23T09:50:34Z</time></trkpt><trkpt lat="45.73738575557887" lon="12.249636572591985"><ele>36.0</ele><time>2026-03-23T09:50:35Z</time></trkpt><trkpt lat="45.73720733067619" lon="12.249701055422705"><ele>36.0</ele><time>2026-03-23T09:50:36Z</time></trkpt><trkpt lat="45.737007463742394" lon="12.249754717673888"><ele>36.0</ele><time>2026-03-23T09:50:37Z</time></trkpt><trkpt lat="45.73677991245046" lon="12.249831961139288"><ele>36.0</ele><time>2026-03-23T09:50:38Z</time></trkpt><trkpt lat="45.736539279652305" lon="12.249913786886406"><ele>36.0</ele><time>2026-03-23T09:50:39Z</time></trkpt><trkpt lat="45.73629350845397" lon="12.25001490859599"><ele>36.0</ele><time>2026-03-23T09:50:40Z</time></trkpt><trkpt lat="45.73605307434198" lon="12.250099517870488"><ele>36.0</ele><time>2026-03-23T09:50:41Z</time></trkpt><trkpt lat="45.73583460123591" lon="12.250179316815657"><ele>36.0</ele><time>2026-03-23T09:50:42Z</time></trkpt><trkpt lat="45.73563126134086" lon="12.250252776799552"><ele>36.0</ele><time>2026-03-23T09:50:43Z</time></trkpt><trkpt lat="45.73543644009656" lon="12.250318829402303"><ele>36.0</ele><time>2026-03-23T09:50:44Z</time></trkpt><trkpt lat="45.73524420676102" lon="12.250351055992084"><ele>36.0</ele><time>2026-03-23T09:50:45Z</time></trkpt><trkpt lat="45.73507051761359" lon="12.250440273687786"><ele>36.0</ele><time>2026-03-23T09:50:46Z</time></trkpt><trkpt lat="45.734903353995456" lon="12.250492530602088"><ele>36.0</ele><time>2026-03-23T09:50:47Z</time></trkpt><trkpt lat="45.7347416559315" lon="12.25054095345534"><ele>36.0</ele><time>2026-03-23T09:50:48Z</time></trkpt><trkpt lat="45.73458423223663" lon="12.25059047804535"><ele>36.0</ele><time>2026-03-23T09:50:49Z</time></trkpt><trkpt lat="45.73441950155896" lon="12.250644971885842"><ele>36.0</ele><time>2026-03-23T09:50:50Z</time></trkpt><trkpt lat="45.73423680654289" lon="12.250704436306405"><ele>36.0</ele><time>2026-03-23T09:50:51Z</time></trkpt><trkpt lat="45.734051075569575" lon="12.250764547461184"><ele>36.0</ele><time>2026-03-23T09:50:52Z</time></trkpt><trkpt lat="45.73387829730968" lon="12.250825178105469"><ele>36.0</ele><time>2026-03-23T09:50:53Z</time></trkpt><trkpt lat="45.73372048470207" lon="12.250880513890126"><ele>36.0</ele><time>2026-03-23T09:50:54Z</time></trkpt><trkpt lat="45.73356103415817" lon="12.25093899078714"><ele>36.0</ele><time>2026-03-23T09:50:55Z</time></trkpt><trkpt lat="45.733379424656356" lon="12.251000048462549"><ele>36.0</ele><time>2026-03-23T09:50:56Z</time></trkpt><trkpt lat="45.73318389783746" lon="12.251062016167445"><ele>35.333333333333336</ele><time>2026-03-23T09:50:57Z</time></trkpt><trkpt lat="45.73297947909485" lon="12.251127718152349"><ele>34.66666666666667</ele><time>2026-03-23T09:50:58Z</time></trkpt><trkpt lat="45.73276740974529" lon="12.25120401871317"><ele>34.0</ele><time>2026-03-23T09:50:59Z</time></trkpt><trkpt lat="45.73254782987543" lon="12.2512915962287"><ele>34.0</ele><time>2026-03-23T09:51:00Z</time></trkpt><trkpt lat="45.73232366984004" lon="12.251345270180796"><ele>34.0</ele><time>2026-03-23T09:51:01Z</time></trkpt><trkpt lat="45.73213061419517" lon="12.251411297535519"><ele>34.0</ele><time>2026-03-23T09:51:02Z</time></trkpt><trkpt lat="45.731940975211096" lon="12.251476550905528"><ele>34.333333333333336</ele><time>2026-03-23T09:51:03Z</time></trkpt><trkpt lat="45.731738373160105" lon="12.251546083165099"><ele>34.666666666666664</ele><time>2026-03-23T09:51:04Z</time></trkpt><trkpt lat="45.73154276346434" lon="12.251612974105496"><ele>35.0</ele><time>2026-03-23T09:51:05Z</time></trkpt><trkpt lat="45.731328696265145" lon="12.251685745812805"><ele>35.0</ele><time>2026-03-23T09:51:06Z</time></trkpt><trkpt lat="45.73112945453832" lon="12.251753533072938"><ele>35.0</ele><time>2026-03-23T09:51:07Z</time></trkpt><trkpt lat="45.73094487008018" lon="12.251816204543257"><ele>35.0</ele><time>2026-03-23T09:51:08Z</time></trkpt><trkpt lat="45.73076917017772" lon="12.251875573840751"><ele>33.666666666666664</ele><time>2026-03-23T09:51:09Z</time></trkpt><trkpt lat="45.7305923378905" lon="12.251935602498166"><ele>32.333333333333336</ele><time>2026-03-23T09:51:10Z</time></trkpt><trkpt lat="45.730420969932254" lon="12.251994008885012"><ele>31.0</ele><time>2026-03-23T09:51:11Z</time></trkpt><trkpt lat="45.73026379548927" lon="12.252047827966651"><ele>31.5</ele><time>2026-03-23T09:51:12Z</time></trkpt><trkpt lat="45.73011390540131" lon="12.252099117587672"><ele>32.0</ele><time>2026-03-23T09:51:13Z</time></trkpt><trkpt lat="45.72997401129666" lon="12.25214698677184"><ele>32.5</ele><time>2026-03-23T09:51:14Z</time></trkpt><trkpt lat="45.72983506497672" lon="12.252216466832872"><ele>33.0</ele><time>2026-03-23T09:51:15Z</time></trkpt><trkpt lat="45.72968674202921" lon="12.252268262713851"><ele>33.0</ele><time>2026-03-23T09:51:16Z</time></trkpt><trkpt lat="45.72952405124575" lon="12.252301997358694"><ele>33.0</ele><time>2026-03-23T09:51:17Z</time></trkpt><trkpt lat="45.729351450582215" lon="12.252362371354126"><ele>33.0</ele><time>2026-03-23T09:51:18Z</time></trkpt><trkpt lat="45.72917024101991" lon="12.252422344646906"><ele>33.0</ele><time>2026-03-23T09:51:19Z</time></trkpt><trkpt lat="45.72899435665083" lon="12.252481988654834"><ele>33.0</ele><time>2026-03-23T09:51:20Z</time></trkpt><trkpt lat="45.72883063489741" lon="12.252560021009842"><ele>33.0</ele><time>2026-03-23T09:51:21Z</time></trkpt><trkpt lat="45.72866275338888" lon="12.252615447469589"><ele>33.333333333333336</ele><time>2026-03-23T09:51:22Z</time></trkpt><trkpt lat="45.72849135817357" lon="12.25267255886653"><ele>33.66666666666667</ele><time>2026-03-23T09:51:23Z</time></trkpt><trkpt lat="45.728321586369866" lon="12.25273166970506"><ele>34.0</ele><time>2026-03-23T09:51:24Z</time></trkpt><trkpt lat="45.72814549233705" lon="12.252800047890117"><ele>34.0</ele><time>2026-03-23T09:51:25Z</time></trkpt><trkpt lat="45.72795261719198" lon="12.252837054263525"><ele>34.0</ele><time>2026-03-23T09:51:25.999Z</time></trkpt><trkpt lat="45.72776939472833" lon="12.252917523904328"><ele>34.0</ele><time>2026-03-23T09:51:26.999Z</time></trkpt><trkpt lat="45.727561212393276" lon="12.252995103655584"><ele>33.5</ele><time>2026-03-23T09:51:27.999Z</time></trkpt><trkpt lat="45.7273353545542" lon="12.253047425183794"><ele>33.0</ele><time>2026-03-23T09:51:28.999Z</time></trkpt><trkpt lat="45.727100587514784" lon="12.253126974241004"><ele>33.0</ele><time>2026-03-23T09:51:29.999Z</time></trkpt><trkpt lat="45.72685956983073" lon="12.253225774191723"><ele>33.0</ele><time>2026-03-23T09:51:30.999Z</time></trkpt><trkpt lat="45.726601222868354" lon="12.253294706659041"><ele>33.0</ele><time>2026-03-23T09:51:31.999Z</time></trkpt><trkpt lat="45.726351894138006" lon="12.253378250592064"><ele>33.0</ele><time>2026-03-23T09:51:32.999Z</time></trkpt><trkpt lat="45.72612762037417" lon="12.253452212153112"><ele>33.333333333333336</ele><time>2026-03-23T09:51:33.999Z</time></trkpt><trkpt lat="45.725918561581324" lon="12.253513637799701"><ele>33.66666666666667</ele><time>2026-03-23T09:51:34.999Z</time></trkpt><trkpt lat="45.72571765294279" lon="12.25357715448019"><ele>34.0</ele><time>2026-03-23T09:51:35.999Z</time></trkpt><trkpt lat="45.72551349769692" lon="12.253645869954935"><ele>34.0</ele><time>2026-03-23T09:51:36.999Z</time></trkpt><trkpt lat="45.72530744496388" lon="12.253719851694367"><ele>34.0</ele><time>2026-03-23T09:51:37.999Z</time></trkpt><trkpt lat="45.72510553428254" lon="12.2537941850083"><ele>34.0</ele><time>2026-03-23T09:51:38.999Z</time></trkpt><trkpt lat="45.724910878017816" lon="12.253862745237413"><ele>33.0</ele><time>2026-03-23T09:51:39.999Z</time></trkpt><trkpt lat="45.724722777900176" lon="12.253931673713106"><ele>32.0</ele><time>2026-03-23T09:51:40.999Z</time></trkpt><trkpt lat="45.72454766719681" lon="12.253997500055792"><ele>31.0</ele><time>2026-03-23T09:51:41.999Z</time></trkpt><trkpt lat="45.72437587264838" lon="12.254061715358961"><ele>30.333333333333336</ele><time>2026-03-23T09:51:42.999Z</time></trkpt><trkpt lat="45.72420232652554" lon="12.25412327418309"><ele>29.666666666666664</ele><time>2026-03-23T09:51:43.999Z</time></trkpt><trkpt lat="45.724024008854606" lon="12.254180859341728"><ele>29.0</ele><time>2026-03-23T09:51:44.999Z</time></trkpt><trkpt lat="45.72383959628638" lon="12.254240846008535"><ele>29.0</ele><time>2026-03-23T09:51:45.999Z</time></trkpt><trkpt lat="45.72364937084604" lon="12.254303525599875"><ele>29.0</ele><time>2026-03-23T09:51:46.999Z</time></trkpt><trkpt lat="45.723476974118284" lon="12.25436260086432"><ele>29.0</ele><time>2026-03-23T09:51:47.999Z</time></trkpt><trkpt lat="45.7233516312225" lon="12.254343573343546"><ele>29.333333333333332</ele><time>2026-03-23T09:51:48.999Z</time></trkpt><trkpt lat="45.72325960265145" lon="12.254284665361446"><ele>29.666666666666664</ele><time>2026-03-23T09:51:49.999Z</time></trkpt><trkpt lat="45.72318126019171" lon="12.254209313091057"><ele>30.0</ele><time>2026-03-23T09:51:50.999Z</time></trkpt><trkpt lat="45.72273577391394" lon="12.254611212773389"><ele>29.666666666666664</ele><time>2026-03-23T09:51:51.999Z</time></trkpt><trkpt lat="45.7225500340387" lon="12.254660944601515"><ele>29.333333333333332</ele><time>2026-03-23T09:51:52.999Z</time></trkpt><trkpt lat="45.72236143749867" lon="12.254720660902846"><ele>29.0</ele><time>2026-03-23T09:51:53.999Z</time></trkpt><trkpt lat="45.72217734829893" lon="12.254783059714693"><ele>29.333333333333332</ele><time>2026-03-23T09:51:54.999Z</time></trkpt><trkpt lat="45.721987507159255" lon="12.254839943914105"><ele>29.666666666666664</ele><time>2026-03-23T09:51:55.999Z</time></trkpt><trkpt lat="45.72179495632467" lon="12.254906708871246"><ele>30.0</ele><time>2026-03-23T09:51:56.999Z</time></trkpt><trkpt lat="45.721589267345855" lon="12.254991185039962"><ele>30.0</ele><time>2026-03-23T09:51:57.999Z</time></trkpt><trkpt lat="45.72137884088022" lon="12.255075281442169"><ele>30.0</ele><time>2026-03-23T09:51:58.999Z</time></trkpt><trkpt lat="45.721161751890186" lon="12.25515902911365"><ele>30.0</ele><time>2026-03-23T09:51:59.999Z</time></trkpt><trkpt lat="45.720944054593815" lon="12.25523434853589"><ele>29.333333333333336</ele><time>2026-03-23T09:52:00.999Z</time></trkpt><trkpt lat="45.72073271225755" lon="12.255308278798664"><ele>28.666666666666668</ele><time>2026-03-23T09:52:01.999Z</time></trkpt><trkpt lat="45.72052882711423" lon="12.255380175545875"><ele>28.0</ele><time>2026-03-23T09:52:02.999Z</time></trkpt><trkpt lat="45.72032686276112" lon="12.255439297296695"><ele>28.333333333333336</ele><time>2026-03-23T09:52:03.999Z</time></trkpt><trkpt lat="45.720148551419875" lon="12.255500513183694"><ele>28.666666666666664</ele><time>2026-03-23T09:52:04.999Z</time></trkpt><trkpt lat="45.71997753973578" lon="12.255563832655913"><ele>29.0</ele><time>2026-03-23T09:52:05.999Z</time></trkpt><trkpt lat="45.7198188382958" lon="12.255625058038067"><ele>29.0</ele><time>2026-03-23T09:52:06.999Z</time></trkpt><trkpt lat="45.71966533829206" lon="12.255669872308129"><ele>29.0</ele><time>2026-03-23T09:52:07.999Z</time></trkpt><trkpt lat="45.71952180853354" lon="12.255717792956267"><ele>29.0</ele><time>2026-03-23T09:52:08.999Z</time></trkpt><trkpt lat="45.71938101754209" lon="12.255770797691273"><ele>28.5</ele><time>2026-03-23T09:52:09.999Z</time></trkpt><trkpt lat="45.71923780357015" lon="12.255823190392814"><ele>28.0</ele><time>2026-03-23T09:52:10.999Z</time></trkpt><trkpt lat="45.719098006348105" lon="12.255876290690514"><ele>27.5</ele><time>2026-03-23T09:52:11.999Z</time></trkpt><trkpt lat="45.718961798818945" lon="12.255910705587384"><ele>27.0</ele><time>2026-03-23T09:52:12.999Z</time></trkpt><trkpt lat="45.7188362440452" lon="12.255939177202727"><ele>27.0</ele><time>2026-03-23T09:52:13.999Z</time></trkpt><trkpt lat="45.718719334648945" lon="12.255980849850769"><ele>27.0</ele><time>2026-03-23T09:52:14.999Z</time></trkpt><trkpt lat="45.718624492167365" lon="12.256011178154088"><ele>27.0</ele><time>2026-03-23T09:52:15.999Z</time></trkpt><trkpt lat="45.718541117320434" lon="12.256023208085994"><ele>27.0</ele><time>2026-03-23T09:52:16.999Z</time></trkpt><trkpt lat="45.71846527908315" lon="12.256018378607124"><ele>27.0</ele><time>2026-03-23T09:52:18Z</time></trkpt><trkpt lat="45.71840142980626" lon="12.256002782254122"><ele>27.0</ele><time>2026-03-23T09:52:19Z</time></trkpt><trkpt lat="45.71829899581644" lon="12.256009186650836"><ele>27.166666666666668</ele><time>2026-03-23T09:52:21Z</time></trkpt><trkpt lat="45.718213823553" lon="12.256037917872147"><ele>27.333333333333336</ele><time>2026-03-23T09:52:23Z</time></trkpt><trkpt lat="45.7181407661731" lon="12.256036829735963"><ele>27.5</ele><time>2026-03-23T09:52:25Z</time></trkpt><trkpt lat="45.71802586364307" lon="12.256038437912599"><ele>27.666666666666668</ele><time>2026-03-23T09:52:27Z</time></trkpt><trkpt lat="45.717966625358216" lon="12.25612293093185"><ele>27.833333333333336</ele><time>2026-03-23T09:52:28Z</time></trkpt><trkpt lat="45.717902553035486" lon="12.25614450691653"><ele>28.0</ele><time>2026-03-23T09:52:29Z</time></trkpt><trkpt lat="45.71782005943169" lon="12.256158367302037"><ele>28.0</ele><time>2026-03-23T09:52:31Z</time></trkpt><trkpt lat="45.71770233772774" lon="12.2562489130645"><ele>28.0</ele><time>2026-03-23T09:52:33Z</time></trkpt><trkpt lat="45.71761291105873" lon="12.256354855869427"><ele>28.0</ele><time>2026-03-23T09:52:34Z</time></trkpt><trkpt lat="45.71751458246264" lon="12.256433359325142"><ele>28.0</ele><time>2026-03-23T09:52:35Z</time></trkpt><trkpt lat="45.71741213971685" lon="12.256468481697535"><ele>28.0</ele><time>2026-03-23T09:52:36Z</time></trkpt><trkpt lat="45.71729213088465" lon="12.256487453241938"><ele>28.0</ele><time>2026-03-23T09:52:37Z</time></trkpt><trkpt lat="45.71715030337905" lon="12.256520096926653"><ele>28.0</ele><time>2026-03-23T09:52:38Z</time></trkpt><trkpt lat="45.71700489514741" lon="12.256573567424466"><ele>28.0</ele><time>2026-03-23T09:52:39Z</time></trkpt><trkpt lat="45.716872632222916" lon="12.256629664946095"><ele>28.0</ele><time>2026-03-23T09:52:40Z</time></trkpt><trkpt lat="45.71672135938729" lon="12.256657110814416"><ele>28.0</ele><time>2026-03-23T09:52:41Z</time></trkpt><trkpt lat="45.71654430728727" lon="12.256717785294832"><ele>28.0</ele><time>2026-03-23T09:52:42Z</time></trkpt><trkpt lat="45.71638926432976" lon="12.256811153030878"><ele>28.0</ele><time>2026-03-23T09:52:43Z</time></trkpt><trkpt lat="45.716236699600856" lon="12.256864067900176"><ele>28.0</ele><time>2026-03-23T09:52:44Z</time></trkpt><trkpt lat="45.71607877800854" lon="12.256912244071275"><ele>28.0</ele><time>2026-03-23T09:52:45Z</time></trkpt><trkpt lat="45.71592292714619" lon="12.25696109356809"><ele>27.333333333333336</ele><time>2026-03-23T09:52:46Z</time></trkpt><trkpt lat="45.71577871319188" lon="12.257019919821024"><ele>26.666666666666664</ele><time>2026-03-23T09:52:47Z</time></trkpt><trkpt lat="45.71563231188531" lon="12.257086064978362"><ele>26.0</ele><time>2026-03-23T09:52:48Z</time></trkpt><trkpt lat="45.71548372817789" lon="12.257161509079198"><ele>26.0</ele><time>2026-03-23T09:52:49Z</time></trkpt><trkpt lat="45.715338172828936" lon="12.257246395234048"><ele>26.0</ele><time>2026-03-23T09:52:50Z</time></trkpt><trkpt lat="45.715181863561725" lon="12.257321930316117"><ele>26.0</ele><time>2026-03-23T09:52:51Z</time></trkpt><trkpt lat="45.71501902881135" lon="12.25743772847954"><ele>26.0</ele><time>2026-03-23T09:52:52Z</time></trkpt><trkpt lat="45.714841642375276" lon="12.257570050928365"><ele>26.0</ele><time>2026-03-23T09:52:53Z</time></trkpt><trkpt lat="45.71467097993696" lon="12.257705003943292"><ele>26.0</ele><time>2026-03-23T09:52:54Z</time></trkpt><trkpt lat="45.71452016715053" lon="12.257852465770984"><ele>26.0</ele><time>2026-03-23T09:52:55Z</time></trkpt><trkpt lat="45.71437455987837" lon="12.25797235484908"><ele>26.0</ele><time>2026-03-23T09:52:56Z</time></trkpt><trkpt lat="45.71424748656203" lon="12.258087323093008"><ele>26.0</ele><time>2026-03-23T09:52:57Z</time></trkpt><trkpt lat="45.714119007798885" lon="12.258174082765002"><ele>26.0</ele><time>2026-03-23T09:52:58Z</time></trkpt><trkpt lat="45.7140085932024" lon="12.258277489773638"><ele>26.0</ele><time>2026-03-23T09:52:59Z</time></trkpt><trkpt lat="45.71390047941589" lon="12.258363563590137"><ele>26.0</ele><time>2026-03-23T09:53:00Z</time></trkpt><trkpt lat="45.71380176095009" lon="12.2584498958228"><ele>26.0</ele><time>2026-03-23T09:53:01Z</time></trkpt><trkpt lat="45.71372188947628" lon="12.258520118275014"><ele>25.999999999999996</ele><time>2026-03-23T09:53:02Z</time></trkpt><trkpt lat="45.71366050624904" lon="12.258570194661642"><ele>26.0</ele><time>2026-03-23T09:53:03Z</time></trkpt><trkpt lat="45.713573074184914" lon="12.25862155386086"><ele>26.0</ele><time>2026-03-23T09:53:05Z</time></trkpt><trkpt lat="45.71348194591061" lon="12.258706047159162"><ele>26.0</ele><time>2026-03-23T09:53:07Z</time></trkpt><trkpt lat="45.713415193484465" lon="12.258755606251848"><ele>25.999999999999996</ele><time>2026-03-23T09:53:08Z</time></trkpt><trkpt lat="45.71333987507176" lon="12.258827105486148"><ele>26.0</ele><time>2026-03-23T09:53:09Z</time></trkpt><trkpt lat="45.71325919877958" lon="12.258921177970771"><ele>26.333333333333332</ele><time>2026-03-23T09:53:10Z</time></trkpt><trkpt lat="45.71318355964842" lon="12.258998946257513"><ele>26.666666666666664</ele><time>2026-03-23T09:53:11Z</time></trkpt><trkpt lat="45.71312562039596" lon="12.259051133494783"><ele>27.0</ele><time>2026-03-23T09:53:12Z</time></trkpt><trkpt lat="45.71306820297087" lon="12.259102141838897"><ele>27.333333333333336</ele><time>2026-03-23T09:53:13Z</time></trkpt><trkpt lat="45.71300863227333" lon="12.259153334261784"><ele>27.666666666666668</ele><time>2026-03-23T09:53:14Z</time></trkpt><trkpt lat="45.71293673148" lon="12.259207302732301"><ele>28.0</ele><time>2026-03-23T09:53:15Z</time></trkpt><trkpt lat="45.71286038465601" lon="12.259262135813055"><ele>28.000000000000004</ele><time>2026-03-23T09:53:16Z</time></trkpt><trkpt lat="45.71278700781694" lon="12.259315789650485"><ele>28.0</ele><time>2026-03-23T09:53:17Z</time></trkpt><trkpt lat="45.71272060738591" lon="12.259364119147799"><ele>28.0</ele><time>2026-03-23T09:53:18Z</time></trkpt><trkpt lat="45.712658066220484" lon="12.259416315638962"><ele>28.0</ele><time>2026-03-23T09:53:19Z</time></trkpt><trkpt lat="45.71259336585973" lon="12.259467612991594"><ele>28.000000000000004</ele><time>2026-03-23T09:53:20Z</time></trkpt><trkpt lat="45.71251677329566" lon="12.259521315965324"><ele>28.0</ele><time>2026-03-23T09:53:21Z</time></trkpt><trkpt lat="45.712435820875356" lon="12.2595948700973"><ele>27.5</ele><time>2026-03-23T09:53:22Z</time></trkpt><trkpt lat="45.71233874190741" lon="12.259660620707423"><ele>27.0</ele><time>2026-03-23T09:53:23Z</time></trkpt><trkpt lat="45.71222193096733" lon="12.259707132814768"><ele>26.5</ele><time>2026-03-23T09:53:24Z</time></trkpt><trkpt lat="45.71209097097458" lon="12.259733026979378"><ele>26.0</ele><time>2026-03-23T09:53:25Z</time></trkpt><trkpt lat="45.71195749329459" lon="12.2597410527033"><ele>26.0</ele><time>2026-03-23T09:53:26Z</time></trkpt><trkpt lat="45.711831386631" lon="12.25974462145978"><ele>26.0</ele><time>2026-03-23T09:53:27Z</time></trkpt><trkpt lat="45.71172223288548" lon="12.259719991632696"><ele>26.0</ele><time>2026-03-23T09:53:28Z</time></trkpt><trkpt lat="45.71162592770949" lon="12.259716496930114"><ele>26.0</ele><time>2026-03-23T09:53:29Z</time></trkpt><trkpt lat="45.71153377773695" lon="12.259713153010019"><ele>26.0</ele><time>2026-03-23T09:53:30Z</time></trkpt><trkpt lat="45.71144838324739" lon="12.259732383764767"><ele>26.0</ele><time>2026-03-23T09:53:31Z</time></trkpt><trkpt lat="45.71136205390706" lon="12.259723252691824"><ele>26.0</ele><time>2026-03-23T09:53:32Z</time></trkpt><trkpt lat="45.7112565979012" lon="12.259722938728094"><ele>26.0</ele><time>2026-03-23T09:53:33Z</time></trkpt><trkpt lat="45.71112232803637" lon="12.259728317270824"><ele>26.0</ele><time>2026-03-23T09:53:34Z</time></trkpt><trkpt lat="45.71096840513048" lon="12.25972631516946"><ele>26.333333333333332</ele><time>2026-03-23T09:53:35Z</time></trkpt><trkpt lat="45.71079285101587" lon="12.25971412759067"><ele>26.666666666666664</ele><time>2026-03-23T09:53:36Z</time></trkpt><trkpt lat="45.71061568414018" lon="12.259687265823667"><ele>27.0</ele><time>2026-03-23T09:53:37Z</time></trkpt><trkpt lat="45.71045674735943" lon="12.259686201582262"><ele>27.0</ele><time>2026-03-23T09:53:38Z</time></trkpt><trkpt lat="45.71030698385742" lon="12.25969141232731"><ele>27.0</ele><time>2026-03-23T09:53:39Z</time></trkpt><trkpt lat="45.71015959009888" lon="12.259690876981695"><ele>27.0</ele><time>2026-03-23T09:53:40Z</time></trkpt><trkpt lat="45.710014863232416" lon="12.259685476313624"><ele>27.0</ele><time>2026-03-23T09:53:41Z</time></trkpt><trkpt lat="45.70986917023263" lon="12.25967854286641"><ele>26.75</ele><time>2026-03-23T09:53:42Z</time></trkpt><trkpt lat="45.709722629483295" lon="12.25967505512481"><ele>26.5</ele><time>2026-03-23T09:53:42.999Z</time></trkpt><trkpt lat="45.70958365017059" lon="12.259671590245048"><ele>26.25</ele><time>2026-03-23T09:53:43.999Z</time></trkpt><trkpt lat="45.70943585311867" lon="12.259670065864906"><ele>26.0</ele><time>2026-03-23T09:53:44.999Z</time></trkpt><trkpt lat="45.7092786633203" lon="12.259643248323655"><ele>26.0</ele><time>2026-03-23T09:53:45.999Z</time></trkpt><trkpt lat="45.70910977366546" lon="12.259637845379276"><ele>26.0</ele><time>2026-03-23T09:53:46.999Z</time></trkpt><trkpt lat="45.70892213618921" lon="12.259631842676155"><ele>26.0</ele><time>2026-03-23T09:53:47.999Z</time></trkpt><trkpt lat="45.70872683596619" lon="12.259648183620067"><ele>26.0</ele><time>2026-03-23T09:53:48.999Z</time></trkpt><trkpt lat="45.70852462638359" lon="12.259619125906813"><ele>26.0</ele><time>2026-03-23T09:53:49.999Z</time></trkpt><trkpt lat="45.70830971436076" lon="12.259613244471106"><ele>26.0</ele><time>2026-03-23T09:53:50.999Z</time></trkpt><trkpt lat="45.70809210858037" lon="12.259607184175012"><ele>26.0</ele><time>2026-03-23T09:53:51.999Z</time></trkpt><trkpt lat="45.7078685205907" lon="12.259600721588182"><ele>26.0</ele><time>2026-03-23T09:53:52.999Z</time></trkpt><trkpt lat="45.707649015793045" lon="12.259594112511325"><ele>26.0</ele><time>2026-03-23T09:53:53.999Z</time></trkpt><trkpt lat="45.70745007814643" lon="12.25960069588672"><ele>25.666666666666664</ele><time>2026-03-23T09:53:54.999Z</time></trkpt><trkpt lat="45.707261300425195" lon="12.259590955057092"><ele>25.333333333333336</ele><time>2026-03-23T09:53:55.999Z</time></trkpt><trkpt lat="45.70708346137118" lon="12.259588716267267"><ele>25.0</ele><time>2026-03-23T09:53:56.999Z</time></trkpt><trkpt lat="45.70691552491907" lon="12.259586151597526"><ele>25.0</ele><time>2026-03-23T09:53:57.999Z</time></trkpt><trkpt lat="45.7067647767494" lon="12.25958333186799"><ele>25.0</ele><time>2026-03-23T09:53:58.999Z</time></trkpt><trkpt lat="45.70662514560956" lon="12.259577765649965"><ele>25.0</ele><time>2026-03-23T09:53:59.999Z</time></trkpt><trkpt lat="45.70649492348475" lon="12.259569984714135"><ele>25.0</ele><time>2026-03-23T09:54:00.999Z</time></trkpt><trkpt lat="45.70636792495498" lon="12.259563470283995"><ele>25.0</ele><time>2026-03-23T09:54:01.999Z</time></trkpt><trkpt lat="45.70623397226601" lon="12.259562019545596"><ele>25.0</ele><time>2026-03-23T09:54:02.999Z</time></trkpt><trkpt lat="45.706091754900775" lon="12.259559189618653"><ele>25.0</ele><time>2026-03-23T09:54:03.999Z</time></trkpt><trkpt lat="45.70594189809892" lon="12.259550930640584"><ele>25.0</ele><time>2026-03-23T09:54:04.999Z</time></trkpt><trkpt lat="45.70578303578815" lon="12.259549394859937"><ele>23.333333333333336</ele><time>2026-03-23T09:54:05.999Z</time></trkpt><trkpt lat="45.7056255472687" lon="12.259531540046043"><ele>21.666666666666668</ele><time>2026-03-23T09:54:06.999Z</time></trkpt><trkpt lat="45.705454924703325" lon="12.25952622152339"><ele>20.0</ele><time>2026-03-23T09:54:07.999Z</time></trkpt><trkpt lat="45.70526233260041" lon="12.259519888197275"><ele>20.333333333333336</ele><time>2026-03-23T09:54:08.999Z</time></trkpt><trkpt lat="45.70506548916147" lon="12.259534216935814"><ele>20.666666666666668</ele><time>2026-03-23T09:54:09.999Z</time></trkpt><trkpt lat="45.70487691381561" lon="12.25952822518128"><ele>21.0</ele><time>2026-03-23T09:54:10.999Z</time></trkpt><trkpt lat="45.70469465050845" lon="12.259531629696017"><ele>21.0</ele><time>2026-03-23T09:54:11.999Z</time></trkpt><trkpt lat="45.70450146087017" lon="12.25952756367095"><ele>21.0</ele><time>2026-03-23T09:54:12.999Z</time></trkpt><trkpt lat="45.704301360627575" lon="12.259511699261184"><ele>21.0</ele><time>2026-03-23T09:54:13.999Z</time></trkpt><trkpt lat="45.70410701985233" lon="12.259501289059715"><ele>21.666666666666668</ele><time>2026-03-23T09:54:14.999Z</time></trkpt><trkpt lat="45.70392591947944" lon="12.259501070477775"><ele>22.333333333333336</ele><time>2026-03-23T09:54:15.999Z</time></trkpt><trkpt lat="45.70375990016792" lon="12.259473091816787"><ele>23.0</ele><time>2026-03-23T09:54:16.999Z</time></trkpt><trkpt lat="45.703598968984714" lon="12.25946884031524"><ele>23.0</ele><time>2026-03-23T09:54:17.999Z</time></trkpt><trkpt lat="45.70344901277541" lon="12.25948707756293"><ele>23.0</ele><time>2026-03-23T09:54:18.999Z</time></trkpt><trkpt lat="45.70330743988636" lon="12.25948401077165"><ele>23.0</ele><time>2026-03-23T09:54:19.999Z</time></trkpt><trkpt lat="45.70316805387864" lon="12.259480447500957"><ele>23.0</ele><time>2026-03-23T09:54:20.999Z</time></trkpt><trkpt lat="45.703028127949565" lon="12.259451069697263"><ele>23.0</ele><time>2026-03-23T09:54:21.999Z</time></trkpt><trkpt lat="45.702876638830254" lon="12.259439839213531"><ele>23.0</ele><time>2026-03-23T09:54:22.999Z</time></trkpt><trkpt lat="45.70270039069762" lon="12.259418539676076"><ele>23.0</ele><time>2026-03-23T09:54:24Z</time></trkpt><trkpt lat="45.70250211390238" lon="12.259408094707585"><ele>22.0</ele><time>2026-03-23T09:54:25Z</time></trkpt><trkpt lat="45.702306232364066" lon="12.259369141717942"><ele>21.0</ele><time>2026-03-23T09:54:26Z</time></trkpt><trkpt lat="45.702110803079805" lon="12.259340782227337"><ele>20.0</ele><time>2026-03-23T09:54:27Z</time></trkpt><trkpt lat="45.70192587166598" lon="12.259299888426286"><ele>20.333333333333336</ele><time>2026-03-23T09:54:28Z</time></trkpt><trkpt lat="45.701747156638625" lon="12.259269014293974"><ele>20.666666666666668</ele><time>2026-03-23T09:54:29Z</time></trkpt><trkpt lat="45.70155929485637" lon="12.259233551096942"><ele>21.0</ele><time>2026-03-23T09:54:30Z</time></trkpt><trkpt lat="45.701379077121935" lon="12.25919689264833"><ele>21.0</ele><time>2026-03-23T09:54:31Z</time></trkpt><trkpt lat="45.701204711125655" lon="12.2591627089197"><ele>21.0</ele><time>2026-03-23T09:54:32Z</time></trkpt><trkpt lat="45.70104101244111" lon="12.259126068157538"><ele>21.0</ele><time>2026-03-23T09:54:33Z</time></trkpt><trkpt lat="45.700884251281536" lon="12.259100678250977"><ele>21.25</ele><time>2026-03-23T09:54:34Z</time></trkpt><trkpt lat="45.70073879027519" lon="12.259075964674016"><ele>21.5</ele><time>2026-03-23T09:54:35Z</time></trkpt><trkpt lat="45.70059583545983" lon="12.259049184831646"><ele>21.75</ele><time>2026-03-23T09:54:36Z</time></trkpt><trkpt lat="45.70046256597925" lon="12.25902393123362"><ele>22.0</ele><time>2026-03-23T09:54:37Z</time></trkpt><trkpt lat="45.700334991634556" lon="12.259001990299026"><ele>22.0</ele><time>2026-03-23T09:54:38Z</time></trkpt><trkpt lat="45.70020841506722" lon="12.25897760070478"><ele>22.0</ele><time>2026-03-23T09:54:39Z</time></trkpt><trkpt lat="45.70006991795314" lon="12.258953741800385"><ele>22.0</ele><time>2026-03-23T09:54:40Z</time></trkpt><trkpt lat="45.699911154393305" lon="12.25892227647679"><ele>22.0</ele><time>2026-03-23T09:54:41Z</time></trkpt><trkpt lat="45.69975244596673" lon="12.258874906254547"><ele>22.0</ele><time>2026-03-23T09:54:42Z</time></trkpt><trkpt lat="45.69960659776934" lon="12.258834657945343"><ele>22.0</ele><time>2026-03-23T09:54:43Z</time></trkpt><trkpt lat="45.69947530627655" lon="12.258799363934015"><ele>22.0</ele><time>2026-03-23T09:54:44Z</time></trkpt><trkpt lat="45.699366062546105" lon="12.258750950570468"><ele>22.0</ele><time>2026-03-23T09:54:45Z</time></trkpt><trkpt lat="45.69927786496232" lon="12.25869126487162"><ele>22.0</ele><time>2026-03-23T09:54:46Z</time></trkpt><trkpt lat="45.6991998500876" lon="12.258616672998645"><ele>22.0</ele><time>2026-03-23T09:54:47Z</time></trkpt><trkpt lat="45.699127187538615" lon="12.258534141509823"><ele>22.0</ele><time>2026-03-23T09:54:48Z</time></trkpt><trkpt lat="45.69906281099156" lon="12.258434371595394"><ele>22.0</ele><time>2026-03-23T09:54:49Z</time></trkpt><trkpt lat="45.698985664903695" lon="12.25832204701499"><ele>22.0</ele><time>2026-03-23T09:54:50Z</time></trkpt><trkpt lat="45.69888025502077" lon="12.258234289412881"><ele>22.0</ele><time>2026-03-23T09:54:51Z</time></trkpt><trkpt lat="45.69876602969804" lon="12.258150617397595"><ele>22.0</ele><time>2026-03-23T09:54:52Z</time></trkpt><trkpt lat="45.698663769171446" lon="12.258047130555916"><ele>22.0</ele><time>2026-03-23T09:54:53Z</time></trkpt><trkpt lat="45.69856428682182" lon="12.257895827283999"><ele>22.0</ele><time>2026-03-23T09:54:54Z</time></trkpt><trkpt lat="45.698469526040526" lon="12.257726892966357"><ele>21.5</ele><time>2026-03-23T09:54:55Z</time></trkpt><trkpt lat="45.698366608115045" lon="12.257573173427138"><ele>21.0</ele><time>2026-03-23T09:54:56Z</time></trkpt><trkpt lat="45.69826339344131" lon="12.25742643708795"><ele>20.5</ele><time>2026-03-23T09:54:57Z</time></trkpt><trkpt lat="45.698170166186564" lon="12.25727652265497"><ele>20.0</ele><time>2026-03-23T09:54:58Z</time></trkpt><trkpt lat="45.698070292029016" lon="12.257127231288191"><ele>19.333333333333336</ele><time>2026-03-23T09:54:59Z</time></trkpt><trkpt lat="45.69796743250649" lon="12.25697621307278"><ele>18.666666666666668</ele><time>2026-03-23T09:55:00Z</time></trkpt><trkpt lat="45.69786131427725" lon="12.256822680882719"><ele>18.0</ele><time>2026-03-23T09:55:01Z</time></trkpt><trkpt lat="45.69775621400728" lon="12.25666625837306"><ele>18.333333333333332</ele><time>2026-03-23T09:55:02Z</time></trkpt><trkpt lat="45.697648943867726" lon="12.256501831049286"><ele>18.666666666666664</ele><time>2026-03-23T09:55:03Z</time></trkpt><trkpt lat="45.69754321615551" lon="12.256334421644269"><ele>19.0</ele><time>2026-03-23T09:55:04Z</time></trkpt><trkpt lat="45.697439504293015" lon="12.256186099209058"><ele>19.0</ele><time>2026-03-23T09:55:05Z</time></trkpt><trkpt lat="45.697346703954054" lon="12.256046596449812"><ele>19.0</ele><time>2026-03-23T09:55:06Z</time></trkpt><trkpt lat="45.69726706675981" lon="12.255938338047285"><ele>19.0</ele><time>2026-03-23T09:55:07Z</time></trkpt><trkpt lat="45.697206271039455" lon="12.2558466987327"><ele>19.0</ele><time>2026-03-23T09:55:08Z</time></trkpt><trkpt lat="45.69714781884008" lon="12.25576390888745"><ele>19.0</ele><time>2026-03-23T09:55:09Z</time></trkpt><trkpt lat="45.69708859772996" lon="12.255675138946689"><ele>19.0</ele><time>2026-03-23T09:55:10Z</time></trkpt><trkpt lat="45.69701342464799" lon="12.255558661197961"><ele>19.0</ele><time>2026-03-23T09:55:11Z</time></trkpt><trkpt lat="45.69693247742154" lon="12.255410107722192"><ele>19.0</ele><time>2026-03-23T09:55:12Z</time></trkpt><trkpt lat="45.69681998548103" lon="12.255255326888754"><ele>19.0</ele><time>2026-03-23T09:55:13Z</time></trkpt><trkpt lat="45.69667503663855" lon="12.255103910756734"><ele>19.0</ele><time>2026-03-23T09:55:14Z</time></trkpt><trkpt lat="45.696516082553316" lon="12.254940953529935"><ele>19.0</ele><time>2026-03-23T09:55:15Z</time></trkpt><trkpt lat="45.69635050305481" lon="12.25476408577412"><ele>19.0</ele><time>2026-03-23T09:55:16Z</time></trkpt><trkpt lat="45.69619089514738" lon="12.254603161318785"><ele>18.333333333333332</ele><time>2026-03-23T09:55:17Z</time></trkpt><trkpt lat="45.69603132296424" lon="12.254460560265635"><ele>17.666666666666668</ele><time>2026-03-23T09:55:18Z</time></trkpt><trkpt lat="45.695865057494004" lon="12.254318862754442"><ele>17.0</ele><time>2026-03-23T09:55:19Z</time></trkpt><trkpt lat="45.69571887328977" lon="12.25418431878464"><ele>17.0</ele><time>2026-03-23T09:55:20Z</time></trkpt><trkpt lat="45.69558611730647" lon="12.254052250914802"><ele>17.0</ele><time>2026-03-23T09:55:21Z</time></trkpt><trkpt lat="45.69545646649583" lon="12.25393537552443"><ele>17.0</ele><time>2026-03-23T09:55:22Z</time></trkpt><trkpt lat="45.695333479944594" lon="12.253831098034695"><ele>17.5</ele><time>2026-03-23T09:55:23Z</time></trkpt><trkpt lat="45.69521049974554" lon="12.253713667555422"><ele>18.0</ele><time>2026-03-23T09:55:24Z</time></trkpt><trkpt lat="45.695090120931745" lon="12.253599087462677"><ele>18.5</ele><time>2026-03-23T09:55:25Z</time></trkpt><trkpt lat="45.69497234766269" lon="12.253493651815544"><ele>19.0</ele><time>2026-03-23T09:55:26Z</time></trkpt><trkpt lat="45.694854855816736" lon="12.253390138048847"><ele>19.0</ele><time>2026-03-23T09:55:27Z</time></trkpt><trkpt lat="45.694736817546136" lon="12.253285596258245"><ele>19.0</ele><time>2026-03-23T09:55:28Z</time></trkpt><trkpt lat="45.69461873974484" lon="12.253177738710487"><ele>19.0</ele><time>2026-03-23T09:55:29Z</time></trkpt><trkpt lat="45.69451025272834" lon="12.253074680149416"><ele>19.0</ele><time>2026-03-23T09:55:30Z</time></trkpt><trkpt lat="45.69440947830326" lon="12.252981433757041"><ele>18.599999999999998</ele><time>2026-03-23T09:55:31Z</time></trkpt><trkpt lat="45.69431725241305" lon="12.252898421014812"><ele>18.2</ele><time>2026-03-23T09:55:32Z</time></trkpt><trkpt lat="45.694235463016014" lon="12.252822199289373"><ele>17.799999999999997</ele><time>2026-03-23T09:55:33Z</time></trkpt><trkpt lat="45.6941664589797" lon="12.25275623931671"><ele>17.4</ele><time>2026-03-23T09:55:34Z</time></trkpt><trkpt lat="45.694106932112796" lon="12.252696043233527"><ele>17.0</ele><time>2026-03-23T09:55:35Z</time></trkpt><trkpt lat="45.69401763818596" lon="12.252608358199574"><ele>17.0</ele><time>2026-03-23T09:55:37Z</time></trkpt><trkpt lat="45.69393971229978" lon="12.252514266182772"><ele>17.0</ele><time>2026-03-23T09:55:39Z</time></trkpt><trkpt lat="45.693893240184686" lon="12.252430576411154"><ele>17.0</ele><time>2026-03-23T09:55:39.999Z</time></trkpt><trkpt lat="45.69383619002144" lon="12.252342171178004"><ele>17.0</ele><time>2026-03-23T09:55:40.999Z</time></trkpt><trkpt lat="45.69376076685233" lon="12.25227434735482"><ele>17.0</ele><time>2026-03-23T09:55:41.999Z</time></trkpt><trkpt lat="45.6936550033362" lon="12.252222826025436"><ele>17.0</ele><time>2026-03-23T09:55:42.999Z</time></trkpt><trkpt lat="45.693528990886435" lon="12.252167809902092"><ele>17.0</ele><time>2026-03-23T09:55:43.999Z</time></trkpt><trkpt lat="45.69341843351738" lon="12.252074504569507"><ele>17.0</ele><time>2026-03-23T09:55:44.999Z</time></trkpt><trkpt lat="45.693325065294424" lon="12.251978433141398"><ele>17.0</ele><time>2026-03-23T09:55:45.999Z</time></trkpt><trkpt lat="45.693227824123476" lon="12.251903734986774"><ele>17.0</ele><time>2026-03-23T09:55:46.999Z</time></trkpt><trkpt lat="45.69312439200513" lon="12.251811863770977"><ele>17.0</ele><time>2026-03-23T09:55:47.999Z</time></trkpt><trkpt lat="45.693024364284305" lon="12.251717565153877"><ele>17.0</ele><time>2026-03-23T09:55:48.999Z</time></trkpt><trkpt lat="45.69292620703663" lon="12.251627458092623"><ele>17.0</ele><time>2026-03-23T09:55:49.999Z</time></trkpt><trkpt lat="45.69283094187587" lon="12.251537213324074"><ele>17.0</ele><time>2026-03-23T09:55:50.999Z</time></trkpt><trkpt lat="45.69273544221253" lon="12.251442385646625"><ele>17.0</ele><time>2026-03-23T09:55:51.999Z</time></trkpt><trkpt lat="45.69263625635163" lon="12.25134067034933"><ele>17.0</ele><time>2026-03-23T09:55:52.999Z</time></trkpt><trkpt lat="45.692524790017735" lon="12.2512418688068"><ele>17.0</ele><time>2026-03-23T09:55:53.999Z</time></trkpt><trkpt lat="45.69240889848747" lon="12.251142669557066"><ele>17.0</ele><time>2026-03-23T09:55:54.999Z</time></trkpt><trkpt lat="45.69230424190735" lon="12.251050882590228"><ele>17.0</ele><time>2026-03-23T09:55:55.999Z</time></trkpt><trkpt lat="45.69219778115159" lon="12.250952374561507"><ele>17.0</ele><time>2026-03-23T09:55:56.999Z</time></trkpt><trkpt lat="45.69207965592502" lon="12.250847017202943"><ele>17.0</ele><time>2026-03-23T09:55:57.999Z</time></trkpt><trkpt lat="45.69196785574302" lon="12.250746960869657"><ele>17.4</ele><time>2026-03-23T09:55:58.999Z</time></trkpt><trkpt lat="45.69186405578598" lon="12.25065849510775"><ele>17.799999999999997</ele><time>2026-03-23T09:55:59.999Z</time></trkpt><trkpt lat="45.69177606258573" lon="12.250582357718756"><ele>18.2</ele><time>2026-03-23T09:56:00.999Z</time></trkpt><trkpt lat="45.69170340338274" lon="12.250523146463463"><ele>18.599999999999998</ele><time>2026-03-23T09:56:01.999Z</time></trkpt><trkpt lat="45.69162844836412" lon="12.25046135700598"><ele>19.0</ele><time>2026-03-23T09:56:02.999Z</time></trkpt><trkpt lat="45.69155753754388" lon="12.250398430644942"><ele>19.0</ele><time>2026-03-23T09:56:03.999Z</time></trkpt><trkpt lat="45.691499700599" lon="12.250342140006277"><ele>19.0</ele><time>2026-03-23T09:56:04.999Z</time></trkpt><trkpt lat="45.691431816975815" lon="12.25024585528731"><ele>19.0</ele><time>2026-03-23T09:56:06.999Z</time></trkpt><trkpt lat="45.69137708725475" lon="12.250195237677659"><ele>19.0</ele><time>2026-03-23T09:56:09.999Z</time></trkpt><trkpt lat="45.691320272328774" lon="12.25038991854094"><ele>19.0</ele><time>2026-03-23T09:56:12.999Z</time></trkpt><trkpt lat="45.69139301220901" lon="12.25049629025147"><ele>19.0</ele><time>2026-03-23T09:56:15.999Z</time></trkpt><trkpt lat="45.691439228959844" lon="12.250569334026528"><ele>19.0</ele><time>2026-03-23T09:56:17.999Z</time></trkpt></trkseg><trkseg><trkpt lat="45.684945854710286" lon="12.244503647634245"><ele>16.0</ele><time>2026-03-23T10:01:34Z</time></trkpt><trkpt lat="45.68485666486958" lon="12.244415184182522"><ele>16.0</ele><time>2026-03-23T10:01:44Z</time></trkpt><trkpt lat="45.684757583110276" lon="12.244349229614894"><ele>16.0</ele><time>2026-03-23T10:01:46Z</time></trkpt><trkpt lat="45.68465811333554" lon="12.244264926848446"><ele>16.0</ele><time>2026-03-23T10:01:48Z</time></trkpt><trkpt lat="45.6845593303777" lon="12.24419616578132"><ele>16.0</ele><time>2026-03-23T10:01:50Z</time></trkpt><trkpt lat="45.68449971898733" lon="12.244147899264096"><ele>15.999999999999998</ele><time>2026-03-23T10:01:51Z</time></trkpt><trkpt lat="45.68443077416086" lon="12.244091554264054"><ele>16.0</ele><time>2026-03-23T10:01:52Z</time></trkpt><trkpt lat="45.684354531701395" lon="12.244039867881579"><ele>16.0</ele><time>2026-03-23T10:01:53Z</time></trkpt><trkpt lat="45.684279946559535" lon="12.243995812428413"><ele>16.0</ele><time>2026-03-23T10:01:54Z</time></trkpt><trkpt lat="45.68421166631468" lon="12.243947951698955"><ele>15.999999999999998</ele><time>2026-03-23T10:01:55Z</time></trkpt><trkpt lat="45.6841472438902" lon="12.243900210329713"><ele>16.0</ele><time>2026-03-23T10:01:56Z</time></trkpt><trkpt lat="45.68403906157181" lon="12.24381796008045"><ele>15.833333333333332</ele><time>2026-03-23T10:01:58Z</time></trkpt><trkpt lat="45.68397888464904" lon="12.243771817359839"><ele>15.666666666666666</ele><time>2026-03-23T10:01:59Z</time></trkpt><trkpt lat="45.68391949665935" lon="12.243726510787184"><ele>15.5</ele><time>2026-03-23T10:02:00Z</time></trkpt><trkpt lat="45.683814087951504" lon="12.243637114471266"><ele>15.333333333333332</ele><time>2026-03-23T10:02:02Z</time></trkpt><trkpt lat="45.683751378943754" lon="12.243590464969449"><ele>15.166666666666666</ele><time>2026-03-23T10:02:03Z</time></trkpt><trkpt lat="45.68368393835122" lon="12.24354133316003"><ele>15.0</ele><time>2026-03-23T10:02:04Z</time></trkpt><trkpt lat="45.68361951507614" lon="12.243494007984715"><ele>15.166666666666666</ele><time>2026-03-23T10:02:05Z</time></trkpt><trkpt lat="45.68355341180294" lon="12.243449535656675"><ele>15.333333333333332</ele><time>2026-03-23T10:02:06Z</time></trkpt><trkpt lat="45.683490298377656" lon="12.243407813048911"><ele>15.5</ele><time>2026-03-23T10:02:07Z</time></trkpt><trkpt lat="45.68341649861735" lon="12.243355644828213"><ele>15.666666666666666</ele><time>2026-03-23T10:02:08Z</time></trkpt><trkpt lat="45.683341606057255" lon="12.243299956201817"><ele>15.833333333333332</ele><time>2026-03-23T10:02:09Z</time></trkpt><trkpt lat="45.68326094235024" lon="12.243241603148507"><ele>16.0</ele><time>2026-03-23T10:02:10Z</time></trkpt><trkpt lat="45.68317831198578" lon="12.24318044792875"><ele>16.0</ele><time>2026-03-23T10:02:11Z</time></trkpt><trkpt lat="45.68308781368546" lon="12.243121173658396"><ele>16.0</ele><time>2026-03-23T10:02:12Z</time></trkpt><trkpt lat="45.68299323462666" lon="12.243058512039697"><ele>16.0</ele><time>2026-03-23T10:02:13Z</time></trkpt><trkpt lat="45.68289216347095" lon="12.24298234957891"><ele>16.0</ele><time>2026-03-23T10:02:14Z</time></trkpt><trkpt lat="45.68277873478822" lon="12.242897980425685"><ele>16.0</ele><time>2026-03-23T10:02:15Z</time></trkpt><trkpt lat="45.682668373674026" lon="12.242812081287282"><ele>15.8</ele><time>2026-03-23T10:02:16Z</time></trkpt><trkpt lat="45.68257028416534" lon="12.242738912688443"><ele>15.600000000000001</ele><time>2026-03-23T10:02:17Z</time></trkpt><trkpt lat="45.68247287373876" lon="12.242668409724866"><ele>15.4</ele><time>2026-03-23T10:02:18Z</time></trkpt><trkpt lat="45.6823859145715" lon="12.24259884596689"><ele>15.2</ele><time>2026-03-23T10:02:19Z</time></trkpt><trkpt lat="45.682297689197284" lon="12.242535348566955"><ele>15.0</ele><time>2026-03-23T10:02:20Z</time></trkpt><trkpt lat="45.682207906444056" lon="12.242476047839085"><ele>15.0</ele><time>2026-03-23T10:02:21Z</time></trkpt><trkpt lat="45.68211016922569" lon="12.242397872640517"><ele>15.0</ele><time>2026-03-23T10:02:22Z</time></trkpt><trkpt lat="45.68200944049613" lon="12.24229126953744"><ele>15.0</ele><time>2026-03-23T10:02:23Z</time></trkpt><trkpt lat="45.68190408208856" lon="12.242172692377498"><ele>15.0</ele><time>2026-03-23T10:02:24Z</time></trkpt><trkpt lat="45.68178628873914" lon="12.242086623122407"><ele>15.166666666666666</ele><time>2026-03-23T10:02:25Z</time></trkpt><trkpt lat="45.68168227503199" lon="12.241997021712313"><ele>15.333333333333332</ele><time>2026-03-23T10:02:26Z</time></trkpt><trkpt lat="45.68159457058503" lon="12.241911677325202"><ele>15.5</ele><time>2026-03-23T10:02:27Z</time></trkpt><trkpt lat="45.68152340169325" lon="12.241849177215618"><ele>15.666666666666666</ele><time>2026-03-23T10:02:28Z</time></trkpt><trkpt lat="45.681466742240104" lon="12.2417958255799"><ele>15.833333333333332</ele><time>2026-03-23T10:02:29Z</time></trkpt><trkpt lat="45.68141544318655" lon="12.24173836652854"><ele>16.0</ele><time>2026-03-23T10:02:30Z</time></trkpt><trkpt lat="45.6813646525093" lon="12.24166753806879"><ele>15.999999999999998</ele><time>2026-03-23T10:02:31Z</time></trkpt><trkpt lat="45.681278248283384" lon="12.241577246827738"><ele>16.0</ele><time>2026-03-23T10:02:33Z</time></trkpt><trkpt lat="45.68120818665948" lon="12.2415082881085"><ele>16.0</ele><time>2026-03-23T10:02:36Z</time></trkpt><trkpt lat="45.68111862738894" lon="12.241415024060064"><ele>16.0</ele><time>2026-03-23T10:02:38Z</time></trkpt><trkpt lat="45.68105893619847" lon="12.241352863645206"><ele>15.999999999999998</ele><time>2026-03-23T10:02:38.999Z</time></trkpt><trkpt lat="45.68100385851307" lon="12.241295507836663"><ele>16.0</ele><time>2026-03-23T10:02:39.999Z</time></trkpt><trkpt lat="45.680888671922915" lon="12.241176914636753"><ele>16.2</ele><time>2026-03-23T10:02:41.999Z</time></trkpt><trkpt lat="45.68081309834375" lon="12.241099013092589"><ele>16.400000000000002</ele><time>2026-03-23T10:02:42.999Z</time></trkpt><trkpt lat="45.68073550108048" lon="12.241019025558625"><ele>16.6</ele><time>2026-03-23T10:02:43.999Z</time></trkpt><trkpt lat="45.680657415330984" lon="12.240938535371088"><ele>16.8</ele><time>2026-03-23T10:02:44.999Z</time></trkpt><trkpt lat="45.68058150019848" lon="12.240857552204009"><ele>17.0</ele><time>2026-03-23T10:02:45.999Z</time></trkpt><trkpt lat="45.68051219478062" lon="12.240785379464105"><ele>17.0</ele><time>2026-03-23T10:02:46.999Z</time></trkpt><trkpt lat="45.68045164772811" lon="12.240722154795503"><ele>17.0</ele><time>2026-03-23T10:02:48.001Z</time></trkpt><trkpt lat="45.68039253137791" lon="12.240660423900565"><ele>17.0</ele><time>2026-03-23T10:02:49.001Z</time></trkpt><trkpt lat="45.680319092712445" lon="12.240624892457902"><ele>17.0</ele><time>2026-03-23T10:02:50.001Z</time></trkpt><trkpt lat="45.68025513554137" lon="12.24055155750109"><ele>17.0</ele><time>2026-03-23T10:02:52.001Z</time></trkpt><trkpt lat="45.68017903412453" lon="12.240469650483274"><ele>17.0</ele><time>2026-03-23T10:02:55.001Z</time></trkpt><trkpt lat="45.680089281177565" lon="12.240384962606832"><ele>16.8</ele><time>2026-03-23T10:02:57.001Z</time></trkpt><trkpt lat="45.68001734659141" lon="12.240318309224833"><ele>16.6</ele><time>2026-03-23T10:02:58.001Z</time></trkpt><trkpt lat="45.67995038738187" lon="12.240253194432862"><ele>16.400000000000002</ele><time>2026-03-23T10:02:59.001Z</time></trkpt><trkpt lat="45.679877195114024" lon="12.240170032739691"><ele>16.2</ele><time>2026-03-23T10:03:00.001Z</time></trkpt><trkpt lat="45.67978508526901" lon="12.24006901796608"><ele>16.0</ele><time>2026-03-23T10:03:01.001Z</time></trkpt><trkpt lat="45.67971021790508" lon="12.239953070025571"><ele>15.999999999999998</ele><time>2026-03-23T10:03:02.001Z</time></trkpt><trkpt lat="45.679628929282735" lon="12.23986898980126"><ele>16.0</ele><time>2026-03-23T10:03:03Z</time></trkpt><trkpt lat="45.67956091858123" lon="12.239798643179665"><ele>16.0</ele><time>2026-03-23T10:03:04Z</time></trkpt><trkpt lat="45.679493166874586" lon="12.239728564158508"><ele>16.0</ele><time>2026-03-23T10:03:05Z</time></trkpt><trkpt lat="45.67941213672004" lon="12.239643613018362"><ele>15.999999999999998</ele><time>2026-03-23T10:03:06Z</time></trkpt><trkpt lat="45.679348038723155" lon="12.239576474856161"><ele>16.0</ele><time>2026-03-23T10:03:07Z</time></trkpt><trkpt lat="45.679280363166384" lon="12.239506385390072"><ele>15.666666666666666</ele><time>2026-03-23T10:03:08Z</time></trkpt><trkpt lat="45.679210335021956" lon="12.239433775414058"><ele>15.333333333333332</ele><time>2026-03-23T10:03:09Z</time></trkpt><trkpt lat="45.67914426143407" lon="12.239365264319638"><ele>15.0</ele><time>2026-03-23T10:03:10Z</time></trkpt><trkpt lat="45.67906086050835" lon="12.239279552791066"><ele>14.666666666666668</ele><time>2026-03-23T10:03:12Z</time></trkpt><trkpt lat="45.67898754961823" lon="12.239220590814861"><ele>14.333333333333334</ele><time>2026-03-23T10:03:15Z</time></trkpt><trkpt lat="45.67894287622149" lon="12.23914951029547"><ele>14.0</ele><time>2026-03-23T10:03:16Z</time></trkpt><trkpt lat="45.67884374410809" lon="12.239045852075941"><ele>14.000000000000002</ele><time>2026-03-23T10:03:18Z</time></trkpt><trkpt lat="45.67878690881656" lon="12.238985438511566"><ele>14.0</ele><time>2026-03-23T10:03:19Z</time></trkpt><trkpt lat="45.6787273187787" lon="12.238926172147773"><ele>14.0</ele><time>2026-03-23T10:03:20Z</time></trkpt><trkpt lat="45.67866620503034" lon="12.238853832255806"><ele>14.0</ele><time>2026-03-23T10:03:21Z</time></trkpt><trkpt lat="45.67860750614451" lon="12.238780184987188"><ele>14.000000000000002</ele><time>2026-03-23T10:03:22Z</time></trkpt><trkpt lat="45.67854188048346" lon="12.238715152002635"><ele>14.0</ele><time>2026-03-23T10:03:23Z</time></trkpt><trkpt lat="45.67847478926635" lon="12.238654679086833"><ele>14.666666666666668</ele><time>2026-03-23T10:03:24Z</time></trkpt><trkpt lat="45.678416596190246" lon="12.238591016099322"><ele>15.333333333333334</ele><time>2026-03-23T10:03:25Z</time></trkpt><trkpt lat="45.6783248715664" lon="12.238495999516562"><ele>16.0</ele><time>2026-03-23T10:03:27Z</time></trkpt><trkpt lat="45.678265976228445" lon="12.238426725368297"><ele>16.666666666666668</ele><time>2026-03-23T10:03:29Z</time></trkpt><trkpt lat="45.67820915495848" lon="12.238363552030732"><ele>17.333333333333332</ele><time>2026-03-23T10:03:31Z</time></trkpt><trkpt lat="45.678141695386884" lon="12.238299667118135"><ele>18.0</ele><time>2026-03-23T10:03:33Z</time></trkpt><trkpt lat="45.678078261340296" lon="12.238241952105728"><ele>18.0</ele><time>2026-03-23T10:03:35Z</time></trkpt><trkpt lat="45.67814157153424" lon="12.238259945221692"><ele>18.0</ele><time>2026-03-23T10:04:03Z</time></trkpt><trkpt lat="45.67819224821564" lon="12.23831393337975"><ele>18.0</ele><time>2026-03-23T10:04:06Z</time></trkpt><trkpt lat="45.678265211330086" lon="12.238311222451319"><ele>18.0</ele><time>2026-03-23T10:04:09Z</time></trkpt><trkpt lat="45.67833681354746" lon="12.238186021219917"><ele>18.0</ele><time>2026-03-23T10:04:11Z</time></trkpt><trkpt lat="45.678389813121115" lon="12.238109767168595"><ele>17.0</ele><time>2026-03-23T10:04:15Z</time></trkpt></trkseg><trkseg><trkpt lat="45.67834786526102" lon="12.238208471173627"><ele>18.0</ele><time>2026-03-23T10:20:44.999Z</time></trkpt><trkpt lat="45.678293718611584" lon="12.238276524109638"><ele>18.0</ele><time>2026-03-23T10:20:47.999Z</time></trkpt><trkpt lat="45.67823530803238" lon="12.238325244727108"><ele>18.0</ele><time>2026-03-23T10:20:51.999Z</time></trkpt><trkpt lat="45.67816357758411" lon="12.238310082795538"><ele>18.0</ele><time>2026-03-23T10:21:00Z</time></trkpt><trkpt lat="45.678079096109784" lon="12.23822871686988"><ele>18.0</ele><time>2026-03-23T10:21:02Z</time></trkpt><trkpt lat="45.67801374086929" lon="12.238147251995366"><ele>18.0</ele><time>2026-03-23T10:21:04Z</time></trkpt><trkpt lat="45.677956081008396" lon="12.238090835703762"><ele>17.8</ele><time>2026-03-23T10:21:08Z</time></trkpt><trkpt lat="45.67788696016233" lon="12.238059956322513"><ele>17.6</ele><time>2026-03-23T10:21:13Z</time></trkpt><trkpt lat="45.6777870558351" lon="12.2379587128117"><ele>17.4</ele><time>2026-03-23T10:21:15Z</time></trkpt><trkpt lat="45.67773990913718" lon="12.237897391442916"><ele>17.2</ele><time>2026-03-23T10:21:16Z</time></trkpt><trkpt lat="45.67763484865609" lon="12.237782855602317"><ele>17.0</ele><time>2026-03-23T10:21:18Z</time></trkpt><trkpt lat="45.677564639860854" lon="12.237707023983313"><ele>17.0</ele><time>2026-03-23T10:21:19Z</time></trkpt><trkpt lat="45.677503091700075" lon="12.237632110714344"><ele>17.0</ele><time>2026-03-23T10:21:20Z</time></trkpt><trkpt lat="45.67744094532572" lon="12.237583202943828"><ele>17.0</ele><time>2026-03-23T10:21:21Z</time></trkpt><trkpt lat="45.67737965852228" lon="12.237530430954228"><ele>17.0</ele><time>2026-03-23T10:21:21.999Z</time></trkpt><trkpt lat="45.677325484040715" lon="12.237462532252092"><ele>17.0</ele><time>2026-03-23T10:21:22.999Z</time></trkpt><trkpt lat="45.67721449388159" lon="12.237325590034859"><ele>17.0</ele><time>2026-03-23T10:21:24.999Z</time></trkpt><trkpt lat="45.67712429198421" lon="12.237238361751162"><ele>17.0</ele><time>2026-03-23T10:21:26.999Z</time></trkpt><trkpt lat="45.677064301102305" lon="12.237161059830438"><ele>17.0</ele><time>2026-03-23T10:21:29.999Z</time></trkpt><trkpt lat="45.676991501477985" lon="12.237119342638296"><ele>17.0</ele><time>2026-03-23T10:22:15.999Z</time></trkpt><trkpt lat="45.67689783524807" lon="12.237020488887373"><ele>17.0</ele><time>2026-03-23T10:22:17.999Z</time></trkpt><trkpt lat="45.67684131117373" lon="12.236952471560945"><ele>17.0</ele><time>2026-03-23T10:22:18.999Z</time></trkpt><trkpt lat="45.67677388891238" lon="12.23687760604469"><ele>17.0</ele><time>2026-03-23T10:22:19.999Z</time></trkpt><trkpt lat="45.67669957926257" lon="12.236796446971848"><ele>16.5</ele><time>2026-03-23T10:22:20.999Z</time></trkpt><trkpt lat="45.67663454906775" lon="12.23672484252083"><ele>16.0</ele><time>2026-03-23T10:22:21.999Z</time></trkpt><trkpt lat="45.67656870861963" lon="12.236652022974848"><ele>15.5</ele><time>2026-03-23T10:22:22.999Z</time></trkpt><trkpt lat="45.67650047361699" lon="12.236572536391282"><ele>15.0</ele><time>2026-03-23T10:22:23.999Z</time></trkpt><trkpt lat="45.676431110607574" lon="12.23647832008927"><ele>14.500000000000002</ele><time>2026-03-23T10:22:24.999Z</time></trkpt><trkpt lat="45.67636263645654" lon="12.236374024536827"><ele>14.0</ele><time>2026-03-23T10:22:25.999Z</time></trkpt><trkpt lat="45.676289988770165" lon="12.236265790287549"><ele>14.0</ele><time>2026-03-23T10:22:26.999Z</time></trkpt><trkpt lat="45.67621509968788" lon="12.236154291501057"><ele>13.999999999999998</ele><time>2026-03-23T10:22:27.999Z</time></trkpt><trkpt lat="45.676140439511684" lon="12.236027284863175"><ele>13.999999999999998</ele><time>2026-03-23T10:22:28.999Z</time></trkpt><trkpt lat="45.67607112883032" lon="12.235896805264556"><ele>14.0</ele><time>2026-03-23T10:22:29.999Z</time></trkpt><trkpt lat="45.67600487220521" lon="12.235778477678899"><ele>14.0</ele><time>2026-03-23T10:22:30.999Z</time></trkpt><trkpt lat="45.6759409884063" lon="12.23566097172669"><ele>14.2</ele><time>2026-03-23T10:22:31.999Z</time></trkpt><trkpt lat="45.67587805003832" lon="12.235543506707486"><ele>14.399999999999999</ele><time>2026-03-23T10:22:32.999Z</time></trkpt><trkpt lat="45.67581597387495" lon="12.235429063133692"><ele>14.6</ele><time>2026-03-23T10:22:33.999Z</time></trkpt><trkpt lat="45.675755217435565" lon="12.235314836338521"><ele>14.8</ele><time>2026-03-23T10:22:34.999Z</time></trkpt><trkpt lat="45.675692211014486" lon="12.23520583900389"><ele>15.0</ele><time>2026-03-23T10:22:35.999Z</time></trkpt><trkpt lat="45.6756276838672" lon="12.23510161552691"><ele>15.0</ele><time>2026-03-23T10:22:36.999Z</time></trkpt><trkpt lat="45.675559951964246" lon="12.23499979136574"><ele>15.0</ele><time>2026-03-23T10:22:37.999Z</time></trkpt><trkpt lat="45.67548910546784" lon="12.234895787241534"><ele>15.0</ele><time>2026-03-23T10:22:38.999Z</time></trkpt><trkpt lat="45.67541438203176" lon="12.234783636577234"><ele>15.0</ele><time>2026-03-23T10:22:39.999Z</time></trkpt><trkpt lat="45.675335199824374" lon="12.234679542080567"><ele>15.0</ele><time>2026-03-23T10:22:40.999Z</time></trkpt><trkpt lat="45.67525406493597" lon="12.234579993146886"><ele>15.0</ele><time>2026-03-23T10:22:41.999Z</time></trkpt><trkpt lat="45.675165341647215" lon="12.23448800002342"><ele>15.0</ele><time>2026-03-23T10:22:42.999Z</time></trkpt><trkpt lat="45.67507418995781" lon="12.234380097680118"><ele>15.0</ele><time>2026-03-23T10:22:43.999Z</time></trkpt><trkpt lat="45.67497488900043" lon="12.234272958537376"><ele>15.0</ele><time>2026-03-23T10:22:44.999Z</time></trkpt><trkpt lat="45.674868484766534" lon="12.234169943944941"><ele>15.0</ele><time>2026-03-23T10:22:45.999Z</time></trkpt><trkpt lat="45.67475450316405" lon="12.234068649498528"><ele>15.0</ele><time>2026-03-23T10:22:46.999Z</time></trkpt><trkpt lat="45.67464256911159" lon="12.233976087331031"><ele>15.0</ele><time>2026-03-23T10:22:47.999Z</time></trkpt><trkpt lat="45.674532954862876" lon="12.23389037183976"><ele>15.0</ele><time>2026-03-23T10:22:48.999Z</time></trkpt><trkpt lat="45.674422721877434" lon="12.233803354784856"><ele>15.0</ele><time>2026-03-23T10:22:49.999Z</time></trkpt><trkpt lat="45.674309793473" lon="12.233729004425"><ele>15.0</ele><time>2026-03-23T10:22:50.999Z</time></trkpt><trkpt lat="45.67419489979748" lon="12.23365698064185"><ele>15.0</ele><time>2026-03-23T10:22:51.999Z</time></trkpt><trkpt lat="45.67407565759003" lon="12.233588359506594"><ele>15.0</ele><time>2026-03-23T10:22:52.999Z</time></trkpt><trkpt lat="45.67395134028724" lon="12.233526062760507"><ele>15.0</ele><time>2026-03-23T10:22:53.999Z</time></trkpt><trkpt lat="45.67382525575404" lon="12.233465953693736"><ele>15.0</ele><time>2026-03-23T10:22:54.999Z</time></trkpt><trkpt lat="45.67369803449771" lon="12.233400193340271"><ele>15.0</ele><time>2026-03-23T10:22:55.999Z</time></trkpt><trkpt lat="45.6735696550067" lon="12.233330078752687"><ele>15.0</ele><time>2026-03-23T10:22:56.999Z</time></trkpt><trkpt lat="45.67343743049628" lon="12.233260060961731"><ele>15.0</ele><time>2026-03-23T10:22:57.999Z</time></trkpt><trkpt lat="45.67331691017833" lon="12.233173578962477"><ele>15.0</ele><time>2026-03-23T10:22:58.999Z</time></trkpt><trkpt lat="45.67320749118107" lon="12.233083801789322"><ele>15.0</ele><time>2026-03-23T10:22:59.999Z</time></trkpt><trkpt lat="45.673108656516646" lon="12.232995804113788"><ele>15.0</ele><time>2026-03-23T10:23:00.999Z</time></trkpt><trkpt lat="45.673018916766665" lon="12.232908317702728"><ele>14.833333333333334</ele><time>2026-03-23T10:23:01.999Z</time></trkpt><trkpt lat="45.67294541548831" lon="12.232824161772381"><ele>14.666666666666668</ele><time>2026-03-23T10:23:02.999Z</time></trkpt><trkpt lat="45.67288287472247" lon="12.232749588612597"><ele>14.5</ele><time>2026-03-23T10:23:04Z</time></trkpt><trkpt lat="45.67283446690303" lon="12.232684214744827"><ele>14.333333333333334</ele><time>2026-03-23T10:23:05Z</time></trkpt><trkpt lat="45.67278081040901" lon="12.232614296664423"><ele>14.166666666666668</ele><time>2026-03-23T10:23:07Z</time></trkpt><trkpt lat="45.672717589109" lon="12.23250432151819"><ele>14.0</ele><time>2026-03-23T10:23:51.999Z</time></trkpt><trkpt lat="45.6726622377682" lon="12.232431023115108"><ele>14.0</ele><time>2026-03-23T10:23:52.999Z</time></trkpt><trkpt lat="45.672605607284176" lon="12.232349988345366"><ele>13.999999999999998</ele><time>2026-03-23T10:23:53.999Z</time></trkpt><trkpt lat="45.67255283290316" lon="12.232271348748963"><ele>13.999999999999998</ele><time>2026-03-23T10:23:54.999Z</time></trkpt><trkpt lat="45.672488801049944" lon="12.23218249004765"><ele>14.0</ele><time>2026-03-23T10:23:55.999Z</time></trkpt><trkpt lat="45.6724201900489" lon="12.232077694690451"><ele>14.0</ele><time>2026-03-23T10:23:56.999Z</time></trkpt><trkpt lat="45.672344702196746" lon="12.231966238656797"><ele>13.75</ele><time>2026-03-23T10:23:57.999Z</time></trkpt><trkpt lat="45.67227476690402" lon="12.23185627059612"><ele>13.5</ele><time>2026-03-23T10:23:58.999Z</time></trkpt><trkpt lat="45.672200683968555" lon="12.231731314846426"><ele>13.25</ele><time>2026-03-23T10:23:59.999Z</time></trkpt><trkpt lat="45.67212174517873" lon="12.23158645914076"><ele>13.0</ele><time>2026-03-23T10:24:00.999Z</time></trkpt><trkpt lat="45.67203897633414" lon="12.231432330155222"><ele>13.0</ele><time>2026-03-23T10:24:01.999Z</time></trkpt><trkpt lat="45.67195573291984" lon="12.231269198799723"><ele>13.0</ele><time>2026-03-23T10:24:02.999Z</time></trkpt><trkpt lat="45.671870337629144" lon="12.23109515085119"><ele>13.0</ele><time>2026-03-23T10:24:03.999Z</time></trkpt><trkpt lat="45.67179105047157" lon="12.230934242553937"><ele>13.0</ele><time>2026-03-23T10:24:04.999Z</time></trkpt><trkpt lat="45.671701404957766" lon="12.230766241441394"><ele>13.666666666666666</ele><time>2026-03-23T10:24:05.999Z</time></trkpt><trkpt lat="45.671612204225895" lon="12.230592694455781"><ele>14.333333333333332</ele><time>2026-03-23T10:24:06.999Z</time></trkpt><trkpt lat="45.67152236583866" lon="12.230413451130659"><ele>15.0</ele><time>2026-03-23T10:24:07.999Z</time></trkpt><trkpt lat="45.67143166351911" lon="12.230228194719944"><ele>15.0</ele><time>2026-03-23T10:24:08.999Z</time></trkpt><trkpt lat="45.67133761830222" lon="12.2300386566919"><ele>15.0</ele><time>2026-03-23T10:24:09.999Z</time></trkpt><trkpt lat="45.67124008969003" lon="12.229850200549048"><ele>15.0</ele><time>2026-03-23T10:24:10.999Z</time></trkpt><trkpt lat="45.671137678724904" lon="12.229653324036988"><ele>14.5</ele><time>2026-03-23T10:24:11.999Z</time></trkpt><trkpt lat="45.671045869902635" lon="12.229459632935972"><ele>14.0</ele><time>2026-03-23T10:24:12.999Z</time></trkpt><trkpt lat="45.67095946341969" lon="12.229270306606132"><ele>13.5</ele><time>2026-03-23T10:24:13.999Z</time></trkpt><trkpt lat="45.670920455617434" lon="12.229174793324564"><ele>13.0</ele><time>2026-03-23T10:24:14.999Z</time></trkpt><trkpt lat="45.6708631801932" lon="12.229049709242338"><ele>12.833333333333332</ele><time>2026-03-23T10:24:15.999Z</time></trkpt><trkpt lat="45.67082381732905" lon="12.228924297097207"><ele>12.666666666666666</ele><time>2026-03-23T10:24:16.999Z</time></trkpt><trkpt lat="45.67079519305676" lon="12.228800225598276"><ele>12.5</ele><time>2026-03-23T10:24:17.999Z</time></trkpt><trkpt lat="45.670780994665186" lon="12.228675942398398"><ele>12.333333333333332</ele><time>2026-03-23T10:24:18.999Z</time></trkpt><trkpt lat="45.67078654600269" lon="12.228556689277012"><ele>12.166666666666666</ele><time>2026-03-23T10:24:19.999Z</time></trkpt><trkpt lat="45.67080854290215" lon="12.22844583859246"><ele>12.0</ele><time>2026-03-23T10:24:20.999Z</time></trkpt><trkpt lat="45.67083822496352" lon="12.228332821306772"><ele>12.0</ele><time>2026-03-23T10:24:21.999Z</time></trkpt><trkpt lat="45.670861347595945" lon="12.228193482279151"><ele>12.0</ele><time>2026-03-23T10:24:22.999Z</time></trkpt><trkpt lat="45.67085605500722" lon="12.228042394256176"><ele>12.0</ele><time>2026-03-23T10:24:23.999Z</time></trkpt><trkpt lat="45.670825072450356" lon="12.227902657642959"><ele>12.0</ele><time>2026-03-23T10:24:24.999Z</time></trkpt><trkpt lat="45.670772897926646" lon="12.227779721927584"><ele>12.0</ele><time>2026-03-23T10:24:25.999Z</time></trkpt><trkpt lat="45.67070027924988" lon="12.227683932859211"><ele>11.8</ele><time>2026-03-23T10:24:26.999Z</time></trkpt><trkpt lat="45.670626559222995" lon="12.227614990927371"><ele>11.6</ele><time>2026-03-23T10:24:27.999Z</time></trkpt><trkpt lat="45.670548167686825" lon="12.227572401988725"><ele>11.4</ele><time>2026-03-23T10:24:28.999Z</time></trkpt><trkpt lat="45.67046510301798" lon="12.227562778354589"><ele>11.200000000000001</ele><time>2026-03-23T10:24:29.999Z</time></trkpt><trkpt lat="45.67038519092778" lon="12.22756577034362"><ele>11.0</ele><time>2026-03-23T10:24:31.999Z</time></trkpt><trkpt lat="45.67026476483399" lon="12.227552866809887"><ele>11.0</ele><time>2026-03-23T10:24:33.999Z</time></trkpt><trkpt lat="45.67018331479184" lon="12.22751681628267"><ele>11.0</ele><time>2026-03-23T10:24:34.999Z</time></trkpt><trkpt lat="45.67010009637112" lon="12.227446945897077"><ele>11.0</ele><time>2026-03-23T10:24:35.999Z</time></trkpt><trkpt lat="45.67002267651009" lon="12.22735270151033"><ele>11.0</ele><time>2026-03-23T10:24:36.999Z</time></trkpt><trkpt lat="45.669944398359256" lon="12.227256886985698"><ele>11.0</ele><time>2026-03-23T10:24:37.999Z</time></trkpt><trkpt lat="45.669881027196936" lon="12.227160351350363"><ele>11.5</ele><time>2026-03-23T10:24:38.999Z</time></trkpt><trkpt lat="45.66983330315358" lon="12.22707639707484"><ele>12.0</ele><time>2026-03-23T10:24:39.999Z</time></trkpt><trkpt lat="45.669793903912336" lon="12.226991451367182"><ele>12.5</ele><time>2026-03-23T10:24:40.999Z</time></trkpt><trkpt lat="45.669753639119335" lon="12.22690312484455"><ele>13.0</ele><time>2026-03-23T10:24:42Z</time></trkpt><trkpt lat="45.66971222356971" lon="12.226810274313156"><ele>13.500000000000002</ele><time>2026-03-23T10:24:43Z</time></trkpt><trkpt lat="45.66966329954331" lon="12.226673017537676"><ele>14.0</ele><time>2026-03-23T10:24:45Z</time></trkpt><trkpt lat="45.669613879452264" lon="12.226556974808934"><ele>14.000000000000002</ele><time>2026-03-23T10:24:47Z</time></trkpt><trkpt lat="45.669574950005995" lon="12.226482254829751"><ele>14.0</ele><time>2026-03-23T10:24:50Z</time></trkpt><trkpt lat="45.66950093698505" lon="12.226333241827243"><ele>14.0</ele><time>2026-03-23T10:24:55Z</time></trkpt><trkpt lat="45.66945852016643" lon="12.226248085001437"><ele>14.0</ele><time>2026-03-23T10:24:56Z</time></trkpt><trkpt lat="45.66941492731608" lon="12.226157498353242"><ele>14.000000000000002</ele><time>2026-03-23T10:24:57Z</time></trkpt><trkpt lat="45.669369510972366" lon="12.22607196965845"><ele>14.0</ele><time>2026-03-23T10:24:58Z</time></trkpt><trkpt lat="45.66930755022179" lon="12.225970339387803"><ele>14.0</ele><time>2026-03-23T10:24:59Z</time></trkpt><trkpt lat="45.66923153427941" lon="12.225847484075246"><ele>14.0</ele><time>2026-03-23T10:25:00Z</time></trkpt><trkpt lat="45.669155393033066" lon="12.225706280639006"><ele>14.0</ele><time>2026-03-23T10:25:01Z</time></trkpt><trkpt lat="45.669074497008346" lon="12.225550123627976"><ele>14.0</ele><time>2026-03-23T10:25:02Z</time></trkpt><trkpt lat="45.66899586103001" lon="12.225394902103856"><ele>14.0</ele><time>2026-03-23T10:25:03Z</time></trkpt><trkpt lat="45.66892488195881" lon="12.22525327590148"><ele>14.0</ele><time>2026-03-23T10:25:04Z</time></trkpt><trkpt lat="45.66885108028751" lon="12.225104205693688"><ele>14.0</ele><time>2026-03-23T10:25:05Z</time></trkpt><trkpt lat="45.66877647183453" lon="12.224949941078005"><ele>14.0</ele><time>2026-03-23T10:25:06Z</time></trkpt><trkpt lat="45.668702829149225" lon="12.224797271166164"><ele>14.2</ele><time>2026-03-23T10:25:07Z</time></trkpt><trkpt lat="45.66864277106086" lon="12.224660956530938"><ele>14.399999999999999</ele><time>2026-03-23T10:25:08Z</time></trkpt><trkpt lat="45.66858989594202" lon="12.224536065535178"><ele>14.6</ele><time>2026-03-23T10:25:09Z</time></trkpt><trkpt lat="45.668540171012836" lon="12.224424113128626"><ele>14.8</ele><time>2026-03-23T10:25:10Z</time></trkpt><trkpt lat="45.66849212323899" lon="12.224324298412569"><ele>15.0</ele><time>2026-03-23T10:25:11Z</time></trkpt><trkpt lat="45.66843731600477" lon="12.224222524671003"><ele>15.0</ele><time>2026-03-23T10:25:12Z</time></trkpt><trkpt lat="45.66837958213115" lon="12.224119662940645"><ele>15.0</ele><time>2026-03-23T10:25:13Z</time></trkpt><trkpt lat="45.668329883132216" lon="12.224029454013799"><ele>15.0</ele><time>2026-03-23T10:25:14Z</time></trkpt><trkpt lat="45.6682874181702" lon="12.223947413604305"><ele>15.0</ele><time>2026-03-23T10:25:15Z</time></trkpt><trkpt lat="45.66823679058527" lon="12.223848335535491"><ele>15.0</ele><time>2026-03-23T10:25:17Z</time></trkpt><trkpt lat="45.66820119160593" lon="12.223773101744024"><ele>15.0</ele><time>2026-03-23T10:25:19Z</time></trkpt><trkpt lat="45.66815843225233" lon="12.22368314042726"><ele>15.2</ele><time>2026-03-23T10:25:21Z</time></trkpt><trkpt lat="45.66810136004411" lon="12.22356033700325"><ele>15.4</ele><time>2026-03-23T10:25:23Z</time></trkpt><trkpt lat="45.66806719179564" lon="12.223444020068612"><ele>15.600000000000001</ele><time>2026-03-23T10:25:25Z</time></trkpt><trkpt lat="45.668064902595006" lon="12.223308928779497"><ele>15.8</ele><time>2026-03-23T10:25:28Z</time></trkpt><trkpt lat="45.668099737724255" lon="12.223146427615259"><ele>16.0</ele><time>2026-03-23T10:25:30Z</time></trkpt><trkpt lat="45.66813523005322" lon="12.22305887270376"><ele>15.999999999999998</ele><time>2026-03-23T10:25:31Z</time></trkpt><trkpt lat="45.668156803998244" lon="12.222960212822253"><ele>16.0</ele><time>2026-03-23T10:25:32Z</time></trkpt><trkpt lat="45.66814792237943" lon="12.222858896854621"><ele>16.0</ele><time>2026-03-23T10:25:33Z</time></trkpt><trkpt lat="45.668113006852565" lon="12.222755412607368"><ele>16.0</ele><time>2026-03-23T10:25:34Z</time></trkpt><trkpt lat="45.668060097239724" lon="12.222665407802772"><ele>15.999999999999998</ele><time>2026-03-23T10:25:35Z</time></trkpt><trkpt lat="45.667990171116166" lon="12.222610811879683"><ele>16.0</ele><time>2026-03-23T10:25:36Z</time></trkpt><trkpt lat="45.667910307447976" lon="12.222595285103214"><ele>15.999999999999998</ele><time>2026-03-23T10:25:37Z</time></trkpt><trkpt lat="45.667834792441134" lon="12.222619879617405"><ele>16.0</ele><time>2026-03-23T10:25:38Z</time></trkpt><trkpt lat="45.66776816792488" lon="12.2226715549368"><ele>16.0</ele><time>2026-03-23T10:25:39Z</time></trkpt><trkpt lat="45.667718826860046" lon="12.222745389838423"><ele>16.0</ele><time>2026-03-23T10:25:40Z</time></trkpt><trkpt lat="45.66768785559815" lon="12.222847868353318"><ele>15.999999999999998</ele><time>2026-03-23T10:25:41Z</time></trkpt><trkpt lat="45.66768138520198" lon="12.222963721055219"><ele>16.0</ele><time>2026-03-23T10:25:42Z</time></trkpt><trkpt lat="45.667699398672" lon="12.223074547674589"><ele>15.833333333333332</ele><time>2026-03-23T10:25:43Z</time></trkpt><trkpt lat="45.667740004341795" lon="12.22317787751397"><ele>15.666666666666666</ele><time>2026-03-23T10:25:44Z</time></trkpt><trkpt lat="45.66780339123289" lon="12.22326536207718"><ele>15.5</ele><time>2026-03-23T10:25:45Z</time></trkpt><trkpt lat="45.667868544336834" lon="12.223334061512206"><ele>15.333333333333332</ele><time>2026-03-23T10:25:46Z</time></trkpt><trkpt lat="45.66793003886401" lon="12.223408059950371"><ele>15.166666666666666</ele><time>2026-03-23T10:25:47Z</time></trkpt><trkpt lat="45.66797493426767" lon="12.223484372745576"><ele>15.0</ele><time>2026-03-23T10:25:48Z</time></trkpt><trkpt lat="45.6680095620746" lon="12.22356223984902"><ele>15.0</ele><time>2026-03-23T10:25:49Z</time></trkpt><trkpt lat="45.668047915513895" lon="12.223633756737405"><ele>15.0</ele><time>2026-03-23T10:25:50Z</time></trkpt><trkpt lat="45.66809209069462" lon="12.223715091523648"><ele>15.0</ele><time>2026-03-23T10:25:51Z</time></trkpt><trkpt lat="45.66813582988711" lon="12.223805385164873"><ele>15.0</ele><time>2026-03-23T10:25:52Z</time></trkpt><trkpt lat="45.66817106251609" lon="12.223899413390841"><ele>15.0</ele><time>2026-03-23T10:25:53Z</time></trkpt><trkpt lat="45.668210515602475" lon="12.223981042062778"><ele>15.0</ele><time>2026-03-23T10:25:54Z</time></trkpt><trkpt lat="45.66825360929762" lon="12.224064947522677"><ele>15.0</ele><time>2026-03-23T10:25:55Z</time></trkpt><trkpt lat="45.668295480227364" lon="12.224146548682825"><ele>15.0</ele><time>2026-03-23T10:25:56Z</time></trkpt><trkpt lat="45.66833222013469" lon="12.22422255261599"><ele>15.0</ele><time>2026-03-23T10:25:57Z</time></trkpt><trkpt lat="45.66838542699329" lon="12.224335996715867"><ele>15.0</ele><time>2026-03-23T10:25:59Z</time></trkpt><trkpt lat="45.66842306624476" lon="12.22441612522471"><ele>15.0</ele><time>2026-03-23T10:26:33.999Z</time></trkpt><trkpt lat="45.668478030580715" lon="12.224519372539627"><ele>15.0</ele><time>2026-03-23T10:26:35.999Z</time></trkpt><trkpt lat="45.668492281149376" lon="12.224612299332478"><ele>15.0</ele><time>2026-03-23T10:26:37.999Z</time></trkpt><trkpt lat="45.66839046669126" lon="12.224723743539384"><ele>15.0</ele><time>2026-03-23T10:26:38.999Z</time></trkpt><trkpt lat="45.66830114487237" lon="12.224803387689562"><ele>15.0</ele><time>2026-03-23T10:26:39.999Z</time></trkpt><trkpt lat="45.66820464022813" lon="12.224898680385754"><ele>15.0</ele><time>2026-03-23T10:26:40.999Z</time></trkpt><trkpt lat="45.66809992348679" lon="12.225012608881578"><ele>15.0</ele><time>2026-03-23T10:26:41.999Z</time></trkpt><trkpt lat="45.66800440422759" lon="12.225115720228441"><ele>15.25</ele><time>2026-03-23T10:26:42.999Z</time></trkpt><trkpt lat="45.66789819966719" lon="12.225233406834654"><ele>15.5</ele><time>2026-03-23T10:26:43.999Z</time></trkpt><trkpt lat="45.66777946195491" lon="12.225357957211706"><ele>15.75</ele><time>2026-03-23T10:26:44.999Z</time></trkpt><trkpt lat="45.66768915278713" lon="12.22545543265027"><ele>16.0</ele><time>2026-03-23T10:26:45.999Z</time></trkpt><trkpt lat="45.66756621329452" lon="12.225578022781704"><ele>16.333333333333332</ele><time>2026-03-23T10:26:46.999Z</time></trkpt><trkpt lat="45.667437296058026" lon="12.225715852405514"><ele>16.666666666666668</ele><time>2026-03-23T10:26:48.001Z</time></trkpt><trkpt lat="45.667296845043616" lon="12.22585302601748"><ele>17.0</ele><time>2026-03-23T10:26:49.001Z</time></trkpt><trkpt lat="45.66715552995839" lon="12.225995501363949"><ele>17.0</ele><time>2026-03-23T10:26:50.001Z</time></trkpt><trkpt lat="45.66702901596894" lon="12.226129979856466"><ele>17.0</ele><time>2026-03-23T10:26:51.001Z</time></trkpt><trkpt lat="45.666903058666236" lon="12.226256419850397"><ele>17.0</ele><time>2026-03-23T10:26:52.001Z</time></trkpt><trkpt lat="45.66677891157385" lon="12.22638532578299"><ele>16.75</ele><time>2026-03-23T10:26:53.001Z</time></trkpt><trkpt lat="45.66666045957372" lon="12.226516193952042"><ele>16.5</ele><time>2026-03-23T10:26:54.001Z</time></trkpt><trkpt lat="45.666562642824076" lon="12.226643796136443"><ele>16.25</ele><time>2026-03-23T10:26:55.001Z</time></trkpt><trkpt lat="45.666464799911836" lon="12.226758873777701"><ele>16.0</ele><time>2026-03-23T10:26:56.001Z</time></trkpt><trkpt lat="45.66638140321448" lon="12.226856136233355"><ele>15.999999999999998</ele><time>2026-03-23T10:26:57.001Z</time></trkpt><trkpt lat="45.66631630164181" lon="12.226925565933975"><ele>16.0</ele><time>2026-03-23T10:26:58.001Z</time></trkpt><trkpt lat="45.66626086731369" lon="12.226992252831277"><ele>16.0</ele><time>2026-03-23T10:26:59.001Z</time></trkpt><trkpt lat="45.666207018098184" lon="12.227047213370321"><ele>16.0</ele><time>2026-03-23T10:27:00.001Z</time></trkpt><trkpt lat="45.6661697509438" lon="12.22712611793529"><ele>15.999999999999998</ele><time>2026-03-23T10:27:01.001Z</time></trkpt><trkpt lat="45.666155996802395" lon="12.227234092836563"><ele>16.0</ele><time>2026-03-23T10:27:02.001Z</time></trkpt><trkpt lat="45.66615628199965" lon="12.227368616510125"><ele>16.25</ele><time>2026-03-23T10:27:03.001Z</time></trkpt><trkpt lat="45.666182581397486" lon="12.227533427779218"><ele>16.5</ele><time>2026-03-23T10:27:04.001Z</time></trkpt><trkpt lat="45.6662314180891" lon="12.227743027487385"><ele>16.75</ele><time>2026-03-23T10:27:05.001Z</time></trkpt><trkpt lat="45.66626197159457" lon="12.227990507875617"><ele>17.0</ele><time>2026-03-23T10:27:06.001Z</time></trkpt><trkpt lat="45.66628538864369" lon="12.228228813895454"><ele>17.2</ele><time>2026-03-23T10:27:07.001Z</time></trkpt><trkpt lat="45.666314428844565" lon="12.22841940578107"><ele>17.4</ele><time>2026-03-23T10:27:08.001Z</time></trkpt><trkpt lat="45.66633094511621" lon="12.228574779677949"><ele>17.6</ele><time>2026-03-23T10:27:09.001Z</time></trkpt><trkpt lat="45.666344640509784" lon="12.228722365343005"><ele>17.8</ele><time>2026-03-23T10:27:10.001Z</time></trkpt><trkpt lat="45.666354769474175" lon="12.22884359007221"><ele>18.0</ele><time>2026-03-23T10:27:11.001Z</time></trkpt><trkpt lat="45.66636487103025" lon="12.22901001450829"><ele>18.0</ele><time>2026-03-23T10:27:13.001Z</time></trkpt><trkpt lat="45.666376660305424" lon="12.22911611913966"><ele>18.0</ele><time>2026-03-23T10:27:15.001Z</time></trkpt><trkpt lat="45.666378320627686" lon="12.229246375111241"><ele>18.0</ele><time>2026-03-23T10:27:18.001Z</time></trkpt><trkpt lat="45.66638852129747" lon="12.229369377113647"><ele>18.0</ele><time>2026-03-23T10:27:21Z</time></trkpt><trkpt lat="45.66640279793835" lon="12.229471898772706"><ele>18.0</ele><time>2026-03-23T10:27:23Z</time></trkpt><trkpt lat="45.66641766793857" lon="12.229578399265424"><ele>18.0</ele><time>2026-03-23T10:27:25Z</time></trkpt><trkpt lat="45.666432446158076" lon="12.229677601128648"><ele>17.75</ele><time>2026-03-23T10:27:26Z</time></trkpt><trkpt lat="45.666442879626146" lon="12.229837050931744"><ele>17.5</ele><time>2026-03-23T10:27:28Z</time></trkpt><trkpt lat="45.66645795943734" lon="12.23000347979119"><ele>17.25</ele><time>2026-03-23T10:27:30Z</time></trkpt><trkpt lat="45.66647952886249" lon="12.230173997913086"><ele>17.0</ele><time>2026-03-23T10:27:32Z</time></trkpt><trkpt lat="45.66650040934426" lon="12.230370840125389"><ele>17.0</ele><time>2026-03-23T10:27:34Z</time></trkpt><trkpt lat="45.6665073564517" lon="12.230466860108962"><ele>17.0</ele><time>2026-03-23T10:27:35Z</time></trkpt><trkpt lat="45.666524051545906" lon="12.23062797709066"><ele>17.0</ele><time>2026-03-23T10:27:37Z</time></trkpt><trkpt lat="45.666534508850546" lon="12.23072633090697"><ele>17.0</ele><time>2026-03-23T10:27:38Z</time></trkpt><trkpt lat="45.66654442509276" lon="12.230829487081294"><ele>17.0</ele><time>2026-03-23T10:27:39Z</time></trkpt><trkpt lat="45.66655544580831" lon="12.23094819968107"><ele>17.0</ele><time>2026-03-23T10:27:40Z</time></trkpt><trkpt lat="45.666565527567364" lon="12.231055590465628"><ele>17.166666666666668</ele><time>2026-03-23T10:27:41Z</time></trkpt><trkpt lat="45.66657797381269" lon="12.231170801188455"><ele>17.333333333333336</ele><time>2026-03-23T10:27:42Z</time></trkpt><trkpt lat="45.66659008148742" lon="12.231290339771247"><ele>17.5</ele><time>2026-03-23T10:27:43Z</time></trkpt><trkpt lat="45.66660334029737" lon="12.231411468009318"><ele>17.666666666666668</ele><time>2026-03-23T10:27:44Z</time></trkpt><trkpt lat="45.6666148566665" lon="12.23152686032878"><ele>17.833333333333332</ele><time>2026-03-23T10:27:45Z</time></trkpt><trkpt lat="45.666628398018894" lon="12.231641332304676"><ele>18.0</ele><time>2026-03-23T10:27:46Z</time></trkpt><trkpt lat="45.66663788376576" lon="12.231755509449908"><ele>18.0</ele><time>2026-03-23T10:27:47Z</time></trkpt><trkpt lat="45.66664947113531" lon="12.231874886753916"><ele>18.0</ele><time>2026-03-23T10:27:48Z</time></trkpt><trkpt lat="45.666663019974344" lon="12.232003303756201"><ele>18.0</ele><time>2026-03-23T10:27:49Z</time></trkpt><trkpt lat="45.66668100329588" lon="12.23213571616075"><ele>18.0</ele><time>2026-03-23T10:27:50Z</time></trkpt><trkpt lat="45.66669111714394" lon="12.232273385179756"><ele>18.0</ele><time>2026-03-23T10:27:51Z</time></trkpt><trkpt lat="45.666703623855604" lon="12.232405186662675"><ele>17.8</ele><time>2026-03-23T10:27:52Z</time></trkpt><trkpt lat="45.6667188782931" lon="12.232532879319923"><ele>17.6</ele><time>2026-03-23T10:27:53Z</time></trkpt><trkpt lat="45.66673536790207" lon="12.232663313082842"><ele>17.4</ele><time>2026-03-23T10:27:54Z</time></trkpt><trkpt lat="45.66675103581535" lon="12.232800984248442"><ele>17.2</ele><time>2026-03-23T10:27:55Z</time></trkpt><trkpt lat="45.66676350512699" lon="12.232944661585503"><ele>17.0</ele><time>2026-03-23T10:27:56Z</time></trkpt><trkpt lat="45.6667766302829" lon="12.23308413643887"><ele>17.0</ele><time>2026-03-23T10:27:57Z</time></trkpt><trkpt lat="45.6667947881326" lon="12.233217441241461"><ele>17.0</ele><time>2026-03-23T10:27:58Z</time></trkpt><trkpt lat="45.666809982488495" lon="12.23333793755363"><ele>17.0</ele><time>2026-03-23T10:27:59Z</time></trkpt><trkpt lat="45.666823285340335" lon="12.233452851394054"><ele>17.0</ele><time>2026-03-23T10:28:00Z</time></trkpt><trkpt lat="45.66683999827533" lon="12.233570896888397"><ele>17.0</ele><time>2026-03-23T10:28:01Z</time></trkpt><trkpt lat="45.66685557082562" lon="12.233682334948739"><ele>17.0</ele><time>2026-03-23T10:28:02Z</time></trkpt><trkpt lat="45.666859879688786" lon="12.233791935264097"><ele>17.0</ele><time>2026-03-23T10:28:03Z</time></trkpt><trkpt lat="45.66685289692789" lon="12.233942302036438"><ele>17.0</ele><time>2026-03-23T10:28:05Z</time></trkpt><trkpt lat="45.66686978116648" lon="12.234040493969857"><ele>17.0</ele><time>2026-03-23T10:28:07Z</time></trkpt><trkpt lat="45.66688626488285" lon="12.234149890586783"><ele>17.0</ele><time>2026-03-23T10:28:10Z</time></trkpt><trkpt lat="45.66688259510377" lon="12.234248341177343"><ele>17.0</ele><time>2026-03-23T10:28:12Z</time></trkpt><trkpt lat="45.66684697739851" lon="12.234378411489896"><ele>17.0</ele><time>2026-03-23T10:28:36Z</time></trkpt><trkpt lat="45.666758047942245" lon="12.234484688463024"><ele>16.666666666666668</ele><time>2026-03-23T10:28:38Z</time></trkpt><trkpt lat="45.66668378025475" lon="12.234473676766017"><ele>16.333333333333336</ele><time>2026-03-23T10:28:39Z</time></trkpt><trkpt lat="45.666603564543955" lon="12.23449686433041"><ele>16.0</ele><time>2026-03-23T10:28:40Z</time></trkpt><trkpt lat="45.66651488117023" lon="12.234517627685692"><ele>15.666666666666668</ele><time>2026-03-23T10:28:41Z</time></trkpt><trkpt lat="45.66642471366936" lon="12.234546435213892"><ele>15.333333333333334</ele><time>2026-03-23T10:28:42Z</time></trkpt><trkpt lat="45.66633583802434" lon="12.234560943678545"><ele>15.0</ele><time>2026-03-23T10:28:43Z</time></trkpt><trkpt lat="45.66625337603059" lon="12.23458076983812"><ele>15.0</ele><time>2026-03-23T10:28:44Z</time></trkpt><trkpt lat="45.66617113536945" lon="12.234575746509028"><ele>15.0</ele><time>2026-03-23T10:28:45Z</time></trkpt><trkpt lat="45.66607438883266" lon="12.234604457148496"><ele>15.0</ele><time>2026-03-23T10:28:46Z</time></trkpt><trkpt lat="45.66597329008053" lon="12.234627684676134"><ele>15.0</ele><time>2026-03-23T10:28:47Z</time></trkpt><trkpt lat="45.665863892005056" lon="12.234647932672019"><ele>15.0</ele><time>2026-03-23T10:28:48Z</time></trkpt><trkpt lat="45.66575305994601" lon="12.234663702663028"><ele>16.0</ele><time>2026-03-23T10:28:49Z</time></trkpt><trkpt lat="45.665635514517184" lon="12.234682746868579"><ele>17.0</ele><time>2026-03-23T10:28:50Z</time></trkpt><trkpt lat="45.66551189657795" lon="12.23470782702544"><ele>18.0</ele><time>2026-03-23T10:28:51Z</time></trkpt><trkpt lat="45.66539597980339" lon="12.234731270234558"><ele>19.0</ele><time>2026-03-23T10:28:52Z</time></trkpt><trkpt lat="45.66528812337751" lon="12.23475485731394"><ele>19.0</ele><time>2026-03-23T10:28:53Z</time></trkpt><trkpt lat="45.66518219053449" lon="12.234782932291994"><ele>19.0</ele><time>2026-03-23T10:28:54.001Z</time></trkpt><trkpt lat="45.66507514818355" lon="12.23482012846527"><ele>19.0</ele><time>2026-03-23T10:28:55.001Z</time></trkpt><trkpt lat="45.664970035194294" lon="12.23488705725293"><ele>19.0</ele><time>2026-03-23T10:28:56.001Z</time></trkpt><trkpt lat="45.664865872764686" lon="12.23497086366445"><ele>19.0</ele><time>2026-03-23T10:28:57.001Z</time></trkpt><trkpt lat="45.664763127360274" lon="12.235066734525436"><ele>19.0</ele><time>2026-03-23T10:28:58.001Z</time></trkpt><trkpt lat="45.664651229081265" lon="12.235163744342088"><ele>19.0</ele><time>2026-03-23T10:28:59.001Z</time></trkpt><trkpt lat="45.66454322633914" lon="12.235252286864986"><ele>19.0</ele><time>2026-03-23T10:29:00.001Z</time></trkpt><trkpt lat="45.66444329933419" lon="12.235341944631354"><ele>18.75</ele><time>2026-03-23T10:29:01.001Z</time></trkpt><trkpt lat="45.664334917710384" lon="12.235433735648359"><ele>18.5</ele><time>2026-03-23T10:29:02.001Z</time></trkpt><trkpt lat="45.664229571184904" lon="12.235524833343645"><ele>18.25</ele><time>2026-03-23T10:29:03.001Z</time></trkpt><trkpt lat="45.66412231849899" lon="12.23561504149949"><ele>18.0</ele><time>2026-03-23T10:29:04.001Z</time></trkpt><trkpt lat="45.664016473845095" lon="12.235703036505223"><ele>17.5</ele><time>2026-03-23T10:29:05.001Z</time></trkpt><trkpt lat="45.663907254811306" lon="12.235793691497548"><ele>17.0</ele><time>2026-03-23T10:29:06.001Z</time></trkpt><trkpt lat="45.66379537729366" lon="12.235885846727381"><ele>16.5</ele><time>2026-03-23T10:29:07.001Z</time></trkpt><trkpt lat="45.66368807046954" lon="12.235977892968453"><ele>16.0</ele><time>2026-03-23T10:29:08.001Z</time></trkpt><trkpt lat="45.663586221901944" lon="12.236068685366316"><ele>16.0</ele><time>2026-03-23T10:29:09.001Z</time></trkpt><trkpt lat="45.66348814219265" lon="12.23615921525042"><ele>16.0</ele><time>2026-03-23T10:29:10.001Z</time></trkpt><trkpt lat="45.66338596838204" lon="12.2362550862837"><ele>16.0</ele><time>2026-03-23T10:29:11.001Z</time></trkpt><trkpt lat="45.66328177162424" lon="12.23635743567159"><ele>16.0</ele><time>2026-03-23T10:29:12.001Z</time></trkpt><trkpt lat="45.66317066605081" lon="12.236459783534741"><ele>16.25</ele><time>2026-03-23T10:29:13.001Z</time></trkpt><trkpt lat="45.66305533467821" lon="12.236566778452573"><ele>16.5</ele><time>2026-03-23T10:29:14.001Z</time></trkpt><trkpt lat="45.66293440053754" lon="12.236670859525075"><ele>16.75</ele><time>2026-03-23T10:29:15.001Z</time></trkpt><trkpt lat="45.662809818269125" lon="12.236781887913432"><ele>17.0</ele><time>2026-03-23T10:29:16.001Z</time></trkpt><trkpt lat="45.66267920786506" lon="12.236892750103816"><ele>17.0</ele><time>2026-03-23T10:29:17.001Z</time></trkpt><trkpt lat="45.66255054774686" lon="12.23700169393958"><ele>17.0</ele><time>2026-03-23T10:29:18.001Z</time></trkpt><trkpt lat="45.662424690495946" lon="12.237113648143096"><ele>17.0</ele><time>2026-03-23T10:29:19.001Z</time></trkpt><trkpt lat="45.662307670622006" lon="12.237217892495938"><ele>17.0</ele><time>2026-03-23T10:29:20.001Z</time></trkpt><trkpt lat="45.66218775930895" lon="12.237325445703815"><ele>16.5</ele><time>2026-03-23T10:29:21.001Z</time></trkpt><trkpt lat="45.66206014288841" lon="12.237430737593929"><ele>16.0</ele><time>2026-03-23T10:29:22.001Z</time></trkpt><trkpt lat="45.661937149690154" lon="12.23753161850795"><ele>15.5</ele><time>2026-03-23T10:29:23.001Z</time></trkpt><trkpt lat="45.661822139407285" lon="12.23762684329679"><ele>15.0</ele><time>2026-03-23T10:29:24.001Z</time></trkpt><trkpt lat="45.66171344084834" lon="12.23772125853247"><ele>14.25</ele><time>2026-03-23T10:29:25.001Z</time></trkpt><trkpt lat="45.66161066076477" lon="12.237808915362026"><ele>13.5</ele><time>2026-03-23T10:29:26.001Z</time></trkpt><trkpt lat="45.66151505674427" lon="12.23789185588665"><ele>12.75</ele><time>2026-03-23T10:29:27.001Z</time></trkpt><trkpt lat="45.661421453465636" lon="12.23797505937792"><ele>12.0</ele><time>2026-03-23T10:29:28.001Z</time></trkpt><trkpt lat="45.661324467879304" lon="12.238059843370532"><ele>12.0</ele><time>2026-03-23T10:29:29.001Z</time></trkpt><trkpt lat="45.66122725606665" lon="12.238144686588079"><ele>12.0</ele><time>2026-03-23T10:29:30.001Z</time></trkpt><trkpt lat="45.661125361495365" lon="12.238234611386325"><ele>12.0</ele><time>2026-03-23T10:29:31.001Z</time></trkpt><trkpt lat="45.66101684892942" lon="12.238332043059277"><ele>12.0</ele><time>2026-03-23T10:29:32.001Z</time></trkpt><trkpt lat="45.66090398239427" lon="12.238433099383135"><ele>12.5</ele><time>2026-03-23T10:29:33.001Z</time></trkpt><trkpt lat="45.66078687376203" lon="12.23854626550643"><ele>13.0</ele><time>2026-03-23T10:29:34.001Z</time></trkpt><trkpt lat="45.66067387839557" lon="12.23869234985202"><ele>13.5</ele><time>2026-03-23T10:29:35.001Z</time></trkpt><trkpt lat="45.66057589289292" lon="12.238846757619122"><ele>14.0</ele><time>2026-03-23T10:29:36.001Z</time></trkpt><trkpt lat="45.66049533163213" lon="12.238996804447416"><ele>14.0</ele><time>2026-03-23T10:29:37.001Z</time></trkpt><trkpt lat="45.66042460458153" lon="12.239146497086109"><ele>14.0</ele><time>2026-03-23T10:29:38.001Z</time></trkpt><trkpt lat="45.66036484840248" lon="12.239295655904224"><ele>14.0</ele><time>2026-03-23T10:29:39.001Z</time></trkpt><trkpt lat="45.66029673680768" lon="12.239456271694253"><ele>14.0</ele><time>2026-03-23T10:29:40.001Z</time></trkpt><trkpt lat="45.660257444440255" lon="12.239655226075524"><ele>14.0</ele><time>2026-03-23T10:29:41.001Z</time></trkpt><trkpt lat="45.66022640253715" lon="12.23985573970582"><ele>14.0</ele><time>2026-03-23T10:29:42.001Z</time></trkpt><trkpt lat="45.66021518725248" lon="12.240048326598703"><ele>14.0</ele><time>2026-03-23T10:29:43.001Z</time></trkpt><trkpt lat="45.66022286883502" lon="12.240218190039075"><ele>14.0</ele><time>2026-03-23T10:29:44.001Z</time></trkpt><trkpt lat="45.66022530560687" lon="12.240370486331441"><ele>14.0</ele><time>2026-03-23T10:29:45.001Z</time></trkpt><trkpt lat="45.66021769757311" lon="12.240536382394387"><ele>14.0</ele><time>2026-03-23T10:29:46.001Z</time></trkpt><trkpt lat="45.6602218204886" lon="12.24071788369678"><ele>14.0</ele><time>2026-03-23T10:29:47.001Z</time></trkpt><trkpt lat="45.66022595776616" lon="12.240914189018767"><ele>14.0</ele><time>2026-03-23T10:29:48.001Z</time></trkpt><trkpt lat="45.66022860126445" lon="12.24112430281484"><ele>13.666666666666668</ele><time>2026-03-23T10:29:49.001Z</time></trkpt><trkpt lat="45.6602318303567" lon="12.241365156713472"><ele>13.333333333333332</ele><time>2026-03-23T10:29:50.001Z</time></trkpt><trkpt lat="45.66023232428054" lon="12.241599631688418"><ele>13.0</ele><time>2026-03-23T10:29:51.001Z</time></trkpt><trkpt lat="45.66022992678324" lon="12.24180509693444"><ele>13.0</ele><time>2026-03-23T10:29:52.001Z</time></trkpt><trkpt lat="45.66022918490002" lon="12.241999979053299"><ele>13.0</ele><time>2026-03-23T10:29:53.001Z</time></trkpt><trkpt lat="45.660237208230164" lon="12.242177313740621"><ele>13.0</ele><time>2026-03-23T10:29:54.001Z</time></trkpt><trkpt lat="45.66023391817997" lon="12.242343358697958"><ele>13.0</ele><time>2026-03-23T10:29:55Z</time></trkpt><trkpt lat="45.66024068705549" lon="12.242514357994096"><ele>13.5</ele><time>2026-03-23T10:29:56Z</time></trkpt><trkpt lat="45.66023976622902" lon="12.242681303128448"><ele>14.0</ele><time>2026-03-23T10:29:57Z</time></trkpt><trkpt lat="45.660250251394366" lon="12.242872198707028"><ele>14.5</ele><time>2026-03-23T10:29:58Z</time></trkpt><trkpt lat="45.66025231087788" lon="12.24307830526826"><ele>15.0</ele><time>2026-03-23T10:29:59Z</time></trkpt><trkpt lat="45.660256402068995" lon="12.243265353349418"><ele>15.0</ele><time>2026-03-23T10:30:00Z</time></trkpt><trkpt lat="45.66025716811211" lon="12.243444628063415"><ele>15.0</ele><time>2026-03-23T10:30:01Z</time></trkpt><trkpt lat="45.66025741416239" lon="12.243604253679546"><ele>15.0</ele><time>2026-03-23T10:30:02Z</time></trkpt><trkpt lat="45.6602515805199" lon="12.243750475437823"><ele>15.0</ele><time>2026-03-23T10:30:03Z</time></trkpt><trkpt lat="45.66025627761471" lon="12.243895464298529"><ele>15.0</ele><time>2026-03-23T10:30:04Z</time></trkpt><trkpt lat="45.66026551922451" lon="12.244039137689336"><ele>15.2</ele><time>2026-03-23T10:30:05Z</time></trkpt><trkpt lat="45.660270199356866" lon="12.244178202984957"><ele>15.4</ele><time>2026-03-23T10:30:06Z</time></trkpt><trkpt lat="45.66027237040509" lon="12.244319222794687"><ele>15.600000000000001</ele><time>2026-03-23T10:30:07Z</time></trkpt><trkpt lat="45.66027589166069" lon="12.244469689924921"><ele>15.8</ele><time>2026-03-23T10:30:08Z</time></trkpt><trkpt lat="45.66027904036151" lon="12.24462095929566"><ele>16.0</ele><time>2026-03-23T10:30:09Z</time></trkpt><trkpt lat="45.660283602778065" lon="12.244759408854405"><ele>16.0</ele><time>2026-03-23T10:30:10Z</time></trkpt><trkpt lat="45.66028997021571" lon="12.244888679137896"><ele>16.0</ele><time>2026-03-23T10:30:11Z</time></trkpt><trkpt lat="45.660297110454565" lon="12.245019450568755"><ele>16.0</ele><time>2026-03-23T10:30:12Z</time></trkpt><trkpt lat="45.66030101510144" lon="12.2451515291094"><ele>16.0</ele><time>2026-03-23T10:30:13Z</time></trkpt><trkpt lat="45.6603065042828" lon="12.245283346923037"><ele>16.0</ele><time>2026-03-23T10:30:14Z</time></trkpt><trkpt lat="45.66031035198319" lon="12.245428150423383"><ele>15.999999999999998</ele><time>2026-03-23T10:30:15Z</time></trkpt><trkpt lat="45.660309003419854" lon="12.24556235458014"><ele>16.0</ele><time>2026-03-23T10:30:16Z</time></trkpt><trkpt lat="45.66030686422739" lon="12.245690054589273"><ele>16.0</ele><time>2026-03-23T10:30:17Z</time></trkpt><trkpt lat="45.660299588093096" lon="12.24581717897278"><ele>16.0</ele><time>2026-03-23T10:30:18Z</time></trkpt><trkpt lat="45.66028338229963" lon="12.245944707020566"><ele>15.999999999999998</ele><time>2026-03-23T10:30:19Z</time></trkpt><trkpt lat="45.66030084961623" lon="12.246060308317604"><ele>16.0</ele><time>2026-03-23T10:30:20Z</time></trkpt><trkpt lat="45.66030217720424" lon="12.246177965812779"><ele>15.999999999999998</ele><time>2026-03-23T10:30:21Z</time></trkpt><trkpt lat="45.66030352711796" lon="12.24629760193302"><ele>16.0</ele><time>2026-03-23T10:30:22Z</time></trkpt><trkpt lat="45.66030504770675" lon="12.246436982341272"><ele>16.0</ele><time>2026-03-23T10:30:23Z</time></trkpt><trkpt lat="45.660306214887" lon="12.24655191243614"><ele>16.0</ele><time>2026-03-23T10:30:24Z</time></trkpt><trkpt lat="45.66030738757353" lon="12.246667384650198"><ele>15.999999999999998</ele><time>2026-03-23T10:30:25Z</time></trkpt><trkpt lat="45.66030847951813" lon="12.246774906347726"><ele>16.0</ele><time>2026-03-23T10:30:26Z</time></trkpt><trkpt lat="45.66030942212717" lon="12.246867723211919"><ele>16.0</ele><time>2026-03-23T10:30:27Z</time></trkpt><trkpt lat="45.66031521460148" lon="12.246986488226337"><ele>16.0</ele><time>2026-03-23T10:30:29Z</time></trkpt><trkpt lat="45.66015622454235" lon="12.24690089789114"><ele>16.0</ele><time>2026-03-23T10:30:33Z</time></trkpt><trkpt lat="45.66016571766911" lon="12.24699053767008"><ele>16.0</ele><time>2026-03-23T10:49:00.998Z</time></trkpt><trkpt lat="45.66022781650951" lon="12.247005383595152"><ele>16.0</ele><time>2026-03-23T10:49:03.998Z</time></trkpt><trkpt lat="45.660265348430876" lon="12.24713130844002"><ele>16.0</ele><time>2026-03-23T10:49:06.998Z</time></trkpt><trkpt lat="45.66033060811589" lon="12.247161679060696"><ele>16.0</ele><time>2026-03-23T10:49:13.998Z</time></trkpt><trkpt lat="45.66039619578999" lon="12.247293109034244"><ele>16.0</ele><time>2026-03-23T10:49:15.998Z</time></trkpt><trkpt lat="45.66044684487226" lon="12.247375861292776"><ele>16.0</ele><time>2026-03-23T10:49:16.998Z</time></trkpt><trkpt lat="45.66052471123206" lon="12.24742517291549"><ele>16.0</ele><time>2026-03-23T10:49:17.998Z</time></trkpt><trkpt lat="45.66064090768503" lon="12.247475158095474"><ele>15.999999999999998</ele><time>2026-03-23T10:49:19.998Z</time></trkpt><trkpt lat="45.66065446530715" lon="12.247581590744815"><ele>16.0</ele><time>2026-03-23T10:49:21.998Z</time></trkpt><trkpt lat="45.66063226330737" lon="12.24767071588756"><ele>16.0</ele><time>2026-03-23T10:49:23.998Z</time></trkpt><trkpt lat="45.660603571410334" lon="12.247815777364405"><ele>16.0</ele><time>2026-03-23T10:49:25.997Z</time></trkpt><trkpt lat="45.6605630935212" lon="12.247917174064087"><ele>15.999999999999998</ele><time>2026-03-23T10:49:26.997Z</time></trkpt><trkpt lat="45.660481639857174" lon="12.248004277669535"><ele>16.0</ele><time>2026-03-23T10:49:27.997Z</time></trkpt><trkpt lat="45.66040768614514" lon="12.248086187438087"><ele>15.999999999999998</ele><time>2026-03-23T10:49:28.997Z</time></trkpt><trkpt lat="45.66034434905202" lon="12.248168247423038"><ele>16.0</ele><time>2026-03-23T10:49:29.997Z</time></trkpt><trkpt lat="45.66028774125793" lon="12.248253306079937"><ele>16.0</ele><time>2026-03-23T10:49:30.997Z</time></trkpt><trkpt lat="45.66023200862163" lon="12.248325984395434"><ele>16.0</ele><time>2026-03-23T10:49:31.997Z</time></trkpt><trkpt lat="45.66017815018139" lon="12.24840257611186"><ele>15.999999999999998</ele><time>2026-03-23T10:49:32.997Z</time></trkpt><trkpt lat="45.66012260978427" lon="12.248487273414149"><ele>16.0</ele><time>2026-03-23T10:49:33.997Z</time></trkpt><trkpt lat="45.66007128133193" lon="12.24855424660182"><ele>16.0</ele><time>2026-03-23T10:49:34.997Z</time></trkpt><trkpt lat="45.66001524866694" lon="12.248636719010518"><ele>16.0</ele><time>2026-03-23T10:49:35.997Z</time></trkpt><trkpt lat="45.65996378942313" lon="12.248716871418585"><ele>16.0</ele><time>2026-03-23T10:49:36.997Z</time></trkpt><trkpt lat="45.65992764869305" lon="12.248812330456941"><ele>16.0</ele><time>2026-03-23T10:49:37.997Z</time></trkpt><trkpt lat="45.65992852168197" lon="12.249017450326273"><ele>16.0</ele><time>2026-03-23T10:49:39.997Z</time></trkpt><trkpt lat="45.65994873609637" lon="12.249193366380847"><ele>15.600000000000001</ele><time>2026-03-23T10:49:40.997Z</time></trkpt><trkpt lat="45.65997656283745" lon="12.249368804728876"><ele>15.200000000000001</ele><time>2026-03-23T10:49:41.997Z</time></trkpt><trkpt lat="45.65998419690974" lon="12.249522726581604"><ele>14.799999999999999</ele><time>2026-03-23T10:49:42.997Z</time></trkpt><trkpt lat="45.659987963402074" lon="12.249663236913605"><ele>14.399999999999999</ele><time>2026-03-23T10:49:43.997Z</time></trkpt><trkpt lat="45.66000931114932" lon="12.24979634189527"><ele>14.0</ele><time>2026-03-23T10:49:44.997Z</time></trkpt><trkpt lat="45.660021196968614" lon="12.24993147759357"><ele>14.000000000000002</ele><time>2026-03-23T10:49:45.997Z</time></trkpt><trkpt lat="45.66003665146104" lon="12.250054654911688"><ele>14.0</ele><time>2026-03-23T10:49:46.997Z</time></trkpt><trkpt lat="45.66005429045291" lon="12.25016809634477"><ele>14.0</ele><time>2026-03-23T10:49:47.997Z</time></trkpt><trkpt lat="45.66007449926438" lon="12.2502768546171"><ele>14.0</ele><time>2026-03-23T10:49:48.997Z</time></trkpt><trkpt lat="45.66009971101936" lon="12.250389609680507"><ele>14.000000000000002</ele><time>2026-03-23T10:49:49.997Z</time></trkpt><trkpt lat="45.66012217657999" lon="12.250508243370648"><ele>14.0</ele><time>2026-03-23T10:49:50.997Z</time></trkpt><trkpt lat="45.66014940181902" lon="12.250638088434682"><ele>13.799999999999999</ele><time>2026-03-23T10:49:51.997Z</time></trkpt><trkpt lat="45.66018161915091" lon="12.25077273429016"><ele>13.599999999999998</ele><time>2026-03-23T10:49:52.999Z</time></trkpt><trkpt lat="45.660212535451635" lon="12.250926065182005"><ele>13.4</ele><time>2026-03-23T10:49:53.999Z</time></trkpt><trkpt lat="45.66023757977825" lon="12.251082424079277"><ele>13.2</ele><time>2026-03-23T10:49:54.998Z</time></trkpt><trkpt lat="45.66025792395706" lon="12.251218901858936"><ele>13.0</ele><time>2026-03-23T10:49:55.999Z</time></trkpt><trkpt lat="45.66027298296456" lon="12.251337748668535"><ele>13.142857142857142</ele><time>2026-03-23T10:49:56.999Z</time></trkpt><trkpt lat="45.66029019235721" lon="12.251444079887662"><ele>13.285714285714286</ele><time>2026-03-23T10:49:57.999Z</time></trkpt><trkpt lat="45.660308285599484" lon="12.251540107408186"><ele>13.428571428571429</ele><time>2026-03-23T10:49:58.999Z</time></trkpt><trkpt lat="45.660320164765295" lon="12.25163905938651"><ele>13.571428571428571</ele><time>2026-03-23T10:49:59.999Z</time></trkpt><trkpt lat="45.66033046270903" lon="12.251746712411746"><ele>13.714285714285715</ele><time>2026-03-23T10:50:00.999Z</time></trkpt><trkpt lat="45.66035384472759" lon="12.251855005670581"><ele>13.857142857142858</ele><time>2026-03-23T10:50:01.999Z</time></trkpt><trkpt lat="45.66038170391407" lon="12.251958260801606"><ele>14.0</ele><time>2026-03-23T10:50:02.999Z</time></trkpt><trkpt lat="45.660409159802875" lon="12.252044924513873"><ele>14.2</ele><time>2026-03-23T10:50:03.999Z</time></trkpt><trkpt lat="45.66046991238556" lon="12.25216334371014"><ele>14.399999999999999</ele><time>2026-03-23T10:50:05.999Z</time></trkpt><trkpt lat="45.66053429375641" lon="12.252278833735375"><ele>14.6</ele><time>2026-03-23T10:50:07.999Z</time></trkpt><trkpt lat="45.660616574815286" lon="12.252412958537146"><ele>14.8</ele><time>2026-03-23T10:50:09.999Z</time></trkpt><trkpt lat="45.66066132366365" lon="12.252477524388098"><ele>15.0</ele><time>2026-03-23T10:50:10.999Z</time></trkpt><trkpt lat="45.66073473095101" lon="12.252591680377796"><ele>14.6</ele><time>2026-03-23T10:50:12.999Z</time></trkpt><trkpt lat="45.66078272401274" lon="12.25266713495705"><ele>14.2</ele><time>2026-03-23T10:50:14.999Z</time></trkpt><trkpt lat="45.660843263414094" lon="12.252798326591275"><ele>13.8</ele><time>2026-03-23T10:50:17.999Z</time></trkpt><trkpt lat="45.6609400431358" lon="12.252956918505365"><ele>13.4</ele><time>2026-03-23T10:50:19.999Z</time></trkpt><trkpt lat="45.66098329722816" lon="12.253044485758618"><ele>13.0</ele><time>2026-03-23T10:50:21.999Z</time></trkpt><trkpt lat="45.66102234149423" lon="12.253144566719845"><ele>12.8</ele><time>2026-03-23T10:50:26.999Z</time></trkpt><trkpt lat="45.661052273006945" lon="12.253226214228274"><ele>12.600000000000001</ele><time>2026-03-23T10:50:29.999Z</time></trkpt><trkpt lat="45.660970770742736" lon="12.253318459634471"><ele>12.399999999999999</ele><time>2026-03-23T10:50:30.999Z</time></trkpt><trkpt lat="45.66087846924907" lon="12.253360895124036"><ele>12.2</ele><time>2026-03-23T10:50:32.999Z</time></trkpt><trkpt lat="45.660781027652135" lon="12.253420756102438"><ele>12.0</ele><time>2026-03-23T10:50:34.999Z</time></trkpt><trkpt lat="45.6606985620195" lon="12.253476013646091"><ele>12.0</ele><time>2026-03-23T10:50:37.999Z</time></trkpt><trkpt lat="45.660636783356594" lon="12.253521584401287"><ele>12.0</ele><time>2026-03-23T10:50:39.999Z</time></trkpt><trkpt lat="45.660537241492335" lon="12.253567451326356"><ele>12.0</ele><time>2026-03-23T10:50:41.999Z</time></trkpt><trkpt lat="45.66047069380005" lon="12.253623233220907"><ele>12.0</ele><time>2026-03-23T10:50:44.999Z</time></trkpt><trkpt lat="45.66036137762796" lon="12.253664645985742"><ele>12.0</ele><time>2026-03-23T10:50:46.999Z</time></trkpt><trkpt lat="45.66026408555815" lon="12.253706555020756"><ele>12.0</ele><time>2026-03-23T10:50:48.999Z</time></trkpt><trkpt lat="45.66020061331652" lon="12.25371124927245"><ele>12.0</ele><time>2026-03-23T10:50:49.999Z</time></trkpt><trkpt lat="45.660072794141875" lon="12.253674816432437"><ele>12.0</ele><time>2026-03-23T10:50:51.999Z</time></trkpt><trkpt lat="45.66000050579055" lon="12.253629886825562"><ele>12.0</ele><time>2026-03-23T10:50:52.999Z</time></trkpt><trkpt lat="45.65991595767562" lon="12.253584631083294"><ele>12.0</ele><time>2026-03-23T10:50:53.999Z</time></trkpt><trkpt lat="45.659840329724766" lon="12.253522689517728"><ele>12.0</ele><time>2026-03-23T10:50:54.999Z</time></trkpt><trkpt lat="45.65976538655013" lon="12.253440378182033"><ele>12.0</ele><time>2026-03-23T10:50:55.999Z</time></trkpt><trkpt lat="45.659695937003434" lon="12.253351731840123"><ele>12.0</ele><time>2026-03-23T10:50:56.999Z</time></trkpt><trkpt lat="45.659628666312024" lon="12.253271674605346"><ele>12.0</ele><time>2026-03-23T10:50:57.999Z</time></trkpt><trkpt lat="45.65955932164303" lon="12.253180705918092"><ele>12.0</ele><time>2026-03-23T10:50:58.999Z</time></trkpt><trkpt lat="45.659491360672504" lon="12.253080400757796"><ele>11.833333333333334</ele><time>2026-03-23T10:50:59.999Z</time></trkpt><trkpt lat="45.659430440285945" lon="12.25297530853059"><ele>11.666666666666666</ele><time>2026-03-23T10:51:00.999Z</time></trkpt><trkpt lat="45.659377831071666" lon="12.252878527708749"><ele>11.5</ele><time>2026-03-23T10:51:01.999Z</time></trkpt><trkpt lat="45.6593238633159" lon="12.252794439646276"><ele>11.333333333333332</ele><time>2026-03-23T10:51:02.999Z</time></trkpt><trkpt lat="45.65927095966094" lon="12.252711830477097"><ele>11.166666666666666</ele><time>2026-03-23T10:51:03.999Z</time></trkpt><trkpt lat="45.65922523855248" lon="12.252635872201637"><ele>11.0</ele><time>2026-03-23T10:51:04.999Z</time></trkpt><trkpt lat="45.65915229014432" lon="12.252537533111576"><ele>11.0</ele><time>2026-03-23T10:51:06.999Z</time></trkpt><trkpt lat="45.659095526557984" lon="12.252452535109192"><ele>11.0</ele><time>2026-03-23T10:51:09.999Z</time></trkpt><trkpt lat="45.65904677744422" lon="12.252389195439166"><ele>11.0</ele><time>2026-03-23T10:51:22.998Z</time></trkpt><trkpt lat="45.658977181866675" lon="12.252283328278162"><ele>11.0</ele><time>2026-03-23T10:51:24.998Z</time></trkpt><trkpt lat="45.65890111744798" lon="12.25216530941592"><ele>11.0</ele><time>2026-03-23T10:51:26.998Z</time></trkpt><trkpt lat="45.65882930356253" lon="12.252061504777911"><ele>11.200000000000001</ele><time>2026-03-23T10:51:28.998Z</time></trkpt><trkpt lat="45.65874370245108" lon="12.251939609347502"><ele>11.4</ele><time>2026-03-23T10:51:30.998Z</time></trkpt><trkpt lat="45.658663194984904" lon="12.251826990856214"><ele>11.6</ele><time>2026-03-23T10:51:32.998Z</time></trkpt><trkpt lat="45.65860140798941" lon="12.251731008041746"><ele>11.8</ele><time>2026-03-23T10:51:34.998Z</time></trkpt><trkpt lat="45.65852666078442" lon="12.251625059902347"><ele>12.0</ele><time>2026-03-23T10:51:36.998Z</time></trkpt><trkpt lat="45.658469816924956" lon="12.251532951901726"><ele>12.666666666666666</ele><time>2026-03-23T10:51:38.998Z</time></trkpt><trkpt lat="45.658408224260675" lon="12.251451718354755"><ele>13.333333333333332</ele><time>2026-03-23T10:51:40.998Z</time></trkpt><trkpt lat="45.65835217258388" lon="12.251368271434295"><ele>14.0</ele><time>2026-03-23T10:51:42.998Z</time></trkpt><trkpt lat="45.65831352451332" lon="12.251285377175293"><ele>14.666666666666666</ele><time>2026-03-23T10:51:44.998Z</time></trkpt><trkpt lat="45.658188805636094" lon="12.251316954578833"><ele>15.333333333333332</ele><time>2026-03-23T10:51:46.998Z</time></trkpt><trkpt lat="45.658144622181055" lon="12.251399501604364"><ele>16.0</ele><time>2026-03-23T10:51:48.998Z</time></trkpt><trkpt lat="45.65807709245843" lon="12.251386441211745"><ele>16.0</ele><time>2026-03-23T10:51:50.998Z</time></trkpt><trkpt lat="45.658049161410695" lon="12.251280033496723"><ele>15.999999999999998</ele><time>2026-03-23T10:51:51.998Z</time></trkpt><trkpt lat="45.65800080770358" lon="12.251202702469605"><ele>16.0</ele><time>2026-03-23T10:51:52.998Z</time></trkpt><trkpt lat="45.65794607917179" lon="12.251114417846633"><ele>16.0</ele><time>2026-03-23T10:51:53.998Z</time></trkpt><trkpt lat="45.657897042488884" lon="12.251053770641668"><ele>15.999999999999998</ele><time>2026-03-23T10:51:54.998Z</time></trkpt><trkpt lat="45.65784244316532" lon="12.251002225260374"><ele>16.0</ele><time>2026-03-23T10:51:55.998Z</time></trkpt><trkpt lat="45.65778163424746" lon="12.250950825413067"><ele>16.0</ele><time>2026-03-23T10:51:56.998Z</time></trkpt><trkpt lat="45.65771170857387" lon="12.250898818097207"><ele>15.666666666666666</ele><time>2026-03-23T10:51:57.998Z</time></trkpt><trkpt lat="45.65763991555435" lon="12.250847299213197"><ele>15.333333333333332</ele><time>2026-03-23T10:51:58.999Z</time></trkpt><trkpt lat="45.6575587133771" lon="12.250786982611153"><ele>15.0</ele><time>2026-03-23T10:51:59.999Z</time></trkpt><trkpt lat="45.65747283485386" lon="12.250724965216174"><ele>14.666666666666668</ele><time>2026-03-23T10:52:00.999Z</time></trkpt><trkpt lat="45.65739529660471" lon="12.250660979144586"><ele>14.333333333333334</ele><time>2026-03-23T10:52:01.999Z</time></trkpt><trkpt lat="45.657318583300246" lon="12.250603231302371"><ele>14.0</ele><time>2026-03-23T10:52:02.999Z</time></trkpt><trkpt lat="45.65723369555234" lon="12.25054662560801"><ele>14.000000000000002</ele><time>2026-03-23T10:52:03.999Z</time></trkpt><trkpt lat="45.65715043709848" lon="12.250492184253856"><ele>14.0</ele><time>2026-03-23T10:52:04.999Z</time></trkpt><trkpt lat="45.657070486910975" lon="12.250434388284889"><ele>14.0</ele><time>2026-03-23T10:52:05.999Z</time></trkpt><trkpt lat="45.65698946548342" lon="12.25037869253542"><ele>14.0</ele><time>2026-03-23T10:52:06.999Z</time></trkpt><trkpt lat="45.656908969252946" lon="12.250321910316016"><ele>14.000000000000002</ele><time>2026-03-23T10:52:07.999Z</time></trkpt><trkpt lat="45.65683603299142" lon="12.250269189957974"><ele>14.0</ele><time>2026-03-23T10:52:08.999Z</time></trkpt><trkpt lat="45.656776366954404" lon="12.250221397618436"><ele>13.6</ele><time>2026-03-23T10:52:09.999Z</time></trkpt><trkpt lat="45.65669141833323" lon="12.250162249853355"><ele>13.2</ele><time>2026-03-23T10:52:11.999Z</time></trkpt><trkpt lat="45.65661275763596" lon="12.250103304338866"><ele>12.799999999999999</ele><time>2026-03-23T10:52:14.999Z</time></trkpt><trkpt lat="45.65653248240803" lon="12.250026252919342"><ele>12.399999999999999</ele><time>2026-03-23T10:52:16.999Z</time></trkpt><trkpt lat="45.65645467934301" lon="12.249977717026503"><ele>12.0</ele><time>2026-03-23T10:52:17.999Z</time></trkpt><trkpt lat="45.65636268623156" lon="12.249938114931119"><ele>12.0</ele><time>2026-03-23T10:52:18.999Z</time></trkpt><trkpt lat="45.656291365970816" lon="12.249862853872546"><ele>12.0</ele><time>2026-03-23T10:52:19.999Z</time></trkpt><trkpt lat="45.656187573490634" lon="12.249766728205854"><ele>12.0</ele><time>2026-03-23T10:52:20.999Z</time></trkpt><trkpt lat="45.65607538165375" lon="12.24965722538011"><ele>12.0</ele><time>2026-03-23T10:52:21.999Z</time></trkpt><trkpt lat="45.65598024098815" lon="12.249564125283491"><ele>12.5</ele><time>2026-03-23T10:52:22.999Z</time></trkpt><trkpt lat="45.65587750709359" lon="12.249463703944087"><ele>13.0</ele><time>2026-03-23T10:52:23.999Z</time></trkpt><trkpt lat="45.65575768682576" lon="12.24937410173718"><ele>13.5</ele><time>2026-03-23T10:52:24.999Z</time></trkpt><trkpt lat="45.655652512356696" lon="12.249261390961838"><ele>14.0</ele><time>2026-03-23T10:52:25.999Z</time></trkpt><trkpt lat="45.65555200402728" lon="12.249151282200902"><ele>14.0</ele><time>2026-03-23T10:52:26.999Z</time></trkpt><trkpt lat="45.655441319594516" lon="12.249047790087117"><ele>14.0</ele><time>2026-03-23T10:52:27.999Z</time></trkpt><trkpt lat="45.65533258195419" lon="12.248944021719845"><ele>14.0</ele><time>2026-03-23T10:52:28.999Z</time></trkpt><trkpt lat="45.65523686971818" lon="12.248856587112058"><ele>14.0</ele><time>2026-03-23T10:52:29.999Z</time></trkpt><trkpt lat="45.6551595154983" lon="12.248786348859738"><ele>13.666666666666668</ele><time>2026-03-23T10:52:30.999Z</time></trkpt><trkpt lat="45.65510291472255" lon="12.248711347084237"><ele>13.333333333333334</ele><time>2026-03-23T10:52:31.999Z</time></trkpt><trkpt lat="45.65503830275155" lon="12.248658039371351"><ele>13.0</ele><time>2026-03-23T10:52:32.999Z</time></trkpt><trkpt lat="45.65497987838402" lon="12.24861620937362"><ele>12.666666666666668</ele><time>2026-03-23T10:52:33.999Z</time></trkpt><trkpt lat="45.65489279136492" lon="12.248606126698013"><ele>12.333333333333334</ele><time>2026-03-23T10:52:35.999Z</time></trkpt><trkpt lat="45.65481253737483" lon="12.248574991229383"><ele>12.0</ele><time>2026-03-23T10:52:42.999Z</time></trkpt><trkpt lat="45.654829259986286" lon="12.248378882783765"><ele>12.0</ele><time>2026-03-23T10:52:44.999Z</time></trkpt><trkpt lat="45.65484307333788" lon="12.24827751285142"><ele>12.0</ele><time>2026-03-23T10:52:45.999Z</time></trkpt><trkpt lat="45.65483416232699" lon="12.248152814582669"><ele>12.0</ele><time>2026-03-23T10:52:47.999Z</time></trkpt><trkpt lat="45.65471067063353" lon="12.248176864905375"><ele>12.0</ele><time>2026-03-23T10:52:50.999Z</time></trkpt><trkpt lat="45.654628252142025" lon="12.248253954953798"><ele>12.0</ele><time>2026-03-23T10:52:51.999Z</time></trkpt><trkpt lat="45.65452991927332" lon="12.248317849662623"><ele>12.0</ele><time>2026-03-23T10:52:52.999Z</time></trkpt><trkpt lat="45.654433578563335" lon="12.248361236853414"><ele>12.0</ele><time>2026-03-23T10:52:53.999Z</time></trkpt><trkpt lat="45.6543229518901" lon="12.248418298357143"><ele>12.0</ele><time>2026-03-23T10:52:54.999Z</time></trkpt><trkpt lat="45.654187379997815" lon="12.24849548131351"><ele>12.0</ele><time>2026-03-23T10:52:55.999Z</time></trkpt><trkpt lat="45.654060155090285" lon="12.248561334913207"><ele>12.0</ele><time>2026-03-23T10:52:56.999Z</time></trkpt><trkpt lat="45.65394000906825" lon="12.248618335472964"><ele>12.0</ele><time>2026-03-23T10:52:57.999Z</time></trkpt><trkpt lat="45.65380849617971" lon="12.248684196649918"><ele>12.0</ele><time>2026-03-23T10:52:58.999Z</time></trkpt><trkpt lat="45.65366257135851" lon="12.248765197311165"><ele>12.0</ele><time>2026-03-23T10:52:59.999Z</time></trkpt><trkpt lat="45.65352300252719" lon="12.248845997494481"><ele>12.333333333333332</ele><time>2026-03-23T10:53:00.999Z</time></trkpt><trkpt lat="45.65338790309506" lon="12.248923902362106"><ele>12.666666666666666</ele><time>2026-03-23T10:53:01.999Z</time></trkpt><trkpt lat="45.6532473582295" lon="12.249004764801839"><ele>13.0</ele><time>2026-03-23T10:53:02.999Z</time></trkpt><trkpt lat="45.653098329536945" lon="12.249084732025965"><ele>13.333333333333332</ele><time>2026-03-23T10:53:03.999Z</time></trkpt><trkpt lat="45.65295785994377" lon="12.24917977308502"><ele>13.666666666666668</ele><time>2026-03-23T10:53:04.999Z</time></trkpt><trkpt lat="45.652808527736035" lon="12.24927954089197"><ele>14.0</ele><time>2026-03-23T10:53:05.999Z</time></trkpt><trkpt lat="45.652669979491556" lon="12.249425739150237"><ele>14.0</ele><time>2026-03-23T10:53:06.999Z</time></trkpt><trkpt lat="45.65251499040862" lon="12.24956699879892"><ele>14.0</ele><time>2026-03-23T10:53:07.999Z</time></trkpt><trkpt lat="45.652365447712626" lon="12.249717908306817"><ele>14.0</ele><time>2026-03-23T10:53:08.999Z</time></trkpt><trkpt lat="45.65222993513101" lon="12.249852941902418"><ele>14.333333333333334</ele><time>2026-03-23T10:53:09.999Z</time></trkpt><trkpt lat="45.65210185138914" lon="12.249977019704613"><ele>14.666666666666668</ele><time>2026-03-23T10:53:10.999Z</time></trkpt><trkpt lat="45.65197688574113" lon="12.250101072786247"><ele>15.0</ele><time>2026-03-23T10:53:11.999Z</time></trkpt><trkpt lat="45.65186117895974" lon="12.250224533407385"><ele>15.0</ele><time>2026-03-23T10:53:12.999Z</time></trkpt><trkpt lat="45.651743813549714" lon="12.250347243345905"><ele>15.0</ele><time>2026-03-23T10:53:13.999Z</time></trkpt><trkpt lat="45.6516341555443" lon="12.250457345908131"><ele>15.0</ele><time>2026-03-23T10:53:14.999Z</time></trkpt><trkpt lat="45.651531049504214" lon="12.250556978872822"><ele>15.0</ele><time>2026-03-23T10:53:15.999Z</time></trkpt><trkpt lat="45.65144203747307" lon="12.250640685857004"><ele>15.0</ele><time>2026-03-23T10:53:16.999Z</time></trkpt><trkpt lat="45.651362367050076" lon="12.25070901523592"><ele>15.0</ele><time>2026-03-23T10:53:17.999Z</time></trkpt><trkpt lat="45.65128235744045" lon="12.250732993618177"><ele>15.0</ele><time>2026-03-23T10:53:18.999Z</time></trkpt><trkpt lat="45.6512102725414" lon="12.250717584841855"><ele>15.0</ele><time>2026-03-23T10:53:19.999Z</time></trkpt><trkpt lat="45.65115036187319" lon="12.250682971240082"><ele>15.0</ele><time>2026-03-23T10:53:20.999Z</time></trkpt><trkpt lat="45.65110344584491" lon="12.250616911452678"><ele>15.0</ele><time>2026-03-23T10:53:21.999Z</time></trkpt><trkpt lat="45.65107671865625" lon="12.250500935888304"><ele>15.0</ele><time>2026-03-23T10:53:22.999Z</time></trkpt><trkpt lat="45.65100948354905" lon="12.250350330169038"><ele>15.0</ele><time>2026-03-23T10:53:23.999Z</time></trkpt><trkpt lat="45.65095155333764" lon="12.250153518702144"><ele>15.0</ele><time>2026-03-23T10:53:24.999Z</time></trkpt><trkpt lat="45.65086577795733" lon="12.249957191904478"><ele>15.0</ele><time>2026-03-23T10:53:25.999Z</time></trkpt><trkpt lat="45.6508082642225" lon="12.249785071312326"><ele>15.0</ele><time>2026-03-23T10:53:26.999Z</time></trkpt><trkpt lat="45.65076864060212" lon="12.249633101912897"><ele>15.0</ele><time>2026-03-23T10:53:27.999Z</time></trkpt><trkpt lat="45.65074323132982" lon="12.249495536849125"><ele>15.0</ele><time>2026-03-23T10:53:28.998Z</time></trkpt><trkpt lat="45.65073561161161" lon="12.249356294062375"><ele>15.0</ele><time>2026-03-23T10:53:29.998Z</time></trkpt><trkpt lat="45.650791755660684" lon="12.249234840231793"><ele>15.0</ele><time>2026-03-23T10:53:30.998Z</time></trkpt><trkpt lat="45.65087790780456" lon="12.249151647866384"><ele>15.0</ele><time>2026-03-23T10:53:31.998Z</time></trkpt><trkpt lat="45.65099441537735" lon="12.249099779249589"><ele>15.0</ele><time>2026-03-23T10:53:32.998Z</time></trkpt><trkpt lat="45.65111802131606" lon="12.24910430859358"><ele>15.0</ele><time>2026-03-23T10:53:33.998Z</time></trkpt><trkpt lat="45.65125737230475" lon="12.249163125587568"><ele>15.0</ele><time>2026-03-23T10:53:34.998Z</time></trkpt><trkpt lat="45.65137729929982" lon="12.24927789765106"><ele>15.0</ele><time>2026-03-23T10:53:35.998Z</time></trkpt><trkpt lat="45.65145539090566" lon="12.2494208685232"><ele>15.0</ele><time>2026-03-23T10:53:36.998Z</time></trkpt><trkpt lat="45.65150428526272" lon="12.249592287318324"><ele>15.0</ele><time>2026-03-23T10:53:37.998Z</time></trkpt><trkpt lat="45.65151808715743" lon="12.2497793710503"><ele>15.0</ele><time>2026-03-23T10:53:38.998Z</time></trkpt><trkpt lat="45.651493235462404" lon="12.249966450928273"><ele>15.0</ele><time>2026-03-23T10:53:39.998Z</time></trkpt><trkpt lat="45.651421594390044" lon="12.250130754594668"><ele>15.0</ele><time>2026-03-23T10:53:40.998Z</time></trkpt><trkpt lat="45.6513230604236" lon="12.25026716016464"><ele>15.0</ele><time>2026-03-23T10:53:41.998Z</time></trkpt><trkpt lat="45.65119985556674" lon="12.250400013424837"><ele>15.0</ele><time>2026-03-23T10:53:42.998Z</time></trkpt><trkpt lat="45.65105580527478" lon="12.250553320386569"><ele>14.666666666666668</ele><time>2026-03-23T10:53:43.998Z</time></trkpt><trkpt lat="45.65091279372387" lon="12.25071969733753"><ele>14.333333333333334</ele><time>2026-03-23T10:53:44.998Z</time></trkpt><trkpt lat="45.6507724585796" lon="12.250877549070239"><ele>14.0</ele><time>2026-03-23T10:53:45.998Z</time></trkpt><trkpt lat="45.6506377699831" lon="12.251019363032778"><ele>14.0</ele><time>2026-03-23T10:53:46.998Z</time></trkpt><trkpt lat="45.65051023509544" lon="12.25115422713142"><ele>14.0</ele><time>2026-03-23T10:53:47.998Z</time></trkpt><trkpt lat="45.65038364217767" lon="12.251290339580637"><ele>14.0</ele><time>2026-03-23T10:53:48.998Z</time></trkpt><trkpt lat="45.6502411065865" lon="12.251381653333356"><ele>13.666666666666668</ele><time>2026-03-23T10:53:49.998Z</time></trkpt><trkpt lat="45.65008321652661" lon="12.251477826789051"><ele>13.333333333333332</ele><time>2026-03-23T10:53:50.998Z</time></trkpt><trkpt lat="45.64990048657194" lon="12.251550774297803"><ele>13.0</ele><time>2026-03-23T10:53:51.998Z</time></trkpt><trkpt lat="45.64968238980781" lon="12.251591966476472"><ele>11.5</ele><time>2026-03-23T10:53:52.998Z</time></trkpt><trkpt lat="45.64944861065081" lon="12.251621520437416"><ele>10.0</ele><time>2026-03-23T10:53:53.998Z</time></trkpt><trkpt lat="45.64921810577701" lon="12.251659212131568"><ele>10.0</ele><time>2026-03-23T10:53:54.998Z</time></trkpt><trkpt lat="45.648989201184776" lon="12.251687219321083"><ele>10.0</ele><time>2026-03-23T10:53:55.998Z</time></trkpt><trkpt lat="45.64877570278029" lon="12.251711591768045"><ele>10.0</ele><time>2026-03-23T10:53:56.998Z</time></trkpt><trkpt lat="45.64855607394452" lon="12.25174092505608"><ele>9.5</ele><time>2026-03-23T10:53:57.998Z</time></trkpt><trkpt lat="45.6483266892988" lon="12.25176817066289"><ele>9.0</ele><time>2026-03-23T10:53:58.998Z</time></trkpt><trkpt lat="45.648090566872845" lon="12.25177906037574"><ele>9.0</ele><time>2026-03-23T10:53:59.998Z</time></trkpt><trkpt lat="45.64785210176371" lon="12.25178484337211"><ele>9.0</ele><time>2026-03-23T10:54:00.998Z</time></trkpt><trkpt lat="45.647609147277535" lon="12.25179056379943"><ele>10.0</ele><time>2026-03-23T10:54:01.998Z</time></trkpt><trkpt lat="45.64737355730374" lon="12.251779548397327"><ele>11.0</ele><time>2026-03-23T10:54:02.998Z</time></trkpt><trkpt lat="45.64714730170007" lon="12.251776830025973"><ele>10.333333333333332</ele><time>2026-03-23T10:54:03.998Z</time></trkpt><trkpt lat="45.646938366514306" lon="12.251776936963418"><ele>9.666666666666666</ele><time>2026-03-23T10:54:04.999Z</time></trkpt><trkpt lat="45.646735760498544" lon="12.251768965189738"><ele>9.0</ele><time>2026-03-23T10:54:05.999Z</time></trkpt><trkpt lat="45.646540352691886" lon="12.251747613126671"><ele>9.0</ele><time>2026-03-23T10:54:06.999Z</time></trkpt><trkpt lat="45.64635402485459" lon="12.251740002813753"><ele>9.0</ele><time>2026-03-23T10:54:07.999Z</time></trkpt><trkpt lat="45.646171217852086" lon="12.25173212920362"><ele>9.0</ele><time>2026-03-23T10:54:08.999Z</time></trkpt><trkpt lat="45.645998006047876" lon="12.251725280370502"><ele>9.666666666666666</ele><time>2026-03-23T10:54:09.999Z</time></trkpt><trkpt lat="45.64583549228121" lon="12.251718866495578"><ele>10.333333333333332</ele><time>2026-03-23T10:54:10.999Z</time></trkpt><trkpt lat="45.64566924546542" lon="12.251735160396786"><ele>11.0</ele><time>2026-03-23T10:54:11.999Z</time></trkpt><trkpt lat="45.64549433622937" lon="12.25171716698107"><ele>11.0</ele><time>2026-03-23T10:54:12.999Z</time></trkpt><trkpt lat="45.64531729545366" lon="12.25171716912443"><ele>11.0</ele><time>2026-03-23T10:54:13.999Z</time></trkpt><trkpt lat="45.64515563064116" lon="12.251737483217182"><ele>11.0</ele><time>2026-03-23T10:54:14.999Z</time></trkpt><trkpt lat="45.64499849103906" lon="12.251690806509941"><ele>10.75</ele><time>2026-03-23T10:54:15.999Z</time></trkpt><trkpt lat="45.644846768069" lon="12.25163635864264"><ele>10.5</ele><time>2026-03-23T10:54:16.999Z</time></trkpt><trkpt lat="45.64473081660989" lon="12.251598023994996"><ele>10.25</ele><time>2026-03-23T10:54:17.999Z</time></trkpt><trkpt lat="45.644670092748505" lon="12.251492259403218"><ele>10.0</ele><time>2026-03-23T10:54:19.999Z</time></trkpt><trkpt lat="45.64458891072023" lon="12.251409404612836"><ele>10.0</ele><time>2026-03-23T10:54:21.999Z</time></trkpt><trkpt lat="45.6445894362266" lon="12.251085469272923"><ele>10.0</ele><time>2026-03-23T10:54:22.999Z</time></trkpt><trkpt lat="45.64453593551592" lon="12.250869982407607"><ele>10.0</ele><time>2026-03-23T10:54:23.999Z</time></trkpt><trkpt lat="45.64448683285672" lon="12.250639538732964"><ele>10.0</ele><time>2026-03-23T10:54:24.999Z</time></trkpt><trkpt lat="45.644560672890435" lon="12.250371286618154"><ele>10.0</ele><time>2026-03-23T10:54:25.999Z</time></trkpt><trkpt lat="45.644583918352176" lon="12.250067383664325"><ele>10.0</ele><time>2026-03-23T10:54:26.999Z</time></trkpt><trkpt lat="45.64459605024487" lon="12.249750595279565"><ele>10.333333333333334</ele><time>2026-03-23T10:54:27.999Z</time></trkpt><trkpt lat="45.6446140365523" lon="12.249451970221866"><ele>10.666666666666666</ele><time>2026-03-23T10:54:28.999Z</time></trkpt><trkpt lat="45.64465261432875" lon="12.249156798833454"><ele>11.0</ele><time>2026-03-23T10:54:29.999Z</time></trkpt><trkpt lat="45.64467633749296" lon="12.248828532470222"><ele>11.333333333333332</ele><time>2026-03-23T10:54:30.999Z</time></trkpt><trkpt lat="45.64468222252865" lon="12.248502321400284"><ele>11.666666666666666</ele><time>2026-03-23T10:54:31.999Z</time></trkpt><trkpt lat="45.64470598539616" lon="12.248202309987494"><ele>12.0</ele><time>2026-03-23T10:54:32.999Z</time></trkpt><trkpt lat="45.64472981953392" lon="12.247912761359883"><ele>12.0</ele><time>2026-03-23T10:54:33.999Z</time></trkpt><trkpt lat="45.644749010396964" lon="12.247636534613273"><ele>12.0</ele><time>2026-03-23T10:54:34.999Z</time></trkpt><trkpt lat="45.64475968613439" lon="12.247380677488282"><ele>12.0</ele><time>2026-03-23T10:54:35.999Z</time></trkpt><trkpt lat="45.64475873766566" lon="12.247152966066798"><ele>12.25</ele><time>2026-03-23T10:54:36.999Z</time></trkpt><trkpt lat="45.644747427179084" lon="12.246939483547267"><ele>12.5</ele><time>2026-03-23T10:54:37.999Z</time></trkpt><trkpt lat="45.64472980951551" lon="12.246734084851283"><ele>12.75</ele><time>2026-03-23T10:54:38.999Z</time></trkpt><trkpt lat="45.64472720462529" lon="12.246515153926145"><ele>13.0</ele><time>2026-03-23T10:54:39.999Z</time></trkpt><trkpt lat="45.644761673250706" lon="12.24626432825907"><ele>13.0</ele><time>2026-03-23T10:54:40.999Z</time></trkpt><trkpt lat="45.64482192422662" lon="12.24596653082633"><ele>13.0</ele><time>2026-03-23T10:54:41.999Z</time></trkpt><trkpt lat="45.644878438231835" lon="12.245647032712178"><ele>13.0</ele><time>2026-03-23T10:54:42.999Z</time></trkpt><trkpt lat="45.64492754001171" lon="12.245337139565223"><ele>13.0</ele><time>2026-03-23T10:54:43.999Z</time></trkpt><trkpt lat="45.64497032022747" lon="12.2450558426521"><ele>13.0</ele><time>2026-03-23T10:54:44.999Z</time></trkpt><trkpt lat="45.64501665230096" lon="12.244771693007893"><ele>13.0</ele><time>2026-03-23T10:54:45.999Z</time></trkpt><trkpt lat="45.64506139612748" lon="12.244489919638768"><ele>13.0</ele><time>2026-03-23T10:54:46.999Z</time></trkpt><trkpt lat="45.64510497251779" lon="12.244228217931122"><ele>13.0</ele><time>2026-03-23T10:54:47.999Z</time></trkpt><trkpt lat="45.64514759713548" lon="12.243989152005916"><ele>13.0</ele><time>2026-03-23T10:54:48.999Z</time></trkpt><trkpt lat="45.645189768470054" lon="12.243753714411525"><ele>13.0</ele><time>2026-03-23T10:54:49.999Z</time></trkpt><trkpt lat="45.64523160687166" lon="12.243536769756332"><ele>13.0</ele><time>2026-03-23T10:54:50.999Z</time></trkpt><trkpt lat="45.645270419795885" lon="12.243320884410632"><ele>13.0</ele><time>2026-03-23T10:54:51.999Z</time></trkpt><trkpt lat="45.64530794335199" lon="12.243107621130541"><ele>12.75</ele><time>2026-03-23T10:54:52.999Z</time></trkpt><trkpt lat="45.645344522627845" lon="12.242904800387054"><ele>12.5</ele><time>2026-03-23T10:54:53.999Z</time></trkpt><trkpt lat="45.645375651176884" lon="12.242710027353404"><ele>12.25</ele><time>2026-03-23T10:54:54.999Z</time></trkpt><trkpt lat="45.64542641872408" lon="12.242539528737597"><ele>12.0</ele><time>2026-03-23T10:54:55.999Z</time></trkpt><trkpt lat="45.64542716673682" lon="12.242373852270939"><ele>12.5</ele><time>2026-03-23T10:54:56.999Z</time></trkpt><trkpt lat="45.645436974710435" lon="12.242233739728546"><ele>13.0</ele><time>2026-03-23T10:54:57.999Z</time></trkpt><trkpt lat="45.645435985230286" lon="12.24212517193166"><ele>13.5</ele><time>2026-03-23T10:54:58.999Z</time></trkpt><trkpt lat="45.64544067750898" lon="12.241993291523725"><ele>14.0</ele><time>2026-03-23T10:55:00.999Z</time></trkpt><trkpt lat="45.64543638790986" lon="12.241865530235515"><ele>14.5</ele><time>2026-03-23T10:55:02.999Z</time></trkpt><trkpt lat="45.64546066571714" lon="12.241771385635568"><ele>15.0</ele><time>2026-03-23T10:55:03.999Z</time></trkpt><trkpt lat="45.64548562517846" lon="12.24165581125371"><ele>15.0</ele><time>2026-03-23T10:55:04.999Z</time></trkpt><trkpt lat="45.64547955242398" lon="12.24154633964964"><ele>15.0</ele><time>2026-03-23T10:55:05.999Z</time></trkpt><trkpt lat="45.64545745119512" lon="12.241438720573447"><ele>15.0</ele><time>2026-03-23T10:55:06.999Z</time></trkpt><trkpt lat="45.64537151572482" lon="12.241399044954475"><ele>15.0</ele><time>2026-03-23T10:55:07.999Z</time></trkpt><trkpt lat="45.64528947777714" lon="12.241385666580952"><ele>15.0</ele><time>2026-03-23T10:55:08.999Z</time></trkpt><trkpt lat="45.64518209057358" lon="12.241400927450028"><ele>15.0</ele><time>2026-03-23T10:55:09.999Z</time></trkpt><trkpt lat="45.64507320973339" lon="12.241371104951792"><ele>14.4</ele><time>2026-03-23T10:55:10.999Z</time></trkpt><trkpt lat="45.644967303072335" lon="12.241376067498544"><ele>13.8</ele><time>2026-03-23T10:55:11.999Z</time></trkpt><trkpt lat="45.64487346225239" lon="12.241352152728432"><ele>13.2</ele><time>2026-03-23T10:55:12.999Z</time></trkpt><trkpt lat="45.6447752492396" lon="12.241334385375644"><ele>12.6</ele><time>2026-03-23T10:55:13.999Z</time></trkpt><trkpt lat="45.644685533936574" lon="12.241327843505962"><ele>12.0</ele><time>2026-03-23T10:55:14.999Z</time></trkpt><trkpt lat="45.644606695397115" lon="12.241322259563225"><ele>11.999999999999998</ele><time>2026-03-23T10:55:15.999Z</time></trkpt><trkpt lat="45.64453577650843" lon="12.241302731678216"><ele>12.0</ele><time>2026-03-23T10:55:16.999Z</time></trkpt><trkpt lat="45.644470480411236" lon="12.241281429234624"><ele>12.0</ele><time>2026-03-23T10:55:17.999Z</time></trkpt><trkpt lat="45.64440278637299" lon="12.241265132442258"><ele>12.0</ele><time>2026-03-23T10:55:18.999Z</time></trkpt><trkpt lat="45.644335812552605" lon="12.241255515050367"><ele>12.0</ele><time>2026-03-23T10:55:19.999Z</time></trkpt><trkpt lat="45.644269015162486" lon="12.241248545530775"><ele>11.999999999999998</ele><time>2026-03-23T10:55:20.999Z</time></trkpt><trkpt lat="45.64418060132221" lon="12.241237327028166"><ele>12.0</ele><time>2026-03-23T10:55:21.999Z</time></trkpt><trkpt lat="45.64407912464398" lon="12.24122460083252"><ele>12.2</ele><time>2026-03-23T10:55:22.999Z</time></trkpt><trkpt lat="45.64398094795091" lon="12.241216886437027"><ele>12.399999999999999</ele><time>2026-03-23T10:55:23.999Z</time></trkpt><trkpt lat="45.64389377841928" lon="12.241207368286446"><ele>12.600000000000001</ele><time>2026-03-23T10:55:24.999Z</time></trkpt><trkpt lat="45.6438165019559" lon="12.241201513832625"><ele>12.8</ele><time>2026-03-23T10:55:25.999Z</time></trkpt><trkpt lat="45.64370876331955" lon="12.241143079725813"><ele>13.0</ele><time>2026-03-23T10:55:27.999Z</time></trkpt><trkpt lat="45.643692914151686" lon="12.240963356251749"><ele>13.0</ele><time>2026-03-23T10:55:29.998Z</time></trkpt><trkpt lat="45.643674782634136" lon="12.240803209463728"><ele>13.0</ele><time>2026-03-23T10:55:30.998Z</time></trkpt><trkpt lat="45.643664678393314" lon="12.240608198187985"><ele>13.0</ele><time>2026-03-23T10:55:31.998Z</time></trkpt><trkpt lat="45.64367047423877" lon="12.240426055534593"><ele>13.0</ele><time>2026-03-23T10:55:32.998Z</time></trkpt><trkpt lat="45.643661759984376" lon="12.240211513920293"><ele>12.333333333333332</ele><time>2026-03-23T10:55:33.998Z</time></trkpt><trkpt lat="45.64365282185621" lon="12.239970561860323"><ele>11.666666666666666</ele><time>2026-03-23T10:55:34.998Z</time></trkpt><trkpt lat="45.64364406519507" lon="12.239709666820676"><ele>11.0</ele><time>2026-03-23T10:55:35.998Z</time></trkpt><trkpt lat="45.64363688581722" lon="12.239448431216813"><ele>10.666666666666666</ele><time>2026-03-23T10:55:36.998Z</time></trkpt><trkpt lat="45.64363099410882" lon="12.239214602948252"><ele>10.333333333333334</ele><time>2026-03-23T10:55:37.998Z</time></trkpt><trkpt lat="45.64361832725887" lon="12.238970389680834"><ele>10.0</ele><time>2026-03-23T10:55:38.998Z</time></trkpt><trkpt lat="45.64361269371462" lon="12.238735215966294"><ele>10.0</ele><time>2026-03-23T10:55:39.998Z</time></trkpt><trkpt lat="45.64360667069554" lon="12.238502644843194"><ele>10.0</ele><time>2026-03-23T10:55:40.998Z</time></trkpt><trkpt lat="45.64359994789752" lon="12.238285751488126"><ele>10.0</ele><time>2026-03-23T10:55:41.998Z</time></trkpt><trkpt lat="45.64359250837833" lon="12.238084113089002"><ele>10.666666666666668</ele><time>2026-03-23T10:55:42.998Z</time></trkpt><trkpt lat="45.64357555923684" lon="12.237898253925072"><ele>11.333333333333334</ele><time>2026-03-23T10:55:43.998Z</time></trkpt><trkpt lat="45.64354010241868" lon="12.23769212866248"><ele>12.0</ele><time>2026-03-23T10:55:44.998Z</time></trkpt><trkpt lat="45.64348277635513" lon="12.237457211003138"><ele>12.666666666666668</ele><time>2026-03-23T10:55:45.998Z</time></trkpt><trkpt lat="45.64344256656823" lon="12.237170238360202"><ele>13.333333333333334</ele><time>2026-03-23T10:55:46.998Z</time></trkpt><trkpt lat="45.643389947237345" lon="12.236913988588782"><ele>14.0</ele><time>2026-03-23T10:55:47.998Z</time></trkpt><trkpt lat="45.64333803691375" lon="12.236659883505808"><ele>13.0</ele><time>2026-03-23T10:55:48.998Z</time></trkpt><trkpt lat="45.643260274350375" lon="12.236393118641157"><ele>12.0</ele><time>2026-03-23T10:55:49.998Z</time></trkpt><trkpt lat="45.643179297084636" lon="12.236155453349856"><ele>11.0</ele><time>2026-03-23T10:55:50.998Z</time></trkpt><trkpt lat="45.64310159638164" lon="12.235965370588914"><ele>11.0</ele><time>2026-03-23T10:55:51.998Z</time></trkpt><trkpt lat="45.643051951750614" lon="12.23580170409794"><ele>11.0</ele><time>2026-03-23T10:55:52.998Z</time></trkpt><trkpt lat="45.643006991084036" lon="12.235683019342195"><ele>11.0</ele><time>2026-03-23T10:55:53.998Z</time></trkpt><trkpt lat="45.642826388127105" lon="12.235537091038532"><ele>11.0</ele><time>2026-03-23T10:55:55.998Z</time></trkpt><trkpt lat="45.64267869302564" lon="12.235499654778652"><ele>10.25</ele><time>2026-03-23T10:55:56.998Z</time></trkpt><trkpt lat="45.642534238101014" lon="12.235435456219518"><ele>9.5</ele><time>2026-03-23T10:55:57.998Z</time></trkpt><trkpt lat="45.642415265540386" lon="12.23530561105548"><ele>8.75</ele><time>2026-03-23T10:55:58.998Z</time></trkpt><trkpt lat="45.642368090463194" lon="12.23511182554423"><ele>8.0</ele><time>2026-03-23T10:55:59.998Z</time></trkpt><trkpt lat="45.64233188451392" lon="12.234908736999047"><ele>8.333333333333332</ele><time>2026-03-23T10:56:00.998Z</time></trkpt><trkpt lat="45.642311052420226" lon="12.234615420756047"><ele>8.666666666666666</ele><time>2026-03-23T10:56:01.998Z</time></trkpt><trkpt lat="45.642291689193186" lon="12.234308391665868"><ele>9.0</ele><time>2026-03-23T10:56:02.998Z</time></trkpt><trkpt lat="45.64226122515749" lon="12.23395142213487"><ele>9.0</ele><time>2026-03-23T10:56:03.998Z</time></trkpt><trkpt lat="45.64223669213194" lon="12.233592849058287"><ele>9.0</ele><time>2026-03-23T10:56:04.998Z</time></trkpt><trkpt lat="45.642214628492894" lon="12.233220701299112"><ele>9.5</ele><time>2026-03-23T10:56:05.998Z</time></trkpt><trkpt lat="45.64219191492456" lon="12.232852306814374"><ele>10.0</ele><time>2026-03-23T10:56:06.998Z</time></trkpt><trkpt lat="45.64216779229189" lon="12.23249417669298"><ele>10.5</ele><time>2026-03-23T10:56:07.998Z</time></trkpt><trkpt lat="45.642144150237726" lon="12.2321277864754"><ele>11.0</ele><time>2026-03-23T10:56:08.998Z</time></trkpt><trkpt lat="45.64212067020629" lon="12.231749484979249"><ele>10.5</ele><time>2026-03-23T10:56:09.998Z</time></trkpt><trkpt lat="45.64209690126378" lon="12.231372934491251"><ele>10.0</ele><time>2026-03-23T10:56:10.999Z</time></trkpt><trkpt lat="45.64207463056346" lon="12.231061647826653"><ele>10.0</ele><time>2026-03-23T10:56:11.999Z</time></trkpt><trkpt lat="45.64205369872231" lon="12.23076932385571"><ele>10.0</ele><time>2026-03-23T10:56:12.999Z</time></trkpt><trkpt lat="45.64203769167987" lon="12.230482382550996"><ele>10.0</ele><time>2026-03-23T10:56:13.999Z</time></trkpt><trkpt lat="45.642020175607875" lon="12.230210889834627"><ele>10.333333333333334</ele><time>2026-03-23T10:56:14.999Z</time></trkpt><trkpt lat="45.642008333123655" lon="12.229955826367052"><ele>10.666666666666666</ele><time>2026-03-23T10:56:15.999Z</time></trkpt><trkpt lat="45.64200224640846" lon="12.22970150867197"><ele>11.0</ele><time>2026-03-23T10:56:16.999Z</time></trkpt><trkpt lat="45.64200188593348" lon="12.22945054003568"><ele>11.0</ele><time>2026-03-23T10:56:17.999Z</time></trkpt><trkpt lat="45.64200092124377" lon="12.22921483101865"><ele>11.0</ele><time>2026-03-23T10:56:18.999Z</time></trkpt><trkpt lat="45.64199799486923" lon="12.229002681753341"><ele>11.0</ele><time>2026-03-23T10:56:19.999Z</time></trkpt><trkpt lat="45.64199514468863" lon="12.228807376637288"><ele>11.200000000000001</ele><time>2026-03-23T10:56:20.999Z</time></trkpt><trkpt lat="45.64199732816286" lon="12.228631345628909"><ele>11.4</ele><time>2026-03-23T10:56:21.999Z</time></trkpt><trkpt lat="45.64199896898563" lon="12.228481572812447"><ele>11.6</ele><time>2026-03-23T10:56:22.999Z</time></trkpt><trkpt lat="45.64198393756617" lon="12.228347121370861"><ele>11.8</ele><time>2026-03-23T10:56:23.999Z</time></trkpt><trkpt lat="45.64194376026042" lon="12.228234501974626"><ele>12.0</ele><time>2026-03-23T10:56:24.999Z</time></trkpt><trkpt lat="45.64188007637392" lon="12.2281609953207"><ele>12.25</ele><time>2026-03-23T10:56:25.999Z</time></trkpt><trkpt lat="45.64179705330099" lon="12.228125985733607"><ele>12.5</ele><time>2026-03-23T10:56:26.999Z</time></trkpt><trkpt lat="45.64168472188461" lon="12.228106097870134"><ele>12.75</ele><time>2026-03-23T10:56:27.999Z</time></trkpt><trkpt lat="45.641537293921516" lon="12.22811068470314"><ele>13.0</ele><time>2026-03-23T10:56:28.999Z</time></trkpt><trkpt lat="45.64136045354065" lon="12.228122160875941"><ele>13.0</ele><time>2026-03-23T10:56:29.999Z</time></trkpt><trkpt lat="45.641169880367585" lon="12.22812538590392"><ele>13.0</ele><time>2026-03-23T10:56:30.999Z</time></trkpt><trkpt lat="45.64100029858131" lon="12.228125423745931"><ele>13.0</ele><time>2026-03-23T10:56:31.999Z</time></trkpt><trkpt lat="45.64082489580942" lon="12.228125285749462"><ele>12.333333333333332</ele><time>2026-03-23T10:56:32.999Z</time></trkpt><trkpt lat="45.64062018996185" lon="12.22812601980171"><ele>11.666666666666666</ele><time>2026-03-23T10:56:33.999Z</time></trkpt><trkpt lat="45.640390288142555" lon="12.228122929791452"><ele>11.0</ele><time>2026-03-23T10:56:34.999Z</time></trkpt><trkpt lat="45.64016289916764" lon="12.228120970882264"><ele>10.666666666666666</ele><time>2026-03-23T10:56:35.999Z</time></trkpt><trkpt lat="45.63995064473807" lon="12.228123557529171"><ele>10.333333333333334</ele><time>2026-03-23T10:56:36.999Z</time></trkpt><trkpt lat="45.63972629363569" lon="12.22811664116485"><ele>10.0</ele><time>2026-03-23T10:56:37.999Z</time></trkpt><trkpt lat="45.6395120202086" lon="12.22811098013583"><ele>10.0</ele><time>2026-03-23T10:56:38.999Z</time></trkpt><trkpt lat="45.63929419901207" lon="12.228107020913061"><ele>10.0</ele><time>2026-03-23T10:56:39.999Z</time></trkpt><trkpt lat="45.63906180595751" lon="12.228088503626369"><ele>10.0</ele><time>2026-03-23T10:56:40.999Z</time></trkpt><trkpt lat="45.63880904772719" lon="12.228034711191672"><ele>10.0</ele><time>2026-03-23T10:56:41.999Z</time></trkpt><trkpt lat="45.63856093125438" lon="12.227974556937742"><ele>9.666666666666668</ele><time>2026-03-23T10:56:42.999Z</time></trkpt><trkpt lat="45.638340395329784" lon="12.22793147085565"><ele>9.333333333333334</ele><time>2026-03-23T10:56:43.999Z</time></trkpt><trkpt lat="45.63813637230521" lon="12.227885177817464"><ele>9.0</ele><time>2026-03-23T10:56:44.999Z</time></trkpt><trkpt lat="45.637942982256455" lon="12.227840551517232"><ele>9.0</ele><time>2026-03-23T10:56:45.999Z</time></trkpt><trkpt lat="45.63776332140765" lon="12.227797539607836"><ele>9.0</ele><time>2026-03-23T10:56:46.999Z</time></trkpt><trkpt lat="45.63761383510477" lon="12.227764196086618"><ele>9.0</ele><time>2026-03-23T10:56:47.999Z</time></trkpt><trkpt lat="45.637479941773" lon="12.22773861561229"><ele>9.0</ele><time>2026-03-23T10:56:48.999Z</time></trkpt><trkpt lat="45.63735781614046" lon="12.227683741572438"><ele>9.0</ele><time>2026-03-23T10:56:49.999Z</time></trkpt><trkpt lat="45.63724959211739" lon="12.22758824434447"><ele>9.0</ele><time>2026-03-23T10:56:50.999Z</time></trkpt><trkpt lat="45.637176320957785" lon="12.227496436382078"><ele>9.0</ele><time>2026-03-23T10:56:51.999Z</time></trkpt><trkpt lat="45.63707481814773" lon="12.227365777659124"><ele>9.2</ele><time>2026-03-23T10:56:53.999Z</time></trkpt><trkpt lat="45.637013963635944" lon="12.227295173241465"><ele>9.4</ele><time>2026-03-23T10:56:54.999Z</time></trkpt><trkpt lat="45.63694546165017" lon="12.227218839938649"><ele>9.6</ele><time>2026-03-23T10:56:55.999Z</time></trkpt><trkpt lat="45.63687594195088" lon="12.227119148466233"><ele>9.8</ele><time>2026-03-23T10:56:56.999Z</time></trkpt><trkpt lat="45.636802214681495" lon="12.226994251875878"><ele>10.0</ele><time>2026-03-23T10:56:57.999Z</time></trkpt><trkpt lat="45.63674883145275" lon="12.226821470034796"><ele>10.0</ele><time>2026-03-23T10:56:58.999Z</time></trkpt><trkpt lat="45.63672117884047" lon="12.226602718901384"><ele>10.0</ele><time>2026-03-23T10:56:59.999Z</time></trkpt><trkpt lat="45.63671349082493" lon="12.22640740069689"><ele>10.0</ele><time>2026-03-23T10:57:00.999Z</time></trkpt><trkpt lat="45.63671263859715" lon="12.226211682027278"><ele>10.0</ele><time>2026-03-23T10:57:01.999Z</time></trkpt><trkpt lat="45.63669760936441" lon="12.226008634452247"><ele>10.5</ele><time>2026-03-23T10:57:02.999Z</time></trkpt><trkpt lat="45.636682114242696" lon="12.225819929437312"><ele>11.0</ele><time>2026-03-23T10:57:03.999Z</time></trkpt><trkpt lat="45.63667286124646" lon="12.225624971618581"><ele>11.5</ele><time>2026-03-23T10:57:04.999Z</time></trkpt><trkpt lat="45.636664796298724" lon="12.225405247456479"><ele>12.0</ele><time>2026-03-23T10:57:05.999Z</time></trkpt><trkpt lat="45.6366549489336" lon="12.225166589276022"><ele>12.0</ele><time>2026-03-23T10:57:06.999Z</time></trkpt><trkpt lat="45.63664481085835" lon="12.224908328989459"><ele>12.0</ele><time>2026-03-23T10:57:07.999Z</time></trkpt><trkpt lat="45.63662582365015" lon="12.224627007794188"><ele>12.0</ele><time>2026-03-23T10:57:08.999Z</time></trkpt><trkpt lat="45.636564774938904" lon="12.22432297811838"><ele>11.0</ele><time>2026-03-23T10:57:09.999Z</time></trkpt><trkpt lat="45.636495431990944" lon="12.223998275697642"><ele>10.0</ele><time>2026-03-23T10:57:10.999Z</time></trkpt><trkpt lat="45.63644710905201" lon="12.223702479979686"><ele>10.0</ele><time>2026-03-23T10:57:11.999Z</time></trkpt><trkpt lat="45.636406129617676" lon="12.223420315562564"><ele>10.0</ele><time>2026-03-23T10:57:12.999Z</time></trkpt><trkpt lat="45.63636262340231" lon="12.223136160848016"><ele>10.0</ele><time>2026-03-23T10:57:13.999Z</time></trkpt><trkpt lat="45.636320272308716" lon="12.222877838046989"><ele>10.333333333333334</ele><time>2026-03-23T10:57:14.999Z</time></trkpt><trkpt lat="45.63628715805452" lon="12.222636285299137"><ele>10.666666666666666</ele><time>2026-03-23T10:57:15.999Z</time></trkpt><trkpt lat="45.63627840003691" lon="12.22237761511724"><ele>11.0</ele><time>2026-03-23T10:57:16.999Z</time></trkpt><trkpt lat="45.636277146473056" lon="12.222098701478973"><ele>10.333333333333332</ele><time>2026-03-23T10:57:17.999Z</time></trkpt><trkpt lat="45.63627318473379" lon="12.22183451660182"><ele>9.666666666666666</ele><time>2026-03-23T10:57:18.999Z</time></trkpt><trkpt lat="45.63627347165417" lon="12.221614924570776"><ele>9.0</ele><time>2026-03-23T10:57:19.999Z</time></trkpt><trkpt lat="45.63627411213685" lon="12.221443714882772"><ele>9.0</ele><time>2026-03-23T10:57:20.999Z</time></trkpt><trkpt lat="45.636276343288785" lon="12.221295621139618"><ele>9.0</ele><time>2026-03-23T10:57:21.999Z</time></trkpt><trkpt lat="45.6362736156564" lon="12.221162174976003"><ele>9.0</ele><time>2026-03-23T10:57:22.999Z</time></trkpt><trkpt lat="45.636311303625384" lon="12.221051625958546"><ele>9.0</ele><time>2026-03-23T10:57:23.999Z</time></trkpt><trkpt lat="45.63639994150165" lon="12.220957643110669"><ele>9.0</ele><time>2026-03-23T10:57:24.999Z</time></trkpt><trkpt lat="45.63652327168674" lon="12.220853995816096"><ele>9.0</ele><time>2026-03-23T10:57:25.999Z</time></trkpt><trkpt lat="45.63667552640807" lon="12.220733824450141"><ele>9.0</ele><time>2026-03-23T10:57:26.999Z</time></trkpt><trkpt lat="45.63681478148632" lon="12.220594928547284"><ele>9.0</ele><time>2026-03-23T10:57:27.999Z</time></trkpt><trkpt lat="45.636935951655566" lon="12.220488630904677"><ele>10.0</ele><time>2026-03-23T10:57:28.999Z</time></trkpt><trkpt lat="45.63707101672334" lon="12.220450107449963"><ele>11.0</ele><time>2026-03-23T10:57:29.999Z</time></trkpt><trkpt lat="45.637218345156704" lon="12.220471866207385"><ele>12.0</ele><time>2026-03-23T10:57:30.999Z</time></trkpt><trkpt lat="45.63739163791165" lon="12.220527564569286"><ele>12.0</ele><time>2026-03-23T10:57:31.999Z</time></trkpt><trkpt lat="45.637575553314264" lon="12.220622520544996"><ele>12.0</ele><time>2026-03-23T10:57:32.999Z</time></trkpt><trkpt lat="45.63775251551832" lon="12.220692808747248"><ele>12.0</ele><time>2026-03-23T10:57:33.999Z</time></trkpt><trkpt lat="45.63796149917436" lon="12.220710652301756"><ele>12.0</ele><time>2026-03-23T10:57:34.998Z</time></trkpt><trkpt lat="45.63820561372763" lon="12.22068827234705"><ele>12.0</ele><time>2026-03-23T10:57:35.998Z</time></trkpt><trkpt lat="45.63846806118526" lon="12.22065019480495"><ele>11.5</ele><time>2026-03-23T10:57:36.998Z</time></trkpt><trkpt lat="45.63873270342719" lon="12.220605387365284"><ele>11.0</ele><time>2026-03-23T10:57:37.998Z</time></trkpt><trkpt lat="45.639015729933604" lon="12.220572685480183"><ele>11.0</ele><time>2026-03-23T10:57:38.998Z</time></trkpt><trkpt lat="45.63931178845509" lon="12.220548541270626"><ele>11.0</ele><time>2026-03-23T10:57:39.998Z</time></trkpt><trkpt lat="45.63959132656657" lon="12.220509128180142"><ele>11.5</ele><time>2026-03-23T10:57:40.998Z</time></trkpt><trkpt lat="45.63985343048483" lon="12.220479612214739"><ele>12.0</ele><time>2026-03-23T10:57:41.998Z</time></trkpt><trkpt lat="45.64008959713017" lon="12.220460340810211"><ele>12.333333333333332</ele><time>2026-03-23T10:57:42.998Z</time></trkpt><trkpt lat="45.64030694924768" lon="12.22043585512013"><ele>12.666666666666666</ele><time>2026-03-23T10:57:43.998Z</time></trkpt><trkpt lat="45.64049967807693" lon="12.220412890905843"><ele>13.0</ele><time>2026-03-23T10:57:44.998Z</time></trkpt><trkpt lat="45.64068791486522" lon="12.220390567325687"><ele>13.0</ele><time>2026-03-23T10:57:45.998Z</time></trkpt><trkpt lat="45.640869207228626" lon="12.220370393610384"><ele>13.0</ele><time>2026-03-23T10:57:46.998Z</time></trkpt><trkpt lat="45.64103508444166" lon="12.220351687864678"><ele>13.0</ele><time>2026-03-23T10:57:47.998Z</time></trkpt><trkpt lat="45.64118048890701" lon="12.220339353956877"><ele>13.2</ele><time>2026-03-23T10:57:48.998Z</time></trkpt><trkpt lat="45.64130427699863" lon="12.220318958691255"><ele>13.4</ele><time>2026-03-23T10:57:49.998Z</time></trkpt><trkpt lat="45.64140902047256" lon="12.220305635774874"><ele>13.599999999999998</ele><time>2026-03-23T10:57:50.998Z</time></trkpt><trkpt lat="45.64148661902163" lon="12.220309880496975"><ele>13.799999999999999</ele><time>2026-03-23T10:57:51.998Z</time></trkpt><trkpt lat="45.64155731892265" lon="12.220274727083032"><ele>14.0</ele><time>2026-03-23T10:57:53.998Z</time></trkpt><trkpt lat="45.64155190860267" lon="12.220101512506114"><ele>14.0</ele><time>2026-03-23T10:57:56.998Z</time></trkpt><trkpt lat="45.64151245919518" lon="12.219980944766258"><ele>13.999999999999998</ele><time>2026-03-23T10:57:57.998Z</time></trkpt><trkpt lat="45.64146812598828" lon="12.219859418493623"><ele>13.999999999999998</ele><time>2026-03-23T10:57:58.998Z</time></trkpt><trkpt lat="45.641430109889434" lon="12.219753100440315"><ele>14.0</ele><time>2026-03-23T10:57:59.998Z</time></trkpt><trkpt lat="45.64139555568326" lon="12.219624567992472"><ele>14.0</ele><time>2026-03-23T10:58:00.998Z</time></trkpt><trkpt lat="45.641348218196164" lon="12.219447299847703"><ele>13.25</ele><time>2026-03-23T10:58:01.998Z</time></trkpt><trkpt lat="45.64130032418497" lon="12.219274793819382"><ele>12.5</ele><time>2026-03-23T10:58:02.998Z</time></trkpt><trkpt lat="45.64128339777033" lon="12.219103727028717"><ele>11.75</ele><time>2026-03-23T10:58:03.998Z</time></trkpt><trkpt lat="45.6413044125918" lon="12.21888099180167"><ele>11.0</ele><time>2026-03-23T10:58:04.998Z</time></trkpt><trkpt lat="45.6413585844865" lon="12.218614395850038"><ele>11.0</ele><time>2026-03-23T10:58:05.998Z</time></trkpt><trkpt lat="45.64142330903762" lon="12.218364369723428"><ele>11.0</ele><time>2026-03-23T10:58:06.998Z</time></trkpt><trkpt lat="45.641470528062314" lon="12.218146386966895"><ele>11.0</ele><time>2026-03-23T10:58:07.998Z</time></trkpt><trkpt lat="45.64150942469792" lon="12.217952219449057"><ele>11.25</ele><time>2026-03-23T10:58:08.998Z</time></trkpt><trkpt lat="45.641523881639905" lon="12.217769080153479"><ele>11.5</ele><time>2026-03-23T10:58:09.998Z</time></trkpt><trkpt lat="45.641499098962285" lon="12.217588983447078"><ele>11.75</ele><time>2026-03-23T10:58:10.998Z</time></trkpt><trkpt lat="45.641434666101205" lon="12.21739810500989"><ele>12.0</ele><time>2026-03-23T10:58:11.998Z</time></trkpt><trkpt lat="45.64133227482664" lon="12.217181651597986"><ele>12.2</ele><time>2026-03-23T10:58:12.998Z</time></trkpt><trkpt lat="45.64123358541278" lon="12.217004913098416"><ele>12.399999999999999</ele><time>2026-03-23T10:58:13.998Z</time></trkpt><trkpt lat="45.64117631053152" lon="12.216865031514136"><ele>12.600000000000001</ele><time>2026-03-23T10:58:14.998Z</time></trkpt><trkpt lat="45.64112788010306" lon="12.216767219388293"><ele>12.8</ele><time>2026-03-23T10:58:15.998Z</time></trkpt><trkpt lat="45.641105733149416" lon="12.216637716943673"><ele>13.0</ele><time>2026-03-23T10:58:17.999Z</time></trkpt><trkpt lat="45.6410830058367" lon="12.216552886159468"><ele>13.2</ele><time>2026-03-23T10:58:19.999Z</time></trkpt><trkpt lat="45.6410504904727" lon="12.216439611636762"><ele>13.4</ele><time>2026-03-23T10:58:20.999Z</time></trkpt><trkpt lat="45.64101253916411" lon="12.21631819067178"><ele>13.599999999999998</ele><time>2026-03-23T10:58:21.999Z</time></trkpt><trkpt lat="45.64098512957306" lon="12.216196009767943"><ele>13.799999999999999</ele><time>2026-03-23T10:58:22.999Z</time></trkpt><trkpt lat="45.640951124371945" lon="12.215988904214118"><ele>14.0</ele><time>2026-03-23T10:58:23.999Z</time></trkpt><trkpt lat="45.64091027118382" lon="12.215762653368264"><ele>13.666666666666668</ele><time>2026-03-23T10:58:24.999Z</time></trkpt><trkpt lat="45.640846797463624" lon="12.215531600899643"><ele>13.333333333333332</ele><time>2026-03-23T10:58:25.999Z</time></trkpt><trkpt lat="45.640767066157515" lon="12.215288188665317"><ele>13.0</ele><time>2026-03-23T10:58:26.999Z</time></trkpt><trkpt lat="45.64069334387908" lon="12.215060979652845"><ele>13.0</ele><time>2026-03-23T10:58:27.999Z</time></trkpt><trkpt lat="45.64061586378193" lon="12.21482651039265"><ele>13.0</ele><time>2026-03-23T10:58:28.999Z</time></trkpt><trkpt lat="45.64052816655835" lon="12.214578587562613"><ele>13.0</ele><time>2026-03-23T10:58:29.999Z</time></trkpt><trkpt lat="45.64044155764264" lon="12.214316446785741"><ele>13.0</ele><time>2026-03-23T10:58:30.999Z</time></trkpt><trkpt lat="45.64034380551633" lon="12.214048076625879"><ele>13.0</ele><time>2026-03-23T10:58:31.999Z</time></trkpt><trkpt lat="45.64024656334806" lon="12.213791354113978"><ele>13.0</ele><time>2026-03-23T10:58:32.999Z</time></trkpt><trkpt lat="45.64014890476619" lon="12.21353609237937"><ele>13.333333333333332</ele><time>2026-03-23T10:58:33.999Z</time></trkpt><trkpt lat="45.640052790600606" lon="12.213298962565135"><ele>13.666666666666668</ele><time>2026-03-23T10:58:34.999Z</time></trkpt><trkpt lat="45.63996236555139" lon="12.213075336123172"><ele>14.0</ele><time>2026-03-23T10:58:35.999Z</time></trkpt><trkpt lat="45.63988912526369" lon="12.212880342848756"><ele>14.25</ele><time>2026-03-23T10:58:36.999Z</time></trkpt><trkpt lat="45.63982167471296" lon="12.212720048249777"><ele>14.5</ele><time>2026-03-23T10:58:37.999Z</time></trkpt><trkpt lat="45.63973414591709" lon="12.212609919306846"><ele>14.75</ele><time>2026-03-23T10:58:38.999Z</time></trkpt><trkpt lat="45.639608034502224" lon="12.212537502476243"><ele>15.0</ele><time>2026-03-23T10:58:39.999Z</time></trkpt><trkpt lat="45.63944028306109" lon="12.212494194544764"><ele>13.5</ele><time>2026-03-23T10:58:40.999Z</time></trkpt><trkpt lat="45.63922224227555" lon="12.212482116132481"><ele>12.0</ele><time>2026-03-23T10:58:41.999Z</time></trkpt><trkpt lat="45.638974024087965" lon="12.212468471835201"><ele>12.0</ele><time>2026-03-23T10:58:42.999Z</time></trkpt><trkpt lat="45.6387211931047" lon="12.212431959174664"><ele>12.0</ele><time>2026-03-23T10:58:43.999Z</time></trkpt><trkpt lat="45.63856346411712" lon="12.21236645774657"><ele>12.0</ele><time>2026-03-23T10:58:44.999Z</time></trkpt><trkpt lat="45.638356105974644" lon="12.212354455820687"><ele>11.333333333333334</ele><time>2026-03-23T10:58:45.999Z</time></trkpt><trkpt lat="45.638162276731116" lon="12.212318357699012"><ele>10.666666666666668</ele><time>2026-03-23T10:58:46.999Z</time></trkpt><trkpt lat="45.63799313135581" lon="12.212219804423613"><ele>10.0</ele><time>2026-03-23T10:58:47.999Z</time></trkpt><trkpt lat="45.637834177952485" lon="12.21208209925876"><ele>10.333333333333334</ele><time>2026-03-23T10:58:48.999Z</time></trkpt><trkpt lat="45.637673687567954" lon="12.211925730851394"><ele>10.666666666666666</ele><time>2026-03-23T10:58:49.999Z</time></trkpt><trkpt lat="45.637527892750796" lon="12.211739721065705"><ele>11.0</ele><time>2026-03-23T10:58:50.999Z</time></trkpt><trkpt lat="45.63740452334692" lon="12.2115221699537"><ele>10.666666666666666</ele><time>2026-03-23T10:58:51.999Z</time></trkpt><trkpt lat="45.63731847649375" lon="12.211294607318344"><ele>10.333333333333334</ele><time>2026-03-23T10:58:52.999Z</time></trkpt><trkpt lat="45.63726379328513" lon="12.211086216139185"><ele>10.0</ele><time>2026-03-23T10:58:53.999Z</time></trkpt><trkpt lat="45.63719749280267" lon="12.210923321159262"><ele>10.0</ele><time>2026-03-23T10:58:54.999Z</time></trkpt><trkpt lat="45.63709138222818" lon="12.210813696667465"><ele>10.0</ele><time>2026-03-23T10:58:55.999Z</time></trkpt><trkpt lat="45.636963585339146" lon="12.210774505784807"><ele>10.0</ele><time>2026-03-23T10:58:56.999Z</time></trkpt><trkpt lat="45.636809675031024" lon="12.210787862670369"><ele>10.0</ele><time>2026-03-23T10:58:57.999Z</time></trkpt><trkpt lat="45.636625407251444" lon="12.210831611715141"><ele>10.666666666666668</ele><time>2026-03-23T10:58:58.999Z</time></trkpt><trkpt lat="45.63641480397574" lon="12.21090420247304"><ele>11.333333333333334</ele><time>2026-03-23T10:58:59.999Z</time></trkpt><trkpt lat="45.636213057911306" lon="12.210929451817856"><ele>12.0</ele><time>2026-03-23T10:59:00.999Z</time></trkpt><trkpt lat="45.63603843237037" lon="12.210938123672964"><ele>12.0</ele><time>2026-03-23T10:59:01.999Z</time></trkpt><trkpt lat="45.635871581684064" lon="12.210930855337788"><ele>12.0</ele><time>2026-03-23T10:59:02.999Z</time></trkpt><trkpt lat="45.6357175856894" lon="12.210915660658523"><ele>12.0</ele><time>2026-03-23T10:59:03.999Z</time></trkpt><trkpt lat="45.635546244773465" lon="12.210932268409389"><ele>12.0</ele><time>2026-03-23T10:59:04.999Z</time></trkpt><trkpt lat="45.6353553519727" lon="12.21093655733702"><ele>12.0</ele><time>2026-03-23T10:59:05.999Z</time></trkpt><trkpt lat="45.63514506883146" lon="12.21094557363159"><ele>12.0</ele><time>2026-03-23T10:59:06.999Z</time></trkpt><trkpt lat="45.63492931945518" lon="12.210957431051172"><ele>12.0</ele><time>2026-03-23T10:59:07.999Z</time></trkpt><trkpt lat="45.63469566662553" lon="12.210974618586912"><ele>12.0</ele><time>2026-03-23T10:59:08.999Z</time></trkpt><trkpt lat="45.63445363951518" lon="12.210985630529525"><ele>12.0</ele><time>2026-03-23T10:59:09.999Z</time></trkpt><trkpt lat="45.63422943585452" lon="12.21100063328705"><ele>12.0</ele><time>2026-03-23T10:59:10.999Z</time></trkpt><trkpt lat="45.634013471821426" lon="12.211010849630807"><ele>12.0</ele><time>2026-03-23T10:59:11.999Z</time></trkpt><trkpt lat="45.633783970321375" lon="12.2110206748274"><ele>11.666666666666666</ele><time>2026-03-23T10:59:12.999Z</time></trkpt><trkpt lat="45.633567704253" lon="12.211030699072404"><ele>11.333333333333332</ele><time>2026-03-23T10:59:13.999Z</time></trkpt><trkpt lat="45.63336387942257" lon="12.211043692529543"><ele>11.0</ele><time>2026-03-23T10:59:14.999Z</time></trkpt><trkpt lat="45.633173551989586" lon="12.211051741768149"><ele>11.0</ele><time>2026-03-23T10:59:15.999Z</time></trkpt><trkpt lat="45.63300285370307" lon="12.211051855376898"><ele>11.0</ele><time>2026-03-23T10:59:16.999Z</time></trkpt><trkpt lat="45.63284840386142" lon="12.211052069443191"><ele>11.0</ele><time>2026-03-23T10:59:17.999Z</time></trkpt><trkpt lat="45.63271489145922" lon="12.21104945714275"><ele>11.0</ele><time>2026-03-23T10:59:18.999Z</time></trkpt><trkpt lat="45.63258688856596" lon="12.211058142508668"><ele>11.0</ele><time>2026-03-23T10:59:19.999Z</time></trkpt><trkpt lat="45.63246242950264" lon="12.211063879558962"><ele>11.0</ele><time>2026-03-23T10:59:20.999Z</time></trkpt><trkpt lat="45.632345316179894" lon="12.211068890232713"><ele>11.0</ele><time>2026-03-23T10:59:21.999Z</time></trkpt><trkpt lat="45.63223742173299" lon="12.211069551102948"><ele>11.0</ele><time>2026-03-23T10:59:22.999Z</time></trkpt><trkpt lat="45.63213143985181" lon="12.211070204912382"><ele>11.0</ele><time>2026-03-23T10:59:23.999Z</time></trkpt><trkpt lat="45.632019127350986" lon="12.211078914854182"><ele>11.0</ele><time>2026-03-23T10:59:24.999Z</time></trkpt><trkpt lat="45.631890783945735" lon="12.211056773255905"><ele>11.0</ele><time>2026-03-23T10:59:25.999Z</time></trkpt><trkpt lat="45.63174614480542" lon="12.211052431689398"><ele>11.0</ele><time>2026-03-23T10:59:26.999Z</time></trkpt><trkpt lat="45.63158534298459" lon="12.211038354743518"><ele>11.0</ele><time>2026-03-23T10:59:27.999Z</time></trkpt><trkpt lat="45.63140826750806" lon="12.211020605088052"><ele>11.0</ele><time>2026-03-23T10:59:28.999Z</time></trkpt><trkpt lat="45.63123300034849" lon="12.211002701142784"><ele>11.0</ele><time>2026-03-23T10:59:29.999Z</time></trkpt><trkpt lat="45.63107808019692" lon="12.21098687568566"><ele>11.0</ele><time>2026-03-23T10:59:30.999Z</time></trkpt><trkpt lat="45.63093429699151" lon="12.210971899714997"><ele>11.0</ele><time>2026-03-23T10:59:31.999Z</time></trkpt><trkpt lat="45.63079463229337" lon="12.210956139564805"><ele>11.0</ele><time>2026-03-23T10:59:32.999Z</time></trkpt><trkpt lat="45.6306619528576" lon="12.210954598250986"><ele>11.0</ele><time>2026-03-23T10:59:33.999Z</time></trkpt><trkpt lat="45.63054945366466" lon="12.210945017473327"><ele>11.0</ele><time>2026-03-23T10:59:34.999Z</time></trkpt><trkpt lat="45.630467564923876" lon="12.210905399116582"><ele>11.0</ele><time>2026-03-23T10:59:35.999Z</time></trkpt><trkpt lat="45.63038574399665" lon="12.21090295881822"><ele>11.0</ele><time>2026-03-23T10:59:36.999Z</time></trkpt><trkpt lat="45.630300125313326" lon="12.210849604544185"><ele>11.0</ele><time>2026-03-23T10:59:37.999Z</time></trkpt><trkpt lat="45.63019089334028" lon="12.210803681415415"><ele>11.25</ele><time>2026-03-23T10:59:38.999Z</time></trkpt><trkpt lat="45.630071945135015" lon="12.210757298702065"><ele>11.5</ele><time>2026-03-23T10:59:39.999Z</time></trkpt><trkpt lat="45.629969343040514" lon="12.210738478415982"><ele>11.75</ele><time>2026-03-23T10:59:40.999Z</time></trkpt><trkpt lat="45.62986543275641" lon="12.21080513129394"><ele>12.0</ele><time>2026-03-23T10:59:41.999Z</time></trkpt><trkpt lat="45.62974563321343" lon="12.210895284934029"><ele>12.0</ele><time>2026-03-23T10:59:42.999Z</time></trkpt><trkpt lat="45.629599332166315" lon="12.211000723591912"><ele>12.0</ele><time>2026-03-23T10:59:43.999Z</time></trkpt><trkpt lat="45.62943284684794" lon="12.211111615106422"><ele>12.0</ele><time>2026-03-23T10:59:44.999Z</time></trkpt><trkpt lat="45.629268355429396" lon="12.211199949878225"><ele>12.0</ele><time>2026-03-23T10:59:45.999Z</time></trkpt><trkpt lat="45.62914338994898" lon="12.211307100389766"><ele>12.0</ele><time>2026-03-23T10:59:46.999Z</time></trkpt><trkpt lat="45.629036440382315" lon="12.211374267801125"><ele>12.0</ele><time>2026-03-23T10:59:47.999Z</time></trkpt><trkpt lat="45.62895974739155" lon="12.211473996986523"><ele>12.0</ele><time>2026-03-23T10:59:48.999Z</time></trkpt><trkpt lat="45.62890699450395" lon="12.211603456317732"><ele>12.0</ele><time>2026-03-23T10:59:49.999Z</time></trkpt><trkpt lat="45.628882637079954" lon="12.211779845719029"><ele>12.0</ele><time>2026-03-23T10:59:50.999Z</time></trkpt><trkpt lat="45.62889165840211" lon="12.211990468355836"><ele>12.0</ele><time>2026-03-23T10:59:51.999Z</time></trkpt><trkpt lat="45.62892149943703" lon="12.212212116337533"><ele>12.0</ele><time>2026-03-23T10:59:52.999Z</time></trkpt><trkpt lat="45.62893556858888" lon="12.212407557008813"><ele>11.6</ele><time>2026-03-23T10:59:53.999Z</time></trkpt><trkpt lat="45.62893786485766" lon="12.21258388044192"><ele>11.2</ele><time>2026-03-23T10:59:54.999Z</time></trkpt><trkpt lat="45.628945740802294" lon="12.21274273375091"><ele>10.8</ele><time>2026-03-23T10:59:55.999Z</time></trkpt><trkpt lat="45.62894085497947" lon="12.212892502410906"><ele>10.4</ele><time>2026-03-23T10:59:56.999Z</time></trkpt><trkpt lat="45.62892911538547" lon="12.213016744977917"><ele>10.0</ele><time>2026-03-23T10:59:57.999Z</time></trkpt><trkpt lat="45.62891147221313" lon="12.21313066640101"><ele>10.2</ele><time>2026-03-23T10:59:58.999Z</time></trkpt><trkpt lat="45.62885622339537" lon="12.213215114140487"><ele>10.4</ele><time>2026-03-23T10:59:59.999Z</time></trkpt><trkpt lat="45.62878900999729" lon="12.213265799415176"><ele>10.600000000000001</ele><time>2026-03-23T11:00:00.999Z</time></trkpt><trkpt lat="45.628697270798256" lon="12.213279306441674"><ele>10.8</ele><time>2026-03-23T11:00:01.999Z</time></trkpt><trkpt lat="45.628600925864056" lon="12.213341427056434"><ele>11.0</ele><time>2026-03-23T11:00:02.999Z</time></trkpt><trkpt lat="45.62850896349667" lon="12.213381292522891"><ele>11.0</ele><time>2026-03-23T11:00:03.999Z</time></trkpt><trkpt lat="45.62845130603294" lon="12.21347004110943"><ele>11.0</ele><time>2026-03-23T11:00:04.999Z</time></trkpt><trkpt lat="45.6284143458327" lon="12.213598657710827"><ele>11.0</ele><time>2026-03-23T11:00:05.999Z</time></trkpt><trkpt lat="45.628376575351574" lon="12.213768583095574"><ele>11.0</ele><time>2026-03-23T11:00:06.998Z</time></trkpt><trkpt lat="45.62834123303055" lon="12.213965375810055"><ele>11.0</ele><time>2026-03-23T11:00:07.998Z</time></trkpt><trkpt lat="45.62830057603273" lon="12.214141539311784"><ele>10.833333333333332</ele><time>2026-03-23T11:00:08.998Z</time></trkpt><trkpt lat="45.628259892631455" lon="12.214288551024662"><ele>10.666666666666666</ele><time>2026-03-23T11:00:09.998Z</time></trkpt><trkpt lat="45.62822839833209" lon="12.214399523673688"><ele>10.5</ele><time>2026-03-23T11:00:10.998Z</time></trkpt><trkpt lat="45.628200596855635" lon="12.214511394036313"><ele>10.333333333333334</ele><time>2026-03-23T11:00:12.998Z</time></trkpt><trkpt lat="45.628171398396105" lon="12.214641652988211"><ele>10.166666666666668</ele><time>2026-03-23T11:01:36.999Z</time></trkpt><trkpt lat="45.62815170203305" lon="12.214732197913754"><ele>10.0</ele><time>2026-03-23T11:01:37.999Z</time></trkpt><trkpt lat="45.628129577466034" lon="12.214829868811359"><ele>10.0</ele><time>2026-03-23T11:01:38.999Z</time></trkpt><trkpt lat="45.628105230360916" lon="12.214933278133197"><ele>10.0</ele><time>2026-03-23T11:01:39.999Z</time></trkpt><trkpt lat="45.62808335266865" lon="12.215030622143184"><ele>10.0</ele><time>2026-03-23T11:01:40.999Z</time></trkpt><trkpt lat="45.62805725430565" lon="12.215159709916701"><ele>10.0</ele><time>2026-03-23T11:01:41.999Z</time></trkpt><trkpt lat="45.62801979802058" lon="12.215331346204387"><ele>10.0</ele><time>2026-03-23T11:01:42.999Z</time></trkpt><trkpt lat="45.62797553918345" lon="12.21552500121853"><ele>10.0</ele><time>2026-03-23T11:01:43.999Z</time></trkpt><trkpt lat="45.627931103704626" lon="12.215703233892748"><ele>10.0</ele><time>2026-03-23T11:01:44.999Z</time></trkpt><trkpt lat="45.62788838871377" lon="12.215874116932609"><ele>10.0</ele><time>2026-03-23T11:01:45.999Z</time></trkpt><trkpt lat="45.62784066480079" lon="12.216045253158109"><ele>10.0</ele><time>2026-03-23T11:01:46.999Z</time></trkpt><trkpt lat="45.62780968518029" lon="12.216229434289467"><ele>10.0</ele><time>2026-03-23T11:01:47.999Z</time></trkpt><trkpt lat="45.62779989378105" lon="12.216425597858763"><ele>10.0</ele><time>2026-03-23T11:01:48.999Z</time></trkpt><trkpt lat="45.62781063250992" lon="12.2166194184118"><ele>10.0</ele><time>2026-03-23T11:01:49.999Z</time></trkpt><trkpt lat="45.627809651153505" lon="12.216799381338237"><ele>10.0</ele><time>2026-03-23T11:01:50.999Z</time></trkpt><trkpt lat="45.62778152800401" lon="12.216960569755082"><ele>10.0</ele><time>2026-03-23T11:01:51.999Z</time></trkpt><trkpt lat="45.6277550218082" lon="12.217090641911945"><ele>10.0</ele><time>2026-03-23T11:01:52.999Z</time></trkpt><trkpt lat="45.627707470104404" lon="12.21718584798153"><ele>10.0</ele><time>2026-03-23T11:01:53.999Z</time></trkpt><trkpt lat="45.62763564352982" lon="12.217242357045793"><ele>10.0</ele><time>2026-03-23T11:01:54.999Z</time></trkpt><trkpt lat="45.62753525924283" lon="12.217280488898876"><ele>10.0</ele><time>2026-03-23T11:01:55.999Z</time></trkpt><trkpt lat="45.62739412589283" lon="12.217309211986107"><ele>10.0</ele><time>2026-03-23T11:01:56.999Z</time></trkpt><trkpt lat="45.627224384393465" lon="12.217332987219178"><ele>10.0</ele><time>2026-03-23T11:01:57.999Z</time></trkpt><trkpt lat="45.62707303229171" lon="12.217372268415973"><ele>10.0</ele><time>2026-03-23T11:01:58.999Z</time></trkpt><trkpt lat="45.62689820266384" lon="12.217414578787126"><ele>10.0</ele><time>2026-03-23T11:01:59.999Z</time></trkpt><trkpt lat="45.62673475029533" lon="12.217452857704163"><ele>10.0</ele><time>2026-03-23T11:02:00.999Z</time></trkpt><trkpt lat="45.62659000273492" lon="12.217495295788495"><ele>10.0</ele><time>2026-03-23T11:02:01.999Z</time></trkpt><trkpt lat="45.6264560518547" lon="12.217543509335906"><ele>10.0</ele><time>2026-03-23T11:02:02.999Z</time></trkpt><trkpt lat="45.62633349227356" lon="12.217561959122383"><ele>10.0</ele><time>2026-03-23T11:02:03.999Z</time></trkpt><trkpt lat="45.62624464397772" lon="12.217587771974179"><ele>10.0</ele><time>2026-03-23T11:02:04.999Z</time></trkpt><trkpt lat="45.62617418050802" lon="12.217607058318132"><ele>10.0</ele><time>2026-03-23T11:02:05.999Z</time></trkpt><trkpt lat="45.626077128244305" lon="12.217556421119083"><ele>10.0</ele><time>2026-03-23T11:02:12.999Z</time></trkpt><trkpt lat="45.62607380600506" lon="12.217379279357182"><ele>10.25</ele><time>2026-03-23T11:02:13.999Z</time></trkpt><trkpt lat="45.62602869155773" lon="12.217222780639332"><ele>10.5</ele><time>2026-03-23T11:02:14.999Z</time></trkpt><trkpt lat="45.625994333762684" lon="12.217075788243987"><ele>10.75</ele><time>2026-03-23T11:02:15.999Z</time></trkpt><trkpt lat="45.62595434015925" lon="12.216868631769449"><ele>11.0</ele><time>2026-03-23T11:02:16.999Z</time></trkpt><trkpt lat="45.625876456364686" lon="12.216635028106632"><ele>11.0</ele><time>2026-03-23T11:02:17.999Z</time></trkpt><trkpt lat="45.62581238089209" lon="12.216389836507327"><ele>11.0</ele><time>2026-03-23T11:02:18.999Z</time></trkpt><trkpt lat="45.62575239768047" lon="12.216248023208973"><ele>11.0</ele><time>2026-03-23T11:02:19.999Z</time></trkpt><trkpt lat="45.62566802521157" lon="12.216039651733478"><ele>11.0</ele><time>2026-03-23T11:02:20.999Z</time></trkpt><trkpt lat="45.625589034259534" lon="12.215858821312025"><ele>11.0</ele><time>2026-03-23T11:02:21.999Z</time></trkpt><trkpt lat="45.625504800355706" lon="12.215712088339728"><ele>11.0</ele><time>2026-03-23T11:02:22.999Z</time></trkpt><trkpt lat="45.62544294455192" lon="12.215566615964548"><ele>11.0</ele><time>2026-03-23T11:02:23.999Z</time></trkpt><trkpt lat="45.6253719732196" lon="12.215460377171683"><ele>11.25</ele><time>2026-03-23T11:02:24.999Z</time></trkpt><trkpt lat="45.62531049214939" lon="12.21534375900623"><ele>11.5</ele><time>2026-03-23T11:02:25.999Z</time></trkpt><trkpt lat="45.62523637949418" lon="12.215232515793723"><ele>11.75</ele><time>2026-03-23T11:02:26.998Z</time></trkpt><trkpt lat="45.62512808051881" lon="12.215143984460681"><ele>12.0</ele><time>2026-03-23T11:02:28Z</time></trkpt><trkpt lat="45.625000684185416" lon="12.215102400542285"><ele>12.0</ele><time>2026-03-23T11:02:29Z</time></trkpt><trkpt lat="45.624866059841494" lon="12.215097458734967"><ele>12.0</ele><time>2026-03-23T11:02:30Z</time></trkpt><trkpt lat="45.62468736956255" lon="12.215092496013197"><ele>12.0</ele><time>2026-03-23T11:02:31Z</time></trkpt><trkpt lat="45.624473689131534" lon="12.215090753703977"><ele>11.5</ele><time>2026-03-23T11:02:32Z</time></trkpt><trkpt lat="45.62422906882847" lon="12.215100227362718"><ele>11.0</ele><time>2026-03-23T11:02:33Z</time></trkpt><trkpt lat="45.623992286096644" lon="12.215109201409993"><ele>11.0</ele><time>2026-03-23T11:02:34Z</time></trkpt><trkpt lat="45.6237641368825" lon="12.21511043459258"><ele>11.0</ele><time>2026-03-23T11:02:35Z</time></trkpt><trkpt lat="45.62356199089272" lon="12.215101162303851"><ele>11.0</ele><time>2026-03-23T11:02:36Z</time></trkpt><trkpt lat="45.62337427961558" lon="12.21506689778327"><ele>11.0</ele><time>2026-03-23T11:02:37Z</time></trkpt><trkpt lat="45.62320223466217" lon="12.215073030458878"><ele>11.0</ele><time>2026-03-23T11:02:38Z</time></trkpt><trkpt lat="45.62304169089246" lon="12.215053452148782"><ele>11.0</ele><time>2026-03-23T11:02:39Z</time></trkpt><trkpt lat="45.62289058168578" lon="12.21504097222827"><ele>11.25</ele><time>2026-03-23T11:02:40Z</time></trkpt><trkpt lat="45.62274827664495" lon="12.215043007865631"><ele>11.5</ele><time>2026-03-23T11:02:41Z</time></trkpt><trkpt lat="45.62262313751097" lon="12.215021116757082"><ele>11.75</ele><time>2026-03-23T11:02:42Z</time></trkpt><trkpt lat="45.622508903866" lon="12.215023144700183"><ele>12.0</ele><time>2026-03-23T11:02:43Z</time></trkpt><trkpt lat="45.622420597372674" lon="12.214980280638727"><ele>12.0</ele><time>2026-03-23T11:02:44Z</time></trkpt><trkpt lat="45.622350294047976" lon="12.214955745738822"><ele>12.0</ele><time>2026-03-23T11:02:45Z</time></trkpt><trkpt lat="45.62230665872164" lon="12.21476003993846"><ele>12.0</ele><time>2026-03-23T11:02:46Z</time></trkpt><trkpt lat="45.6222870999403" lon="12.214639759491725"><ele>12.0</ele><time>2026-03-23T11:02:47Z</time></trkpt><trkpt lat="45.62235776331101" lon="12.214402027935815"><ele>11.666666666666666</ele><time>2026-03-23T11:02:48Z</time></trkpt><trkpt lat="45.62237221088724" lon="12.214125950983817"><ele>11.333333333333332</ele><time>2026-03-23T11:02:49Z</time></trkpt><trkpt lat="45.622379791851664" lon="12.213823692409127"><ele>11.0</ele><time>2026-03-23T11:02:50Z</time></trkpt><trkpt lat="45.62238994274971" lon="12.213534359185639"><ele>11.333333333333332</ele><time>2026-03-23T11:02:51Z</time></trkpt><trkpt lat="45.62240400122001" lon="12.213228194985449"><ele>11.666666666666666</ele><time>2026-03-23T11:02:52Z</time></trkpt><trkpt lat="45.62242683877595" lon="12.212918995954592"><ele>12.0</ele><time>2026-03-23T11:02:53Z</time></trkpt><trkpt lat="45.622446806009116" lon="12.212595687130158"><ele>12.333333333333332</ele><time>2026-03-23T11:02:54Z</time></trkpt><trkpt lat="45.62246495646458" lon="12.212267328889288"><ele>12.666666666666666</ele><time>2026-03-23T11:02:55Z</time></trkpt><trkpt lat="45.622484086131706" lon="12.211968975873752"><ele>13.0</ele><time>2026-03-23T11:02:56Z</time></trkpt><trkpt lat="45.62250112669114" lon="12.211674860797114"><ele>12.666666666666666</ele><time>2026-03-23T11:02:57Z</time></trkpt><trkpt lat="45.622516303912256" lon="12.211385278925304"><ele>12.333333333333332</ele><time>2026-03-23T11:02:58Z</time></trkpt><trkpt lat="45.62252877264833" lon="12.211113132583456"><ele>12.0</ele><time>2026-03-23T11:02:59Z</time></trkpt><trkpt lat="45.62254193234113" lon="12.210852661455958"><ele>11.666666666666666</ele><time>2026-03-23T11:03:00Z</time></trkpt><trkpt lat="45.622553528569846" lon="12.21060264063099"><ele>11.333333333333332</ele><time>2026-03-23T11:03:01Z</time></trkpt><trkpt lat="45.622585924258715" lon="12.2103669304405"><ele>11.0</ele><time>2026-03-23T11:03:02Z</time></trkpt><trkpt lat="45.62260581023329" lon="12.210124522077393"><ele>11.0</ele><time>2026-03-23T11:03:03Z</time></trkpt><trkpt lat="45.622630792131" lon="12.209834668847341"><ele>11.0</ele><time>2026-03-23T11:03:04Z</time></trkpt><trkpt lat="45.622661093744355" lon="12.209499264082176"><ele>11.0</ele><time>2026-03-23T11:03:05Z</time></trkpt><trkpt lat="45.622690973370204" lon="12.209146163721131"><ele>12.0</ele><time>2026-03-23T11:03:06Z</time></trkpt><trkpt lat="45.62271601036821" lon="12.208821558130843"><ele>13.0</ele><time>2026-03-23T11:03:07Z</time></trkpt><trkpt lat="45.622742653683595" lon="12.208496420380513"><ele>13.0</ele><time>2026-03-23T11:03:07.999Z</time></trkpt><trkpt lat="45.622763284193326" lon="12.208186022661858"><ele>13.0</ele><time>2026-03-23T11:03:08.999Z</time></trkpt><trkpt lat="45.62280402777591" lon="12.20790145106025"><ele>13.0</ele><time>2026-03-23T11:03:09.999Z</time></trkpt><trkpt lat="45.62286420693577" lon="12.207639168244842"><ele>13.0</ele><time>2026-03-23T11:03:10.999Z</time></trkpt><trkpt lat="45.62294640783941" lon="12.207371674086318"><ele>13.0</ele><time>2026-03-23T11:03:11.999Z</time></trkpt><trkpt lat="45.62303211315801" lon="12.207092741306186"><ele>13.0</ele><time>2026-03-23T11:03:12.999Z</time></trkpt><trkpt lat="45.62312412337053" lon="12.206796237737985"><ele>12.5</ele><time>2026-03-23T11:03:13.999Z</time></trkpt><trkpt lat="45.62323162090483" lon="12.206492225386846"><ele>12.0</ele><time>2026-03-23T11:03:14.999Z</time></trkpt><trkpt lat="45.623335591800284" lon="12.20620524941993"><ele>12.0</ele><time>2026-03-23T11:03:15.999Z</time></trkpt><trkpt lat="45.62342682636893" lon="12.205935442184499"><ele>12.0</ele><time>2026-03-23T11:03:16.999Z</time></trkpt><trkpt lat="45.623517010068085" lon="12.2056737080338"><ele>12.0</ele><time>2026-03-23T11:03:17.999Z</time></trkpt><trkpt lat="45.62360850910661" lon="12.205412526117492"><ele>12.0</ele><time>2026-03-23T11:03:18.999Z</time></trkpt><trkpt lat="45.6236932125839" lon="12.205159559796137"><ele>12.0</ele><time>2026-03-23T11:03:19.999Z</time></trkpt><trkpt lat="45.62376120971721" lon="12.204907459704161"><ele>12.0</ele><time>2026-03-23T11:03:20.999Z</time></trkpt><trkpt lat="45.62380367054888" lon="12.204637941851301"><ele>12.0</ele><time>2026-03-23T11:03:21.999Z</time></trkpt><trkpt lat="45.623826810945225" lon="12.20432647800029"><ele>12.0</ele><time>2026-03-23T11:03:22.999Z</time></trkpt><trkpt lat="45.62384189438016" lon="12.203995082531266"><ele>11.5</ele><time>2026-03-23T11:03:23.999Z</time></trkpt><trkpt lat="45.62387524931313" lon="12.203671777436577"><ele>11.0</ele><time>2026-03-23T11:03:24.999Z</time></trkpt><trkpt lat="45.62391420798553" lon="12.203358209154214"><ele>11.5</ele><time>2026-03-23T11:03:25.999Z</time></trkpt><trkpt lat="45.62396944331741" lon="12.203042004321341"><ele>12.0</ele><time>2026-03-23T11:03:26.999Z</time></trkpt><trkpt lat="45.62404673425072" lon="12.202718592518385"><ele>12.0</ele><time>2026-03-23T11:03:27.999Z</time></trkpt><trkpt lat="45.62411634603601" lon="12.202393614291168"><ele>12.0</ele><time>2026-03-23T11:03:28.999Z</time></trkpt><trkpt lat="45.624167063633735" lon="12.202065690164439"><ele>12.0</ele><time>2026-03-23T11:03:29.999Z</time></trkpt><trkpt lat="45.62419174998706" lon="12.201727538464667"><ele>12.0</ele><time>2026-03-23T11:03:30.999Z</time></trkpt><trkpt lat="45.62419762599485" lon="12.20135940870757"><ele>12.0</ele><time>2026-03-23T11:03:31.999Z</time></trkpt><trkpt lat="45.62419260212218" lon="12.200946543119818"><ele>12.0</ele><time>2026-03-23T11:03:32.999Z</time></trkpt><trkpt lat="45.624196425948625" lon="12.200524908109289"><ele>12.0</ele><time>2026-03-23T11:03:33.999Z</time></trkpt><trkpt lat="45.62420302435591" lon="12.200116003566743"><ele>12.0</ele><time>2026-03-23T11:03:34.999Z</time></trkpt><trkpt lat="45.62420870617945" lon="12.199730244615191"><ele>12.0</ele><time>2026-03-23T11:03:35.999Z</time></trkpt><trkpt lat="45.624213840440355" lon="12.199340569669726"><ele>12.0</ele><time>2026-03-23T11:03:36.999Z</time></trkpt><trkpt lat="45.62421545653294" lon="12.198938756771579"><ele>12.5</ele><time>2026-03-23T11:03:37.999Z</time></trkpt><trkpt lat="45.624217720521706" lon="12.198526180775051"><ele>13.0</ele><time>2026-03-23T11:03:38.999Z</time></trkpt><trkpt lat="45.624221169351955" lon="12.198098732260956"><ele>13.0</ele><time>2026-03-23T11:03:39.999Z</time></trkpt><trkpt lat="45.62422864437014" lon="12.197649078711851"><ele>13.0</ele><time>2026-03-23T11:03:40.999Z</time></trkpt><trkpt lat="45.62423151438569" lon="12.197180076546351"><ele>13.0</ele><time>2026-03-23T11:03:41.999Z</time></trkpt><trkpt lat="45.62422759568551" lon="12.19668282035125"><ele>13.0</ele><time>2026-03-23T11:03:42.999Z</time></trkpt><trkpt lat="45.62421815223023" lon="12.196164929142796"><ele>13.0</ele><time>2026-03-23T11:03:43.999Z</time></trkpt><trkpt lat="45.62420741742581" lon="12.195638585350116"><ele>13.0</ele><time>2026-03-23T11:03:44.999Z</time></trkpt><trkpt lat="45.62419218026778" lon="12.195154517515551"><ele>12.5</ele><time>2026-03-23T11:03:45.999Z</time></trkpt><trkpt lat="45.624174580941975" lon="12.194734970574988"><ele>12.0</ele><time>2026-03-23T11:03:46.999Z</time></trkpt><trkpt lat="45.62415770723438" lon="12.194343637592686"><ele>12.5</ele><time>2026-03-23T11:03:47.999Z</time></trkpt><trkpt lat="45.62414283506891" lon="12.193995126170865"><ele>13.0</ele><time>2026-03-23T11:03:48.999Z</time></trkpt><trkpt lat="45.6241215301806" lon="12.193680629475256"><ele>13.0</ele><time>2026-03-23T11:03:49.999Z</time></trkpt><trkpt lat="45.62409508433298" lon="12.193378431159992"><ele>13.0</ele><time>2026-03-23T11:03:50.999Z</time></trkpt><trkpt lat="45.62408511443912" lon="12.193088759479577"><ele>13.0</ele><time>2026-03-23T11:03:51.999Z</time></trkpt><trkpt lat="45.62410493238391" lon="12.192786103007151"><ele>12.5</ele><time>2026-03-23T11:03:52.999Z</time></trkpt><trkpt lat="45.62414299333125" lon="12.192453745154838"><ele>12.0</ele><time>2026-03-23T11:03:53.999Z</time></trkpt><trkpt lat="45.62418109412391" lon="12.192132494591213"><ele>12.0</ele><time>2026-03-23T11:03:54.999Z</time></trkpt><trkpt lat="45.6242091993471" lon="12.191844352774673"><ele>12.0</ele><time>2026-03-23T11:03:55.999Z</time></trkpt><trkpt lat="45.62423228654833" lon="12.191589524433454"><ele>12.0</ele><time>2026-03-23T11:03:56.999Z</time></trkpt><trkpt lat="45.624248671448754" lon="12.191351040518843"><ele>12.0</ele><time>2026-03-23T11:03:57.999Z</time></trkpt><trkpt lat="45.624252571912" lon="12.191117695569925"><ele>12.0</ele><time>2026-03-23T11:03:58.999Z</time></trkpt><trkpt lat="45.62426350419687" lon="12.190909963324309"><ele>12.0</ele><time>2026-03-23T11:03:59.999Z</time></trkpt><trkpt lat="45.624277323712235" lon="12.190719175773662"><ele>12.0</ele><time>2026-03-23T11:04:00.999Z</time></trkpt><trkpt lat="45.62428695339464" lon="12.190533771642253"><ele>12.0</ele><time>2026-03-23T11:04:01.999Z</time></trkpt><trkpt lat="45.62429389031933" lon="12.190368700081853"><ele>12.0</ele><time>2026-03-23T11:04:02.999Z</time></trkpt><trkpt lat="45.624296805557314" lon="12.19017507669032"><ele>12.0</ele><time>2026-03-23T11:04:03.999Z</time></trkpt><trkpt lat="45.62429050865685" lon="12.189934341579018"><ele>12.0</ele><time>2026-03-23T11:04:04.999Z</time></trkpt><trkpt lat="45.624292296850534" lon="12.189699278985458"><ele>12.0</ele><time>2026-03-23T11:04:05.999Z</time></trkpt><trkpt lat="45.62429670470972" lon="12.189491691600441"><ele>12.0</ele><time>2026-03-23T11:04:06.999Z</time></trkpt><trkpt lat="45.624301273382635" lon="12.18930137341265"><ele>12.0</ele><time>2026-03-23T11:04:07.999Z</time></trkpt><trkpt lat="45.62430193845415" lon="12.189130454506287"><ele>12.0</ele><time>2026-03-23T11:04:08.999Z</time></trkpt><trkpt lat="45.62430089366432" lon="12.188989423421237"><ele>12.0</ele><time>2026-03-23T11:04:09.999Z</time></trkpt><trkpt lat="45.62428857744703" lon="12.188864771917725"><ele>12.0</ele><time>2026-03-23T11:04:10.999Z</time></trkpt><trkpt lat="45.624264507919136" lon="12.188741966579636"><ele>12.0</ele><time>2026-03-23T11:04:11.999Z</time></trkpt><trkpt lat="45.624224220738846" lon="12.188645993093093"><ele>12.0</ele><time>2026-03-23T11:04:12.999Z</time></trkpt><trkpt lat="45.62418056204867" lon="12.188506709323873"><ele>12.0</ele><time>2026-03-23T11:04:14.999Z</time></trkpt><trkpt lat="45.624033484254795" lon="12.188556760940372"><ele>12.0</ele><time>2026-03-23T11:04:15.999Z</time></trkpt><trkpt lat="45.62391712373309" lon="12.188557838073413"><ele>12.0</ele><time>2026-03-23T11:04:16.999Z</time></trkpt><trkpt lat="45.62376333262715" lon="12.18856345538719"><ele>12.0</ele><time>2026-03-23T11:04:17.999Z</time></trkpt><trkpt lat="45.6235863014136" lon="12.18856677562616"><ele>12.0</ele><time>2026-03-23T11:04:18.999Z</time></trkpt><trkpt lat="45.62338118982888" lon="12.188569127719582"><ele>12.666666666666668</ele><time>2026-03-23T11:04:19.999Z</time></trkpt><trkpt lat="45.62320648195583" lon="12.18857113116539"><ele>13.333333333333334</ele><time>2026-03-23T11:04:20.999Z</time></trkpt><trkpt lat="45.62305685436507" lon="12.188571896519978"><ele>14.0</ele><time>2026-03-23T11:04:21.999Z</time></trkpt><trkpt lat="45.622927632938115" lon="12.188563897472493"><ele>14.333333333333334</ele><time>2026-03-23T11:04:22.999Z</time></trkpt><trkpt lat="45.622811904335215" lon="12.188534763689164"><ele>14.666666666666668</ele><time>2026-03-23T11:04:23.999Z</time></trkpt><trkpt lat="45.6226757867668" lon="12.188459295172299"><ele>15.0</ele><time>2026-03-23T11:04:24.999Z</time></trkpt><trkpt lat="45.62251469666347" lon="12.188321639222949"><ele>15.0</ele><time>2026-03-23T11:04:25.999Z</time></trkpt><trkpt lat="45.62235889099568" lon="12.18818090729569"><ele>15.0</ele><time>2026-03-23T11:04:26.999Z</time></trkpt><trkpt lat="45.62222105281853" lon="12.188088120374767"><ele>15.0</ele><time>2026-03-23T11:04:27.999Z</time></trkpt><trkpt lat="45.622089807861315" lon="12.188017471441603"><ele>14.333333333333332</ele><time>2026-03-23T11:04:28.999Z</time></trkpt><trkpt lat="45.62191885852994" lon="12.187986529194543"><ele>13.666666666666666</ele><time>2026-03-23T11:04:29.999Z</time></trkpt><trkpt lat="45.621708332094414" lon="12.187940828598801"><ele>13.0</ele><time>2026-03-23T11:04:30.999Z</time></trkpt><trkpt lat="45.621481353176" lon="12.187912546225403"><ele>13.0</ele><time>2026-03-23T11:04:31.999Z</time></trkpt><trkpt lat="45.621241614766916" lon="12.187882604782882"><ele>13.0</ele><time>2026-03-23T11:04:32.999Z</time></trkpt><trkpt lat="45.62099536503836" lon="12.187852458610442"><ele>12.5</ele><time>2026-03-23T11:04:34Z</time></trkpt><trkpt lat="45.620743966110794" lon="12.187827870893564"><ele>12.0</ele><time>2026-03-23T11:04:35Z</time></trkpt><trkpt lat="45.6204827921723" lon="12.187834484872678"><ele>12.0</ele><time>2026-03-23T11:04:36Z</time></trkpt><trkpt lat="45.62021391710581" lon="12.187850534438061"><ele>12.0</ele><time>2026-03-23T11:04:37Z</time></trkpt><trkpt lat="45.61992473471465" lon="12.187865149450271"><ele>12.0</ele><time>2026-03-23T11:04:38Z</time></trkpt><trkpt lat="45.619642626233826" lon="12.187879406956357"><ele>12.0</ele><time>2026-03-23T11:04:39Z</time></trkpt><trkpt lat="45.61938849596024" lon="12.187886715526364"><ele>12.5</ele><time>2026-03-23T11:04:40Z</time></trkpt><trkpt lat="45.61915343035587" lon="12.187892809310876"><ele>13.0</ele><time>2026-03-23T11:04:41Z</time></trkpt><trkpt lat="45.61893206219338" lon="12.187891630002415"><ele>13.0</ele><time>2026-03-23T11:04:42Z</time></trkpt><trkpt lat="45.618730356699594" lon="12.187880054226818"><ele>13.0</ele><time>2026-03-23T11:04:43Z</time></trkpt><trkpt lat="45.61854304168208" lon="12.187866707709443"><ele>13.0</ele><time>2026-03-23T11:04:44Z</time></trkpt><trkpt lat="45.61837559096164" lon="12.187854776540124"><ele>13.0</ele><time>2026-03-23T11:04:45Z</time></trkpt><trkpt lat="45.618238777512445" lon="12.187845028316763"><ele>13.0</ele><time>2026-03-23T11:04:46Z</time></trkpt><trkpt lat="45.61812651533749" lon="12.187816536329946"><ele>13.0</ele><time>2026-03-23T11:04:47Z</time></trkpt><trkpt lat="45.61801952847814" lon="12.18777252611973"><ele>13.0</ele><time>2026-03-23T11:04:48Z</time></trkpt><trkpt lat="45.61793756109338" lon="12.187647138669522"><ele>13.0</ele><time>2026-03-23T11:04:49Z</time></trkpt><trkpt lat="45.61780914907714" lon="12.187458183064201"><ele>13.0</ele><time>2026-03-23T11:04:50Z</time></trkpt><trkpt lat="45.61768263943057" lon="12.18727683962237"><ele>13.0</ele><time>2026-03-23T11:04:51Z</time></trkpt><trkpt lat="45.617572678939304" lon="12.187129720974495"><ele>12.666666666666666</ele><time>2026-03-23T11:04:52Z</time></trkpt><trkpt lat="45.617464950036826" lon="12.187027933558804"><ele>12.333333333333332</ele><time>2026-03-23T11:04:53Z</time></trkpt><trkpt lat="45.61733911667907" lon="12.186929851477434"><ele>12.0</ele><time>2026-03-23T11:04:54Z</time></trkpt><trkpt lat="45.6171602574548" lon="12.186876810308412"><ele>12.0</ele><time>2026-03-23T11:04:55Z</time></trkpt><trkpt lat="45.61696493013562" lon="12.186822260493338"><ele>12.0</ele><time>2026-03-23T11:04:56Z</time></trkpt><trkpt lat="45.61675353236831" lon="12.1868103049889"><ele>12.0</ele><time>2026-03-23T11:04:57Z</time></trkpt><trkpt lat="45.616558009872946" lon="12.186804770800922"><ele>12.0</ele><time>2026-03-23T11:04:58Z</time></trkpt><trkpt lat="45.616359738687414" lon="12.186783921957783"><ele>12.0</ele><time>2026-03-23T11:04:59Z</time></trkpt><trkpt lat="45.61616158047436" lon="12.186718260501022"><ele>12.0</ele><time>2026-03-23T11:05:00Z</time></trkpt><trkpt lat="45.61592181660529" lon="12.186616818076029"><ele>12.0</ele><time>2026-03-23T11:05:01Z</time></trkpt><trkpt lat="45.615692300408774" lon="12.186519888576546"><ele>12.0</ele><time>2026-03-23T11:05:02Z</time></trkpt><trkpt lat="45.61549826119773" lon="12.186437941678365"><ele>12.0</ele><time>2026-03-23T11:05:03Z</time></trkpt><trkpt lat="45.61530970776891" lon="12.186378557422808"><ele>12.0</ele><time>2026-03-23T11:05:04Z</time></trkpt><trkpt lat="45.61510708627171" lon="12.186358471380462"><ele>12.0</ele><time>2026-03-23T11:05:05Z</time></trkpt><trkpt lat="45.614887777041105" lon="12.186339335869889"><ele>12.0</ele><time>2026-03-23T11:05:06Z</time></trkpt><trkpt lat="45.614682527084184" lon="12.186289298834769"><ele>12.0</ele><time>2026-03-23T11:05:07Z</time></trkpt><trkpt lat="45.614536813885415" lon="12.186270446040275"><ele>12.0</ele><time>2026-03-23T11:05:07.999Z</time></trkpt><trkpt lat="45.6144238777031" lon="12.186251450986713"><ele>12.0</ele><time>2026-03-23T11:05:08.999Z</time></trkpt><trkpt lat="45.614337349322334" lon="12.186222530573081"><ele>12.0</ele><time>2026-03-23T11:05:09.999Z</time></trkpt><trkpt lat="45.61427795290196" lon="12.186175325609122"><ele>12.0</ele><time>2026-03-23T11:05:10.999Z</time></trkpt><trkpt lat="45.614238891873875" lon="12.186030388457509"><ele>12.2</ele><time>2026-03-23T11:05:12.999Z</time></trkpt><trkpt lat="45.61424402949921" lon="12.185823973378312"><ele>12.399999999999999</ele><time>2026-03-23T11:05:14.999Z</time></trkpt><trkpt lat="45.614225286383984" lon="12.18568461572633"><ele>12.600000000000001</ele><time>2026-03-23T11:05:15.999Z</time></trkpt><trkpt lat="45.61422003182882" lon="12.185578886728468"><ele>12.8</ele><time>2026-03-23T11:05:16.999Z</time></trkpt><trkpt lat="45.614187238384915" lon="12.185496751458867"><ele>13.0</ele><time>2026-03-23T11:05:17.999Z</time></trkpt><trkpt lat="45.61412693013393" lon="12.185446520787172"><ele>12.5</ele><time>2026-03-23T11:05:18.999Z</time></trkpt><trkpt lat="45.614048336647656" lon="12.185422825422064"><ele>12.0</ele><time>2026-03-23T11:05:19.999Z</time></trkpt><trkpt lat="45.61391625857937" lon="12.185397127700773"><ele>11.5</ele><time>2026-03-23T11:05:20.999Z</time></trkpt><trkpt lat="45.61375119184823" lon="12.185386616477981"><ele>11.0</ele><time>2026-03-23T11:05:21.999Z</time></trkpt><trkpt lat="45.61359074894109" lon="12.185387931282579"><ele>11.0</ele><time>2026-03-23T11:05:22.999Z</time></trkpt><trkpt lat="45.61343326904583" lon="12.185432945905927"><ele>11.0</ele><time>2026-03-23T11:05:23.999Z</time></trkpt><trkpt lat="45.61324286326545" lon="12.185499329755686"><ele>11.0</ele><time>2026-03-23T11:05:24.999Z</time></trkpt><trkpt lat="45.613064600545115" lon="12.185603807271919"><ele>11.0</ele><time>2026-03-23T11:05:25.999Z</time></trkpt><trkpt lat="45.61293190455863" lon="12.185701388524361"><ele>11.0</ele><time>2026-03-23T11:05:26.999Z</time></trkpt><trkpt lat="45.612818330159165" lon="12.185827691256325"><ele>11.0</ele><time>2026-03-23T11:05:27.999Z</time></trkpt><trkpt lat="45.612673626268965" lon="12.185961491464814"><ele>11.0</ele><time>2026-03-23T11:05:28.999Z</time></trkpt><trkpt lat="45.61254101415045" lon="12.18607991370895"><ele>11.0</ele><time>2026-03-23T11:05:29.999Z</time></trkpt><trkpt lat="45.61237936260173" lon="12.186141494825081"><ele>11.0</ele><time>2026-03-23T11:05:30.999Z</time></trkpt><trkpt lat="45.61218760562969" lon="12.186161334649041"><ele>11.5</ele><time>2026-03-23T11:05:31.999Z</time></trkpt><trkpt lat="45.611957440106025" lon="12.186175651688371"><ele>12.0</ele><time>2026-03-23T11:05:32.999Z</time></trkpt><trkpt lat="45.61173440965182" lon="12.186229891011283"><ele>12.0</ele><time>2026-03-23T11:05:33.999Z</time></trkpt><trkpt lat="45.61150184553994" lon="12.186312854227136"><ele>12.0</ele><time>2026-03-23T11:05:34.999Z</time></trkpt><trkpt lat="45.61127658794935" lon="12.186397282272948"><ele>11.666666666666666</ele><time>2026-03-23T11:05:35.999Z</time></trkpt><trkpt lat="45.611094673974236" lon="12.186458636856798"><ele>11.333333333333332</ele><time>2026-03-23T11:05:36.999Z</time></trkpt><trkpt lat="45.610889383996465" lon="12.186447784087534"><ele>11.0</ele><time>2026-03-23T11:05:37.999Z</time></trkpt><trkpt lat="45.61063332105905" lon="12.186416891111225"><ele>11.0</ele><time>2026-03-23T11:05:38.999Z</time></trkpt><trkpt lat="45.61040599380516" lon="12.186396587894262"><ele>11.0</ele><time>2026-03-23T11:05:39.999Z</time></trkpt><trkpt lat="45.61018307897007" lon="12.186373846961684"><ele>11.333333333333332</ele><time>2026-03-23T11:05:40.999Z</time></trkpt><trkpt lat="45.60998249183353" lon="12.186351956377608"><ele>11.666666666666666</ele><time>2026-03-23T11:05:41.999Z</time></trkpt><trkpt lat="45.60978583563931" lon="12.186333750052084"><ele>12.0</ele><time>2026-03-23T11:05:42.999Z</time></trkpt><trkpt lat="45.6095988362781" lon="12.186304115092025"><ele>12.333333333333332</ele><time>2026-03-23T11:05:43.999Z</time></trkpt><trkpt lat="45.60941393342625" lon="12.186261031574258"><ele>12.666666666666666</ele><time>2026-03-23T11:05:44.999Z</time></trkpt><trkpt lat="45.60921279883141" lon="12.186215145322675"><ele>13.0</ele><time>2026-03-23T11:05:45.999Z</time></trkpt><trkpt lat="45.60899273472214" lon="12.186213213568205"><ele>13.0</ele><time>2026-03-23T11:05:46.999Z</time></trkpt><trkpt lat="45.60877326952922" lon="12.186169539741218"><ele>13.0</ele><time>2026-03-23T11:05:47.999Z</time></trkpt><trkpt lat="45.608581491364525" lon="12.186167523076769"><ele>13.0</ele><time>2026-03-23T11:05:48.999Z</time></trkpt><trkpt lat="45.608408493063884" lon="12.186172463780487"><ele>12.600000000000001</ele><time>2026-03-23T11:05:49.999Z</time></trkpt><trkpt lat="45.608260567153565" lon="12.186176688433642"><ele>12.200000000000001</ele><time>2026-03-23T11:05:50.999Z</time></trkpt><trkpt lat="45.60814540905394" lon="12.186179555232368"><ele>11.8</ele><time>2026-03-23T11:05:51.999Z</time></trkpt><trkpt lat="45.60806100033445" lon="12.18618111195288"><ele>11.4</ele><time>2026-03-23T11:05:52.999Z</time></trkpt><trkpt lat="45.607992445064795" lon="12.186180795674133"><ele>11.0</ele><time>2026-03-23T11:05:53.999Z</time></trkpt><trkpt lat="45.60797305020094" lon="12.185989357308957"><ele>11.0</ele><time>2026-03-23T11:05:56.999Z</time></trkpt><trkpt lat="45.607969279094604" lon="12.18584202224821"><ele>11.0</ele><time>2026-03-23T11:05:57.999Z</time></trkpt><trkpt lat="45.60798841149463" lon="12.185621860901433"><ele>11.0</ele><time>2026-03-23T11:05:58.999Z</time></trkpt><trkpt lat="45.60799298060806" lon="12.185360127566867"><ele>11.0</ele><time>2026-03-23T11:05:59.999Z</time></trkpt><trkpt lat="45.60800172621398" lon="12.18510528054714"><ele>11.333333333333332</ele><time>2026-03-23T11:06:00.999Z</time></trkpt><trkpt lat="45.60800998599844" lon="12.18485694542777"><ele>11.666666666666666</ele><time>2026-03-23T11:06:01.999Z</time></trkpt><trkpt lat="45.60801877601053" lon="12.184547092273963"><ele>12.0</ele><time>2026-03-23T11:06:02.999Z</time></trkpt><trkpt lat="45.608020749736966" lon="12.184217052632118"><ele>12.333333333333332</ele><time>2026-03-23T11:06:03.999Z</time></trkpt><trkpt lat="45.60803125382657" lon="12.183907649386088"><ele>12.666666666666666</ele><time>2026-03-23T11:06:04.999Z</time></trkpt><trkpt lat="45.608041885731716" lon="12.183648171993056"><ele>13.0</ele><time>2026-03-23T11:06:05.999Z</time></trkpt><trkpt lat="45.60803541965265" lon="12.183427656612935"><ele>13.0</ele><time>2026-03-23T11:06:06.999Z</time></trkpt><trkpt lat="45.608056412298986" lon="12.183234223685561"><ele>13.0</ele><time>2026-03-23T11:06:07.999Z</time></trkpt><trkpt lat="45.608077105767215" lon="12.183082251370895"><ele>13.0</ele><time>2026-03-23T11:06:08.999Z</time></trkpt><trkpt lat="45.608113203574" lon="12.182947788274479"><ele>13.0</ele><time>2026-03-23T11:06:09.999Z</time></trkpt><trkpt lat="45.608209530791385" lon="12.18283744523478"><ele>13.0</ele><time>2026-03-23T11:06:10.999Z</time></trkpt><trkpt lat="45.608330717742305" lon="12.182752464989681"><ele>13.0</ele><time>2026-03-23T11:06:11.999Z</time></trkpt><trkpt lat="45.60844582282441" lon="12.182708946107502"><ele>13.0</ele><time>2026-03-23T11:06:12.999Z</time></trkpt><trkpt lat="45.608524074049654" lon="12.182636732756846"><ele>13.0</ele><time>2026-03-23T11:06:13.999Z</time></trkpt><trkpt lat="45.60857007428224" lon="12.182499790845695"><ele>12.666666666666666</ele><time>2026-03-23T11:06:14.999Z</time></trkpt><trkpt lat="45.60858787297534" lon="12.182315620612444"><ele>12.333333333333332</ele><time>2026-03-23T11:06:15.999Z</time></trkpt><trkpt lat="45.60859310453288" lon="12.182072751070693"><ele>12.0</ele><time>2026-03-23T11:06:16.999Z</time></trkpt><trkpt lat="45.60859814294865" lon="12.181772083403661"><ele>12.5</ele><time>2026-03-23T11:06:17.999Z</time></trkpt><trkpt lat="45.608623547597375" lon="12.181432125931122"><ele>13.0</ele><time>2026-03-23T11:06:18.999Z</time></trkpt><trkpt lat="45.60865401368069" lon="12.181091245281582"><ele>13.0</ele><time>2026-03-23T11:06:19.999Z</time></trkpt><trkpt lat="45.60867506747267" lon="12.180745168018994"><ele>13.0</ele><time>2026-03-23T11:06:20.999Z</time></trkpt><trkpt lat="45.608700888340884" lon="12.180379087305825"><ele>13.0</ele><time>2026-03-23T11:06:21.999Z</time></trkpt><trkpt lat="45.60872320513706" lon="12.180006630616028"><ele>13.0</ele><time>2026-03-23T11:06:22.999Z</time></trkpt><trkpt lat="45.608742187044605" lon="12.1796082810423"><ele>13.0</ele><time>2026-03-23T11:06:23.999Z</time></trkpt><trkpt lat="45.60875915693041" lon="12.179179274341708"><ele>13.0</ele><time>2026-03-23T11:06:24.999Z</time></trkpt><trkpt lat="45.60875948381821" lon="12.178756915796422"><ele>13.0</ele><time>2026-03-23T11:06:25.999Z</time></trkpt><trkpt lat="45.60876705208008" lon="12.178312363665357"><ele>13.0</ele><time>2026-03-23T11:06:26.999Z</time></trkpt><trkpt lat="45.608742056465786" lon="12.177873432055272"><ele>12.5</ele><time>2026-03-23T11:06:27.999Z</time></trkpt><trkpt lat="45.60873884093489" lon="12.177476074520452"><ele>12.0</ele><time>2026-03-23T11:06:28.999Z</time></trkpt><trkpt lat="45.608730203417466" lon="12.177120841255347"><ele>12.0</ele><time>2026-03-23T11:06:29.998Z</time></trkpt><trkpt lat="45.60872224479629" lon="12.17679082364214"><ele>12.0</ele><time>2026-03-23T11:06:30.998Z</time></trkpt><trkpt lat="45.60871676612504" lon="12.176477776633483"><ele>12.0</ele><time>2026-03-23T11:06:31.998Z</time></trkpt><trkpt lat="45.60870581766819" lon="12.176178485992343"><ele>12.0</ele><time>2026-03-23T11:06:32.998Z</time></trkpt><trkpt lat="45.6086868214976" lon="12.175899512600303"><ele>12.0</ele><time>2026-03-23T11:06:33.998Z</time></trkpt><trkpt lat="45.6086845684213" lon="12.175635545473394"><ele>12.333333333333332</ele><time>2026-03-23T11:06:34.998Z</time></trkpt><trkpt lat="45.60867604507812" lon="12.175395121923598"><ele>12.666666666666666</ele><time>2026-03-23T11:06:35.998Z</time></trkpt><trkpt lat="45.60868391577432" lon="12.175172961586128"><ele>13.0</ele><time>2026-03-23T11:06:36.998Z</time></trkpt><trkpt lat="45.60872545408256" lon="12.174971299522078"><ele>13.0</ele><time>2026-03-23T11:06:37.998Z</time></trkpt><trkpt lat="45.608798862337224" lon="12.17476934374296"><ele>13.0</ele><time>2026-03-23T11:06:38.998Z</time></trkpt><trkpt lat="45.60890300460923" lon="12.174576527083566"><ele>13.0</ele><time>2026-03-23T11:06:40Z</time></trkpt><trkpt lat="45.609046731476774" lon="12.174388806234132"><ele>13.0</ele><time>2026-03-23T11:06:41Z</time></trkpt><trkpt lat="45.609212846703734" lon="12.174236899600668"><ele>13.0</ele><time>2026-03-23T11:06:42Z</time></trkpt><trkpt lat="45.60936668562831" lon="12.174137657175612"><ele>13.0</ele><time>2026-03-23T11:06:43Z</time></trkpt><trkpt lat="45.60950120364538" lon="12.174046645209598"><ele>13.333333333333332</ele><time>2026-03-23T11:06:44Z</time></trkpt><trkpt lat="45.60959948476457" lon="12.173924507912313"><ele>13.666666666666668</ele><time>2026-03-23T11:06:45Z</time></trkpt><trkpt lat="45.609671437437356" lon="12.173743976802823"><ele>14.0</ele><time>2026-03-23T11:06:46Z</time></trkpt><trkpt lat="45.609723672913546" lon="12.173504942004964"><ele>14.0</ele><time>2026-03-23T11:06:47Z</time></trkpt><trkpt lat="45.60975897791243" lon="12.173210396126617"><ele>14.0</ele><time>2026-03-23T11:06:48Z</time></trkpt><trkpt lat="45.60979029601995" lon="12.172875541759145"><ele>14.0</ele><time>2026-03-23T11:06:49Z</time></trkpt><trkpt lat="45.60983502111252" lon="12.17252535951227"><ele>13.5</ele><time>2026-03-23T11:06:50Z</time></trkpt><trkpt lat="45.60989820587746" lon="12.172185810086074"><ele>13.0</ele><time>2026-03-23T11:06:51Z</time></trkpt><trkpt lat="45.60993589503463" lon="12.171894800500976"><ele>13.0</ele><time>2026-03-23T11:06:52Z</time></trkpt><trkpt lat="45.60998089772911" lon="12.171596416442656"><ele>13.0</ele><time>2026-03-23T11:06:53Z</time></trkpt><trkpt lat="45.61002137603107" lon="12.171327676026127"><ele>13.0</ele><time>2026-03-23T11:06:54Z</time></trkpt><trkpt lat="45.61009206486385" lon="12.171089153450932"><ele>13.0</ele><time>2026-03-23T11:06:55Z</time></trkpt><trkpt lat="45.61018489859014" lon="12.17087929228081"><ele>13.0</ele><time>2026-03-23T11:06:56Z</time></trkpt><trkpt lat="45.61026225994821" lon="12.170698016075896"><ele>13.0</ele><time>2026-03-23T11:06:57Z</time></trkpt><trkpt lat="45.6103206089581" lon="12.170550339806246"><ele>13.0</ele><time>2026-03-23T11:06:58Z</time></trkpt><trkpt lat="45.6103567997985" lon="12.170409595884612"><ele>12.857142857142856</ele><time>2026-03-23T11:06:59Z</time></trkpt><trkpt lat="45.61035725756816" lon="12.170295458455943"><ele>12.714285714285715</ele><time>2026-03-23T11:07:00Z</time></trkpt><trkpt lat="45.61035135941523" lon="12.170197300373234"><ele>12.571428571428571</ele><time>2026-03-23T11:07:01Z</time></trkpt><trkpt lat="45.610328878244154" lon="12.170113183976778"><ele>12.428571428571427</ele><time>2026-03-23T11:07:02Z</time></trkpt><trkpt lat="45.61037756760032" lon="12.170020527529575"><ele>12.285714285714285</ele><time>2026-03-23T11:07:03Z</time></trkpt><trkpt lat="45.61036996710299" lon="12.169914250959355"><ele>12.142857142857142</ele><time>2026-03-23T11:07:04Z</time></trkpt><trkpt lat="45.61032316153837" lon="12.169821117984911"><ele>12.0</ele><time>2026-03-23T11:07:05Z</time></trkpt><trkpt lat="45.6102305040686" lon="12.169786756953872"><ele>12.399999999999999</ele><time>2026-03-23T11:07:06Z</time></trkpt><trkpt lat="45.6101386148225" lon="12.16982729745096"><ele>12.799999999999999</ele><time>2026-03-23T11:07:07Z</time></trkpt><trkpt lat="45.61008018644107" lon="12.169952595501966"><ele>13.2</ele><time>2026-03-23T11:07:08Z</time></trkpt><trkpt lat="45.61004375366062" lon="12.170071681579484"><ele>13.6</ele><time>2026-03-23T11:07:09Z</time></trkpt><trkpt lat="45.610003865565616" lon="12.17019732247695"><ele>14.0</ele><time>2026-03-23T11:07:10Z</time></trkpt><trkpt lat="45.609909692914286" lon="12.170306273714052"><ele>14.0</ele><time>2026-03-23T11:07:10.999Z</time></trkpt><trkpt lat="45.60974303336285" lon="12.170375285263637"><ele>14.0</ele><time>2026-03-23T11:07:11.999Z</time></trkpt><trkpt lat="45.60955397809285" lon="12.170506065882142"><ele>14.0</ele><time>2026-03-23T11:07:12.999Z</time></trkpt><trkpt lat="45.60937442045951" lon="12.170653069194847"><ele>13.666666666666668</ele><time>2026-03-23T11:07:13.999Z</time></trkpt><trkpt lat="45.609189110850586" lon="12.170755094268014"><ele>13.333333333333332</ele><time>2026-03-23T11:07:14.999Z</time></trkpt><trkpt lat="45.60897661342137" lon="12.170900104987162"><ele>13.0</ele><time>2026-03-23T11:07:15.999Z</time></trkpt><trkpt lat="45.60873731726501" lon="12.171063651461148"><ele>12.5</ele><time>2026-03-23T11:07:16.999Z</time></trkpt><trkpt lat="45.6084712516255" lon="12.171245493486145"><ele>12.0</ele><time>2026-03-23T11:07:17.999Z</time></trkpt><trkpt lat="45.60819326734354" lon="12.171462586755581"><ele>12.0</ele><time>2026-03-23T11:07:18.999Z</time></trkpt><trkpt lat="45.60789270310783" lon="12.171665610915836"><ele>12.0</ele><time>2026-03-23T11:07:19.999Z</time></trkpt><trkpt lat="45.60758188259299" lon="12.171851660420334"><ele>12.0</ele><time>2026-03-23T11:07:20.999Z</time></trkpt><trkpt lat="45.607263599305796" lon="12.17206738961863"><ele>12.0</ele><time>2026-03-23T11:07:21.999Z</time></trkpt><trkpt lat="45.60694891910322" lon="12.172282266880943"><ele>12.5</ele><time>2026-03-23T11:07:22.999Z</time></trkpt><trkpt lat="45.606662683608995" lon="12.17250327739707"><ele>13.0</ele><time>2026-03-23T11:07:23.999Z</time></trkpt><trkpt lat="45.606397493328096" lon="12.172684199629915"><ele>13.0</ele><time>2026-03-23T11:07:24.999Z</time></trkpt><trkpt lat="45.606162248832256" lon="12.172841505662971"><ele>13.0</ele><time>2026-03-23T11:07:25.999Z</time></trkpt><trkpt lat="45.60594509536126" lon="12.17299043350386"><ele>13.0</ele><time>2026-03-23T11:07:26.999Z</time></trkpt><trkpt lat="45.60575306342803" lon="12.173123836927196"><ele>13.0</ele><time>2026-03-23T11:07:27.999Z</time></trkpt><trkpt lat="45.605569326911386" lon="12.173223231827693"><ele>13.0</ele><time>2026-03-23T11:07:28.999Z</time></trkpt><trkpt lat="45.605409291712704" lon="12.17335617366459"><ele>12.666666666666666</ele><time>2026-03-23T11:07:29.999Z</time></trkpt><trkpt lat="45.60525851863818" lon="12.173433753402403"><ele>12.333333333333332</ele><time>2026-03-23T11:07:30.999Z</time></trkpt><trkpt lat="45.605123170738075" lon="12.173552547516636"><ele>12.0</ele><time>2026-03-23T11:07:31.999Z</time></trkpt><trkpt lat="45.60499962743334" lon="12.173628573379256"><ele>12.0</ele><time>2026-03-23T11:07:32.999Z</time></trkpt><trkpt lat="45.60489969316121" lon="12.173694476880202"><ele>12.0</ele><time>2026-03-23T11:07:33.999Z</time></trkpt><trkpt lat="45.60481653506561" lon="12.173753255454768"><ele>12.0</ele><time>2026-03-23T11:07:34.999Z</time></trkpt><trkpt lat="45.604746454794494" lon="12.17378444514997"><ele>12.0</ele><time>2026-03-23T11:07:35.999Z</time></trkpt><trkpt lat="45.604683257180525" lon="12.173827749676025"><ele>12.0</ele><time>2026-03-23T11:07:37.999Z</time></trkpt><trkpt lat="45.604758639645006" lon="12.173993481970946"><ele>12.0</ele><time>2026-03-23T11:07:40.999Z</time></trkpt><trkpt lat="45.60486256288612" lon="12.174050364760523"><ele>12.0</ele><time>2026-03-23T11:07:42.999Z</time></trkpt><trkpt lat="45.60495068833409" lon="12.17413116588371"><ele>12.0</ele><time>2026-03-23T11:07:44.999Z</time></trkpt><trkpt lat="45.60501325423805" lon="12.174160290574775"><ele>12.0</ele><time>2026-03-23T11:07:46.999Z</time></trkpt><trkpt lat="45.6050782111906" lon="12.174015103584038"><ele>12.0</ele><time>2026-03-23T11:09:51.999Z</time></trkpt><trkpt lat="45.605138482627304" lon="12.174178842616083"><ele>12.0</ele><time>2026-03-23T11:09:58.999Z</time></trkpt><trkpt lat="45.60515381100475" lon="12.173948398817847"><ele>12.0</ele><time>2026-03-23T11:10:02.999Z</time></trkpt><trkpt lat="45.60515530406463" lon="12.174178274625175"><ele>12.0</ele><time>2026-03-23T11:10:06.999Z</time></trkpt><trkpt lat="45.60514411986788" lon="12.173926589318382"><ele>12.0</ele><time>2026-03-23T11:10:19.999Z</time></trkpt><trkpt lat="45.60506720613439" lon="12.173930473167179"><ele>12.0</ele><time>2026-03-23T11:10:44.998Z</time></trkpt><trkpt lat="45.60515636027751" lon="12.173915649398245"><ele>12.0</ele><time>2026-03-23T11:12:16.999Z</time></trkpt><trkpt lat="45.60514311607109" lon="12.17381700991588"><ele>12.0</ele><time>2026-03-23T11:12:26.999Z</time></trkpt><trkpt lat="45.60516927304528" lon="12.173723983831511"><ele>12.0</ele><time>2026-03-23T11:12:29.999Z</time></trkpt><trkpt lat="45.605227732908205" lon="12.173650217600782"><ele>12.0</ele><time>2026-03-23T11:12:31.999Z</time></trkpt><trkpt lat="45.60522198736299" lon="12.173554822144169"><ele>12.0</ele><time>2026-03-23T11:12:36.998Z</time></trkpt><trkpt lat="45.6051193110119" lon="12.173526701776298"><ele>12.0</ele><time>2026-03-23T11:12:39.998Z</time></trkpt><trkpt lat="45.60505094298445" lon="12.17358777703493"><ele>12.0</ele><time>2026-03-23T11:12:40.998Z</time></trkpt><trkpt lat="45.604980944708984" lon="12.173647148057839"><ele>12.0</ele><time>2026-03-23T11:12:41.998Z</time></trkpt><trkpt lat="45.604917234930376" lon="12.173695526501325"><ele>12.0</ele><time>2026-03-23T11:12:42.998Z</time></trkpt><trkpt lat="45.60484825282486" lon="12.173743350113714"><ele>12.0</ele><time>2026-03-23T11:12:43.998Z</time></trkpt><trkpt lat="45.60476864392583" lon="12.173793133606022"><ele>12.0</ele><time>2026-03-23T11:12:44.998Z</time></trkpt><trkpt lat="45.604678836417214" lon="12.173851212721104"><ele>12.0</ele><time>2026-03-23T11:12:45.998Z</time></trkpt><trkpt lat="45.60459609843477" lon="12.173906016079487"><ele>12.0</ele><time>2026-03-23T11:12:46.998Z</time></trkpt><trkpt lat="45.60451415145704" lon="12.173962568658562"><ele>12.0</ele><time>2026-03-23T11:12:47.998Z</time></trkpt><trkpt lat="45.60442427108706" lon="12.17402531100643"><ele>12.0</ele><time>2026-03-23T11:12:48.998Z</time></trkpt><trkpt lat="45.604325593587134" lon="12.174087474970463"><ele>12.0</ele><time>2026-03-23T11:12:49.998Z</time></trkpt><trkpt lat="45.60422505806823" lon="12.17415058947731"><ele>12.0</ele><time>2026-03-23T11:12:50.998Z</time></trkpt><trkpt lat="45.60412748536345" lon="12.174216568255977"><ele>12.0</ele><time>2026-03-23T11:12:51.998Z</time></trkpt><trkpt lat="45.604027482803474" lon="12.174288977121327"><ele>12.0</ele><time>2026-03-23T11:12:52.998Z</time></trkpt><trkpt lat="45.60392294718666" lon="12.174367051427552"><ele>12.0</ele><time>2026-03-23T11:12:53.998Z</time></trkpt><trkpt lat="45.60380477439729" lon="12.174426771928525"><ele>12.0</ele><time>2026-03-23T11:12:54.998Z</time></trkpt><trkpt lat="45.60369671481686" lon="12.1745241243917"><ele>12.0</ele><time>2026-03-23T11:12:55.998Z</time></trkpt><trkpt lat="45.60357957130565" lon="12.17460594344677"><ele>12.0</ele><time>2026-03-23T11:12:57Z</time></trkpt><trkpt lat="45.60347149270267" lon="12.174690837245132"><ele>12.0</ele><time>2026-03-23T11:12:58Z</time></trkpt><trkpt lat="45.603366372122615" lon="12.174780819183916"><ele>11.75</ele><time>2026-03-23T11:12:59Z</time></trkpt><trkpt lat="45.60325822051064" lon="12.174875961374456"><ele>11.5</ele><time>2026-03-23T11:13:00Z</time></trkpt><trkpt lat="45.60314543452079" lon="12.174980431213694"><ele>11.25</ele><time>2026-03-23T11:13:01Z</time></trkpt><trkpt lat="45.60302910491083" lon="12.17508947077415"><ele>11.0</ele><time>2026-03-23T11:13:02Z</time></trkpt><trkpt lat="45.60291338714721" lon="12.175205434741963"><ele>11.5</ele><time>2026-03-23T11:13:03Z</time></trkpt><trkpt lat="45.60279826044041" lon="12.175333209195559"><ele>12.0</ele><time>2026-03-23T11:13:04Z</time></trkpt><trkpt lat="45.60269092379816" lon="12.175458332369628"><ele>12.5</ele><time>2026-03-23T11:13:05Z</time></trkpt><trkpt lat="45.60258744382953" lon="12.175582392089275"><ele>13.0</ele><time>2026-03-23T11:13:06Z</time></trkpt><trkpt lat="45.602474480113834" lon="12.175696358852182"><ele>13.25</ele><time>2026-03-23T11:13:07Z</time></trkpt><trkpt lat="45.602369894948" lon="12.175837689751413"><ele>13.5</ele><time>2026-03-23T11:13:08Z</time></trkpt><trkpt lat="45.602273089732066" lon="12.176000703817543"><ele>13.75</ele><time>2026-03-23T11:13:09Z</time></trkpt><trkpt lat="45.602163129696976" lon="12.176155966698465"><ele>14.0</ele><time>2026-03-23T11:13:10Z</time></trkpt><trkpt lat="45.60205324422088" lon="12.17631539161624"><ele>13.333333333333334</ele><time>2026-03-23T11:13:11Z</time></trkpt><trkpt lat="45.60192949486873" lon="12.176461870471094"><ele>12.666666666666668</ele><time>2026-03-23T11:13:12Z</time></trkpt><trkpt lat="45.60182946380162" lon="12.176637487240365"><ele>12.0</ele><time>2026-03-23T11:13:13Z</time></trkpt><trkpt lat="45.601718502660425" lon="12.176790973311205"><ele>11.666666666666666</ele><time>2026-03-23T11:13:14Z</time></trkpt><trkpt lat="45.60160821071381" lon="12.176943202885962"><ele>11.333333333333332</ele><time>2026-03-23T11:13:15Z</time></trkpt><trkpt lat="45.60150171040626" lon="12.177093904821936"><ele>11.0</ele><time>2026-03-23T11:13:16Z</time></trkpt><trkpt lat="45.60139706613792" lon="12.177244715083765"><ele>11.0</ele><time>2026-03-23T11:13:17Z</time></trkpt><trkpt lat="45.60129403338881" lon="12.177393932541152"><ele>11.0</ele><time>2026-03-23T11:13:18Z</time></trkpt><trkpt lat="45.60119540786256" lon="12.177542328505883"><ele>11.0</ele><time>2026-03-23T11:13:19Z</time></trkpt><trkpt lat="45.60108259641061" lon="12.177678274706144"><ele>11.0</ele><time>2026-03-23T11:13:20Z</time></trkpt><trkpt lat="45.60097771211489" lon="12.177824434309793"><ele>11.25</ele><time>2026-03-23T11:13:21Z</time></trkpt><trkpt lat="45.60087585960606" lon="12.177963427815051"><ele>11.5</ele><time>2026-03-23T11:13:22Z</time></trkpt><trkpt lat="45.60077536228166" lon="12.178098371230671"><ele>11.75</ele><time>2026-03-23T11:13:23Z</time></trkpt><trkpt lat="45.600719458153506" lon="12.178184542953252"><ele>12.0</ele><time>2026-03-23T11:13:24Z</time></trkpt><trkpt lat="45.60064473828707" lon="12.17829103916619"><ele>11.6</ele><time>2026-03-23T11:13:25Z</time></trkpt><trkpt lat="45.600574359832365" lon="12.178388284895174"><ele>11.2</ele><time>2026-03-23T11:13:26Z</time></trkpt><trkpt lat="45.600503047937266" lon="12.178476372840674"><ele>10.8</ele><time>2026-03-23T11:13:27Z</time></trkpt><trkpt lat="45.600430217177696" lon="12.178541335742858"><ele>10.4</ele><time>2026-03-23T11:13:28Z</time></trkpt><trkpt lat="45.60035504704729" lon="12.178585116207007"><ele>10.0</ele><time>2026-03-23T11:13:29Z</time></trkpt><trkpt lat="45.600187566162234" lon="12.178576070060892"><ele>10.0</ele><time>2026-03-23T11:13:31Z</time></trkpt><trkpt lat="45.60013453166008" lon="12.178628327494769"><ele>10.0</ele><time>2026-03-23T11:13:32Z</time></trkpt><trkpt lat="45.600099340825636" lon="12.178731494892462"><ele>10.0</ele><time>2026-03-23T11:13:32.999Z</time></trkpt><trkpt lat="45.600067527940396" lon="12.178876346220926"><ele>10.0</ele><time>2026-03-23T11:13:33.999Z</time></trkpt><trkpt lat="45.60003423479023" lon="12.179071810126459"><ele>10.0</ele><time>2026-03-23T11:13:34.999Z</time></trkpt><trkpt lat="45.5999720130022" lon="12.179247454220217"><ele>10.4</ele><time>2026-03-23T11:13:35.999Z</time></trkpt><trkpt lat="45.599893581467754" lon="12.179376042956184"><ele>10.8</ele><time>2026-03-23T11:13:36.999Z</time></trkpt><trkpt lat="45.599825092305565" lon="12.179469876323088"><ele>11.2</ele><time>2026-03-23T11:13:37.999Z</time></trkpt><trkpt lat="45.599782683562516" lon="12.179537423532954"><ele>11.6</ele><time>2026-03-23T11:13:38.999Z</time></trkpt><trkpt lat="45.599719577897574" lon="12.179598826102113"><ele>12.0</ele><time>2026-03-23T11:13:46.999Z</time></trkpt><trkpt lat="45.599868348580074" lon="12.179770405894926"><ele>12.0</ele><time>2026-03-23T11:13:48.999Z</time></trkpt><trkpt lat="45.59994660927721" lon="12.17981251639517"><ele>12.0</ele><time>2026-03-23T11:13:49.999Z</time></trkpt><trkpt lat="45.600034359900086" lon="12.179875213764893"><ele>12.0</ele><time>2026-03-23T11:13:50.999Z</time></trkpt><trkpt lat="45.60007224419295" lon="12.1800530166284"><ele>12.0</ele><time>2026-03-23T11:13:51.999Z</time></trkpt><trkpt lat="45.60007473158813" lon="12.180183387478598"><ele>12.0</ele><time>2026-03-23T11:13:52.999Z</time></trkpt><trkpt lat="45.60008356105334" lon="12.18032996102759"><ele>12.25</ele><time>2026-03-23T11:13:53.999Z</time></trkpt><trkpt lat="45.599998153653104" lon="12.180473169035224"><ele>12.5</ele><time>2026-03-23T11:13:54.999Z</time></trkpt><trkpt lat="45.59992048382213" lon="12.180628254552715"><ele>12.75</ele><time>2026-03-23T11:13:55.999Z</time></trkpt><trkpt lat="45.59981657255494" lon="12.18082541003608"><ele>13.0</ele><time>2026-03-23T11:13:56.999Z</time></trkpt><trkpt lat="45.59969745763697" lon="12.181026734148675"><ele>13.0</ele><time>2026-03-23T11:13:57.999Z</time></trkpt><trkpt lat="45.59959226525304" lon="12.181203387391967"><ele>13.0</ele><time>2026-03-23T11:13:58.999Z</time></trkpt><trkpt lat="45.59948279915121" lon="12.181388091628143"><ele>13.0</ele><time>2026-03-23T11:13:59.999Z</time></trkpt><trkpt lat="45.5993674610123" lon="12.181585170043537"><ele>13.666666666666666</ele><time>2026-03-23T11:14:00.999Z</time></trkpt><trkpt lat="45.59925318262165" lon="12.181812549947159"><ele>14.333333333333332</ele><time>2026-03-23T11:14:01.999Z</time></trkpt><trkpt lat="45.59914274071368" lon="12.182044390983808"><ele>15.0</ele><time>2026-03-23T11:14:02.999Z</time></trkpt><trkpt lat="45.59905853484717" lon="12.182269152000035"><ele>14.666666666666668</ele><time>2026-03-23T11:14:03.999Z</time></trkpt><trkpt lat="45.599001158392696" lon="12.18248702587889"><ele>14.333333333333334</ele><time>2026-03-23T11:14:04.999Z</time></trkpt><trkpt lat="45.59896510223212" lon="12.182725655659445"><ele>14.0</ele><time>2026-03-23T11:14:05.999Z</time></trkpt><trkpt lat="45.59895612839486" lon="12.18300200661061"><ele>13.0</ele><time>2026-03-23T11:14:06.999Z</time></trkpt><trkpt lat="45.59896569844919" lon="12.183318418342116"><ele>12.0</ele><time>2026-03-23T11:14:07.999Z</time></trkpt><trkpt lat="45.59898511696799" lon="12.183659601345777"><ele>12.0</ele><time>2026-03-23T11:14:08.999Z</time></trkpt><trkpt lat="45.59899077339184" lon="12.184009703905518"><ele>12.0</ele><time>2026-03-23T11:14:09.999Z</time></trkpt><trkpt lat="45.59898709469972" lon="12.184322006415501"><ele>12.0</ele><time>2026-03-23T11:14:10.999Z</time></trkpt><trkpt lat="45.59898588478427" lon="12.184612582187093"><ele>12.0</ele><time>2026-03-23T11:14:11.999Z</time></trkpt><trkpt lat="45.59899063300905" lon="12.184873349643436"><ele>12.0</ele><time>2026-03-23T11:14:12.999Z</time></trkpt><trkpt lat="45.598989179399595" lon="12.185094714559579"><ele>11.8</ele><time>2026-03-23T11:14:13.999Z</time></trkpt><trkpt lat="45.59898073961662" lon="12.18526222902145"><ele>11.6</ele><time>2026-03-23T11:14:14.999Z</time></trkpt><trkpt lat="45.598990915676175" lon="12.185385845677459"><ele>11.4</ele><time>2026-03-23T11:14:15.999Z</time></trkpt><trkpt lat="45.599031266307215" lon="12.185488596905852"><ele>11.200000000000001</ele><time>2026-03-23T11:14:16.999Z</time></trkpt><trkpt lat="45.599103907962316" lon="12.185559493821394"><ele>11.0</ele><time>2026-03-23T11:14:17.999Z</time></trkpt><trkpt lat="45.59919883969114" lon="12.185563243938804"><ele>11.0</ele><time>2026-03-23T11:14:18.999Z</time></trkpt><trkpt lat="45.599305006008315" lon="12.185562983678174"><ele>11.0</ele><time>2026-03-23T11:14:19.999Z</time></trkpt><trkpt lat="45.59945670949417" lon="12.185567320758773"><ele>11.0</ele><time>2026-03-23T11:14:20.999Z</time></trkpt><trkpt lat="45.59966342753553" lon="12.185538636355018"><ele>11.333333333333332</ele><time>2026-03-23T11:14:21.999Z</time></trkpt><trkpt lat="45.599849810041874" lon="12.185570948745422"><ele>11.666666666666666</ele><time>2026-03-23T11:14:22.999Z</time></trkpt><trkpt lat="45.60002855542342" lon="12.185585875968242"><ele>12.0</ele><time>2026-03-23T11:14:23.999Z</time></trkpt><trkpt lat="45.60021423690139" lon="12.185581204122634"><ele>11.333333333333334</ele><time>2026-03-23T11:14:24.999Z</time></trkpt><trkpt lat="45.60038915533427" lon="12.185599131411795"><ele>10.666666666666668</ele><time>2026-03-23T11:14:25.999Z</time></trkpt><trkpt lat="45.60054485058132" lon="12.185608303853055"><ele>10.0</ele><time>2026-03-23T11:14:26.999Z</time></trkpt><trkpt lat="45.600680789729985" lon="12.185624300789902"><ele>10.0</ele><time>2026-03-23T11:14:27.999Z</time></trkpt><trkpt lat="45.60079081848941" lon="12.185674024512679"><ele>10.0</ele><time>2026-03-23T11:14:28.999Z</time></trkpt><trkpt lat="45.60088307700951" lon="12.185741451488125"><ele>10.0</ele><time>2026-03-23T11:14:29.999Z</time></trkpt><trkpt lat="45.600982591460976" lon="12.185853340332581"><ele>10.0</ele><time>2026-03-23T11:14:30.999Z</time></trkpt><trkpt lat="45.60105822017979" lon="12.186001195330473"><ele>10.333333333333334</ele><time>2026-03-23T11:14:31.999Z</time></trkpt><trkpt lat="45.60111101635913" lon="12.18616789390922"><ele>10.666666666666666</ele><time>2026-03-23T11:14:32.999Z</time></trkpt><trkpt lat="45.601131772544704" lon="12.186377917525977"><ele>11.0</ele><time>2026-03-23T11:14:33.999Z</time></trkpt><trkpt lat="45.601145232036664" lon="12.186628701357591"><ele>11.0</ele><time>2026-03-23T11:14:34.999Z</time></trkpt><trkpt lat="45.60117006108723" lon="12.186907636744635"><ele>11.0</ele><time>2026-03-23T11:14:35.999Z</time></trkpt><trkpt lat="45.60120165065562" lon="12.187189682672244"><ele>11.0</ele><time>2026-03-23T11:14:36.999Z</time></trkpt><trkpt lat="45.60122103594636" lon="12.187446768868293"><ele>11.0</ele><time>2026-03-23T11:14:37.999Z</time></trkpt><trkpt lat="45.60125703606065" lon="12.187675932572512"><ele>11.0</ele><time>2026-03-23T11:14:38.999Z</time></trkpt><trkpt lat="45.60132570041644" lon="12.187884593034969"><ele>11.0</ele><time>2026-03-23T11:14:39.999Z</time></trkpt><trkpt lat="45.60144455119635" lon="12.188064672256882"><ele>11.0</ele><time>2026-03-23T11:14:40.999Z</time></trkpt><trkpt lat="45.60159229955001" lon="12.18821914755699"><ele>11.0</ele><time>2026-03-23T11:14:41.999Z</time></trkpt><trkpt lat="45.60176561154165" lon="12.188332436971175"><ele>11.0</ele><time>2026-03-23T11:14:42.999Z</time></trkpt><trkpt lat="45.601921020124166" lon="12.188429463704566"><ele>10.666666666666666</ele><time>2026-03-23T11:14:43.998Z</time></trkpt><trkpt lat="45.602040452382646" lon="12.188583263231925"><ele>10.333333333333334</ele><time>2026-03-23T11:14:44.998Z</time></trkpt><trkpt lat="45.602136343112626" lon="12.188792447397807"><ele>10.0</ele><time>2026-03-23T11:14:45.998Z</time></trkpt><trkpt lat="45.60219327448531" lon="12.189043902658403"><ele>10.0</ele><time>2026-03-23T11:14:46.998Z</time></trkpt><trkpt lat="45.60217243738923" lon="12.189308689548339"><ele>10.0</ele><time>2026-03-23T11:14:47.998Z</time></trkpt><trkpt lat="45.60215337742473" lon="12.189607571681817"><ele>10.0</ele><time>2026-03-23T11:14:48.998Z</time></trkpt><trkpt lat="45.60213762688245" lon="12.189939117344188"><ele>10.0</ele><time>2026-03-23T11:14:49.998Z</time></trkpt><trkpt lat="45.60210850268222" lon="12.190295056681945"><ele>10.0</ele><time>2026-03-23T11:14:50.998Z</time></trkpt><trkpt lat="45.60208916983289" lon="12.190667133741929"><ele>10.5</ele><time>2026-03-23T11:14:51.998Z</time></trkpt><trkpt lat="45.602065173928736" lon="12.19106359688382"><ele>11.0</ele><time>2026-03-23T11:14:52.998Z</time></trkpt><trkpt lat="45.602039066100154" lon="12.191483881668502"><ele>11.0</ele><time>2026-03-23T11:14:53.998Z</time></trkpt><trkpt lat="45.602013258014864" lon="12.191901536889583"><ele>11.0</ele><time>2026-03-23T11:14:54.998Z</time></trkpt><trkpt lat="45.60198997381176" lon="12.192292333818129"><ele>11.0</ele><time>2026-03-23T11:14:55.998Z</time></trkpt><trkpt lat="45.601963800432124" lon="12.192687416800734"><ele>11.0</ele><time>2026-03-23T11:14:56.998Z</time></trkpt><trkpt lat="45.60194126070921" lon="12.193051167220426"><ele>11.0</ele><time>2026-03-23T11:14:57.998Z</time></trkpt><trkpt lat="45.601916223379796" lon="12.193390880365305"><ele>11.0</ele><time>2026-03-23T11:14:58.998Z</time></trkpt><trkpt lat="45.60189442596384" lon="12.19370664070382"><ele>11.0</ele><time>2026-03-23T11:14:59.998Z</time></trkpt><trkpt lat="45.60187376869363" lon="12.194001485161944"><ele>11.0</ele><time>2026-03-23T11:15:00.998Z</time></trkpt><trkpt lat="45.60185569122803" lon="12.194282958614457"><ele>11.0</ele><time>2026-03-23T11:15:01.998Z</time></trkpt><trkpt lat="45.601839978917866" lon="12.194535204340252"><ele>11.0</ele><time>2026-03-23T11:15:03Z</time></trkpt><trkpt lat="45.60182836311586" lon="12.194751499006754"><ele>11.0</ele><time>2026-03-23T11:15:04Z</time></trkpt><trkpt lat="45.60181823193332" lon="12.194962005178969"><ele>11.0</ele><time>2026-03-23T11:15:05Z</time></trkpt><trkpt lat="45.601805410751915" lon="12.195163934195296"><ele>11.0</ele><time>2026-03-23T11:15:06Z</time></trkpt><trkpt lat="45.60179275502756" lon="12.19535197033849"><ele>10.8</ele><time>2026-03-23T11:15:07Z</time></trkpt><trkpt lat="45.60178132692102" lon="12.195529160368462"><ele>10.600000000000001</ele><time>2026-03-23T11:15:08Z</time></trkpt><trkpt lat="45.60176681418762" lon="12.195691500373483"><ele>10.4</ele><time>2026-03-23T11:15:09Z</time></trkpt><trkpt lat="45.601761170161936" lon="12.195824091912806"><ele>10.2</ele><time>2026-03-23T11:15:10Z</time></trkpt><trkpt lat="45.601754487035656" lon="12.19592178431741"><ele>10.0</ele><time>2026-03-23T11:15:11Z</time></trkpt><trkpt lat="45.6017456507294" lon="12.19604115520918"><ele>10.0</ele><time>2026-03-23T11:15:13Z</time></trkpt><trkpt lat="45.601846332406495" lon="12.196111325954229"><ele>10.0</ele><time>2026-03-23T11:15:18Z</time></trkpt><trkpt lat="45.60191895936579" lon="12.196112875453391"><ele>10.0</ele><time>2026-03-23T11:15:20Z</time></trkpt><trkpt lat="45.60200687504454" lon="12.196107293142282"><ele>10.0</ele><time>2026-03-23T11:15:22Z</time></trkpt><trkpt lat="45.60210909900012" lon="12.196114729227425"><ele>10.0</ele><time>2026-03-23T11:15:24Z</time></trkpt><trkpt lat="45.60219235591995" lon="12.196115145655698"><ele>10.0</ele><time>2026-03-23T11:15:26Z</time></trkpt><trkpt lat="45.60229953331267" lon="12.196124770654762"><ele>10.0</ele><time>2026-03-23T11:15:28Z</time></trkpt><trkpt lat="45.602425256232124" lon="12.196127743298726"><ele>10.0</ele><time>2026-03-23T11:15:30Z</time></trkpt><trkpt lat="45.602489287422145" lon="12.196134959426956"><ele>10.0</ele><time>2026-03-23T11:15:31Z</time></trkpt><trkpt lat="45.602555288543606" lon="12.196139503845066"><ele>10.0</ele><time>2026-03-23T11:15:32Z</time></trkpt><trkpt lat="45.60262246255919" lon="12.19614054874631"><ele>10.0</ele><time>2026-03-23T11:15:33Z</time></trkpt><trkpt lat="45.60268695148659" lon="12.196146013163261"><ele>10.0</ele><time>2026-03-23T11:15:34Z</time></trkpt><trkpt lat="45.602799453076955" lon="12.196149443302765"><ele>10.0</ele><time>2026-03-23T11:15:36Z</time></trkpt><trkpt lat="45.60291467065776" lon="12.196154669062974"><ele>10.0</ele><time>2026-03-23T11:15:37.999Z</time></trkpt><trkpt lat="45.60303641767179" lon="12.196161888573016"><ele>10.0</ele><time>2026-03-23T11:15:39.999Z</time></trkpt><trkpt lat="45.60310014970285" lon="12.196164427915592"><ele>10.0</ele><time>2026-03-23T11:15:40.999Z</time></trkpt><trkpt lat="45.6031664894752" lon="12.196166617236972"><ele>10.0</ele><time>2026-03-23T11:15:41.999Z</time></trkpt><trkpt lat="45.60328656888125" lon="12.196169449733762"><ele>10.0</ele><time>2026-03-23T11:15:43.999Z</time></trkpt><trkpt lat="45.603405377171" lon="12.196175879861146"><ele>10.0</ele><time>2026-03-23T11:15:45.999Z</time></trkpt><trkpt lat="45.603519637672925" lon="12.196189712387058"><ele>10.0</ele><time>2026-03-23T11:15:47.999Z</time></trkpt><trkpt lat="45.60360672106509" lon="12.196199110216154"><ele>10.0</ele><time>2026-03-23T11:15:49.999Z</time></trkpt></trkseg></trk></gpx>